<?xml version="1.0" encoding="UTF-8" standalone="no" ?>
<gpx xmlns="http://www.topografix.com/GPX/1/1" xmlns:xsi="http://www.w3.org/2001/XMLSchema-instance" xsi:schemaLocation="http://www.topografix.com/GPX/1/1 http://www.topografix.com/GPX/1/1/gpx.xsd" version="1.1" creator="VisuGPX - https://www.visugpx.com">
  <metadata>
    <name>2015-06-20 06:46:37 [Suunto App]</name>
  </metadata>
  <trk>
    <name><![CDATA[2015-06-20 06:46:37 [Suunto App]_1]]></name>
    <trkseg>
      <trkpt lat="45.08772" lon="5.89773">
        <ele>546.7</ele>
        <time>2015-06-20T04:46:37Z</time>
      </trkpt>
      <trkpt lat="45.08774" lon="5.89774">
        <ele>590</ele>
        <time>2015-06-20T04:46:39Z</time>
      </trkpt>
      <trkpt lat="45.08777" lon="5.89777">
        <ele>590</ele>
        <time>2015-06-20T04:46:41Z</time>
      </trkpt>
      <trkpt lat="45.08779" lon="5.89778">
        <ele>590</ele>
        <time>2015-06-20T04:46:42Z</time>
      </trkpt>
      <trkpt lat="45.0878" lon="5.8978">
        <ele>590</ele>
        <time>2015-06-20T04:46:43Z</time>
      </trkpt>
      <trkpt lat="45.08782" lon="5.89783">
        <ele>590</ele>
        <time>2015-06-20T04:46:44Z</time>
      </trkpt>
      <trkpt lat="45.08784" lon="5.89785">
        <ele>590</ele>
        <time>2015-06-20T04:46:45Z</time>
      </trkpt>
      <trkpt lat="45.08786" lon="5.89787">
        <ele>590</ele>
        <time>2015-06-20T04:46:46Z</time>
      </trkpt>
      <trkpt lat="45.08788" lon="5.89789">
        <ele>590</ele>
        <time>2015-06-20T04:46:47Z</time>
      </trkpt>
      <trkpt lat="45.0879" lon="5.89791">
        <ele>590</ele>
        <time>2015-06-20T04:46:48Z</time>
      </trkpt>
      <trkpt lat="45.08792" lon="5.89793">
        <ele>590</ele>
        <time>2015-06-20T04:46:49Z</time>
      </trkpt>
      <trkpt lat="45.08794" lon="5.89795">
        <ele>589</ele>
        <time>2015-06-20T04:46:50Z</time>
      </trkpt>
      <trkpt lat="45.08795" lon="5.89797">
        <ele>589</ele>
        <time>2015-06-20T04:46:51Z</time>
      </trkpt>
      <trkpt lat="45.08797" lon="5.89801">
        <ele>589</ele>
        <time>2015-06-20T04:46:53Z</time>
      </trkpt>
      <trkpt lat="45.08798" lon="5.89804">
        <ele>589</ele>
        <time>2015-06-20T04:46:54Z</time>
      </trkpt>
      <trkpt lat="45.08799" lon="5.89808">
        <ele>589</ele>
        <time>2015-06-20T04:46:55Z</time>
      </trkpt>
      <trkpt lat="45.088" lon="5.8981">
        <ele>589</ele>
        <time>2015-06-20T04:46:56Z</time>
      </trkpt>
      <trkpt lat="45.08801" lon="5.89813">
        <ele>589</ele>
        <time>2015-06-20T04:46:57Z</time>
      </trkpt>
      <trkpt lat="45.08803" lon="5.89815">
        <ele>589</ele>
        <time>2015-06-20T04:46:58Z</time>
      </trkpt>
      <trkpt lat="45.08804" lon="5.89819">
        <ele>586</ele>
        <time>2015-06-20T04:46:59Z</time>
      </trkpt>
      <trkpt lat="45.08806" lon="5.89821">
        <ele>586</ele>
        <time>2015-06-20T04:47:00Z</time>
      </trkpt>
      <trkpt lat="45.08808" lon="5.89823">
        <ele>586</ele>
        <time>2015-06-20T04:47:01Z</time>
      </trkpt>
      <trkpt lat="45.08811" lon="5.89825">
        <ele>586</ele>
        <time>2015-06-20T04:47:02Z</time>
      </trkpt>
      <trkpt lat="45.08813" lon="5.89827">
        <ele>586</ele>
        <time>2015-06-20T04:47:03Z</time>
      </trkpt>
      <trkpt lat="45.08815" lon="5.89828">
        <ele>586</ele>
        <time>2015-06-20T04:47:04Z</time>
      </trkpt>
      <trkpt lat="45.08818" lon="5.89832">
        <ele>586</ele>
        <time>2015-06-20T04:47:05Z</time>
      </trkpt>
      <trkpt lat="45.0882" lon="5.89834">
        <ele>586</ele>
        <time>2015-06-20T04:47:06Z</time>
      </trkpt>
      <trkpt lat="45.08823" lon="5.89836">
        <ele>586</ele>
        <time>2015-06-20T04:47:07Z</time>
      </trkpt>
      <trkpt lat="45.08825" lon="5.89839">
        <ele>586</ele>
        <time>2015-06-20T04:47:08Z</time>
      </trkpt>
      <trkpt lat="45.08828" lon="5.89841">
        <ele>584</ele>
        <time>2015-06-20T04:47:09Z</time>
      </trkpt>
      <trkpt lat="45.08831" lon="5.89843">
        <ele>584</ele>
        <time>2015-06-20T04:47:10Z</time>
      </trkpt>
      <trkpt lat="45.08833" lon="5.89844">
        <ele>584</ele>
        <time>2015-06-20T04:47:11Z</time>
      </trkpt>
      <trkpt lat="45.08835" lon="5.89846">
        <ele>584</ele>
        <time>2015-06-20T04:47:12Z</time>
      </trkpt>
      <trkpt lat="45.08837" lon="5.89847">
        <ele>584</ele>
        <time>2015-06-20T04:47:13Z</time>
      </trkpt>
      <trkpt lat="45.08839" lon="5.89848">
        <ele>584</ele>
        <time>2015-06-20T04:47:14Z</time>
      </trkpt>
      <trkpt lat="45.08841" lon="5.89846">
        <ele>584</ele>
        <time>2015-06-20T04:47:19Z</time>
      </trkpt>
      <trkpt lat="45.08844" lon="5.89846">
        <ele>584</ele>
        <time>2015-06-20T04:47:21Z</time>
      </trkpt>
      <trkpt lat="45.08845" lon="5.89848">
        <ele>584</ele>
        <time>2015-06-20T04:47:23Z</time>
      </trkpt>
      <trkpt lat="45.08847" lon="5.89849">
        <ele>584</ele>
        <time>2015-06-20T04:47:25Z</time>
      </trkpt>
      <trkpt lat="45.08849" lon="5.89847">
        <ele>584</ele>
        <time>2015-06-20T04:47:27Z</time>
      </trkpt>
      <trkpt lat="45.08851" lon="5.89848">
        <ele>589</ele>
        <time>2015-06-20T04:47:29Z</time>
      </trkpt>
      <trkpt lat="45.08853" lon="5.89848">
        <ele>589</ele>
        <time>2015-06-20T04:47:31Z</time>
      </trkpt>
      <trkpt lat="45.08856" lon="5.89849">
        <ele>589</ele>
        <time>2015-06-20T04:47:33Z</time>
      </trkpt>
      <trkpt lat="45.08859" lon="5.8985">
        <ele>592</ele>
        <time>2015-06-20T04:47:35Z</time>
      </trkpt>
      <trkpt lat="45.08861" lon="5.89847">
        <ele>592</ele>
        <time>2015-06-20T04:47:36Z</time>
      </trkpt>
      <trkpt lat="45.08861" lon="5.89844">
        <ele>592</ele>
        <time>2015-06-20T04:47:38Z</time>
      </trkpt>
      <trkpt lat="45.08861" lon="5.89841">
        <ele>594</ele>
        <time>2015-06-20T04:47:40Z</time>
      </trkpt>
      <trkpt lat="45.08862" lon="5.8984">
        <ele>595</ele>
        <time>2015-06-20T04:47:42Z</time>
      </trkpt>
      <trkpt lat="45.08863" lon="5.89837">
        <ele>596</ele>
        <time>2015-06-20T04:47:44Z</time>
      </trkpt>
      <trkpt lat="45.08866" lon="5.89835">
        <ele>596</ele>
        <time>2015-06-20T04:47:47Z</time>
      </trkpt>
      <trkpt lat="45.08868" lon="5.89833">
        <ele>597</ele>
        <time>2015-06-20T04:47:49Z</time>
      </trkpt>
      <trkpt lat="45.0887" lon="5.89832">
        <ele>597</ele>
        <time>2015-06-20T04:47:50Z</time>
      </trkpt>
      <trkpt lat="45.08872" lon="5.8983">
        <ele>597</ele>
        <time>2015-06-20T04:47:52Z</time>
      </trkpt>
      <trkpt lat="45.08874" lon="5.89831">
        <ele>597</ele>
        <time>2015-06-20T04:47:53Z</time>
      </trkpt>
      <trkpt lat="45.08876" lon="5.89832">
        <ele>598</ele>
        <time>2015-06-20T04:47:54Z</time>
      </trkpt>
      <trkpt lat="45.08878" lon="5.89833">
        <ele>598</ele>
        <time>2015-06-20T04:47:55Z</time>
      </trkpt>
      <trkpt lat="45.0888" lon="5.89833">
        <ele>598</ele>
        <time>2015-06-20T04:47:56Z</time>
      </trkpt>
      <trkpt lat="45.08884" lon="5.89832">
        <ele>598</ele>
        <time>2015-06-20T04:47:58Z</time>
      </trkpt>
      <trkpt lat="45.08886" lon="5.89832">
        <ele>599</ele>
        <time>2015-06-20T04:47:59Z</time>
      </trkpt>
      <trkpt lat="45.08888" lon="5.89832">
        <ele>599</ele>
        <time>2015-06-20T04:48:01Z</time>
      </trkpt>
      <trkpt lat="45.08891" lon="5.89832">
        <ele>599</ele>
        <time>2015-06-20T04:48:03Z</time>
      </trkpt>
      <trkpt lat="45.08893" lon="5.89834">
        <ele>599</ele>
        <time>2015-06-20T04:48:05Z</time>
      </trkpt>
      <trkpt lat="45.08895" lon="5.89835">
        <ele>599</ele>
        <time>2015-06-20T04:48:06Z</time>
      </trkpt>
      <trkpt lat="45.08899" lon="5.89836">
        <ele>599</ele>
        <time>2015-06-20T04:48:08Z</time>
      </trkpt>
      <trkpt lat="45.08901" lon="5.89835">
        <ele>599</ele>
        <time>2015-06-20T04:48:09Z</time>
      </trkpt>
      <trkpt lat="45.08903" lon="5.89836">
        <ele>599</ele>
        <time>2015-06-20T04:48:10Z</time>
      </trkpt>
      <trkpt lat="45.08905" lon="5.89837">
        <ele>599</ele>
        <time>2015-06-20T04:48:11Z</time>
      </trkpt>
      <trkpt lat="45.08907" lon="5.89839">
        <ele>599</ele>
        <time>2015-06-20T04:48:12Z</time>
      </trkpt>
      <trkpt lat="45.08908" lon="5.89841">
        <ele>599</ele>
        <time>2015-06-20T04:48:13Z</time>
      </trkpt>
      <trkpt lat="45.0891" lon="5.89843">
        <ele>599</ele>
        <time>2015-06-20T04:48:14Z</time>
      </trkpt>
      <trkpt lat="45.08911" lon="5.89845">
        <ele>599</ele>
        <time>2015-06-20T04:48:15Z</time>
      </trkpt>
      <trkpt lat="45.08913" lon="5.89847">
        <ele>599</ele>
        <time>2015-06-20T04:48:16Z</time>
      </trkpt>
      <trkpt lat="45.08914" lon="5.8985">
        <ele>599</ele>
        <time>2015-06-20T04:48:17Z</time>
      </trkpt>
      <trkpt lat="45.08916" lon="5.89852">
        <ele>599</ele>
        <time>2015-06-20T04:48:18Z</time>
      </trkpt>
      <trkpt lat="45.08918" lon="5.89857">
        <ele>599</ele>
        <time>2015-06-20T04:48:20Z</time>
      </trkpt>
      <trkpt lat="45.0892" lon="5.89857">
        <ele>599</ele>
        <time>2015-06-20T04:48:21Z</time>
      </trkpt>
      <trkpt lat="45.08923" lon="5.89857">
        <ele>599</ele>
        <time>2015-06-20T04:48:23Z</time>
      </trkpt>
      <trkpt lat="45.08924" lon="5.89857">
        <ele>599</ele>
        <time>2015-06-20T04:48:27Z</time>
      </trkpt>
      <trkpt lat="45.08928" lon="5.89857">
        <ele>599</ele>
        <time>2015-06-20T04:48:30Z</time>
      </trkpt>
      <trkpt lat="45.0893" lon="5.89858">
        <ele>600</ele>
        <time>2015-06-20T04:48:32Z</time>
      </trkpt>
      <trkpt lat="45.08933" lon="5.8986">
        <ele>600</ele>
        <time>2015-06-20T04:48:34Z</time>
      </trkpt>
      <trkpt lat="45.08936" lon="5.89861">
        <ele>600</ele>
        <time>2015-06-20T04:48:37Z</time>
      </trkpt>
      <trkpt lat="45.08938" lon="5.89862">
        <ele>604</ele>
        <time>2015-06-20T04:48:39Z</time>
      </trkpt>
      <trkpt lat="45.08939" lon="5.89865">
        <ele>604</ele>
        <time>2015-06-20T04:48:41Z</time>
      </trkpt>
      <trkpt lat="45.08941" lon="5.89867">
        <ele>607</ele>
        <time>2015-06-20T04:48:44Z</time>
      </trkpt>
      <trkpt lat="45.08943" lon="5.89868">
        <ele>607</ele>
        <time>2015-06-20T04:48:47Z</time>
      </trkpt>
      <trkpt lat="45.08945" lon="5.89867">
        <ele>607</ele>
        <time>2015-06-20T04:48:49Z</time>
      </trkpt>
      <trkpt lat="45.08947" lon="5.89864">
        <ele>608</ele>
        <time>2015-06-20T04:48:51Z</time>
      </trkpt>
      <trkpt lat="45.08948" lon="5.89862">
        <ele>608</ele>
        <time>2015-06-20T04:48:53Z</time>
      </trkpt>
      <trkpt lat="45.08951" lon="5.89862">
        <ele>609</ele>
        <time>2015-06-20T04:48:56Z</time>
      </trkpt>
      <trkpt lat="45.08954" lon="5.89864">
        <ele>609</ele>
        <time>2015-06-20T04:48:59Z</time>
      </trkpt>
      <trkpt lat="45.08955" lon="5.89861">
        <ele>613</ele>
        <time>2015-06-20T04:49:05Z</time>
      </trkpt>
      <trkpt lat="45.08954" lon="5.89859">
        <ele>613</ele>
        <time>2015-06-20T04:49:08Z</time>
      </trkpt>
      <trkpt lat="45.08953" lon="5.89856">
        <ele>615</ele>
        <time>2015-06-20T04:49:10Z</time>
      </trkpt>
      <trkpt lat="45.08953" lon="5.89853">
        <ele>615</ele>
        <time>2015-06-20T04:49:12Z</time>
      </trkpt>
      <trkpt lat="45.08953" lon="5.8985">
        <ele>617</ele>
        <time>2015-06-20T04:49:15Z</time>
      </trkpt>
      <trkpt lat="45.08954" lon="5.89848">
        <ele>617</ele>
        <time>2015-06-20T04:49:18Z</time>
      </trkpt>
      <trkpt lat="45.08957" lon="5.89848">
        <ele>618</ele>
        <time>2015-06-20T04:49:20Z</time>
      </trkpt>
      <trkpt lat="45.08959" lon="5.8985">
        <ele>618</ele>
        <time>2015-06-20T04:49:22Z</time>
      </trkpt>
      <trkpt lat="45.08961" lon="5.8985">
        <ele>620</ele>
        <time>2015-06-20T04:49:24Z</time>
      </trkpt>
      <trkpt lat="45.08963" lon="5.89851">
        <ele>620</ele>
        <time>2015-06-20T04:49:26Z</time>
      </trkpt>
      <trkpt lat="45.08965" lon="5.89851">
        <ele>622</ele>
        <time>2015-06-20T04:49:29Z</time>
      </trkpt>
      <trkpt lat="45.08967" lon="5.89849">
        <ele>622</ele>
        <time>2015-06-20T04:49:32Z</time>
      </trkpt>
      <trkpt lat="45.08967" lon="5.89846">
        <ele>624</ele>
        <time>2015-06-20T04:49:34Z</time>
      </trkpt>
      <trkpt lat="45.08965" lon="5.89844">
        <ele>624</ele>
        <time>2015-06-20T04:49:37Z</time>
      </trkpt>
      <trkpt lat="45.08964" lon="5.89841">
        <ele>626</ele>
        <time>2015-06-20T04:49:40Z</time>
      </trkpt>
      <trkpt lat="45.08964" lon="5.89838">
        <ele>626</ele>
        <time>2015-06-20T04:49:42Z</time>
      </trkpt>
      <trkpt lat="45.08964" lon="5.89834">
        <ele>627</ele>
        <time>2015-06-20T04:49:45Z</time>
      </trkpt>
      <trkpt lat="45.08966" lon="5.89832">
        <ele>628</ele>
        <time>2015-06-20T04:49:49Z</time>
      </trkpt>
      <trkpt lat="45.08966" lon="5.8983">
        <ele>628</ele>
        <time>2015-06-20T04:49:51Z</time>
      </trkpt>
      <trkpt lat="45.08967" lon="5.89826">
        <ele>628</ele>
        <time>2015-06-20T04:49:52Z</time>
      </trkpt>
      <trkpt lat="45.08967" lon="5.89824">
        <ele>631</ele>
        <time>2015-06-20T04:49:54Z</time>
      </trkpt>
      <trkpt lat="45.08967" lon="5.89821">
        <ele>631</ele>
        <time>2015-06-20T04:49:56Z</time>
      </trkpt>
      <trkpt lat="45.08968" lon="5.89819">
        <ele>633</ele>
        <time>2015-06-20T04:50:00Z</time>
      </trkpt>
      <trkpt lat="45.08968" lon="5.89815">
        <ele>633</ele>
        <time>2015-06-20T04:50:02Z</time>
      </trkpt>
      <trkpt lat="45.08968" lon="5.89812">
        <ele>635</ele>
        <time>2015-06-20T04:50:04Z</time>
      </trkpt>
      <trkpt lat="45.08967" lon="5.89809">
        <ele>635</ele>
        <time>2015-06-20T04:50:05Z</time>
      </trkpt>
      <trkpt lat="45.08967" lon="5.89806">
        <ele>635</ele>
        <time>2015-06-20T04:50:06Z</time>
      </trkpt>
      <trkpt lat="45.08968" lon="5.89804">
        <ele>635</ele>
        <time>2015-06-20T04:50:08Z</time>
      </trkpt>
      <trkpt lat="45.08967" lon="5.89802">
        <ele>637</ele>
        <time>2015-06-20T04:50:10Z</time>
      </trkpt>
      <trkpt lat="45.08967" lon="5.89798">
        <ele>637</ele>
        <time>2015-06-20T04:50:12Z</time>
      </trkpt>
      <trkpt lat="45.08969" lon="5.89794">
        <ele>638</ele>
        <time>2015-06-20T04:50:15Z</time>
      </trkpt>
      <trkpt lat="45.0897" lon="5.8979">
        <ele>638</ele>
        <time>2015-06-20T04:50:17Z</time>
      </trkpt>
      <trkpt lat="45.08973" lon="5.89789">
        <ele>640</ele>
        <time>2015-06-20T04:50:20Z</time>
      </trkpt>
      <trkpt lat="45.08974" lon="5.89788">
        <ele>640</ele>
        <time>2015-06-20T04:50:23Z</time>
      </trkpt>
      <trkpt lat="45.08977" lon="5.8979">
        <ele>643</ele>
        <time>2015-06-20T04:50:25Z</time>
      </trkpt>
      <trkpt lat="45.08978" lon="5.89791">
        <ele>643</ele>
        <time>2015-06-20T04:50:27Z</time>
      </trkpt>
      <trkpt lat="45.08981" lon="5.89789">
        <ele>645</ele>
        <time>2015-06-20T04:50:31Z</time>
      </trkpt>
      <trkpt lat="45.08983" lon="5.89789">
        <ele>646</ele>
        <time>2015-06-20T04:50:36Z</time>
      </trkpt>
      <trkpt lat="45.08986" lon="5.8979">
        <ele>646</ele>
        <time>2015-06-20T04:50:38Z</time>
      </trkpt>
      <trkpt lat="45.08988" lon="5.89791">
        <ele>647</ele>
        <time>2015-06-20T04:50:40Z</time>
      </trkpt>
      <trkpt lat="45.0899" lon="5.8979">
        <ele>649</ele>
        <time>2015-06-20T04:50:44Z</time>
      </trkpt>
      <trkpt lat="45.08992" lon="5.89789">
        <ele>649</ele>
        <time>2015-06-20T04:50:46Z</time>
      </trkpt>
      <trkpt lat="45.08995" lon="5.89792">
        <ele>649</ele>
        <time>2015-06-20T04:50:48Z</time>
      </trkpt>
      <trkpt lat="45.08996" lon="5.89796">
        <ele>650</ele>
        <time>2015-06-20T04:50:50Z</time>
      </trkpt>
      <trkpt lat="45.08997" lon="5.89798">
        <ele>650</ele>
        <time>2015-06-20T04:50:51Z</time>
      </trkpt>
      <trkpt lat="45.08998" lon="5.898">
        <ele>650</ele>
        <time>2015-06-20T04:50:53Z</time>
      </trkpt>
      <trkpt lat="45.09" lon="5.89801">
        <ele>650</ele>
        <time>2015-06-20T04:50:54Z</time>
      </trkpt>
      <trkpt lat="45.09001" lon="5.89803">
        <ele>650</ele>
        <time>2015-06-20T04:50:55Z</time>
      </trkpt>
      <trkpt lat="45.09003" lon="5.89804">
        <ele>650</ele>
        <time>2015-06-20T04:50:56Z</time>
      </trkpt>
      <trkpt lat="45.09003" lon="5.89807">
        <ele>650</ele>
        <time>2015-06-20T04:50:59Z</time>
      </trkpt>
      <trkpt lat="45.08999" lon="5.89805">
        <ele>650</ele>
        <time>2015-06-20T04:51:03Z</time>
      </trkpt>
      <trkpt lat="45.08997" lon="5.89805">
        <ele>650</ele>
        <time>2015-06-20T04:51:05Z</time>
      </trkpt>
      <trkpt lat="45.09001" lon="5.89809">
        <ele>649</ele>
        <time>2015-06-20T04:51:27Z</time>
      </trkpt>
      <trkpt lat="45.09" lon="5.89818">
        <ele>649</ele>
        <time>2015-06-20T04:51:32Z</time>
      </trkpt>
      <trkpt lat="45.09" lon="5.89824">
        <ele>650</ele>
        <time>2015-06-20T04:51:34Z</time>
      </trkpt>
      <trkpt lat="45.09003" lon="5.89823">
        <ele>651</ele>
        <time>2015-06-20T04:51:45Z</time>
      </trkpt>
      <trkpt lat="45.09004" lon="5.89824">
        <ele>651</ele>
        <time>2015-06-20T04:51:47Z</time>
      </trkpt>
      <trkpt lat="45.09006" lon="5.89825">
        <ele>651</ele>
        <time>2015-06-20T04:51:49Z</time>
      </trkpt>
      <trkpt lat="45.09008" lon="5.89824">
        <ele>653</ele>
        <time>2015-06-20T04:51:51Z</time>
      </trkpt>
      <trkpt lat="45.0901" lon="5.89822">
        <ele>653</ele>
        <time>2015-06-20T04:51:55Z</time>
      </trkpt>
      <trkpt lat="45.09014" lon="5.8982">
        <ele>653</ele>
        <time>2015-06-20T04:51:59Z</time>
      </trkpt>
      <trkpt lat="45.09017" lon="5.8982">
        <ele>656</ele>
        <time>2015-06-20T04:52:01Z</time>
      </trkpt>
      <trkpt lat="45.09019" lon="5.89821">
        <ele>656</ele>
        <time>2015-06-20T04:52:03Z</time>
      </trkpt>
      <trkpt lat="45.09021" lon="5.89822">
        <ele>657</ele>
        <time>2015-06-20T04:52:05Z</time>
      </trkpt>
      <trkpt lat="45.09023" lon="5.89822">
        <ele>657</ele>
        <time>2015-06-20T04:52:08Z</time>
      </trkpt>
      <trkpt lat="45.09025" lon="5.89826">
        <ele>659</ele>
        <time>2015-06-20T04:52:10Z</time>
      </trkpt>
      <trkpt lat="45.09026" lon="5.89828">
        <ele>659</ele>
        <time>2015-06-20T04:52:11Z</time>
      </trkpt>
      <trkpt lat="45.09027" lon="5.8983">
        <ele>659</ele>
        <time>2015-06-20T04:52:12Z</time>
      </trkpt>
      <trkpt lat="45.09029" lon="5.89832">
        <ele>659</ele>
        <time>2015-06-20T04:52:13Z</time>
      </trkpt>
      <trkpt lat="45.0903" lon="5.89835">
        <ele>661</ele>
        <time>2015-06-20T04:52:14Z</time>
      </trkpt>
      <trkpt lat="45.09032" lon="5.89838">
        <ele>661</ele>
        <time>2015-06-20T04:52:16Z</time>
      </trkpt>
      <trkpt lat="45.09034" lon="5.89839">
        <ele>661</ele>
        <time>2015-06-20T04:52:17Z</time>
      </trkpt>
      <trkpt lat="45.09038" lon="5.89839">
        <ele>663</ele>
        <time>2015-06-20T04:52:19Z</time>
      </trkpt>
      <trkpt lat="45.0904" lon="5.89841">
        <ele>663</ele>
        <time>2015-06-20T04:52:21Z</time>
      </trkpt>
      <trkpt lat="45.09043" lon="5.89841">
        <ele>663</ele>
        <time>2015-06-20T04:52:23Z</time>
      </trkpt>
      <trkpt lat="45.09046" lon="5.8984">
        <ele>665</ele>
        <time>2015-06-20T04:52:25Z</time>
      </trkpt>
      <trkpt lat="45.09049" lon="5.89841">
        <ele>665</ele>
        <time>2015-06-20T04:52:27Z</time>
      </trkpt>
      <trkpt lat="45.09052" lon="5.89842">
        <ele>667</ele>
        <time>2015-06-20T04:52:29Z</time>
      </trkpt>
      <trkpt lat="45.09054" lon="5.89842">
        <ele>667</ele>
        <time>2015-06-20T04:52:32Z</time>
      </trkpt>
      <trkpt lat="45.09057" lon="5.89842">
        <ele>669</ele>
        <time>2015-06-20T04:52:34Z</time>
      </trkpt>
      <trkpt lat="45.09057" lon="5.89839">
        <ele>669</ele>
        <time>2015-06-20T04:52:37Z</time>
      </trkpt>
      <trkpt lat="45.09055" lon="5.89838">
        <ele>671</ele>
        <time>2015-06-20T04:52:39Z</time>
      </trkpt>
      <trkpt lat="45.09054" lon="5.89834">
        <ele>671</ele>
        <time>2015-06-20T04:52:43Z</time>
      </trkpt>
      <trkpt lat="45.09053" lon="5.8983">
        <ele>672</ele>
        <time>2015-06-20T04:52:45Z</time>
      </trkpt>
      <trkpt lat="45.09052" lon="5.89827">
        <ele>672</ele>
        <time>2015-06-20T04:52:47Z</time>
      </trkpt>
      <trkpt lat="45.0905" lon="5.89824">
        <ele>674</ele>
        <time>2015-06-20T04:52:49Z</time>
      </trkpt>
      <trkpt lat="45.09048" lon="5.89822">
        <ele>674</ele>
        <time>2015-06-20T04:52:51Z</time>
      </trkpt>
      <trkpt lat="45.09047" lon="5.89819">
        <ele>674</ele>
        <time>2015-06-20T04:52:53Z</time>
      </trkpt>
      <trkpt lat="45.09045" lon="5.89817">
        <ele>676</ele>
        <time>2015-06-20T04:52:55Z</time>
      </trkpt>
      <trkpt lat="45.09044" lon="5.89814">
        <ele>676</ele>
        <time>2015-06-20T04:52:57Z</time>
      </trkpt>
      <trkpt lat="45.09043" lon="5.89811">
        <ele>678</ele>
        <time>2015-06-20T04:52:59Z</time>
      </trkpt>
      <trkpt lat="45.09042" lon="5.89809">
        <ele>678</ele>
        <time>2015-06-20T04:53:01Z</time>
      </trkpt>
      <trkpt lat="45.09039" lon="5.89804">
        <ele>678</ele>
        <time>2015-06-20T04:53:03Z</time>
      </trkpt>
      <trkpt lat="45.09037" lon="5.89802">
        <ele>679</ele>
        <time>2015-06-20T04:53:05Z</time>
      </trkpt>
      <trkpt lat="45.09035" lon="5.89801">
        <ele>679</ele>
        <time>2015-06-20T04:53:07Z</time>
      </trkpt>
      <trkpt lat="45.09033" lon="5.89798">
        <ele>680</ele>
        <time>2015-06-20T04:53:09Z</time>
      </trkpt>
      <trkpt lat="45.09031" lon="5.89793">
        <ele>680</ele>
        <time>2015-06-20T04:53:11Z</time>
      </trkpt>
      <trkpt lat="45.09029" lon="5.8979">
        <ele>680</ele>
        <time>2015-06-20T04:53:13Z</time>
      </trkpt>
      <trkpt lat="45.09027" lon="5.89787">
        <ele>680</ele>
        <time>2015-06-20T04:53:15Z</time>
      </trkpt>
      <trkpt lat="45.09025" lon="5.89783">
        <ele>680</ele>
        <time>2015-06-20T04:53:17Z</time>
      </trkpt>
      <trkpt lat="45.09022" lon="5.89776">
        <ele>683</ele>
        <time>2015-06-20T04:53:23Z</time>
      </trkpt>
      <trkpt lat="45.09022" lon="5.89773">
        <ele>685</ele>
        <time>2015-06-20T04:53:24Z</time>
      </trkpt>
      <trkpt lat="45.0902" lon="5.89769">
        <ele>685</ele>
        <time>2015-06-20T04:53:26Z</time>
      </trkpt>
      <trkpt lat="45.09019" lon="5.89765">
        <ele>685</ele>
        <time>2015-06-20T04:53:28Z</time>
      </trkpt>
      <trkpt lat="45.09017" lon="5.89761">
        <ele>687</ele>
        <time>2015-06-20T04:53:30Z</time>
      </trkpt>
      <trkpt lat="45.09015" lon="5.89757">
        <ele>687</ele>
        <time>2015-06-20T04:53:32Z</time>
      </trkpt>
      <trkpt lat="45.09014" lon="5.89755">
        <ele>687</ele>
        <time>2015-06-20T04:53:33Z</time>
      </trkpt>
      <trkpt lat="45.09012" lon="5.89751">
        <ele>688</ele>
        <time>2015-06-20T04:53:35Z</time>
      </trkpt>
      <trkpt lat="45.0901" lon="5.89747">
        <ele>688</ele>
        <time>2015-06-20T04:53:37Z</time>
      </trkpt>
      <trkpt lat="45.09009" lon="5.89743">
        <ele>690</ele>
        <time>2015-06-20T04:53:39Z</time>
      </trkpt>
      <trkpt lat="45.09009" lon="5.89739">
        <ele>690</ele>
        <time>2015-06-20T04:53:41Z</time>
      </trkpt>
      <trkpt lat="45.09008" lon="5.89734">
        <ele>690</ele>
        <time>2015-06-20T04:53:43Z</time>
      </trkpt>
      <trkpt lat="45.09008" lon="5.89731">
        <ele>692</ele>
        <time>2015-06-20T04:53:45Z</time>
      </trkpt>
      <trkpt lat="45.09008" lon="5.89727">
        <ele>692</ele>
        <time>2015-06-20T04:53:47Z</time>
      </trkpt>
      <trkpt lat="45.09008" lon="5.89723">
        <ele>694</ele>
        <time>2015-06-20T04:53:49Z</time>
      </trkpt>
      <trkpt lat="45.09007" lon="5.89719">
        <ele>696</ele>
        <time>2015-06-20T04:53:55Z</time>
      </trkpt>
      <trkpt lat="45.09006" lon="5.89716">
        <ele>696</ele>
        <time>2015-06-20T04:53:56Z</time>
      </trkpt>
      <trkpt lat="45.09007" lon="5.89713">
        <ele>696</ele>
        <time>2015-06-20T04:53:58Z</time>
      </trkpt>
      <trkpt lat="45.09006" lon="5.8971">
        <ele>697</ele>
        <time>2015-06-20T04:54:02Z</time>
      </trkpt>
      <trkpt lat="45.09004" lon="5.89708">
        <ele>697</ele>
        <time>2015-06-20T04:54:05Z</time>
      </trkpt>
      <trkpt lat="45.09002" lon="5.89705">
        <ele>699</ele>
        <time>2015-06-20T04:54:07Z</time>
      </trkpt>
      <trkpt lat="45.09002" lon="5.89703">
        <ele>700</ele>
        <time>2015-06-20T04:54:09Z</time>
      </trkpt>
      <trkpt lat="45.09" lon="5.89697">
        <ele>700</ele>
        <time>2015-06-20T04:54:13Z</time>
      </trkpt>
      <trkpt lat="45.08998" lon="5.89696">
        <ele>702</ele>
        <time>2015-06-20T04:54:17Z</time>
      </trkpt>
      <trkpt lat="45.08996" lon="5.89693">
        <ele>704</ele>
        <time>2015-06-20T04:54:21Z</time>
      </trkpt>
      <trkpt lat="45.08996" lon="5.89689">
        <ele>706</ele>
        <time>2015-06-20T04:54:24Z</time>
      </trkpt>
      <trkpt lat="45.08997" lon="5.89686">
        <ele>706</ele>
        <time>2015-06-20T04:54:26Z</time>
      </trkpt>
      <trkpt lat="45.08996" lon="5.89684">
        <ele>706</ele>
        <time>2015-06-20T04:54:28Z</time>
      </trkpt>
      <trkpt lat="45.08995" lon="5.89681">
        <ele>706</ele>
        <time>2015-06-20T04:54:31Z</time>
      </trkpt>
      <trkpt lat="45.08994" lon="5.89678">
        <ele>708</ele>
        <time>2015-06-20T04:54:33Z</time>
      </trkpt>
      <trkpt lat="45.08993" lon="5.89675">
        <ele>709</ele>
        <time>2015-06-20T04:54:35Z</time>
      </trkpt>
      <trkpt lat="45.08993" lon="5.89671">
        <ele>711</ele>
        <time>2015-06-20T04:54:41Z</time>
      </trkpt>
      <trkpt lat="45.08993" lon="5.89669">
        <ele>713</ele>
        <time>2015-06-20T04:54:44Z</time>
      </trkpt>
      <trkpt lat="45.08991" lon="5.89669">
        <ele>713</ele>
        <time>2015-06-20T04:54:50Z</time>
      </trkpt>
      <trkpt lat="45.0899" lon="5.89666">
        <ele>717</ele>
        <time>2015-06-20T04:54:54Z</time>
      </trkpt>
      <trkpt lat="45.08988" lon="5.89664">
        <ele>717</ele>
        <time>2015-06-20T04:54:58Z</time>
      </trkpt>
      <trkpt lat="45.08986" lon="5.89663">
        <ele>718</ele>
        <time>2015-06-20T04:55:00Z</time>
      </trkpt>
      <trkpt lat="45.08984" lon="5.89661">
        <ele>720</ele>
        <time>2015-06-20T04:55:04Z</time>
      </trkpt>
      <trkpt lat="45.08982" lon="5.89658">
        <ele>720</ele>
        <time>2015-06-20T04:55:06Z</time>
      </trkpt>
      <trkpt lat="45.08982" lon="5.89654">
        <ele>720</ele>
        <time>2015-06-20T04:55:09Z</time>
      </trkpt>
      <trkpt lat="45.08984" lon="5.89653">
        <ele>722</ele>
        <time>2015-06-20T04:55:12Z</time>
      </trkpt>
      <trkpt lat="45.08986" lon="5.89652">
        <ele>724</ele>
        <time>2015-06-20T04:55:15Z</time>
      </trkpt>
      <trkpt lat="45.08987" lon="5.8965">
        <ele>724</ele>
        <time>2015-06-20T04:55:17Z</time>
      </trkpt>
      <trkpt lat="45.08988" lon="5.89647">
        <ele>725</ele>
        <time>2015-06-20T04:55:22Z</time>
      </trkpt>
      <trkpt lat="45.08987" lon="5.89645">
        <ele>726</ele>
        <time>2015-06-20T04:55:24Z</time>
      </trkpt>
      <trkpt lat="45.08985" lon="5.89644">
        <ele>726</ele>
        <time>2015-06-20T04:55:26Z</time>
      </trkpt>
      <trkpt lat="45.08983" lon="5.89642">
        <ele>729</ele>
        <time>2015-06-20T04:55:29Z</time>
      </trkpt>
      <trkpt lat="45.08981" lon="5.89642">
        <ele>729</ele>
        <time>2015-06-20T04:55:32Z</time>
      </trkpt>
      <trkpt lat="45.0898" lon="5.8964">
        <ele>730</ele>
        <time>2015-06-20T04:55:34Z</time>
      </trkpt>
      <trkpt lat="45.08979" lon="5.89637">
        <ele>730</ele>
        <time>2015-06-20T04:55:37Z</time>
      </trkpt>
      <trkpt lat="45.08978" lon="5.89634">
        <ele>732</ele>
        <time>2015-06-20T04:55:39Z</time>
      </trkpt>
      <trkpt lat="45.08977" lon="5.89631">
        <ele>732</ele>
        <time>2015-06-20T04:55:41Z</time>
      </trkpt>
      <trkpt lat="45.08976" lon="5.89628">
        <ele>732</ele>
        <time>2015-06-20T04:55:43Z</time>
      </trkpt>
      <trkpt lat="45.08977" lon="5.89624">
        <ele>735</ele>
        <time>2015-06-20T04:55:45Z</time>
      </trkpt>
      <trkpt lat="45.08976" lon="5.89621">
        <ele>735</ele>
        <time>2015-06-20T04:55:47Z</time>
      </trkpt>
      <trkpt lat="45.08975" lon="5.89618">
        <ele>736</ele>
        <time>2015-06-20T04:55:50Z</time>
      </trkpt>
      <trkpt lat="45.08973" lon="5.89616">
        <ele>736</ele>
        <time>2015-06-20T04:55:53Z</time>
      </trkpt>
      <trkpt lat="45.08972" lon="5.89613">
        <ele>737</ele>
        <time>2015-06-20T04:55:55Z</time>
      </trkpt>
      <trkpt lat="45.08971" lon="5.89611">
        <ele>737</ele>
        <time>2015-06-20T04:55:57Z</time>
      </trkpt>
      <trkpt lat="45.0897" lon="5.89608">
        <ele>739</ele>
        <time>2015-06-20T04:55:59Z</time>
      </trkpt>
      <trkpt lat="45.08971" lon="5.89605">
        <ele>739</ele>
        <time>2015-06-20T04:56:03Z</time>
      </trkpt>
      <trkpt lat="45.08973" lon="5.89605">
        <ele>739</ele>
        <time>2015-06-20T04:56:06Z</time>
      </trkpt>
      <trkpt lat="45.08976" lon="5.89605">
        <ele>743</ele>
        <time>2015-06-20T04:56:09Z</time>
      </trkpt>
      <trkpt lat="45.08978" lon="5.89605">
        <ele>743</ele>
        <time>2015-06-20T04:56:13Z</time>
      </trkpt>
      <trkpt lat="45.0898" lon="5.89607">
        <ele>745</ele>
        <time>2015-06-20T04:56:16Z</time>
      </trkpt>
      <trkpt lat="45.08982" lon="5.89608">
        <ele>745</ele>
        <time>2015-06-20T04:56:18Z</time>
      </trkpt>
      <trkpt lat="45.08984" lon="5.89606">
        <ele>745</ele>
        <time>2015-06-20T04:56:21Z</time>
      </trkpt>
      <trkpt lat="45.08986" lon="5.89606">
        <ele>746</ele>
        <time>2015-06-20T04:56:23Z</time>
      </trkpt>
      <trkpt lat="45.08988" lon="5.89607">
        <ele>746</ele>
        <time>2015-06-20T04:56:25Z</time>
      </trkpt>
      <trkpt lat="45.08991" lon="5.89606">
        <ele>747</ele>
        <time>2015-06-20T04:56:28Z</time>
      </trkpt>
      <trkpt lat="45.08993" lon="5.89604">
        <ele>749</ele>
        <time>2015-06-20T04:56:31Z</time>
      </trkpt>
      <trkpt lat="45.08994" lon="5.89602">
        <ele>751</ele>
        <time>2015-06-20T04:56:37Z</time>
      </trkpt>
      <trkpt lat="45.08994" lon="5.89599">
        <ele>753</ele>
        <time>2015-06-20T04:56:40Z</time>
      </trkpt>
      <trkpt lat="45.08994" lon="5.89595">
        <ele>753</ele>
        <time>2015-06-20T04:56:42Z</time>
      </trkpt>
      <trkpt lat="45.08992" lon="5.89593">
        <ele>753</ele>
        <time>2015-06-20T04:56:45Z</time>
      </trkpt>
      <trkpt lat="45.08992" lon="5.89591">
        <ele>753</ele>
        <time>2015-06-20T04:56:47Z</time>
      </trkpt>
      <trkpt lat="45.08991" lon="5.89588">
        <ele>755</ele>
        <time>2015-06-20T04:56:49Z</time>
      </trkpt>
      <trkpt lat="45.0899" lon="5.89585">
        <ele>755</ele>
        <time>2015-06-20T04:56:52Z</time>
      </trkpt>
      <trkpt lat="45.08989" lon="5.89583">
        <ele>755</ele>
        <time>2015-06-20T04:56:55Z</time>
      </trkpt>
      <trkpt lat="45.08988" lon="5.89579">
        <ele>757</ele>
        <time>2015-06-20T04:56:57Z</time>
      </trkpt>
      <trkpt lat="45.08988" lon="5.89577">
        <ele>760</ele>
        <time>2015-06-20T04:57:00Z</time>
      </trkpt>
      <trkpt lat="45.08988" lon="5.89573">
        <ele>760</ele>
        <time>2015-06-20T04:57:01Z</time>
      </trkpt>
      <trkpt lat="45.08988" lon="5.89571">
        <ele>760</ele>
        <time>2015-06-20T04:57:02Z</time>
      </trkpt>
      <trkpt lat="45.08988" lon="5.89568">
        <ele>762</ele>
        <time>2015-06-20T04:57:05Z</time>
      </trkpt>
      <trkpt lat="45.08988" lon="5.89564">
        <ele>762</ele>
        <time>2015-06-20T04:57:08Z</time>
      </trkpt>
      <trkpt lat="45.08989" lon="5.89561">
        <ele>762</ele>
        <time>2015-06-20T04:57:10Z</time>
      </trkpt>
      <trkpt lat="45.08988" lon="5.89558">
        <ele>762</ele>
        <time>2015-06-20T04:57:13Z</time>
      </trkpt>
      <trkpt lat="45.08988" lon="5.89554">
        <ele>764</ele>
        <time>2015-06-20T04:57:16Z</time>
      </trkpt>
      <trkpt lat="45.08989" lon="5.8955">
        <ele>766</ele>
        <time>2015-06-20T04:57:20Z</time>
      </trkpt>
      <trkpt lat="45.08991" lon="5.89548">
        <ele>767</ele>
        <time>2015-06-20T04:57:24Z</time>
      </trkpt>
      <trkpt lat="45.08991" lon="5.89545">
        <ele>767</ele>
        <time>2015-06-20T04:57:26Z</time>
      </trkpt>
      <trkpt lat="45.08992" lon="5.8954">
        <ele>769</ele>
        <time>2015-06-20T04:57:30Z</time>
      </trkpt>
      <trkpt lat="45.08991" lon="5.89537">
        <ele>769</ele>
        <time>2015-06-20T04:57:32Z</time>
      </trkpt>
      <trkpt lat="45.08992" lon="5.89532">
        <ele>771</ele>
        <time>2015-06-20T04:57:34Z</time>
      </trkpt>
      <trkpt lat="45.08991" lon="5.89529">
        <ele>772</ele>
        <time>2015-06-20T04:57:40Z</time>
      </trkpt>
      <trkpt lat="45.0899" lon="5.89523">
        <ele>772</ele>
        <time>2015-06-20T04:57:42Z</time>
      </trkpt>
      <trkpt lat="45.08989" lon="5.89519">
        <ele>774</ele>
        <time>2015-06-20T04:57:44Z</time>
      </trkpt>
      <trkpt lat="45.0899" lon="5.89515">
        <ele>774</ele>
        <time>2015-06-20T04:57:46Z</time>
      </trkpt>
      <trkpt lat="45.08989" lon="5.8951">
        <ele>776</ele>
        <time>2015-06-20T04:57:49Z</time>
      </trkpt>
      <trkpt lat="45.0899" lon="5.89507">
        <ele>776</ele>
        <time>2015-06-20T04:57:52Z</time>
      </trkpt>
      <trkpt lat="45.0899" lon="5.89503">
        <ele>778</ele>
        <time>2015-06-20T04:57:54Z</time>
      </trkpt>
      <trkpt lat="45.0899" lon="5.895">
        <ele>778</ele>
        <time>2015-06-20T04:57:57Z</time>
      </trkpt>
      <trkpt lat="45.0899" lon="5.89497">
        <ele>778</ele>
        <time>2015-06-20T04:57:59Z</time>
      </trkpt>
      <trkpt lat="45.0899" lon="5.89493">
        <ele>778</ele>
        <time>2015-06-20T04:58:01Z</time>
      </trkpt>
      <trkpt lat="45.08991" lon="5.8949">
        <ele>778</ele>
        <time>2015-06-20T04:58:03Z</time>
      </trkpt>
      <trkpt lat="45.08992" lon="5.89488">
        <ele>778</ele>
        <time>2015-06-20T04:58:05Z</time>
      </trkpt>
      <trkpt lat="45.08993" lon="5.89484">
        <ele>778</ele>
        <time>2015-06-20T04:58:07Z</time>
      </trkpt>
      <trkpt lat="45.08995" lon="5.89482">
        <ele>780</ele>
        <time>2015-06-20T04:58:09Z</time>
      </trkpt>
      <trkpt lat="45.08995" lon="5.89478">
        <ele>783</ele>
        <time>2015-06-20T04:58:15Z</time>
      </trkpt>
      <trkpt lat="45.08993" lon="5.89473">
        <ele>784</ele>
        <time>2015-06-20T04:58:22Z</time>
      </trkpt>
      <trkpt lat="45.08993" lon="5.8947">
        <ele>786</ele>
        <time>2015-06-20T04:58:24Z</time>
      </trkpt>
      <trkpt lat="45.08991" lon="5.89463">
        <ele>788</ele>
        <time>2015-06-20T04:58:33Z</time>
      </trkpt>
      <trkpt lat="45.08991" lon="5.89459">
        <ele>789</ele>
        <time>2015-06-20T04:58:35Z</time>
      </trkpt>
      <trkpt lat="45.08991" lon="5.89455">
        <ele>789</ele>
        <time>2015-06-20T04:58:37Z</time>
      </trkpt>
      <trkpt lat="45.08991" lon="5.89452">
        <ele>791</ele>
        <time>2015-06-20T04:58:39Z</time>
      </trkpt>
      <trkpt lat="45.08991" lon="5.89448">
        <ele>791</ele>
        <time>2015-06-20T04:58:42Z</time>
      </trkpt>
      <trkpt lat="45.08992" lon="5.89445">
        <ele>793</ele>
        <time>2015-06-20T04:58:46Z</time>
      </trkpt>
      <trkpt lat="45.08992" lon="5.89441">
        <ele>794</ele>
        <time>2015-06-20T04:58:49Z</time>
      </trkpt>
      <trkpt lat="45.08992" lon="5.89438">
        <ele>794</ele>
        <time>2015-06-20T04:58:51Z</time>
      </trkpt>
      <trkpt lat="45.08992" lon="5.89433">
        <ele>794</ele>
        <time>2015-06-20T04:58:54Z</time>
      </trkpt>
      <trkpt lat="45.08992" lon="5.89428">
        <ele>796</ele>
        <time>2015-06-20T04:58:56Z</time>
      </trkpt>
      <trkpt lat="45.08992" lon="5.89425">
        <ele>796</ele>
        <time>2015-06-20T04:58:57Z</time>
      </trkpt>
      <trkpt lat="45.08992" lon="5.89422">
        <ele>796</ele>
        <time>2015-06-20T04:58:58Z</time>
      </trkpt>
      <trkpt lat="45.08992" lon="5.89419">
        <ele>796</ele>
        <time>2015-06-20T04:58:59Z</time>
      </trkpt>
      <trkpt lat="45.08992" lon="5.89416">
        <ele>796</ele>
        <time>2015-06-20T04:59:01Z</time>
      </trkpt>
      <trkpt lat="45.08993" lon="5.89413">
        <ele>796</ele>
        <time>2015-06-20T04:59:03Z</time>
      </trkpt>
      <trkpt lat="45.08993" lon="5.89409">
        <ele>796</ele>
        <time>2015-06-20T04:59:05Z</time>
      </trkpt>
      <trkpt lat="45.08992" lon="5.89405">
        <ele>796</ele>
        <time>2015-06-20T04:59:07Z</time>
      </trkpt>
      <trkpt lat="45.08989" lon="5.89402">
        <ele>798</ele>
        <time>2015-06-20T04:59:09Z</time>
      </trkpt>
      <trkpt lat="45.08987" lon="5.89399">
        <ele>798</ele>
        <time>2015-06-20T04:59:11Z</time>
      </trkpt>
      <trkpt lat="45.08985" lon="5.89395">
        <ele>798</ele>
        <time>2015-06-20T04:59:13Z</time>
      </trkpt>
      <trkpt lat="45.08984" lon="5.89392">
        <ele>798</ele>
        <time>2015-06-20T04:59:14Z</time>
      </trkpt>
      <trkpt lat="45.08984" lon="5.89389">
        <ele>798</ele>
        <time>2015-06-20T04:59:16Z</time>
      </trkpt>
      <trkpt lat="45.08983" lon="5.89387">
        <ele>798</ele>
        <time>2015-06-20T04:59:18Z</time>
      </trkpt>
      <trkpt lat="45.0898" lon="5.89381">
        <ele>798</ele>
        <time>2015-06-20T04:59:22Z</time>
      </trkpt>
      <trkpt lat="45.08979" lon="5.89376">
        <ele>798</ele>
        <time>2015-06-20T04:59:24Z</time>
      </trkpt>
      <trkpt lat="45.08979" lon="5.89371">
        <ele>797</ele>
        <time>2015-06-20T04:59:38Z</time>
      </trkpt>
      <trkpt lat="45.08977" lon="5.89371">
        <ele>796</ele>
        <time>2015-06-20T04:59:40Z</time>
      </trkpt>
      <trkpt lat="45.08975" lon="5.89371">
        <ele>796</ele>
        <time>2015-06-20T04:59:42Z</time>
      </trkpt>
      <trkpt lat="45.08973" lon="5.89372">
        <ele>796</ele>
        <time>2015-06-20T04:59:44Z</time>
      </trkpt>
      <trkpt lat="45.0897" lon="5.89374">
        <ele>796</ele>
        <time>2015-06-20T04:59:46Z</time>
      </trkpt>
      <trkpt lat="45.08969" lon="5.89375">
        <ele>796</ele>
        <time>2015-06-20T04:59:47Z</time>
      </trkpt>
      <trkpt lat="45.08966" lon="5.89378">
        <ele>797</ele>
        <time>2015-06-20T04:59:49Z</time>
      </trkpt>
      <trkpt lat="45.08967" lon="5.89375">
        <ele>797</ele>
        <time>2015-06-20T04:59:54Z</time>
      </trkpt>
      <trkpt lat="45.08968" lon="5.89371">
        <ele>797</ele>
        <time>2015-06-20T04:59:56Z</time>
      </trkpt>
      <trkpt lat="45.08968" lon="5.89369">
        <ele>797</ele>
        <time>2015-06-20T04:59:58Z</time>
      </trkpt>
      <trkpt lat="45.08966" lon="5.89368">
        <ele>798</ele>
        <time>2015-06-20T05:00:01Z</time>
      </trkpt>
      <trkpt lat="45.08964" lon="5.89369">
        <ele>798</ele>
        <time>2015-06-20T05:00:03Z</time>
      </trkpt>
      <trkpt lat="45.08962" lon="5.89372">
        <ele>798</ele>
        <time>2015-06-20T05:00:05Z</time>
      </trkpt>
      <trkpt lat="45.08961" lon="5.89375">
        <ele>798</ele>
        <time>2015-06-20T05:00:07Z</time>
      </trkpt>
      <trkpt lat="45.08959" lon="5.89373">
        <ele>798</ele>
        <time>2015-06-20T05:00:09Z</time>
      </trkpt>
      <trkpt lat="45.08957" lon="5.89372">
        <ele>801</ele>
        <time>2015-06-20T05:00:11Z</time>
      </trkpt>
      <trkpt lat="45.08955" lon="5.89372">
        <ele>801</ele>
        <time>2015-06-20T05:00:13Z</time>
      </trkpt>
      <trkpt lat="45.08954" lon="5.89373">
        <ele>803</ele>
        <time>2015-06-20T05:00:15Z</time>
      </trkpt>
      <trkpt lat="45.08952" lon="5.89375">
        <ele>803</ele>
        <time>2015-06-20T05:00:17Z</time>
      </trkpt>
      <trkpt lat="45.0895" lon="5.89372">
        <ele>803</ele>
        <time>2015-06-20T05:00:19Z</time>
      </trkpt>
      <trkpt lat="45.08947" lon="5.89371">
        <ele>805</ele>
        <time>2015-06-20T05:00:21Z</time>
      </trkpt>
      <trkpt lat="45.08944" lon="5.89369">
        <ele>805</ele>
        <time>2015-06-20T05:00:23Z</time>
      </trkpt>
      <trkpt lat="45.08942" lon="5.89367">
        <ele>806</ele>
        <time>2015-06-20T05:00:25Z</time>
      </trkpt>
      <trkpt lat="45.0894" lon="5.89366">
        <ele>806</ele>
        <time>2015-06-20T05:00:27Z</time>
      </trkpt>
      <trkpt lat="45.08938" lon="5.89365">
        <ele>806</ele>
        <time>2015-06-20T05:00:29Z</time>
      </trkpt>
      <trkpt lat="45.08936" lon="5.89363">
        <ele>807</ele>
        <time>2015-06-20T05:00:30Z</time>
      </trkpt>
      <trkpt lat="45.08933" lon="5.8936">
        <ele>807</ele>
        <time>2015-06-20T05:00:32Z</time>
      </trkpt>
      <trkpt lat="45.08931" lon="5.89358">
        <ele>807</ele>
        <time>2015-06-20T05:00:33Z</time>
      </trkpt>
      <trkpt lat="45.0893" lon="5.89356">
        <ele>807</ele>
        <time>2015-06-20T05:00:35Z</time>
      </trkpt>
      <trkpt lat="45.08928" lon="5.89354">
        <ele>807</ele>
        <time>2015-06-20T05:00:37Z</time>
      </trkpt>
      <trkpt lat="45.08926" lon="5.89355">
        <ele>807</ele>
        <time>2015-06-20T05:00:38Z</time>
      </trkpt>
      <trkpt lat="45.08924" lon="5.89355">
        <ele>808</ele>
        <time>2015-06-20T05:00:40Z</time>
      </trkpt>
      <trkpt lat="45.08924" lon="5.89352">
        <ele>808</ele>
        <time>2015-06-20T05:00:43Z</time>
      </trkpt>
      <trkpt lat="45.08925" lon="5.89349">
        <ele>808</ele>
        <time>2015-06-20T05:00:44Z</time>
      </trkpt>
      <trkpt lat="45.08927" lon="5.89346">
        <ele>808</ele>
        <time>2015-06-20T05:00:46Z</time>
      </trkpt>
      <trkpt lat="45.08928" lon="5.89343">
        <ele>808</ele>
        <time>2015-06-20T05:00:48Z</time>
      </trkpt>
      <trkpt lat="45.08931" lon="5.89341">
        <ele>810</ele>
        <time>2015-06-20T05:00:50Z</time>
      </trkpt>
      <trkpt lat="45.08934" lon="5.89339">
        <ele>810</ele>
        <time>2015-06-20T05:00:52Z</time>
      </trkpt>
      <trkpt lat="45.08938" lon="5.89339">
        <ele>810</ele>
        <time>2015-06-20T05:00:54Z</time>
      </trkpt>
      <trkpt lat="45.08938" lon="5.89336">
        <ele>810</ele>
        <time>2015-06-20T05:00:58Z</time>
      </trkpt>
      <trkpt lat="45.08937" lon="5.89338">
        <ele>812</ele>
        <time>2015-06-20T05:01:01Z</time>
      </trkpt>
      <trkpt lat="45.08934" lon="5.89335">
        <ele>812</ele>
        <time>2015-06-20T05:01:04Z</time>
      </trkpt>
      <trkpt lat="45.08933" lon="5.89333">
        <ele>812</ele>
        <time>2015-06-20T05:01:06Z</time>
      </trkpt>
      <trkpt lat="45.0893" lon="5.89331">
        <ele>812</ele>
        <time>2015-06-20T05:01:08Z</time>
      </trkpt>
      <trkpt lat="45.08927" lon="5.8933">
        <ele>815</ele>
        <time>2015-06-20T05:01:14Z</time>
      </trkpt>
      <trkpt lat="45.08925" lon="5.89328">
        <ele>815</ele>
        <time>2015-06-20T05:01:16Z</time>
      </trkpt>
      <trkpt lat="45.08922" lon="5.89327">
        <ele>816</ele>
        <time>2015-06-20T05:01:19Z</time>
      </trkpt>
      <trkpt lat="45.0892" lon="5.8933">
        <ele>816</ele>
        <time>2015-06-20T05:01:21Z</time>
      </trkpt>
      <trkpt lat="45.08919" lon="5.89328">
        <ele>816</ele>
        <time>2015-06-20T05:01:23Z</time>
      </trkpt>
      <trkpt lat="45.08917" lon="5.89327">
        <ele>816</ele>
        <time>2015-06-20T05:01:27Z</time>
      </trkpt>
      <trkpt lat="45.08917" lon="5.89323">
        <ele>817</ele>
        <time>2015-06-20T05:01:30Z</time>
      </trkpt>
      <trkpt lat="45.08916" lon="5.89319">
        <ele>817</ele>
        <time>2015-06-20T05:01:32Z</time>
      </trkpt>
      <trkpt lat="45.08913" lon="5.89317">
        <ele>817</ele>
        <time>2015-06-20T05:01:34Z</time>
      </trkpt>
      <trkpt lat="45.08912" lon="5.89314">
        <ele>817</ele>
        <time>2015-06-20T05:01:38Z</time>
      </trkpt>
      <trkpt lat="45.08909" lon="5.89315">
        <ele>819</ele>
        <time>2015-06-20T05:01:41Z</time>
      </trkpt>
      <trkpt lat="45.08906" lon="5.89315">
        <ele>819</ele>
        <time>2015-06-20T05:01:43Z</time>
      </trkpt>
      <trkpt lat="45.08906" lon="5.89318">
        <ele>819</ele>
        <time>2015-06-20T05:01:47Z</time>
      </trkpt>
      <trkpt lat="45.08904" lon="5.89318">
        <ele>821</ele>
        <time>2015-06-20T05:01:49Z</time>
      </trkpt>
      <trkpt lat="45.08901" lon="5.89315">
        <ele>821</ele>
        <time>2015-06-20T05:01:51Z</time>
      </trkpt>
      <trkpt lat="45.08899" lon="5.89315">
        <ele>821</ele>
        <time>2015-06-20T05:01:54Z</time>
      </trkpt>
      <trkpt lat="45.08897" lon="5.89316">
        <ele>821</ele>
        <time>2015-06-20T05:01:57Z</time>
      </trkpt>
      <trkpt lat="45.08894" lon="5.89316">
        <ele>823</ele>
        <time>2015-06-20T05:02:00Z</time>
      </trkpt>
      <trkpt lat="45.08893" lon="5.89316">
        <ele>823</ele>
        <time>2015-06-20T05:02:02Z</time>
      </trkpt>
      <trkpt lat="45.0889" lon="5.89315">
        <ele>823</ele>
        <time>2015-06-20T05:02:04Z</time>
      </trkpt>
      <trkpt lat="45.08888" lon="5.89313">
        <ele>823</ele>
        <time>2015-06-20T05:02:06Z</time>
      </trkpt>
      <trkpt lat="45.08887" lon="5.8931">
        <ele>824</ele>
        <time>2015-06-20T05:02:09Z</time>
      </trkpt>
      <trkpt lat="45.08885" lon="5.89307">
        <ele>824</ele>
        <time>2015-06-20T05:02:11Z</time>
      </trkpt>
      <trkpt lat="45.08882" lon="5.89305">
        <ele>824</ele>
        <time>2015-06-20T05:02:13Z</time>
      </trkpt>
      <trkpt lat="45.0888" lon="5.89302">
        <ele>824</ele>
        <time>2015-06-20T05:02:15Z</time>
      </trkpt>
      <trkpt lat="45.08878" lon="5.893">
        <ele>824</ele>
        <time>2015-06-20T05:02:17Z</time>
      </trkpt>
      <trkpt lat="45.08876" lon="5.89298">
        <ele>825</ele>
        <time>2015-06-20T05:02:19Z</time>
      </trkpt>
      <trkpt lat="45.08875" lon="5.89295">
        <ele>825</ele>
        <time>2015-06-20T05:02:23Z</time>
      </trkpt>
      <trkpt lat="45.08878" lon="5.89294">
        <ele>825</ele>
        <time>2015-06-20T05:02:25Z</time>
      </trkpt>
      <trkpt lat="45.08879" lon="5.89291">
        <ele>825</ele>
        <time>2015-06-20T05:02:27Z</time>
      </trkpt>
      <trkpt lat="45.08882" lon="5.8929">
        <ele>826</ele>
        <time>2015-06-20T05:02:29Z</time>
      </trkpt>
      <trkpt lat="45.08884" lon="5.89288">
        <ele>826</ele>
        <time>2015-06-20T05:02:31Z</time>
      </trkpt>
      <trkpt lat="45.08886" lon="5.89288">
        <ele>826</ele>
        <time>2015-06-20T05:02:33Z</time>
      </trkpt>
      <trkpt lat="45.08888" lon="5.89288">
        <ele>826</ele>
        <time>2015-06-20T05:02:36Z</time>
      </trkpt>
      <trkpt lat="45.0889" lon="5.8929">
        <ele>826</ele>
        <time>2015-06-20T05:02:38Z</time>
      </trkpt>
      <trkpt lat="45.08893" lon="5.89287">
        <ele>828</ele>
        <time>2015-06-20T05:02:40Z</time>
      </trkpt>
      <trkpt lat="45.08894" lon="5.89285">
        <ele>828</ele>
        <time>2015-06-20T05:02:42Z</time>
      </trkpt>
      <trkpt lat="45.08896" lon="5.89284">
        <ele>828</ele>
        <time>2015-06-20T05:02:44Z</time>
      </trkpt>
      <trkpt lat="45.08899" lon="5.89282">
        <ele>828</ele>
        <time>2015-06-20T05:02:47Z</time>
      </trkpt>
      <trkpt lat="45.08901" lon="5.89281">
        <ele>829</ele>
        <time>2015-06-20T05:02:50Z</time>
      </trkpt>
      <trkpt lat="45.08904" lon="5.89277">
        <ele>829</ele>
        <time>2015-06-20T05:02:52Z</time>
      </trkpt>
      <trkpt lat="45.08906" lon="5.89275">
        <ele>829</ele>
        <time>2015-06-20T05:02:53Z</time>
      </trkpt>
      <trkpt lat="45.08907" lon="5.89273">
        <ele>829</ele>
        <time>2015-06-20T05:02:56Z</time>
      </trkpt>
      <trkpt lat="45.08904" lon="5.89274">
        <ele>829</ele>
        <time>2015-06-20T05:03:01Z</time>
      </trkpt>
      <trkpt lat="45.08901" lon="5.89274">
        <ele>829</ele>
        <time>2015-06-20T05:03:03Z</time>
      </trkpt>
      <trkpt lat="45.08899" lon="5.89274">
        <ele>829</ele>
        <time>2015-06-20T05:03:05Z</time>
      </trkpt>
      <trkpt lat="45.08897" lon="5.89275">
        <ele>829</ele>
        <time>2015-06-20T05:03:07Z</time>
      </trkpt>
      <trkpt lat="45.08894" lon="5.89275">
        <ele>829</ele>
        <time>2015-06-20T05:03:09Z</time>
      </trkpt>
      <trkpt lat="45.08891" lon="5.89274">
        <ele>831</ele>
        <time>2015-06-20T05:03:11Z</time>
      </trkpt>
      <trkpt lat="45.08889" lon="5.89273">
        <ele>831</ele>
        <time>2015-06-20T05:03:13Z</time>
      </trkpt>
      <trkpt lat="45.08887" lon="5.89271">
        <ele>831</ele>
        <time>2015-06-20T05:03:15Z</time>
      </trkpt>
      <trkpt lat="45.08885" lon="5.8927">
        <ele>831</ele>
        <time>2015-06-20T05:03:17Z</time>
      </trkpt>
      <trkpt lat="45.08886" lon="5.89267">
        <ele>833</ele>
        <time>2015-06-20T05:03:19Z</time>
      </trkpt>
      <trkpt lat="45.08888" lon="5.89266">
        <ele>833</ele>
        <time>2015-06-20T05:03:23Z</time>
      </trkpt>
      <trkpt lat="45.08889" lon="5.89264">
        <ele>833</ele>
        <time>2015-06-20T05:03:26Z</time>
      </trkpt>
      <trkpt lat="45.0889" lon="5.89261">
        <ele>833</ele>
        <time>2015-06-20T05:03:28Z</time>
      </trkpt>
      <trkpt lat="45.08891" lon="5.89258">
        <ele>834</ele>
        <time>2015-06-20T05:03:30Z</time>
      </trkpt>
      <trkpt lat="45.08892" lon="5.89254">
        <ele>834</ele>
        <time>2015-06-20T05:03:32Z</time>
      </trkpt>
      <trkpt lat="45.08893" lon="5.89251">
        <ele>834</ele>
        <time>2015-06-20T05:03:34Z</time>
      </trkpt>
      <trkpt lat="45.08894" lon="5.89248">
        <ele>834</ele>
        <time>2015-06-20T05:03:36Z</time>
      </trkpt>
      <trkpt lat="45.08896" lon="5.89246">
        <ele>834</ele>
        <time>2015-06-20T05:03:38Z</time>
      </trkpt>
      <trkpt lat="45.08897" lon="5.89243">
        <ele>836</ele>
        <time>2015-06-20T05:03:40Z</time>
      </trkpt>
      <trkpt lat="45.08898" lon="5.89242">
        <ele>836</ele>
        <time>2015-06-20T05:03:41Z</time>
      </trkpt>
      <trkpt lat="45.089" lon="5.8924">
        <ele>836</ele>
        <time>2015-06-20T05:03:43Z</time>
      </trkpt>
      <trkpt lat="45.08902" lon="5.89237">
        <ele>836</ele>
        <time>2015-06-20T05:03:46Z</time>
      </trkpt>
      <trkpt lat="45.08905" lon="5.89233">
        <ele>839</ele>
        <time>2015-06-20T05:03:49Z</time>
      </trkpt>
      <trkpt lat="45.08907" lon="5.89229">
        <ele>839</ele>
        <time>2015-06-20T05:03:51Z</time>
      </trkpt>
      <trkpt lat="45.0891" lon="5.8923">
        <ele>840</ele>
        <time>2015-06-20T05:03:54Z</time>
      </trkpt>
      <trkpt lat="45.08912" lon="5.8923">
        <ele>840</ele>
        <time>2015-06-20T05:03:58Z</time>
      </trkpt>
      <trkpt lat="45.08914" lon="5.8923">
        <ele>843</ele>
        <time>2015-06-20T05:03:59Z</time>
      </trkpt>
      <trkpt lat="45.08917" lon="5.89226">
        <ele>843</ele>
        <time>2015-06-20T05:04:01Z</time>
      </trkpt>
      <trkpt lat="45.0892" lon="5.89224">
        <ele>843</ele>
        <time>2015-06-20T05:04:02Z</time>
      </trkpt>
      <trkpt lat="45.08922" lon="5.89224">
        <ele>843</ele>
        <time>2015-06-20T05:04:03Z</time>
      </trkpt>
      <trkpt lat="45.08924" lon="5.89221">
        <ele>843</ele>
        <time>2015-06-20T05:04:05Z</time>
      </trkpt>
      <trkpt lat="45.08926" lon="5.89219">
        <ele>843</ele>
        <time>2015-06-20T05:04:07Z</time>
      </trkpt>
      <trkpt lat="45.08928" lon="5.8922">
        <ele>843</ele>
        <time>2015-06-20T05:04:08Z</time>
      </trkpt>
      <trkpt lat="45.0893" lon="5.89221">
        <ele>844</ele>
        <time>2015-06-20T05:04:10Z</time>
      </trkpt>
      <trkpt lat="45.08933" lon="5.8922">
        <ele>844</ele>
        <time>2015-06-20T05:04:14Z</time>
      </trkpt>
      <trkpt lat="45.08937" lon="5.8922">
        <ele>844</ele>
        <time>2015-06-20T05:04:20Z</time>
      </trkpt>
      <trkpt lat="45.08939" lon="5.89223">
        <ele>844</ele>
        <time>2015-06-20T05:04:25Z</time>
      </trkpt>
      <trkpt lat="45.08941" lon="5.89223">
        <ele>844</ele>
        <time>2015-06-20T05:04:28Z</time>
      </trkpt>
      <trkpt lat="45.08946" lon="5.89216">
        <ele>844</ele>
        <time>2015-06-20T05:04:34Z</time>
      </trkpt>
      <trkpt lat="45.08949" lon="5.89212">
        <ele>846</ele>
        <time>2015-06-20T05:04:36Z</time>
      </trkpt>
      <trkpt lat="45.08953" lon="5.89205">
        <ele>848</ele>
        <time>2015-06-20T05:04:48Z</time>
      </trkpt>
      <trkpt lat="45.08955" lon="5.89203">
        <ele>850</ele>
        <time>2015-06-20T05:04:50Z</time>
      </trkpt>
      <trkpt lat="45.08955" lon="5.89198">
        <ele>850</ele>
        <time>2015-06-20T05:04:51Z</time>
      </trkpt>
      <trkpt lat="45.08957" lon="5.89193">
        <ele>850</ele>
        <time>2015-06-20T05:04:56Z</time>
      </trkpt>
      <trkpt lat="45.08955" lon="5.89193">
        <ele>852</ele>
        <time>2015-06-20T05:05:00Z</time>
      </trkpt>
      <trkpt lat="45.08952" lon="5.89195">
        <ele>852</ele>
        <time>2015-06-20T05:05:02Z</time>
      </trkpt>
      <trkpt lat="45.0895" lon="5.89199">
        <ele>852</ele>
        <time>2015-06-20T05:05:04Z</time>
      </trkpt>
      <trkpt lat="45.08947" lon="5.892">
        <ele>853</ele>
        <time>2015-06-20T05:05:06Z</time>
      </trkpt>
      <trkpt lat="45.08946" lon="5.89203">
        <ele>853</ele>
        <time>2015-06-20T05:05:08Z</time>
      </trkpt>
      <trkpt lat="45.08943" lon="5.89203">
        <ele>855</ele>
        <time>2015-06-20T05:05:12Z</time>
      </trkpt>
      <trkpt lat="45.08939" lon="5.89201">
        <ele>855</ele>
        <time>2015-06-20T05:05:14Z</time>
      </trkpt>
      <trkpt lat="45.08937" lon="5.892">
        <ele>855</ele>
        <time>2015-06-20T05:05:15Z</time>
      </trkpt>
      <trkpt lat="45.08935" lon="5.89199">
        <ele>856</ele>
        <time>2015-06-20T05:05:16Z</time>
      </trkpt>
      <trkpt lat="45.08933" lon="5.89201">
        <ele>856</ele>
        <time>2015-06-20T05:05:18Z</time>
      </trkpt>
      <trkpt lat="45.08931" lon="5.892">
        <ele>856</ele>
        <time>2015-06-20T05:05:20Z</time>
      </trkpt>
      <trkpt lat="45.0893" lon="5.89197">
        <ele>857</ele>
        <time>2015-06-20T05:05:22Z</time>
      </trkpt>
      <trkpt lat="45.08928" lon="5.89194">
        <ele>857</ele>
        <time>2015-06-20T05:05:24Z</time>
      </trkpt>
      <trkpt lat="45.08923" lon="5.89195">
        <ele>860</ele>
        <time>2015-06-20T05:05:31Z</time>
      </trkpt>
      <trkpt lat="45.08921" lon="5.89195">
        <ele>860</ele>
        <time>2015-06-20T05:05:33Z</time>
      </trkpt>
      <trkpt lat="45.08918" lon="5.89195">
        <ele>861</ele>
        <time>2015-06-20T05:05:37Z</time>
      </trkpt>
      <trkpt lat="45.08916" lon="5.89194">
        <ele>862</ele>
        <time>2015-06-20T05:05:39Z</time>
      </trkpt>
      <trkpt lat="45.08914" lon="5.89194">
        <ele>862</ele>
        <time>2015-06-20T05:05:41Z</time>
      </trkpt>
      <trkpt lat="45.08912" lon="5.89194">
        <ele>864</ele>
        <time>2015-06-20T05:05:44Z</time>
      </trkpt>
      <trkpt lat="45.08909" lon="5.89194">
        <ele>864</ele>
        <time>2015-06-20T05:05:46Z</time>
      </trkpt>
      <trkpt lat="45.08907" lon="5.89192">
        <ele>864</ele>
        <time>2015-06-20T05:05:48Z</time>
      </trkpt>
      <trkpt lat="45.08906" lon="5.89191">
        <ele>866</ele>
        <time>2015-06-20T05:05:49Z</time>
      </trkpt>
      <trkpt lat="45.08904" lon="5.89188">
        <ele>866</ele>
        <time>2015-06-20T05:05:51Z</time>
      </trkpt>
      <trkpt lat="45.08902" lon="5.89186">
        <ele>866</ele>
        <time>2015-06-20T05:05:53Z</time>
      </trkpt>
      <trkpt lat="45.08901" lon="5.89185">
        <ele>866</ele>
        <time>2015-06-20T05:05:54Z</time>
      </trkpt>
      <trkpt lat="45.08898" lon="5.89183">
        <ele>866</ele>
        <time>2015-06-20T05:05:55Z</time>
      </trkpt>
      <trkpt lat="45.08896" lon="5.89181">
        <ele>866</ele>
        <time>2015-06-20T05:05:57Z</time>
      </trkpt>
      <trkpt lat="45.08894" lon="5.89178">
        <ele>868</ele>
        <time>2015-06-20T05:05:58Z</time>
      </trkpt>
      <trkpt lat="45.08893" lon="5.89174">
        <ele>870</ele>
        <time>2015-06-20T05:06:00Z</time>
      </trkpt>
      <trkpt lat="45.08892" lon="5.8917">
        <ele>870</ele>
        <time>2015-06-20T05:06:02Z</time>
      </trkpt>
      <trkpt lat="45.08891" lon="5.89166">
        <ele>870</ele>
        <time>2015-06-20T05:06:03Z</time>
      </trkpt>
      <trkpt lat="45.08891" lon="5.89164">
        <ele>870</ele>
        <time>2015-06-20T05:06:04Z</time>
      </trkpt>
      <trkpt lat="45.08891" lon="5.8916">
        <ele>870</ele>
        <time>2015-06-20T05:06:05Z</time>
      </trkpt>
      <trkpt lat="45.0889" lon="5.89157">
        <ele>870</ele>
        <time>2015-06-20T05:06:06Z</time>
      </trkpt>
      <trkpt lat="45.0889" lon="5.89155">
        <ele>870</ele>
        <time>2015-06-20T05:06:07Z</time>
      </trkpt>
      <trkpt lat="45.08889" lon="5.89151">
        <ele>870</ele>
        <time>2015-06-20T05:06:09Z</time>
      </trkpt>
      <trkpt lat="45.08888" lon="5.89149">
        <ele>872</ele>
        <time>2015-06-20T05:06:10Z</time>
      </trkpt>
      <trkpt lat="45.08887" lon="5.89144">
        <ele>872</ele>
        <time>2015-06-20T05:06:12Z</time>
      </trkpt>
      <trkpt lat="45.08886" lon="5.8914">
        <ele>872</ele>
        <time>2015-06-20T05:06:14Z</time>
      </trkpt>
      <trkpt lat="45.08884" lon="5.89138">
        <ele>872</ele>
        <time>2015-06-20T05:06:16Z</time>
      </trkpt>
      <trkpt lat="45.08881" lon="5.89136">
        <ele>874</ele>
        <time>2015-06-20T05:06:19Z</time>
      </trkpt>
      <trkpt lat="45.0888" lon="5.89132">
        <ele>874</ele>
        <time>2015-06-20T05:06:21Z</time>
      </trkpt>
      <trkpt lat="45.08881" lon="5.8913">
        <ele>877</ele>
        <time>2015-06-20T05:06:25Z</time>
      </trkpt>
      <trkpt lat="45.08884" lon="5.89128">
        <ele>877</ele>
        <time>2015-06-20T05:06:27Z</time>
      </trkpt>
      <trkpt lat="45.08889" lon="5.8913">
        <ele>877</ele>
        <time>2015-06-20T05:06:32Z</time>
      </trkpt>
      <trkpt lat="45.08891" lon="5.8913">
        <ele>878</ele>
        <time>2015-06-20T05:06:33Z</time>
      </trkpt>
      <trkpt lat="45.08893" lon="5.89131">
        <ele>878</ele>
        <time>2015-06-20T05:06:34Z</time>
      </trkpt>
      <trkpt lat="45.08895" lon="5.89132">
        <ele>878</ele>
        <time>2015-06-20T05:06:35Z</time>
      </trkpt>
      <trkpt lat="45.08897" lon="5.89134">
        <ele>879</ele>
        <time>2015-06-20T05:06:36Z</time>
      </trkpt>
      <trkpt lat="45.08898" lon="5.89136">
        <ele>879</ele>
        <time>2015-06-20T05:06:38Z</time>
      </trkpt>
      <trkpt lat="45.08897" lon="5.89132">
        <ele>879</ele>
        <time>2015-06-20T05:06:42Z</time>
      </trkpt>
      <trkpt lat="45.08896" lon="5.8913">
        <ele>880</ele>
        <time>2015-06-20T05:06:45Z</time>
      </trkpt>
      <trkpt lat="45.08895" lon="5.89128">
        <ele>881</ele>
        <time>2015-06-20T05:06:48Z</time>
      </trkpt>
      <trkpt lat="45.08894" lon="5.89124">
        <ele>881</ele>
        <time>2015-06-20T05:06:52Z</time>
      </trkpt>
      <trkpt lat="45.08895" lon="5.89121">
        <ele>883</ele>
        <time>2015-06-20T05:06:54Z</time>
      </trkpt>
      <trkpt lat="45.08894" lon="5.89118">
        <ele>884</ele>
        <time>2015-06-20T05:06:56Z</time>
      </trkpt>
      <trkpt lat="45.08893" lon="5.89116">
        <ele>884</ele>
        <time>2015-06-20T05:06:58Z</time>
      </trkpt>
      <trkpt lat="45.08893" lon="5.89112">
        <ele>886</ele>
        <time>2015-06-20T05:07:01Z</time>
      </trkpt>
      <trkpt lat="45.08892" lon="5.89109">
        <ele>886</ele>
        <time>2015-06-20T05:07:04Z</time>
      </trkpt>
      <trkpt lat="45.0889" lon="5.89107">
        <ele>886</ele>
        <time>2015-06-20T05:07:06Z</time>
      </trkpt>
      <trkpt lat="45.08889" lon="5.89104">
        <ele>888</ele>
        <time>2015-06-20T05:07:08Z</time>
      </trkpt>
      <trkpt lat="45.08889" lon="5.89101">
        <ele>888</ele>
        <time>2015-06-20T05:07:09Z</time>
      </trkpt>
      <trkpt lat="45.08887" lon="5.89097">
        <ele>888</ele>
        <time>2015-06-20T05:07:11Z</time>
      </trkpt>
      <trkpt lat="45.08885" lon="5.89094">
        <ele>889</ele>
        <time>2015-06-20T05:07:13Z</time>
      </trkpt>
      <trkpt lat="45.08884" lon="5.89089">
        <ele>889</ele>
        <time>2015-06-20T05:07:15Z</time>
      </trkpt>
      <trkpt lat="45.08884" lon="5.89085">
        <ele>889</ele>
        <time>2015-06-20T05:07:16Z</time>
      </trkpt>
      <trkpt lat="45.08883" lon="5.89083">
        <ele>889</ele>
        <time>2015-06-20T05:07:17Z</time>
      </trkpt>
      <trkpt lat="45.08881" lon="5.8908">
        <ele>889</ele>
        <time>2015-06-20T05:07:19Z</time>
      </trkpt>
      <trkpt lat="45.0888" lon="5.89076">
        <ele>890</ele>
        <time>2015-06-20T05:07:21Z</time>
      </trkpt>
      <trkpt lat="45.08879" lon="5.89071">
        <ele>890</ele>
        <time>2015-06-20T05:07:23Z</time>
      </trkpt>
      <trkpt lat="45.08879" lon="5.89068">
        <ele>890</ele>
        <time>2015-06-20T05:07:24Z</time>
      </trkpt>
      <trkpt lat="45.08878" lon="5.89065">
        <ele>890</ele>
        <time>2015-06-20T05:07:25Z</time>
      </trkpt>
      <trkpt lat="45.08876" lon="5.89062">
        <ele>890</ele>
        <time>2015-06-20T05:07:29Z</time>
      </trkpt>
      <trkpt lat="45.08875" lon="5.89056">
        <ele>892</ele>
        <time>2015-06-20T05:07:33Z</time>
      </trkpt>
      <trkpt lat="45.08873" lon="5.89054">
        <ele>892</ele>
        <time>2015-06-20T05:07:35Z</time>
      </trkpt>
      <trkpt lat="45.08871" lon="5.89053">
        <ele>892</ele>
        <time>2015-06-20T05:07:37Z</time>
      </trkpt>
      <trkpt lat="45.08869" lon="5.89051">
        <ele>892</ele>
        <time>2015-06-20T05:07:40Z</time>
      </trkpt>
      <trkpt lat="45.08868" lon="5.89049">
        <ele>896</ele>
        <time>2015-06-20T05:07:44Z</time>
      </trkpt>
      <trkpt lat="45.08866" lon="5.8905">
        <ele>897</ele>
        <time>2015-06-20T05:07:47Z</time>
      </trkpt>
      <trkpt lat="45.08863" lon="5.89047">
        <ele>897</ele>
        <time>2015-06-20T05:07:51Z</time>
      </trkpt>
      <trkpt lat="45.08861" lon="5.89046">
        <ele>899</ele>
        <time>2015-06-20T05:07:52Z</time>
      </trkpt>
      <trkpt lat="45.08858" lon="5.89044">
        <ele>899</ele>
        <time>2015-06-20T05:07:54Z</time>
      </trkpt>
      <trkpt lat="45.08857" lon="5.89044">
        <ele>901</ele>
        <time>2015-06-20T05:07:56Z</time>
      </trkpt>
      <trkpt lat="45.08855" lon="5.89041">
        <ele>901</ele>
        <time>2015-06-20T05:07:57Z</time>
      </trkpt>
      <trkpt lat="45.08853" lon="5.89038">
        <ele>901</ele>
        <time>2015-06-20T05:07:59Z</time>
      </trkpt>
      <trkpt lat="45.08851" lon="5.89038">
        <ele>903</ele>
        <time>2015-06-20T05:08:01Z</time>
      </trkpt>
      <trkpt lat="45.08849" lon="5.89035">
        <ele>903</ele>
        <time>2015-06-20T05:08:03Z</time>
      </trkpt>
      <trkpt lat="45.08848" lon="5.89032">
        <ele>904</ele>
        <time>2015-06-20T05:08:06Z</time>
      </trkpt>
      <trkpt lat="45.08845" lon="5.89029">
        <ele>904</ele>
        <time>2015-06-20T05:08:08Z</time>
      </trkpt>
      <trkpt lat="45.08848" lon="5.89027">
        <ele>904</ele>
        <time>2015-06-20T05:08:11Z</time>
      </trkpt>
      <trkpt lat="45.0885" lon="5.89026">
        <ele>906</ele>
        <time>2015-06-20T05:08:14Z</time>
      </trkpt>
      <trkpt lat="45.08852" lon="5.89025">
        <ele>906</ele>
        <time>2015-06-20T05:08:16Z</time>
      </trkpt>
      <trkpt lat="45.0885" lon="5.89025">
        <ele>906</ele>
        <time>2015-06-20T05:08:25Z</time>
      </trkpt>
      <trkpt lat="45.08848" lon="5.89023">
        <ele>911</ele>
        <time>2015-06-20T05:08:28Z</time>
      </trkpt>
      <trkpt lat="45.08846" lon="5.89023">
        <ele>913</ele>
        <time>2015-06-20T05:08:31Z</time>
      </trkpt>
      <trkpt lat="45.08845" lon="5.89019">
        <ele>913</ele>
        <time>2015-06-20T05:08:34Z</time>
      </trkpt>
      <trkpt lat="45.08839" lon="5.89014">
        <ele>913</ele>
        <time>2015-06-20T05:08:39Z</time>
      </trkpt>
      <trkpt lat="45.08837" lon="5.89013">
        <ele>914</ele>
        <time>2015-06-20T05:08:41Z</time>
      </trkpt>
      <trkpt lat="45.08836" lon="5.89011">
        <ele>915</ele>
        <time>2015-06-20T05:08:43Z</time>
      </trkpt>
      <trkpt lat="45.08834" lon="5.89009">
        <ele>915</ele>
        <time>2015-06-20T05:08:46Z</time>
      </trkpt>
      <trkpt lat="45.08832" lon="5.89007">
        <ele>915</ele>
        <time>2015-06-20T05:08:48Z</time>
      </trkpt>
      <trkpt lat="45.0883" lon="5.89006">
        <ele>917</ele>
        <time>2015-06-20T05:08:50Z</time>
      </trkpt>
      <trkpt lat="45.08828" lon="5.89005">
        <ele>917</ele>
        <time>2015-06-20T05:08:52Z</time>
      </trkpt>
      <trkpt lat="45.08827" lon="5.89003">
        <ele>918</ele>
        <time>2015-06-20T05:08:56Z</time>
      </trkpt>
      <trkpt lat="45.08826" lon="5.89">
        <ele>920</ele>
        <time>2015-06-20T05:08:58Z</time>
      </trkpt>
      <trkpt lat="45.08823" lon="5.88999">
        <ele>920</ele>
        <time>2015-06-20T05:09:00Z</time>
      </trkpt>
      <trkpt lat="45.08821" lon="5.88999">
        <ele>921</ele>
        <time>2015-06-20T05:09:03Z</time>
      </trkpt>
      <trkpt lat="45.08819" lon="5.88997">
        <ele>921</ele>
        <time>2015-06-20T05:09:05Z</time>
      </trkpt>
      <trkpt lat="45.08817" lon="5.88997">
        <ele>921</ele>
        <time>2015-06-20T05:09:08Z</time>
      </trkpt>
      <trkpt lat="45.08816" lon="5.88995">
        <ele>924</ele>
        <time>2015-06-20T05:09:12Z</time>
      </trkpt>
      <trkpt lat="45.08813" lon="5.88995">
        <ele>925</ele>
        <time>2015-06-20T05:09:15Z</time>
      </trkpt>
      <trkpt lat="45.08811" lon="5.88993">
        <ele>925</ele>
        <time>2015-06-20T05:09:16Z</time>
      </trkpt>
      <trkpt lat="45.08811" lon="5.8899">
        <ele>925</ele>
        <time>2015-06-20T05:09:19Z</time>
      </trkpt>
      <trkpt lat="45.08808" lon="5.8899">
        <ele>925</ele>
        <time>2015-06-20T05:09:21Z</time>
      </trkpt>
      <trkpt lat="45.08806" lon="5.8899">
        <ele>928</ele>
        <time>2015-06-20T05:09:24Z</time>
      </trkpt>
      <trkpt lat="45.08804" lon="5.88988">
        <ele>930</ele>
        <time>2015-06-20T05:09:28Z</time>
      </trkpt>
      <trkpt lat="45.08802" lon="5.88986">
        <ele>931</ele>
        <time>2015-06-20T05:09:31Z</time>
      </trkpt>
      <trkpt lat="45.088" lon="5.88988">
        <ele>933</ele>
        <time>2015-06-20T05:09:34Z</time>
      </trkpt>
      <trkpt lat="45.088" lon="5.88984">
        <ele>933</ele>
        <time>2015-06-20T05:09:40Z</time>
      </trkpt>
      <trkpt lat="45.088" lon="5.88981">
        <ele>934</ele>
        <time>2015-06-20T05:09:41Z</time>
      </trkpt>
      <trkpt lat="45.08802" lon="5.88979">
        <ele>936</ele>
        <time>2015-06-20T05:09:44Z</time>
      </trkpt>
      <trkpt lat="45.08803" lon="5.8898">
        <ele>936</ele>
        <time>2015-06-20T05:09:45Z</time>
      </trkpt>
      <trkpt lat="45.08805" lon="5.88979">
        <ele>936</ele>
        <time>2015-06-20T05:09:47Z</time>
      </trkpt>
      <trkpt lat="45.08808" lon="5.88977">
        <ele>938</ele>
        <time>2015-06-20T05:09:49Z</time>
      </trkpt>
      <trkpt lat="45.0881" lon="5.88975">
        <ele>938</ele>
        <time>2015-06-20T05:09:51Z</time>
      </trkpt>
      <trkpt lat="45.08812" lon="5.88975">
        <ele>938</ele>
        <time>2015-06-20T05:09:52Z</time>
      </trkpt>
      <trkpt lat="45.08814" lon="5.88974">
        <ele>938</ele>
        <time>2015-06-20T05:09:53Z</time>
      </trkpt>
      <trkpt lat="45.08816" lon="5.88973">
        <ele>938</ele>
        <time>2015-06-20T05:09:54Z</time>
      </trkpt>
      <trkpt lat="45.08817" lon="5.88971">
        <ele>938</ele>
        <time>2015-06-20T05:09:55Z</time>
      </trkpt>
      <trkpt lat="45.08819" lon="5.88969">
        <ele>938</ele>
        <time>2015-06-20T05:09:57Z</time>
      </trkpt>
      <trkpt lat="45.08821" lon="5.88968">
        <ele>940</ele>
        <time>2015-06-20T05:09:59Z</time>
      </trkpt>
      <trkpt lat="45.08823" lon="5.88968">
        <ele>940</ele>
        <time>2015-06-20T05:10:02Z</time>
      </trkpt>
      <trkpt lat="45.08826" lon="5.88969">
        <ele>940</ele>
        <time>2015-06-20T05:10:05Z</time>
      </trkpt>
      <trkpt lat="45.08828" lon="5.88969">
        <ele>940</ele>
        <time>2015-06-20T05:10:08Z</time>
      </trkpt>
      <trkpt lat="45.08831" lon="5.88968">
        <ele>942</ele>
        <time>2015-06-20T05:10:10Z</time>
      </trkpt>
      <trkpt lat="45.08833" lon="5.88966">
        <ele>942</ele>
        <time>2015-06-20T05:10:14Z</time>
      </trkpt>
      <trkpt lat="45.08835" lon="5.88966">
        <ele>945</ele>
        <time>2015-06-20T05:10:15Z</time>
      </trkpt>
      <trkpt lat="45.08837" lon="5.88964">
        <ele>945</ele>
        <time>2015-06-20T05:10:17Z</time>
      </trkpt>
      <trkpt lat="45.08838" lon="5.88962">
        <ele>947</ele>
        <time>2015-06-20T05:10:20Z</time>
      </trkpt>
      <trkpt lat="45.08837" lon="5.88965">
        <ele>947</ele>
        <time>2015-06-20T05:10:23Z</time>
      </trkpt>
      <trkpt lat="45.08835" lon="5.88964">
        <ele>948</ele>
        <time>2015-06-20T05:10:26Z</time>
      </trkpt>
      <trkpt lat="45.08834" lon="5.88962">
        <ele>948</ele>
        <time>2015-06-20T05:10:28Z</time>
      </trkpt>
      <trkpt lat="45.08833" lon="5.88959">
        <ele>948</ele>
        <time>2015-06-20T05:10:31Z</time>
      </trkpt>
      <trkpt lat="45.08831" lon="5.88958">
        <ele>952</ele>
        <time>2015-06-20T05:10:34Z</time>
      </trkpt>
      <trkpt lat="45.08829" lon="5.8896">
        <ele>952</ele>
        <time>2015-06-20T05:10:36Z</time>
      </trkpt>
      <trkpt lat="45.08827" lon="5.88959">
        <ele>952</ele>
        <time>2015-06-20T05:10:37Z</time>
      </trkpt>
      <trkpt lat="45.08825" lon="5.8896">
        <ele>953</ele>
        <time>2015-06-20T05:10:39Z</time>
      </trkpt>
      <trkpt lat="45.08822" lon="5.8896">
        <ele>953</ele>
        <time>2015-06-20T05:10:41Z</time>
      </trkpt>
      <trkpt lat="45.0882" lon="5.88957">
        <ele>955</ele>
        <time>2015-06-20T05:10:44Z</time>
      </trkpt>
      <trkpt lat="45.08819" lon="5.88955">
        <ele>955</ele>
        <time>2015-06-20T05:10:46Z</time>
      </trkpt>
      <trkpt lat="45.08817" lon="5.88953">
        <ele>957</ele>
        <time>2015-06-20T05:10:49Z</time>
      </trkpt>
      <trkpt lat="45.08815" lon="5.88952">
        <ele>957</ele>
        <time>2015-06-20T05:10:52Z</time>
      </trkpt>
      <trkpt lat="45.08812" lon="5.88951">
        <ele>959</ele>
        <time>2015-06-20T05:10:57Z</time>
      </trkpt>
      <trkpt lat="45.0881" lon="5.88952">
        <ele>961</ele>
        <time>2015-06-20T05:11:00Z</time>
      </trkpt>
      <trkpt lat="45.08808" lon="5.88952">
        <ele>962</ele>
        <time>2015-06-20T05:11:04Z</time>
      </trkpt>
      <trkpt lat="45.08807" lon="5.8895">
        <ele>962</ele>
        <time>2015-06-20T05:11:07Z</time>
      </trkpt>
      <trkpt lat="45.08805" lon="5.88949">
        <ele>964</ele>
        <time>2015-06-20T05:11:10Z</time>
      </trkpt>
      <trkpt lat="45.08802" lon="5.88948">
        <ele>966</ele>
        <time>2015-06-20T05:11:15Z</time>
      </trkpt>
      <trkpt lat="45.08798" lon="5.88949">
        <ele>968</ele>
        <time>2015-06-20T05:11:19Z</time>
      </trkpt>
      <trkpt lat="45.08797" lon="5.88945">
        <ele>968</ele>
        <time>2015-06-20T05:11:22Z</time>
      </trkpt>
      <trkpt lat="45.08795" lon="5.88942">
        <ele>969</ele>
        <time>2015-06-20T05:11:25Z</time>
      </trkpt>
      <trkpt lat="45.08793" lon="5.88943">
        <ele>971</ele>
        <time>2015-06-20T05:11:29Z</time>
      </trkpt>
      <trkpt lat="45.08791" lon="5.88941">
        <ele>971</ele>
        <time>2015-06-20T05:11:32Z</time>
      </trkpt>
      <trkpt lat="45.08791" lon="5.88938">
        <ele>972</ele>
        <time>2015-06-20T05:11:36Z</time>
      </trkpt>
      <trkpt lat="45.08793" lon="5.88936">
        <ele>972</ele>
        <time>2015-06-20T05:11:39Z</time>
      </trkpt>
      <trkpt lat="45.08795" lon="5.88934">
        <ele>974</ele>
        <time>2015-06-20T05:11:42Z</time>
      </trkpt>
      <trkpt lat="45.08797" lon="5.88934">
        <ele>975</ele>
        <time>2015-06-20T05:11:46Z</time>
      </trkpt>
      <trkpt lat="45.088" lon="5.88933">
        <ele>975</ele>
        <time>2015-06-20T05:11:48Z</time>
      </trkpt>
      <trkpt lat="45.08802" lon="5.88932">
        <ele>977</ele>
        <time>2015-06-20T05:11:49Z</time>
      </trkpt>
      <trkpt lat="45.088" lon="5.88934">
        <ele>978</ele>
        <time>2015-06-20T05:11:54Z</time>
      </trkpt>
      <trkpt lat="45.08798" lon="5.88936">
        <ele>978</ele>
        <time>2015-06-20T05:11:58Z</time>
      </trkpt>
      <trkpt lat="45.08796" lon="5.88936">
        <ele>980</ele>
        <time>2015-06-20T05:12:00Z</time>
      </trkpt>
      <trkpt lat="45.08794" lon="5.88935">
        <ele>980</ele>
        <time>2015-06-20T05:12:02Z</time>
      </trkpt>
      <trkpt lat="45.08792" lon="5.88932">
        <ele>982</ele>
        <time>2015-06-20T05:12:05Z</time>
      </trkpt>
      <trkpt lat="45.0879" lon="5.88928">
        <ele>982</ele>
        <time>2015-06-20T05:12:07Z</time>
      </trkpt>
      <trkpt lat="45.08789" lon="5.88925">
        <ele>983</ele>
        <time>2015-06-20T05:12:10Z</time>
      </trkpt>
      <trkpt lat="45.08791" lon="5.88922">
        <ele>983</ele>
        <time>2015-06-20T05:12:13Z</time>
      </trkpt>
      <trkpt lat="45.08794" lon="5.88919">
        <ele>984</ele>
        <time>2015-06-20T05:12:18Z</time>
      </trkpt>
      <trkpt lat="45.08795" lon="5.88917">
        <ele>986</ele>
        <time>2015-06-20T05:12:20Z</time>
      </trkpt>
      <trkpt lat="45.08796" lon="5.88914">
        <ele>986</ele>
        <time>2015-06-20T05:12:23Z</time>
      </trkpt>
      <trkpt lat="45.08795" lon="5.88911">
        <ele>987</ele>
        <time>2015-06-20T05:12:26Z</time>
      </trkpt>
      <trkpt lat="45.08793" lon="5.88909">
        <ele>987</ele>
        <time>2015-06-20T05:12:28Z</time>
      </trkpt>
      <trkpt lat="45.08791" lon="5.88908">
        <ele>989</ele>
        <time>2015-06-20T05:12:32Z</time>
      </trkpt>
      <trkpt lat="45.08789" lon="5.88908">
        <ele>990</ele>
        <time>2015-06-20T05:12:35Z</time>
      </trkpt>
      <trkpt lat="45.08787" lon="5.88905">
        <ele>992</ele>
        <time>2015-06-20T05:12:39Z</time>
      </trkpt>
      <trkpt lat="45.08787" lon="5.88902">
        <ele>992</ele>
        <time>2015-06-20T05:12:41Z</time>
      </trkpt>
      <trkpt lat="45.08785" lon="5.88899">
        <ele>992</ele>
        <time>2015-06-20T05:12:43Z</time>
      </trkpt>
      <trkpt lat="45.08784" lon="5.88896">
        <ele>993</ele>
        <time>2015-06-20T05:12:45Z</time>
      </trkpt>
      <trkpt lat="45.08784" lon="5.88891">
        <ele>993</ele>
        <time>2015-06-20T05:12:47Z</time>
      </trkpt>
      <trkpt lat="45.08784" lon="5.88885">
        <ele>995</ele>
        <time>2015-06-20T05:12:49Z</time>
      </trkpt>
      <trkpt lat="45.08785" lon="5.88881">
        <ele>995</ele>
        <time>2015-06-20T05:12:51Z</time>
      </trkpt>
      <trkpt lat="45.08784" lon="5.88878">
        <ele>995</ele>
        <time>2015-06-20T05:12:53Z</time>
      </trkpt>
      <trkpt lat="45.08784" lon="5.88875">
        <ele>997</ele>
        <time>2015-06-20T05:12:55Z</time>
      </trkpt>
      <trkpt lat="45.08785" lon="5.88873">
        <ele>997</ele>
        <time>2015-06-20T05:12:57Z</time>
      </trkpt>
      <trkpt lat="45.08785" lon="5.88869">
        <ele>999</ele>
        <time>2015-06-20T05:12:59Z</time>
      </trkpt>
      <trkpt lat="45.08783" lon="5.88866">
        <ele>999</ele>
        <time>2015-06-20T05:13:02Z</time>
      </trkpt>
      <trkpt lat="45.08782" lon="5.88862">
        <ele>999</ele>
        <time>2015-06-20T05:13:04Z</time>
      </trkpt>
      <trkpt lat="45.08781" lon="5.88859">
        <ele>1000</ele>
        <time>2015-06-20T05:13:06Z</time>
      </trkpt>
      <trkpt lat="45.0878" lon="5.88854">
        <ele>1000</ele>
        <time>2015-06-20T05:13:08Z</time>
      </trkpt>
      <trkpt lat="45.0878" lon="5.88851">
        <ele>1002</ele>
        <time>2015-06-20T05:13:10Z</time>
      </trkpt>
      <trkpt lat="45.08779" lon="5.88847">
        <ele>1002</ele>
        <time>2015-06-20T05:13:12Z</time>
      </trkpt>
      <trkpt lat="45.08778" lon="5.88844">
        <ele>1004</ele>
        <time>2015-06-20T05:13:14Z</time>
      </trkpt>
      <trkpt lat="45.08777" lon="5.8884">
        <ele>1004</ele>
        <time>2015-06-20T05:13:16Z</time>
      </trkpt>
      <trkpt lat="45.08777" lon="5.88836">
        <ele>1004</ele>
        <time>2015-06-20T05:13:18Z</time>
      </trkpt>
      <trkpt lat="45.08776" lon="5.88834">
        <ele>1005</ele>
        <time>2015-06-20T05:13:20Z</time>
      </trkpt>
      <trkpt lat="45.08777" lon="5.8883">
        <ele>1005</ele>
        <time>2015-06-20T05:13:23Z</time>
      </trkpt>
      <trkpt lat="45.08776" lon="5.88828">
        <ele>1007</ele>
        <time>2015-06-20T05:13:25Z</time>
      </trkpt>
      <trkpt lat="45.08775" lon="5.88824">
        <ele>1007</ele>
        <time>2015-06-20T05:13:27Z</time>
      </trkpt>
      <trkpt lat="45.08775" lon="5.88821">
        <ele>1007</ele>
        <time>2015-06-20T05:13:28Z</time>
      </trkpt>
      <trkpt lat="45.08775" lon="5.88819">
        <ele>1009</ele>
        <time>2015-06-20T05:13:29Z</time>
      </trkpt>
      <trkpt lat="45.08776" lon="5.88815">
        <ele>1009</ele>
        <time>2015-06-20T05:13:31Z</time>
      </trkpt>
      <trkpt lat="45.08778" lon="5.88813">
        <ele>1009</ele>
        <time>2015-06-20T05:13:33Z</time>
      </trkpt>
      <trkpt lat="45.0878" lon="5.88813">
        <ele>1010</ele>
        <time>2015-06-20T05:13:36Z</time>
      </trkpt>
      <trkpt lat="45.08783" lon="5.88815">
        <ele>1012</ele>
        <time>2015-06-20T05:13:41Z</time>
      </trkpt>
      <trkpt lat="45.08784" lon="5.88817">
        <ele>1012</ele>
        <time>2015-06-20T05:13:42Z</time>
      </trkpt>
      <trkpt lat="45.08786" lon="5.8882">
        <ele>1014</ele>
        <time>2015-06-20T05:13:44Z</time>
      </trkpt>
      <trkpt lat="45.08789" lon="5.8882">
        <ele>1014</ele>
        <time>2015-06-20T05:13:46Z</time>
      </trkpt>
      <trkpt lat="45.08791" lon="5.88823">
        <ele>1014</ele>
        <time>2015-06-20T05:13:48Z</time>
      </trkpt>
      <trkpt lat="45.08793" lon="5.88822">
        <ele>1014</ele>
        <time>2015-06-20T05:13:50Z</time>
      </trkpt>
      <trkpt lat="45.08796" lon="5.88823">
        <ele>1016</ele>
        <time>2015-06-20T05:13:52Z</time>
      </trkpt>
      <trkpt lat="45.08795" lon="5.88821">
        <ele>1018</ele>
        <time>2015-06-20T05:13:58Z</time>
      </trkpt>
      <trkpt lat="45.08793" lon="5.88819">
        <ele>1020</ele>
        <time>2015-06-20T05:14:01Z</time>
      </trkpt>
      <trkpt lat="45.08792" lon="5.88815">
        <ele>1021</ele>
        <time>2015-06-20T05:14:04Z</time>
      </trkpt>
      <trkpt lat="45.08792" lon="5.88813">
        <ele>1021</ele>
        <time>2015-06-20T05:14:06Z</time>
      </trkpt>
      <trkpt lat="45.08795" lon="5.88808">
        <ele>1021</ele>
        <time>2015-06-20T05:14:12Z</time>
      </trkpt>
      <trkpt lat="45.08797" lon="5.88809">
        <ele>1024</ele>
        <time>2015-06-20T05:14:14Z</time>
      </trkpt>
      <trkpt lat="45.08799" lon="5.8881">
        <ele>1024</ele>
        <time>2015-06-20T05:14:16Z</time>
      </trkpt>
      <trkpt lat="45.08801" lon="5.8881">
        <ele>1024</ele>
        <time>2015-06-20T05:14:18Z</time>
      </trkpt>
      <trkpt lat="45.08802" lon="5.88813">
        <ele>1026</ele>
        <time>2015-06-20T05:14:21Z</time>
      </trkpt>
      <trkpt lat="45.08803" lon="5.88815">
        <ele>1028</ele>
        <time>2015-06-20T05:14:24Z</time>
      </trkpt>
      <trkpt lat="45.08804" lon="5.88818">
        <ele>1028</ele>
        <time>2015-06-20T05:14:26Z</time>
      </trkpt>
      <trkpt lat="45.08806" lon="5.88821">
        <ele>1030</ele>
        <time>2015-06-20T05:14:32Z</time>
      </trkpt>
      <trkpt lat="45.08808" lon="5.88824">
        <ele>1032</ele>
        <time>2015-06-20T05:14:36Z</time>
      </trkpt>
      <trkpt lat="45.08809" lon="5.88826">
        <ele>1032</ele>
        <time>2015-06-20T05:14:38Z</time>
      </trkpt>
      <trkpt lat="45.08811" lon="5.8883">
        <ele>1034</ele>
        <time>2015-06-20T05:14:42Z</time>
      </trkpt>
      <trkpt lat="45.08813" lon="5.88832">
        <ele>1035</ele>
        <time>2015-06-20T05:14:44Z</time>
      </trkpt>
      <trkpt lat="45.08815" lon="5.88833">
        <ele>1035</ele>
        <time>2015-06-20T05:14:46Z</time>
      </trkpt>
      <trkpt lat="45.08818" lon="5.88834">
        <ele>1035</ele>
        <time>2015-06-20T05:14:48Z</time>
      </trkpt>
      <trkpt lat="45.0882" lon="5.88834">
        <ele>1036</ele>
        <time>2015-06-20T05:14:51Z</time>
      </trkpt>
      <trkpt lat="45.08821" lon="5.88833">
        <ele>1037</ele>
        <time>2015-06-20T05:14:57Z</time>
      </trkpt>
      <trkpt lat="45.08822" lon="5.8883">
        <ele>1039</ele>
        <time>2015-06-20T05:15:00Z</time>
      </trkpt>
      <trkpt lat="45.08823" lon="5.88827">
        <ele>1041</ele>
        <time>2015-06-20T05:15:05Z</time>
      </trkpt>
      <trkpt lat="45.08822" lon="5.88824">
        <ele>1041</ele>
        <time>2015-06-20T05:15:08Z</time>
      </trkpt>
      <trkpt lat="45.08823" lon="5.88821">
        <ele>1043</ele>
        <time>2015-06-20T05:15:11Z</time>
      </trkpt>
      <trkpt lat="45.08824" lon="5.88818">
        <ele>1045</ele>
        <time>2015-06-20T05:15:15Z</time>
      </trkpt>
      <trkpt lat="45.08824" lon="5.88816">
        <ele>1045</ele>
        <time>2015-06-20T05:15:17Z</time>
      </trkpt>
      <trkpt lat="45.08826" lon="5.88812">
        <ele>1047</ele>
        <time>2015-06-20T05:15:19Z</time>
      </trkpt>
      <trkpt lat="45.08826" lon="5.88809">
        <ele>1047</ele>
        <time>2015-06-20T05:15:21Z</time>
      </trkpt>
      <trkpt lat="45.08828" lon="5.88806">
        <ele>1047</ele>
        <time>2015-06-20T05:15:23Z</time>
      </trkpt>
      <trkpt lat="45.08828" lon="5.88802">
        <ele>1049</ele>
        <time>2015-06-20T05:15:26Z</time>
      </trkpt>
      <trkpt lat="45.08829" lon="5.88798">
        <ele>1051</ele>
        <time>2015-06-20T05:15:29Z</time>
      </trkpt>
      <trkpt lat="45.08829" lon="5.88794">
        <ele>1051</ele>
        <time>2015-06-20T05:15:32Z</time>
      </trkpt>
      <trkpt lat="45.08829" lon="5.88792">
        <ele>1051</ele>
        <time>2015-06-20T05:15:37Z</time>
      </trkpt>
      <trkpt lat="45.08832" lon="5.88793">
        <ele>1052</ele>
        <time>2015-06-20T05:15:41Z</time>
      </trkpt>
      <trkpt lat="45.08834" lon="5.88795">
        <ele>1052</ele>
        <time>2015-06-20T05:15:43Z</time>
      </trkpt>
      <trkpt lat="45.08835" lon="5.88796">
        <ele>1052</ele>
        <time>2015-06-20T05:15:45Z</time>
      </trkpt>
      <trkpt lat="45.08837" lon="5.88797">
        <ele>1052</ele>
        <time>2015-06-20T05:15:48Z</time>
      </trkpt>
      <trkpt lat="45.0884" lon="5.88799">
        <ele>1055</ele>
        <time>2015-06-20T05:15:50Z</time>
      </trkpt>
      <trkpt lat="45.08843" lon="5.88801">
        <ele>1055</ele>
        <time>2015-06-20T05:15:52Z</time>
      </trkpt>
      <trkpt lat="45.08845" lon="5.88802">
        <ele>1055</ele>
        <time>2015-06-20T05:15:54Z</time>
      </trkpt>
      <trkpt lat="45.08847" lon="5.88802">
        <ele>1058</ele>
        <time>2015-06-20T05:15:56Z</time>
      </trkpt>
      <trkpt lat="45.0885" lon="5.88802">
        <ele>1058</ele>
        <time>2015-06-20T05:15:58Z</time>
      </trkpt>
      <trkpt lat="45.08853" lon="5.88801">
        <ele>1059</ele>
        <time>2015-06-20T05:16:00Z</time>
      </trkpt>
      <trkpt lat="45.08855" lon="5.88801">
        <ele>1059</ele>
        <time>2015-06-20T05:16:02Z</time>
      </trkpt>
      <trkpt lat="45.08857" lon="5.88799">
        <ele>1061</ele>
        <time>2015-06-20T05:16:05Z</time>
      </trkpt>
      <trkpt lat="45.08859" lon="5.88798">
        <ele>1061</ele>
        <time>2015-06-20T05:16:08Z</time>
      </trkpt>
      <trkpt lat="45.08862" lon="5.88798">
        <ele>1063</ele>
        <time>2015-06-20T05:16:10Z</time>
      </trkpt>
      <trkpt lat="45.08864" lon="5.88797">
        <ele>1065</ele>
        <time>2015-06-20T05:16:14Z</time>
      </trkpt>
      <trkpt lat="45.08866" lon="5.88795">
        <ele>1065</ele>
        <time>2015-06-20T05:16:16Z</time>
      </trkpt>
      <trkpt lat="45.08863" lon="5.88794">
        <ele>1068</ele>
        <time>2015-06-20T05:16:24Z</time>
      </trkpt>
      <trkpt lat="45.08861" lon="5.88794">
        <ele>1068</ele>
        <time>2015-06-20T05:16:27Z</time>
      </trkpt>
      <trkpt lat="45.08859" lon="5.88791">
        <ele>1070</ele>
        <time>2015-06-20T05:16:30Z</time>
      </trkpt>
      <trkpt lat="45.08858" lon="5.88788">
        <ele>1070</ele>
        <time>2015-06-20T05:16:32Z</time>
      </trkpt>
      <trkpt lat="45.08857" lon="5.88785">
        <ele>1070</ele>
        <time>2015-06-20T05:16:34Z</time>
      </trkpt>
      <trkpt lat="45.08857" lon="5.88782">
        <ele>1070</ele>
        <time>2015-06-20T05:16:35Z</time>
      </trkpt>
      <trkpt lat="45.08856" lon="5.88778">
        <ele>1070</ele>
        <time>2015-06-20T05:16:37Z</time>
      </trkpt>
      <trkpt lat="45.08855" lon="5.88775">
        <ele>1072</ele>
        <time>2015-06-20T05:16:39Z</time>
      </trkpt>
      <trkpt lat="45.08856" lon="5.88773">
        <ele>1072</ele>
        <time>2015-06-20T05:16:43Z</time>
      </trkpt>
      <trkpt lat="45.08858" lon="5.88774">
        <ele>1072</ele>
        <time>2015-06-20T05:16:46Z</time>
      </trkpt>
      <trkpt lat="45.0886" lon="5.88773">
        <ele>1072</ele>
        <time>2015-06-20T05:16:48Z</time>
      </trkpt>
      <trkpt lat="45.08862" lon="5.88771">
        <ele>1076</ele>
        <time>2015-06-20T05:16:50Z</time>
      </trkpt>
      <trkpt lat="45.08864" lon="5.8877">
        <ele>1076</ele>
        <time>2015-06-20T05:16:52Z</time>
      </trkpt>
      <trkpt lat="45.08866" lon="5.88768">
        <ele>1079</ele>
        <time>2015-06-20T05:16:54Z</time>
      </trkpt>
      <trkpt lat="45.08869" lon="5.88767">
        <ele>1079</ele>
        <time>2015-06-20T05:16:58Z</time>
      </trkpt>
      <trkpt lat="45.08871" lon="5.88764">
        <ele>1081</ele>
        <time>2015-06-20T05:17:01Z</time>
      </trkpt>
      <trkpt lat="45.08873" lon="5.88762">
        <ele>1081</ele>
        <time>2015-06-20T05:17:03Z</time>
      </trkpt>
      <trkpt lat="45.08875" lon="5.8876">
        <ele>1083</ele>
        <time>2015-06-20T05:17:05Z</time>
      </trkpt>
      <trkpt lat="45.08877" lon="5.88762">
        <ele>1083</ele>
        <time>2015-06-20T05:17:07Z</time>
      </trkpt>
      <trkpt lat="45.0888" lon="5.88762">
        <ele>1083</ele>
        <time>2015-06-20T05:17:10Z</time>
      </trkpt>
      <trkpt lat="45.08883" lon="5.88763">
        <ele>1083</ele>
        <time>2015-06-20T05:17:12Z</time>
      </trkpt>
      <trkpt lat="45.08885" lon="5.88765">
        <ele>1083</ele>
        <time>2015-06-20T05:17:15Z</time>
      </trkpt>
      <trkpt lat="45.08887" lon="5.88765">
        <ele>1083</ele>
        <time>2015-06-20T05:17:16Z</time>
      </trkpt>
      <trkpt lat="45.0889" lon="5.88763">
        <ele>1083</ele>
        <time>2015-06-20T05:17:17Z</time>
      </trkpt>
      <trkpt lat="45.08893" lon="5.88761">
        <ele>1083</ele>
        <time>2015-06-20T05:17:19Z</time>
      </trkpt>
      <trkpt lat="45.08895" lon="5.88761">
        <ele>1085</ele>
        <time>2015-06-20T05:17:21Z</time>
      </trkpt>
      <trkpt lat="45.08897" lon="5.88759">
        <ele>1085</ele>
        <time>2015-06-20T05:17:23Z</time>
      </trkpt>
      <trkpt lat="45.08897" lon="5.88756">
        <ele>1085</ele>
        <time>2015-06-20T05:17:28Z</time>
      </trkpt>
      <trkpt lat="45.08894" lon="5.88754">
        <ele>1087</ele>
        <time>2015-06-20T05:17:32Z</time>
      </trkpt>
      <trkpt lat="45.08892" lon="5.88751">
        <ele>1087</ele>
        <time>2015-06-20T05:17:34Z</time>
      </trkpt>
      <trkpt lat="45.08892" lon="5.88748">
        <ele>1087</ele>
        <time>2015-06-20T05:17:37Z</time>
      </trkpt>
      <trkpt lat="45.08893" lon="5.88745">
        <ele>1092</ele>
        <time>2015-06-20T05:17:40Z</time>
      </trkpt>
      <trkpt lat="45.08891" lon="5.88744">
        <ele>1095</ele>
        <time>2015-06-20T05:17:47Z</time>
      </trkpt>
      <trkpt lat="45.0889" lon="5.88741">
        <ele>1096</ele>
        <time>2015-06-20T05:17:50Z</time>
      </trkpt>
      <trkpt lat="45.08891" lon="5.88738">
        <ele>1096</ele>
        <time>2015-06-20T05:17:52Z</time>
      </trkpt>
      <trkpt lat="45.08891" lon="5.88735">
        <ele>1098</ele>
        <time>2015-06-20T05:17:56Z</time>
      </trkpt>
      <trkpt lat="45.08888" lon="5.88735">
        <ele>1099</ele>
        <time>2015-06-20T05:18:00Z</time>
      </trkpt>
      <trkpt lat="45.08886" lon="5.88735">
        <ele>1099</ele>
        <time>2015-06-20T05:18:02Z</time>
      </trkpt>
      <trkpt lat="45.08883" lon="5.88735">
        <ele>1101</ele>
        <time>2015-06-20T05:18:05Z</time>
      </trkpt>
      <trkpt lat="45.08881" lon="5.88734">
        <ele>1101</ele>
        <time>2015-06-20T05:18:07Z</time>
      </trkpt>
      <trkpt lat="45.08879" lon="5.88733">
        <ele>1101</ele>
        <time>2015-06-20T05:18:10Z</time>
      </trkpt>
      <trkpt lat="45.08877" lon="5.88731">
        <ele>1103</ele>
        <time>2015-06-20T05:18:13Z</time>
      </trkpt>
      <trkpt lat="45.08875" lon="5.88731">
        <ele>1104</ele>
        <time>2015-06-20T05:18:15Z</time>
      </trkpt>
      <trkpt lat="45.08875" lon="5.88728">
        <ele>1104</ele>
        <time>2015-06-20T05:18:18Z</time>
      </trkpt>
      <trkpt lat="45.08875" lon="5.88725">
        <ele>1105</ele>
        <time>2015-06-20T05:18:20Z</time>
      </trkpt>
      <trkpt lat="45.08874" lon="5.88723">
        <ele>1105</ele>
        <time>2015-06-20T05:18:23Z</time>
      </trkpt>
      <trkpt lat="45.08872" lon="5.88722">
        <ele>1105</ele>
        <time>2015-06-20T05:18:27Z</time>
      </trkpt>
      <trkpt lat="45.0887" lon="5.88721">
        <ele>1109</ele>
        <time>2015-06-20T05:18:30Z</time>
      </trkpt>
      <trkpt lat="45.08869" lon="5.88719">
        <ele>1109</ele>
        <time>2015-06-20T05:18:33Z</time>
      </trkpt>
      <trkpt lat="45.08867" lon="5.88717">
        <ele>1109</ele>
        <time>2015-06-20T05:18:35Z</time>
      </trkpt>
      <trkpt lat="45.08866" lon="5.88714">
        <ele>1113</ele>
        <time>2015-06-20T05:18:39Z</time>
      </trkpt>
      <trkpt lat="45.08866" lon="5.88712">
        <ele>1113</ele>
        <time>2015-06-20T05:18:42Z</time>
      </trkpt>
      <trkpt lat="45.08867" lon="5.8871">
        <ele>1114</ele>
        <time>2015-06-20T05:18:48Z</time>
      </trkpt>
      <trkpt lat="45.08868" lon="5.88707">
        <ele>1116</ele>
        <time>2015-06-20T05:18:50Z</time>
      </trkpt>
      <trkpt lat="45.08869" lon="5.88705">
        <ele>1116</ele>
        <time>2015-06-20T05:18:53Z</time>
      </trkpt>
      <trkpt lat="45.08868" lon="5.88698">
        <ele>1119</ele>
        <time>2015-06-20T05:19:03Z</time>
      </trkpt>
      <trkpt lat="45.08868" lon="5.88695">
        <ele>1121</ele>
        <time>2015-06-20T05:19:06Z</time>
      </trkpt>
      <trkpt lat="45.08868" lon="5.88693">
        <ele>1122</ele>
        <time>2015-06-20T05:19:11Z</time>
      </trkpt>
      <trkpt lat="45.08866" lon="5.88687">
        <ele>1125</ele>
        <time>2015-06-20T05:19:17Z</time>
      </trkpt>
      <trkpt lat="45.08864" lon="5.88683">
        <ele>1127</ele>
        <time>2015-06-20T05:19:19Z</time>
      </trkpt>
      <trkpt lat="45.08863" lon="5.88681">
        <ele>1127</ele>
        <time>2015-06-20T05:19:24Z</time>
      </trkpt>
      <trkpt lat="45.08863" lon="5.88677">
        <ele>1127</ele>
        <time>2015-06-20T05:19:27Z</time>
      </trkpt>
      <trkpt lat="45.08864" lon="5.88674">
        <ele>1129</ele>
        <time>2015-06-20T05:19:30Z</time>
      </trkpt>
      <trkpt lat="45.08864" lon="5.8867">
        <ele>1129</ele>
        <time>2015-06-20T05:19:32Z</time>
      </trkpt>
      <trkpt lat="45.08864" lon="5.88667">
        <ele>1129</ele>
        <time>2015-06-20T05:19:34Z</time>
      </trkpt>
      <trkpt lat="45.08865" lon="5.88665">
        <ele>1129</ele>
        <time>2015-06-20T05:19:36Z</time>
      </trkpt>
      <trkpt lat="45.08864" lon="5.88662">
        <ele>1129</ele>
        <time>2015-06-20T05:19:38Z</time>
      </trkpt>
      <trkpt lat="45.08863" lon="5.88658">
        <ele>1131</ele>
        <time>2015-06-20T05:19:40Z</time>
      </trkpt>
      <trkpt lat="45.08864" lon="5.88656">
        <ele>1131</ele>
        <time>2015-06-20T05:19:42Z</time>
      </trkpt>
      <trkpt lat="45.08866" lon="5.88654">
        <ele>1134</ele>
        <time>2015-06-20T05:19:44Z</time>
      </trkpt>
      <trkpt lat="45.08867" lon="5.88652">
        <ele>1134</ele>
        <time>2015-06-20T05:19:46Z</time>
      </trkpt>
      <trkpt lat="45.0887" lon="5.88652">
        <ele>1134</ele>
        <time>2015-06-20T05:19:48Z</time>
      </trkpt>
      <trkpt lat="45.08872" lon="5.88652">
        <ele>1136</ele>
        <time>2015-06-20T05:19:50Z</time>
      </trkpt>
      <trkpt lat="45.08874" lon="5.88652">
        <ele>1136</ele>
        <time>2015-06-20T05:19:52Z</time>
      </trkpt>
      <trkpt lat="45.08877" lon="5.88653">
        <ele>1137</ele>
        <time>2015-06-20T05:19:54Z</time>
      </trkpt>
      <trkpt lat="45.08879" lon="5.88656">
        <ele>1137</ele>
        <time>2015-06-20T05:19:56Z</time>
      </trkpt>
      <trkpt lat="45.08881" lon="5.88658">
        <ele>1137</ele>
        <time>2015-06-20T05:19:58Z</time>
      </trkpt>
      <trkpt lat="45.08883" lon="5.88659">
        <ele>1139</ele>
        <time>2015-06-20T05:20:00Z</time>
      </trkpt>
      <trkpt lat="45.08882" lon="5.88656">
        <ele>1139</ele>
        <time>2015-06-20T05:20:09Z</time>
      </trkpt>
      <trkpt lat="45.0888" lon="5.88653">
        <ele>1141</ele>
        <time>2015-06-20T05:20:11Z</time>
      </trkpt>
      <trkpt lat="45.08879" lon="5.88651">
        <ele>1141</ele>
        <time>2015-06-20T05:20:13Z</time>
      </trkpt>
      <trkpt lat="45.08877" lon="5.8865">
        <ele>1141</ele>
        <time>2015-06-20T05:20:17Z</time>
      </trkpt>
      <trkpt lat="45.08875" lon="5.88648">
        <ele>1143</ele>
        <time>2015-06-20T05:20:20Z</time>
      </trkpt>
      <trkpt lat="45.08875" lon="5.88645">
        <ele>1143</ele>
        <time>2015-06-20T05:20:23Z</time>
      </trkpt>
      <trkpt lat="45.08873" lon="5.88641">
        <ele>1143</ele>
        <time>2015-06-20T05:20:26Z</time>
      </trkpt>
      <trkpt lat="45.08872" lon="5.88638">
        <ele>1146</ele>
        <time>2015-06-20T05:20:30Z</time>
      </trkpt>
      <trkpt lat="45.08872" lon="5.88634">
        <ele>1146</ele>
        <time>2015-06-20T05:20:32Z</time>
      </trkpt>
      <trkpt lat="45.08873" lon="5.88631">
        <ele>1146</ele>
        <time>2015-06-20T05:20:33Z</time>
      </trkpt>
      <trkpt lat="45.08871" lon="5.88625">
        <ele>1149</ele>
        <time>2015-06-20T05:20:35Z</time>
      </trkpt>
      <trkpt lat="45.08874" lon="5.88624">
        <ele>1149</ele>
        <time>2015-06-20T05:20:38Z</time>
      </trkpt>
      <trkpt lat="45.08877" lon="5.88625">
        <ele>1149</ele>
        <time>2015-06-20T05:20:43Z</time>
      </trkpt>
      <trkpt lat="45.08879" lon="5.88627">
        <ele>1151</ele>
        <time>2015-06-20T05:20:44Z</time>
      </trkpt>
      <trkpt lat="45.08881" lon="5.88626">
        <ele>1154</ele>
        <time>2015-06-20T05:20:50Z</time>
      </trkpt>
      <trkpt lat="45.08884" lon="5.88627">
        <ele>1154</ele>
        <time>2015-06-20T05:20:52Z</time>
      </trkpt>
      <trkpt lat="45.08885" lon="5.88629">
        <ele>1154</ele>
        <time>2015-06-20T05:20:54Z</time>
      </trkpt>
      <trkpt lat="45.08886" lon="5.88631">
        <ele>1156</ele>
        <time>2015-06-20T05:20:56Z</time>
      </trkpt>
      <trkpt lat="45.08888" lon="5.88632">
        <ele>1156</ele>
        <time>2015-06-20T05:20:58Z</time>
      </trkpt>
      <trkpt lat="45.08891" lon="5.88634">
        <ele>1158</ele>
        <time>2015-06-20T05:21:01Z</time>
      </trkpt>
      <trkpt lat="45.08893" lon="5.88634">
        <ele>1158</ele>
        <time>2015-06-20T05:21:03Z</time>
      </trkpt>
      <trkpt lat="45.08894" lon="5.88636">
        <ele>1160</ele>
        <time>2015-06-20T05:21:04Z</time>
      </trkpt>
      <trkpt lat="45.08897" lon="5.88638">
        <ele>1160</ele>
        <time>2015-06-20T05:21:05Z</time>
      </trkpt>
      <trkpt lat="45.08899" lon="5.88637">
        <ele>1161</ele>
        <time>2015-06-20T05:21:08Z</time>
      </trkpt>
      <trkpt lat="45.08901" lon="5.88638">
        <ele>1161</ele>
        <time>2015-06-20T05:21:10Z</time>
      </trkpt>
      <trkpt lat="45.08903" lon="5.88639">
        <ele>1163</ele>
        <time>2015-06-20T05:21:14Z</time>
      </trkpt>
      <trkpt lat="45.08904" lon="5.88642">
        <ele>1163</ele>
        <time>2015-06-20T05:21:16Z</time>
      </trkpt>
      <trkpt lat="45.08907" lon="5.88642">
        <ele>1164</ele>
        <time>2015-06-20T05:21:19Z</time>
      </trkpt>
      <trkpt lat="45.08908" lon="5.88647">
        <ele>1164</ele>
        <time>2015-06-20T05:21:21Z</time>
      </trkpt>
      <trkpt lat="45.08911" lon="5.88647">
        <ele>1164</ele>
        <time>2015-06-20T05:21:23Z</time>
      </trkpt>
      <trkpt lat="45.08913" lon="5.88648">
        <ele>1164</ele>
        <time>2015-06-20T05:21:26Z</time>
      </trkpt>
      <trkpt lat="45.08915" lon="5.88648">
        <ele>1165</ele>
        <time>2015-06-20T05:21:29Z</time>
      </trkpt>
      <trkpt lat="45.08916" lon="5.88651">
        <ele>1165</ele>
        <time>2015-06-20T05:21:31Z</time>
      </trkpt>
      <trkpt lat="45.08918" lon="5.88652">
        <ele>1165</ele>
        <time>2015-06-20T05:21:33Z</time>
      </trkpt>
      <trkpt lat="45.0892" lon="5.88653">
        <ele>1168</ele>
        <time>2015-06-20T05:21:36Z</time>
      </trkpt>
      <trkpt lat="45.08921" lon="5.88651">
        <ele>1170</ele>
        <time>2015-06-20T05:21:39Z</time>
      </trkpt>
      <trkpt lat="45.0892" lon="5.8865">
        <ele>1170</ele>
        <time>2015-06-20T05:21:41Z</time>
      </trkpt>
      <trkpt lat="45.08918" lon="5.88648">
        <ele>1170</ele>
        <time>2015-06-20T05:21:43Z</time>
      </trkpt>
      <trkpt lat="45.08917" lon="5.88646">
        <ele>1174</ele>
        <time>2015-06-20T05:21:50Z</time>
      </trkpt>
      <trkpt lat="45.08916" lon="5.88643">
        <ele>1174</ele>
        <time>2015-06-20T05:21:53Z</time>
      </trkpt>
      <trkpt lat="45.08916" lon="5.8864">
        <ele>1176</ele>
        <time>2015-06-20T05:21:58Z</time>
      </trkpt>
      <trkpt lat="45.08916" lon="5.88638">
        <ele>1177</ele>
        <time>2015-06-20T05:22:00Z</time>
      </trkpt>
      <trkpt lat="45.08919" lon="5.88637">
        <ele>1178</ele>
        <time>2015-06-20T05:22:05Z</time>
      </trkpt>
      <trkpt lat="45.0892" lon="5.88637">
        <ele>1180</ele>
        <time>2015-06-20T05:22:09Z</time>
      </trkpt>
      <trkpt lat="45.08923" lon="5.88636">
        <ele>1182</ele>
        <time>2015-06-20T05:22:14Z</time>
      </trkpt>
      <trkpt lat="45.08923" lon="5.88633">
        <ele>1182</ele>
        <time>2015-06-20T05:22:16Z</time>
      </trkpt>
      <trkpt lat="45.08924" lon="5.8863">
        <ele>1184</ele>
        <time>2015-06-20T05:22:20Z</time>
      </trkpt>
      <trkpt lat="45.08924" lon="5.88626">
        <ele>1184</ele>
        <time>2015-06-20T05:22:23Z</time>
      </trkpt>
      <trkpt lat="45.08923" lon="5.88624">
        <ele>1186</ele>
        <time>2015-06-20T05:22:27Z</time>
      </trkpt>
      <trkpt lat="45.08923" lon="5.8862">
        <ele>1189</ele>
        <time>2015-06-20T05:22:34Z</time>
      </trkpt>
      <trkpt lat="45.08923" lon="5.88617">
        <ele>1189</ele>
        <time>2015-06-20T05:22:37Z</time>
      </trkpt>
      <trkpt lat="45.08921" lon="5.88615">
        <ele>1191</ele>
        <time>2015-06-20T05:22:41Z</time>
      </trkpt>
      <trkpt lat="45.0892" lon="5.88612">
        <ele>1191</ele>
        <time>2015-06-20T05:22:43Z</time>
      </trkpt>
      <trkpt lat="45.08921" lon="5.8861">
        <ele>1193</ele>
        <time>2015-06-20T05:22:46Z</time>
      </trkpt>
      <trkpt lat="45.08921" lon="5.88608">
        <ele>1193</ele>
        <time>2015-06-20T05:22:49Z</time>
      </trkpt>
      <trkpt lat="45.08922" lon="5.88602">
        <ele>1198</ele>
        <time>2015-06-20T05:23:00Z</time>
      </trkpt>
      <trkpt lat="45.08922" lon="5.88599">
        <ele>1198</ele>
        <time>2015-06-20T05:23:02Z</time>
      </trkpt>
      <trkpt lat="45.08924" lon="5.88599">
        <ele>1199</ele>
        <time>2015-06-20T05:23:05Z</time>
      </trkpt>
      <trkpt lat="45.08926" lon="5.88599">
        <ele>1199</ele>
        <time>2015-06-20T05:23:07Z</time>
      </trkpt>
      <trkpt lat="45.08928" lon="5.886">
        <ele>1201</ele>
        <time>2015-06-20T05:23:09Z</time>
      </trkpt>
      <trkpt lat="45.0893" lon="5.886">
        <ele>1201</ele>
        <time>2015-06-20T05:23:11Z</time>
      </trkpt>
      <trkpt lat="45.08932" lon="5.886">
        <ele>1202</ele>
        <time>2015-06-20T05:23:14Z</time>
      </trkpt>
      <trkpt lat="45.08934" lon="5.88599">
        <ele>1202</ele>
        <time>2015-06-20T05:23:18Z</time>
      </trkpt>
      <trkpt lat="45.08936" lon="5.88599">
        <ele>1204</ele>
        <time>2015-06-20T05:23:21Z</time>
      </trkpt>
      <trkpt lat="45.08936" lon="5.88596">
        <ele>1206</ele>
        <time>2015-06-20T05:23:24Z</time>
      </trkpt>
      <trkpt lat="45.08938" lon="5.88595">
        <ele>1206</ele>
        <time>2015-06-20T05:23:28Z</time>
      </trkpt>
      <trkpt lat="45.08939" lon="5.88592">
        <ele>1207</ele>
        <time>2015-06-20T05:23:30Z</time>
      </trkpt>
      <trkpt lat="45.08941" lon="5.88592">
        <ele>1207</ele>
        <time>2015-06-20T05:23:33Z</time>
      </trkpt>
      <trkpt lat="45.08943" lon="5.88591">
        <ele>1208</ele>
        <time>2015-06-20T05:23:36Z</time>
      </trkpt>
      <trkpt lat="45.08945" lon="5.8859">
        <ele>1208</ele>
        <time>2015-06-20T05:23:39Z</time>
      </trkpt>
      <trkpt lat="45.08947" lon="5.88588">
        <ele>1210</ele>
        <time>2015-06-20T05:23:43Z</time>
      </trkpt>
      <trkpt lat="45.08947" lon="5.88585">
        <ele>1211</ele>
        <time>2015-06-20T05:23:48Z</time>
      </trkpt>
      <trkpt lat="45.08944" lon="5.8858">
        <ele>1215</ele>
        <time>2015-06-20T05:23:57Z</time>
      </trkpt>
      <trkpt lat="45.08944" lon="5.88577">
        <ele>1217</ele>
        <time>2015-06-20T05:24:00Z</time>
      </trkpt>
      <trkpt lat="45.08941" lon="5.88574">
        <ele>1219</ele>
        <time>2015-06-20T05:24:06Z</time>
      </trkpt>
      <trkpt lat="45.08939" lon="5.88575">
        <ele>1221</ele>
        <time>2015-06-20T05:24:12Z</time>
      </trkpt>
      <trkpt lat="45.08937" lon="5.88573">
        <ele>1222</ele>
        <time>2015-06-20T05:24:15Z</time>
      </trkpt>
      <trkpt lat="45.08936" lon="5.8857">
        <ele>1222</ele>
        <time>2015-06-20T05:24:18Z</time>
      </trkpt>
      <trkpt lat="45.08933" lon="5.88568">
        <ele>1224</ele>
        <time>2015-06-20T05:24:21Z</time>
      </trkpt>
      <trkpt lat="45.08932" lon="5.88564">
        <ele>1224</ele>
        <time>2015-06-20T05:24:24Z</time>
      </trkpt>
      <trkpt lat="45.0893" lon="5.88562">
        <ele>1225</ele>
        <time>2015-06-20T05:24:26Z</time>
      </trkpt>
      <trkpt lat="45.08931" lon="5.88559">
        <ele>1226</ele>
        <time>2015-06-20T05:24:30Z</time>
      </trkpt>
      <trkpt lat="45.08933" lon="5.88555">
        <ele>1228</ele>
        <time>2015-06-20T05:24:37Z</time>
      </trkpt>
      <trkpt lat="45.08934" lon="5.88552">
        <ele>1230</ele>
        <time>2015-06-20T05:24:39Z</time>
      </trkpt>
      <trkpt lat="45.08936" lon="5.88551">
        <ele>1230</ele>
        <time>2015-06-20T05:24:42Z</time>
      </trkpt>
      <trkpt lat="45.08939" lon="5.88549">
        <ele>1231</ele>
        <time>2015-06-20T05:24:44Z</time>
      </trkpt>
      <trkpt lat="45.08942" lon="5.88548">
        <ele>1233</ele>
        <time>2015-06-20T05:24:49Z</time>
      </trkpt>
      <trkpt lat="45.08944" lon="5.88548">
        <ele>1233</ele>
        <time>2015-06-20T05:24:51Z</time>
      </trkpt>
      <trkpt lat="45.08946" lon="5.88546">
        <ele>1235</ele>
        <time>2015-06-20T05:24:54Z</time>
      </trkpt>
      <trkpt lat="45.08948" lon="5.88545">
        <ele>1235</ele>
        <time>2015-06-20T05:24:57Z</time>
      </trkpt>
      <trkpt lat="45.08949" lon="5.88544">
        <ele>1238</ele>
        <time>2015-06-20T05:25:00Z</time>
      </trkpt>
      <trkpt lat="45.08951" lon="5.88544">
        <ele>1238</ele>
        <time>2015-06-20T05:25:03Z</time>
      </trkpt>
      <trkpt lat="45.08953" lon="5.88542">
        <ele>1239</ele>
        <time>2015-06-20T05:25:07Z</time>
      </trkpt>
      <trkpt lat="45.08953" lon="5.88539">
        <ele>1240</ele>
        <time>2015-06-20T05:25:10Z</time>
      </trkpt>
      <trkpt lat="45.08952" lon="5.88533">
        <ele>1244</ele>
        <time>2015-06-20T05:25:19Z</time>
      </trkpt>
      <trkpt lat="45.08954" lon="5.88529">
        <ele>1245</ele>
        <time>2015-06-20T05:25:28Z</time>
      </trkpt>
      <trkpt lat="45.08956" lon="5.88527">
        <ele>1247</ele>
        <time>2015-06-20T05:25:31Z</time>
      </trkpt>
      <trkpt lat="45.08957" lon="5.88525">
        <ele>1247</ele>
        <time>2015-06-20T05:25:33Z</time>
      </trkpt>
      <trkpt lat="45.08959" lon="5.88524">
        <ele>1249</ele>
        <time>2015-06-20T05:25:36Z</time>
      </trkpt>
      <trkpt lat="45.0896" lon="5.88521">
        <ele>1249</ele>
        <time>2015-06-20T05:25:38Z</time>
      </trkpt>
      <trkpt lat="45.08962" lon="5.88518">
        <ele>1252</ele>
        <time>2015-06-20T05:25:46Z</time>
      </trkpt>
      <trkpt lat="45.08959" lon="5.88517">
        <ele>1252</ele>
        <time>2015-06-20T05:25:49Z</time>
      </trkpt>
      <trkpt lat="45.08957" lon="5.88516">
        <ele>1254</ele>
        <time>2015-06-20T05:25:51Z</time>
      </trkpt>
      <trkpt lat="45.08956" lon="5.88517">
        <ele>1254</ele>
        <time>2015-06-20T05:25:53Z</time>
      </trkpt>
      <trkpt lat="45.08954" lon="5.88519">
        <ele>1255</ele>
        <time>2015-06-20T05:25:57Z</time>
      </trkpt>
      <trkpt lat="45.08952" lon="5.88519">
        <ele>1256</ele>
        <time>2015-06-20T05:26:03Z</time>
      </trkpt>
      <trkpt lat="45.0895" lon="5.88519">
        <ele>1258</ele>
        <time>2015-06-20T05:26:07Z</time>
      </trkpt>
      <trkpt lat="45.08948" lon="5.8852">
        <ele>1259</ele>
        <time>2015-06-20T05:26:12Z</time>
      </trkpt>
      <trkpt lat="45.08947" lon="5.88515">
        <ele>1261</ele>
        <time>2015-06-20T05:26:17Z</time>
      </trkpt>
      <trkpt lat="45.08945" lon="5.88514">
        <ele>1263</ele>
        <time>2015-06-20T05:26:20Z</time>
      </trkpt>
      <trkpt lat="45.08944" lon="5.88512">
        <ele>1263</ele>
        <time>2015-06-20T05:26:22Z</time>
      </trkpt>
      <trkpt lat="45.08945" lon="5.88509">
        <ele>1264</ele>
        <time>2015-06-20T05:26:26Z</time>
      </trkpt>
      <trkpt lat="45.08943" lon="5.88506">
        <ele>1266</ele>
        <time>2015-06-20T05:26:32Z</time>
      </trkpt>
      <trkpt lat="45.08943" lon="5.88502">
        <ele>1268</ele>
        <time>2015-06-20T05:26:35Z</time>
      </trkpt>
      <trkpt lat="45.08945" lon="5.88502">
        <ele>1268</ele>
        <time>2015-06-20T05:26:37Z</time>
      </trkpt>
      <trkpt lat="45.08945" lon="5.88499">
        <ele>1269</ele>
        <time>2015-06-20T05:26:41Z</time>
      </trkpt>
      <trkpt lat="45.08943" lon="5.88499">
        <ele>1271</ele>
        <time>2015-06-20T05:26:44Z</time>
      </trkpt>
      <trkpt lat="45.08941" lon="5.88499">
        <ele>1271</ele>
        <time>2015-06-20T05:26:48Z</time>
      </trkpt>
      <trkpt lat="45.08939" lon="5.88499">
        <ele>1272</ele>
        <time>2015-06-20T05:26:53Z</time>
      </trkpt>
      <trkpt lat="45.08937" lon="5.88498">
        <ele>1272</ele>
        <time>2015-06-20T05:26:57Z</time>
      </trkpt>
      <trkpt lat="45.08935" lon="5.88496">
        <ele>1276</ele>
        <time>2015-06-20T05:27:00Z</time>
      </trkpt>
      <trkpt lat="45.08934" lon="5.88492">
        <ele>1276</ele>
        <time>2015-06-20T05:27:03Z</time>
      </trkpt>
      <trkpt lat="45.08933" lon="5.8849">
        <ele>1276</ele>
        <time>2015-06-20T05:27:08Z</time>
      </trkpt>
      <trkpt lat="45.08931" lon="5.88487">
        <ele>1276</ele>
        <time>2015-06-20T05:27:14Z</time>
      </trkpt>
      <trkpt lat="45.0893" lon="5.88484">
        <ele>1281</ele>
        <time>2015-06-20T05:27:16Z</time>
      </trkpt>
      <trkpt lat="45.08929" lon="5.88481">
        <ele>1283</ele>
        <time>2015-06-20T05:27:19Z</time>
      </trkpt>
      <trkpt lat="45.08927" lon="5.88478">
        <ele>1283</ele>
        <time>2015-06-20T05:27:21Z</time>
      </trkpt>
      <trkpt lat="45.08925" lon="5.88478">
        <ele>1284</ele>
        <time>2015-06-20T05:27:24Z</time>
      </trkpt>
      <trkpt lat="45.08923" lon="5.88476">
        <ele>1284</ele>
        <time>2015-06-20T05:27:27Z</time>
      </trkpt>
      <trkpt lat="45.08924" lon="5.88473">
        <ele>1286</ele>
        <time>2015-06-20T05:27:29Z</time>
      </trkpt>
      <trkpt lat="45.08924" lon="5.8847">
        <ele>1286</ele>
        <time>2015-06-20T05:27:33Z</time>
      </trkpt>
      <trkpt lat="45.08925" lon="5.88468">
        <ele>1287</ele>
        <time>2015-06-20T05:27:35Z</time>
      </trkpt>
      <trkpt lat="45.08927" lon="5.88466">
        <ele>1287</ele>
        <time>2015-06-20T05:27:37Z</time>
      </trkpt>
      <trkpt lat="45.08925" lon="5.88465">
        <ele>1290</ele>
        <time>2015-06-20T05:27:45Z</time>
      </trkpt>
      <trkpt lat="45.08923" lon="5.88464">
        <ele>1290</ele>
        <time>2015-06-20T05:27:48Z</time>
      </trkpt>
      <trkpt lat="45.08922" lon="5.88462">
        <ele>1292</ele>
        <time>2015-06-20T05:27:51Z</time>
      </trkpt>
      <trkpt lat="45.0892" lon="5.88462">
        <ele>1292</ele>
        <time>2015-06-20T05:27:53Z</time>
      </trkpt>
      <trkpt lat="45.08917" lon="5.88461">
        <ele>1294</ele>
        <time>2015-06-20T05:27:57Z</time>
      </trkpt>
      <trkpt lat="45.08916" lon="5.88458">
        <ele>1296</ele>
        <time>2015-06-20T05:28:00Z</time>
      </trkpt>
      <trkpt lat="45.08914" lon="5.88459">
        <ele>1296</ele>
        <time>2015-06-20T05:28:05Z</time>
      </trkpt>
      <trkpt lat="45.08911" lon="5.88457">
        <ele>1298</ele>
        <time>2015-06-20T05:28:08Z</time>
      </trkpt>
      <trkpt lat="45.08912" lon="5.88454">
        <ele>1298</ele>
        <time>2015-06-20T05:28:12Z</time>
      </trkpt>
      <trkpt lat="45.08913" lon="5.88451">
        <ele>1300</ele>
        <time>2015-06-20T05:28:15Z</time>
      </trkpt>
      <trkpt lat="45.08913" lon="5.88449">
        <ele>1300</ele>
        <time>2015-06-20T05:28:17Z</time>
      </trkpt>
      <trkpt lat="45.08913" lon="5.88446">
        <ele>1300</ele>
        <time>2015-06-20T05:28:19Z</time>
      </trkpt>
      <trkpt lat="45.08913" lon="5.88443">
        <ele>1300</ele>
        <time>2015-06-20T05:28:24Z</time>
      </trkpt>
      <trkpt lat="45.08911" lon="5.88441">
        <ele>1302</ele>
        <time>2015-06-20T05:28:27Z</time>
      </trkpt>
      <trkpt lat="45.0891" lon="5.88439">
        <ele>1304</ele>
        <time>2015-06-20T05:28:31Z</time>
      </trkpt>
      <trkpt lat="45.08908" lon="5.88437">
        <ele>1306</ele>
        <time>2015-06-20T05:28:34Z</time>
      </trkpt>
      <trkpt lat="45.08907" lon="5.88435">
        <ele>1306</ele>
        <time>2015-06-20T05:28:37Z</time>
      </trkpt>
      <trkpt lat="45.08906" lon="5.88432">
        <ele>1307</ele>
        <time>2015-06-20T05:28:42Z</time>
      </trkpt>
      <trkpt lat="45.08906" lon="5.88429">
        <ele>1309</ele>
        <time>2015-06-20T05:28:46Z</time>
      </trkpt>
      <trkpt lat="45.08907" lon="5.88427">
        <ele>1309</ele>
        <time>2015-06-20T05:28:48Z</time>
      </trkpt>
      <trkpt lat="45.08909" lon="5.88426">
        <ele>1310</ele>
        <time>2015-06-20T05:28:51Z</time>
      </trkpt>
      <trkpt lat="45.08911" lon="5.88425">
        <ele>1312</ele>
        <time>2015-06-20T05:28:55Z</time>
      </trkpt>
      <trkpt lat="45.08913" lon="5.88423">
        <ele>1314</ele>
        <time>2015-06-20T05:28:59Z</time>
      </trkpt>
      <trkpt lat="45.08914" lon="5.8842">
        <ele>1314</ele>
        <time>2015-06-20T05:29:02Z</time>
      </trkpt>
      <trkpt lat="45.08916" lon="5.88418">
        <ele>1315</ele>
        <time>2015-06-20T05:29:06Z</time>
      </trkpt>
      <trkpt lat="45.08919" lon="5.88417">
        <ele>1317</ele>
        <time>2015-06-20T05:29:10Z</time>
      </trkpt>
      <trkpt lat="45.08918" lon="5.88413">
        <ele>1319</ele>
        <time>2015-06-20T05:29:14Z</time>
      </trkpt>
      <trkpt lat="45.08918" lon="5.88411">
        <ele>1319</ele>
        <time>2015-06-20T05:29:16Z</time>
      </trkpt>
      <trkpt lat="45.08917" lon="5.88409">
        <ele>1319</ele>
        <time>2015-06-20T05:29:18Z</time>
      </trkpt>
      <trkpt lat="45.08916" lon="5.88411">
        <ele>1319</ele>
        <time>2015-06-20T05:29:20Z</time>
      </trkpt>
      <trkpt lat="45.08913" lon="5.88412">
        <ele>1321</ele>
        <time>2015-06-20T05:29:24Z</time>
      </trkpt>
      <trkpt lat="45.08912" lon="5.88411">
        <ele>1321</ele>
        <time>2015-06-20T05:29:28Z</time>
      </trkpt>
      <trkpt lat="45.0891" lon="5.88414">
        <ele>1324</ele>
        <time>2015-06-20T05:29:34Z</time>
      </trkpt>
      <trkpt lat="45.08908" lon="5.88411">
        <ele>1324</ele>
        <time>2015-06-20T05:29:38Z</time>
      </trkpt>
      <trkpt lat="45.08906" lon="5.8841">
        <ele>1327</ele>
        <time>2015-06-20T05:29:39Z</time>
      </trkpt>
      <trkpt lat="45.08904" lon="5.88409">
        <ele>1327</ele>
        <time>2015-06-20T05:29:42Z</time>
      </trkpt>
      <trkpt lat="45.08903" lon="5.88408">
        <ele>1327</ele>
        <time>2015-06-20T05:29:47Z</time>
      </trkpt>
      <trkpt lat="45.08902" lon="5.88404">
        <ele>1331</ele>
        <time>2015-06-20T05:29:50Z</time>
      </trkpt>
      <trkpt lat="45.08901" lon="5.88401">
        <ele>1331</ele>
        <time>2015-06-20T05:29:53Z</time>
      </trkpt>
      <trkpt lat="45.089" lon="5.88398">
        <ele>1332</ele>
        <time>2015-06-20T05:29:56Z</time>
      </trkpt>
      <trkpt lat="45.08901" lon="5.88396">
        <ele>1333</ele>
        <time>2015-06-20T05:29:59Z</time>
      </trkpt>
      <trkpt lat="45.08902" lon="5.88393">
        <ele>1333</ele>
        <time>2015-06-20T05:30:02Z</time>
      </trkpt>
      <trkpt lat="45.08904" lon="5.88391">
        <ele>1334</ele>
        <time>2015-06-20T05:30:07Z</time>
      </trkpt>
      <trkpt lat="45.08905" lon="5.88388">
        <ele>1336</ele>
        <time>2015-06-20T05:30:09Z</time>
      </trkpt>
      <trkpt lat="45.08906" lon="5.88387">
        <ele>1336</ele>
        <time>2015-06-20T05:30:11Z</time>
      </trkpt>
      <trkpt lat="45.08908" lon="5.88385">
        <ele>1338</ele>
        <time>2015-06-20T05:30:15Z</time>
      </trkpt>
      <trkpt lat="45.08909" lon="5.88382">
        <ele>1338</ele>
        <time>2015-06-20T05:30:18Z</time>
      </trkpt>
      <trkpt lat="45.08908" lon="5.88382">
        <ele>1341</ele>
        <time>2015-06-20T05:30:24Z</time>
      </trkpt>
      <trkpt lat="45.08905" lon="5.88381">
        <ele>1341</ele>
        <time>2015-06-20T05:30:28Z</time>
      </trkpt>
      <trkpt lat="45.08904" lon="5.88378">
        <ele>1343</ele>
        <time>2015-06-20T05:30:31Z</time>
      </trkpt>
      <trkpt lat="45.08903" lon="5.88376">
        <ele>1343</ele>
        <time>2015-06-20T05:30:33Z</time>
      </trkpt>
      <trkpt lat="45.08902" lon="5.88373">
        <ele>1343</ele>
        <time>2015-06-20T05:30:37Z</time>
      </trkpt>
      <trkpt lat="45.08901" lon="5.88369">
        <ele>1346</ele>
        <time>2015-06-20T05:30:40Z</time>
      </trkpt>
      <trkpt lat="45.08902" lon="5.88366">
        <ele>1346</ele>
        <time>2015-06-20T05:30:43Z</time>
      </trkpt>
      <trkpt lat="45.08901" lon="5.88363">
        <ele>1348</ele>
        <time>2015-06-20T05:30:46Z</time>
      </trkpt>
      <trkpt lat="45.08901" lon="5.8836">
        <ele>1349</ele>
        <time>2015-06-20T05:30:51Z</time>
      </trkpt>
      <trkpt lat="45.08903" lon="5.88357">
        <ele>1351</ele>
        <time>2015-06-20T05:30:54Z</time>
      </trkpt>
      <trkpt lat="45.08904" lon="5.88355">
        <ele>1351</ele>
        <time>2015-06-20T05:30:57Z</time>
      </trkpt>
      <trkpt lat="45.08905" lon="5.88352">
        <ele>1352</ele>
        <time>2015-06-20T05:31:02Z</time>
      </trkpt>
      <trkpt lat="45.08906" lon="5.88348">
        <ele>1354</ele>
        <time>2015-06-20T05:31:04Z</time>
      </trkpt>
      <trkpt lat="45.08906" lon="5.88346">
        <ele>1354</ele>
        <time>2015-06-20T05:31:06Z</time>
      </trkpt>
      <trkpt lat="45.08906" lon="5.88343">
        <ele>1354</ele>
        <time>2015-06-20T05:31:08Z</time>
      </trkpt>
      <trkpt lat="45.08907" lon="5.88341">
        <ele>1355</ele>
        <time>2015-06-20T05:31:10Z</time>
      </trkpt>
      <trkpt lat="45.08909" lon="5.88338">
        <ele>1357</ele>
        <time>2015-06-20T05:31:14Z</time>
      </trkpt>
      <trkpt lat="45.0891" lon="5.88336">
        <ele>1357</ele>
        <time>2015-06-20T05:31:17Z</time>
      </trkpt>
      <trkpt lat="45.08911" lon="5.88332">
        <ele>1359</ele>
        <time>2015-06-20T05:31:20Z</time>
      </trkpt>
      <trkpt lat="45.08912" lon="5.8833">
        <ele>1359</ele>
        <time>2015-06-20T05:31:23Z</time>
      </trkpt>
      <trkpt lat="45.08914" lon="5.88328">
        <ele>1361</ele>
        <time>2015-06-20T05:31:26Z</time>
      </trkpt>
      <trkpt lat="45.08914" lon="5.88325">
        <ele>1361</ele>
        <time>2015-06-20T05:31:29Z</time>
      </trkpt>
      <trkpt lat="45.08915" lon="5.88322">
        <ele>1362</ele>
        <time>2015-06-20T05:31:31Z</time>
      </trkpt>
      <trkpt lat="45.08915" lon="5.88318">
        <ele>1362</ele>
        <time>2015-06-20T05:31:33Z</time>
      </trkpt>
      <trkpt lat="45.08916" lon="5.88315">
        <ele>1364</ele>
        <time>2015-06-20T05:31:35Z</time>
      </trkpt>
      <trkpt lat="45.08917" lon="5.88312">
        <ele>1364</ele>
        <time>2015-06-20T05:31:37Z</time>
      </trkpt>
      <trkpt lat="45.08918" lon="5.88309">
        <ele>1365</ele>
        <time>2015-06-20T05:31:40Z</time>
      </trkpt>
      <trkpt lat="45.08919" lon="5.88307">
        <ele>1365</ele>
        <time>2015-06-20T05:31:43Z</time>
      </trkpt>
      <trkpt lat="45.0892" lon="5.88304">
        <ele>1365</ele>
        <time>2015-06-20T05:31:46Z</time>
      </trkpt>
      <trkpt lat="45.0892" lon="5.88302">
        <ele>1366</ele>
        <time>2015-06-20T05:31:48Z</time>
      </trkpt>
      <trkpt lat="45.08921" lon="5.88299">
        <ele>1368</ele>
        <time>2015-06-20T05:31:50Z</time>
      </trkpt>
      <trkpt lat="45.08922" lon="5.88296">
        <ele>1368</ele>
        <time>2015-06-20T05:31:53Z</time>
      </trkpt>
      <trkpt lat="45.08923" lon="5.88294">
        <ele>1370</ele>
        <time>2015-06-20T05:31:55Z</time>
      </trkpt>
      <trkpt lat="45.08924" lon="5.88291">
        <ele>1370</ele>
        <time>2015-06-20T05:31:58Z</time>
      </trkpt>
      <trkpt lat="45.08925" lon="5.88288">
        <ele>1371</ele>
        <time>2015-06-20T05:32:00Z</time>
      </trkpt>
      <trkpt lat="45.08925" lon="5.88285">
        <ele>1371</ele>
        <time>2015-06-20T05:32:02Z</time>
      </trkpt>
      <trkpt lat="45.08927" lon="5.88281">
        <ele>1373</ele>
        <time>2015-06-20T05:32:04Z</time>
      </trkpt>
      <trkpt lat="45.08929" lon="5.88278">
        <ele>1373</ele>
        <time>2015-06-20T05:32:06Z</time>
      </trkpt>
      <trkpt lat="45.0893" lon="5.88275">
        <ele>1373</ele>
        <time>2015-06-20T05:32:08Z</time>
      </trkpt>
      <trkpt lat="45.08931" lon="5.88272">
        <ele>1375</ele>
        <time>2015-06-20T05:32:10Z</time>
      </trkpt>
      <trkpt lat="45.08931" lon="5.88268">
        <ele>1375</ele>
        <time>2015-06-20T05:32:12Z</time>
      </trkpt>
      <trkpt lat="45.0893" lon="5.88264">
        <ele>1376</ele>
        <time>2015-06-20T05:32:15Z</time>
      </trkpt>
      <trkpt lat="45.0893" lon="5.8826">
        <ele>1376</ele>
        <time>2015-06-20T05:32:18Z</time>
      </trkpt>
      <trkpt lat="45.08932" lon="5.88257">
        <ele>1377</ele>
        <time>2015-06-20T05:32:21Z</time>
      </trkpt>
      <trkpt lat="45.08933" lon="5.88254">
        <ele>1379</ele>
        <time>2015-06-20T05:32:28Z</time>
      </trkpt>
      <trkpt lat="45.08935" lon="5.88252">
        <ele>1379</ele>
        <time>2015-06-20T05:32:31Z</time>
      </trkpt>
      <trkpt lat="45.08937" lon="5.88252">
        <ele>1381</ele>
        <time>2015-06-20T05:32:34Z</time>
      </trkpt>
      <trkpt lat="45.0894" lon="5.88251">
        <ele>1381</ele>
        <time>2015-06-20T05:32:37Z</time>
      </trkpt>
      <trkpt lat="45.08941" lon="5.88249">
        <ele>1383</ele>
        <time>2015-06-20T05:32:40Z</time>
      </trkpt>
      <trkpt lat="45.08943" lon="5.88248">
        <ele>1383</ele>
        <time>2015-06-20T05:32:43Z</time>
      </trkpt>
      <trkpt lat="45.08944" lon="5.88246">
        <ele>1385</ele>
        <time>2015-06-20T05:32:46Z</time>
      </trkpt>
      <trkpt lat="45.08946" lon="5.88244">
        <ele>1385</ele>
        <time>2015-06-20T05:32:48Z</time>
      </trkpt>
      <trkpt lat="45.08949" lon="5.88242">
        <ele>1387</ele>
        <time>2015-06-20T05:32:53Z</time>
      </trkpt>
      <trkpt lat="45.0895" lon="5.88243">
        <ele>1388</ele>
        <time>2015-06-20T05:32:56Z</time>
      </trkpt>
      <trkpt lat="45.08952" lon="5.88245">
        <ele>1389</ele>
        <time>2015-06-20T05:33:00Z</time>
      </trkpt>
      <trkpt lat="45.08954" lon="5.88247">
        <ele>1389</ele>
        <time>2015-06-20T05:33:03Z</time>
      </trkpt>
      <trkpt lat="45.08955" lon="5.88255">
        <ele>1394</ele>
        <time>2015-06-20T05:33:13Z</time>
      </trkpt>
      <trkpt lat="45.08954" lon="5.88258">
        <ele>1396</ele>
        <time>2015-06-20T05:33:16Z</time>
      </trkpt>
      <trkpt lat="45.08953" lon="5.8826">
        <ele>1396</ele>
        <time>2015-06-20T05:33:18Z</time>
      </trkpt>
      <trkpt lat="45.08953" lon="5.88263">
        <ele>1397</ele>
        <time>2015-06-20T05:33:20Z</time>
      </trkpt>
      <trkpt lat="45.08953" lon="5.88266">
        <ele>1397</ele>
        <time>2015-06-20T05:33:23Z</time>
      </trkpt>
      <trkpt lat="45.08957" lon="5.88269">
        <ele>1399</ele>
        <time>2015-06-20T05:33:31Z</time>
      </trkpt>
      <trkpt lat="45.08955" lon="5.8827">
        <ele>1401</ele>
        <time>2015-06-20T05:33:34Z</time>
      </trkpt>
      <trkpt lat="45.08953" lon="5.88272">
        <ele>1401</ele>
        <time>2015-06-20T05:33:37Z</time>
      </trkpt>
      <trkpt lat="45.08951" lon="5.88273">
        <ele>1403</ele>
        <time>2015-06-20T05:33:39Z</time>
      </trkpt>
      <trkpt lat="45.08951" lon="5.88276">
        <ele>1404</ele>
        <time>2015-06-20T05:33:48Z</time>
      </trkpt>
      <trkpt lat="45.08952" lon="5.88279">
        <ele>1405</ele>
        <time>2015-06-20T05:33:51Z</time>
      </trkpt>
      <trkpt lat="45.08953" lon="5.88281">
        <ele>1405</ele>
        <time>2015-06-20T05:33:53Z</time>
      </trkpt>
      <trkpt lat="45.08956" lon="5.88287">
        <ele>1409</ele>
        <time>2015-06-20T05:34:01Z</time>
      </trkpt>
      <trkpt lat="45.08957" lon="5.88289">
        <ele>1409</ele>
        <time>2015-06-20T05:34:03Z</time>
      </trkpt>
      <trkpt lat="45.0896" lon="5.88296">
        <ele>1412</ele>
        <time>2015-06-20T05:34:11Z</time>
      </trkpt>
      <trkpt lat="45.08961" lon="5.88298">
        <ele>1414</ele>
        <time>2015-06-20T05:34:15Z</time>
      </trkpt>
      <trkpt lat="45.08963" lon="5.88301">
        <ele>1414</ele>
        <time>2015-06-20T05:34:18Z</time>
      </trkpt>
      <trkpt lat="45.08965" lon="5.88302">
        <ele>1417</ele>
        <time>2015-06-20T05:34:24Z</time>
      </trkpt>
      <trkpt lat="45.08967" lon="5.88301">
        <ele>1417</ele>
        <time>2015-06-20T05:34:27Z</time>
      </trkpt>
      <trkpt lat="45.08968" lon="5.88298">
        <ele>1418</ele>
        <time>2015-06-20T05:34:30Z</time>
      </trkpt>
      <trkpt lat="45.08968" lon="5.88295">
        <ele>1418</ele>
        <time>2015-06-20T05:34:33Z</time>
      </trkpt>
      <trkpt lat="45.08969" lon="5.88293">
        <ele>1418</ele>
        <time>2015-06-20T05:34:36Z</time>
      </trkpt>
      <trkpt lat="45.08968" lon="5.88291">
        <ele>1422</ele>
        <time>2015-06-20T05:34:41Z</time>
      </trkpt>
      <trkpt lat="45.08968" lon="5.88288">
        <ele>1422</ele>
        <time>2015-06-20T05:34:43Z</time>
      </trkpt>
      <trkpt lat="45.08968" lon="5.88284">
        <ele>1424</ele>
        <time>2015-06-20T05:34:46Z</time>
      </trkpt>
      <trkpt lat="45.08968" lon="5.88282">
        <ele>1424</ele>
        <time>2015-06-20T05:34:48Z</time>
      </trkpt>
      <trkpt lat="45.08969" lon="5.88278">
        <ele>1426</ele>
        <time>2015-06-20T05:34:51Z</time>
      </trkpt>
      <trkpt lat="45.08969" lon="5.88276">
        <ele>1428</ele>
        <time>2015-06-20T05:34:55Z</time>
      </trkpt>
      <trkpt lat="45.08971" lon="5.88273">
        <ele>1428</ele>
        <time>2015-06-20T05:34:59Z</time>
      </trkpt>
      <trkpt lat="45.08971" lon="5.8827">
        <ele>1428</ele>
        <time>2015-06-20T05:35:02Z</time>
      </trkpt>
      <trkpt lat="45.08973" lon="5.88267">
        <ele>1429</ele>
        <time>2015-06-20T05:35:05Z</time>
      </trkpt>
      <trkpt lat="45.08973" lon="5.88265">
        <ele>1429</ele>
        <time>2015-06-20T05:35:07Z</time>
      </trkpt>
      <trkpt lat="45.08975" lon="5.88261">
        <ele>1429</ele>
        <time>2015-06-20T05:35:09Z</time>
      </trkpt>
      <trkpt lat="45.08977" lon="5.88257">
        <ele>1429</ele>
        <time>2015-06-20T05:35:11Z</time>
      </trkpt>
      <trkpt lat="45.08979" lon="5.88253">
        <ele>1429</ele>
        <time>2015-06-20T05:35:13Z</time>
      </trkpt>
      <trkpt lat="45.0898" lon="5.88249">
        <ele>1431</ele>
        <time>2015-06-20T05:35:15Z</time>
      </trkpt>
      <trkpt lat="45.08981" lon="5.88245">
        <ele>1431</ele>
        <time>2015-06-20T05:35:17Z</time>
      </trkpt>
      <trkpt lat="45.08982" lon="5.88242">
        <ele>1431</ele>
        <time>2015-06-20T05:35:19Z</time>
      </trkpt>
      <trkpt lat="45.08983" lon="5.88237">
        <ele>1431</ele>
        <time>2015-06-20T05:35:21Z</time>
      </trkpt>
      <trkpt lat="45.08985" lon="5.88233">
        <ele>1431</ele>
        <time>2015-06-20T05:35:23Z</time>
      </trkpt>
      <trkpt lat="45.08986" lon="5.8823">
        <ele>1434</ele>
        <time>2015-06-20T05:35:25Z</time>
      </trkpt>
      <trkpt lat="45.08987" lon="5.88227">
        <ele>1434</ele>
        <time>2015-06-20T05:35:27Z</time>
      </trkpt>
      <trkpt lat="45.08987" lon="5.88224">
        <ele>1436</ele>
        <time>2015-06-20T05:35:29Z</time>
      </trkpt>
      <trkpt lat="45.08988" lon="5.88223">
        <ele>1436</ele>
        <time>2015-06-20T05:35:31Z</time>
      </trkpt>
      <trkpt lat="45.0899" lon="5.8822">
        <ele>1436</ele>
        <time>2015-06-20T05:35:33Z</time>
      </trkpt>
      <trkpt lat="45.08992" lon="5.88217">
        <ele>1439</ele>
        <time>2015-06-20T05:35:35Z</time>
      </trkpt>
      <trkpt lat="45.08993" lon="5.88213">
        <ele>1439</ele>
        <time>2015-06-20T05:35:37Z</time>
      </trkpt>
      <trkpt lat="45.08993" lon="5.8821">
        <ele>1441</ele>
        <time>2015-06-20T05:35:39Z</time>
      </trkpt>
      <trkpt lat="45.08994" lon="5.88206">
        <ele>1441</ele>
        <time>2015-06-20T05:35:41Z</time>
      </trkpt>
      <trkpt lat="45.08995" lon="5.88204">
        <ele>1441</ele>
        <time>2015-06-20T05:35:43Z</time>
      </trkpt>
      <trkpt lat="45.08997" lon="5.88199">
        <ele>1444</ele>
        <time>2015-06-20T05:35:51Z</time>
      </trkpt>
      <trkpt lat="45.08998" lon="5.88197">
        <ele>1446</ele>
        <time>2015-06-20T05:35:54Z</time>
      </trkpt>
      <trkpt lat="45.08999" lon="5.88195">
        <ele>1446</ele>
        <time>2015-06-20T05:35:57Z</time>
      </trkpt>
      <trkpt lat="45.09001" lon="5.88195">
        <ele>1447</ele>
        <time>2015-06-20T05:35:59Z</time>
      </trkpt>
      <trkpt lat="45.09004" lon="5.88194">
        <ele>1447</ele>
        <time>2015-06-20T05:36:03Z</time>
      </trkpt>
      <trkpt lat="45.09005" lon="5.88197">
        <ele>1449</ele>
        <time>2015-06-20T05:36:08Z</time>
      </trkpt>
      <trkpt lat="45.09008" lon="5.88196">
        <ele>1450</ele>
        <time>2015-06-20T05:36:12Z</time>
      </trkpt>
      <trkpt lat="45.0901" lon="5.88196">
        <ele>1452</ele>
        <time>2015-06-20T05:36:14Z</time>
      </trkpt>
      <trkpt lat="45.09014" lon="5.88199">
        <ele>1456</ele>
        <time>2015-06-20T05:36:25Z</time>
      </trkpt>
      <trkpt lat="45.09016" lon="5.882">
        <ele>1456</ele>
        <time>2015-06-20T05:36:27Z</time>
      </trkpt>
      <trkpt lat="45.09018" lon="5.88203">
        <ele>1457</ele>
        <time>2015-06-20T05:36:31Z</time>
      </trkpt>
      <trkpt lat="45.09017" lon="5.88206">
        <ele>1457</ele>
        <time>2015-06-20T05:36:33Z</time>
      </trkpt>
      <trkpt lat="45.09017" lon="5.88209">
        <ele>1457</ele>
        <time>2015-06-20T05:36:35Z</time>
      </trkpt>
      <trkpt lat="45.09016" lon="5.88211">
        <ele>1457</ele>
        <time>2015-06-20T05:36:38Z</time>
      </trkpt>
      <trkpt lat="45.09013" lon="5.88213">
        <ele>1458</ele>
        <time>2015-06-20T05:36:41Z</time>
      </trkpt>
      <trkpt lat="45.09012" lon="5.88214">
        <ele>1458</ele>
        <time>2015-06-20T05:36:43Z</time>
      </trkpt>
      <trkpt lat="45.09011" lon="5.88216">
        <ele>1461</ele>
        <time>2015-06-20T05:36:45Z</time>
      </trkpt>
      <trkpt lat="45.0901" lon="5.8822">
        <ele>1461</ele>
        <time>2015-06-20T05:36:48Z</time>
      </trkpt>
      <trkpt lat="45.09009" lon="5.88223">
        <ele>1463</ele>
        <time>2015-06-20T05:36:51Z</time>
      </trkpt>
      <trkpt lat="45.09009" lon="5.88226">
        <ele>1463</ele>
        <time>2015-06-20T05:36:53Z</time>
      </trkpt>
      <trkpt lat="45.09008" lon="5.88228">
        <ele>1463</ele>
        <time>2015-06-20T05:36:57Z</time>
      </trkpt>
      <trkpt lat="45.09007" lon="5.8823">
        <ele>1466</ele>
        <time>2015-06-20T05:37:00Z</time>
      </trkpt>
      <trkpt lat="45.09005" lon="5.88233">
        <ele>1466</ele>
        <time>2015-06-20T05:37:05Z</time>
      </trkpt>
      <trkpt lat="45.09004" lon="5.88236">
        <ele>1466</ele>
        <time>2015-06-20T05:37:08Z</time>
      </trkpt>
      <trkpt lat="45.09006" lon="5.88237">
        <ele>1466</ele>
        <time>2015-06-20T05:37:15Z</time>
      </trkpt>
      <trkpt lat="45.09008" lon="5.8824">
        <ele>1466</ele>
        <time>2015-06-20T05:37:18Z</time>
      </trkpt>
      <trkpt lat="45.09009" lon="5.88242">
        <ele>1466</ele>
        <time>2015-06-20T05:37:20Z</time>
      </trkpt>
      <trkpt lat="45.0901" lon="5.88244">
        <ele>1466</ele>
        <time>2015-06-20T05:37:22Z</time>
      </trkpt>
      <trkpt lat="45.09012" lon="5.88243">
        <ele>1469</ele>
        <time>2015-06-20T05:37:49Z</time>
      </trkpt>
      <trkpt lat="45.09015" lon="5.88241">
        <ele>1469</ele>
        <time>2015-06-20T05:37:52Z</time>
      </trkpt>
      <trkpt lat="45.09016" lon="5.88239">
        <ele>1469</ele>
        <time>2015-06-20T05:37:54Z</time>
      </trkpt>
      <trkpt lat="45.09018" lon="5.88238">
        <ele>1472</ele>
        <time>2015-06-20T05:37:56Z</time>
      </trkpt>
      <trkpt lat="45.0902" lon="5.88236">
        <ele>1472</ele>
        <time>2015-06-20T05:37:58Z</time>
      </trkpt>
      <trkpt lat="45.09022" lon="5.88234">
        <ele>1472</ele>
        <time>2015-06-20T05:38:00Z</time>
      </trkpt>
      <trkpt lat="45.09022" lon="5.88231">
        <ele>1475</ele>
        <time>2015-06-20T05:38:02Z</time>
      </trkpt>
      <trkpt lat="45.09024" lon="5.88228">
        <ele>1476</ele>
        <time>2015-06-20T05:38:04Z</time>
      </trkpt>
      <trkpt lat="45.09025" lon="5.88225">
        <ele>1476</ele>
        <time>2015-06-20T05:38:07Z</time>
      </trkpt>
      <trkpt lat="45.09027" lon="5.88222">
        <ele>1477</ele>
        <time>2015-06-20T05:38:10Z</time>
      </trkpt>
      <trkpt lat="45.09029" lon="5.88221">
        <ele>1477</ele>
        <time>2015-06-20T05:38:13Z</time>
      </trkpt>
      <trkpt lat="45.0903" lon="5.88219">
        <ele>1478</ele>
        <time>2015-06-20T05:38:18Z</time>
      </trkpt>
      <trkpt lat="45.09032" lon="5.88221">
        <ele>1478</ele>
        <time>2015-06-20T05:38:21Z</time>
      </trkpt>
      <trkpt lat="45.09033" lon="5.88223">
        <ele>1478</ele>
        <time>2015-06-20T05:38:23Z</time>
      </trkpt>
      <trkpt lat="45.09032" lon="5.88226">
        <ele>1481</ele>
        <time>2015-06-20T05:38:26Z</time>
      </trkpt>
      <trkpt lat="45.09033" lon="5.88229">
        <ele>1481</ele>
        <time>2015-06-20T05:38:28Z</time>
      </trkpt>
      <trkpt lat="45.09035" lon="5.88231">
        <ele>1484</ele>
        <time>2015-06-20T05:38:30Z</time>
      </trkpt>
      <trkpt lat="45.09037" lon="5.88233">
        <ele>1484</ele>
        <time>2015-06-20T05:38:33Z</time>
      </trkpt>
      <trkpt lat="45.09039" lon="5.88235">
        <ele>1484</ele>
        <time>2015-06-20T05:38:35Z</time>
      </trkpt>
      <trkpt lat="45.0904" lon="5.88236">
        <ele>1484</ele>
        <time>2015-06-20T05:38:38Z</time>
      </trkpt>
      <trkpt lat="45.09041" lon="5.88234">
        <ele>1485</ele>
        <time>2015-06-20T05:38:43Z</time>
      </trkpt>
      <trkpt lat="45.09041" lon="5.88231">
        <ele>1487</ele>
        <time>2015-06-20T05:38:47Z</time>
      </trkpt>
      <trkpt lat="45.09045" lon="5.88228">
        <ele>1488</ele>
        <time>2015-06-20T05:39:05Z</time>
      </trkpt>
      <trkpt lat="45.09047" lon="5.88227">
        <ele>1488</ele>
        <time>2015-06-20T05:39:07Z</time>
      </trkpt>
      <trkpt lat="45.09048" lon="5.88226">
        <ele>1488</ele>
        <time>2015-06-20T05:39:10Z</time>
      </trkpt>
      <trkpt lat="45.09047" lon="5.88222">
        <ele>1495</ele>
        <time>2015-06-20T05:39:14Z</time>
      </trkpt>
      <trkpt lat="45.09047" lon="5.8822">
        <ele>1495</ele>
        <time>2015-06-20T05:39:16Z</time>
      </trkpt>
      <trkpt lat="45.09048" lon="5.88217">
        <ele>1496</ele>
        <time>2015-06-20T05:39:20Z</time>
      </trkpt>
      <trkpt lat="45.09047" lon="5.88214">
        <ele>1496</ele>
        <time>2015-06-20T05:39:23Z</time>
      </trkpt>
      <trkpt lat="45.09046" lon="5.88211">
        <ele>1496</ele>
        <time>2015-06-20T05:39:25Z</time>
      </trkpt>
      <trkpt lat="45.09047" lon="5.88208">
        <ele>1498</ele>
        <time>2015-06-20T05:39:28Z</time>
      </trkpt>
      <trkpt lat="45.09048" lon="5.88206">
        <ele>1501</ele>
        <time>2015-06-20T05:39:31Z</time>
      </trkpt>
      <trkpt lat="45.0905" lon="5.88206">
        <ele>1501</ele>
        <time>2015-06-20T05:39:33Z</time>
      </trkpt>
      <trkpt lat="45.09052" lon="5.88207">
        <ele>1502</ele>
        <time>2015-06-20T05:39:36Z</time>
      </trkpt>
      <trkpt lat="45.09055" lon="5.88207">
        <ele>1503</ele>
        <time>2015-06-20T05:39:40Z</time>
      </trkpt>
      <trkpt lat="45.09057" lon="5.88209">
        <ele>1503</ele>
        <time>2015-06-20T05:39:42Z</time>
      </trkpt>
      <trkpt lat="45.09059" lon="5.88207">
        <ele>1503</ele>
        <time>2015-06-20T05:39:44Z</time>
      </trkpt>
      <trkpt lat="45.0906" lon="5.88205">
        <ele>1503</ele>
        <time>2015-06-20T05:39:48Z</time>
      </trkpt>
      <trkpt lat="45.09061" lon="5.88204">
        <ele>1505</ele>
        <time>2015-06-20T05:39:50Z</time>
      </trkpt>
      <trkpt lat="45.09063" lon="5.88201">
        <ele>1505</ele>
        <time>2015-06-20T05:39:53Z</time>
      </trkpt>
      <trkpt lat="45.09065" lon="5.882">
        <ele>1505</ele>
        <time>2015-06-20T05:39:56Z</time>
      </trkpt>
      <trkpt lat="45.09068" lon="5.88197">
        <ele>1505</ele>
        <time>2015-06-20T05:39:59Z</time>
      </trkpt>
      <trkpt lat="45.09069" lon="5.88195">
        <ele>1510</ele>
        <time>2015-06-20T05:40:01Z</time>
      </trkpt>
      <trkpt lat="45.09071" lon="5.88192">
        <ele>1510</ele>
        <time>2015-06-20T05:40:03Z</time>
      </trkpt>
      <trkpt lat="45.09073" lon="5.8819">
        <ele>1511</ele>
        <time>2015-06-20T05:40:05Z</time>
      </trkpt>
      <trkpt lat="45.09075" lon="5.88188">
        <ele>1511</ele>
        <time>2015-06-20T05:40:07Z</time>
      </trkpt>
      <trkpt lat="45.09076" lon="5.88185">
        <ele>1513</ele>
        <time>2015-06-20T05:40:09Z</time>
      </trkpt>
      <trkpt lat="45.09078" lon="5.88182">
        <ele>1513</ele>
        <time>2015-06-20T05:40:11Z</time>
      </trkpt>
      <trkpt lat="45.09081" lon="5.8818">
        <ele>1513</ele>
        <time>2015-06-20T05:40:13Z</time>
      </trkpt>
      <trkpt lat="45.09084" lon="5.88179">
        <ele>1513</ele>
        <time>2015-06-20T05:40:15Z</time>
      </trkpt>
      <trkpt lat="45.09086" lon="5.8818">
        <ele>1513</ele>
        <time>2015-06-20T05:40:16Z</time>
      </trkpt>
      <trkpt lat="45.09088" lon="5.8818">
        <ele>1513</ele>
        <time>2015-06-20T05:40:17Z</time>
      </trkpt>
      <trkpt lat="45.0909" lon="5.88179">
        <ele>1513</ele>
        <time>2015-06-20T05:40:18Z</time>
      </trkpt>
      <trkpt lat="45.09092" lon="5.88178">
        <ele>1512</ele>
        <time>2015-06-20T05:40:19Z</time>
      </trkpt>
      <trkpt lat="45.09094" lon="5.88177">
        <ele>1512</ele>
        <time>2015-06-20T05:40:20Z</time>
      </trkpt>
      <trkpt lat="45.09097" lon="5.88175">
        <ele>1512</ele>
        <time>2015-06-20T05:40:21Z</time>
      </trkpt>
      <trkpt lat="45.09099" lon="5.88172">
        <ele>1512</ele>
        <time>2015-06-20T05:40:22Z</time>
      </trkpt>
      <trkpt lat="45.09101" lon="5.8817">
        <ele>1512</ele>
        <time>2015-06-20T05:40:23Z</time>
      </trkpt>
      <trkpt lat="45.09102" lon="5.88168">
        <ele>1512</ele>
        <time>2015-06-20T05:40:24Z</time>
      </trkpt>
      <trkpt lat="45.09104" lon="5.88167">
        <ele>1512</ele>
        <time>2015-06-20T05:40:26Z</time>
      </trkpt>
      <trkpt lat="45.09107" lon="5.88165">
        <ele>1512</ele>
        <time>2015-06-20T05:40:28Z</time>
      </trkpt>
      <trkpt lat="45.09109" lon="5.88165">
        <ele>1514</ele>
        <time>2015-06-20T05:40:30Z</time>
      </trkpt>
      <trkpt lat="45.09112" lon="5.88165">
        <ele>1514</ele>
        <time>2015-06-20T05:40:32Z</time>
      </trkpt>
      <trkpt lat="45.09114" lon="5.88164">
        <ele>1514</ele>
        <time>2015-06-20T05:40:34Z</time>
      </trkpt>
      <trkpt lat="45.09116" lon="5.88162">
        <ele>1514</ele>
        <time>2015-06-20T05:40:37Z</time>
      </trkpt>
      <trkpt lat="45.09117" lon="5.8816">
        <ele>1517</ele>
        <time>2015-06-20T05:40:39Z</time>
      </trkpt>
      <trkpt lat="45.0912" lon="5.88159">
        <ele>1517</ele>
        <time>2015-06-20T05:40:42Z</time>
      </trkpt>
      <trkpt lat="45.09121" lon="5.88161">
        <ele>1517</ele>
        <time>2015-06-20T05:40:45Z</time>
      </trkpt>
      <trkpt lat="45.09124" lon="5.88161">
        <ele>1522</ele>
        <time>2015-06-20T05:40:49Z</time>
      </trkpt>
      <trkpt lat="45.09127" lon="5.88161">
        <ele>1523</ele>
        <time>2015-06-20T05:40:54Z</time>
      </trkpt>
      <trkpt lat="45.09129" lon="5.88161">
        <ele>1523</ele>
        <time>2015-06-20T05:40:57Z</time>
      </trkpt>
      <trkpt lat="45.0913" lon="5.88157">
        <ele>1525</ele>
        <time>2015-06-20T05:41:00Z</time>
      </trkpt>
      <trkpt lat="45.09131" lon="5.88154">
        <ele>1525</ele>
        <time>2015-06-20T05:41:03Z</time>
      </trkpt>
      <trkpt lat="45.0913" lon="5.88151">
        <ele>1526</ele>
        <time>2015-06-20T05:41:06Z</time>
      </trkpt>
      <trkpt lat="45.0913" lon="5.88148">
        <ele>1526</ele>
        <time>2015-06-20T05:41:08Z</time>
      </trkpt>
      <trkpt lat="45.09129" lon="5.88145">
        <ele>1528</ele>
        <time>2015-06-20T05:41:13Z</time>
      </trkpt>
      <trkpt lat="45.09128" lon="5.88142">
        <ele>1529</ele>
        <time>2015-06-20T05:41:16Z</time>
      </trkpt>
      <trkpt lat="45.09126" lon="5.88139">
        <ele>1529</ele>
        <time>2015-06-20T05:41:18Z</time>
      </trkpt>
      <trkpt lat="45.09126" lon="5.88136">
        <ele>1529</ele>
        <time>2015-06-20T05:41:23Z</time>
      </trkpt>
      <trkpt lat="45.09126" lon="5.88133">
        <ele>1533</ele>
        <time>2015-06-20T05:41:27Z</time>
      </trkpt>
      <trkpt lat="45.09127" lon="5.8813">
        <ele>1534</ele>
        <time>2015-06-20T05:41:30Z</time>
      </trkpt>
      <trkpt lat="45.09129" lon="5.88132">
        <ele>1534</ele>
        <time>2015-06-20T05:41:33Z</time>
      </trkpt>
      <trkpt lat="45.0913" lon="5.88134">
        <ele>1536</ele>
        <time>2015-06-20T05:41:36Z</time>
      </trkpt>
      <trkpt lat="45.09132" lon="5.88133">
        <ele>1538</ele>
        <time>2015-06-20T05:41:40Z</time>
      </trkpt>
      <trkpt lat="45.09134" lon="5.88134">
        <ele>1538</ele>
        <time>2015-06-20T05:41:43Z</time>
      </trkpt>
      <trkpt lat="45.09136" lon="5.88133">
        <ele>1539</ele>
        <time>2015-06-20T05:41:46Z</time>
      </trkpt>
      <trkpt lat="45.09138" lon="5.88132">
        <ele>1540</ele>
        <time>2015-06-20T05:41:49Z</time>
      </trkpt>
      <trkpt lat="45.0914" lon="5.88132">
        <ele>1540</ele>
        <time>2015-06-20T05:41:52Z</time>
      </trkpt>
      <trkpt lat="45.09141" lon="5.88128">
        <ele>1546</ele>
        <time>2015-06-20T05:41:59Z</time>
      </trkpt>
      <trkpt lat="45.0914" lon="5.88125">
        <ele>1546</ele>
        <time>2015-06-20T05:42:02Z</time>
      </trkpt>
      <trkpt lat="45.09139" lon="5.88122">
        <ele>1547</ele>
        <time>2015-06-20T05:42:05Z</time>
      </trkpt>
      <trkpt lat="45.09138" lon="5.88121">
        <ele>1548</ele>
        <time>2015-06-20T05:42:08Z</time>
      </trkpt>
      <trkpt lat="45.09137" lon="5.88118">
        <ele>1548</ele>
        <time>2015-06-20T05:42:11Z</time>
      </trkpt>
      <trkpt lat="45.09137" lon="5.88115">
        <ele>1548</ele>
        <time>2015-06-20T05:42:14Z</time>
      </trkpt>
      <trkpt lat="45.09136" lon="5.88113">
        <ele>1548</ele>
        <time>2015-06-20T05:42:18Z</time>
      </trkpt>
      <trkpt lat="45.09135" lon="5.8811">
        <ele>1550</ele>
        <time>2015-06-20T05:42:21Z</time>
      </trkpt>
      <trkpt lat="45.09134" lon="5.88106">
        <ele>1550</ele>
        <time>2015-06-20T05:42:24Z</time>
      </trkpt>
      <trkpt lat="45.09133" lon="5.88104">
        <ele>1550</ele>
        <time>2015-06-20T05:42:26Z</time>
      </trkpt>
      <trkpt lat="45.09133" lon="5.88101">
        <ele>1553</ele>
        <time>2015-06-20T05:42:29Z</time>
      </trkpt>
      <trkpt lat="45.09134" lon="5.88098">
        <ele>1554</ele>
        <time>2015-06-20T05:43:00Z</time>
      </trkpt>
      <trkpt lat="45.09136" lon="5.88099">
        <ele>1556</ele>
        <time>2015-06-20T05:44:01Z</time>
      </trkpt>
      <trkpt lat="45.09138" lon="5.881">
        <ele>1556</ele>
        <time>2015-06-20T05:44:04Z</time>
      </trkpt>
      <trkpt lat="45.0914" lon="5.88101">
        <ele>1556</ele>
        <time>2015-06-20T05:44:06Z</time>
      </trkpt>
      <trkpt lat="45.09143" lon="5.88101">
        <ele>1556</ele>
        <time>2015-06-20T05:44:08Z</time>
      </trkpt>
      <trkpt lat="45.09144" lon="5.881">
        <ele>1559</ele>
        <time>2015-06-20T05:44:10Z</time>
      </trkpt>
      <trkpt lat="45.09147" lon="5.881">
        <ele>1559</ele>
        <time>2015-06-20T05:44:12Z</time>
      </trkpt>
      <trkpt lat="45.09149" lon="5.88098">
        <ele>1559</ele>
        <time>2015-06-20T05:44:14Z</time>
      </trkpt>
      <trkpt lat="45.09152" lon="5.88098">
        <ele>1562</ele>
        <time>2015-06-20T05:44:16Z</time>
      </trkpt>
      <trkpt lat="45.09155" lon="5.88095">
        <ele>1562</ele>
        <time>2015-06-20T05:44:18Z</time>
      </trkpt>
      <trkpt lat="45.09157" lon="5.88091">
        <ele>1564</ele>
        <time>2015-06-20T05:44:20Z</time>
      </trkpt>
      <trkpt lat="45.09159" lon="5.88088">
        <ele>1564</ele>
        <time>2015-06-20T05:44:22Z</time>
      </trkpt>
      <trkpt lat="45.0916" lon="5.88085">
        <ele>1566</ele>
        <time>2015-06-20T05:44:24Z</time>
      </trkpt>
      <trkpt lat="45.09163" lon="5.88082">
        <ele>1566</ele>
        <time>2015-06-20T05:44:26Z</time>
      </trkpt>
      <trkpt lat="45.09164" lon="5.88078">
        <ele>1566</ele>
        <time>2015-06-20T05:44:28Z</time>
      </trkpt>
      <trkpt lat="45.09165" lon="5.88075">
        <ele>1569</ele>
        <time>2015-06-20T05:44:29Z</time>
      </trkpt>
      <trkpt lat="45.09166" lon="5.88071">
        <ele>1569</ele>
        <time>2015-06-20T05:44:31Z</time>
      </trkpt>
      <trkpt lat="45.09168" lon="5.88068">
        <ele>1569</ele>
        <time>2015-06-20T05:44:33Z</time>
      </trkpt>
      <trkpt lat="45.09169" lon="5.88064">
        <ele>1570</ele>
        <time>2015-06-20T05:44:35Z</time>
      </trkpt>
      <trkpt lat="45.09169" lon="5.88061">
        <ele>1570</ele>
        <time>2015-06-20T05:44:36Z</time>
      </trkpt>
      <trkpt lat="45.0917" lon="5.88059">
        <ele>1570</ele>
        <time>2015-06-20T05:44:37Z</time>
      </trkpt>
      <trkpt lat="45.09171" lon="5.88055">
        <ele>1572</ele>
        <time>2015-06-20T05:44:39Z</time>
      </trkpt>
      <trkpt lat="45.09173" lon="5.8805">
        <ele>1574</ele>
        <time>2015-06-20T05:44:41Z</time>
      </trkpt>
      <trkpt lat="45.09174" lon="5.88048">
        <ele>1574</ele>
        <time>2015-06-20T05:44:42Z</time>
      </trkpt>
      <trkpt lat="45.09175" lon="5.88046">
        <ele>1574</ele>
        <time>2015-06-20T05:44:43Z</time>
      </trkpt>
      <trkpt lat="45.09177" lon="5.88042">
        <ele>1575</ele>
        <time>2015-06-20T05:44:45Z</time>
      </trkpt>
      <trkpt lat="45.09178" lon="5.88039">
        <ele>1575</ele>
        <time>2015-06-20T05:44:46Z</time>
      </trkpt>
      <trkpt lat="45.0918" lon="5.88036">
        <ele>1575</ele>
        <time>2015-06-20T05:44:47Z</time>
      </trkpt>
      <trkpt lat="45.09181" lon="5.88033">
        <ele>1575</ele>
        <time>2015-06-20T05:44:48Z</time>
      </trkpt>
      <trkpt lat="45.09182" lon="5.8803">
        <ele>1575</ele>
        <time>2015-06-20T05:44:49Z</time>
      </trkpt>
      <trkpt lat="45.09183" lon="5.88027">
        <ele>1576</ele>
        <time>2015-06-20T05:44:50Z</time>
      </trkpt>
      <trkpt lat="45.09183" lon="5.88024">
        <ele>1576</ele>
        <time>2015-06-20T05:44:51Z</time>
      </trkpt>
      <trkpt lat="45.09184" lon="5.88022">
        <ele>1576</ele>
        <time>2015-06-20T05:44:52Z</time>
      </trkpt>
      <trkpt lat="45.09185" lon="5.88019">
        <ele>1576</ele>
        <time>2015-06-20T05:44:53Z</time>
      </trkpt>
      <trkpt lat="45.09187" lon="5.88016">
        <ele>1576</ele>
        <time>2015-06-20T05:44:55Z</time>
      </trkpt>
      <trkpt lat="45.09189" lon="5.88012">
        <ele>1576</ele>
        <time>2015-06-20T05:44:57Z</time>
      </trkpt>
      <trkpt lat="45.0919" lon="5.88009">
        <ele>1576</ele>
        <time>2015-06-20T05:44:59Z</time>
      </trkpt>
      <trkpt lat="45.09193" lon="5.88007">
        <ele>1579</ele>
        <time>2015-06-20T05:45:01Z</time>
      </trkpt>
      <trkpt lat="45.09194" lon="5.88004">
        <ele>1579</ele>
        <time>2015-06-20T05:45:03Z</time>
      </trkpt>
      <trkpt lat="45.09196" lon="5.88001">
        <ele>1579</ele>
        <time>2015-06-20T05:45:05Z</time>
      </trkpt>
      <trkpt lat="45.09198" lon="5.87998">
        <ele>1581</ele>
        <time>2015-06-20T05:45:07Z</time>
      </trkpt>
      <trkpt lat="45.092" lon="5.87997">
        <ele>1581</ele>
        <time>2015-06-20T05:45:08Z</time>
      </trkpt>
      <trkpt lat="45.09202" lon="5.87996">
        <ele>1581</ele>
        <time>2015-06-20T05:45:09Z</time>
      </trkpt>
      <trkpt lat="45.09204" lon="5.87994">
        <ele>1583</ele>
        <time>2015-06-20T05:45:10Z</time>
      </trkpt>
      <trkpt lat="45.09205" lon="5.87992">
        <ele>1583</ele>
        <time>2015-06-20T05:45:11Z</time>
      </trkpt>
      <trkpt lat="45.09207" lon="5.87991">
        <ele>1583</ele>
        <time>2015-06-20T05:45:12Z</time>
      </trkpt>
      <trkpt lat="45.09209" lon="5.87989">
        <ele>1583</ele>
        <time>2015-06-20T05:45:13Z</time>
      </trkpt>
      <trkpt lat="45.0921" lon="5.87987">
        <ele>1583</ele>
        <time>2015-06-20T05:45:14Z</time>
      </trkpt>
      <trkpt lat="45.09212" lon="5.87983">
        <ele>1583</ele>
        <time>2015-06-20T05:45:16Z</time>
      </trkpt>
      <trkpt lat="45.09213" lon="5.87981">
        <ele>1583</ele>
        <time>2015-06-20T05:45:17Z</time>
      </trkpt>
      <trkpt lat="45.09214" lon="5.87978">
        <ele>1583</ele>
        <time>2015-06-20T05:45:18Z</time>
      </trkpt>
      <trkpt lat="45.09216" lon="5.87977">
        <ele>1583</ele>
        <time>2015-06-20T05:45:19Z</time>
      </trkpt>
      <trkpt lat="45.09219" lon="5.87976">
        <ele>1583</ele>
        <time>2015-06-20T05:45:21Z</time>
      </trkpt>
      <trkpt lat="45.09221" lon="5.87973">
        <ele>1583</ele>
        <time>2015-06-20T05:45:23Z</time>
      </trkpt>
      <trkpt lat="45.09223" lon="5.87973">
        <ele>1583</ele>
        <time>2015-06-20T05:45:24Z</time>
      </trkpt>
      <trkpt lat="45.09225" lon="5.87974">
        <ele>1583</ele>
        <time>2015-06-20T05:45:25Z</time>
      </trkpt>
      <trkpt lat="45.09227" lon="5.87976">
        <ele>1583</ele>
        <time>2015-06-20T05:45:26Z</time>
      </trkpt>
      <trkpt lat="45.0923" lon="5.87977">
        <ele>1583</ele>
        <time>2015-06-20T05:45:28Z</time>
      </trkpt>
      <trkpt lat="45.09232" lon="5.87979">
        <ele>1583</ele>
        <time>2015-06-20T05:45:30Z</time>
      </trkpt>
      <trkpt lat="45.09235" lon="5.8798">
        <ele>1583</ele>
        <time>2015-06-20T05:45:32Z</time>
      </trkpt>
      <trkpt lat="45.09237" lon="5.87982">
        <ele>1585</ele>
        <time>2015-06-20T05:45:33Z</time>
      </trkpt>
      <trkpt lat="45.09241" lon="5.87984">
        <ele>1585</ele>
        <time>2015-06-20T05:45:34Z</time>
      </trkpt>
      <trkpt lat="45.09242" lon="5.87986">
        <ele>1585</ele>
        <time>2015-06-20T05:45:35Z</time>
      </trkpt>
      <trkpt lat="45.09245" lon="5.87986">
        <ele>1585</ele>
        <time>2015-06-20T05:45:36Z</time>
      </trkpt>
      <trkpt lat="45.09248" lon="5.87986">
        <ele>1585</ele>
        <time>2015-06-20T05:45:37Z</time>
      </trkpt>
      <trkpt lat="45.09253" lon="5.87985">
        <ele>1585</ele>
        <time>2015-06-20T05:45:39Z</time>
      </trkpt>
      <trkpt lat="45.09255" lon="5.87985">
        <ele>1585</ele>
        <time>2015-06-20T05:45:40Z</time>
      </trkpt>
      <trkpt lat="45.09258" lon="5.87987">
        <ele>1585</ele>
        <time>2015-06-20T05:45:41Z</time>
      </trkpt>
      <trkpt lat="45.0926" lon="5.87988">
        <ele>1587</ele>
        <time>2015-06-20T05:45:42Z</time>
      </trkpt>
      <trkpt lat="45.09261" lon="5.87988">
        <ele>1587</ele>
        <time>2015-06-20T05:45:43Z</time>
      </trkpt>
      <trkpt lat="45.09264" lon="5.87989">
        <ele>1587</ele>
        <time>2015-06-20T05:45:44Z</time>
      </trkpt>
      <trkpt lat="45.09267" lon="5.87989">
        <ele>1587</ele>
        <time>2015-06-20T05:45:46Z</time>
      </trkpt>
      <trkpt lat="45.09269" lon="5.87989">
        <ele>1587</ele>
        <time>2015-06-20T05:45:48Z</time>
      </trkpt>
      <trkpt lat="45.09272" lon="5.87989">
        <ele>1587</ele>
        <time>2015-06-20T05:45:50Z</time>
      </trkpt>
      <trkpt lat="45.09274" lon="5.87988">
        <ele>1591</ele>
        <time>2015-06-20T05:45:52Z</time>
      </trkpt>
      <trkpt lat="45.09277" lon="5.87988">
        <ele>1591</ele>
        <time>2015-06-20T05:45:54Z</time>
      </trkpt>
      <trkpt lat="45.0928" lon="5.8799">
        <ele>1592</ele>
        <time>2015-06-20T05:45:57Z</time>
      </trkpt>
      <trkpt lat="45.09282" lon="5.8799">
        <ele>1592</ele>
        <time>2015-06-20T05:45:59Z</time>
      </trkpt>
      <trkpt lat="45.09285" lon="5.87991">
        <ele>1593</ele>
        <time>2015-06-20T05:46:02Z</time>
      </trkpt>
      <trkpt lat="45.09288" lon="5.87993">
        <ele>1593</ele>
        <time>2015-06-20T05:46:05Z</time>
      </trkpt>
      <trkpt lat="45.09292" lon="5.87994">
        <ele>1593</ele>
        <time>2015-06-20T05:46:07Z</time>
      </trkpt>
      <trkpt lat="45.09295" lon="5.87995">
        <ele>1595</ele>
        <time>2015-06-20T05:46:09Z</time>
      </trkpt>
      <trkpt lat="45.09298" lon="5.87997">
        <ele>1595</ele>
        <time>2015-06-20T05:46:11Z</time>
      </trkpt>
      <trkpt lat="45.093" lon="5.87997">
        <ele>1596</ele>
        <time>2015-06-20T05:46:12Z</time>
      </trkpt>
      <trkpt lat="45.09303" lon="5.87996">
        <ele>1596</ele>
        <time>2015-06-20T05:46:14Z</time>
      </trkpt>
      <trkpt lat="45.09306" lon="5.87997">
        <ele>1598</ele>
        <time>2015-06-20T05:46:17Z</time>
      </trkpt>
      <trkpt lat="45.09308" lon="5.87998">
        <ele>1598</ele>
        <time>2015-06-20T05:46:19Z</time>
      </trkpt>
      <trkpt lat="45.09311" lon="5.87997">
        <ele>1598</ele>
        <time>2015-06-20T05:46:21Z</time>
      </trkpt>
      <trkpt lat="45.09313" lon="5.87996">
        <ele>1598</ele>
        <time>2015-06-20T05:46:22Z</time>
      </trkpt>
      <trkpt lat="45.09315" lon="5.87995">
        <ele>1598</ele>
        <time>2015-06-20T05:46:23Z</time>
      </trkpt>
      <trkpt lat="45.09317" lon="5.87995">
        <ele>1598</ele>
        <time>2015-06-20T05:46:24Z</time>
      </trkpt>
      <trkpt lat="45.09319" lon="5.87995">
        <ele>1598</ele>
        <time>2015-06-20T05:46:25Z</time>
      </trkpt>
      <trkpt lat="45.09321" lon="5.87995">
        <ele>1598</ele>
        <time>2015-06-20T05:46:26Z</time>
      </trkpt>
      <trkpt lat="45.09324" lon="5.87995">
        <ele>1598</ele>
        <time>2015-06-20T05:46:28Z</time>
      </trkpt>
      <trkpt lat="45.09326" lon="5.87994">
        <ele>1598</ele>
        <time>2015-06-20T05:46:29Z</time>
      </trkpt>
      <trkpt lat="45.09328" lon="5.87992">
        <ele>1598</ele>
        <time>2015-06-20T05:46:30Z</time>
      </trkpt>
      <trkpt lat="45.09332" lon="5.8799">
        <ele>1598</ele>
        <time>2015-06-20T05:46:31Z</time>
      </trkpt>
      <trkpt lat="45.09335" lon="5.8799">
        <ele>1598</ele>
        <time>2015-06-20T05:46:32Z</time>
      </trkpt>
      <trkpt lat="45.09338" lon="5.87989">
        <ele>1598</ele>
        <time>2015-06-20T05:46:33Z</time>
      </trkpt>
      <trkpt lat="45.09341" lon="5.87989">
        <ele>1598</ele>
        <time>2015-06-20T05:46:34Z</time>
      </trkpt>
      <trkpt lat="45.09343" lon="5.87988">
        <ele>1598</ele>
        <time>2015-06-20T05:46:35Z</time>
      </trkpt>
      <trkpt lat="45.09346" lon="5.87988">
        <ele>1599</ele>
        <time>2015-06-20T05:46:36Z</time>
      </trkpt>
      <trkpt lat="45.09348" lon="5.8799">
        <ele>1599</ele>
        <time>2015-06-20T05:46:37Z</time>
      </trkpt>
      <trkpt lat="45.0935" lon="5.87991">
        <ele>1599</ele>
        <time>2015-06-20T05:46:38Z</time>
      </trkpt>
      <trkpt lat="45.09353" lon="5.87992">
        <ele>1599</ele>
        <time>2015-06-20T05:46:39Z</time>
      </trkpt>
      <trkpt lat="45.09356" lon="5.87992">
        <ele>1599</ele>
        <time>2015-06-20T05:46:40Z</time>
      </trkpt>
      <trkpt lat="45.09359" lon="5.87993">
        <ele>1599</ele>
        <time>2015-06-20T05:46:41Z</time>
      </trkpt>
      <trkpt lat="45.09361" lon="5.87995">
        <ele>1599</ele>
        <time>2015-06-20T05:46:42Z</time>
      </trkpt>
      <trkpt lat="45.09363" lon="5.87997">
        <ele>1599</ele>
        <time>2015-06-20T05:46:43Z</time>
      </trkpt>
      <trkpt lat="45.09365" lon="5.87998">
        <ele>1599</ele>
        <time>2015-06-20T05:46:44Z</time>
      </trkpt>
      <trkpt lat="45.09367" lon="5.88">
        <ele>1599</ele>
        <time>2015-06-20T05:46:45Z</time>
      </trkpt>
      <trkpt lat="45.0937" lon="5.88002">
        <ele>1599</ele>
        <time>2015-06-20T05:46:46Z</time>
      </trkpt>
      <trkpt lat="45.09373" lon="5.88003">
        <ele>1599</ele>
        <time>2015-06-20T05:46:47Z</time>
      </trkpt>
      <trkpt lat="45.09376" lon="5.88005">
        <ele>1599</ele>
        <time>2015-06-20T05:46:48Z</time>
      </trkpt>
      <trkpt lat="45.0938" lon="5.88007">
        <ele>1599</ele>
        <time>2015-06-20T05:46:49Z</time>
      </trkpt>
      <trkpt lat="45.09383" lon="5.88009">
        <ele>1599</ele>
        <time>2015-06-20T05:46:50Z</time>
      </trkpt>
      <trkpt lat="45.09385" lon="5.8801">
        <ele>1599</ele>
        <time>2015-06-20T05:46:51Z</time>
      </trkpt>
      <trkpt lat="45.09388" lon="5.88011">
        <ele>1599</ele>
        <time>2015-06-20T05:46:52Z</time>
      </trkpt>
      <trkpt lat="45.09391" lon="5.88011">
        <ele>1599</ele>
        <time>2015-06-20T05:46:53Z</time>
      </trkpt>
      <trkpt lat="45.09393" lon="5.88011">
        <ele>1599</ele>
        <time>2015-06-20T05:46:54Z</time>
      </trkpt>
      <trkpt lat="45.09396" lon="5.88011">
        <ele>1599</ele>
        <time>2015-06-20T05:46:55Z</time>
      </trkpt>
      <trkpt lat="45.09398" lon="5.8801">
        <ele>1599</ele>
        <time>2015-06-20T05:46:56Z</time>
      </trkpt>
      <trkpt lat="45.09402" lon="5.88009">
        <ele>1598</ele>
        <time>2015-06-20T05:46:57Z</time>
      </trkpt>
      <trkpt lat="45.09405" lon="5.88008">
        <ele>1598</ele>
        <time>2015-06-20T05:46:58Z</time>
      </trkpt>
      <trkpt lat="45.09407" lon="5.88007">
        <ele>1598</ele>
        <time>2015-06-20T05:46:59Z</time>
      </trkpt>
      <trkpt lat="45.09409" lon="5.88006">
        <ele>1598</ele>
        <time>2015-06-20T05:47:00Z</time>
      </trkpt>
      <trkpt lat="45.09412" lon="5.88006">
        <ele>1597</ele>
        <time>2015-06-20T05:47:01Z</time>
      </trkpt>
      <trkpt lat="45.09415" lon="5.88006">
        <ele>1597</ele>
        <time>2015-06-20T05:47:03Z</time>
      </trkpt>
      <trkpt lat="45.09417" lon="5.88007">
        <ele>1597</ele>
        <time>2015-06-20T05:47:04Z</time>
      </trkpt>
      <trkpt lat="45.0942" lon="5.88006">
        <ele>1597</ele>
        <time>2015-06-20T05:47:05Z</time>
      </trkpt>
      <trkpt lat="45.09422" lon="5.88005">
        <ele>1597</ele>
        <time>2015-06-20T05:47:06Z</time>
      </trkpt>
      <trkpt lat="45.09424" lon="5.88004">
        <ele>1597</ele>
        <time>2015-06-20T05:47:07Z</time>
      </trkpt>
      <trkpt lat="45.09427" lon="5.88003">
        <ele>1597</ele>
        <time>2015-06-20T05:47:08Z</time>
      </trkpt>
      <trkpt lat="45.0943" lon="5.88002">
        <ele>1597</ele>
        <time>2015-06-20T05:47:09Z</time>
      </trkpt>
      <trkpt lat="45.09434" lon="5.88002">
        <ele>1597</ele>
        <time>2015-06-20T05:47:10Z</time>
      </trkpt>
      <trkpt lat="45.09437" lon="5.88002">
        <ele>1597</ele>
        <time>2015-06-20T05:47:11Z</time>
      </trkpt>
      <trkpt lat="45.09439" lon="5.88001">
        <ele>1597</ele>
        <time>2015-06-20T05:47:12Z</time>
      </trkpt>
      <trkpt lat="45.09442" lon="5.88001">
        <ele>1597</ele>
        <time>2015-06-20T05:47:13Z</time>
      </trkpt>
      <trkpt lat="45.09445" lon="5.88001">
        <ele>1597</ele>
        <time>2015-06-20T05:47:14Z</time>
      </trkpt>
      <trkpt lat="45.09448" lon="5.88">
        <ele>1597</ele>
        <time>2015-06-20T05:47:15Z</time>
      </trkpt>
      <trkpt lat="45.0945" lon="5.88001">
        <ele>1597</ele>
        <time>2015-06-20T05:47:16Z</time>
      </trkpt>
      <trkpt lat="45.09453" lon="5.88002">
        <ele>1597</ele>
        <time>2015-06-20T05:47:18Z</time>
      </trkpt>
      <trkpt lat="45.09456" lon="5.88004">
        <ele>1597</ele>
        <time>2015-06-20T05:47:19Z</time>
      </trkpt>
      <trkpt lat="45.09459" lon="5.88004">
        <ele>1597</ele>
        <time>2015-06-20T05:47:20Z</time>
      </trkpt>
      <trkpt lat="45.09461" lon="5.88006">
        <ele>1597</ele>
        <time>2015-06-20T05:47:21Z</time>
      </trkpt>
      <trkpt lat="45.09464" lon="5.88008">
        <ele>1597</ele>
        <time>2015-06-20T05:47:22Z</time>
      </trkpt>
      <trkpt lat="45.09467" lon="5.88011">
        <ele>1597</ele>
        <time>2015-06-20T05:47:23Z</time>
      </trkpt>
      <trkpt lat="45.09471" lon="5.88015">
        <ele>1597</ele>
        <time>2015-06-20T05:47:24Z</time>
      </trkpt>
      <trkpt lat="45.09474" lon="5.88019">
        <ele>1597</ele>
        <time>2015-06-20T05:47:25Z</time>
      </trkpt>
      <trkpt lat="45.09477" lon="5.88021">
        <ele>1597</ele>
        <time>2015-06-20T05:47:26Z</time>
      </trkpt>
      <trkpt lat="45.0948" lon="5.88024">
        <ele>1597</ele>
        <time>2015-06-20T05:47:27Z</time>
      </trkpt>
      <trkpt lat="45.09482" lon="5.88026">
        <ele>1597</ele>
        <time>2015-06-20T05:47:28Z</time>
      </trkpt>
      <trkpt lat="45.09484" lon="5.8803">
        <ele>1597</ele>
        <time>2015-06-20T05:47:29Z</time>
      </trkpt>
      <trkpt lat="45.09487" lon="5.88032">
        <ele>1597</ele>
        <time>2015-06-20T05:47:30Z</time>
      </trkpt>
      <trkpt lat="45.09489" lon="5.88034">
        <ele>1597</ele>
        <time>2015-06-20T05:47:31Z</time>
      </trkpt>
      <trkpt lat="45.09492" lon="5.88036">
        <ele>1597</ele>
        <time>2015-06-20T05:47:32Z</time>
      </trkpt>
      <trkpt lat="45.09494" lon="5.8804">
        <ele>1597</ele>
        <time>2015-06-20T05:47:33Z</time>
      </trkpt>
      <trkpt lat="45.09497" lon="5.88043">
        <ele>1597</ele>
        <time>2015-06-20T05:47:34Z</time>
      </trkpt>
      <trkpt lat="45.09498" lon="5.88045">
        <ele>1597</ele>
        <time>2015-06-20T05:47:35Z</time>
      </trkpt>
      <trkpt lat="45.09499" lon="5.88048">
        <ele>1597</ele>
        <time>2015-06-20T05:47:36Z</time>
      </trkpt>
      <trkpt lat="45.09501" lon="5.88051">
        <ele>1597</ele>
        <time>2015-06-20T05:47:37Z</time>
      </trkpt>
      <trkpt lat="45.09504" lon="5.88053">
        <ele>1597</ele>
        <time>2015-06-20T05:47:39Z</time>
      </trkpt>
      <trkpt lat="45.09506" lon="5.88055">
        <ele>1597</ele>
        <time>2015-06-20T05:47:40Z</time>
      </trkpt>
      <trkpt lat="45.09506" lon="5.88058">
        <ele>1597</ele>
        <time>2015-06-20T05:47:41Z</time>
      </trkpt>
      <trkpt lat="45.09506" lon="5.88062">
        <ele>1597</ele>
        <time>2015-06-20T05:47:43Z</time>
      </trkpt>
      <trkpt lat="45.09505" lon="5.88066">
        <ele>1598</ele>
        <time>2015-06-20T05:47:45Z</time>
      </trkpt>
      <trkpt lat="45.09505" lon="5.8807">
        <ele>1598</ele>
        <time>2015-06-20T05:47:47Z</time>
      </trkpt>
      <trkpt lat="45.09505" lon="5.88075">
        <ele>1598</ele>
        <time>2015-06-20T05:47:49Z</time>
      </trkpt>
      <trkpt lat="45.09504" lon="5.8808">
        <ele>1598</ele>
        <time>2015-06-20T05:47:51Z</time>
      </trkpt>
      <trkpt lat="45.09504" lon="5.88083">
        <ele>1598</ele>
        <time>2015-06-20T05:47:52Z</time>
      </trkpt>
      <trkpt lat="45.09504" lon="5.88086">
        <ele>1600</ele>
        <time>2015-06-20T05:47:53Z</time>
      </trkpt>
      <trkpt lat="45.09504" lon="5.8809">
        <ele>1600</ele>
        <time>2015-06-20T05:47:54Z</time>
      </trkpt>
      <trkpt lat="45.09504" lon="5.88093">
        <ele>1600</ele>
        <time>2015-06-20T05:47:55Z</time>
      </trkpt>
      <trkpt lat="45.09505" lon="5.88096">
        <ele>1600</ele>
        <time>2015-06-20T05:47:56Z</time>
      </trkpt>
      <trkpt lat="45.09505" lon="5.881">
        <ele>1600</ele>
        <time>2015-06-20T05:47:57Z</time>
      </trkpt>
      <trkpt lat="45.09506" lon="5.88102">
        <ele>1602</ele>
        <time>2015-06-20T05:47:58Z</time>
      </trkpt>
      <trkpt lat="45.09507" lon="5.88106">
        <ele>1602</ele>
        <time>2015-06-20T05:47:59Z</time>
      </trkpt>
      <trkpt lat="45.09508" lon="5.88109">
        <ele>1602</ele>
        <time>2015-06-20T05:48:00Z</time>
      </trkpt>
      <trkpt lat="45.09509" lon="5.88113">
        <ele>1602</ele>
        <time>2015-06-20T05:48:01Z</time>
      </trkpt>
      <trkpt lat="45.09509" lon="5.88116">
        <ele>1602</ele>
        <time>2015-06-20T05:48:02Z</time>
      </trkpt>
      <trkpt lat="45.0951" lon="5.8812">
        <ele>1602</ele>
        <time>2015-06-20T05:48:03Z</time>
      </trkpt>
      <trkpt lat="45.0951" lon="5.88124">
        <ele>1602</ele>
        <time>2015-06-20T05:48:04Z</time>
      </trkpt>
      <trkpt lat="45.0951" lon="5.88127">
        <ele>1602</ele>
        <time>2015-06-20T05:48:05Z</time>
      </trkpt>
      <trkpt lat="45.09511" lon="5.88131">
        <ele>1602</ele>
        <time>2015-06-20T05:48:06Z</time>
      </trkpt>
      <trkpt lat="45.09512" lon="5.88134">
        <ele>1604</ele>
        <time>2015-06-20T05:48:07Z</time>
      </trkpt>
      <trkpt lat="45.09512" lon="5.88137">
        <ele>1604</ele>
        <time>2015-06-20T05:48:08Z</time>
      </trkpt>
      <trkpt lat="45.09512" lon="5.88141">
        <ele>1604</ele>
        <time>2015-06-20T05:48:09Z</time>
      </trkpt>
      <trkpt lat="45.09512" lon="5.88144">
        <ele>1604</ele>
        <time>2015-06-20T05:48:10Z</time>
      </trkpt>
      <trkpt lat="45.09513" lon="5.88147">
        <ele>1604</ele>
        <time>2015-06-20T05:48:11Z</time>
      </trkpt>
      <trkpt lat="45.09513" lon="5.8815">
        <ele>1604</ele>
        <time>2015-06-20T05:48:12Z</time>
      </trkpt>
      <trkpt lat="45.09514" lon="5.88153">
        <ele>1604</ele>
        <time>2015-06-20T05:48:13Z</time>
      </trkpt>
      <trkpt lat="45.09515" lon="5.88157">
        <ele>1604</ele>
        <time>2015-06-20T05:48:14Z</time>
      </trkpt>
      <trkpt lat="45.09516" lon="5.88161">
        <ele>1604</ele>
        <time>2015-06-20T05:48:15Z</time>
      </trkpt>
      <trkpt lat="45.09517" lon="5.88163">
        <ele>1604</ele>
        <time>2015-06-20T05:48:16Z</time>
      </trkpt>
      <trkpt lat="45.09518" lon="5.88166">
        <ele>1604</ele>
        <time>2015-06-20T05:48:17Z</time>
      </trkpt>
      <trkpt lat="45.09518" lon="5.8817">
        <ele>1605</ele>
        <time>2015-06-20T05:48:19Z</time>
      </trkpt>
      <trkpt lat="45.09519" lon="5.88174">
        <ele>1605</ele>
        <time>2015-06-20T05:48:21Z</time>
      </trkpt>
      <trkpt lat="45.0952" lon="5.88177">
        <ele>1605</ele>
        <time>2015-06-20T05:48:23Z</time>
      </trkpt>
      <trkpt lat="45.09521" lon="5.8818">
        <ele>1605</ele>
        <time>2015-06-20T05:48:24Z</time>
      </trkpt>
      <trkpt lat="45.09521" lon="5.88183">
        <ele>1605</ele>
        <time>2015-06-20T05:48:25Z</time>
      </trkpt>
      <trkpt lat="45.09521" lon="5.88187">
        <ele>1605</ele>
        <time>2015-06-20T05:48:26Z</time>
      </trkpt>
      <trkpt lat="45.09521" lon="5.88192">
        <ele>1605</ele>
        <time>2015-06-20T05:48:27Z</time>
      </trkpt>
      <trkpt lat="45.09521" lon="5.88196">
        <ele>1605</ele>
        <time>2015-06-20T05:48:28Z</time>
      </trkpt>
      <trkpt lat="45.09521" lon="5.882">
        <ele>1605</ele>
        <time>2015-06-20T05:48:29Z</time>
      </trkpt>
      <trkpt lat="45.09521" lon="5.88204">
        <ele>1605</ele>
        <time>2015-06-20T05:48:30Z</time>
      </trkpt>
      <trkpt lat="45.09521" lon="5.88208">
        <ele>1605</ele>
        <time>2015-06-20T05:48:31Z</time>
      </trkpt>
      <trkpt lat="45.09521" lon="5.88212">
        <ele>1605</ele>
        <time>2015-06-20T05:48:32Z</time>
      </trkpt>
      <trkpt lat="45.09521" lon="5.88216">
        <ele>1605</ele>
        <time>2015-06-20T05:48:33Z</time>
      </trkpt>
      <trkpt lat="45.09521" lon="5.8822">
        <ele>1605</ele>
        <time>2015-06-20T05:48:34Z</time>
      </trkpt>
      <trkpt lat="45.09521" lon="5.88223">
        <ele>1605</ele>
        <time>2015-06-20T05:48:35Z</time>
      </trkpt>
      <trkpt lat="45.09522" lon="5.88226">
        <ele>1605</ele>
        <time>2015-06-20T05:48:36Z</time>
      </trkpt>
      <trkpt lat="45.09523" lon="5.88228">
        <ele>1606</ele>
        <time>2015-06-20T05:48:37Z</time>
      </trkpt>
      <trkpt lat="45.09524" lon="5.8823">
        <ele>1606</ele>
        <time>2015-06-20T05:48:38Z</time>
      </trkpt>
      <trkpt lat="45.09526" lon="5.88231">
        <ele>1606</ele>
        <time>2015-06-20T05:48:39Z</time>
      </trkpt>
      <trkpt lat="45.09528" lon="5.88232">
        <ele>1606</ele>
        <time>2015-06-20T05:48:41Z</time>
      </trkpt>
      <trkpt lat="45.0953" lon="5.88234">
        <ele>1606</ele>
        <time>2015-06-20T05:48:43Z</time>
      </trkpt>
      <trkpt lat="45.0953" lon="5.88238">
        <ele>1606</ele>
        <time>2015-06-20T05:48:45Z</time>
      </trkpt>
      <trkpt lat="45.09531" lon="5.88241">
        <ele>1607</ele>
        <time>2015-06-20T05:48:47Z</time>
      </trkpt>
      <trkpt lat="45.09532" lon="5.88243">
        <ele>1607</ele>
        <time>2015-06-20T05:48:48Z</time>
      </trkpt>
      <trkpt lat="45.09534" lon="5.88243">
        <ele>1607</ele>
        <time>2015-06-20T05:48:49Z</time>
      </trkpt>
      <trkpt lat="45.09536" lon="5.88244">
        <ele>1607</ele>
        <time>2015-06-20T05:48:50Z</time>
      </trkpt>
      <trkpt lat="45.0954" lon="5.88242">
        <ele>1607</ele>
        <time>2015-06-20T05:48:52Z</time>
      </trkpt>
      <trkpt lat="45.09541" lon="5.88241">
        <ele>1607</ele>
        <time>2015-06-20T05:48:53Z</time>
      </trkpt>
      <trkpt lat="45.09544" lon="5.88239">
        <ele>1607</ele>
        <time>2015-06-20T05:48:54Z</time>
      </trkpt>
      <trkpt lat="45.09546" lon="5.88238">
        <ele>1607</ele>
        <time>2015-06-20T05:48:55Z</time>
      </trkpt>
      <trkpt lat="45.09549" lon="5.88238">
        <ele>1607</ele>
        <time>2015-06-20T05:48:56Z</time>
      </trkpt>
      <trkpt lat="45.09551" lon="5.88239">
        <ele>1607</ele>
        <time>2015-06-20T05:48:57Z</time>
      </trkpt>
      <trkpt lat="45.09554" lon="5.88241">
        <ele>1607</ele>
        <time>2015-06-20T05:48:58Z</time>
      </trkpt>
      <trkpt lat="45.09556" lon="5.88243">
        <ele>1607</ele>
        <time>2015-06-20T05:48:59Z</time>
      </trkpt>
      <trkpt lat="45.09558" lon="5.88244">
        <ele>1607</ele>
        <time>2015-06-20T05:49:00Z</time>
      </trkpt>
      <trkpt lat="45.0956" lon="5.88246">
        <ele>1607</ele>
        <time>2015-06-20T05:49:01Z</time>
      </trkpt>
      <trkpt lat="45.09562" lon="5.88247">
        <ele>1606</ele>
        <time>2015-06-20T05:49:02Z</time>
      </trkpt>
      <trkpt lat="45.09564" lon="5.88249">
        <ele>1606</ele>
        <time>2015-06-20T05:49:03Z</time>
      </trkpt>
      <trkpt lat="45.09565" lon="5.88252">
        <ele>1606</ele>
        <time>2015-06-20T05:49:04Z</time>
      </trkpt>
      <trkpt lat="45.09566" lon="5.88256">
        <ele>1606</ele>
        <time>2015-06-20T05:49:06Z</time>
      </trkpt>
      <trkpt lat="45.09564" lon="5.88258">
        <ele>1606</ele>
        <time>2015-06-20T05:49:08Z</time>
      </trkpt>
      <trkpt lat="45.09563" lon="5.88262">
        <ele>1606</ele>
        <time>2015-06-20T05:49:10Z</time>
      </trkpt>
      <trkpt lat="45.09562" lon="5.88266">
        <ele>1606</ele>
        <time>2015-06-20T05:49:12Z</time>
      </trkpt>
      <trkpt lat="45.09562" lon="5.88271">
        <ele>1606</ele>
        <time>2015-06-20T05:49:14Z</time>
      </trkpt>
      <trkpt lat="45.09561" lon="5.88274">
        <ele>1609</ele>
        <time>2015-06-20T05:49:16Z</time>
      </trkpt>
      <trkpt lat="45.09562" lon="5.88279">
        <ele>1609</ele>
        <time>2015-06-20T05:49:18Z</time>
      </trkpt>
      <trkpt lat="45.09563" lon="5.88281">
        <ele>1609</ele>
        <time>2015-06-20T05:49:19Z</time>
      </trkpt>
      <trkpt lat="45.09564" lon="5.88284">
        <ele>1609</ele>
        <time>2015-06-20T05:49:20Z</time>
      </trkpt>
      <trkpt lat="45.09567" lon="5.88288">
        <ele>1612</ele>
        <time>2015-06-20T05:49:22Z</time>
      </trkpt>
      <trkpt lat="45.09569" lon="5.8829">
        <ele>1612</ele>
        <time>2015-06-20T05:49:23Z</time>
      </trkpt>
      <trkpt lat="45.09571" lon="5.88292">
        <ele>1612</ele>
        <time>2015-06-20T05:49:24Z</time>
      </trkpt>
      <trkpt lat="45.09573" lon="5.88294">
        <ele>1612</ele>
        <time>2015-06-20T05:49:25Z</time>
      </trkpt>
      <trkpt lat="45.09575" lon="5.88296">
        <ele>1612</ele>
        <time>2015-06-20T05:49:26Z</time>
      </trkpt>
      <trkpt lat="45.09577" lon="5.88298">
        <ele>1612</ele>
        <time>2015-06-20T05:49:27Z</time>
      </trkpt>
      <trkpt lat="45.09579" lon="5.88299">
        <ele>1612</ele>
        <time>2015-06-20T05:49:28Z</time>
      </trkpt>
      <trkpt lat="45.09581" lon="5.88301">
        <ele>1612</ele>
        <time>2015-06-20T05:49:29Z</time>
      </trkpt>
      <trkpt lat="45.09583" lon="5.88302">
        <ele>1612</ele>
        <time>2015-06-20T05:49:30Z</time>
      </trkpt>
      <trkpt lat="45.09586" lon="5.88303">
        <ele>1612</ele>
        <time>2015-06-20T05:49:31Z</time>
      </trkpt>
      <trkpt lat="45.09589" lon="5.88305">
        <ele>1612</ele>
        <time>2015-06-20T05:49:32Z</time>
      </trkpt>
      <trkpt lat="45.09592" lon="5.88307">
        <ele>1613</ele>
        <time>2015-06-20T05:49:33Z</time>
      </trkpt>
      <trkpt lat="45.09594" lon="5.88308">
        <ele>1613</ele>
        <time>2015-06-20T05:49:34Z</time>
      </trkpt>
      <trkpt lat="45.09597" lon="5.8831">
        <ele>1613</ele>
        <time>2015-06-20T05:49:35Z</time>
      </trkpt>
      <trkpt lat="45.09599" lon="5.88311">
        <ele>1613</ele>
        <time>2015-06-20T05:49:36Z</time>
      </trkpt>
      <trkpt lat="45.09602" lon="5.88312">
        <ele>1613</ele>
        <time>2015-06-20T05:49:37Z</time>
      </trkpt>
      <trkpt lat="45.09604" lon="5.88314">
        <ele>1613</ele>
        <time>2015-06-20T05:49:38Z</time>
      </trkpt>
      <trkpt lat="45.09606" lon="5.88315">
        <ele>1613</ele>
        <time>2015-06-20T05:49:39Z</time>
      </trkpt>
      <trkpt lat="45.09609" lon="5.88317">
        <ele>1613</ele>
        <time>2015-06-20T05:49:40Z</time>
      </trkpt>
      <trkpt lat="45.09611" lon="5.88319">
        <ele>1613</ele>
        <time>2015-06-20T05:49:41Z</time>
      </trkpt>
      <trkpt lat="45.09613" lon="5.88321">
        <ele>1613</ele>
        <time>2015-06-20T05:49:42Z</time>
      </trkpt>
      <trkpt lat="45.09615" lon="5.88323">
        <ele>1613</ele>
        <time>2015-06-20T05:49:43Z</time>
      </trkpt>
      <trkpt lat="45.09617" lon="5.88325">
        <ele>1613</ele>
        <time>2015-06-20T05:49:44Z</time>
      </trkpt>
      <trkpt lat="45.09618" lon="5.88327">
        <ele>1613</ele>
        <time>2015-06-20T05:49:45Z</time>
      </trkpt>
      <trkpt lat="45.0962" lon="5.88329">
        <ele>1613</ele>
        <time>2015-06-20T05:49:46Z</time>
      </trkpt>
      <trkpt lat="45.09621" lon="5.88332">
        <ele>1613</ele>
        <time>2015-06-20T05:49:47Z</time>
      </trkpt>
      <trkpt lat="45.09623" lon="5.88336">
        <ele>1615</ele>
        <time>2015-06-20T05:49:49Z</time>
      </trkpt>
      <trkpt lat="45.09625" lon="5.8834">
        <ele>1615</ele>
        <time>2015-06-20T05:49:51Z</time>
      </trkpt>
      <trkpt lat="45.09627" lon="5.88343">
        <ele>1615</ele>
        <time>2015-06-20T05:49:52Z</time>
      </trkpt>
      <trkpt lat="45.09628" lon="5.88345">
        <ele>1615</ele>
        <time>2015-06-20T05:49:53Z</time>
      </trkpt>
      <trkpt lat="45.0963" lon="5.88348">
        <ele>1615</ele>
        <time>2015-06-20T05:49:54Z</time>
      </trkpt>
      <trkpt lat="45.09631" lon="5.88351">
        <ele>1615</ele>
        <time>2015-06-20T05:49:55Z</time>
      </trkpt>
      <trkpt lat="45.09632" lon="5.88353">
        <ele>1615</ele>
        <time>2015-06-20T05:49:56Z</time>
      </trkpt>
      <trkpt lat="45.09634" lon="5.88354">
        <ele>1615</ele>
        <time>2015-06-20T05:49:57Z</time>
      </trkpt>
      <trkpt lat="45.09636" lon="5.88356">
        <ele>1618</ele>
        <time>2015-06-20T05:49:58Z</time>
      </trkpt>
      <trkpt lat="45.09638" lon="5.88358">
        <ele>1618</ele>
        <time>2015-06-20T05:49:59Z</time>
      </trkpt>
      <trkpt lat="45.09641" lon="5.8836">
        <ele>1618</ele>
        <time>2015-06-20T05:50:00Z</time>
      </trkpt>
      <trkpt lat="45.09643" lon="5.88362">
        <ele>1619</ele>
        <time>2015-06-20T05:50:01Z</time>
      </trkpt>
      <trkpt lat="45.09646" lon="5.88364">
        <ele>1619</ele>
        <time>2015-06-20T05:50:03Z</time>
      </trkpt>
      <trkpt lat="45.09648" lon="5.88365">
        <ele>1619</ele>
        <time>2015-06-20T05:50:04Z</time>
      </trkpt>
      <trkpt lat="45.0965" lon="5.88366">
        <ele>1619</ele>
        <time>2015-06-20T05:50:05Z</time>
      </trkpt>
      <trkpt lat="45.09652" lon="5.88367">
        <ele>1619</ele>
        <time>2015-06-20T05:50:06Z</time>
      </trkpt>
      <trkpt lat="45.09655" lon="5.88368">
        <ele>1620</ele>
        <time>2015-06-20T05:50:07Z</time>
      </trkpt>
      <trkpt lat="45.09658" lon="5.8837">
        <ele>1620</ele>
        <time>2015-06-20T05:50:08Z</time>
      </trkpt>
      <trkpt lat="45.0966" lon="5.88372">
        <ele>1620</ele>
        <time>2015-06-20T05:50:09Z</time>
      </trkpt>
      <trkpt lat="45.09662" lon="5.88374">
        <ele>1620</ele>
        <time>2015-06-20T05:50:10Z</time>
      </trkpt>
      <trkpt lat="45.09664" lon="5.88375">
        <ele>1620</ele>
        <time>2015-06-20T05:50:11Z</time>
      </trkpt>
      <trkpt lat="45.09666" lon="5.88378">
        <ele>1620</ele>
        <time>2015-06-20T05:50:12Z</time>
      </trkpt>
      <trkpt lat="45.09669" lon="5.8838">
        <ele>1620</ele>
        <time>2015-06-20T05:50:13Z</time>
      </trkpt>
      <trkpt lat="45.0967" lon="5.88383">
        <ele>1620</ele>
        <time>2015-06-20T05:50:14Z</time>
      </trkpt>
      <trkpt lat="45.09672" lon="5.88386">
        <ele>1620</ele>
        <time>2015-06-20T05:50:15Z</time>
      </trkpt>
      <trkpt lat="45.09674" lon="5.88388">
        <ele>1620</ele>
        <time>2015-06-20T05:50:16Z</time>
      </trkpt>
      <trkpt lat="45.09676" lon="5.88391">
        <ele>1620</ele>
        <time>2015-06-20T05:50:17Z</time>
      </trkpt>
      <trkpt lat="45.09677" lon="5.88393">
        <ele>1622</ele>
        <time>2015-06-20T05:50:18Z</time>
      </trkpt>
      <trkpt lat="45.09679" lon="5.88396">
        <ele>1622</ele>
        <time>2015-06-20T05:50:19Z</time>
      </trkpt>
      <trkpt lat="45.0968" lon="5.88399">
        <ele>1622</ele>
        <time>2015-06-20T05:50:20Z</time>
      </trkpt>
      <trkpt lat="45.09682" lon="5.88401">
        <ele>1622</ele>
        <time>2015-06-20T05:50:21Z</time>
      </trkpt>
      <trkpt lat="45.09683" lon="5.88404">
        <ele>1622</ele>
        <time>2015-06-20T05:50:22Z</time>
      </trkpt>
      <trkpt lat="45.09684" lon="5.88407">
        <ele>1622</ele>
        <time>2015-06-20T05:50:23Z</time>
      </trkpt>
      <trkpt lat="45.09685" lon="5.8841">
        <ele>1622</ele>
        <time>2015-06-20T05:50:24Z</time>
      </trkpt>
      <trkpt lat="45.09687" lon="5.88413">
        <ele>1622</ele>
        <time>2015-06-20T05:50:25Z</time>
      </trkpt>
      <trkpt lat="45.09688" lon="5.88416">
        <ele>1622</ele>
        <time>2015-06-20T05:50:26Z</time>
      </trkpt>
      <trkpt lat="45.0969" lon="5.88419">
        <ele>1624</ele>
        <time>2015-06-20T05:50:27Z</time>
      </trkpt>
      <trkpt lat="45.09692" lon="5.88421">
        <ele>1624</ele>
        <time>2015-06-20T05:50:28Z</time>
      </trkpt>
      <trkpt lat="45.09694" lon="5.88424">
        <ele>1624</ele>
        <time>2015-06-20T05:50:29Z</time>
      </trkpt>
      <trkpt lat="45.09696" lon="5.88426">
        <ele>1624</ele>
        <time>2015-06-20T05:50:30Z</time>
      </trkpt>
      <trkpt lat="45.09698" lon="5.88429">
        <ele>1624</ele>
        <time>2015-06-20T05:50:31Z</time>
      </trkpt>
      <trkpt lat="45.097" lon="5.88431">
        <ele>1624</ele>
        <time>2015-06-20T05:50:32Z</time>
      </trkpt>
      <trkpt lat="45.09703" lon="5.88433">
        <ele>1624</ele>
        <time>2015-06-20T05:50:33Z</time>
      </trkpt>
      <trkpt lat="45.09705" lon="5.88434">
        <ele>1624</ele>
        <time>2015-06-20T05:50:34Z</time>
      </trkpt>
      <trkpt lat="45.09708" lon="5.88436">
        <ele>1624</ele>
        <time>2015-06-20T05:50:35Z</time>
      </trkpt>
      <trkpt lat="45.0971" lon="5.88436">
        <ele>1624</ele>
        <time>2015-06-20T05:50:36Z</time>
      </trkpt>
      <trkpt lat="45.09714" lon="5.88437">
        <ele>1625</ele>
        <time>2015-06-20T05:50:37Z</time>
      </trkpt>
      <trkpt lat="45.09717" lon="5.88437">
        <ele>1625</ele>
        <time>2015-06-20T05:50:38Z</time>
      </trkpt>
      <trkpt lat="45.0972" lon="5.88438">
        <ele>1625</ele>
        <time>2015-06-20T05:50:39Z</time>
      </trkpt>
      <trkpt lat="45.09723" lon="5.88438">
        <ele>1625</ele>
        <time>2015-06-20T05:50:40Z</time>
      </trkpt>
      <trkpt lat="45.09727" lon="5.88439">
        <ele>1625</ele>
        <time>2015-06-20T05:50:41Z</time>
      </trkpt>
      <trkpt lat="45.09729" lon="5.8844">
        <ele>1625</ele>
        <time>2015-06-20T05:50:42Z</time>
      </trkpt>
      <trkpt lat="45.09732" lon="5.88441">
        <ele>1625</ele>
        <time>2015-06-20T05:50:43Z</time>
      </trkpt>
      <trkpt lat="45.09735" lon="5.88442">
        <ele>1625</ele>
        <time>2015-06-20T05:50:44Z</time>
      </trkpt>
      <trkpt lat="45.09738" lon="5.88442">
        <ele>1625</ele>
        <time>2015-06-20T05:50:45Z</time>
      </trkpt>
      <trkpt lat="45.09741" lon="5.88442">
        <ele>1625</ele>
        <time>2015-06-20T05:50:46Z</time>
      </trkpt>
      <trkpt lat="45.09744" lon="5.88443">
        <ele>1625</ele>
        <time>2015-06-20T05:50:47Z</time>
      </trkpt>
      <trkpt lat="45.09747" lon="5.88443">
        <ele>1625</ele>
        <time>2015-06-20T05:50:48Z</time>
      </trkpt>
      <trkpt lat="45.09749" lon="5.88444">
        <ele>1625</ele>
        <time>2015-06-20T05:50:49Z</time>
      </trkpt>
      <trkpt lat="45.09752" lon="5.88443">
        <ele>1625</ele>
        <time>2015-06-20T05:50:50Z</time>
      </trkpt>
      <trkpt lat="45.09755" lon="5.88443">
        <ele>1625</ele>
        <time>2015-06-20T05:50:51Z</time>
      </trkpt>
      <trkpt lat="45.09757" lon="5.88443">
        <ele>1625</ele>
        <time>2015-06-20T05:50:52Z</time>
      </trkpt>
      <trkpt lat="45.0976" lon="5.88443">
        <ele>1625</ele>
        <time>2015-06-20T05:50:53Z</time>
      </trkpt>
      <trkpt lat="45.09763" lon="5.88442">
        <ele>1625</ele>
        <time>2015-06-20T05:50:54Z</time>
      </trkpt>
      <trkpt lat="45.09766" lon="5.88442">
        <ele>1625</ele>
        <time>2015-06-20T05:50:55Z</time>
      </trkpt>
      <trkpt lat="45.09769" lon="5.88442">
        <ele>1625</ele>
        <time>2015-06-20T05:50:56Z</time>
      </trkpt>
      <trkpt lat="45.09771" lon="5.88443">
        <ele>1625</ele>
        <time>2015-06-20T05:50:57Z</time>
      </trkpt>
      <trkpt lat="45.09774" lon="5.88443">
        <ele>1625</ele>
        <time>2015-06-20T05:50:58Z</time>
      </trkpt>
      <trkpt lat="45.09777" lon="5.88443">
        <ele>1625</ele>
        <time>2015-06-20T05:50:59Z</time>
      </trkpt>
      <trkpt lat="45.0978" lon="5.88443">
        <ele>1625</ele>
        <time>2015-06-20T05:51:00Z</time>
      </trkpt>
      <trkpt lat="45.09783" lon="5.88444">
        <ele>1625</ele>
        <time>2015-06-20T05:51:01Z</time>
      </trkpt>
      <trkpt lat="45.09787" lon="5.88444">
        <ele>1624</ele>
        <time>2015-06-20T05:51:02Z</time>
      </trkpt>
      <trkpt lat="45.0979" lon="5.88445">
        <ele>1624</ele>
        <time>2015-06-20T05:51:03Z</time>
      </trkpt>
      <trkpt lat="45.09792" lon="5.88445">
        <ele>1624</ele>
        <time>2015-06-20T05:51:04Z</time>
      </trkpt>
      <trkpt lat="45.09796" lon="5.88446">
        <ele>1624</ele>
        <time>2015-06-20T05:51:05Z</time>
      </trkpt>
      <trkpt lat="45.09799" lon="5.88447">
        <ele>1624</ele>
        <time>2015-06-20T05:51:06Z</time>
      </trkpt>
      <trkpt lat="45.09801" lon="5.88447">
        <ele>1624</ele>
        <time>2015-06-20T05:51:07Z</time>
      </trkpt>
      <trkpt lat="45.09804" lon="5.88448">
        <ele>1624</ele>
        <time>2015-06-20T05:51:08Z</time>
      </trkpt>
      <trkpt lat="45.09806" lon="5.8845">
        <ele>1624</ele>
        <time>2015-06-20T05:51:09Z</time>
      </trkpt>
      <trkpt lat="45.09809" lon="5.88451">
        <ele>1624</ele>
        <time>2015-06-20T05:51:10Z</time>
      </trkpt>
      <trkpt lat="45.09812" lon="5.88453">
        <ele>1624</ele>
        <time>2015-06-20T05:51:11Z</time>
      </trkpt>
      <trkpt lat="45.09814" lon="5.88454">
        <ele>1625</ele>
        <time>2015-06-20T05:51:12Z</time>
      </trkpt>
      <trkpt lat="45.09817" lon="5.88456">
        <ele>1625</ele>
        <time>2015-06-20T05:51:13Z</time>
      </trkpt>
      <trkpt lat="45.0982" lon="5.88458">
        <ele>1625</ele>
        <time>2015-06-20T05:51:14Z</time>
      </trkpt>
      <trkpt lat="45.09822" lon="5.88458">
        <ele>1625</ele>
        <time>2015-06-20T05:51:15Z</time>
      </trkpt>
      <trkpt lat="45.09825" lon="5.88459">
        <ele>1625</ele>
        <time>2015-06-20T05:51:16Z</time>
      </trkpt>
      <trkpt lat="45.09828" lon="5.88461">
        <ele>1625</ele>
        <time>2015-06-20T05:51:17Z</time>
      </trkpt>
      <trkpt lat="45.0983" lon="5.88463">
        <ele>1625</ele>
        <time>2015-06-20T05:51:18Z</time>
      </trkpt>
      <trkpt lat="45.09833" lon="5.88464">
        <ele>1625</ele>
        <time>2015-06-20T05:51:19Z</time>
      </trkpt>
      <trkpt lat="45.09836" lon="5.88466">
        <ele>1625</ele>
        <time>2015-06-20T05:51:20Z</time>
      </trkpt>
      <trkpt lat="45.09838" lon="5.88468">
        <ele>1625</ele>
        <time>2015-06-20T05:51:21Z</time>
      </trkpt>
      <trkpt lat="45.09841" lon="5.8847">
        <ele>1625</ele>
        <time>2015-06-20T05:51:22Z</time>
      </trkpt>
      <trkpt lat="45.09844" lon="5.88471">
        <ele>1625</ele>
        <time>2015-06-20T05:51:23Z</time>
      </trkpt>
      <trkpt lat="45.09847" lon="5.88472">
        <ele>1625</ele>
        <time>2015-06-20T05:51:24Z</time>
      </trkpt>
      <trkpt lat="45.09849" lon="5.88474">
        <ele>1625</ele>
        <time>2015-06-20T05:51:25Z</time>
      </trkpt>
      <trkpt lat="45.09852" lon="5.88476">
        <ele>1625</ele>
        <time>2015-06-20T05:51:26Z</time>
      </trkpt>
      <trkpt lat="45.09854" lon="5.88478">
        <ele>1625</ele>
        <time>2015-06-20T05:51:27Z</time>
      </trkpt>
      <trkpt lat="45.09856" lon="5.8848">
        <ele>1625</ele>
        <time>2015-06-20T05:51:28Z</time>
      </trkpt>
      <trkpt lat="45.09859" lon="5.88482">
        <ele>1625</ele>
        <time>2015-06-20T05:51:29Z</time>
      </trkpt>
      <trkpt lat="45.09861" lon="5.88483">
        <ele>1625</ele>
        <time>2015-06-20T05:51:30Z</time>
      </trkpt>
      <trkpt lat="45.09863" lon="5.88485">
        <ele>1625</ele>
        <time>2015-06-20T05:51:31Z</time>
      </trkpt>
      <trkpt lat="45.09866" lon="5.88487">
        <ele>1626</ele>
        <time>2015-06-20T05:51:32Z</time>
      </trkpt>
      <trkpt lat="45.09868" lon="5.88489">
        <ele>1626</ele>
        <time>2015-06-20T05:51:33Z</time>
      </trkpt>
      <trkpt lat="45.0987" lon="5.88491">
        <ele>1626</ele>
        <time>2015-06-20T05:51:34Z</time>
      </trkpt>
      <trkpt lat="45.09872" lon="5.88492">
        <ele>1626</ele>
        <time>2015-06-20T05:51:35Z</time>
      </trkpt>
      <trkpt lat="45.09874" lon="5.88493">
        <ele>1626</ele>
        <time>2015-06-20T05:51:36Z</time>
      </trkpt>
      <trkpt lat="45.09876" lon="5.88495">
        <ele>1626</ele>
        <time>2015-06-20T05:51:37Z</time>
      </trkpt>
      <trkpt lat="45.09878" lon="5.88497">
        <ele>1626</ele>
        <time>2015-06-20T05:51:38Z</time>
      </trkpt>
      <trkpt lat="45.09881" lon="5.88498">
        <ele>1626</ele>
        <time>2015-06-20T05:51:39Z</time>
      </trkpt>
      <trkpt lat="45.09882" lon="5.88499">
        <ele>1626</ele>
        <time>2015-06-20T05:51:40Z</time>
      </trkpt>
      <trkpt lat="45.09884" lon="5.88501">
        <ele>1626</ele>
        <time>2015-06-20T05:51:41Z</time>
      </trkpt>
      <trkpt lat="45.09888" lon="5.88503">
        <ele>1628</ele>
        <time>2015-06-20T05:51:43Z</time>
      </trkpt>
      <trkpt lat="45.0989" lon="5.88505">
        <ele>1628</ele>
        <time>2015-06-20T05:51:44Z</time>
      </trkpt>
      <trkpt lat="45.09892" lon="5.88506">
        <ele>1628</ele>
        <time>2015-06-20T05:51:45Z</time>
      </trkpt>
      <trkpt lat="45.09894" lon="5.88507">
        <ele>1628</ele>
        <time>2015-06-20T05:51:46Z</time>
      </trkpt>
      <trkpt lat="45.09896" lon="5.88508">
        <ele>1628</ele>
        <time>2015-06-20T05:51:47Z</time>
      </trkpt>
      <trkpt lat="45.09898" lon="5.88509">
        <ele>1630</ele>
        <time>2015-06-20T05:51:48Z</time>
      </trkpt>
      <trkpt lat="45.09901" lon="5.88509">
        <ele>1630</ele>
        <time>2015-06-20T05:51:49Z</time>
      </trkpt>
      <trkpt lat="45.09903" lon="5.8851">
        <ele>1630</ele>
        <time>2015-06-20T05:51:50Z</time>
      </trkpt>
      <trkpt lat="45.09905" lon="5.88512">
        <ele>1630</ele>
        <time>2015-06-20T05:51:51Z</time>
      </trkpt>
      <trkpt lat="45.09907" lon="5.88513">
        <ele>1630</ele>
        <time>2015-06-20T05:51:52Z</time>
      </trkpt>
      <trkpt lat="45.09909" lon="5.88514">
        <ele>1630</ele>
        <time>2015-06-20T05:51:53Z</time>
      </trkpt>
      <trkpt lat="45.09911" lon="5.88516">
        <ele>1630</ele>
        <time>2015-06-20T05:51:54Z</time>
      </trkpt>
      <trkpt lat="45.09913" lon="5.88517">
        <ele>1630</ele>
        <time>2015-06-20T05:51:55Z</time>
      </trkpt>
      <trkpt lat="45.09914" lon="5.88519">
        <ele>1630</ele>
        <time>2015-06-20T05:51:56Z</time>
      </trkpt>
      <trkpt lat="45.09916" lon="5.88521">
        <ele>1630</ele>
        <time>2015-06-20T05:51:57Z</time>
      </trkpt>
      <trkpt lat="45.09918" lon="5.88523">
        <ele>1630</ele>
        <time>2015-06-20T05:51:58Z</time>
      </trkpt>
      <trkpt lat="45.0992" lon="5.88526">
        <ele>1630</ele>
        <time>2015-06-20T05:51:59Z</time>
      </trkpt>
      <trkpt lat="45.09922" lon="5.88528">
        <ele>1630</ele>
        <time>2015-06-20T05:52:00Z</time>
      </trkpt>
      <trkpt lat="45.09924" lon="5.8853">
        <ele>1632</ele>
        <time>2015-06-20T05:52:01Z</time>
      </trkpt>
      <trkpt lat="45.09925" lon="5.88533">
        <ele>1632</ele>
        <time>2015-06-20T05:52:02Z</time>
      </trkpt>
      <trkpt lat="45.09926" lon="5.88536">
        <ele>1632</ele>
        <time>2015-06-20T05:52:03Z</time>
      </trkpt>
      <trkpt lat="45.09928" lon="5.88538">
        <ele>1632</ele>
        <time>2015-06-20T05:52:04Z</time>
      </trkpt>
      <trkpt lat="45.09929" lon="5.88541">
        <ele>1632</ele>
        <time>2015-06-20T05:52:05Z</time>
      </trkpt>
      <trkpt lat="45.09931" lon="5.88544">
        <ele>1632</ele>
        <time>2015-06-20T05:52:06Z</time>
      </trkpt>
      <trkpt lat="45.09932" lon="5.88548">
        <ele>1632</ele>
        <time>2015-06-20T05:52:07Z</time>
      </trkpt>
      <trkpt lat="45.09933" lon="5.8855">
        <ele>1632</ele>
        <time>2015-06-20T05:52:08Z</time>
      </trkpt>
      <trkpt lat="45.09935" lon="5.88553">
        <ele>1632</ele>
        <time>2015-06-20T05:52:09Z</time>
      </trkpt>
      <trkpt lat="45.09937" lon="5.88556">
        <ele>1632</ele>
        <time>2015-06-20T05:52:10Z</time>
      </trkpt>
      <trkpt lat="45.09939" lon="5.88559">
        <ele>1632</ele>
        <time>2015-06-20T05:52:11Z</time>
      </trkpt>
      <trkpt lat="45.0994" lon="5.88561">
        <ele>1634</ele>
        <time>2015-06-20T05:52:12Z</time>
      </trkpt>
      <trkpt lat="45.09942" lon="5.88563">
        <ele>1634</ele>
        <time>2015-06-20T05:52:13Z</time>
      </trkpt>
      <trkpt lat="45.09944" lon="5.88565">
        <ele>1634</ele>
        <time>2015-06-20T05:52:14Z</time>
      </trkpt>
      <trkpt lat="45.09946" lon="5.88567">
        <ele>1634</ele>
        <time>2015-06-20T05:52:15Z</time>
      </trkpt>
      <trkpt lat="45.09948" lon="5.88569">
        <ele>1634</ele>
        <time>2015-06-20T05:52:16Z</time>
      </trkpt>
      <trkpt lat="45.0995" lon="5.88571">
        <ele>1636</ele>
        <time>2015-06-20T05:52:17Z</time>
      </trkpt>
      <trkpt lat="45.09952" lon="5.88573">
        <ele>1636</ele>
        <time>2015-06-20T05:52:18Z</time>
      </trkpt>
      <trkpt lat="45.09954" lon="5.88575">
        <ele>1636</ele>
        <time>2015-06-20T05:52:19Z</time>
      </trkpt>
      <trkpt lat="45.09957" lon="5.88577">
        <ele>1636</ele>
        <time>2015-06-20T05:52:20Z</time>
      </trkpt>
      <trkpt lat="45.09959" lon="5.88579">
        <ele>1636</ele>
        <time>2015-06-20T05:52:21Z</time>
      </trkpt>
      <trkpt lat="45.0996" lon="5.88581">
        <ele>1636</ele>
        <time>2015-06-20T05:52:22Z</time>
      </trkpt>
      <trkpt lat="45.09962" lon="5.88583">
        <ele>1636</ele>
        <time>2015-06-20T05:52:23Z</time>
      </trkpt>
      <trkpt lat="45.09964" lon="5.88585">
        <ele>1636</ele>
        <time>2015-06-20T05:52:24Z</time>
      </trkpt>
      <trkpt lat="45.09965" lon="5.88588">
        <ele>1636</ele>
        <time>2015-06-20T05:52:25Z</time>
      </trkpt>
      <trkpt lat="45.09967" lon="5.88591">
        <ele>1636</ele>
        <time>2015-06-20T05:52:26Z</time>
      </trkpt>
      <trkpt lat="45.09968" lon="5.88593">
        <ele>1637</ele>
        <time>2015-06-20T05:52:27Z</time>
      </trkpt>
      <trkpt lat="45.0997" lon="5.88596">
        <ele>1637</ele>
        <time>2015-06-20T05:52:28Z</time>
      </trkpt>
      <trkpt lat="45.09971" lon="5.88598">
        <ele>1637</ele>
        <time>2015-06-20T05:52:29Z</time>
      </trkpt>
      <trkpt lat="45.09973" lon="5.88601">
        <ele>1637</ele>
        <time>2015-06-20T05:52:30Z</time>
      </trkpt>
      <trkpt lat="45.09975" lon="5.88603">
        <ele>1637</ele>
        <time>2015-06-20T05:52:31Z</time>
      </trkpt>
      <trkpt lat="45.09977" lon="5.88606">
        <ele>1638</ele>
        <time>2015-06-20T05:52:32Z</time>
      </trkpt>
      <trkpt lat="45.0998" lon="5.88608">
        <ele>1638</ele>
        <time>2015-06-20T05:52:33Z</time>
      </trkpt>
      <trkpt lat="45.09983" lon="5.88611">
        <ele>1638</ele>
        <time>2015-06-20T05:52:34Z</time>
      </trkpt>
      <trkpt lat="45.09985" lon="5.88614">
        <ele>1638</ele>
        <time>2015-06-20T05:52:35Z</time>
      </trkpt>
      <trkpt lat="45.09986" lon="5.88617">
        <ele>1638</ele>
        <time>2015-06-20T05:52:36Z</time>
      </trkpt>
      <trkpt lat="45.09988" lon="5.88619">
        <ele>1638</ele>
        <time>2015-06-20T05:52:37Z</time>
      </trkpt>
      <trkpt lat="45.0999" lon="5.88621">
        <ele>1638</ele>
        <time>2015-06-20T05:52:38Z</time>
      </trkpt>
      <trkpt lat="45.09992" lon="5.88624">
        <ele>1638</ele>
        <time>2015-06-20T05:52:39Z</time>
      </trkpt>
      <trkpt lat="45.09994" lon="5.88627">
        <ele>1638</ele>
        <time>2015-06-20T05:52:40Z</time>
      </trkpt>
      <trkpt lat="45.09996" lon="5.88629">
        <ele>1638</ele>
        <time>2015-06-20T05:52:41Z</time>
      </trkpt>
      <trkpt lat="45.09998" lon="5.88631">
        <ele>1639</ele>
        <time>2015-06-20T05:52:42Z</time>
      </trkpt>
      <trkpt lat="45.1" lon="5.88634">
        <ele>1639</ele>
        <time>2015-06-20T05:52:43Z</time>
      </trkpt>
      <trkpt lat="45.10002" lon="5.88636">
        <ele>1639</ele>
        <time>2015-06-20T05:52:44Z</time>
      </trkpt>
      <trkpt lat="45.10004" lon="5.88638">
        <ele>1639</ele>
        <time>2015-06-20T05:52:45Z</time>
      </trkpt>
      <trkpt lat="45.10005" lon="5.88641">
        <ele>1639</ele>
        <time>2015-06-20T05:52:46Z</time>
      </trkpt>
      <trkpt lat="45.10007" lon="5.88643">
        <ele>1639</ele>
        <time>2015-06-20T05:52:47Z</time>
      </trkpt>
      <trkpt lat="45.10008" lon="5.88646">
        <ele>1639</ele>
        <time>2015-06-20T05:52:48Z</time>
      </trkpt>
      <trkpt lat="45.1001" lon="5.88648">
        <ele>1639</ele>
        <time>2015-06-20T05:52:49Z</time>
      </trkpt>
      <trkpt lat="45.10012" lon="5.88651">
        <ele>1639</ele>
        <time>2015-06-20T05:52:50Z</time>
      </trkpt>
      <trkpt lat="45.10014" lon="5.88653">
        <ele>1639</ele>
        <time>2015-06-20T05:52:51Z</time>
      </trkpt>
      <trkpt lat="45.10016" lon="5.88656">
        <ele>1641</ele>
        <time>2015-06-20T05:52:52Z</time>
      </trkpt>
      <trkpt lat="45.10019" lon="5.88658">
        <ele>1641</ele>
        <time>2015-06-20T05:52:53Z</time>
      </trkpt>
      <trkpt lat="45.1002" lon="5.88661">
        <ele>1641</ele>
        <time>2015-06-20T05:52:54Z</time>
      </trkpt>
      <trkpt lat="45.10021" lon="5.88664">
        <ele>1641</ele>
        <time>2015-06-20T05:52:55Z</time>
      </trkpt>
      <trkpt lat="45.10022" lon="5.88667">
        <ele>1641</ele>
        <time>2015-06-20T05:52:56Z</time>
      </trkpt>
      <trkpt lat="45.10023" lon="5.8867">
        <ele>1641</ele>
        <time>2015-06-20T05:52:57Z</time>
      </trkpt>
      <trkpt lat="45.10024" lon="5.88673">
        <ele>1641</ele>
        <time>2015-06-20T05:52:58Z</time>
      </trkpt>
      <trkpt lat="45.10026" lon="5.88676">
        <ele>1641</ele>
        <time>2015-06-20T05:52:59Z</time>
      </trkpt>
      <trkpt lat="45.10027" lon="5.88679">
        <ele>1641</ele>
        <time>2015-06-20T05:53:00Z</time>
      </trkpt>
      <trkpt lat="45.10028" lon="5.88682">
        <ele>1641</ele>
        <time>2015-06-20T05:53:01Z</time>
      </trkpt>
      <trkpt lat="45.1003" lon="5.88685">
        <ele>1641</ele>
        <time>2015-06-20T05:53:02Z</time>
      </trkpt>
      <trkpt lat="45.10031" lon="5.88687">
        <ele>1643</ele>
        <time>2015-06-20T05:53:03Z</time>
      </trkpt>
      <trkpt lat="45.10033" lon="5.8869">
        <ele>1643</ele>
        <time>2015-06-20T05:53:04Z</time>
      </trkpt>
      <trkpt lat="45.10034" lon="5.88693">
        <ele>1643</ele>
        <time>2015-06-20T05:53:05Z</time>
      </trkpt>
      <trkpt lat="45.10036" lon="5.88696">
        <ele>1643</ele>
        <time>2015-06-20T05:53:06Z</time>
      </trkpt>
      <trkpt lat="45.10038" lon="5.88698">
        <ele>1643</ele>
        <time>2015-06-20T05:53:07Z</time>
      </trkpt>
      <trkpt lat="45.1004" lon="5.887">
        <ele>1643</ele>
        <time>2015-06-20T05:53:08Z</time>
      </trkpt>
      <trkpt lat="45.10041" lon="5.88702">
        <ele>1643</ele>
        <time>2015-06-20T05:53:09Z</time>
      </trkpt>
      <trkpt lat="45.10043" lon="5.88703">
        <ele>1643</ele>
        <time>2015-06-20T05:53:10Z</time>
      </trkpt>
      <trkpt lat="45.10046" lon="5.88705">
        <ele>1643</ele>
        <time>2015-06-20T05:53:11Z</time>
      </trkpt>
      <trkpt lat="45.10047" lon="5.88708">
        <ele>1643</ele>
        <time>2015-06-20T05:53:12Z</time>
      </trkpt>
      <trkpt lat="45.10049" lon="5.88711">
        <ele>1644</ele>
        <time>2015-06-20T05:53:13Z</time>
      </trkpt>
      <trkpt lat="45.10051" lon="5.88713">
        <ele>1644</ele>
        <time>2015-06-20T05:53:14Z</time>
      </trkpt>
      <trkpt lat="45.10053" lon="5.88716">
        <ele>1644</ele>
        <time>2015-06-20T05:53:15Z</time>
      </trkpt>
      <trkpt lat="45.10054" lon="5.88718">
        <ele>1644</ele>
        <time>2015-06-20T05:53:16Z</time>
      </trkpt>
      <trkpt lat="45.10056" lon="5.8872">
        <ele>1644</ele>
        <time>2015-06-20T05:53:17Z</time>
      </trkpt>
      <trkpt lat="45.10058" lon="5.88722">
        <ele>1644</ele>
        <time>2015-06-20T05:53:18Z</time>
      </trkpt>
      <trkpt lat="45.1006" lon="5.88724">
        <ele>1644</ele>
        <time>2015-06-20T05:53:19Z</time>
      </trkpt>
      <trkpt lat="45.10061" lon="5.88727">
        <ele>1644</ele>
        <time>2015-06-20T05:53:20Z</time>
      </trkpt>
      <trkpt lat="45.10063" lon="5.8873">
        <ele>1644</ele>
        <time>2015-06-20T05:53:21Z</time>
      </trkpt>
      <trkpt lat="45.10064" lon="5.88732">
        <ele>1644</ele>
        <time>2015-06-20T05:53:22Z</time>
      </trkpt>
      <trkpt lat="45.10066" lon="5.88734">
        <ele>1644</ele>
        <time>2015-06-20T05:53:23Z</time>
      </trkpt>
      <trkpt lat="45.10067" lon="5.88737">
        <ele>1645</ele>
        <time>2015-06-20T05:53:24Z</time>
      </trkpt>
      <trkpt lat="45.10069" lon="5.88739">
        <ele>1645</ele>
        <time>2015-06-20T05:53:25Z</time>
      </trkpt>
      <trkpt lat="45.10071" lon="5.88742">
        <ele>1645</ele>
        <time>2015-06-20T05:53:26Z</time>
      </trkpt>
      <trkpt lat="45.10073" lon="5.88744">
        <ele>1645</ele>
        <time>2015-06-20T05:53:27Z</time>
      </trkpt>
      <trkpt lat="45.10075" lon="5.88747">
        <ele>1645</ele>
        <time>2015-06-20T05:53:28Z</time>
      </trkpt>
      <trkpt lat="45.10076" lon="5.88749">
        <ele>1645</ele>
        <time>2015-06-20T05:53:29Z</time>
      </trkpt>
      <trkpt lat="45.10078" lon="5.88752">
        <ele>1645</ele>
        <time>2015-06-20T05:53:30Z</time>
      </trkpt>
      <trkpt lat="45.10079" lon="5.88755">
        <ele>1645</ele>
        <time>2015-06-20T05:53:31Z</time>
      </trkpt>
      <trkpt lat="45.1008" lon="5.88758">
        <ele>1645</ele>
        <time>2015-06-20T05:53:32Z</time>
      </trkpt>
      <trkpt lat="45.10081" lon="5.8876">
        <ele>1647</ele>
        <time>2015-06-20T05:53:33Z</time>
      </trkpt>
      <trkpt lat="45.10082" lon="5.88762">
        <ele>1647</ele>
        <time>2015-06-20T05:53:34Z</time>
      </trkpt>
      <trkpt lat="45.10083" lon="5.88765">
        <ele>1647</ele>
        <time>2015-06-20T05:53:35Z</time>
      </trkpt>
      <trkpt lat="45.10084" lon="5.88768">
        <ele>1647</ele>
        <time>2015-06-20T05:53:36Z</time>
      </trkpt>
      <trkpt lat="45.10085" lon="5.8877">
        <ele>1647</ele>
        <time>2015-06-20T05:53:37Z</time>
      </trkpt>
      <trkpt lat="45.10085" lon="5.88773">
        <ele>1647</ele>
        <time>2015-06-20T05:53:38Z</time>
      </trkpt>
      <trkpt lat="45.10086" lon="5.88776">
        <ele>1647</ele>
        <time>2015-06-20T05:53:39Z</time>
      </trkpt>
      <trkpt lat="45.10086" lon="5.88779">
        <ele>1647</ele>
        <time>2015-06-20T05:53:40Z</time>
      </trkpt>
      <trkpt lat="45.10088" lon="5.88783">
        <ele>1647</ele>
        <time>2015-06-20T05:53:42Z</time>
      </trkpt>
      <trkpt lat="45.1009" lon="5.88787">
        <ele>1647</ele>
        <time>2015-06-20T05:53:43Z</time>
      </trkpt>
      <trkpt lat="45.10091" lon="5.8879">
        <ele>1649</ele>
        <time>2015-06-20T05:53:44Z</time>
      </trkpt>
      <trkpt lat="45.10093" lon="5.88792">
        <ele>1649</ele>
        <time>2015-06-20T05:53:45Z</time>
      </trkpt>
      <trkpt lat="45.10094" lon="5.88794">
        <ele>1649</ele>
        <time>2015-06-20T05:53:46Z</time>
      </trkpt>
      <trkpt lat="45.10096" lon="5.88797">
        <ele>1649</ele>
        <time>2015-06-20T05:53:47Z</time>
      </trkpt>
      <trkpt lat="45.10098" lon="5.88799">
        <ele>1649</ele>
        <time>2015-06-20T05:53:48Z</time>
      </trkpt>
      <trkpt lat="45.101" lon="5.88802">
        <ele>1650</ele>
        <time>2015-06-20T05:53:49Z</time>
      </trkpt>
      <trkpt lat="45.10102" lon="5.88804">
        <ele>1650</ele>
        <time>2015-06-20T05:53:50Z</time>
      </trkpt>
      <trkpt lat="45.10104" lon="5.88806">
        <ele>1650</ele>
        <time>2015-06-20T05:53:51Z</time>
      </trkpt>
      <trkpt lat="45.10106" lon="5.88809">
        <ele>1650</ele>
        <time>2015-06-20T05:53:52Z</time>
      </trkpt>
      <trkpt lat="45.10108" lon="5.88811">
        <ele>1650</ele>
        <time>2015-06-20T05:53:53Z</time>
      </trkpt>
      <trkpt lat="45.1011" lon="5.88814">
        <ele>1651</ele>
        <time>2015-06-20T05:53:54Z</time>
      </trkpt>
      <trkpt lat="45.10112" lon="5.88817">
        <ele>1651</ele>
        <time>2015-06-20T05:53:55Z</time>
      </trkpt>
      <trkpt lat="45.10113" lon="5.88819">
        <ele>1651</ele>
        <time>2015-06-20T05:53:56Z</time>
      </trkpt>
      <trkpt lat="45.10115" lon="5.88823">
        <ele>1651</ele>
        <time>2015-06-20T05:53:57Z</time>
      </trkpt>
      <trkpt lat="45.10116" lon="5.88825">
        <ele>1651</ele>
        <time>2015-06-20T05:53:58Z</time>
      </trkpt>
      <trkpt lat="45.10117" lon="5.88827">
        <ele>1651</ele>
        <time>2015-06-20T05:53:59Z</time>
      </trkpt>
      <trkpt lat="45.10119" lon="5.8883">
        <ele>1651</ele>
        <time>2015-06-20T05:54:00Z</time>
      </trkpt>
      <trkpt lat="45.10121" lon="5.88832">
        <ele>1651</ele>
        <time>2015-06-20T05:54:01Z</time>
      </trkpt>
      <trkpt lat="45.10122" lon="5.88834">
        <ele>1652</ele>
        <time>2015-06-20T05:54:02Z</time>
      </trkpt>
      <trkpt lat="45.10125" lon="5.88837">
        <ele>1652</ele>
        <time>2015-06-20T05:54:04Z</time>
      </trkpt>
      <trkpt lat="45.10127" lon="5.8884">
        <ele>1652</ele>
        <time>2015-06-20T05:54:05Z</time>
      </trkpt>
      <trkpt lat="45.1013" lon="5.88842">
        <ele>1652</ele>
        <time>2015-06-20T05:54:06Z</time>
      </trkpt>
      <trkpt lat="45.10131" lon="5.88844">
        <ele>1652</ele>
        <time>2015-06-20T05:54:07Z</time>
      </trkpt>
      <trkpt lat="45.10133" lon="5.88847">
        <ele>1652</ele>
        <time>2015-06-20T05:54:08Z</time>
      </trkpt>
      <trkpt lat="45.10135" lon="5.88849">
        <ele>1652</ele>
        <time>2015-06-20T05:54:09Z</time>
      </trkpt>
      <trkpt lat="45.10137" lon="5.88851">
        <ele>1652</ele>
        <time>2015-06-20T05:54:10Z</time>
      </trkpt>
      <trkpt lat="45.10139" lon="5.88854">
        <ele>1652</ele>
        <time>2015-06-20T05:54:11Z</time>
      </trkpt>
      <trkpt lat="45.1014" lon="5.88856">
        <ele>1652</ele>
        <time>2015-06-20T05:54:12Z</time>
      </trkpt>
      <trkpt lat="45.10141" lon="5.88859">
        <ele>1654</ele>
        <time>2015-06-20T05:54:13Z</time>
      </trkpt>
      <trkpt lat="45.10144" lon="5.88862">
        <ele>1654</ele>
        <time>2015-06-20T05:54:15Z</time>
      </trkpt>
      <trkpt lat="45.10145" lon="5.88864">
        <ele>1654</ele>
        <time>2015-06-20T05:54:16Z</time>
      </trkpt>
      <trkpt lat="45.10147" lon="5.88866">
        <ele>1654</ele>
        <time>2015-06-20T05:54:17Z</time>
      </trkpt>
      <trkpt lat="45.10149" lon="5.88869">
        <ele>1654</ele>
        <time>2015-06-20T05:54:19Z</time>
      </trkpt>
      <trkpt lat="45.10151" lon="5.88871">
        <ele>1656</ele>
        <time>2015-06-20T05:54:20Z</time>
      </trkpt>
      <trkpt lat="45.10153" lon="5.88873">
        <ele>1656</ele>
        <time>2015-06-20T05:54:21Z</time>
      </trkpt>
      <trkpt lat="45.10155" lon="5.88875">
        <ele>1656</ele>
        <time>2015-06-20T05:54:22Z</time>
      </trkpt>
      <trkpt lat="45.10156" lon="5.88877">
        <ele>1657</ele>
        <time>2015-06-20T05:54:23Z</time>
      </trkpt>
      <trkpt lat="45.10158" lon="5.88879">
        <ele>1657</ele>
        <time>2015-06-20T05:54:24Z</time>
      </trkpt>
      <trkpt lat="45.10159" lon="5.88881">
        <ele>1657</ele>
        <time>2015-06-20T05:54:25Z</time>
      </trkpt>
      <trkpt lat="45.1016" lon="5.88883">
        <ele>1657</ele>
        <time>2015-06-20T05:54:26Z</time>
      </trkpt>
      <trkpt lat="45.10163" lon="5.88886">
        <ele>1657</ele>
        <time>2015-06-20T05:54:28Z</time>
      </trkpt>
      <trkpt lat="45.10164" lon="5.88888">
        <ele>1658</ele>
        <time>2015-06-20T05:54:29Z</time>
      </trkpt>
      <trkpt lat="45.10166" lon="5.88892">
        <ele>1658</ele>
        <time>2015-06-20T05:54:31Z</time>
      </trkpt>
      <trkpt lat="45.10168" lon="5.88895">
        <ele>1659</ele>
        <time>2015-06-20T05:54:33Z</time>
      </trkpt>
      <trkpt lat="45.10169" lon="5.88899">
        <ele>1659</ele>
        <time>2015-06-20T05:54:35Z</time>
      </trkpt>
      <trkpt lat="45.10171" lon="5.88902">
        <ele>1659</ele>
        <time>2015-06-20T05:54:37Z</time>
      </trkpt>
      <trkpt lat="45.10174" lon="5.88904">
        <ele>1659</ele>
        <time>2015-06-20T05:54:39Z</time>
      </trkpt>
      <trkpt lat="45.10176" lon="5.88906">
        <ele>1659</ele>
        <time>2015-06-20T05:54:41Z</time>
      </trkpt>
      <trkpt lat="45.10179" lon="5.88909">
        <ele>1661</ele>
        <time>2015-06-20T05:54:43Z</time>
      </trkpt>
      <trkpt lat="45.1018" lon="5.88913">
        <ele>1661</ele>
        <time>2015-06-20T05:54:45Z</time>
      </trkpt>
      <trkpt lat="45.1018" lon="5.88916">
        <ele>1661</ele>
        <time>2015-06-20T05:54:47Z</time>
      </trkpt>
      <trkpt lat="45.10181" lon="5.8892">
        <ele>1661</ele>
        <time>2015-06-20T05:54:49Z</time>
      </trkpt>
      <trkpt lat="45.10181" lon="5.88924">
        <ele>1661</ele>
        <time>2015-06-20T05:54:51Z</time>
      </trkpt>
      <trkpt lat="45.10182" lon="5.88928">
        <ele>1665</ele>
        <time>2015-06-20T05:54:53Z</time>
      </trkpt>
      <trkpt lat="45.10183" lon="5.88932">
        <ele>1665</ele>
        <time>2015-06-20T05:54:55Z</time>
      </trkpt>
      <trkpt lat="45.10182" lon="5.88936">
        <ele>1665</ele>
        <time>2015-06-20T05:54:57Z</time>
      </trkpt>
      <trkpt lat="45.10181" lon="5.88939">
        <ele>1665</ele>
        <time>2015-06-20T05:54:59Z</time>
      </trkpt>
      <trkpt lat="45.1018" lon="5.88943">
        <ele>1668</ele>
        <time>2015-06-20T05:55:01Z</time>
      </trkpt>
      <trkpt lat="45.1018" lon="5.88946">
        <ele>1668</ele>
        <time>2015-06-20T05:55:03Z</time>
      </trkpt>
      <trkpt lat="45.10181" lon="5.88949">
        <ele>1668</ele>
        <time>2015-06-20T05:55:05Z</time>
      </trkpt>
      <trkpt lat="45.10182" lon="5.88953">
        <ele>1668</ele>
        <time>2015-06-20T05:55:07Z</time>
      </trkpt>
      <trkpt lat="45.10183" lon="5.88957">
        <ele>1668</ele>
        <time>2015-06-20T05:55:09Z</time>
      </trkpt>
      <trkpt lat="45.10184" lon="5.8896">
        <ele>1672</ele>
        <time>2015-06-20T05:55:11Z</time>
      </trkpt>
      <trkpt lat="45.10186" lon="5.88962">
        <ele>1673</ele>
        <time>2015-06-20T05:55:13Z</time>
      </trkpt>
      <trkpt lat="45.10188" lon="5.88963">
        <ele>1673</ele>
        <time>2015-06-20T05:55:15Z</time>
      </trkpt>
      <trkpt lat="45.1019" lon="5.88965">
        <ele>1673</ele>
        <time>2015-06-20T05:55:17Z</time>
      </trkpt>
      <trkpt lat="45.10193" lon="5.88967">
        <ele>1673</ele>
        <time>2015-06-20T05:55:19Z</time>
      </trkpt>
      <trkpt lat="45.10194" lon="5.88968">
        <ele>1675</ele>
        <time>2015-06-20T05:55:21Z</time>
      </trkpt>
      <trkpt lat="45.10197" lon="5.8897">
        <ele>1677</ele>
        <time>2015-06-20T05:55:23Z</time>
      </trkpt>
      <trkpt lat="45.102" lon="5.88971">
        <ele>1677</ele>
        <time>2015-06-20T05:55:25Z</time>
      </trkpt>
      <trkpt lat="45.10202" lon="5.88972">
        <ele>1677</ele>
        <time>2015-06-20T05:55:27Z</time>
      </trkpt>
      <trkpt lat="45.10204" lon="5.88974">
        <ele>1677</ele>
        <time>2015-06-20T05:55:29Z</time>
      </trkpt>
      <trkpt lat="45.10207" lon="5.88977">
        <ele>1677</ele>
        <time>2015-06-20T05:55:31Z</time>
      </trkpt>
      <trkpt lat="45.10209" lon="5.88979">
        <ele>1679</ele>
        <time>2015-06-20T05:55:33Z</time>
      </trkpt>
      <trkpt lat="45.10212" lon="5.88981">
        <ele>1679</ele>
        <time>2015-06-20T05:55:35Z</time>
      </trkpt>
      <trkpt lat="45.10213" lon="5.88984">
        <ele>1679</ele>
        <time>2015-06-20T05:55:37Z</time>
      </trkpt>
      <trkpt lat="45.10215" lon="5.88986">
        <ele>1679</ele>
        <time>2015-06-20T05:55:38Z</time>
      </trkpt>
      <trkpt lat="45.10216" lon="5.88988">
        <ele>1681</ele>
        <time>2015-06-20T05:55:39Z</time>
      </trkpt>
      <trkpt lat="45.10217" lon="5.8899">
        <ele>1681</ele>
        <time>2015-06-20T05:55:40Z</time>
      </trkpt>
      <trkpt lat="45.10219" lon="5.88993">
        <ele>1681</ele>
        <time>2015-06-20T05:55:41Z</time>
      </trkpt>
      <trkpt lat="45.1022" lon="5.88995">
        <ele>1681</ele>
        <time>2015-06-20T05:55:42Z</time>
      </trkpt>
      <trkpt lat="45.10222" lon="5.88997">
        <ele>1681</ele>
        <time>2015-06-20T05:55:43Z</time>
      </trkpt>
      <trkpt lat="45.10224" lon="5.88999">
        <ele>1681</ele>
        <time>2015-06-20T05:55:44Z</time>
      </trkpt>
      <trkpt lat="45.10226" lon="5.89001">
        <ele>1681</ele>
        <time>2015-06-20T05:55:45Z</time>
      </trkpt>
      <trkpt lat="45.10227" lon="5.89003">
        <ele>1681</ele>
        <time>2015-06-20T05:55:46Z</time>
      </trkpt>
      <trkpt lat="45.10229" lon="5.89006">
        <ele>1681</ele>
        <time>2015-06-20T05:55:47Z</time>
      </trkpt>
      <trkpt lat="45.10231" lon="5.89008">
        <ele>1682</ele>
        <time>2015-06-20T05:55:48Z</time>
      </trkpt>
      <trkpt lat="45.10232" lon="5.89011">
        <ele>1682</ele>
        <time>2015-06-20T05:55:49Z</time>
      </trkpt>
      <trkpt lat="45.10234" lon="5.89014">
        <ele>1682</ele>
        <time>2015-06-20T05:55:50Z</time>
      </trkpt>
      <trkpt lat="45.10235" lon="5.89016">
        <ele>1682</ele>
        <time>2015-06-20T05:55:51Z</time>
      </trkpt>
      <trkpt lat="45.10236" lon="5.89019">
        <ele>1682</ele>
        <time>2015-06-20T05:55:52Z</time>
      </trkpt>
      <trkpt lat="45.10238" lon="5.89022">
        <ele>1682</ele>
        <time>2015-06-20T05:55:53Z</time>
      </trkpt>
      <trkpt lat="45.10239" lon="5.89026">
        <ele>1682</ele>
        <time>2015-06-20T05:55:54Z</time>
      </trkpt>
      <trkpt lat="45.1024" lon="5.89029">
        <ele>1682</ele>
        <time>2015-06-20T05:55:55Z</time>
      </trkpt>
      <trkpt lat="45.10242" lon="5.89033">
        <ele>1682</ele>
        <time>2015-06-20T05:55:56Z</time>
      </trkpt>
      <trkpt lat="45.10243" lon="5.89037">
        <ele>1682</ele>
        <time>2015-06-20T05:55:57Z</time>
      </trkpt>
      <trkpt lat="45.10244" lon="5.8904">
        <ele>1682</ele>
        <time>2015-06-20T05:55:58Z</time>
      </trkpt>
      <trkpt lat="45.10246" lon="5.89043">
        <ele>1682</ele>
        <time>2015-06-20T05:55:59Z</time>
      </trkpt>
      <trkpt lat="45.10247" lon="5.89046">
        <ele>1682</ele>
        <time>2015-06-20T05:56:00Z</time>
      </trkpt>
      <trkpt lat="45.10249" lon="5.89049">
        <ele>1682</ele>
        <time>2015-06-20T05:56:01Z</time>
      </trkpt>
      <trkpt lat="45.1025" lon="5.89052">
        <ele>1682</ele>
        <time>2015-06-20T05:56:02Z</time>
      </trkpt>
      <trkpt lat="45.10251" lon="5.89056">
        <ele>1682</ele>
        <time>2015-06-20T05:56:03Z</time>
      </trkpt>
      <trkpt lat="45.10252" lon="5.8906">
        <ele>1682</ele>
        <time>2015-06-20T05:56:04Z</time>
      </trkpt>
      <trkpt lat="45.10252" lon="5.89064">
        <ele>1682</ele>
        <time>2015-06-20T05:56:05Z</time>
      </trkpt>
      <trkpt lat="45.10253" lon="5.89067">
        <ele>1682</ele>
        <time>2015-06-20T05:56:06Z</time>
      </trkpt>
      <trkpt lat="45.10254" lon="5.8907">
        <ele>1682</ele>
        <time>2015-06-20T05:56:07Z</time>
      </trkpt>
      <trkpt lat="45.10254" lon="5.89073">
        <ele>1682</ele>
        <time>2015-06-20T05:56:08Z</time>
      </trkpt>
      <trkpt lat="45.10255" lon="5.89076">
        <ele>1682</ele>
        <time>2015-06-20T05:56:09Z</time>
      </trkpt>
      <trkpt lat="45.10257" lon="5.89079">
        <ele>1682</ele>
        <time>2015-06-20T05:56:10Z</time>
      </trkpt>
      <trkpt lat="45.10258" lon="5.89082">
        <ele>1682</ele>
        <time>2015-06-20T05:56:11Z</time>
      </trkpt>
      <trkpt lat="45.10259" lon="5.89085">
        <ele>1682</ele>
        <time>2015-06-20T05:56:12Z</time>
      </trkpt>
      <trkpt lat="45.10259" lon="5.89088">
        <ele>1682</ele>
        <time>2015-06-20T05:56:13Z</time>
      </trkpt>
      <trkpt lat="45.1026" lon="5.89094">
        <ele>1682</ele>
        <time>2015-06-20T05:56:15Z</time>
      </trkpt>
      <trkpt lat="45.1026" lon="5.89097">
        <ele>1682</ele>
        <time>2015-06-20T05:56:16Z</time>
      </trkpt>
      <trkpt lat="45.10261" lon="5.891">
        <ele>1682</ele>
        <time>2015-06-20T05:56:17Z</time>
      </trkpt>
      <trkpt lat="45.10262" lon="5.89102">
        <ele>1682</ele>
        <time>2015-06-20T05:56:18Z</time>
      </trkpt>
      <trkpt lat="45.10263" lon="5.89105">
        <ele>1682</ele>
        <time>2015-06-20T05:56:19Z</time>
      </trkpt>
      <trkpt lat="45.10265" lon="5.89109">
        <ele>1682</ele>
        <time>2015-06-20T05:56:21Z</time>
      </trkpt>
      <trkpt lat="45.10265" lon="5.89112">
        <ele>1683</ele>
        <time>2015-06-20T05:56:22Z</time>
      </trkpt>
      <trkpt lat="45.10266" lon="5.89115">
        <ele>1683</ele>
        <time>2015-06-20T05:56:23Z</time>
      </trkpt>
      <trkpt lat="45.10267" lon="5.89119">
        <ele>1683</ele>
        <time>2015-06-20T05:56:24Z</time>
      </trkpt>
      <trkpt lat="45.10268" lon="5.89122">
        <ele>1683</ele>
        <time>2015-06-20T05:56:25Z</time>
      </trkpt>
      <trkpt lat="45.10269" lon="5.89125">
        <ele>1683</ele>
        <time>2015-06-20T05:56:26Z</time>
      </trkpt>
      <trkpt lat="45.1027" lon="5.89128">
        <ele>1683</ele>
        <time>2015-06-20T05:56:27Z</time>
      </trkpt>
      <trkpt lat="45.10272" lon="5.89131">
        <ele>1683</ele>
        <time>2015-06-20T05:56:28Z</time>
      </trkpt>
      <trkpt lat="45.10273" lon="5.89134">
        <ele>1683</ele>
        <time>2015-06-20T05:56:29Z</time>
      </trkpt>
      <trkpt lat="45.10274" lon="5.89137">
        <ele>1683</ele>
        <time>2015-06-20T05:56:30Z</time>
      </trkpt>
      <trkpt lat="45.10275" lon="5.8914">
        <ele>1683</ele>
        <time>2015-06-20T05:56:31Z</time>
      </trkpt>
      <trkpt lat="45.10276" lon="5.89143">
        <ele>1684</ele>
        <time>2015-06-20T05:56:32Z</time>
      </trkpt>
      <trkpt lat="45.10278" lon="5.89146">
        <ele>1684</ele>
        <time>2015-06-20T05:56:33Z</time>
      </trkpt>
      <trkpt lat="45.10279" lon="5.89149">
        <ele>1684</ele>
        <time>2015-06-20T05:56:34Z</time>
      </trkpt>
      <trkpt lat="45.10281" lon="5.89151">
        <ele>1684</ele>
        <time>2015-06-20T05:56:35Z</time>
      </trkpt>
      <trkpt lat="45.10282" lon="5.89153">
        <ele>1684</ele>
        <time>2015-06-20T05:56:36Z</time>
      </trkpt>
      <trkpt lat="45.10282" lon="5.89156">
        <ele>1684</ele>
        <time>2015-06-20T05:56:37Z</time>
      </trkpt>
      <trkpt lat="45.10284" lon="5.89158">
        <ele>1684</ele>
        <time>2015-06-20T05:56:38Z</time>
      </trkpt>
      <trkpt lat="45.10285" lon="5.89161">
        <ele>1684</ele>
        <time>2015-06-20T05:56:39Z</time>
      </trkpt>
      <trkpt lat="45.10286" lon="5.89164">
        <ele>1684</ele>
        <time>2015-06-20T05:56:40Z</time>
      </trkpt>
      <trkpt lat="45.10287" lon="5.89166">
        <ele>1684</ele>
        <time>2015-06-20T05:56:41Z</time>
      </trkpt>
      <trkpt lat="45.10289" lon="5.8917">
        <ele>1686</ele>
        <time>2015-06-20T05:56:43Z</time>
      </trkpt>
      <trkpt lat="45.10291" lon="5.89173">
        <ele>1686</ele>
        <time>2015-06-20T05:56:44Z</time>
      </trkpt>
      <trkpt lat="45.10292" lon="5.89175">
        <ele>1686</ele>
        <time>2015-06-20T05:56:45Z</time>
      </trkpt>
      <trkpt lat="45.10293" lon="5.89177">
        <ele>1686</ele>
        <time>2015-06-20T05:56:46Z</time>
      </trkpt>
      <trkpt lat="45.10295" lon="5.89179">
        <ele>1686</ele>
        <time>2015-06-20T05:56:47Z</time>
      </trkpt>
      <trkpt lat="45.10296" lon="5.89181">
        <ele>1686</ele>
        <time>2015-06-20T05:56:48Z</time>
      </trkpt>
      <trkpt lat="45.10298" lon="5.89183">
        <ele>1686</ele>
        <time>2015-06-20T05:56:49Z</time>
      </trkpt>
      <trkpt lat="45.103" lon="5.89185">
        <ele>1686</ele>
        <time>2015-06-20T05:56:50Z</time>
      </trkpt>
      <trkpt lat="45.10302" lon="5.89189">
        <ele>1686</ele>
        <time>2015-06-20T05:56:52Z</time>
      </trkpt>
      <trkpt lat="45.10303" lon="5.89191">
        <ele>1688</ele>
        <time>2015-06-20T05:56:53Z</time>
      </trkpt>
      <trkpt lat="45.10305" lon="5.89193">
        <ele>1688</ele>
        <time>2015-06-20T05:56:54Z</time>
      </trkpt>
      <trkpt lat="45.10306" lon="5.89195">
        <ele>1688</ele>
        <time>2015-06-20T05:56:55Z</time>
      </trkpt>
      <trkpt lat="45.10309" lon="5.89197">
        <ele>1688</ele>
        <time>2015-06-20T05:56:57Z</time>
      </trkpt>
      <trkpt lat="45.10311" lon="5.89199">
        <ele>1688</ele>
        <time>2015-06-20T05:56:59Z</time>
      </trkpt>
      <trkpt lat="45.10314" lon="5.89199">
        <ele>1691</ele>
        <time>2015-06-20T05:57:01Z</time>
      </trkpt>
      <trkpt lat="45.10316" lon="5.892">
        <ele>1691</ele>
        <time>2015-06-20T05:57:02Z</time>
      </trkpt>
      <trkpt lat="45.10318" lon="5.89201">
        <ele>1692</ele>
        <time>2015-06-20T05:57:03Z</time>
      </trkpt>
      <trkpt lat="45.10319" lon="5.89202">
        <ele>1692</ele>
        <time>2015-06-20T05:57:04Z</time>
      </trkpt>
      <trkpt lat="45.10322" lon="5.89205">
        <ele>1692</ele>
        <time>2015-06-20T05:57:06Z</time>
      </trkpt>
      <trkpt lat="45.10324" lon="5.89207">
        <ele>1694</ele>
        <time>2015-06-20T05:57:08Z</time>
      </trkpt>
      <trkpt lat="45.10326" lon="5.89209">
        <ele>1694</ele>
        <time>2015-06-20T05:57:10Z</time>
      </trkpt>
      <trkpt lat="45.10328" lon="5.89213">
        <ele>1694</ele>
        <time>2015-06-20T05:57:12Z</time>
      </trkpt>
      <trkpt lat="45.1033" lon="5.89215">
        <ele>1696</ele>
        <time>2015-06-20T05:57:14Z</time>
      </trkpt>
      <trkpt lat="45.10332" lon="5.89218">
        <ele>1696</ele>
        <time>2015-06-20T05:57:16Z</time>
      </trkpt>
      <trkpt lat="45.10333" lon="5.89221">
        <ele>1698</ele>
        <time>2015-06-20T05:57:18Z</time>
      </trkpt>
      <trkpt lat="45.10334" lon="5.89224">
        <ele>1698</ele>
        <time>2015-06-20T05:57:20Z</time>
      </trkpt>
      <trkpt lat="45.10335" lon="5.89227">
        <ele>1698</ele>
        <time>2015-06-20T05:57:22Z</time>
      </trkpt>
      <trkpt lat="45.10336" lon="5.8923">
        <ele>1698</ele>
        <time>2015-06-20T05:57:24Z</time>
      </trkpt>
      <trkpt lat="45.10338" lon="5.89232">
        <ele>1698</ele>
        <time>2015-06-20T05:57:26Z</time>
      </trkpt>
      <trkpt lat="45.10341" lon="5.89232">
        <ele>1698</ele>
        <time>2015-06-20T05:57:28Z</time>
      </trkpt>
      <trkpt lat="45.10343" lon="5.89231">
        <ele>1698</ele>
        <time>2015-06-20T05:57:30Z</time>
      </trkpt>
      <trkpt lat="45.10345" lon="5.89231">
        <ele>1698</ele>
        <time>2015-06-20T05:57:32Z</time>
      </trkpt>
      <trkpt lat="45.10347" lon="5.89231">
        <ele>1702</ele>
        <time>2015-06-20T05:57:34Z</time>
      </trkpt>
      <trkpt lat="45.10348" lon="5.89231">
        <ele>1702</ele>
        <time>2015-06-20T05:57:36Z</time>
      </trkpt>
      <trkpt lat="45.10351" lon="5.89232">
        <ele>1704</ele>
        <time>2015-06-20T05:57:38Z</time>
      </trkpt>
      <trkpt lat="45.10354" lon="5.89233">
        <ele>1704</ele>
        <time>2015-06-20T05:57:40Z</time>
      </trkpt>
      <trkpt lat="45.10356" lon="5.89234">
        <ele>1704</ele>
        <time>2015-06-20T05:57:41Z</time>
      </trkpt>
      <trkpt lat="45.10359" lon="5.89235">
        <ele>1706</ele>
        <time>2015-06-20T05:57:43Z</time>
      </trkpt>
      <trkpt lat="45.10361" lon="5.89236">
        <ele>1706</ele>
        <time>2015-06-20T05:57:44Z</time>
      </trkpt>
      <trkpt lat="45.10364" lon="5.89238">
        <ele>1706</ele>
        <time>2015-06-20T05:57:46Z</time>
      </trkpt>
      <trkpt lat="45.10366" lon="5.89239">
        <ele>1708</ele>
        <time>2015-06-20T05:57:48Z</time>
      </trkpt>
      <trkpt lat="45.10368" lon="5.89239">
        <ele>1708</ele>
        <time>2015-06-20T05:57:50Z</time>
      </trkpt>
      <trkpt lat="45.1037" lon="5.8924">
        <ele>1708</ele>
        <time>2015-06-20T05:57:53Z</time>
      </trkpt>
      <trkpt lat="45.10373" lon="5.89241">
        <ele>1708</ele>
        <time>2015-06-20T05:57:55Z</time>
      </trkpt>
      <trkpt lat="45.10375" lon="5.89243">
        <ele>1710</ele>
        <time>2015-06-20T05:57:57Z</time>
      </trkpt>
      <trkpt lat="45.10377" lon="5.89244">
        <ele>1710</ele>
        <time>2015-06-20T05:57:58Z</time>
      </trkpt>
      <trkpt lat="45.1038" lon="5.89245">
        <ele>1710</ele>
        <time>2015-06-20T05:58:00Z</time>
      </trkpt>
      <trkpt lat="45.10382" lon="5.89245">
        <ele>1711</ele>
        <time>2015-06-20T05:58:02Z</time>
      </trkpt>
      <trkpt lat="45.10386" lon="5.89246">
        <ele>1711</ele>
        <time>2015-06-20T05:58:04Z</time>
      </trkpt>
      <trkpt lat="45.10389" lon="5.89245">
        <ele>1711</ele>
        <time>2015-06-20T05:58:06Z</time>
      </trkpt>
      <trkpt lat="45.10391" lon="5.89244">
        <ele>1711</ele>
        <time>2015-06-20T05:58:07Z</time>
      </trkpt>
      <trkpt lat="45.10393" lon="5.89244">
        <ele>1713</ele>
        <time>2015-06-20T05:58:08Z</time>
      </trkpt>
      <trkpt lat="45.10396" lon="5.89242">
        <ele>1713</ele>
        <time>2015-06-20T05:58:10Z</time>
      </trkpt>
      <trkpt lat="45.104" lon="5.8924">
        <ele>1713</ele>
        <time>2015-06-20T05:58:12Z</time>
      </trkpt>
      <trkpt lat="45.10404" lon="5.89239">
        <ele>1714</ele>
        <time>2015-06-20T05:58:13Z</time>
      </trkpt>
      <trkpt lat="45.10407" lon="5.89239">
        <ele>1714</ele>
        <time>2015-06-20T05:58:14Z</time>
      </trkpt>
      <trkpt lat="45.10409" lon="5.8924">
        <ele>1714</ele>
        <time>2015-06-20T05:58:15Z</time>
      </trkpt>
      <trkpt lat="45.10412" lon="5.89241">
        <ele>1714</ele>
        <time>2015-06-20T05:58:16Z</time>
      </trkpt>
      <trkpt lat="45.10414" lon="5.89242">
        <ele>1714</ele>
        <time>2015-06-20T05:58:17Z</time>
      </trkpt>
      <trkpt lat="45.10416" lon="5.89242">
        <ele>1714</ele>
        <time>2015-06-20T05:58:18Z</time>
      </trkpt>
      <trkpt lat="45.10418" lon="5.89243">
        <ele>1714</ele>
        <time>2015-06-20T05:58:19Z</time>
      </trkpt>
      <trkpt lat="45.1042" lon="5.89243">
        <ele>1714</ele>
        <time>2015-06-20T05:58:20Z</time>
      </trkpt>
      <trkpt lat="45.10422" lon="5.89244">
        <ele>1714</ele>
        <time>2015-06-20T05:58:21Z</time>
      </trkpt>
      <trkpt lat="45.10425" lon="5.89245">
        <ele>1714</ele>
        <time>2015-06-20T05:58:23Z</time>
      </trkpt>
      <trkpt lat="45.10427" lon="5.89247">
        <ele>1714</ele>
        <time>2015-06-20T05:58:24Z</time>
      </trkpt>
      <trkpt lat="45.10429" lon="5.89249">
        <ele>1714</ele>
        <time>2015-06-20T05:58:26Z</time>
      </trkpt>
      <trkpt lat="45.10432" lon="5.89251">
        <ele>1716</ele>
        <time>2015-06-20T05:58:28Z</time>
      </trkpt>
      <trkpt lat="45.10434" lon="5.89252">
        <ele>1716</ele>
        <time>2015-06-20T05:58:29Z</time>
      </trkpt>
      <trkpt lat="45.10436" lon="5.89253">
        <ele>1716</ele>
        <time>2015-06-20T05:58:30Z</time>
      </trkpt>
      <trkpt lat="45.10437" lon="5.89254">
        <ele>1716</ele>
        <time>2015-06-20T05:58:31Z</time>
      </trkpt>
      <trkpt lat="45.10439" lon="5.89256">
        <ele>1716</ele>
        <time>2015-06-20T05:58:32Z</time>
      </trkpt>
      <trkpt lat="45.1044" lon="5.89257">
        <ele>1716</ele>
        <time>2015-06-20T05:58:33Z</time>
      </trkpt>
      <trkpt lat="45.10443" lon="5.89259">
        <ele>1716</ele>
        <time>2015-06-20T05:58:34Z</time>
      </trkpt>
      <trkpt lat="45.10445" lon="5.89261">
        <ele>1716</ele>
        <time>2015-06-20T05:58:35Z</time>
      </trkpt>
      <trkpt lat="45.10447" lon="5.89263">
        <ele>1716</ele>
        <time>2015-06-20T05:58:36Z</time>
      </trkpt>
      <trkpt lat="45.10449" lon="5.89265">
        <ele>1718</ele>
        <time>2015-06-20T05:58:37Z</time>
      </trkpt>
      <trkpt lat="45.10451" lon="5.89268">
        <ele>1718</ele>
        <time>2015-06-20T05:58:38Z</time>
      </trkpt>
      <trkpt lat="45.10453" lon="5.8927">
        <ele>1718</ele>
        <time>2015-06-20T05:58:39Z</time>
      </trkpt>
      <trkpt lat="45.10454" lon="5.89272">
        <ele>1718</ele>
        <time>2015-06-20T05:58:40Z</time>
      </trkpt>
      <trkpt lat="45.10456" lon="5.89275">
        <ele>1718</ele>
        <time>2015-06-20T05:58:41Z</time>
      </trkpt>
      <trkpt lat="45.10457" lon="5.89277">
        <ele>1718</ele>
        <time>2015-06-20T05:58:42Z</time>
      </trkpt>
      <trkpt lat="45.10459" lon="5.89279">
        <ele>1718</ele>
        <time>2015-06-20T05:58:43Z</time>
      </trkpt>
      <trkpt lat="45.1046" lon="5.89281">
        <ele>1718</ele>
        <time>2015-06-20T05:58:44Z</time>
      </trkpt>
      <trkpt lat="45.10462" lon="5.89283">
        <ele>1718</ele>
        <time>2015-06-20T05:58:45Z</time>
      </trkpt>
      <trkpt lat="45.10464" lon="5.89286">
        <ele>1718</ele>
        <time>2015-06-20T05:58:46Z</time>
      </trkpt>
      <trkpt lat="45.10466" lon="5.89288">
        <ele>1718</ele>
        <time>2015-06-20T05:58:47Z</time>
      </trkpt>
      <trkpt lat="45.10468" lon="5.89291">
        <ele>1719</ele>
        <time>2015-06-20T05:58:48Z</time>
      </trkpt>
      <trkpt lat="45.1047" lon="5.89293">
        <ele>1719</ele>
        <time>2015-06-20T05:58:49Z</time>
      </trkpt>
      <trkpt lat="45.10472" lon="5.89296">
        <ele>1719</ele>
        <time>2015-06-20T05:58:50Z</time>
      </trkpt>
      <trkpt lat="45.10473" lon="5.89297">
        <ele>1719</ele>
        <time>2015-06-20T05:58:51Z</time>
      </trkpt>
      <trkpt lat="45.10476" lon="5.89299">
        <ele>1721</ele>
        <time>2015-06-20T05:58:52Z</time>
      </trkpt>
      <trkpt lat="45.10478" lon="5.89301">
        <ele>1721</ele>
        <time>2015-06-20T05:58:53Z</time>
      </trkpt>
      <trkpt lat="45.1048" lon="5.89303">
        <ele>1721</ele>
        <time>2015-06-20T05:58:54Z</time>
      </trkpt>
      <trkpt lat="45.10482" lon="5.89306">
        <ele>1721</ele>
        <time>2015-06-20T05:58:55Z</time>
      </trkpt>
      <trkpt lat="45.10484" lon="5.89307">
        <ele>1721</ele>
        <time>2015-06-20T05:58:56Z</time>
      </trkpt>
      <trkpt lat="45.10485" lon="5.89309">
        <ele>1721</ele>
        <time>2015-06-20T05:58:57Z</time>
      </trkpt>
      <trkpt lat="45.10487" lon="5.8931">
        <ele>1721</ele>
        <time>2015-06-20T05:58:58Z</time>
      </trkpt>
      <trkpt lat="45.10488" lon="5.89312">
        <ele>1721</ele>
        <time>2015-06-20T05:58:59Z</time>
      </trkpt>
      <trkpt lat="45.1049" lon="5.89314">
        <ele>1721</ele>
        <time>2015-06-20T05:59:00Z</time>
      </trkpt>
      <trkpt lat="45.10491" lon="5.89315">
        <ele>1721</ele>
        <time>2015-06-20T05:59:01Z</time>
      </trkpt>
      <trkpt lat="45.10493" lon="5.89317">
        <ele>1721</ele>
        <time>2015-06-20T05:59:02Z</time>
      </trkpt>
      <trkpt lat="45.10495" lon="5.89318">
        <ele>1722</ele>
        <time>2015-06-20T05:59:03Z</time>
      </trkpt>
      <trkpt lat="45.10497" lon="5.8932">
        <ele>1722</ele>
        <time>2015-06-20T05:59:04Z</time>
      </trkpt>
      <trkpt lat="45.10498" lon="5.89322">
        <ele>1722</ele>
        <time>2015-06-20T05:59:05Z</time>
      </trkpt>
      <trkpt lat="45.105" lon="5.89323">
        <ele>1722</ele>
        <time>2015-06-20T05:59:06Z</time>
      </trkpt>
      <trkpt lat="45.10503" lon="5.89326">
        <ele>1722</ele>
        <time>2015-06-20T05:59:08Z</time>
      </trkpt>
      <trkpt lat="45.10505" lon="5.89327">
        <ele>1722</ele>
        <time>2015-06-20T05:59:09Z</time>
      </trkpt>
      <trkpt lat="45.10507" lon="5.89329">
        <ele>1722</ele>
        <time>2015-06-20T05:59:11Z</time>
      </trkpt>
      <trkpt lat="45.1051" lon="5.89331">
        <ele>1722</ele>
        <time>2015-06-20T05:59:13Z</time>
      </trkpt>
      <trkpt lat="45.10511" lon="5.89333">
        <ele>1726</ele>
        <time>2015-06-20T05:59:14Z</time>
      </trkpt>
      <trkpt lat="45.10513" lon="5.89337">
        <ele>1726</ele>
        <time>2015-06-20T05:59:16Z</time>
      </trkpt>
      <trkpt lat="45.10515" lon="5.89339">
        <ele>1726</ele>
        <time>2015-06-20T05:59:17Z</time>
      </trkpt>
      <trkpt lat="45.10517" lon="5.89342">
        <ele>1726</ele>
        <time>2015-06-20T05:59:19Z</time>
      </trkpt>
      <trkpt lat="45.10518" lon="5.89345">
        <ele>1726</ele>
        <time>2015-06-20T05:59:21Z</time>
      </trkpt>
      <trkpt lat="45.10519" lon="5.89348">
        <ele>1729</ele>
        <time>2015-06-20T05:59:23Z</time>
      </trkpt>
      <trkpt lat="45.10521" lon="5.8935">
        <ele>1729</ele>
        <time>2015-06-20T05:59:25Z</time>
      </trkpt>
      <trkpt lat="45.10523" lon="5.89355">
        <ele>1729</ele>
        <time>2015-06-20T05:59:27Z</time>
      </trkpt>
      <trkpt lat="45.10523" lon="5.89359">
        <ele>1730</ele>
        <time>2015-06-20T05:59:29Z</time>
      </trkpt>
      <trkpt lat="45.10523" lon="5.89363">
        <ele>1730</ele>
        <time>2015-06-20T05:59:31Z</time>
      </trkpt>
      <trkpt lat="45.10524" lon="5.89366">
        <ele>1730</ele>
        <time>2015-06-20T05:59:33Z</time>
      </trkpt>
      <trkpt lat="45.10525" lon="5.89369">
        <ele>1732</ele>
        <time>2015-06-20T05:59:34Z</time>
      </trkpt>
      <trkpt lat="45.10526" lon="5.89372">
        <ele>1732</ele>
        <time>2015-06-20T05:59:36Z</time>
      </trkpt>
      <trkpt lat="45.10529" lon="5.89374">
        <ele>1734</ele>
        <time>2015-06-20T05:59:38Z</time>
      </trkpt>
      <trkpt lat="45.1053" lon="5.89376">
        <ele>1734</ele>
        <time>2015-06-20T05:59:39Z</time>
      </trkpt>
      <trkpt lat="45.10532" lon="5.89378">
        <ele>1734</ele>
        <time>2015-06-20T05:59:40Z</time>
      </trkpt>
      <trkpt lat="45.10534" lon="5.89382">
        <ele>1735</ele>
        <time>2015-06-20T05:59:42Z</time>
      </trkpt>
      <trkpt lat="45.10535" lon="5.89384">
        <ele>1735</ele>
        <time>2015-06-20T05:59:43Z</time>
      </trkpt>
      <trkpt lat="45.10538" lon="5.89387">
        <ele>1735</ele>
        <time>2015-06-20T05:59:45Z</time>
      </trkpt>
      <trkpt lat="45.1054" lon="5.89389">
        <ele>1735</ele>
        <time>2015-06-20T05:59:47Z</time>
      </trkpt>
      <trkpt lat="45.10543" lon="5.89392">
        <ele>1736</ele>
        <time>2015-06-20T05:59:49Z</time>
      </trkpt>
      <trkpt lat="45.10544" lon="5.89395">
        <ele>1736</ele>
        <time>2015-06-20T05:59:50Z</time>
      </trkpt>
      <trkpt lat="45.10545" lon="5.89397">
        <ele>1736</ele>
        <time>2015-06-20T05:59:51Z</time>
      </trkpt>
      <trkpt lat="45.10546" lon="5.89399">
        <ele>1736</ele>
        <time>2015-06-20T05:59:52Z</time>
      </trkpt>
      <trkpt lat="45.10548" lon="5.89401">
        <ele>1736</ele>
        <time>2015-06-20T05:59:53Z</time>
      </trkpt>
      <trkpt lat="45.1055" lon="5.89405">
        <ele>1736</ele>
        <time>2015-06-20T05:59:55Z</time>
      </trkpt>
      <trkpt lat="45.10551" lon="5.89409">
        <ele>1736</ele>
        <time>2015-06-20T05:59:57Z</time>
      </trkpt>
      <trkpt lat="45.10551" lon="5.89411">
        <ele>1737</ele>
        <time>2015-06-20T05:59:58Z</time>
      </trkpt>
      <trkpt lat="45.10552" lon="5.89416">
        <ele>1738</ele>
        <time>2015-06-20T06:00:00Z</time>
      </trkpt>
      <trkpt lat="45.10554" lon="5.89418">
        <ele>1738</ele>
        <time>2015-06-20T06:00:01Z</time>
      </trkpt>
      <trkpt lat="45.10555" lon="5.89421">
        <ele>1738</ele>
        <time>2015-06-20T06:00:02Z</time>
      </trkpt>
      <trkpt lat="45.10556" lon="5.89424">
        <ele>1739</ele>
        <time>2015-06-20T06:00:03Z</time>
      </trkpt>
      <trkpt lat="45.10557" lon="5.89426">
        <ele>1739</ele>
        <time>2015-06-20T06:00:04Z</time>
      </trkpt>
      <trkpt lat="45.10559" lon="5.89429">
        <ele>1739</ele>
        <time>2015-06-20T06:00:05Z</time>
      </trkpt>
      <trkpt lat="45.10561" lon="5.89432">
        <ele>1739</ele>
        <time>2015-06-20T06:00:06Z</time>
      </trkpt>
      <trkpt lat="45.10562" lon="5.89435">
        <ele>1739</ele>
        <time>2015-06-20T06:00:07Z</time>
      </trkpt>
      <trkpt lat="45.10564" lon="5.89438">
        <ele>1739</ele>
        <time>2015-06-20T06:00:08Z</time>
      </trkpt>
      <trkpt lat="45.10566" lon="5.89441">
        <ele>1739</ele>
        <time>2015-06-20T06:00:09Z</time>
      </trkpt>
      <trkpt lat="45.10567" lon="5.89444">
        <ele>1739</ele>
        <time>2015-06-20T06:00:10Z</time>
      </trkpt>
      <trkpt lat="45.10569" lon="5.89446">
        <ele>1739</ele>
        <time>2015-06-20T06:00:11Z</time>
      </trkpt>
      <trkpt lat="45.10571" lon="5.89449">
        <ele>1739</ele>
        <time>2015-06-20T06:00:12Z</time>
      </trkpt>
      <trkpt lat="45.10573" lon="5.89451">
        <ele>1739</ele>
        <time>2015-06-20T06:00:13Z</time>
      </trkpt>
      <trkpt lat="45.10574" lon="5.89453">
        <ele>1740</ele>
        <time>2015-06-20T06:00:14Z</time>
      </trkpt>
      <trkpt lat="45.10575" lon="5.89455">
        <ele>1740</ele>
        <time>2015-06-20T06:00:15Z</time>
      </trkpt>
      <trkpt lat="45.10578" lon="5.89458">
        <ele>1740</ele>
        <time>2015-06-20T06:00:17Z</time>
      </trkpt>
      <trkpt lat="45.1058" lon="5.89458">
        <ele>1740</ele>
        <time>2015-06-20T06:00:19Z</time>
      </trkpt>
      <trkpt lat="45.10583" lon="5.8946">
        <ele>1740</ele>
        <time>2015-06-20T06:00:21Z</time>
      </trkpt>
      <trkpt lat="45.10585" lon="5.89462">
        <ele>1740</ele>
        <time>2015-06-20T06:00:22Z</time>
      </trkpt>
      <trkpt lat="45.10587" lon="5.89465">
        <ele>1743</ele>
        <time>2015-06-20T06:00:24Z</time>
      </trkpt>
      <trkpt lat="45.10588" lon="5.89469">
        <ele>1743</ele>
        <time>2015-06-20T06:00:26Z</time>
      </trkpt>
      <trkpt lat="45.10587" lon="5.89473">
        <ele>1745</ele>
        <time>2015-06-20T06:00:28Z</time>
      </trkpt>
      <trkpt lat="45.10587" lon="5.89475">
        <ele>1745</ele>
        <time>2015-06-20T06:00:30Z</time>
      </trkpt>
      <trkpt lat="45.10588" lon="5.89478">
        <ele>1747</ele>
        <time>2015-06-20T06:00:32Z</time>
      </trkpt>
      <trkpt lat="45.1059" lon="5.8948">
        <ele>1747</ele>
        <time>2015-06-20T06:00:34Z</time>
      </trkpt>
      <trkpt lat="45.10592" lon="5.89483">
        <ele>1747</ele>
        <time>2015-06-20T06:00:36Z</time>
      </trkpt>
      <trkpt lat="45.10594" lon="5.89485">
        <ele>1749</ele>
        <time>2015-06-20T06:00:38Z</time>
      </trkpt>
      <trkpt lat="45.10594" lon="5.89488">
        <ele>1749</ele>
        <time>2015-06-20T06:00:40Z</time>
      </trkpt>
      <trkpt lat="45.10596" lon="5.8949">
        <ele>1752</ele>
        <time>2015-06-20T06:00:43Z</time>
      </trkpt>
      <trkpt lat="45.10598" lon="5.89492">
        <ele>1752</ele>
        <time>2015-06-20T06:00:45Z</time>
      </trkpt>
      <trkpt lat="45.10599" lon="5.89495">
        <ele>1752</ele>
        <time>2015-06-20T06:00:47Z</time>
      </trkpt>
      <trkpt lat="45.10599" lon="5.89497">
        <ele>1753</ele>
        <time>2015-06-20T06:00:50Z</time>
      </trkpt>
      <trkpt lat="45.10601" lon="5.89499">
        <ele>1753</ele>
        <time>2015-06-20T06:00:52Z</time>
      </trkpt>
      <trkpt lat="45.10603" lon="5.895">
        <ele>1753</ele>
        <time>2015-06-20T06:00:54Z</time>
      </trkpt>
      <trkpt lat="45.10605" lon="5.89502">
        <ele>1755</ele>
        <time>2015-06-20T06:00:58Z</time>
      </trkpt>
      <trkpt lat="45.10606" lon="5.89505">
        <ele>1755</ele>
        <time>2015-06-20T06:01:01Z</time>
      </trkpt>
      <trkpt lat="45.1061" lon="5.89504">
        <ele>1755</ele>
        <time>2015-06-20T06:01:11Z</time>
      </trkpt>
      <trkpt lat="45.10612" lon="5.89503">
        <ele>1760</ele>
        <time>2015-06-20T06:01:13Z</time>
      </trkpt>
      <trkpt lat="45.10615" lon="5.89504">
        <ele>1760</ele>
        <time>2015-06-20T06:01:15Z</time>
      </trkpt>
      <trkpt lat="45.10615" lon="5.89506">
        <ele>1762</ele>
        <time>2015-06-20T06:01:17Z</time>
      </trkpt>
      <trkpt lat="45.10615" lon="5.89509">
        <ele>1762</ele>
        <time>2015-06-20T06:01:20Z</time>
      </trkpt>
      <trkpt lat="45.10618" lon="5.8951">
        <ele>1763</ele>
        <time>2015-06-20T06:01:24Z</time>
      </trkpt>
      <trkpt lat="45.10623" lon="5.89512">
        <ele>1766</ele>
        <time>2015-06-20T06:01:33Z</time>
      </trkpt>
      <trkpt lat="45.10625" lon="5.89512">
        <ele>1766</ele>
        <time>2015-06-20T06:01:36Z</time>
      </trkpt>
      <trkpt lat="45.10627" lon="5.89512">
        <ele>1768</ele>
        <time>2015-06-20T06:01:38Z</time>
      </trkpt>
      <trkpt lat="45.1063" lon="5.89512">
        <ele>1768</ele>
        <time>2015-06-20T06:01:40Z</time>
      </trkpt>
      <trkpt lat="45.10632" lon="5.89512">
        <ele>1770</ele>
        <time>2015-06-20T06:01:43Z</time>
      </trkpt>
      <trkpt lat="45.10634" lon="5.89514">
        <ele>1770</ele>
        <time>2015-06-20T06:01:46Z</time>
      </trkpt>
      <trkpt lat="45.10638" lon="5.89515">
        <ele>1771</ele>
        <time>2015-06-20T06:01:49Z</time>
      </trkpt>
      <trkpt lat="45.10639" lon="5.89517">
        <ele>1771</ele>
        <time>2015-06-20T06:01:51Z</time>
      </trkpt>
      <trkpt lat="45.10641" lon="5.89521">
        <ele>1773</ele>
        <time>2015-06-20T06:01:53Z</time>
      </trkpt>
      <trkpt lat="45.10643" lon="5.89522">
        <ele>1773</ele>
        <time>2015-06-20T06:01:54Z</time>
      </trkpt>
      <trkpt lat="45.10645" lon="5.89524">
        <ele>1773</ele>
        <time>2015-06-20T06:01:55Z</time>
      </trkpt>
      <trkpt lat="45.10646" lon="5.89526">
        <ele>1773</ele>
        <time>2015-06-20T06:01:57Z</time>
      </trkpt>
      <trkpt lat="45.10647" lon="5.89529">
        <ele>1775</ele>
        <time>2015-06-20T06:02:01Z</time>
      </trkpt>
      <trkpt lat="45.10649" lon="5.89532">
        <ele>1776</ele>
        <time>2015-06-20T06:02:04Z</time>
      </trkpt>
      <trkpt lat="45.10649" lon="5.89535">
        <ele>1776</ele>
        <time>2015-06-20T06:02:08Z</time>
      </trkpt>
      <trkpt lat="45.1065" lon="5.89537">
        <ele>1776</ele>
        <time>2015-06-20T06:02:10Z</time>
      </trkpt>
      <trkpt lat="45.10652" lon="5.89541">
        <ele>1778</ele>
        <time>2015-06-20T06:02:13Z</time>
      </trkpt>
      <trkpt lat="45.10653" lon="5.89543">
        <ele>1778</ele>
        <time>2015-06-20T06:02:15Z</time>
      </trkpt>
      <trkpt lat="45.10653" lon="5.89546">
        <ele>1778</ele>
        <time>2015-06-20T06:02:17Z</time>
      </trkpt>
      <trkpt lat="45.10655" lon="5.89548">
        <ele>1780</ele>
        <time>2015-06-20T06:02:19Z</time>
      </trkpt>
      <trkpt lat="45.10657" lon="5.89549">
        <ele>1780</ele>
        <time>2015-06-20T06:02:21Z</time>
      </trkpt>
      <trkpt lat="45.10659" lon="5.8955">
        <ele>1781</ele>
        <time>2015-06-20T06:02:24Z</time>
      </trkpt>
      <trkpt lat="45.1066" lon="5.89552">
        <ele>1781</ele>
        <time>2015-06-20T06:02:27Z</time>
      </trkpt>
      <trkpt lat="45.10662" lon="5.89555">
        <ele>1783</ele>
        <time>2015-06-20T06:02:30Z</time>
      </trkpt>
      <trkpt lat="45.10664" lon="5.89555">
        <ele>1783</ele>
        <time>2015-06-20T06:02:32Z</time>
      </trkpt>
      <trkpt lat="45.10666" lon="5.89556">
        <ele>1787</ele>
        <time>2015-06-20T06:02:37Z</time>
      </trkpt>
      <trkpt lat="45.10668" lon="5.89559">
        <ele>1787</ele>
        <time>2015-06-20T06:02:40Z</time>
      </trkpt>
      <trkpt lat="45.1067" lon="5.8956">
        <ele>1790</ele>
        <time>2015-06-20T06:02:44Z</time>
      </trkpt>
      <trkpt lat="45.10672" lon="5.89562">
        <ele>1791</ele>
        <time>2015-06-20T06:02:47Z</time>
      </trkpt>
      <trkpt lat="45.10673" lon="5.89564">
        <ele>1791</ele>
        <time>2015-06-20T06:02:49Z</time>
      </trkpt>
      <trkpt lat="45.10675" lon="5.89565">
        <ele>1791</ele>
        <time>2015-06-20T06:02:52Z</time>
      </trkpt>
      <trkpt lat="45.10677" lon="5.89567">
        <ele>1791</ele>
        <time>2015-06-20T06:02:55Z</time>
      </trkpt>
      <trkpt lat="45.1068" lon="5.89568">
        <ele>1792</ele>
        <time>2015-06-20T06:02:58Z</time>
      </trkpt>
      <trkpt lat="45.10683" lon="5.89569">
        <ele>1792</ele>
        <time>2015-06-20T06:03:00Z</time>
      </trkpt>
      <trkpt lat="45.10685" lon="5.8957">
        <ele>1795</ele>
        <time>2015-06-20T06:03:02Z</time>
      </trkpt>
      <trkpt lat="45.10688" lon="5.89573">
        <ele>1795</ele>
        <time>2015-06-20T06:03:04Z</time>
      </trkpt>
      <trkpt lat="45.1069" lon="5.89576">
        <ele>1795</ele>
        <time>2015-06-20T06:03:06Z</time>
      </trkpt>
      <trkpt lat="45.10691" lon="5.89578">
        <ele>1795</ele>
        <time>2015-06-20T06:03:09Z</time>
      </trkpt>
      <trkpt lat="45.10693" lon="5.8958">
        <ele>1797</ele>
        <time>2015-06-20T06:03:11Z</time>
      </trkpt>
      <trkpt lat="45.10695" lon="5.89583">
        <ele>1797</ele>
        <time>2015-06-20T06:03:14Z</time>
      </trkpt>
      <trkpt lat="45.10696" lon="5.89586">
        <ele>1797</ele>
        <time>2015-06-20T06:03:16Z</time>
      </trkpt>
      <trkpt lat="45.10699" lon="5.89586">
        <ele>1800</ele>
        <time>2015-06-20T06:03:18Z</time>
      </trkpt>
      <trkpt lat="45.107" lon="5.89587">
        <ele>1800</ele>
        <time>2015-06-20T06:03:20Z</time>
      </trkpt>
      <trkpt lat="45.10702" lon="5.89589">
        <ele>1801</ele>
        <time>2015-06-20T06:03:23Z</time>
      </trkpt>
      <trkpt lat="45.10706" lon="5.8959">
        <ele>1803</ele>
        <time>2015-06-20T06:03:28Z</time>
      </trkpt>
      <trkpt lat="45.10708" lon="5.89592">
        <ele>1803</ele>
        <time>2015-06-20T06:03:30Z</time>
      </trkpt>
      <trkpt lat="45.10711" lon="5.89593">
        <ele>1803</ele>
        <time>2015-06-20T06:03:33Z</time>
      </trkpt>
      <trkpt lat="45.10714" lon="5.89595">
        <ele>1804</ele>
        <time>2015-06-20T06:03:36Z</time>
      </trkpt>
      <trkpt lat="45.10716" lon="5.89596">
        <ele>1804</ele>
        <time>2015-06-20T06:03:38Z</time>
      </trkpt>
      <trkpt lat="45.10718" lon="5.89597">
        <ele>1804</ele>
        <time>2015-06-20T06:03:40Z</time>
      </trkpt>
      <trkpt lat="45.10721" lon="5.89598">
        <ele>1806</ele>
        <time>2015-06-20T06:03:42Z</time>
      </trkpt>
      <trkpt lat="45.10723" lon="5.89601">
        <ele>1806</ele>
        <time>2015-06-20T06:03:44Z</time>
      </trkpt>
      <trkpt lat="45.10726" lon="5.89602">
        <ele>1806</ele>
        <time>2015-06-20T06:03:46Z</time>
      </trkpt>
      <trkpt lat="45.10728" lon="5.89603">
        <ele>1806</ele>
        <time>2015-06-20T06:03:48Z</time>
      </trkpt>
      <trkpt lat="45.10731" lon="5.89603">
        <ele>1806</ele>
        <time>2015-06-20T06:03:50Z</time>
      </trkpt>
      <trkpt lat="45.10733" lon="5.89604">
        <ele>1806</ele>
        <time>2015-06-20T06:03:52Z</time>
      </trkpt>
      <trkpt lat="45.10734" lon="5.89606">
        <ele>1808</ele>
        <time>2015-06-20T06:03:55Z</time>
      </trkpt>
      <trkpt lat="45.10736" lon="5.89608">
        <ele>1808</ele>
        <time>2015-06-20T06:03:57Z</time>
      </trkpt>
      <trkpt lat="45.10737" lon="5.8961">
        <ele>1808</ele>
        <time>2015-06-20T06:03:59Z</time>
      </trkpt>
      <trkpt lat="45.1074" lon="5.89611">
        <ele>1812</ele>
        <time>2015-06-20T06:04:01Z</time>
      </trkpt>
      <trkpt lat="45.10742" lon="5.89612">
        <ele>1812</ele>
        <time>2015-06-20T06:04:03Z</time>
      </trkpt>
      <trkpt lat="45.10743" lon="5.89614">
        <ele>1813</ele>
        <time>2015-06-20T06:04:05Z</time>
      </trkpt>
      <trkpt lat="45.10745" lon="5.89616">
        <ele>1813</ele>
        <time>2015-06-20T06:04:07Z</time>
      </trkpt>
      <trkpt lat="45.10748" lon="5.89619">
        <ele>1814</ele>
        <time>2015-06-20T06:04:09Z</time>
      </trkpt>
      <trkpt lat="45.10749" lon="5.89621">
        <ele>1815</ele>
        <time>2015-06-20T06:04:10Z</time>
      </trkpt>
      <trkpt lat="45.10751" lon="5.89624">
        <ele>1815</ele>
        <time>2015-06-20T06:04:12Z</time>
      </trkpt>
      <trkpt lat="45.10754" lon="5.89627">
        <ele>1815</ele>
        <time>2015-06-20T06:04:14Z</time>
      </trkpt>
      <trkpt lat="45.10756" lon="5.89629">
        <ele>1815</ele>
        <time>2015-06-20T06:04:16Z</time>
      </trkpt>
      <trkpt lat="45.10758" lon="5.89631">
        <ele>1815</ele>
        <time>2015-06-20T06:04:18Z</time>
      </trkpt>
      <trkpt lat="45.10759" lon="5.89634">
        <ele>1817</ele>
        <time>2015-06-20T06:04:20Z</time>
      </trkpt>
      <trkpt lat="45.10761" lon="5.89637">
        <ele>1819</ele>
        <time>2015-06-20T06:04:22Z</time>
      </trkpt>
      <trkpt lat="45.10762" lon="5.89639">
        <ele>1819</ele>
        <time>2015-06-20T06:04:25Z</time>
      </trkpt>
      <trkpt lat="45.10763" lon="5.89641">
        <ele>1819</ele>
        <time>2015-06-20T06:04:27Z</time>
      </trkpt>
      <trkpt lat="45.10765" lon="5.89644">
        <ele>1821</ele>
        <time>2015-06-20T06:04:29Z</time>
      </trkpt>
      <trkpt lat="45.10768" lon="5.89645">
        <ele>1821</ele>
        <time>2015-06-20T06:04:32Z</time>
      </trkpt>
      <trkpt lat="45.10769" lon="5.89647">
        <ele>1824</ele>
        <time>2015-06-20T06:04:35Z</time>
      </trkpt>
      <trkpt lat="45.10772" lon="5.89649">
        <ele>1824</ele>
        <time>2015-06-20T06:04:37Z</time>
      </trkpt>
      <trkpt lat="45.10775" lon="5.89649">
        <ele>1824</ele>
        <time>2015-06-20T06:04:39Z</time>
      </trkpt>
      <trkpt lat="45.10777" lon="5.89648">
        <ele>1824</ele>
        <time>2015-06-20T06:04:41Z</time>
      </trkpt>
      <trkpt lat="45.10779" lon="5.89646">
        <ele>1824</ele>
        <time>2015-06-20T06:04:43Z</time>
      </trkpt>
      <trkpt lat="45.10781" lon="5.89647">
        <ele>1824</ele>
        <time>2015-06-20T06:04:45Z</time>
      </trkpt>
      <trkpt lat="45.10783" lon="5.89649">
        <ele>1823</ele>
        <time>2015-06-20T06:04:47Z</time>
      </trkpt>
      <trkpt lat="45.10786" lon="5.89651">
        <ele>1823</ele>
        <time>2015-06-20T06:04:49Z</time>
      </trkpt>
      <trkpt lat="45.10787" lon="5.89653">
        <ele>1823</ele>
        <time>2015-06-20T06:04:51Z</time>
      </trkpt>
      <trkpt lat="45.10789" lon="5.89656">
        <ele>1823</ele>
        <time>2015-06-20T06:04:55Z</time>
      </trkpt>
      <trkpt lat="45.10791" lon="5.89655">
        <ele>1825</ele>
        <time>2015-06-20T06:04:57Z</time>
      </trkpt>
      <trkpt lat="45.10795" lon="5.89655">
        <ele>1828</ele>
        <time>2015-06-20T06:05:03Z</time>
      </trkpt>
      <trkpt lat="45.10797" lon="5.89655">
        <ele>1828</ele>
        <time>2015-06-20T06:05:05Z</time>
      </trkpt>
      <trkpt lat="45.10799" lon="5.89656">
        <ele>1828</ele>
        <time>2015-06-20T06:05:07Z</time>
      </trkpt>
      <trkpt lat="45.10802" lon="5.89656">
        <ele>1828</ele>
        <time>2015-06-20T06:05:09Z</time>
      </trkpt>
      <trkpt lat="45.10804" lon="5.89655">
        <ele>1828</ele>
        <time>2015-06-20T06:05:11Z</time>
      </trkpt>
      <trkpt lat="45.10805" lon="5.89654">
        <ele>1830</ele>
        <time>2015-06-20T06:05:13Z</time>
      </trkpt>
      <trkpt lat="45.10807" lon="5.89652">
        <ele>1830</ele>
        <time>2015-06-20T06:05:15Z</time>
      </trkpt>
      <trkpt lat="45.1081" lon="5.8965">
        <ele>1831</ele>
        <time>2015-06-20T06:05:20Z</time>
      </trkpt>
      <trkpt lat="45.10812" lon="5.89651">
        <ele>1831</ele>
        <time>2015-06-20T06:05:22Z</time>
      </trkpt>
      <trkpt lat="45.10815" lon="5.8965">
        <ele>1833</ele>
        <time>2015-06-20T06:05:24Z</time>
      </trkpt>
      <trkpt lat="45.10817" lon="5.8965">
        <ele>1833</ele>
        <time>2015-06-20T06:05:26Z</time>
      </trkpt>
      <trkpt lat="45.10819" lon="5.89652">
        <ele>1834</ele>
        <time>2015-06-20T06:05:30Z</time>
      </trkpt>
      <trkpt lat="45.10819" lon="5.89655">
        <ele>1834</ele>
        <time>2015-06-20T06:05:33Z</time>
      </trkpt>
      <trkpt lat="45.10819" lon="5.89659">
        <ele>1836</ele>
        <time>2015-06-20T06:05:35Z</time>
      </trkpt>
      <trkpt lat="45.10819" lon="5.89662">
        <ele>1837</ele>
        <time>2015-06-20T06:05:37Z</time>
      </trkpt>
      <trkpt lat="45.10819" lon="5.89665">
        <ele>1837</ele>
        <time>2015-06-20T06:05:39Z</time>
      </trkpt>
      <trkpt lat="45.1082" lon="5.89667">
        <ele>1839</ele>
        <time>2015-06-20T06:05:41Z</time>
      </trkpt>
      <trkpt lat="45.10822" lon="5.89671">
        <ele>1839</ele>
        <time>2015-06-20T06:05:43Z</time>
      </trkpt>
      <trkpt lat="45.10824" lon="5.89672">
        <ele>1840</ele>
        <time>2015-06-20T06:05:47Z</time>
      </trkpt>
      <trkpt lat="45.10827" lon="5.89672">
        <ele>1840</ele>
        <time>2015-06-20T06:05:49Z</time>
      </trkpt>
      <trkpt lat="45.10829" lon="5.89672">
        <ele>1840</ele>
        <time>2015-06-20T06:05:51Z</time>
      </trkpt>
      <trkpt lat="45.10831" lon="5.89671">
        <ele>1842</ele>
        <time>2015-06-20T06:05:53Z</time>
      </trkpt>
      <trkpt lat="45.10834" lon="5.89674">
        <ele>1842</ele>
        <time>2015-06-20T06:05:55Z</time>
      </trkpt>
      <trkpt lat="45.10836" lon="5.89677">
        <ele>1844</ele>
        <time>2015-06-20T06:05:57Z</time>
      </trkpt>
      <trkpt lat="45.10837" lon="5.89679">
        <ele>1844</ele>
        <time>2015-06-20T06:05:59Z</time>
      </trkpt>
      <trkpt lat="45.1084" lon="5.89682">
        <ele>1844</ele>
        <time>2015-06-20T06:06:01Z</time>
      </trkpt>
      <trkpt lat="45.1084" lon="5.89685">
        <ele>1844</ele>
        <time>2015-06-20T06:06:03Z</time>
      </trkpt>
      <trkpt lat="45.10841" lon="5.89687">
        <ele>1844</ele>
        <time>2015-06-20T06:06:05Z</time>
      </trkpt>
      <trkpt lat="45.10842" lon="5.8969">
        <ele>1846</ele>
        <time>2015-06-20T06:06:07Z</time>
      </trkpt>
      <trkpt lat="45.10843" lon="5.89693">
        <ele>1846</ele>
        <time>2015-06-20T06:06:09Z</time>
      </trkpt>
      <trkpt lat="45.10842" lon="5.89696">
        <ele>1846</ele>
        <time>2015-06-20T06:06:12Z</time>
      </trkpt>
      <trkpt lat="45.10844" lon="5.89698">
        <ele>1846</ele>
        <time>2015-06-20T06:06:14Z</time>
      </trkpt>
      <trkpt lat="45.10845" lon="5.89701">
        <ele>1846</ele>
        <time>2015-06-20T06:06:16Z</time>
      </trkpt>
      <trkpt lat="45.10846" lon="5.89705">
        <ele>1849</ele>
        <time>2015-06-20T06:06:18Z</time>
      </trkpt>
      <trkpt lat="45.10847" lon="5.89708">
        <ele>1852</ele>
        <time>2015-06-20T06:06:21Z</time>
      </trkpt>
      <trkpt lat="45.10849" lon="5.89712">
        <ele>1852</ele>
        <time>2015-06-20T06:06:23Z</time>
      </trkpt>
      <trkpt lat="45.1085" lon="5.89715">
        <ele>1852</ele>
        <time>2015-06-20T06:06:25Z</time>
      </trkpt>
      <trkpt lat="45.10851" lon="5.89719">
        <ele>1852</ele>
        <time>2015-06-20T06:06:27Z</time>
      </trkpt>
      <trkpt lat="45.1085" lon="5.89722">
        <ele>1852</ele>
        <time>2015-06-20T06:06:30Z</time>
      </trkpt>
      <trkpt lat="45.1085" lon="5.89725">
        <ele>1854</ele>
        <time>2015-06-20T06:06:32Z</time>
      </trkpt>
      <trkpt lat="45.10851" lon="5.89728">
        <ele>1854</ele>
        <time>2015-06-20T06:06:35Z</time>
      </trkpt>
      <trkpt lat="45.10852" lon="5.8973">
        <ele>1855</ele>
        <time>2015-06-20T06:06:38Z</time>
      </trkpt>
      <trkpt lat="45.10852" lon="5.89733">
        <ele>1855</ele>
        <time>2015-06-20T06:06:40Z</time>
      </trkpt>
      <trkpt lat="45.10852" lon="5.89736">
        <ele>1855</ele>
        <time>2015-06-20T06:06:43Z</time>
      </trkpt>
      <trkpt lat="45.10851" lon="5.89739">
        <ele>1857</ele>
        <time>2015-06-20T06:06:46Z</time>
      </trkpt>
      <trkpt lat="45.10849" lon="5.89741">
        <ele>1858</ele>
        <time>2015-06-20T06:06:49Z</time>
      </trkpt>
      <trkpt lat="45.10847" lon="5.89741">
        <ele>1858</ele>
        <time>2015-06-20T06:06:52Z</time>
      </trkpt>
      <trkpt lat="45.10846" lon="5.89745">
        <ele>1860</ele>
        <time>2015-06-20T06:06:55Z</time>
      </trkpt>
      <trkpt lat="45.10848" lon="5.89748">
        <ele>1860</ele>
        <time>2015-06-20T06:06:58Z</time>
      </trkpt>
      <trkpt lat="45.10847" lon="5.8975">
        <ele>1862</ele>
        <time>2015-06-20T06:07:00Z</time>
      </trkpt>
      <trkpt lat="45.10848" lon="5.89753">
        <ele>1862</ele>
        <time>2015-06-20T06:07:02Z</time>
      </trkpt>
      <trkpt lat="45.10849" lon="5.89756">
        <ele>1862</ele>
        <time>2015-06-20T06:07:04Z</time>
      </trkpt>
      <trkpt lat="45.10849" lon="5.8976">
        <ele>1864</ele>
        <time>2015-06-20T06:07:07Z</time>
      </trkpt>
      <trkpt lat="45.1085" lon="5.89763">
        <ele>1864</ele>
        <time>2015-06-20T06:07:10Z</time>
      </trkpt>
      <trkpt lat="45.1085" lon="5.89766">
        <ele>1864</ele>
        <time>2015-06-20T06:07:12Z</time>
      </trkpt>
      <trkpt lat="45.10851" lon="5.89769">
        <ele>1866</ele>
        <time>2015-06-20T06:07:14Z</time>
      </trkpt>
      <trkpt lat="45.1085" lon="5.89773">
        <ele>1866</ele>
        <time>2015-06-20T06:07:16Z</time>
      </trkpt>
      <trkpt lat="45.10852" lon="5.89776">
        <ele>1866</ele>
        <time>2015-06-20T06:07:18Z</time>
      </trkpt>
      <trkpt lat="45.10855" lon="5.89778">
        <ele>1866</ele>
        <time>2015-06-20T06:07:20Z</time>
      </trkpt>
      <trkpt lat="45.10857" lon="5.89783">
        <ele>1866</ele>
        <time>2015-06-20T06:07:22Z</time>
      </trkpt>
      <trkpt lat="45.10858" lon="5.89785">
        <ele>1866</ele>
        <time>2015-06-20T06:07:23Z</time>
      </trkpt>
      <trkpt lat="45.10861" lon="5.89787">
        <ele>1866</ele>
        <time>2015-06-20T06:07:25Z</time>
      </trkpt>
      <trkpt lat="45.10863" lon="5.89789">
        <ele>1866</ele>
        <time>2015-06-20T06:07:26Z</time>
      </trkpt>
      <trkpt lat="45.10864" lon="5.89792">
        <ele>1866</ele>
        <time>2015-06-20T06:07:27Z</time>
      </trkpt>
      <trkpt lat="45.10865" lon="5.89794">
        <ele>1866</ele>
        <time>2015-06-20T06:07:28Z</time>
      </trkpt>
      <trkpt lat="45.10866" lon="5.89796">
        <ele>1866</ele>
        <time>2015-06-20T06:07:29Z</time>
      </trkpt>
      <trkpt lat="45.10868" lon="5.89798">
        <ele>1866</ele>
        <time>2015-06-20T06:07:30Z</time>
      </trkpt>
      <trkpt lat="45.10869" lon="5.898">
        <ele>1866</ele>
        <time>2015-06-20T06:07:31Z</time>
      </trkpt>
      <trkpt lat="45.10871" lon="5.89802">
        <ele>1866</ele>
        <time>2015-06-20T06:07:32Z</time>
      </trkpt>
      <trkpt lat="45.10873" lon="5.89805">
        <ele>1866</ele>
        <time>2015-06-20T06:07:34Z</time>
      </trkpt>
      <trkpt lat="45.10873" lon="5.89808">
        <ele>1866</ele>
        <time>2015-06-20T06:07:36Z</time>
      </trkpt>
      <trkpt lat="45.10874" lon="5.89811">
        <ele>1870</ele>
        <time>2015-06-20T06:07:38Z</time>
      </trkpt>
      <trkpt lat="45.10875" lon="5.89813">
        <ele>1870</ele>
        <time>2015-06-20T06:07:40Z</time>
      </trkpt>
      <trkpt lat="45.10877" lon="5.89816">
        <ele>1870</ele>
        <time>2015-06-20T06:07:42Z</time>
      </trkpt>
      <trkpt lat="45.10879" lon="5.89819">
        <ele>1870</ele>
        <time>2015-06-20T06:07:44Z</time>
      </trkpt>
      <trkpt lat="45.10881" lon="5.89822">
        <ele>1870</ele>
        <time>2015-06-20T06:07:46Z</time>
      </trkpt>
      <trkpt lat="45.10883" lon="5.89825">
        <ele>1870</ele>
        <time>2015-06-20T06:07:48Z</time>
      </trkpt>
      <trkpt lat="45.10886" lon="5.89828">
        <ele>1870</ele>
        <time>2015-06-20T06:07:50Z</time>
      </trkpt>
      <trkpt lat="45.10888" lon="5.89831">
        <ele>1873</ele>
        <time>2015-06-20T06:07:52Z</time>
      </trkpt>
      <trkpt lat="45.10887" lon="5.89834">
        <ele>1873</ele>
        <time>2015-06-20T06:07:54Z</time>
      </trkpt>
      <trkpt lat="45.10889" lon="5.89835">
        <ele>1873</ele>
        <time>2015-06-20T06:07:56Z</time>
      </trkpt>
      <trkpt lat="45.10892" lon="5.89838">
        <ele>1873</ele>
        <time>2015-06-20T06:07:58Z</time>
      </trkpt>
      <trkpt lat="45.10894" lon="5.8984">
        <ele>1873</ele>
        <time>2015-06-20T06:08:00Z</time>
      </trkpt>
      <trkpt lat="45.10896" lon="5.89844">
        <ele>1876</ele>
        <time>2015-06-20T06:08:02Z</time>
      </trkpt>
      <trkpt lat="45.10896" lon="5.89848">
        <ele>1877</ele>
        <time>2015-06-20T06:08:04Z</time>
      </trkpt>
      <trkpt lat="45.10897" lon="5.89851">
        <ele>1877</ele>
        <time>2015-06-20T06:08:06Z</time>
      </trkpt>
      <trkpt lat="45.10897" lon="5.89854">
        <ele>1879</ele>
        <time>2015-06-20T06:08:08Z</time>
      </trkpt>
      <trkpt lat="45.10898" lon="5.89858">
        <ele>1879</ele>
        <time>2015-06-20T06:08:10Z</time>
      </trkpt>
      <trkpt lat="45.10899" lon="5.8986">
        <ele>1879</ele>
        <time>2015-06-20T06:08:12Z</time>
      </trkpt>
      <trkpt lat="45.10898" lon="5.89863">
        <ele>1879</ele>
        <time>2015-06-20T06:08:14Z</time>
      </trkpt>
      <trkpt lat="45.10897" lon="5.89866">
        <ele>1879</ele>
        <time>2015-06-20T06:08:16Z</time>
      </trkpt>
      <trkpt lat="45.10896" lon="5.89869">
        <ele>1879</ele>
        <time>2015-06-20T06:08:18Z</time>
      </trkpt>
      <trkpt lat="45.10896" lon="5.89873">
        <ele>1879</ele>
        <time>2015-06-20T06:08:20Z</time>
      </trkpt>
      <trkpt lat="45.10895" lon="5.89877">
        <ele>1881</ele>
        <time>2015-06-20T06:08:22Z</time>
      </trkpt>
      <trkpt lat="45.10896" lon="5.89881">
        <ele>1881</ele>
        <time>2015-06-20T06:08:23Z</time>
      </trkpt>
      <trkpt lat="45.10896" lon="5.89883">
        <ele>1881</ele>
        <time>2015-06-20T06:08:24Z</time>
      </trkpt>
      <trkpt lat="45.10898" lon="5.89887">
        <ele>1881</ele>
        <time>2015-06-20T06:08:26Z</time>
      </trkpt>
      <trkpt lat="45.109" lon="5.89889">
        <ele>1881</ele>
        <time>2015-06-20T06:08:27Z</time>
      </trkpt>
      <trkpt lat="45.10902" lon="5.89889">
        <ele>1881</ele>
        <time>2015-06-20T06:08:28Z</time>
      </trkpt>
      <trkpt lat="45.10904" lon="5.8989">
        <ele>1881</ele>
        <time>2015-06-20T06:08:29Z</time>
      </trkpt>
      <trkpt lat="45.10907" lon="5.89893">
        <ele>1881</ele>
        <time>2015-06-20T06:08:31Z</time>
      </trkpt>
      <trkpt lat="45.10908" lon="5.89895">
        <ele>1880</ele>
        <time>2015-06-20T06:08:32Z</time>
      </trkpt>
      <trkpt lat="45.10909" lon="5.89898">
        <ele>1880</ele>
        <time>2015-06-20T06:08:33Z</time>
      </trkpt>
      <trkpt lat="45.1091" lon="5.89901">
        <ele>1880</ele>
        <time>2015-06-20T06:08:34Z</time>
      </trkpt>
      <trkpt lat="45.1091" lon="5.89904">
        <ele>1880</ele>
        <time>2015-06-20T06:08:35Z</time>
      </trkpt>
      <trkpt lat="45.10911" lon="5.89906">
        <ele>1880</ele>
        <time>2015-06-20T06:08:36Z</time>
      </trkpt>
      <trkpt lat="45.10912" lon="5.89908">
        <ele>1880</ele>
        <time>2015-06-20T06:08:37Z</time>
      </trkpt>
      <trkpt lat="45.10914" lon="5.8991">
        <ele>1880</ele>
        <time>2015-06-20T06:08:38Z</time>
      </trkpt>
      <trkpt lat="45.10915" lon="5.89914">
        <ele>1880</ele>
        <time>2015-06-20T06:08:40Z</time>
      </trkpt>
      <trkpt lat="45.10916" lon="5.89918">
        <ele>1880</ele>
        <time>2015-06-20T06:08:42Z</time>
      </trkpt>
      <trkpt lat="45.10917" lon="5.89922">
        <ele>1880</ele>
        <time>2015-06-20T06:08:43Z</time>
      </trkpt>
      <trkpt lat="45.10918" lon="5.89926">
        <ele>1880</ele>
        <time>2015-06-20T06:08:44Z</time>
      </trkpt>
      <trkpt lat="45.10919" lon="5.89928">
        <ele>1880</ele>
        <time>2015-06-20T06:08:45Z</time>
      </trkpt>
      <trkpt lat="45.1092" lon="5.8993">
        <ele>1880</ele>
        <time>2015-06-20T06:08:46Z</time>
      </trkpt>
      <trkpt lat="45.10922" lon="5.89931">
        <ele>1880</ele>
        <time>2015-06-20T06:08:47Z</time>
      </trkpt>
      <trkpt lat="45.10924" lon="5.89935">
        <ele>1880</ele>
        <time>2015-06-20T06:08:49Z</time>
      </trkpt>
      <trkpt lat="45.10925" lon="5.89938">
        <ele>1880</ele>
        <time>2015-06-20T06:08:51Z</time>
      </trkpt>
      <trkpt lat="45.10926" lon="5.89941">
        <ele>1880</ele>
        <time>2015-06-20T06:08:53Z</time>
      </trkpt>
      <trkpt lat="45.10927" lon="5.89944">
        <ele>1880</ele>
        <time>2015-06-20T06:08:55Z</time>
      </trkpt>
      <trkpt lat="45.10928" lon="5.89947">
        <ele>1883</ele>
        <time>2015-06-20T06:08:58Z</time>
      </trkpt>
      <trkpt lat="45.10929" lon="5.89949">
        <ele>1885</ele>
        <time>2015-06-20T06:09:01Z</time>
      </trkpt>
      <trkpt lat="45.10931" lon="5.89951">
        <ele>1885</ele>
        <time>2015-06-20T06:09:04Z</time>
      </trkpt>
      <trkpt lat="45.10932" lon="5.89954">
        <ele>1886</ele>
        <time>2015-06-20T06:09:07Z</time>
      </trkpt>
      <trkpt lat="45.10933" lon="5.89957">
        <ele>1886</ele>
        <time>2015-06-20T06:09:09Z</time>
      </trkpt>
      <trkpt lat="45.10932" lon="5.89961">
        <ele>1886</ele>
        <time>2015-06-20T06:09:11Z</time>
      </trkpt>
      <trkpt lat="45.10933" lon="5.89964">
        <ele>1887</ele>
        <time>2015-06-20T06:09:12Z</time>
      </trkpt>
      <trkpt lat="45.10934" lon="5.89969">
        <ele>1887</ele>
        <time>2015-06-20T06:09:14Z</time>
      </trkpt>
      <trkpt lat="45.10936" lon="5.89972">
        <ele>1887</ele>
        <time>2015-06-20T06:09:15Z</time>
      </trkpt>
      <trkpt lat="45.10938" lon="5.89975">
        <ele>1887</ele>
        <time>2015-06-20T06:09:16Z</time>
      </trkpt>
      <trkpt lat="45.1094" lon="5.89977">
        <ele>1887</ele>
        <time>2015-06-20T06:09:17Z</time>
      </trkpt>
      <trkpt lat="45.10943" lon="5.8998">
        <ele>1887</ele>
        <time>2015-06-20T06:09:18Z</time>
      </trkpt>
      <trkpt lat="45.10944" lon="5.89982">
        <ele>1887</ele>
        <time>2015-06-20T06:09:19Z</time>
      </trkpt>
      <trkpt lat="45.10947" lon="5.89982">
        <ele>1887</ele>
        <time>2015-06-20T06:09:21Z</time>
      </trkpt>
      <trkpt lat="45.1095" lon="5.89983">
        <ele>1886</ele>
        <time>2015-06-20T06:09:23Z</time>
      </trkpt>
      <trkpt lat="45.10952" lon="5.89983">
        <ele>1886</ele>
        <time>2015-06-20T06:09:25Z</time>
      </trkpt>
      <trkpt lat="45.10955" lon="5.89983">
        <ele>1886</ele>
        <time>2015-06-20T06:09:27Z</time>
      </trkpt>
      <trkpt lat="45.10958" lon="5.89984">
        <ele>1886</ele>
        <time>2015-06-20T06:09:28Z</time>
      </trkpt>
      <trkpt lat="45.1096" lon="5.89985">
        <ele>1886</ele>
        <time>2015-06-20T06:09:29Z</time>
      </trkpt>
      <trkpt lat="45.10961" lon="5.89986">
        <ele>1886</ele>
        <time>2015-06-20T06:09:30Z</time>
      </trkpt>
      <trkpt lat="45.10965" lon="5.89988">
        <ele>1883</ele>
        <time>2015-06-20T06:09:32Z</time>
      </trkpt>
      <trkpt lat="45.10967" lon="5.89989">
        <ele>1883</ele>
        <time>2015-06-20T06:09:33Z</time>
      </trkpt>
      <trkpt lat="45.10969" lon="5.8999">
        <ele>1883</ele>
        <time>2015-06-20T06:09:34Z</time>
      </trkpt>
      <trkpt lat="45.10972" lon="5.89991">
        <ele>1883</ele>
        <time>2015-06-20T06:09:35Z</time>
      </trkpt>
      <trkpt lat="45.10975" lon="5.89993">
        <ele>1883</ele>
        <time>2015-06-20T06:09:36Z</time>
      </trkpt>
      <trkpt lat="45.10977" lon="5.89995">
        <ele>1881</ele>
        <time>2015-06-20T06:09:37Z</time>
      </trkpt>
      <trkpt lat="45.10978" lon="5.89997">
        <ele>1881</ele>
        <time>2015-06-20T06:09:38Z</time>
      </trkpt>
      <trkpt lat="45.1098" lon="5.89999">
        <ele>1881</ele>
        <time>2015-06-20T06:09:39Z</time>
      </trkpt>
      <trkpt lat="45.10981" lon="5.90001">
        <ele>1881</ele>
        <time>2015-06-20T06:09:40Z</time>
      </trkpt>
      <trkpt lat="45.10983" lon="5.90002">
        <ele>1881</ele>
        <time>2015-06-20T06:09:41Z</time>
      </trkpt>
      <trkpt lat="45.10985" lon="5.90004">
        <ele>1881</ele>
        <time>2015-06-20T06:09:42Z</time>
      </trkpt>
      <trkpt lat="45.10986" lon="5.90006">
        <ele>1881</ele>
        <time>2015-06-20T06:09:43Z</time>
      </trkpt>
      <trkpt lat="45.10987" lon="5.90008">
        <ele>1881</ele>
        <time>2015-06-20T06:09:44Z</time>
      </trkpt>
      <trkpt lat="45.10989" lon="5.9001">
        <ele>1881</ele>
        <time>2015-06-20T06:09:45Z</time>
      </trkpt>
      <trkpt lat="45.1099" lon="5.90012">
        <ele>1881</ele>
        <time>2015-06-20T06:09:46Z</time>
      </trkpt>
      <trkpt lat="45.10992" lon="5.90013">
        <ele>1881</ele>
        <time>2015-06-20T06:09:47Z</time>
      </trkpt>
      <trkpt lat="45.10994" lon="5.90015">
        <ele>1881</ele>
        <time>2015-06-20T06:09:48Z</time>
      </trkpt>
      <trkpt lat="45.10995" lon="5.90016">
        <ele>1881</ele>
        <time>2015-06-20T06:09:49Z</time>
      </trkpt>
      <trkpt lat="45.10998" lon="5.90019">
        <ele>1881</ele>
        <time>2015-06-20T06:09:51Z</time>
      </trkpt>
      <trkpt lat="45.10999" lon="5.90022">
        <ele>1883</ele>
        <time>2015-06-20T06:09:52Z</time>
      </trkpt>
      <trkpt lat="45.11" lon="5.90026">
        <ele>1883</ele>
        <time>2015-06-20T06:09:54Z</time>
      </trkpt>
      <trkpt lat="45.11002" lon="5.9003">
        <ele>1883</ele>
        <time>2015-06-20T06:09:56Z</time>
      </trkpt>
      <trkpt lat="45.11003" lon="5.90034">
        <ele>1883</ele>
        <time>2015-06-20T06:09:58Z</time>
      </trkpt>
      <trkpt lat="45.11005" lon="5.90037">
        <ele>1883</ele>
        <time>2015-06-20T06:10:00Z</time>
      </trkpt>
      <trkpt lat="45.11006" lon="5.90039">
        <ele>1883</ele>
        <time>2015-06-20T06:10:01Z</time>
      </trkpt>
      <trkpt lat="45.11007" lon="5.90043">
        <ele>1887</ele>
        <time>2015-06-20T06:10:03Z</time>
      </trkpt>
      <trkpt lat="45.11009" lon="5.90046">
        <ele>1887</ele>
        <time>2015-06-20T06:10:05Z</time>
      </trkpt>
      <trkpt lat="45.11011" lon="5.90048">
        <ele>1888</ele>
        <time>2015-06-20T06:10:07Z</time>
      </trkpt>
      <trkpt lat="45.11014" lon="5.9005">
        <ele>1888</ele>
        <time>2015-06-20T06:10:08Z</time>
      </trkpt>
      <trkpt lat="45.11016" lon="5.90052">
        <ele>1888</ele>
        <time>2015-06-20T06:10:10Z</time>
      </trkpt>
      <trkpt lat="45.11018" lon="5.90055">
        <ele>1888</ele>
        <time>2015-06-20T06:10:12Z</time>
      </trkpt>
      <trkpt lat="45.11019" lon="5.90056">
        <ele>1890</ele>
        <time>2015-06-20T06:10:14Z</time>
      </trkpt>
      <trkpt lat="45.11021" lon="5.90057">
        <ele>1890</ele>
        <time>2015-06-20T06:10:16Z</time>
      </trkpt>
      <trkpt lat="45.11025" lon="5.90058">
        <ele>1892</ele>
        <time>2015-06-20T06:10:18Z</time>
      </trkpt>
      <trkpt lat="45.11028" lon="5.90061">
        <ele>1892</ele>
        <time>2015-06-20T06:10:20Z</time>
      </trkpt>
      <trkpt lat="45.11031" lon="5.90063">
        <ele>1892</ele>
        <time>2015-06-20T06:10:22Z</time>
      </trkpt>
      <trkpt lat="45.11033" lon="5.90064">
        <ele>1892</ele>
        <time>2015-06-20T06:10:23Z</time>
      </trkpt>
      <trkpt lat="45.11034" lon="5.90065">
        <ele>1892</ele>
        <time>2015-06-20T06:10:24Z</time>
      </trkpt>
      <trkpt lat="45.11036" lon="5.90066">
        <ele>1892</ele>
        <time>2015-06-20T06:10:25Z</time>
      </trkpt>
      <trkpt lat="45.11038" lon="5.90067">
        <ele>1892</ele>
        <time>2015-06-20T06:10:26Z</time>
      </trkpt>
      <trkpt lat="45.11041" lon="5.90067">
        <ele>1892</ele>
        <time>2015-06-20T06:10:28Z</time>
      </trkpt>
      <trkpt lat="45.11043" lon="5.90068">
        <ele>1892</ele>
        <time>2015-06-20T06:10:29Z</time>
      </trkpt>
      <trkpt lat="45.11045" lon="5.90069">
        <ele>1892</ele>
        <time>2015-06-20T06:10:30Z</time>
      </trkpt>
      <trkpt lat="45.11047" lon="5.90071">
        <ele>1892</ele>
        <time>2015-06-20T06:10:31Z</time>
      </trkpt>
      <trkpt lat="45.11049" lon="5.90073">
        <ele>1894</ele>
        <time>2015-06-20T06:10:32Z</time>
      </trkpt>
      <trkpt lat="45.1105" lon="5.90075">
        <ele>1894</ele>
        <time>2015-06-20T06:10:33Z</time>
      </trkpt>
      <trkpt lat="45.11052" lon="5.90079">
        <ele>1894</ele>
        <time>2015-06-20T06:10:35Z</time>
      </trkpt>
      <trkpt lat="45.11053" lon="5.90082">
        <ele>1894</ele>
        <time>2015-06-20T06:10:37Z</time>
      </trkpt>
      <trkpt lat="45.11054" lon="5.90086">
        <ele>1894</ele>
        <time>2015-06-20T06:10:39Z</time>
      </trkpt>
      <trkpt lat="45.11055" lon="5.90091">
        <ele>1894</ele>
        <time>2015-06-20T06:10:41Z</time>
      </trkpt>
      <trkpt lat="45.11055" lon="5.90094">
        <ele>1894</ele>
        <time>2015-06-20T06:10:42Z</time>
      </trkpt>
      <trkpt lat="45.11056" lon="5.90098">
        <ele>1896</ele>
        <time>2015-06-20T06:10:44Z</time>
      </trkpt>
      <trkpt lat="45.11056" lon="5.90101">
        <ele>1896</ele>
        <time>2015-06-20T06:10:45Z</time>
      </trkpt>
      <trkpt lat="45.11057" lon="5.90104">
        <ele>1896</ele>
        <time>2015-06-20T06:10:46Z</time>
      </trkpt>
      <trkpt lat="45.11057" lon="5.90106">
        <ele>1896</ele>
        <time>2015-06-20T06:10:47Z</time>
      </trkpt>
      <trkpt lat="45.11058" lon="5.90108">
        <ele>1896</ele>
        <time>2015-06-20T06:10:48Z</time>
      </trkpt>
      <trkpt lat="45.11061" lon="5.90112">
        <ele>1896</ele>
        <time>2015-06-20T06:10:50Z</time>
      </trkpt>
      <trkpt lat="45.11063" lon="5.90113">
        <ele>1896</ele>
        <time>2015-06-20T06:10:52Z</time>
      </trkpt>
      <trkpt lat="45.11066" lon="5.90114">
        <ele>1896</ele>
        <time>2015-06-20T06:10:54Z</time>
      </trkpt>
      <trkpt lat="45.11068" lon="5.90115">
        <ele>1898</ele>
        <time>2015-06-20T06:10:56Z</time>
      </trkpt>
      <trkpt lat="45.11069" lon="5.90118">
        <ele>1898</ele>
        <time>2015-06-20T06:10:58Z</time>
      </trkpt>
      <trkpt lat="45.11071" lon="5.90119">
        <ele>1898</ele>
        <time>2015-06-20T06:11:01Z</time>
      </trkpt>
      <trkpt lat="45.11073" lon="5.90119">
        <ele>1901</ele>
        <time>2015-06-20T06:11:03Z</time>
      </trkpt>
      <trkpt lat="45.11076" lon="5.90119">
        <ele>1901</ele>
        <time>2015-06-20T06:11:05Z</time>
      </trkpt>
      <trkpt lat="45.11077" lon="5.90118">
        <ele>1901</ele>
        <time>2015-06-20T06:11:07Z</time>
      </trkpt>
      <trkpt lat="45.11079" lon="5.90117">
        <ele>1901</ele>
        <time>2015-06-20T06:11:09Z</time>
      </trkpt>
      <trkpt lat="45.11081" lon="5.90115">
        <ele>1905</ele>
        <time>2015-06-20T06:11:13Z</time>
      </trkpt>
      <trkpt lat="45.11083" lon="5.90115">
        <ele>1906</ele>
        <time>2015-06-20T06:11:16Z</time>
      </trkpt>
      <trkpt lat="45.11085" lon="5.90116">
        <ele>1906</ele>
        <time>2015-06-20T06:11:19Z</time>
      </trkpt>
      <trkpt lat="45.11087" lon="5.90118">
        <ele>1909</ele>
        <time>2015-06-20T06:11:22Z</time>
      </trkpt>
      <trkpt lat="45.11089" lon="5.9012">
        <ele>1909</ele>
        <time>2015-06-20T06:11:25Z</time>
      </trkpt>
      <trkpt lat="45.1109" lon="5.90122">
        <ele>1909</ele>
        <time>2015-06-20T06:11:28Z</time>
      </trkpt>
      <trkpt lat="45.11092" lon="5.90123">
        <ele>1910</ele>
        <time>2015-06-20T06:11:32Z</time>
      </trkpt>
      <trkpt lat="45.11094" lon="5.90122">
        <ele>1912</ele>
        <time>2015-06-20T06:11:35Z</time>
      </trkpt>
      <trkpt lat="45.11096" lon="5.90121">
        <ele>1914</ele>
        <time>2015-06-20T06:11:38Z</time>
      </trkpt>
      <trkpt lat="45.11098" lon="5.90121">
        <ele>1914</ele>
        <time>2015-06-20T06:11:41Z</time>
      </trkpt>
      <trkpt lat="45.111" lon="5.90121">
        <ele>1916</ele>
        <time>2015-06-20T06:11:45Z</time>
      </trkpt>
      <trkpt lat="45.11102" lon="5.90124">
        <ele>1917</ele>
        <time>2015-06-20T06:11:48Z</time>
      </trkpt>
      <trkpt lat="45.11103" lon="5.90126">
        <ele>1917</ele>
        <time>2015-06-20T06:11:50Z</time>
      </trkpt>
      <trkpt lat="45.11104" lon="5.90128">
        <ele>1917</ele>
        <time>2015-06-20T06:11:52Z</time>
      </trkpt>
      <trkpt lat="45.11105" lon="5.9013">
        <ele>1919</ele>
        <time>2015-06-20T06:11:54Z</time>
      </trkpt>
      <trkpt lat="45.11107" lon="5.90131">
        <ele>1919</ele>
        <time>2015-06-20T06:11:56Z</time>
      </trkpt>
      <trkpt lat="45.11109" lon="5.90134">
        <ele>1919</ele>
        <time>2015-06-20T06:11:58Z</time>
      </trkpt>
      <trkpt lat="45.11112" lon="5.90134">
        <ele>1919</ele>
        <time>2015-06-20T06:12:00Z</time>
      </trkpt>
      <trkpt lat="45.11113" lon="5.90135">
        <ele>1919</ele>
        <time>2015-06-20T06:12:02Z</time>
      </trkpt>
      <trkpt lat="45.11117" lon="5.90136">
        <ele>1920</ele>
        <time>2015-06-20T06:12:04Z</time>
      </trkpt>
      <trkpt lat="45.11119" lon="5.90137">
        <ele>1920</ele>
        <time>2015-06-20T06:12:05Z</time>
      </trkpt>
      <trkpt lat="45.11121" lon="5.90137">
        <ele>1920</ele>
        <time>2015-06-20T06:12:06Z</time>
      </trkpt>
      <trkpt lat="45.11123" lon="5.90138">
        <ele>1920</ele>
        <time>2015-06-20T06:12:07Z</time>
      </trkpt>
      <trkpt lat="45.11125" lon="5.90139">
        <ele>1920</ele>
        <time>2015-06-20T06:12:08Z</time>
      </trkpt>
      <trkpt lat="45.11127" lon="5.9014">
        <ele>1920</ele>
        <time>2015-06-20T06:12:09Z</time>
      </trkpt>
      <trkpt lat="45.1113" lon="5.90143">
        <ele>1920</ele>
        <time>2015-06-20T06:12:11Z</time>
      </trkpt>
      <trkpt lat="45.11134" lon="5.90143">
        <ele>1920</ele>
        <time>2015-06-20T06:12:13Z</time>
      </trkpt>
      <trkpt lat="45.11136" lon="5.90142">
        <ele>1920</ele>
        <time>2015-06-20T06:12:14Z</time>
      </trkpt>
      <trkpt lat="45.11138" lon="5.90142">
        <ele>1921</ele>
        <time>2015-06-20T06:12:15Z</time>
      </trkpt>
      <trkpt lat="45.1114" lon="5.90142">
        <ele>1921</ele>
        <time>2015-06-20T06:12:16Z</time>
      </trkpt>
      <trkpt lat="45.11142" lon="5.90143">
        <ele>1921</ele>
        <time>2015-06-20T06:12:17Z</time>
      </trkpt>
      <trkpt lat="45.11144" lon="5.90144">
        <ele>1921</ele>
        <time>2015-06-20T06:12:18Z</time>
      </trkpt>
      <trkpt lat="45.11148" lon="5.90145">
        <ele>1921</ele>
        <time>2015-06-20T06:12:20Z</time>
      </trkpt>
      <trkpt lat="45.1115" lon="5.90146">
        <ele>1921</ele>
        <time>2015-06-20T06:12:21Z</time>
      </trkpt>
      <trkpt lat="45.11151" lon="5.90147">
        <ele>1921</ele>
        <time>2015-06-20T06:12:22Z</time>
      </trkpt>
      <trkpt lat="45.11154" lon="5.90147">
        <ele>1921</ele>
        <time>2015-06-20T06:12:23Z</time>
      </trkpt>
      <trkpt lat="45.11156" lon="5.90148">
        <ele>1921</ele>
        <time>2015-06-20T06:12:24Z</time>
      </trkpt>
      <trkpt lat="45.11158" lon="5.90149">
        <ele>1921</ele>
        <time>2015-06-20T06:12:25Z</time>
      </trkpt>
      <trkpt lat="45.11161" lon="5.9015">
        <ele>1921</ele>
        <time>2015-06-20T06:12:26Z</time>
      </trkpt>
      <trkpt lat="45.11163" lon="5.9015">
        <ele>1922</ele>
        <time>2015-06-20T06:12:27Z</time>
      </trkpt>
      <trkpt lat="45.11165" lon="5.90151">
        <ele>1922</ele>
        <time>2015-06-20T06:12:28Z</time>
      </trkpt>
      <trkpt lat="45.11167" lon="5.90151">
        <ele>1922</ele>
        <time>2015-06-20T06:12:29Z</time>
      </trkpt>
      <trkpt lat="45.1117" lon="5.90152">
        <ele>1922</ele>
        <time>2015-06-20T06:12:31Z</time>
      </trkpt>
      <trkpt lat="45.11173" lon="5.90153">
        <ele>1922</ele>
        <time>2015-06-20T06:12:32Z</time>
      </trkpt>
      <trkpt lat="45.11176" lon="5.90155">
        <ele>1922</ele>
        <time>2015-06-20T06:12:33Z</time>
      </trkpt>
      <trkpt lat="45.1118" lon="5.90158">
        <ele>1922</ele>
        <time>2015-06-20T06:12:34Z</time>
      </trkpt>
      <trkpt lat="45.11183" lon="5.90161">
        <ele>1922</ele>
        <time>2015-06-20T06:12:35Z</time>
      </trkpt>
      <trkpt lat="45.11185" lon="5.90163">
        <ele>1922</ele>
        <time>2015-06-20T06:12:36Z</time>
      </trkpt>
      <trkpt lat="45.11187" lon="5.90165">
        <ele>1922</ele>
        <time>2015-06-20T06:12:37Z</time>
      </trkpt>
      <trkpt lat="45.11189" lon="5.90166">
        <ele>1922</ele>
        <time>2015-06-20T06:12:38Z</time>
      </trkpt>
      <trkpt lat="45.11191" lon="5.90168">
        <ele>1922</ele>
        <time>2015-06-20T06:12:39Z</time>
      </trkpt>
      <trkpt lat="45.11193" lon="5.90171">
        <ele>1922</ele>
        <time>2015-06-20T06:12:41Z</time>
      </trkpt>
      <trkpt lat="45.11196" lon="5.90173">
        <ele>1922</ele>
        <time>2015-06-20T06:12:43Z</time>
      </trkpt>
      <trkpt lat="45.11198" lon="5.90175">
        <ele>1922</ele>
        <time>2015-06-20T06:12:44Z</time>
      </trkpt>
      <trkpt lat="45.11199" lon="5.90177">
        <ele>1922</ele>
        <time>2015-06-20T06:12:45Z</time>
      </trkpt>
      <trkpt lat="45.11201" lon="5.90178">
        <ele>1922</ele>
        <time>2015-06-20T06:12:46Z</time>
      </trkpt>
      <trkpt lat="45.11203" lon="5.9018">
        <ele>1922</ele>
        <time>2015-06-20T06:12:47Z</time>
      </trkpt>
      <trkpt lat="45.11205" lon="5.90181">
        <ele>1922</ele>
        <time>2015-06-20T06:12:48Z</time>
      </trkpt>
      <trkpt lat="45.11207" lon="5.90182">
        <ele>1922</ele>
        <time>2015-06-20T06:12:49Z</time>
      </trkpt>
      <trkpt lat="45.1121" lon="5.90184">
        <ele>1922</ele>
        <time>2015-06-20T06:12:50Z</time>
      </trkpt>
      <trkpt lat="45.11212" lon="5.90186">
        <ele>1922</ele>
        <time>2015-06-20T06:12:51Z</time>
      </trkpt>
      <trkpt lat="45.11215" lon="5.90188">
        <ele>1922</ele>
        <time>2015-06-20T06:12:52Z</time>
      </trkpt>
      <trkpt lat="45.11218" lon="5.9019">
        <ele>1922</ele>
        <time>2015-06-20T06:12:53Z</time>
      </trkpt>
      <trkpt lat="45.11221" lon="5.90191">
        <ele>1922</ele>
        <time>2015-06-20T06:12:54Z</time>
      </trkpt>
      <trkpt lat="45.11224" lon="5.90192">
        <ele>1922</ele>
        <time>2015-06-20T06:12:55Z</time>
      </trkpt>
      <trkpt lat="45.11227" lon="5.90191">
        <ele>1920</ele>
        <time>2015-06-20T06:12:56Z</time>
      </trkpt>
      <trkpt lat="45.11229" lon="5.9019">
        <ele>1920</ele>
        <time>2015-06-20T06:12:57Z</time>
      </trkpt>
      <trkpt lat="45.11231" lon="5.90189">
        <ele>1920</ele>
        <time>2015-06-20T06:12:58Z</time>
      </trkpt>
      <trkpt lat="45.11233" lon="5.90186">
        <ele>1920</ele>
        <time>2015-06-20T06:12:59Z</time>
      </trkpt>
      <trkpt lat="45.11235" lon="5.90184">
        <ele>1920</ele>
        <time>2015-06-20T06:13:00Z</time>
      </trkpt>
      <trkpt lat="45.11236" lon="5.90181">
        <ele>1920</ele>
        <time>2015-06-20T06:13:01Z</time>
      </trkpt>
      <trkpt lat="45.11238" lon="5.90179">
        <ele>1919</ele>
        <time>2015-06-20T06:13:02Z</time>
      </trkpt>
      <trkpt lat="45.11239" lon="5.90176">
        <ele>1919</ele>
        <time>2015-06-20T06:13:03Z</time>
      </trkpt>
      <trkpt lat="45.11241" lon="5.90175">
        <ele>1919</ele>
        <time>2015-06-20T06:13:04Z</time>
      </trkpt>
      <trkpt lat="45.11243" lon="5.90173">
        <ele>1919</ele>
        <time>2015-06-20T06:13:05Z</time>
      </trkpt>
      <trkpt lat="45.11245" lon="5.90171">
        <ele>1919</ele>
        <time>2015-06-20T06:13:06Z</time>
      </trkpt>
      <trkpt lat="45.11248" lon="5.90169">
        <ele>1919</ele>
        <time>2015-06-20T06:13:08Z</time>
      </trkpt>
      <trkpt lat="45.11251" lon="5.90168">
        <ele>1919</ele>
        <time>2015-06-20T06:13:09Z</time>
      </trkpt>
      <trkpt lat="45.11254" lon="5.90167">
        <ele>1919</ele>
        <time>2015-06-20T06:13:10Z</time>
      </trkpt>
      <trkpt lat="45.11256" lon="5.90167">
        <ele>1919</ele>
        <time>2015-06-20T06:13:11Z</time>
      </trkpt>
      <trkpt lat="45.1126" lon="5.90166">
        <ele>1920</ele>
        <time>2015-06-20T06:13:13Z</time>
      </trkpt>
      <trkpt lat="45.11262" lon="5.90166">
        <ele>1920</ele>
        <time>2015-06-20T06:13:14Z</time>
      </trkpt>
      <trkpt lat="45.11264" lon="5.90166">
        <ele>1920</ele>
        <time>2015-06-20T06:13:16Z</time>
      </trkpt>
      <trkpt lat="45.11266" lon="5.90166">
        <ele>1920</ele>
        <time>2015-06-20T06:13:17Z</time>
      </trkpt>
      <trkpt lat="45.11268" lon="5.90168">
        <ele>1920</ele>
        <time>2015-06-20T06:13:18Z</time>
      </trkpt>
      <trkpt lat="45.11271" lon="5.90168">
        <ele>1920</ele>
        <time>2015-06-20T06:13:19Z</time>
      </trkpt>
      <trkpt lat="45.11273" lon="5.90169">
        <ele>1920</ele>
        <time>2015-06-20T06:13:20Z</time>
      </trkpt>
      <trkpt lat="45.11276" lon="5.90169">
        <ele>1920</ele>
        <time>2015-06-20T06:13:21Z</time>
      </trkpt>
      <trkpt lat="45.11278" lon="5.90168">
        <ele>1920</ele>
        <time>2015-06-20T06:13:22Z</time>
      </trkpt>
      <trkpt lat="45.11281" lon="5.90167">
        <ele>1920</ele>
        <time>2015-06-20T06:13:24Z</time>
      </trkpt>
      <trkpt lat="45.11283" lon="5.90167">
        <ele>1920</ele>
        <time>2015-06-20T06:13:26Z</time>
      </trkpt>
      <trkpt lat="45.11286" lon="5.90168">
        <ele>1920</ele>
        <time>2015-06-20T06:13:28Z</time>
      </trkpt>
      <trkpt lat="45.11289" lon="5.90169">
        <ele>1920</ele>
        <time>2015-06-20T06:13:30Z</time>
      </trkpt>
      <trkpt lat="45.11292" lon="5.90172">
        <ele>1923</ele>
        <time>2015-06-20T06:13:51Z</time>
      </trkpt>
      <trkpt lat="45.11293" lon="5.90176">
        <ele>1923</ele>
        <time>2015-06-20T06:13:53Z</time>
      </trkpt>
      <trkpt lat="45.11295" lon="5.9018">
        <ele>1923</ele>
        <time>2015-06-20T06:13:55Z</time>
      </trkpt>
      <trkpt lat="45.11296" lon="5.90182">
        <ele>1923</ele>
        <time>2015-06-20T06:13:57Z</time>
      </trkpt>
      <trkpt lat="45.11299" lon="5.90185">
        <ele>1923</ele>
        <time>2015-06-20T06:14:00Z</time>
      </trkpt>
      <trkpt lat="45.11301" lon="5.90186">
        <ele>1923</ele>
        <time>2015-06-20T06:14:02Z</time>
      </trkpt>
      <trkpt lat="45.11304" lon="5.90189">
        <ele>1923</ele>
        <time>2015-06-20T06:14:04Z</time>
      </trkpt>
      <trkpt lat="45.11304" lon="5.90192">
        <ele>1923</ele>
        <time>2015-06-20T06:14:06Z</time>
      </trkpt>
      <trkpt lat="45.11305" lon="5.90195">
        <ele>1923</ele>
        <time>2015-06-20T06:14:08Z</time>
      </trkpt>
      <trkpt lat="45.11307" lon="5.90196">
        <ele>1923</ele>
        <time>2015-06-20T06:14:10Z</time>
      </trkpt>
      <trkpt lat="45.1131" lon="5.90197">
        <ele>1923</ele>
        <time>2015-06-20T06:14:12Z</time>
      </trkpt>
      <trkpt lat="45.11313" lon="5.90198">
        <ele>1924</ele>
        <time>2015-06-20T06:14:14Z</time>
      </trkpt>
      <trkpt lat="45.11315" lon="5.90201">
        <ele>1924</ele>
        <time>2015-06-20T06:14:16Z</time>
      </trkpt>
      <trkpt lat="45.11317" lon="5.90203">
        <ele>1924</ele>
        <time>2015-06-20T06:14:17Z</time>
      </trkpt>
      <trkpt lat="45.11318" lon="5.90206">
        <ele>1924</ele>
        <time>2015-06-20T06:14:18Z</time>
      </trkpt>
      <trkpt lat="45.1132" lon="5.90208">
        <ele>1924</ele>
        <time>2015-06-20T06:14:19Z</time>
      </trkpt>
      <trkpt lat="45.11323" lon="5.9021">
        <ele>1924</ele>
        <time>2015-06-20T06:14:20Z</time>
      </trkpt>
      <trkpt lat="45.11325" lon="5.90212">
        <ele>1924</ele>
        <time>2015-06-20T06:14:21Z</time>
      </trkpt>
      <trkpt lat="45.11327" lon="5.90215">
        <ele>1924</ele>
        <time>2015-06-20T06:14:22Z</time>
      </trkpt>
      <trkpt lat="45.11329" lon="5.90218">
        <ele>1924</ele>
        <time>2015-06-20T06:14:23Z</time>
      </trkpt>
      <trkpt lat="45.1133" lon="5.90221">
        <ele>1924</ele>
        <time>2015-06-20T06:14:24Z</time>
      </trkpt>
      <trkpt lat="45.11332" lon="5.90224">
        <ele>1924</ele>
        <time>2015-06-20T06:14:25Z</time>
      </trkpt>
      <trkpt lat="45.11334" lon="5.90227">
        <ele>1924</ele>
        <time>2015-06-20T06:14:26Z</time>
      </trkpt>
      <trkpt lat="45.11336" lon="5.9023">
        <ele>1924</ele>
        <time>2015-06-20T06:14:27Z</time>
      </trkpt>
      <trkpt lat="45.11338" lon="5.90232">
        <ele>1924</ele>
        <time>2015-06-20T06:14:28Z</time>
      </trkpt>
      <trkpt lat="45.1134" lon="5.90234">
        <ele>1924</ele>
        <time>2015-06-20T06:14:29Z</time>
      </trkpt>
      <trkpt lat="45.11342" lon="5.90234">
        <ele>1924</ele>
        <time>2015-06-20T06:14:30Z</time>
      </trkpt>
      <trkpt lat="45.11344" lon="5.90235">
        <ele>1924</ele>
        <time>2015-06-20T06:14:31Z</time>
      </trkpt>
      <trkpt lat="45.11346" lon="5.90236">
        <ele>1924</ele>
        <time>2015-06-20T06:14:32Z</time>
      </trkpt>
      <trkpt lat="45.11348" lon="5.90236">
        <ele>1924</ele>
        <time>2015-06-20T06:14:34Z</time>
      </trkpt>
      <trkpt lat="45.11349" lon="5.9024">
        <ele>1924</ele>
        <time>2015-06-20T06:14:37Z</time>
      </trkpt>
      <trkpt lat="45.11348" lon="5.90242">
        <ele>1924</ele>
        <time>2015-06-20T06:14:39Z</time>
      </trkpt>
      <trkpt lat="45.11346" lon="5.90245">
        <ele>1924</ele>
        <time>2015-06-20T06:14:41Z</time>
      </trkpt>
      <trkpt lat="45.11345" lon="5.90248">
        <ele>1924</ele>
        <time>2015-06-20T06:14:43Z</time>
      </trkpt>
      <trkpt lat="45.11343" lon="5.90251">
        <ele>1924</ele>
        <time>2015-06-20T06:14:45Z</time>
      </trkpt>
      <trkpt lat="45.11343" lon="5.90254">
        <ele>1926</ele>
        <time>2015-06-20T06:14:47Z</time>
      </trkpt>
      <trkpt lat="45.11344" lon="5.90257">
        <ele>1926</ele>
        <time>2015-06-20T06:14:49Z</time>
      </trkpt>
      <trkpt lat="45.11346" lon="5.90261">
        <ele>1926</ele>
        <time>2015-06-20T06:14:51Z</time>
      </trkpt>
      <trkpt lat="45.11347" lon="5.90264">
        <ele>1928</ele>
        <time>2015-06-20T06:14:52Z</time>
      </trkpt>
      <trkpt lat="45.11348" lon="5.90266">
        <ele>1928</ele>
        <time>2015-06-20T06:14:54Z</time>
      </trkpt>
      <trkpt lat="45.1135" lon="5.90268">
        <ele>1928</ele>
        <time>2015-06-20T06:14:56Z</time>
      </trkpt>
      <trkpt lat="45.11353" lon="5.90269">
        <ele>1928</ele>
        <time>2015-06-20T06:14:58Z</time>
      </trkpt>
      <trkpt lat="45.11355" lon="5.90271">
        <ele>1928</ele>
        <time>2015-06-20T06:15:00Z</time>
      </trkpt>
      <trkpt lat="45.11357" lon="5.90273">
        <ele>1930</ele>
        <time>2015-06-20T06:15:02Z</time>
      </trkpt>
      <trkpt lat="45.11359" lon="5.90275">
        <ele>1930</ele>
        <time>2015-06-20T06:15:04Z</time>
      </trkpt>
      <trkpt lat="45.11361" lon="5.90276">
        <ele>1930</ele>
        <time>2015-06-20T06:15:05Z</time>
      </trkpt>
      <trkpt lat="45.11364" lon="5.90278">
        <ele>1930</ele>
        <time>2015-06-20T06:15:07Z</time>
      </trkpt>
      <trkpt lat="45.11366" lon="5.9028">
        <ele>1932</ele>
        <time>2015-06-20T06:15:09Z</time>
      </trkpt>
      <trkpt lat="45.11367" lon="5.90282">
        <ele>1932</ele>
        <time>2015-06-20T06:15:11Z</time>
      </trkpt>
      <trkpt lat="45.11368" lon="5.90285">
        <ele>1935</ele>
        <time>2015-06-20T06:15:13Z</time>
      </trkpt>
      <trkpt lat="45.1137" lon="5.90287">
        <ele>1935</ele>
        <time>2015-06-20T06:15:15Z</time>
      </trkpt>
      <trkpt lat="45.11373" lon="5.90288">
        <ele>1936</ele>
        <time>2015-06-20T06:15:18Z</time>
      </trkpt>
      <trkpt lat="45.11375" lon="5.9029">
        <ele>1936</ele>
        <time>2015-06-20T06:15:20Z</time>
      </trkpt>
      <trkpt lat="45.11376" lon="5.90293">
        <ele>1938</ele>
        <time>2015-06-20T06:15:22Z</time>
      </trkpt>
      <trkpt lat="45.11378" lon="5.90295">
        <ele>1938</ele>
        <time>2015-06-20T06:15:24Z</time>
      </trkpt>
      <trkpt lat="45.1138" lon="5.90296">
        <ele>1938</ele>
        <time>2015-06-20T06:15:27Z</time>
      </trkpt>
      <trkpt lat="45.11382" lon="5.90298">
        <ele>1939</ele>
        <time>2015-06-20T06:15:29Z</time>
      </trkpt>
      <trkpt lat="45.11384" lon="5.90301">
        <ele>1939</ele>
        <time>2015-06-20T06:15:31Z</time>
      </trkpt>
      <trkpt lat="45.11385" lon="5.90302">
        <ele>1941</ele>
        <time>2015-06-20T06:15:32Z</time>
      </trkpt>
      <trkpt lat="45.11388" lon="5.90302">
        <ele>1941</ele>
        <time>2015-06-20T06:15:33Z</time>
      </trkpt>
      <trkpt lat="45.11389" lon="5.90303">
        <ele>1941</ele>
        <time>2015-06-20T06:15:36Z</time>
      </trkpt>
      <trkpt lat="45.11394" lon="5.9031">
        <ele>1944</ele>
        <time>2015-06-20T06:15:46Z</time>
      </trkpt>
      <trkpt lat="45.11396" lon="5.90312">
        <ele>1946</ele>
        <time>2015-06-20T06:15:49Z</time>
      </trkpt>
      <trkpt lat="45.11399" lon="5.90314">
        <ele>1946</ele>
        <time>2015-06-20T06:15:51Z</time>
      </trkpt>
      <trkpt lat="45.11401" lon="5.90316">
        <ele>1947</ele>
        <time>2015-06-20T06:15:53Z</time>
      </trkpt>
      <trkpt lat="45.11402" lon="5.90318">
        <ele>1947</ele>
        <time>2015-06-20T06:15:55Z</time>
      </trkpt>
      <trkpt lat="45.11404" lon="5.90322">
        <ele>1948</ele>
        <time>2015-06-20T06:15:57Z</time>
      </trkpt>
      <trkpt lat="45.11406" lon="5.90324">
        <ele>1948</ele>
        <time>2015-06-20T06:15:59Z</time>
      </trkpt>
      <trkpt lat="45.11409" lon="5.90326">
        <ele>1948</ele>
        <time>2015-06-20T06:16:01Z</time>
      </trkpt>
      <trkpt lat="45.11411" lon="5.90327">
        <ele>1949</ele>
        <time>2015-06-20T06:16:02Z</time>
      </trkpt>
      <trkpt lat="45.11412" lon="5.90329">
        <ele>1949</ele>
        <time>2015-06-20T06:16:03Z</time>
      </trkpt>
      <trkpt lat="45.11414" lon="5.90331">
        <ele>1949</ele>
        <time>2015-06-20T06:16:04Z</time>
      </trkpt>
      <trkpt lat="45.11416" lon="5.90332">
        <ele>1949</ele>
        <time>2015-06-20T06:16:05Z</time>
      </trkpt>
      <trkpt lat="45.11418" lon="5.90333">
        <ele>1950</ele>
        <time>2015-06-20T06:16:07Z</time>
      </trkpt>
      <trkpt lat="45.1142" lon="5.90335">
        <ele>1950</ele>
        <time>2015-06-20T06:16:09Z</time>
      </trkpt>
      <trkpt lat="45.11424" lon="5.90337">
        <ele>1950</ele>
        <time>2015-06-20T06:16:11Z</time>
      </trkpt>
      <trkpt lat="45.11426" lon="5.90339">
        <ele>1952</ele>
        <time>2015-06-20T06:16:12Z</time>
      </trkpt>
      <trkpt lat="45.11428" lon="5.90341">
        <ele>1952</ele>
        <time>2015-06-20T06:16:13Z</time>
      </trkpt>
      <trkpt lat="45.1143" lon="5.90344">
        <ele>1952</ele>
        <time>2015-06-20T06:16:14Z</time>
      </trkpt>
      <trkpt lat="45.11431" lon="5.90346">
        <ele>1952</ele>
        <time>2015-06-20T06:16:15Z</time>
      </trkpt>
      <trkpt lat="45.11433" lon="5.90349">
        <ele>1952</ele>
        <time>2015-06-20T06:16:16Z</time>
      </trkpt>
      <trkpt lat="45.11434" lon="5.90352">
        <ele>1952</ele>
        <time>2015-06-20T06:16:17Z</time>
      </trkpt>
      <trkpt lat="45.11434" lon="5.90355">
        <ele>1953</ele>
        <time>2015-06-20T06:16:18Z</time>
      </trkpt>
      <trkpt lat="45.11435" lon="5.90358">
        <ele>1953</ele>
        <time>2015-06-20T06:16:19Z</time>
      </trkpt>
      <trkpt lat="45.11436" lon="5.90362">
        <ele>1953</ele>
        <time>2015-06-20T06:16:20Z</time>
      </trkpt>
      <trkpt lat="45.11436" lon="5.90366">
        <ele>1953</ele>
        <time>2015-06-20T06:16:21Z</time>
      </trkpt>
      <trkpt lat="45.11435" lon="5.90369">
        <ele>1953</ele>
        <time>2015-06-20T06:16:22Z</time>
      </trkpt>
      <trkpt lat="45.11435" lon="5.90372">
        <ele>1953</ele>
        <time>2015-06-20T06:16:23Z</time>
      </trkpt>
      <trkpt lat="45.11437" lon="5.90375">
        <ele>1953</ele>
        <time>2015-06-20T06:16:25Z</time>
      </trkpt>
      <trkpt lat="45.1144" lon="5.90375">
        <ele>1953</ele>
        <time>2015-06-20T06:16:28Z</time>
      </trkpt>
      <trkpt lat="45.11442" lon="5.90373">
        <ele>1953</ele>
        <time>2015-06-20T06:16:30Z</time>
      </trkpt>
      <trkpt lat="45.11445" lon="5.90374">
        <ele>1955</ele>
        <time>2015-06-20T06:16:33Z</time>
      </trkpt>
      <trkpt lat="45.11448" lon="5.90376">
        <ele>1955</ele>
        <time>2015-06-20T06:16:35Z</time>
      </trkpt>
      <trkpt lat="45.1145" lon="5.90377">
        <ele>1955</ele>
        <time>2015-06-20T06:16:37Z</time>
      </trkpt>
      <trkpt lat="45.11452" lon="5.90379">
        <ele>1955</ele>
        <time>2015-06-20T06:16:39Z</time>
      </trkpt>
      <trkpt lat="45.11456" lon="5.90381">
        <ele>1955</ele>
        <time>2015-06-20T06:16:41Z</time>
      </trkpt>
      <trkpt lat="45.11458" lon="5.90382">
        <ele>1955</ele>
        <time>2015-06-20T06:16:42Z</time>
      </trkpt>
      <trkpt lat="45.11459" lon="5.90384">
        <ele>1957</ele>
        <time>2015-06-20T06:16:43Z</time>
      </trkpt>
      <trkpt lat="45.11461" lon="5.90386">
        <ele>1957</ele>
        <time>2015-06-20T06:16:44Z</time>
      </trkpt>
      <trkpt lat="45.11463" lon="5.90388">
        <ele>1957</ele>
        <time>2015-06-20T06:16:45Z</time>
      </trkpt>
      <trkpt lat="45.11467" lon="5.90389">
        <ele>1957</ele>
        <time>2015-06-20T06:16:47Z</time>
      </trkpt>
      <trkpt lat="45.11468" lon="5.90388">
        <ele>1958</ele>
        <time>2015-06-20T06:16:48Z</time>
      </trkpt>
      <trkpt lat="45.1147" lon="5.90389">
        <ele>1958</ele>
        <time>2015-06-20T06:16:49Z</time>
      </trkpt>
      <trkpt lat="45.11472" lon="5.9039">
        <ele>1958</ele>
        <time>2015-06-20T06:16:50Z</time>
      </trkpt>
      <trkpt lat="45.11474" lon="5.90392">
        <ele>1958</ele>
        <time>2015-06-20T06:16:51Z</time>
      </trkpt>
      <trkpt lat="45.11475" lon="5.90395">
        <ele>1958</ele>
        <time>2015-06-20T06:16:53Z</time>
      </trkpt>
      <trkpt lat="45.11477" lon="5.90398">
        <ele>1958</ele>
        <time>2015-06-20T06:16:55Z</time>
      </trkpt>
      <trkpt lat="45.1148" lon="5.90401">
        <ele>1958</ele>
        <time>2015-06-20T06:16:57Z</time>
      </trkpt>
      <trkpt lat="45.11482" lon="5.90404">
        <ele>1958</ele>
        <time>2015-06-20T06:16:59Z</time>
      </trkpt>
      <trkpt lat="45.11486" lon="5.90406">
        <ele>1958</ele>
        <time>2015-06-20T06:17:01Z</time>
      </trkpt>
      <trkpt lat="45.11488" lon="5.90408">
        <ele>1958</ele>
        <time>2015-06-20T06:17:02Z</time>
      </trkpt>
      <trkpt lat="45.1149" lon="5.90411">
        <ele>1958</ele>
        <time>2015-06-20T06:17:03Z</time>
      </trkpt>
      <trkpt lat="45.11492" lon="5.90412">
        <ele>1958</ele>
        <time>2015-06-20T06:17:04Z</time>
      </trkpt>
      <trkpt lat="45.11494" lon="5.90414">
        <ele>1958</ele>
        <time>2015-06-20T06:17:05Z</time>
      </trkpt>
      <trkpt lat="45.11496" lon="5.90417">
        <ele>1958</ele>
        <time>2015-06-20T06:17:06Z</time>
      </trkpt>
      <trkpt lat="45.11498" lon="5.90419">
        <ele>1958</ele>
        <time>2015-06-20T06:17:07Z</time>
      </trkpt>
      <trkpt lat="45.11499" lon="5.90422">
        <ele>1958</ele>
        <time>2015-06-20T06:17:08Z</time>
      </trkpt>
      <trkpt lat="45.11501" lon="5.90424">
        <ele>1958</ele>
        <time>2015-06-20T06:17:09Z</time>
      </trkpt>
      <trkpt lat="45.11503" lon="5.90427">
        <ele>1958</ele>
        <time>2015-06-20T06:17:11Z</time>
      </trkpt>
      <trkpt lat="45.11505" lon="5.90431">
        <ele>1958</ele>
        <time>2015-06-20T06:17:13Z</time>
      </trkpt>
      <trkpt lat="45.11507" lon="5.90433">
        <ele>1959</ele>
        <time>2015-06-20T06:17:15Z</time>
      </trkpt>
      <trkpt lat="45.11509" lon="5.90434">
        <ele>1959</ele>
        <time>2015-06-20T06:17:17Z</time>
      </trkpt>
      <trkpt lat="45.11511" lon="5.90435">
        <ele>1959</ele>
        <time>2015-06-20T06:17:19Z</time>
      </trkpt>
      <trkpt lat="45.11513" lon="5.90438">
        <ele>1959</ele>
        <time>2015-06-20T06:17:21Z</time>
      </trkpt>
      <trkpt lat="45.11517" lon="5.90442">
        <ele>1961</ele>
        <time>2015-06-20T06:17:27Z</time>
      </trkpt>
      <trkpt lat="45.1152" lon="5.90445">
        <ele>1963</ele>
        <time>2015-06-20T06:17:29Z</time>
      </trkpt>
      <trkpt lat="45.11522" lon="5.90446">
        <ele>1963</ele>
        <time>2015-06-20T06:17:30Z</time>
      </trkpt>
      <trkpt lat="45.11525" lon="5.90448">
        <ele>1963</ele>
        <time>2015-06-20T06:17:32Z</time>
      </trkpt>
      <trkpt lat="45.11527" lon="5.9045">
        <ele>1965</ele>
        <time>2015-06-20T06:17:34Z</time>
      </trkpt>
      <trkpt lat="45.1153" lon="5.90452">
        <ele>1965</ele>
        <time>2015-06-20T06:17:36Z</time>
      </trkpt>
      <trkpt lat="45.11533" lon="5.90452">
        <ele>1965</ele>
        <time>2015-06-20T06:17:38Z</time>
      </trkpt>
      <trkpt lat="45.11537" lon="5.90453">
        <ele>1967</ele>
        <time>2015-06-20T06:17:40Z</time>
      </trkpt>
      <trkpt lat="45.11539" lon="5.90453">
        <ele>1967</ele>
        <time>2015-06-20T06:17:41Z</time>
      </trkpt>
      <trkpt lat="45.11542" lon="5.90454">
        <ele>1968</ele>
        <time>2015-06-20T06:17:43Z</time>
      </trkpt>
      <trkpt lat="45.11545" lon="5.90454">
        <ele>1968</ele>
        <time>2015-06-20T06:17:45Z</time>
      </trkpt>
      <trkpt lat="45.11549" lon="5.90455">
        <ele>1968</ele>
        <time>2015-06-20T06:17:47Z</time>
      </trkpt>
      <trkpt lat="45.1155" lon="5.90456">
        <ele>1969</ele>
        <time>2015-06-20T06:17:48Z</time>
      </trkpt>
      <trkpt lat="45.11552" lon="5.90457">
        <ele>1969</ele>
        <time>2015-06-20T06:17:49Z</time>
      </trkpt>
      <trkpt lat="45.11556" lon="5.90456">
        <ele>1969</ele>
        <time>2015-06-20T06:17:51Z</time>
      </trkpt>
      <trkpt lat="45.11559" lon="5.90457">
        <ele>1969</ele>
        <time>2015-06-20T06:17:53Z</time>
      </trkpt>
      <trkpt lat="45.11561" lon="5.90457">
        <ele>1969</ele>
        <time>2015-06-20T06:17:55Z</time>
      </trkpt>
      <trkpt lat="45.11564" lon="5.90457">
        <ele>1969</ele>
        <time>2015-06-20T06:17:57Z</time>
      </trkpt>
      <trkpt lat="45.11567" lon="5.90457">
        <ele>1969</ele>
        <time>2015-06-20T06:17:59Z</time>
      </trkpt>
      <trkpt lat="45.11571" lon="5.90457">
        <ele>1969</ele>
        <time>2015-06-20T06:18:01Z</time>
      </trkpt>
      <trkpt lat="45.11573" lon="5.90459">
        <ele>1969</ele>
        <time>2015-06-20T06:18:03Z</time>
      </trkpt>
      <trkpt lat="45.11576" lon="5.9046">
        <ele>1973</ele>
        <time>2015-06-20T06:18:05Z</time>
      </trkpt>
      <trkpt lat="45.11579" lon="5.90461">
        <ele>1973</ele>
        <time>2015-06-20T06:18:07Z</time>
      </trkpt>
      <trkpt lat="45.11582" lon="5.90462">
        <ele>1974</ele>
        <time>2015-06-20T06:18:09Z</time>
      </trkpt>
      <trkpt lat="45.11585" lon="5.90461">
        <ele>1974</ele>
        <time>2015-06-20T06:18:11Z</time>
      </trkpt>
      <trkpt lat="45.11588" lon="5.9046">
        <ele>1976</ele>
        <time>2015-06-20T06:18:13Z</time>
      </trkpt>
      <trkpt lat="45.11591" lon="5.9046">
        <ele>1976</ele>
        <time>2015-06-20T06:18:15Z</time>
      </trkpt>
      <trkpt lat="45.11594" lon="5.90462">
        <ele>1976</ele>
        <time>2015-06-20T06:18:17Z</time>
      </trkpt>
      <trkpt lat="45.11597" lon="5.90464">
        <ele>1976</ele>
        <time>2015-06-20T06:18:19Z</time>
      </trkpt>
      <trkpt lat="45.11599" lon="5.90465">
        <ele>1976</ele>
        <time>2015-06-20T06:18:21Z</time>
      </trkpt>
      <trkpt lat="45.11601" lon="5.90466">
        <ele>1980</ele>
        <time>2015-06-20T06:18:23Z</time>
      </trkpt>
      <trkpt lat="45.11604" lon="5.90467">
        <ele>1980</ele>
        <time>2015-06-20T06:18:25Z</time>
      </trkpt>
      <trkpt lat="45.11606" lon="5.90467">
        <ele>1980</ele>
        <time>2015-06-20T06:18:27Z</time>
      </trkpt>
      <trkpt lat="45.11609" lon="5.90467">
        <ele>1981</ele>
        <time>2015-06-20T06:18:29Z</time>
      </trkpt>
      <trkpt lat="45.11612" lon="5.90468">
        <ele>1981</ele>
        <time>2015-06-20T06:18:31Z</time>
      </trkpt>
      <trkpt lat="45.11615" lon="5.90468">
        <ele>1983</ele>
        <time>2015-06-20T06:18:33Z</time>
      </trkpt>
      <trkpt lat="45.11618" lon="5.90469">
        <ele>1983</ele>
        <time>2015-06-20T06:18:35Z</time>
      </trkpt>
      <trkpt lat="45.1162" lon="5.90471">
        <ele>1983</ele>
        <time>2015-06-20T06:18:37Z</time>
      </trkpt>
      <trkpt lat="45.11622" lon="5.90471">
        <ele>1984</ele>
        <time>2015-06-20T06:18:39Z</time>
      </trkpt>
      <trkpt lat="45.11625" lon="5.90473">
        <ele>1984</ele>
        <time>2015-06-20T06:18:41Z</time>
      </trkpt>
      <trkpt lat="45.11627" lon="5.90474">
        <ele>1985</ele>
        <time>2015-06-20T06:18:43Z</time>
      </trkpt>
      <trkpt lat="45.11629" lon="5.90477">
        <ele>1985</ele>
        <time>2015-06-20T06:18:45Z</time>
      </trkpt>
      <trkpt lat="45.1163" lon="5.90479">
        <ele>1985</ele>
        <time>2015-06-20T06:18:47Z</time>
      </trkpt>
      <trkpt lat="45.11632" lon="5.90481">
        <ele>1987</ele>
        <time>2015-06-20T06:18:49Z</time>
      </trkpt>
      <trkpt lat="45.11634" lon="5.90482">
        <ele>1988</ele>
        <time>2015-06-20T06:18:51Z</time>
      </trkpt>
      <trkpt lat="45.11636" lon="5.90483">
        <ele>1988</ele>
        <time>2015-06-20T06:18:53Z</time>
      </trkpt>
      <trkpt lat="45.11639" lon="5.90484">
        <ele>1988</ele>
        <time>2015-06-20T06:18:55Z</time>
      </trkpt>
      <trkpt lat="45.11641" lon="5.90485">
        <ele>1988</ele>
        <time>2015-06-20T06:18:57Z</time>
      </trkpt>
      <trkpt lat="45.11644" lon="5.90485">
        <ele>1990</ele>
        <time>2015-06-20T06:18:59Z</time>
      </trkpt>
      <trkpt lat="45.11647" lon="5.90487">
        <ele>1990</ele>
        <time>2015-06-20T06:19:01Z</time>
      </trkpt>
      <trkpt lat="45.11649" lon="5.90489">
        <ele>1991</ele>
        <time>2015-06-20T06:19:03Z</time>
      </trkpt>
      <trkpt lat="45.11652" lon="5.9049">
        <ele>1991</ele>
        <time>2015-06-20T06:19:05Z</time>
      </trkpt>
      <trkpt lat="45.11654" lon="5.90491">
        <ele>1991</ele>
        <time>2015-06-20T06:19:07Z</time>
      </trkpt>
      <trkpt lat="45.11657" lon="5.90491">
        <ele>1991</ele>
        <time>2015-06-20T06:19:09Z</time>
      </trkpt>
      <trkpt lat="45.11659" lon="5.90491">
        <ele>1995</ele>
        <time>2015-06-20T06:19:11Z</time>
      </trkpt>
      <trkpt lat="45.11662" lon="5.90491">
        <ele>1995</ele>
        <time>2015-06-20T06:19:13Z</time>
      </trkpt>
      <trkpt lat="45.11664" lon="5.90492">
        <ele>1995</ele>
        <time>2015-06-20T06:19:15Z</time>
      </trkpt>
      <trkpt lat="45.11666" lon="5.90491">
        <ele>1995</ele>
        <time>2015-06-20T06:19:17Z</time>
      </trkpt>
      <trkpt lat="45.11668" lon="5.9049">
        <ele>1995</ele>
        <time>2015-06-20T06:19:19Z</time>
      </trkpt>
      <trkpt lat="45.11671" lon="5.9049">
        <ele>1995</ele>
        <time>2015-06-20T06:19:21Z</time>
      </trkpt>
      <trkpt lat="45.11674" lon="5.90489">
        <ele>1997</ele>
        <time>2015-06-20T06:19:23Z</time>
      </trkpt>
      <trkpt lat="45.11676" lon="5.9049">
        <ele>1997</ele>
        <time>2015-06-20T06:19:25Z</time>
      </trkpt>
      <trkpt lat="45.11678" lon="5.90492">
        <ele>1998</ele>
        <time>2015-06-20T06:19:27Z</time>
      </trkpt>
      <trkpt lat="45.1168" lon="5.90494">
        <ele>1998</ele>
        <time>2015-06-20T06:19:29Z</time>
      </trkpt>
      <trkpt lat="45.11682" lon="5.90495">
        <ele>1998</ele>
        <time>2015-06-20T06:19:31Z</time>
      </trkpt>
      <trkpt lat="45.11684" lon="5.90496">
        <ele>2000</ele>
        <time>2015-06-20T06:19:34Z</time>
      </trkpt>
      <trkpt lat="45.11686" lon="5.90497">
        <ele>2000</ele>
        <time>2015-06-20T06:19:35Z</time>
      </trkpt>
      <trkpt lat="45.11688" lon="5.90499">
        <ele>2002</ele>
        <time>2015-06-20T06:19:37Z</time>
      </trkpt>
      <trkpt lat="45.11691" lon="5.90501">
        <ele>2002</ele>
        <time>2015-06-20T06:19:39Z</time>
      </trkpt>
      <trkpt lat="45.11692" lon="5.90503">
        <ele>2002</ele>
        <time>2015-06-20T06:19:41Z</time>
      </trkpt>
      <trkpt lat="45.11695" lon="5.90505">
        <ele>2004</ele>
        <time>2015-06-20T06:19:43Z</time>
      </trkpt>
      <trkpt lat="45.11697" lon="5.90507">
        <ele>2004</ele>
        <time>2015-06-20T06:19:45Z</time>
      </trkpt>
      <trkpt lat="45.117" lon="5.90509">
        <ele>2004</ele>
        <time>2015-06-20T06:19:47Z</time>
      </trkpt>
      <trkpt lat="45.11702" lon="5.90512">
        <ele>2006</ele>
        <time>2015-06-20T06:19:49Z</time>
      </trkpt>
      <trkpt lat="45.11703" lon="5.90515">
        <ele>2006</ele>
        <time>2015-06-20T06:19:51Z</time>
      </trkpt>
      <trkpt lat="45.11705" lon="5.90517">
        <ele>2006</ele>
        <time>2015-06-20T06:19:53Z</time>
      </trkpt>
      <trkpt lat="45.11708" lon="5.90519">
        <ele>2006</ele>
        <time>2015-06-20T06:19:55Z</time>
      </trkpt>
      <trkpt lat="45.1171" lon="5.90521">
        <ele>2008</ele>
        <time>2015-06-20T06:19:57Z</time>
      </trkpt>
      <trkpt lat="45.11712" lon="5.90524">
        <ele>2008</ele>
        <time>2015-06-20T06:19:59Z</time>
      </trkpt>
      <trkpt lat="45.11714" lon="5.90527">
        <ele>2010</ele>
        <time>2015-06-20T06:20:01Z</time>
      </trkpt>
      <trkpt lat="45.11715" lon="5.9053">
        <ele>2010</ele>
        <time>2015-06-20T06:20:03Z</time>
      </trkpt>
      <trkpt lat="45.11717" lon="5.90532">
        <ele>2010</ele>
        <time>2015-06-20T06:20:05Z</time>
      </trkpt>
      <trkpt lat="45.11719" lon="5.90534">
        <ele>2011</ele>
        <time>2015-06-20T06:20:07Z</time>
      </trkpt>
      <trkpt lat="45.1172" lon="5.90535">
        <ele>2011</ele>
        <time>2015-06-20T06:20:09Z</time>
      </trkpt>
      <trkpt lat="45.11722" lon="5.90537">
        <ele>2013</ele>
        <time>2015-06-20T06:20:11Z</time>
      </trkpt>
      <trkpt lat="45.11724" lon="5.90537">
        <ele>2013</ele>
        <time>2015-06-20T06:20:13Z</time>
      </trkpt>
      <trkpt lat="45.11726" lon="5.90538">
        <ele>2014</ele>
        <time>2015-06-20T06:20:16Z</time>
      </trkpt>
      <trkpt lat="45.11727" lon="5.9054">
        <ele>2014</ele>
        <time>2015-06-20T06:20:18Z</time>
      </trkpt>
      <trkpt lat="45.11729" lon="5.90541">
        <ele>2014</ele>
        <time>2015-06-20T06:20:20Z</time>
      </trkpt>
      <trkpt lat="45.11731" lon="5.90543">
        <ele>2016</ele>
        <time>2015-06-20T06:20:22Z</time>
      </trkpt>
      <trkpt lat="45.11732" lon="5.90545">
        <ele>2016</ele>
        <time>2015-06-20T06:20:24Z</time>
      </trkpt>
      <trkpt lat="45.11733" lon="5.90547">
        <ele>2016</ele>
        <time>2015-06-20T06:20:26Z</time>
      </trkpt>
      <trkpt lat="45.11735" lon="5.9055">
        <ele>2017</ele>
        <time>2015-06-20T06:20:29Z</time>
      </trkpt>
      <trkpt lat="45.11737" lon="5.90553">
        <ele>2017</ele>
        <time>2015-06-20T06:20:32Z</time>
      </trkpt>
      <trkpt lat="45.11739" lon="5.90555">
        <ele>2019</ele>
        <time>2015-06-20T06:20:35Z</time>
      </trkpt>
      <trkpt lat="45.11742" lon="5.90556">
        <ele>2019</ele>
        <time>2015-06-20T06:20:37Z</time>
      </trkpt>
      <trkpt lat="45.11744" lon="5.90557">
        <ele>2021</ele>
        <time>2015-06-20T06:20:40Z</time>
      </trkpt>
      <trkpt lat="45.11747" lon="5.90558">
        <ele>2021</ele>
        <time>2015-06-20T06:20:42Z</time>
      </trkpt>
      <trkpt lat="45.11749" lon="5.90559">
        <ele>2022</ele>
        <time>2015-06-20T06:20:44Z</time>
      </trkpt>
      <trkpt lat="45.11751" lon="5.9056">
        <ele>2022</ele>
        <time>2015-06-20T06:20:46Z</time>
      </trkpt>
      <trkpt lat="45.11753" lon="5.90561">
        <ele>2022</ele>
        <time>2015-06-20T06:20:48Z</time>
      </trkpt>
      <trkpt lat="45.11755" lon="5.90562">
        <ele>2024</ele>
        <time>2015-06-20T06:20:50Z</time>
      </trkpt>
      <trkpt lat="45.11757" lon="5.90562">
        <ele>2024</ele>
        <time>2015-06-20T06:20:52Z</time>
      </trkpt>
      <trkpt lat="45.11759" lon="5.90564">
        <ele>2026</ele>
        <time>2015-06-20T06:20:54Z</time>
      </trkpt>
      <trkpt lat="45.1176" lon="5.90566">
        <ele>2026</ele>
        <time>2015-06-20T06:20:56Z</time>
      </trkpt>
      <trkpt lat="45.11762" lon="5.90569">
        <ele>2026</ele>
        <time>2015-06-20T06:20:59Z</time>
      </trkpt>
      <trkpt lat="45.11763" lon="5.90571">
        <ele>2028</ele>
        <time>2015-06-20T06:21:03Z</time>
      </trkpt>
      <trkpt lat="45.11764" lon="5.90573">
        <ele>2028</ele>
        <time>2015-06-20T06:21:06Z</time>
      </trkpt>
      <trkpt lat="45.11766" lon="5.90575">
        <ele>2031</ele>
        <time>2015-06-20T06:21:09Z</time>
      </trkpt>
      <trkpt lat="45.11768" lon="5.90576">
        <ele>2031</ele>
        <time>2015-06-20T06:21:11Z</time>
      </trkpt>
      <trkpt lat="45.11771" lon="5.90575">
        <ele>2032</ele>
        <time>2015-06-20T06:21:15Z</time>
      </trkpt>
      <trkpt lat="45.11773" lon="5.90577">
        <ele>2034</ele>
        <time>2015-06-20T06:21:18Z</time>
      </trkpt>
      <trkpt lat="45.11775" lon="5.90578">
        <ele>2034</ele>
        <time>2015-06-20T06:21:20Z</time>
      </trkpt>
      <trkpt lat="45.11777" lon="5.90577">
        <ele>2036</ele>
        <time>2015-06-20T06:21:23Z</time>
      </trkpt>
      <trkpt lat="45.11778" lon="5.90574">
        <ele>2036</ele>
        <time>2015-06-20T06:21:26Z</time>
      </trkpt>
      <trkpt lat="45.1178" lon="5.90572">
        <ele>2036</ele>
        <time>2015-06-20T06:21:28Z</time>
      </trkpt>
      <trkpt lat="45.1178" lon="5.9057">
        <ele>2036</ele>
        <time>2015-06-20T06:21:30Z</time>
      </trkpt>
      <trkpt lat="45.11781" lon="5.90567">
        <ele>2038</ele>
        <time>2015-06-20T06:21:32Z</time>
      </trkpt>
      <trkpt lat="45.11783" lon="5.90567">
        <ele>2038</ele>
        <time>2015-06-20T06:21:34Z</time>
      </trkpt>
      <trkpt lat="45.11784" lon="5.9057">
        <ele>2038</ele>
        <time>2015-06-20T06:21:36Z</time>
      </trkpt>
      <trkpt lat="45.11785" lon="5.90573">
        <ele>2039</ele>
        <time>2015-06-20T06:21:38Z</time>
      </trkpt>
      <trkpt lat="45.11785" lon="5.90577">
        <ele>2039</ele>
        <time>2015-06-20T06:21:40Z</time>
      </trkpt>
      <trkpt lat="45.11784" lon="5.90581">
        <ele>2039</ele>
        <time>2015-06-20T06:21:42Z</time>
      </trkpt>
      <trkpt lat="45.11784" lon="5.90584">
        <ele>2038</ele>
        <time>2015-06-20T06:21:44Z</time>
      </trkpt>
      <trkpt lat="45.11786" lon="5.90586">
        <ele>2038</ele>
        <time>2015-06-20T06:21:46Z</time>
      </trkpt>
      <trkpt lat="45.11788" lon="5.90589">
        <ele>2038</ele>
        <time>2015-06-20T06:21:48Z</time>
      </trkpt>
      <trkpt lat="45.1179" lon="5.90592">
        <ele>2038</ele>
        <time>2015-06-20T06:21:50Z</time>
      </trkpt>
      <trkpt lat="45.11792" lon="5.90595">
        <ele>2038</ele>
        <time>2015-06-20T06:21:51Z</time>
      </trkpt>
      <trkpt lat="45.11793" lon="5.90598">
        <ele>2033</ele>
        <time>2015-06-20T06:21:52Z</time>
      </trkpt>
      <trkpt lat="45.11794" lon="5.906">
        <ele>2033</ele>
        <time>2015-06-20T06:21:53Z</time>
      </trkpt>
      <trkpt lat="45.11796" lon="5.90603">
        <ele>2033</ele>
        <time>2015-06-20T06:21:54Z</time>
      </trkpt>
      <trkpt lat="45.11797" lon="5.90606">
        <ele>2033</ele>
        <time>2015-06-20T06:21:55Z</time>
      </trkpt>
      <trkpt lat="45.11799" lon="5.90609">
        <ele>2033</ele>
        <time>2015-06-20T06:21:56Z</time>
      </trkpt>
      <trkpt lat="45.118" lon="5.90611">
        <ele>2033</ele>
        <time>2015-06-20T06:21:57Z</time>
      </trkpt>
      <trkpt lat="45.11802" lon="5.90614">
        <ele>2033</ele>
        <time>2015-06-20T06:21:58Z</time>
      </trkpt>
      <trkpt lat="45.11803" lon="5.90617">
        <ele>2033</ele>
        <time>2015-06-20T06:21:59Z</time>
      </trkpt>
      <trkpt lat="45.11804" lon="5.9062">
        <ele>2033</ele>
        <time>2015-06-20T06:22:00Z</time>
      </trkpt>
      <trkpt lat="45.11805" lon="5.90623">
        <ele>2031</ele>
        <time>2015-06-20T06:22:01Z</time>
      </trkpt>
      <trkpt lat="45.11806" lon="5.90625">
        <ele>2031</ele>
        <time>2015-06-20T06:22:02Z</time>
      </trkpt>
      <trkpt lat="45.11808" lon="5.90626">
        <ele>2030</ele>
        <time>2015-06-20T06:22:03Z</time>
      </trkpt>
      <trkpt lat="45.11811" lon="5.90628">
        <ele>2030</ele>
        <time>2015-06-20T06:22:04Z</time>
      </trkpt>
      <trkpt lat="45.11813" lon="5.9063">
        <ele>2030</ele>
        <time>2015-06-20T06:22:05Z</time>
      </trkpt>
      <trkpt lat="45.11814" lon="5.90633">
        <ele>2030</ele>
        <time>2015-06-20T06:22:06Z</time>
      </trkpt>
      <trkpt lat="45.11816" lon="5.90636">
        <ele>2030</ele>
        <time>2015-06-20T06:22:07Z</time>
      </trkpt>
      <trkpt lat="45.11818" lon="5.90639">
        <ele>2030</ele>
        <time>2015-06-20T06:22:08Z</time>
      </trkpt>
      <trkpt lat="45.11819" lon="5.90641">
        <ele>2029</ele>
        <time>2015-06-20T06:22:09Z</time>
      </trkpt>
      <trkpt lat="45.11821" lon="5.90643">
        <ele>2030</ele>
        <time>2015-06-20T06:22:10Z</time>
      </trkpt>
      <trkpt lat="45.11823" lon="5.90644">
        <ele>2030</ele>
        <time>2015-06-20T06:22:11Z</time>
      </trkpt>
      <trkpt lat="45.11826" lon="5.90645">
        <ele>2030</ele>
        <time>2015-06-20T06:22:13Z</time>
      </trkpt>
      <trkpt lat="45.1183" lon="5.90647">
        <ele>2030</ele>
        <time>2015-06-20T06:22:15Z</time>
      </trkpt>
      <trkpt lat="45.11832" lon="5.90648">
        <ele>2030</ele>
        <time>2015-06-20T06:22:16Z</time>
      </trkpt>
      <trkpt lat="45.11835" lon="5.90649">
        <ele>2030</ele>
        <time>2015-06-20T06:22:17Z</time>
      </trkpt>
      <trkpt lat="45.11837" lon="5.9065">
        <ele>2030</ele>
        <time>2015-06-20T06:22:18Z</time>
      </trkpt>
      <trkpt lat="45.11839" lon="5.90651">
        <ele>2030</ele>
        <time>2015-06-20T06:22:19Z</time>
      </trkpt>
      <trkpt lat="45.11841" lon="5.90652">
        <ele>2030</ele>
        <time>2015-06-20T06:22:20Z</time>
      </trkpt>
      <trkpt lat="45.11844" lon="5.90653">
        <ele>2030</ele>
        <time>2015-06-20T06:22:21Z</time>
      </trkpt>
      <trkpt lat="45.11846" lon="5.90655">
        <ele>2030</ele>
        <time>2015-06-20T06:22:22Z</time>
      </trkpt>
      <trkpt lat="45.11848" lon="5.90656">
        <ele>2030</ele>
        <time>2015-06-20T06:22:23Z</time>
      </trkpt>
      <trkpt lat="45.11851" lon="5.90657">
        <ele>2030</ele>
        <time>2015-06-20T06:22:24Z</time>
      </trkpt>
      <trkpt lat="45.11853" lon="5.90658">
        <ele>2030</ele>
        <time>2015-06-20T06:22:25Z</time>
      </trkpt>
      <trkpt lat="45.11855" lon="5.9066">
        <ele>2030</ele>
        <time>2015-06-20T06:22:26Z</time>
      </trkpt>
      <trkpt lat="45.11857" lon="5.90662">
        <ele>2030</ele>
        <time>2015-06-20T06:22:27Z</time>
      </trkpt>
      <trkpt lat="45.11859" lon="5.90664">
        <ele>2030</ele>
        <time>2015-06-20T06:22:28Z</time>
      </trkpt>
      <trkpt lat="45.11862" lon="5.90665">
        <ele>2030</ele>
        <time>2015-06-20T06:22:29Z</time>
      </trkpt>
      <trkpt lat="45.11863" lon="5.90667">
        <ele>2030</ele>
        <time>2015-06-20T06:22:30Z</time>
      </trkpt>
      <trkpt lat="45.11865" lon="5.90669">
        <ele>2030</ele>
        <time>2015-06-20T06:22:31Z</time>
      </trkpt>
      <trkpt lat="45.11865" lon="5.90674">
        <ele>2030</ele>
        <time>2015-06-20T06:22:33Z</time>
      </trkpt>
      <trkpt lat="45.11864" lon="5.90678">
        <ele>2030</ele>
        <time>2015-06-20T06:22:35Z</time>
      </trkpt>
      <trkpt lat="45.11865" lon="5.90682">
        <ele>2030</ele>
        <time>2015-06-20T06:22:38Z</time>
      </trkpt>
      <trkpt lat="45.11866" lon="5.90685">
        <ele>2030</ele>
        <time>2015-06-20T06:22:40Z</time>
      </trkpt>
      <trkpt lat="45.11868" lon="5.9069">
        <ele>2030</ele>
        <time>2015-06-20T06:22:42Z</time>
      </trkpt>
      <trkpt lat="45.1187" lon="5.90692">
        <ele>2031</ele>
        <time>2015-06-20T06:22:43Z</time>
      </trkpt>
      <trkpt lat="45.11872" lon="5.90695">
        <ele>2031</ele>
        <time>2015-06-20T06:22:45Z</time>
      </trkpt>
      <trkpt lat="45.11874" lon="5.90697">
        <ele>2031</ele>
        <time>2015-06-20T06:22:46Z</time>
      </trkpt>
      <trkpt lat="45.11875" lon="5.90699">
        <ele>2031</ele>
        <time>2015-06-20T06:22:47Z</time>
      </trkpt>
      <trkpt lat="45.11876" lon="5.90701">
        <ele>2031</ele>
        <time>2015-06-20T06:22:48Z</time>
      </trkpt>
      <trkpt lat="45.11877" lon="5.90703">
        <ele>2031</ele>
        <time>2015-06-20T06:22:49Z</time>
      </trkpt>
      <trkpt lat="45.1188" lon="5.90706">
        <ele>2031</ele>
        <time>2015-06-20T06:22:51Z</time>
      </trkpt>
      <trkpt lat="45.11882" lon="5.90708">
        <ele>2033</ele>
        <time>2015-06-20T06:22:53Z</time>
      </trkpt>
      <trkpt lat="45.11884" lon="5.90709">
        <ele>2033</ele>
        <time>2015-06-20T06:22:54Z</time>
      </trkpt>
      <trkpt lat="45.11886" lon="5.90711">
        <ele>2033</ele>
        <time>2015-06-20T06:22:55Z</time>
      </trkpt>
      <trkpt lat="45.11891" lon="5.90715">
        <ele>2032</ele>
        <time>2015-06-20T06:22:57Z</time>
      </trkpt>
      <trkpt lat="45.11893" lon="5.90717">
        <ele>2032</ele>
        <time>2015-06-20T06:22:58Z</time>
      </trkpt>
      <trkpt lat="45.11894" lon="5.90719">
        <ele>2032</ele>
        <time>2015-06-20T06:22:59Z</time>
      </trkpt>
      <trkpt lat="45.11898" lon="5.90721">
        <ele>2032</ele>
        <time>2015-06-20T06:23:01Z</time>
      </trkpt>
      <trkpt lat="45.11901" lon="5.90722">
        <ele>2032</ele>
        <time>2015-06-20T06:23:03Z</time>
      </trkpt>
      <trkpt lat="45.11904" lon="5.90723">
        <ele>2032</ele>
        <time>2015-06-20T06:23:05Z</time>
      </trkpt>
      <trkpt lat="45.11905" lon="5.90726">
        <ele>2032</ele>
        <time>2015-06-20T06:23:07Z</time>
      </trkpt>
      <trkpt lat="45.11908" lon="5.90729">
        <ele>2034</ele>
        <time>2015-06-20T06:23:09Z</time>
      </trkpt>
      <trkpt lat="45.1191" lon="5.90731">
        <ele>2034</ele>
        <time>2015-06-20T06:23:11Z</time>
      </trkpt>
      <trkpt lat="45.11913" lon="5.90732">
        <ele>2034</ele>
        <time>2015-06-20T06:23:13Z</time>
      </trkpt>
      <trkpt lat="45.11915" lon="5.90734">
        <ele>2034</ele>
        <time>2015-06-20T06:23:15Z</time>
      </trkpt>
      <trkpt lat="45.11917" lon="5.90737">
        <ele>2037</ele>
        <time>2015-06-20T06:23:18Z</time>
      </trkpt>
      <trkpt lat="45.11919" lon="5.90739">
        <ele>2037</ele>
        <time>2015-06-20T06:23:20Z</time>
      </trkpt>
      <trkpt lat="45.11921" lon="5.90741">
        <ele>2037</ele>
        <time>2015-06-20T06:23:22Z</time>
      </trkpt>
      <trkpt lat="45.11922" lon="5.90743">
        <ele>2037</ele>
        <time>2015-06-20T06:23:24Z</time>
      </trkpt>
      <trkpt lat="45.11923" lon="5.90746">
        <ele>2037</ele>
        <time>2015-06-20T06:23:26Z</time>
      </trkpt>
      <trkpt lat="45.11925" lon="5.90748">
        <ele>2039</ele>
        <time>2015-06-20T06:23:29Z</time>
      </trkpt>
      <trkpt lat="45.11927" lon="5.90749">
        <ele>2039</ele>
        <time>2015-06-20T06:23:31Z</time>
      </trkpt>
      <trkpt lat="45.11929" lon="5.90751">
        <ele>2039</ele>
        <time>2015-06-20T06:23:33Z</time>
      </trkpt>
      <trkpt lat="45.11931" lon="5.90754">
        <ele>2042</ele>
        <time>2015-06-20T06:23:35Z</time>
      </trkpt>
      <trkpt lat="45.11934" lon="5.90757">
        <ele>2042</ele>
        <time>2015-06-20T06:23:37Z</time>
      </trkpt>
      <trkpt lat="45.11936" lon="5.90758">
        <ele>2043</ele>
        <time>2015-06-20T06:23:39Z</time>
      </trkpt>
      <trkpt lat="45.11938" lon="5.90761">
        <ele>2043</ele>
        <time>2015-06-20T06:23:41Z</time>
      </trkpt>
      <trkpt lat="45.11941" lon="5.90763">
        <ele>2043</ele>
        <time>2015-06-20T06:23:43Z</time>
      </trkpt>
      <trkpt lat="45.11944" lon="5.90764">
        <ele>2043</ele>
        <time>2015-06-20T06:23:45Z</time>
      </trkpt>
      <trkpt lat="45.11947" lon="5.90765">
        <ele>2043</ele>
        <time>2015-06-20T06:23:47Z</time>
      </trkpt>
      <trkpt lat="45.11949" lon="5.90768">
        <ele>2043</ele>
        <time>2015-06-20T06:23:49Z</time>
      </trkpt>
      <trkpt lat="45.11952" lon="5.90772">
        <ele>2045</ele>
        <time>2015-06-20T06:23:51Z</time>
      </trkpt>
      <trkpt lat="45.11953" lon="5.90775">
        <ele>2045</ele>
        <time>2015-06-20T06:23:52Z</time>
      </trkpt>
      <trkpt lat="45.11955" lon="5.90777">
        <ele>2045</ele>
        <time>2015-06-20T06:23:54Z</time>
      </trkpt>
      <trkpt lat="45.11957" lon="5.9078">
        <ele>2045</ele>
        <time>2015-06-20T06:23:57Z</time>
      </trkpt>
      <trkpt lat="45.11959" lon="5.90781">
        <ele>2045</ele>
        <time>2015-06-20T06:23:59Z</time>
      </trkpt>
      <trkpt lat="45.11959" lon="5.90783">
        <ele>2045</ele>
        <time>2015-06-20T06:24:01Z</time>
      </trkpt>
      <trkpt lat="45.1196" lon="5.90786">
        <ele>2045</ele>
        <time>2015-06-20T06:24:03Z</time>
      </trkpt>
      <trkpt lat="45.11962" lon="5.90788">
        <ele>2045</ele>
        <time>2015-06-20T06:24:06Z</time>
      </trkpt>
      <trkpt lat="45.11963" lon="5.90791">
        <ele>2045</ele>
        <time>2015-06-20T06:24:08Z</time>
      </trkpt>
      <trkpt lat="45.11964" lon="5.90794">
        <ele>2045</ele>
        <time>2015-06-20T06:24:10Z</time>
      </trkpt>
      <trkpt lat="45.11965" lon="5.90797">
        <ele>2045</ele>
        <time>2015-06-20T06:24:13Z</time>
      </trkpt>
      <trkpt lat="45.11965" lon="5.908">
        <ele>2047</ele>
        <time>2015-06-20T06:24:15Z</time>
      </trkpt>
      <trkpt lat="45.11965" lon="5.90803">
        <ele>2047</ele>
        <time>2015-06-20T06:24:17Z</time>
      </trkpt>
      <trkpt lat="45.11967" lon="5.90806">
        <ele>2050</ele>
        <time>2015-06-20T06:24:20Z</time>
      </trkpt>
      <trkpt lat="45.11967" lon="5.90809">
        <ele>2052</ele>
        <time>2015-06-20T06:24:23Z</time>
      </trkpt>
      <trkpt lat="45.11967" lon="5.90812">
        <ele>2052</ele>
        <time>2015-06-20T06:24:26Z</time>
      </trkpt>
      <trkpt lat="45.11968" lon="5.90814">
        <ele>2054</ele>
        <time>2015-06-20T06:24:28Z</time>
      </trkpt>
      <trkpt lat="45.11969" lon="5.90816">
        <ele>2054</ele>
        <time>2015-06-20T06:24:30Z</time>
      </trkpt>
      <trkpt lat="45.1197" lon="5.9082">
        <ele>2054</ele>
        <time>2015-06-20T06:24:32Z</time>
      </trkpt>
      <trkpt lat="45.11971" lon="5.90823">
        <ele>2054</ele>
        <time>2015-06-20T06:24:34Z</time>
      </trkpt>
      <trkpt lat="45.11972" lon="5.90828">
        <ele>2053</ele>
        <time>2015-06-20T06:24:36Z</time>
      </trkpt>
      <trkpt lat="45.11973" lon="5.9083">
        <ele>2053</ele>
        <time>2015-06-20T06:24:37Z</time>
      </trkpt>
      <trkpt lat="45.11974" lon="5.90833">
        <ele>2053</ele>
        <time>2015-06-20T06:24:38Z</time>
      </trkpt>
      <trkpt lat="45.11976" lon="5.90837">
        <ele>2053</ele>
        <time>2015-06-20T06:24:40Z</time>
      </trkpt>
      <trkpt lat="45.11977" lon="5.9084">
        <ele>2053</ele>
        <time>2015-06-20T06:24:42Z</time>
      </trkpt>
      <trkpt lat="45.11979" lon="5.90841">
        <ele>2053</ele>
        <time>2015-06-20T06:24:44Z</time>
      </trkpt>
      <trkpt lat="45.11982" lon="5.90842">
        <ele>2053</ele>
        <time>2015-06-20T06:24:47Z</time>
      </trkpt>
      <trkpt lat="45.11984" lon="5.90844">
        <ele>2053</ele>
        <time>2015-06-20T06:24:49Z</time>
      </trkpt>
      <trkpt lat="45.11986" lon="5.90846">
        <ele>2053</ele>
        <time>2015-06-20T06:24:52Z</time>
      </trkpt>
      <trkpt lat="45.11988" lon="5.90849">
        <ele>2053</ele>
        <time>2015-06-20T06:24:54Z</time>
      </trkpt>
      <trkpt lat="45.1199" lon="5.90851">
        <ele>2057</ele>
        <time>2015-06-20T06:24:56Z</time>
      </trkpt>
      <trkpt lat="45.11992" lon="5.90852">
        <ele>2058</ele>
        <time>2015-06-20T06:24:58Z</time>
      </trkpt>
      <trkpt lat="45.11993" lon="5.9085">
        <ele>2059</ele>
        <time>2015-06-20T06:25:01Z</time>
      </trkpt>
      <trkpt lat="45.11995" lon="5.90849">
        <ele>2059</ele>
        <time>2015-06-20T06:25:03Z</time>
      </trkpt>
      <trkpt lat="45.11997" lon="5.90848">
        <ele>2059</ele>
        <time>2015-06-20T06:25:05Z</time>
      </trkpt>
      <trkpt lat="45.11999" lon="5.90849">
        <ele>2061</ele>
        <time>2015-06-20T06:25:08Z</time>
      </trkpt>
      <trkpt lat="45.12" lon="5.90852">
        <ele>2061</ele>
        <time>2015-06-20T06:25:11Z</time>
      </trkpt>
      <trkpt lat="45.12001" lon="5.9085">
        <ele>2061</ele>
        <time>2015-06-20T06:25:16Z</time>
      </trkpt>
      <trkpt lat="45.12003" lon="5.90847">
        <ele>2064</ele>
        <time>2015-06-20T06:25:18Z</time>
      </trkpt>
      <trkpt lat="45.12004" lon="5.90844">
        <ele>2064</ele>
        <time>2015-06-20T06:25:20Z</time>
      </trkpt>
      <trkpt lat="45.12007" lon="5.90843">
        <ele>2065</ele>
        <time>2015-06-20T06:25:22Z</time>
      </trkpt>
      <trkpt lat="45.12009" lon="5.90843">
        <ele>2065</ele>
        <time>2015-06-20T06:25:24Z</time>
      </trkpt>
      <trkpt lat="45.12012" lon="5.90842">
        <ele>2065</ele>
        <time>2015-06-20T06:25:27Z</time>
      </trkpt>
      <trkpt lat="45.12013" lon="5.90841">
        <ele>2065</ele>
        <time>2015-06-20T06:25:29Z</time>
      </trkpt>
      <trkpt lat="45.12015" lon="5.9084">
        <ele>2065</ele>
        <time>2015-06-20T06:25:31Z</time>
      </trkpt>
      <trkpt lat="45.12017" lon="5.90837">
        <ele>2067</ele>
        <time>2015-06-20T06:25:34Z</time>
      </trkpt>
      <trkpt lat="45.12019" lon="5.9084">
        <ele>2067</ele>
        <time>2015-06-20T06:25:37Z</time>
      </trkpt>
      <trkpt lat="45.1202" lon="5.90842">
        <ele>2067</ele>
        <time>2015-06-20T06:25:40Z</time>
      </trkpt>
      <trkpt lat="45.12022" lon="5.90844">
        <ele>2070</ele>
        <time>2015-06-20T06:25:43Z</time>
      </trkpt>
      <trkpt lat="45.12023" lon="5.90846">
        <ele>2072</ele>
        <time>2015-06-20T06:25:46Z</time>
      </trkpt>
      <trkpt lat="45.12024" lon="5.90848">
        <ele>2072</ele>
        <time>2015-06-20T06:25:48Z</time>
      </trkpt>
      <trkpt lat="45.12025" lon="5.90851">
        <ele>2072</ele>
        <time>2015-06-20T06:25:50Z</time>
      </trkpt>
      <trkpt lat="45.12027" lon="5.90855">
        <ele>2072</ele>
        <time>2015-06-20T06:25:52Z</time>
      </trkpt>
      <trkpt lat="45.12029" lon="5.90856">
        <ele>2072</ele>
        <time>2015-06-20T06:25:53Z</time>
      </trkpt>
      <trkpt lat="45.12031" lon="5.90857">
        <ele>2072</ele>
        <time>2015-06-20T06:25:54Z</time>
      </trkpt>
      <trkpt lat="45.12033" lon="5.90858">
        <ele>2072</ele>
        <time>2015-06-20T06:25:55Z</time>
      </trkpt>
      <trkpt lat="45.12035" lon="5.90859">
        <ele>2072</ele>
        <time>2015-06-20T06:25:56Z</time>
      </trkpt>
      <trkpt lat="45.12038" lon="5.90859">
        <ele>2072</ele>
        <time>2015-06-20T06:25:57Z</time>
      </trkpt>
      <trkpt lat="45.1204" lon="5.90859">
        <ele>2072</ele>
        <time>2015-06-20T06:25:58Z</time>
      </trkpt>
      <trkpt lat="45.12042" lon="5.9086">
        <ele>2072</ele>
        <time>2015-06-20T06:25:59Z</time>
      </trkpt>
      <trkpt lat="45.12045" lon="5.90861">
        <ele>2070</ele>
        <time>2015-06-20T06:26:00Z</time>
      </trkpt>
      <trkpt lat="45.12048" lon="5.90861">
        <ele>2070</ele>
        <time>2015-06-20T06:26:01Z</time>
      </trkpt>
      <trkpt lat="45.12051" lon="5.90861">
        <ele>2070</ele>
        <time>2015-06-20T06:26:02Z</time>
      </trkpt>
      <trkpt lat="45.12054" lon="5.90862">
        <ele>2070</ele>
        <time>2015-06-20T06:26:03Z</time>
      </trkpt>
      <trkpt lat="45.12056" lon="5.90863">
        <ele>2070</ele>
        <time>2015-06-20T06:26:04Z</time>
      </trkpt>
      <trkpt lat="45.12059" lon="5.90864">
        <ele>2070</ele>
        <time>2015-06-20T06:26:05Z</time>
      </trkpt>
      <trkpt lat="45.12061" lon="5.90865">
        <ele>2070</ele>
        <time>2015-06-20T06:26:06Z</time>
      </trkpt>
      <trkpt lat="45.12064" lon="5.90866">
        <ele>2070</ele>
        <time>2015-06-20T06:26:07Z</time>
      </trkpt>
      <trkpt lat="45.12066" lon="5.90868">
        <ele>2070</ele>
        <time>2015-06-20T06:26:08Z</time>
      </trkpt>
      <trkpt lat="45.12068" lon="5.90869">
        <ele>2070</ele>
        <time>2015-06-20T06:26:09Z</time>
      </trkpt>
      <trkpt lat="45.1207" lon="5.90871">
        <ele>2070</ele>
        <time>2015-06-20T06:26:10Z</time>
      </trkpt>
      <trkpt lat="45.12072" lon="5.90872">
        <ele>2069</ele>
        <time>2015-06-20T06:26:11Z</time>
      </trkpt>
      <trkpt lat="45.12074" lon="5.90872">
        <ele>2069</ele>
        <time>2015-06-20T06:26:12Z</time>
      </trkpt>
      <trkpt lat="45.12076" lon="5.90873">
        <ele>2069</ele>
        <time>2015-06-20T06:26:13Z</time>
      </trkpt>
      <trkpt lat="45.12078" lon="5.90875">
        <ele>2069</ele>
        <time>2015-06-20T06:26:14Z</time>
      </trkpt>
      <trkpt lat="45.12079" lon="5.90877">
        <ele>2068</ele>
        <time>2015-06-20T06:26:15Z</time>
      </trkpt>
      <trkpt lat="45.1208" lon="5.9088">
        <ele>2068</ele>
        <time>2015-06-20T06:26:16Z</time>
      </trkpt>
      <trkpt lat="45.12081" lon="5.90882">
        <ele>2068</ele>
        <time>2015-06-20T06:26:17Z</time>
      </trkpt>
      <trkpt lat="45.12082" lon="5.90885">
        <ele>2068</ele>
        <time>2015-06-20T06:26:18Z</time>
      </trkpt>
      <trkpt lat="45.12083" lon="5.90888">
        <ele>2068</ele>
        <time>2015-06-20T06:26:19Z</time>
      </trkpt>
      <trkpt lat="45.12084" lon="5.90891">
        <ele>2069</ele>
        <time>2015-06-20T06:26:20Z</time>
      </trkpt>
      <trkpt lat="45.12084" lon="5.90894">
        <ele>2069</ele>
        <time>2015-06-20T06:26:21Z</time>
      </trkpt>
      <trkpt lat="45.12085" lon="5.90898">
        <ele>2069</ele>
        <time>2015-06-20T06:26:22Z</time>
      </trkpt>
      <trkpt lat="45.12087" lon="5.909">
        <ele>2069</ele>
        <time>2015-06-20T06:26:23Z</time>
      </trkpt>
      <trkpt lat="45.12088" lon="5.90902">
        <ele>2069</ele>
        <time>2015-06-20T06:26:24Z</time>
      </trkpt>
      <trkpt lat="45.1209" lon="5.90904">
        <ele>2069</ele>
        <time>2015-06-20T06:26:25Z</time>
      </trkpt>
      <trkpt lat="45.12091" lon="5.90906">
        <ele>2069</ele>
        <time>2015-06-20T06:26:26Z</time>
      </trkpt>
      <trkpt lat="45.12093" lon="5.90908">
        <ele>2069</ele>
        <time>2015-06-20T06:26:27Z</time>
      </trkpt>
      <trkpt lat="45.12094" lon="5.9091">
        <ele>2069</ele>
        <time>2015-06-20T06:26:28Z</time>
      </trkpt>
      <trkpt lat="45.12096" lon="5.90912">
        <ele>2069</ele>
        <time>2015-06-20T06:26:29Z</time>
      </trkpt>
      <trkpt lat="45.12098" lon="5.90915">
        <ele>2070</ele>
        <time>2015-06-20T06:26:30Z</time>
      </trkpt>
      <trkpt lat="45.12101" lon="5.90918">
        <ele>2070</ele>
        <time>2015-06-20T06:26:31Z</time>
      </trkpt>
      <trkpt lat="45.12102" lon="5.9092">
        <ele>2070</ele>
        <time>2015-06-20T06:26:32Z</time>
      </trkpt>
      <trkpt lat="45.12103" lon="5.90922">
        <ele>2070</ele>
        <time>2015-06-20T06:26:33Z</time>
      </trkpt>
      <trkpt lat="45.12105" lon="5.90924">
        <ele>2070</ele>
        <time>2015-06-20T06:26:34Z</time>
      </trkpt>
      <trkpt lat="45.12107" lon="5.90927">
        <ele>2070</ele>
        <time>2015-06-20T06:26:35Z</time>
      </trkpt>
      <trkpt lat="45.12109" lon="5.90929">
        <ele>2070</ele>
        <time>2015-06-20T06:26:36Z</time>
      </trkpt>
      <trkpt lat="45.12112" lon="5.90932">
        <ele>2070</ele>
        <time>2015-06-20T06:26:38Z</time>
      </trkpt>
      <trkpt lat="45.12113" lon="5.90935">
        <ele>2070</ele>
        <time>2015-06-20T06:26:39Z</time>
      </trkpt>
      <trkpt lat="45.12114" lon="5.90938">
        <ele>2070</ele>
        <time>2015-06-20T06:26:40Z</time>
      </trkpt>
      <trkpt lat="45.12115" lon="5.90941">
        <ele>2068</ele>
        <time>2015-06-20T06:26:41Z</time>
      </trkpt>
      <trkpt lat="45.12118" lon="5.90943">
        <ele>2068</ele>
        <time>2015-06-20T06:26:43Z</time>
      </trkpt>
      <trkpt lat="45.1212" lon="5.90944">
        <ele>2068</ele>
        <time>2015-06-20T06:26:44Z</time>
      </trkpt>
      <trkpt lat="45.12122" lon="5.90943">
        <ele>2067</ele>
        <time>2015-06-20T06:26:45Z</time>
      </trkpt>
      <trkpt lat="45.12125" lon="5.90942">
        <ele>2067</ele>
        <time>2015-06-20T06:26:46Z</time>
      </trkpt>
      <trkpt lat="45.12127" lon="5.90942">
        <ele>2067</ele>
        <time>2015-06-20T06:26:47Z</time>
      </trkpt>
      <trkpt lat="45.12129" lon="5.90941">
        <ele>2067</ele>
        <time>2015-06-20T06:26:48Z</time>
      </trkpt>
      <trkpt lat="45.12131" lon="5.90941">
        <ele>2067</ele>
        <time>2015-06-20T06:26:49Z</time>
      </trkpt>
      <trkpt lat="45.12134" lon="5.90942">
        <ele>2066</ele>
        <time>2015-06-20T06:26:51Z</time>
      </trkpt>
      <trkpt lat="45.12137" lon="5.90944">
        <ele>2066</ele>
        <time>2015-06-20T06:26:53Z</time>
      </trkpt>
      <trkpt lat="45.12139" lon="5.90947">
        <ele>2066</ele>
        <time>2015-06-20T06:26:54Z</time>
      </trkpt>
      <trkpt lat="45.1214" lon="5.90949">
        <ele>2065</ele>
        <time>2015-06-20T06:26:55Z</time>
      </trkpt>
      <trkpt lat="45.12143" lon="5.90951">
        <ele>2065</ele>
        <time>2015-06-20T06:26:57Z</time>
      </trkpt>
      <trkpt lat="45.12145" lon="5.90953">
        <ele>2065</ele>
        <time>2015-06-20T06:26:59Z</time>
      </trkpt>
      <trkpt lat="45.12147" lon="5.90954">
        <ele>2065</ele>
        <time>2015-06-20T06:27:01Z</time>
      </trkpt>
      <trkpt lat="45.12149" lon="5.90955">
        <ele>2065</ele>
        <time>2015-06-20T06:27:03Z</time>
      </trkpt>
      <trkpt lat="45.12153" lon="5.90958">
        <ele>2065</ele>
        <time>2015-06-20T06:27:05Z</time>
      </trkpt>
      <trkpt lat="45.12154" lon="5.9096">
        <ele>2065</ele>
        <time>2015-06-20T06:27:06Z</time>
      </trkpt>
      <trkpt lat="45.12156" lon="5.90963">
        <ele>2065</ele>
        <time>2015-06-20T06:27:07Z</time>
      </trkpt>
      <trkpt lat="45.12158" lon="5.90966">
        <ele>2065</ele>
        <time>2015-06-20T06:27:08Z</time>
      </trkpt>
      <trkpt lat="45.12159" lon="5.90969">
        <ele>2065</ele>
        <time>2015-06-20T06:27:09Z</time>
      </trkpt>
      <trkpt lat="45.12161" lon="5.90971">
        <ele>2065</ele>
        <time>2015-06-20T06:27:10Z</time>
      </trkpt>
      <trkpt lat="45.12163" lon="5.90972">
        <ele>2065</ele>
        <time>2015-06-20T06:27:11Z</time>
      </trkpt>
      <trkpt lat="45.12166" lon="5.90971">
        <ele>2065</ele>
        <time>2015-06-20T06:27:14Z</time>
      </trkpt>
      <trkpt lat="45.12169" lon="5.90973">
        <ele>2065</ele>
        <time>2015-06-20T06:27:16Z</time>
      </trkpt>
      <trkpt lat="45.1217" lon="5.90973">
        <ele>2065</ele>
        <time>2015-06-20T06:27:18Z</time>
      </trkpt>
      <trkpt lat="45.12173" lon="5.90973">
        <ele>2067</ele>
        <time>2015-06-20T06:27:20Z</time>
      </trkpt>
      <trkpt lat="45.12174" lon="5.90974">
        <ele>2067</ele>
        <time>2015-06-20T06:27:22Z</time>
      </trkpt>
      <trkpt lat="45.12177" lon="5.90975">
        <ele>2067</ele>
        <time>2015-06-20T06:27:24Z</time>
      </trkpt>
      <trkpt lat="45.12179" lon="5.90975">
        <ele>2070</ele>
        <time>2015-06-20T06:27:27Z</time>
      </trkpt>
      <trkpt lat="45.12181" lon="5.90975">
        <ele>2070</ele>
        <time>2015-06-20T06:27:29Z</time>
      </trkpt>
      <trkpt lat="45.12183" lon="5.90976">
        <ele>2073</ele>
        <time>2015-06-20T06:27:31Z</time>
      </trkpt>
      <trkpt lat="45.12186" lon="5.90975">
        <ele>2074</ele>
        <time>2015-06-20T06:27:34Z</time>
      </trkpt>
      <trkpt lat="45.12188" lon="5.90976">
        <ele>2074</ele>
        <time>2015-06-20T06:27:36Z</time>
      </trkpt>
      <trkpt lat="45.1219" lon="5.90977">
        <ele>2075</ele>
        <time>2015-06-20T06:27:38Z</time>
      </trkpt>
      <trkpt lat="45.12192" lon="5.90977">
        <ele>2076</ele>
        <time>2015-06-20T06:27:40Z</time>
      </trkpt>
      <trkpt lat="45.12194" lon="5.90977">
        <ele>2076</ele>
        <time>2015-06-20T06:27:42Z</time>
      </trkpt>
      <trkpt lat="45.12197" lon="5.90978">
        <ele>2077</ele>
        <time>2015-06-20T06:27:45Z</time>
      </trkpt>
      <trkpt lat="45.12199" lon="5.90978">
        <ele>2077</ele>
        <time>2015-06-20T06:27:47Z</time>
      </trkpt>
      <trkpt lat="45.12202" lon="5.90978">
        <ele>2077</ele>
        <time>2015-06-20T06:27:48Z</time>
      </trkpt>
      <trkpt lat="45.12203" lon="5.90978">
        <ele>2077</ele>
        <time>2015-06-20T06:27:49Z</time>
      </trkpt>
      <trkpt lat="45.12205" lon="5.90978">
        <ele>2078</ele>
        <time>2015-06-20T06:27:50Z</time>
      </trkpt>
      <trkpt lat="45.12207" lon="5.90979">
        <ele>2078</ele>
        <time>2015-06-20T06:27:51Z</time>
      </trkpt>
      <trkpt lat="45.12209" lon="5.9098">
        <ele>2078</ele>
        <time>2015-06-20T06:27:52Z</time>
      </trkpt>
      <trkpt lat="45.1221" lon="5.90982">
        <ele>2078</ele>
        <time>2015-06-20T06:27:53Z</time>
      </trkpt>
      <trkpt lat="45.12212" lon="5.90985">
        <ele>2078</ele>
        <time>2015-06-20T06:27:54Z</time>
      </trkpt>
      <trkpt lat="45.12213" lon="5.90988">
        <ele>2080</ele>
        <time>2015-06-20T06:27:55Z</time>
      </trkpt>
      <trkpt lat="45.12214" lon="5.90991">
        <ele>2080</ele>
        <time>2015-06-20T06:27:56Z</time>
      </trkpt>
      <trkpt lat="45.12215" lon="5.90993">
        <ele>2080</ele>
        <time>2015-06-20T06:27:57Z</time>
      </trkpt>
      <trkpt lat="45.12217" lon="5.90994">
        <ele>2080</ele>
        <time>2015-06-20T06:27:58Z</time>
      </trkpt>
      <trkpt lat="45.12219" lon="5.90996">
        <ele>2080</ele>
        <time>2015-06-20T06:27:59Z</time>
      </trkpt>
      <trkpt lat="45.12221" lon="5.90998">
        <ele>2079</ele>
        <time>2015-06-20T06:28:00Z</time>
      </trkpt>
      <trkpt lat="45.12224" lon="5.90999">
        <ele>2079</ele>
        <time>2015-06-20T06:28:01Z</time>
      </trkpt>
      <trkpt lat="45.12226" lon="5.91">
        <ele>2079</ele>
        <time>2015-06-20T06:28:02Z</time>
      </trkpt>
      <trkpt lat="45.12229" lon="5.91001">
        <ele>2079</ele>
        <time>2015-06-20T06:28:03Z</time>
      </trkpt>
      <trkpt lat="45.12232" lon="5.91001">
        <ele>2079</ele>
        <time>2015-06-20T06:28:04Z</time>
      </trkpt>
      <trkpt lat="45.12235" lon="5.91001">
        <ele>2079</ele>
        <time>2015-06-20T06:28:05Z</time>
      </trkpt>
      <trkpt lat="45.12237" lon="5.91001">
        <ele>2079</ele>
        <time>2015-06-20T06:28:06Z</time>
      </trkpt>
      <trkpt lat="45.12241" lon="5.91001">
        <ele>2079</ele>
        <time>2015-06-20T06:28:07Z</time>
      </trkpt>
      <trkpt lat="45.12243" lon="5.91001">
        <ele>2079</ele>
        <time>2015-06-20T06:28:08Z</time>
      </trkpt>
      <trkpt lat="45.12246" lon="5.91001">
        <ele>2079</ele>
        <time>2015-06-20T06:28:09Z</time>
      </trkpt>
      <trkpt lat="45.12248" lon="5.91001">
        <ele>2078</ele>
        <time>2015-06-20T06:28:10Z</time>
      </trkpt>
      <trkpt lat="45.1225" lon="5.91">
        <ele>2078</ele>
        <time>2015-06-20T06:28:11Z</time>
      </trkpt>
      <trkpt lat="45.12252" lon="5.91001">
        <ele>2078</ele>
        <time>2015-06-20T06:28:12Z</time>
      </trkpt>
      <trkpt lat="45.12255" lon="5.91001">
        <ele>2078</ele>
        <time>2015-06-20T06:28:13Z</time>
      </trkpt>
      <trkpt lat="45.12257" lon="5.91002">
        <ele>2078</ele>
        <time>2015-06-20T06:28:14Z</time>
      </trkpt>
      <trkpt lat="45.12259" lon="5.91003">
        <ele>2078</ele>
        <time>2015-06-20T06:28:15Z</time>
      </trkpt>
      <trkpt lat="45.12262" lon="5.91004">
        <ele>2078</ele>
        <time>2015-06-20T06:28:16Z</time>
      </trkpt>
      <trkpt lat="45.12265" lon="5.91006">
        <ele>2078</ele>
        <time>2015-06-20T06:28:17Z</time>
      </trkpt>
      <trkpt lat="45.12268" lon="5.91007">
        <ele>2078</ele>
        <time>2015-06-20T06:28:18Z</time>
      </trkpt>
      <trkpt lat="45.1227" lon="5.91009">
        <ele>2078</ele>
        <time>2015-06-20T06:28:19Z</time>
      </trkpt>
      <trkpt lat="45.12272" lon="5.91011">
        <ele>2078</ele>
        <time>2015-06-20T06:28:20Z</time>
      </trkpt>
      <trkpt lat="45.12274" lon="5.91013">
        <ele>2078</ele>
        <time>2015-06-20T06:28:21Z</time>
      </trkpt>
      <trkpt lat="45.12277" lon="5.91015">
        <ele>2078</ele>
        <time>2015-06-20T06:28:22Z</time>
      </trkpt>
      <trkpt lat="45.12279" lon="5.91017">
        <ele>2078</ele>
        <time>2015-06-20T06:28:23Z</time>
      </trkpt>
      <trkpt lat="45.12281" lon="5.9102">
        <ele>2078</ele>
        <time>2015-06-20T06:28:24Z</time>
      </trkpt>
      <trkpt lat="45.12284" lon="5.91023">
        <ele>2078</ele>
        <time>2015-06-20T06:28:25Z</time>
      </trkpt>
      <trkpt lat="45.12286" lon="5.91026">
        <ele>2078</ele>
        <time>2015-06-20T06:28:26Z</time>
      </trkpt>
      <trkpt lat="45.12287" lon="5.91029">
        <ele>2078</ele>
        <time>2015-06-20T06:28:27Z</time>
      </trkpt>
      <trkpt lat="45.12289" lon="5.91032">
        <ele>2078</ele>
        <time>2015-06-20T06:28:28Z</time>
      </trkpt>
      <trkpt lat="45.12291" lon="5.91034">
        <ele>2078</ele>
        <time>2015-06-20T06:28:29Z</time>
      </trkpt>
      <trkpt lat="45.12294" lon="5.91035">
        <ele>2077</ele>
        <time>2015-06-20T06:28:30Z</time>
      </trkpt>
      <trkpt lat="45.12296" lon="5.91036">
        <ele>2077</ele>
        <time>2015-06-20T06:28:31Z</time>
      </trkpt>
      <trkpt lat="45.12298" lon="5.91037">
        <ele>2077</ele>
        <time>2015-06-20T06:28:32Z</time>
      </trkpt>
      <trkpt lat="45.123" lon="5.91039">
        <ele>2077</ele>
        <time>2015-06-20T06:28:33Z</time>
      </trkpt>
      <trkpt lat="45.12302" lon="5.9104">
        <ele>2077</ele>
        <time>2015-06-20T06:28:34Z</time>
      </trkpt>
      <trkpt lat="45.12304" lon="5.91042">
        <ele>2077</ele>
        <time>2015-06-20T06:28:35Z</time>
      </trkpt>
      <trkpt lat="45.12305" lon="5.91044">
        <ele>2077</ele>
        <time>2015-06-20T06:28:36Z</time>
      </trkpt>
      <trkpt lat="45.12307" lon="5.91046">
        <ele>2077</ele>
        <time>2015-06-20T06:28:37Z</time>
      </trkpt>
      <trkpt lat="45.12309" lon="5.91049">
        <ele>2077</ele>
        <time>2015-06-20T06:28:39Z</time>
      </trkpt>
      <trkpt lat="45.12312" lon="5.91049">
        <ele>2078</ele>
        <time>2015-06-20T06:28:41Z</time>
      </trkpt>
      <trkpt lat="45.12314" lon="5.9105">
        <ele>2078</ele>
        <time>2015-06-20T06:28:43Z</time>
      </trkpt>
      <trkpt lat="45.12318" lon="5.9105">
        <ele>2078</ele>
        <time>2015-06-20T06:28:45Z</time>
      </trkpt>
      <trkpt lat="45.12321" lon="5.9105">
        <ele>2078</ele>
        <time>2015-06-20T06:28:47Z</time>
      </trkpt>
      <trkpt lat="45.12324" lon="5.9105">
        <ele>2078</ele>
        <time>2015-06-20T06:28:48Z</time>
      </trkpt>
      <trkpt lat="45.12325" lon="5.9105">
        <ele>2078</ele>
        <time>2015-06-20T06:28:49Z</time>
      </trkpt>
      <trkpt lat="45.12329" lon="5.9105">
        <ele>2081</ele>
        <time>2015-06-20T06:28:51Z</time>
      </trkpt>
      <trkpt lat="45.12331" lon="5.9105">
        <ele>2081</ele>
        <time>2015-06-20T06:28:52Z</time>
      </trkpt>
      <trkpt lat="45.12335" lon="5.91049">
        <ele>2081</ele>
        <time>2015-06-20T06:28:54Z</time>
      </trkpt>
      <trkpt lat="45.12337" lon="5.91049">
        <ele>2083</ele>
        <time>2015-06-20T06:28:55Z</time>
      </trkpt>
      <trkpt lat="45.12339" lon="5.91049">
        <ele>2083</ele>
        <time>2015-06-20T06:28:56Z</time>
      </trkpt>
      <trkpt lat="45.12342" lon="5.91049">
        <ele>2083</ele>
        <time>2015-06-20T06:28:57Z</time>
      </trkpt>
      <trkpt lat="45.12344" lon="5.91049">
        <ele>2083</ele>
        <time>2015-06-20T06:28:58Z</time>
      </trkpt>
      <trkpt lat="45.12347" lon="5.91049">
        <ele>2083</ele>
        <time>2015-06-20T06:28:59Z</time>
      </trkpt>
      <trkpt lat="45.12348" lon="5.91048">
        <ele>2083</ele>
        <time>2015-06-20T06:29:00Z</time>
      </trkpt>
      <trkpt lat="45.1235" lon="5.91047">
        <ele>2084</ele>
        <time>2015-06-20T06:29:01Z</time>
      </trkpt>
      <trkpt lat="45.12352" lon="5.91046">
        <ele>2084</ele>
        <time>2015-06-20T06:29:02Z</time>
      </trkpt>
      <trkpt lat="45.12354" lon="5.91044">
        <ele>2084</ele>
        <time>2015-06-20T06:29:03Z</time>
      </trkpt>
      <trkpt lat="45.12357" lon="5.91043">
        <ele>2084</ele>
        <time>2015-06-20T06:29:04Z</time>
      </trkpt>
      <trkpt lat="45.1236" lon="5.91041">
        <ele>2083</ele>
        <time>2015-06-20T06:29:05Z</time>
      </trkpt>
      <trkpt lat="45.12363" lon="5.9104">
        <ele>2083</ele>
        <time>2015-06-20T06:29:06Z</time>
      </trkpt>
      <trkpt lat="45.12366" lon="5.91038">
        <ele>2083</ele>
        <time>2015-06-20T06:29:07Z</time>
      </trkpt>
      <trkpt lat="45.12369" lon="5.91036">
        <ele>2083</ele>
        <time>2015-06-20T06:29:08Z</time>
      </trkpt>
      <trkpt lat="45.12372" lon="5.91034">
        <ele>2083</ele>
        <time>2015-06-20T06:29:09Z</time>
      </trkpt>
      <trkpt lat="45.12374" lon="5.91033">
        <ele>2082</ele>
        <time>2015-06-20T06:29:10Z</time>
      </trkpt>
      <trkpt lat="45.12377" lon="5.91031">
        <ele>2082</ele>
        <time>2015-06-20T06:29:11Z</time>
      </trkpt>
      <trkpt lat="45.12379" lon="5.91029">
        <ele>2082</ele>
        <time>2015-06-20T06:29:12Z</time>
      </trkpt>
      <trkpt lat="45.12381" lon="5.91027">
        <ele>2082</ele>
        <time>2015-06-20T06:29:13Z</time>
      </trkpt>
      <trkpt lat="45.12383" lon="5.91025">
        <ele>2082</ele>
        <time>2015-06-20T06:29:14Z</time>
      </trkpt>
      <trkpt lat="45.12385" lon="5.91022">
        <ele>2083</ele>
        <time>2015-06-20T06:29:15Z</time>
      </trkpt>
      <trkpt lat="45.12386" lon="5.9102">
        <ele>2083</ele>
        <time>2015-06-20T06:29:16Z</time>
      </trkpt>
      <trkpt lat="45.12388" lon="5.91018">
        <ele>2083</ele>
        <time>2015-06-20T06:29:17Z</time>
      </trkpt>
      <trkpt lat="45.12389" lon="5.91015">
        <ele>2083</ele>
        <time>2015-06-20T06:29:18Z</time>
      </trkpt>
      <trkpt lat="45.1239" lon="5.91013">
        <ele>2083</ele>
        <time>2015-06-20T06:29:19Z</time>
      </trkpt>
      <trkpt lat="45.12391" lon="5.9101">
        <ele>2083</ele>
        <time>2015-06-20T06:29:20Z</time>
      </trkpt>
      <trkpt lat="45.12393" lon="5.91007">
        <ele>2083</ele>
        <time>2015-06-20T06:29:21Z</time>
      </trkpt>
      <trkpt lat="45.12394" lon="5.91005">
        <ele>2083</ele>
        <time>2015-06-20T06:29:22Z</time>
      </trkpt>
      <trkpt lat="45.12395" lon="5.91003">
        <ele>2083</ele>
        <time>2015-06-20T06:29:23Z</time>
      </trkpt>
      <trkpt lat="45.12396" lon="5.91001">
        <ele>2083</ele>
        <time>2015-06-20T06:29:24Z</time>
      </trkpt>
      <trkpt lat="45.12397" lon="5.90996">
        <ele>2083</ele>
        <time>2015-06-20T06:29:26Z</time>
      </trkpt>
      <trkpt lat="45.12398" lon="5.90992">
        <ele>2083</ele>
        <time>2015-06-20T06:29:28Z</time>
      </trkpt>
      <trkpt lat="45.124" lon="5.90989">
        <ele>2086</ele>
        <time>2015-06-20T06:29:30Z</time>
      </trkpt>
      <trkpt lat="45.12401" lon="5.90986">
        <ele>2086</ele>
        <time>2015-06-20T06:29:32Z</time>
      </trkpt>
      <trkpt lat="45.12403" lon="5.90982">
        <ele>2086</ele>
        <time>2015-06-20T06:29:34Z</time>
      </trkpt>
      <trkpt lat="45.12404" lon="5.9098">
        <ele>2089</ele>
        <time>2015-06-20T06:29:36Z</time>
      </trkpt>
      <trkpt lat="45.12404" lon="5.90977">
        <ele>2089</ele>
        <time>2015-06-20T06:29:38Z</time>
      </trkpt>
      <trkpt lat="45.12405" lon="5.90973">
        <ele>2091</ele>
        <time>2015-06-20T06:29:40Z</time>
      </trkpt>
      <trkpt lat="45.12405" lon="5.90971">
        <ele>2092</ele>
        <time>2015-06-20T06:29:42Z</time>
      </trkpt>
      <trkpt lat="45.12406" lon="5.90968">
        <ele>2092</ele>
        <time>2015-06-20T06:29:44Z</time>
      </trkpt>
      <trkpt lat="45.12407" lon="5.90966">
        <ele>2093</ele>
        <time>2015-06-20T06:29:46Z</time>
      </trkpt>
      <trkpt lat="45.12408" lon="5.90963">
        <ele>2094</ele>
        <time>2015-06-20T06:29:49Z</time>
      </trkpt>
      <trkpt lat="45.12409" lon="5.9096">
        <ele>2095</ele>
        <time>2015-06-20T06:29:52Z</time>
      </trkpt>
      <trkpt lat="45.1241" lon="5.90958">
        <ele>2096</ele>
        <time>2015-06-20T06:29:55Z</time>
      </trkpt>
      <trkpt lat="45.12411" lon="5.90955">
        <ele>2096</ele>
        <time>2015-06-20T06:29:58Z</time>
      </trkpt>
      <trkpt lat="45.12411" lon="5.90952">
        <ele>2097</ele>
        <time>2015-06-20T06:30:00Z</time>
      </trkpt>
      <trkpt lat="45.12411" lon="5.90949">
        <ele>2097</ele>
        <time>2015-06-20T06:30:03Z</time>
      </trkpt>
      <trkpt lat="45.12411" lon="5.90947">
        <ele>2099</ele>
        <time>2015-06-20T06:30:05Z</time>
      </trkpt>
      <trkpt lat="45.12412" lon="5.90944">
        <ele>2099</ele>
        <time>2015-06-20T06:30:07Z</time>
      </trkpt>
      <trkpt lat="45.12413" lon="5.90941">
        <ele>2100</ele>
        <time>2015-06-20T06:30:10Z</time>
      </trkpt>
      <trkpt lat="45.12413" lon="5.90938">
        <ele>2100</ele>
        <time>2015-06-20T06:30:12Z</time>
      </trkpt>
      <trkpt lat="45.12414" lon="5.90935">
        <ele>2100</ele>
        <time>2015-06-20T06:30:14Z</time>
      </trkpt>
      <trkpt lat="45.12415" lon="5.90932">
        <ele>2102</ele>
        <time>2015-06-20T06:30:17Z</time>
      </trkpt>
      <trkpt lat="45.12416" lon="5.90929">
        <ele>2102</ele>
        <time>2015-06-20T06:30:19Z</time>
      </trkpt>
      <trkpt lat="45.12417" lon="5.90927">
        <ele>2102</ele>
        <time>2015-06-20T06:30:21Z</time>
      </trkpt>
      <trkpt lat="45.12417" lon="5.90924">
        <ele>2102</ele>
        <time>2015-06-20T06:30:23Z</time>
      </trkpt>
      <trkpt lat="45.12418" lon="5.90921">
        <ele>2104</ele>
        <time>2015-06-20T06:30:26Z</time>
      </trkpt>
      <trkpt lat="45.1242" lon="5.90919">
        <ele>2104</ele>
        <time>2015-06-20T06:30:29Z</time>
      </trkpt>
      <trkpt lat="45.1242" lon="5.90916">
        <ele>2106</ele>
        <time>2015-06-20T06:30:32Z</time>
      </trkpt>
      <trkpt lat="45.12422" lon="5.90914">
        <ele>2106</ele>
        <time>2015-06-20T06:30:35Z</time>
      </trkpt>
      <trkpt lat="45.12423" lon="5.90911">
        <ele>2106</ele>
        <time>2015-06-20T06:30:38Z</time>
      </trkpt>
      <trkpt lat="45.12424" lon="5.90909">
        <ele>2107</ele>
        <time>2015-06-20T06:30:40Z</time>
      </trkpt>
      <trkpt lat="45.12427" lon="5.90909">
        <ele>2107</ele>
        <time>2015-06-20T06:30:43Z</time>
      </trkpt>
      <trkpt lat="45.12429" lon="5.90908">
        <ele>2107</ele>
        <time>2015-06-20T06:30:47Z</time>
      </trkpt>
      <trkpt lat="45.12432" lon="5.90906">
        <ele>2110</ele>
        <time>2015-06-20T06:30:54Z</time>
      </trkpt>
      <trkpt lat="45.12433" lon="5.90903">
        <ele>2111</ele>
        <time>2015-06-20T06:30:57Z</time>
      </trkpt>
      <trkpt lat="45.12434" lon="5.90901">
        <ele>2111</ele>
        <time>2015-06-20T06:30:59Z</time>
      </trkpt>
      <trkpt lat="45.12436" lon="5.90901">
        <ele>2113</ele>
        <time>2015-06-20T06:31:01Z</time>
      </trkpt>
      <trkpt lat="45.12438" lon="5.90903">
        <ele>2113</ele>
        <time>2015-06-20T06:31:04Z</time>
      </trkpt>
      <trkpt lat="45.12439" lon="5.90905">
        <ele>2113</ele>
        <time>2015-06-20T06:31:09Z</time>
      </trkpt>
      <trkpt lat="45.12441" lon="5.90904">
        <ele>2116</ele>
        <time>2015-06-20T06:31:12Z</time>
      </trkpt>
      <trkpt lat="45.12443" lon="5.90902">
        <ele>2116</ele>
        <time>2015-06-20T06:31:14Z</time>
      </trkpt>
      <trkpt lat="45.12445" lon="5.90904">
        <ele>2118</ele>
        <time>2015-06-20T06:31:17Z</time>
      </trkpt>
      <trkpt lat="45.12447" lon="5.90903">
        <ele>2119</ele>
        <time>2015-06-20T06:31:21Z</time>
      </trkpt>
      <trkpt lat="45.12449" lon="5.90905">
        <ele>2119</ele>
        <time>2015-06-20T06:31:25Z</time>
      </trkpt>
      <trkpt lat="45.12448" lon="5.90909">
        <ele>2120</ele>
        <time>2015-06-20T06:31:28Z</time>
      </trkpt>
      <trkpt lat="45.12446" lon="5.90911">
        <ele>2122</ele>
        <time>2015-06-20T06:31:30Z</time>
      </trkpt>
      <trkpt lat="45.12446" lon="5.90913">
        <ele>2122</ele>
        <time>2015-06-20T06:31:32Z</time>
      </trkpt>
      <trkpt lat="45.12448" lon="5.90916">
        <ele>2123</ele>
        <time>2015-06-20T06:31:35Z</time>
      </trkpt>
      <trkpt lat="45.1245" lon="5.90917">
        <ele>2123</ele>
        <time>2015-06-20T06:31:37Z</time>
      </trkpt>
      <trkpt lat="45.12451" lon="5.90919">
        <ele>2125</ele>
        <time>2015-06-20T06:31:40Z</time>
      </trkpt>
      <trkpt lat="45.12453" lon="5.90922">
        <ele>2125</ele>
        <time>2015-06-20T06:31:43Z</time>
      </trkpt>
      <trkpt lat="45.12453" lon="5.90925">
        <ele>2126</ele>
        <time>2015-06-20T06:31:46Z</time>
      </trkpt>
      <trkpt lat="45.12454" lon="5.90929">
        <ele>2125</ele>
        <time>2015-06-20T06:31:48Z</time>
      </trkpt>
      <trkpt lat="45.12455" lon="5.90932">
        <ele>2125</ele>
        <time>2015-06-20T06:31:50Z</time>
      </trkpt>
      <trkpt lat="45.12455" lon="5.90935">
        <ele>2129</ele>
        <time>2015-06-20T06:31:52Z</time>
      </trkpt>
      <trkpt lat="45.12457" lon="5.90938">
        <ele>2129</ele>
        <time>2015-06-20T06:31:54Z</time>
      </trkpt>
      <trkpt lat="45.12459" lon="5.90941">
        <ele>2129</ele>
        <time>2015-06-20T06:31:56Z</time>
      </trkpt>
      <trkpt lat="45.1246" lon="5.90944">
        <ele>2129</ele>
        <time>2015-06-20T06:31:58Z</time>
      </trkpt>
      <trkpt lat="45.12461" lon="5.90946">
        <ele>2129</ele>
        <time>2015-06-20T06:32:00Z</time>
      </trkpt>
      <trkpt lat="45.12463" lon="5.90949">
        <ele>2128</ele>
        <time>2015-06-20T06:32:02Z</time>
      </trkpt>
      <trkpt lat="45.12465" lon="5.9095">
        <ele>2128</ele>
        <time>2015-06-20T06:32:04Z</time>
      </trkpt>
      <trkpt lat="45.12466" lon="5.90954">
        <ele>2128</ele>
        <time>2015-06-20T06:32:06Z</time>
      </trkpt>
      <trkpt lat="45.12468" lon="5.90954">
        <ele>2128</ele>
        <time>2015-06-20T06:32:08Z</time>
      </trkpt>
      <trkpt lat="45.1247" lon="5.90954">
        <ele>2130</ele>
        <time>2015-06-20T06:32:10Z</time>
      </trkpt>
      <trkpt lat="45.12472" lon="5.90956">
        <ele>2130</ele>
        <time>2015-06-20T06:32:12Z</time>
      </trkpt>
      <trkpt lat="45.12474" lon="5.90957">
        <ele>2130</ele>
        <time>2015-06-20T06:32:14Z</time>
      </trkpt>
      <trkpt lat="45.12475" lon="5.9096">
        <ele>2132</ele>
        <time>2015-06-20T06:32:17Z</time>
      </trkpt>
      <trkpt lat="45.12477" lon="5.90961">
        <ele>2132</ele>
        <time>2015-06-20T06:32:19Z</time>
      </trkpt>
      <trkpt lat="45.12479" lon="5.90964">
        <ele>2133</ele>
        <time>2015-06-20T06:32:23Z</time>
      </trkpt>
      <trkpt lat="45.12481" lon="5.90966">
        <ele>2133</ele>
        <time>2015-06-20T06:32:25Z</time>
      </trkpt>
      <trkpt lat="45.12483" lon="5.90968">
        <ele>2135</ele>
        <time>2015-06-20T06:32:27Z</time>
      </trkpt>
      <trkpt lat="45.12485" lon="5.90969">
        <ele>2135</ele>
        <time>2015-06-20T06:32:29Z</time>
      </trkpt>
      <trkpt lat="45.12486" lon="5.90971">
        <ele>2137</ele>
        <time>2015-06-20T06:32:30Z</time>
      </trkpt>
      <trkpt lat="45.12488" lon="5.90973">
        <ele>2137</ele>
        <time>2015-06-20T06:32:32Z</time>
      </trkpt>
      <trkpt lat="45.1249" lon="5.90972">
        <ele>2137</ele>
        <time>2015-06-20T06:32:35Z</time>
      </trkpt>
      <trkpt lat="45.12492" lon="5.90971">
        <ele>2141</ele>
        <time>2015-06-20T06:32:38Z</time>
      </trkpt>
      <trkpt lat="45.12494" lon="5.90971">
        <ele>2141</ele>
        <time>2015-06-20T06:32:41Z</time>
      </trkpt>
      <trkpt lat="45.12497" lon="5.90971">
        <ele>2141</ele>
        <time>2015-06-20T06:32:45Z</time>
      </trkpt>
      <trkpt lat="45.12499" lon="5.90972">
        <ele>2144</ele>
        <time>2015-06-20T06:32:48Z</time>
      </trkpt>
      <trkpt lat="45.12501" lon="5.90972">
        <ele>2145</ele>
        <time>2015-06-20T06:32:51Z</time>
      </trkpt>
      <trkpt lat="45.12504" lon="5.90971">
        <ele>2145</ele>
        <time>2015-06-20T06:32:54Z</time>
      </trkpt>
      <trkpt lat="45.12506" lon="5.90973">
        <ele>2145</ele>
        <time>2015-06-20T06:32:57Z</time>
      </trkpt>
      <trkpt lat="45.12508" lon="5.90976">
        <ele>2145</ele>
        <time>2015-06-20T06:32:59Z</time>
      </trkpt>
      <trkpt lat="45.12509" lon="5.9098">
        <ele>2145</ele>
        <time>2015-06-20T06:33:01Z</time>
      </trkpt>
      <trkpt lat="45.12511" lon="5.90983">
        <ele>2145</ele>
        <time>2015-06-20T06:33:03Z</time>
      </trkpt>
      <trkpt lat="45.12512" lon="5.90987">
        <ele>2146</ele>
        <time>2015-06-20T06:33:05Z</time>
      </trkpt>
      <trkpt lat="45.12513" lon="5.9099">
        <ele>2146</ele>
        <time>2015-06-20T06:33:07Z</time>
      </trkpt>
      <trkpt lat="45.12515" lon="5.90992">
        <ele>2146</ele>
        <time>2015-06-20T06:33:10Z</time>
      </trkpt>
      <trkpt lat="45.12517" lon="5.90989">
        <ele>2146</ele>
        <time>2015-06-20T06:33:12Z</time>
      </trkpt>
      <trkpt lat="45.12519" lon="5.90986">
        <ele>2146</ele>
        <time>2015-06-20T06:33:14Z</time>
      </trkpt>
      <trkpt lat="45.12521" lon="5.90982">
        <ele>2147</ele>
        <time>2015-06-20T06:33:16Z</time>
      </trkpt>
      <trkpt lat="45.12522" lon="5.90978">
        <ele>2147</ele>
        <time>2015-06-20T06:33:18Z</time>
      </trkpt>
      <trkpt lat="45.12522" lon="5.90974">
        <ele>2147</ele>
        <time>2015-06-20T06:33:20Z</time>
      </trkpt>
      <trkpt lat="45.12523" lon="5.90972">
        <ele>2149</ele>
        <time>2015-06-20T06:33:22Z</time>
      </trkpt>
      <trkpt lat="45.12523" lon="5.90968">
        <ele>2149</ele>
        <time>2015-06-20T06:33:24Z</time>
      </trkpt>
      <trkpt lat="45.12524" lon="5.90964">
        <ele>2150</ele>
        <time>2015-06-20T06:33:26Z</time>
      </trkpt>
      <trkpt lat="45.12524" lon="5.90961">
        <ele>2150</ele>
        <time>2015-06-20T06:33:28Z</time>
      </trkpt>
      <trkpt lat="45.12524" lon="5.90959">
        <ele>2152</ele>
        <time>2015-06-20T06:33:30Z</time>
      </trkpt>
      <trkpt lat="45.12524" lon="5.90955">
        <ele>2152</ele>
        <time>2015-06-20T06:33:32Z</time>
      </trkpt>
      <trkpt lat="45.12525" lon="5.90952">
        <ele>2152</ele>
        <time>2015-06-20T06:33:34Z</time>
      </trkpt>
      <trkpt lat="45.12526" lon="5.90948">
        <ele>2152</ele>
        <time>2015-06-20T06:33:36Z</time>
      </trkpt>
      <trkpt lat="45.12527" lon="5.90945">
        <ele>2152</ele>
        <time>2015-06-20T06:33:38Z</time>
      </trkpt>
      <trkpt lat="45.12529" lon="5.90941">
        <ele>2152</ele>
        <time>2015-06-20T06:33:40Z</time>
      </trkpt>
      <trkpt lat="45.1253" lon="5.90939">
        <ele>2154</ele>
        <time>2015-06-20T06:33:42Z</time>
      </trkpt>
      <trkpt lat="45.12532" lon="5.90936">
        <ele>2155</ele>
        <time>2015-06-20T06:33:44Z</time>
      </trkpt>
      <trkpt lat="45.12535" lon="5.90934">
        <ele>2155</ele>
        <time>2015-06-20T06:33:46Z</time>
      </trkpt>
      <trkpt lat="45.12537" lon="5.90933">
        <ele>2155</ele>
        <time>2015-06-20T06:33:48Z</time>
      </trkpt>
      <trkpt lat="45.12539" lon="5.90933">
        <ele>2156</ele>
        <time>2015-06-20T06:33:50Z</time>
      </trkpt>
      <trkpt lat="45.12541" lon="5.90933">
        <ele>2156</ele>
        <time>2015-06-20T06:33:53Z</time>
      </trkpt>
      <trkpt lat="45.12544" lon="5.90933">
        <ele>2158</ele>
        <time>2015-06-20T06:33:56Z</time>
      </trkpt>
      <trkpt lat="45.12546" lon="5.90932">
        <ele>2158</ele>
        <time>2015-06-20T06:33:58Z</time>
      </trkpt>
      <trkpt lat="45.12548" lon="5.90933">
        <ele>2159</ele>
        <time>2015-06-20T06:34:00Z</time>
      </trkpt>
      <trkpt lat="45.1255" lon="5.90935">
        <ele>2160</ele>
        <time>2015-06-20T06:34:02Z</time>
      </trkpt>
      <trkpt lat="45.12551" lon="5.90937">
        <ele>2160</ele>
        <time>2015-06-20T06:34:04Z</time>
      </trkpt>
      <trkpt lat="45.12553" lon="5.90939">
        <ele>2162</ele>
        <time>2015-06-20T06:34:07Z</time>
      </trkpt>
      <trkpt lat="45.12555" lon="5.9094">
        <ele>2162</ele>
        <time>2015-06-20T06:34:10Z</time>
      </trkpt>
      <trkpt lat="45.12557" lon="5.90941">
        <ele>2164</ele>
        <time>2015-06-20T06:34:12Z</time>
      </trkpt>
      <trkpt lat="45.12559" lon="5.90942">
        <ele>2164</ele>
        <time>2015-06-20T06:34:14Z</time>
      </trkpt>
      <trkpt lat="45.12561" lon="5.90944">
        <ele>2164</ele>
        <time>2015-06-20T06:34:16Z</time>
      </trkpt>
      <trkpt lat="45.12562" lon="5.90944">
        <ele>2165</ele>
        <time>2015-06-20T06:34:18Z</time>
      </trkpt>
      <trkpt lat="45.12564" lon="5.90946">
        <ele>2165</ele>
        <time>2015-06-20T06:34:20Z</time>
      </trkpt>
      <trkpt lat="45.12566" lon="5.90947">
        <ele>2165</ele>
        <time>2015-06-20T06:34:23Z</time>
      </trkpt>
      <trkpt lat="45.12568" lon="5.90947">
        <ele>2167</ele>
        <time>2015-06-20T06:34:25Z</time>
      </trkpt>
      <trkpt lat="45.1257" lon="5.90945">
        <ele>2168</ele>
        <time>2015-06-20T06:34:27Z</time>
      </trkpt>
      <trkpt lat="45.12571" lon="5.90944">
        <ele>2168</ele>
        <time>2015-06-20T06:34:29Z</time>
      </trkpt>
      <trkpt lat="45.12574" lon="5.90944">
        <ele>2170</ele>
        <time>2015-06-20T06:34:32Z</time>
      </trkpt>
      <trkpt lat="45.12576" lon="5.90945">
        <ele>2170</ele>
        <time>2015-06-20T06:34:35Z</time>
      </trkpt>
      <trkpt lat="45.12577" lon="5.90944">
        <ele>2173</ele>
        <time>2015-06-20T06:34:38Z</time>
      </trkpt>
      <trkpt lat="45.12579" lon="5.90942">
        <ele>2174</ele>
        <time>2015-06-20T06:34:41Z</time>
      </trkpt>
      <trkpt lat="45.12581" lon="5.90941">
        <ele>2176</ele>
        <time>2015-06-20T06:34:44Z</time>
      </trkpt>
      <trkpt lat="45.12583" lon="5.90938">
        <ele>2178</ele>
        <time>2015-06-20T06:34:48Z</time>
      </trkpt>
      <trkpt lat="45.12584" lon="5.90935">
        <ele>2178</ele>
        <time>2015-06-20T06:34:50Z</time>
      </trkpt>
      <trkpt lat="45.12585" lon="5.90932">
        <ele>2178</ele>
        <time>2015-06-20T06:34:51Z</time>
      </trkpt>
      <trkpt lat="45.12587" lon="5.90934">
        <ele>2178</ele>
        <time>2015-06-20T06:34:57Z</time>
      </trkpt>
      <trkpt lat="45.12587" lon="5.90937">
        <ele>2179</ele>
        <time>2015-06-20T06:35:00Z</time>
      </trkpt>
      <trkpt lat="45.12589" lon="5.90935">
        <ele>2179</ele>
        <time>2015-06-20T06:35:05Z</time>
      </trkpt>
      <trkpt lat="45.12589" lon="5.90931">
        <ele>2179</ele>
        <time>2015-06-20T06:35:07Z</time>
      </trkpt>
      <trkpt lat="45.12589" lon="5.90927">
        <ele>2179</ele>
        <time>2015-06-20T06:35:09Z</time>
      </trkpt>
      <trkpt lat="45.12589" lon="5.90923">
        <ele>2179</ele>
        <time>2015-06-20T06:35:11Z</time>
      </trkpt>
      <trkpt lat="45.12589" lon="5.90919">
        <ele>2181</ele>
        <time>2015-06-20T06:35:13Z</time>
      </trkpt>
      <trkpt lat="45.12589" lon="5.90915">
        <ele>2181</ele>
        <time>2015-06-20T06:35:15Z</time>
      </trkpt>
      <trkpt lat="45.12589" lon="5.90912">
        <ele>2181</ele>
        <time>2015-06-20T06:35:17Z</time>
      </trkpt>
      <trkpt lat="45.12588" lon="5.90908">
        <ele>2181</ele>
        <time>2015-06-20T06:35:19Z</time>
      </trkpt>
      <trkpt lat="45.12588" lon="5.90904">
        <ele>2183</ele>
        <time>2015-06-20T06:35:21Z</time>
      </trkpt>
      <trkpt lat="45.12588" lon="5.909">
        <ele>2183</ele>
        <time>2015-06-20T06:35:23Z</time>
      </trkpt>
      <trkpt lat="45.12588" lon="5.90897">
        <ele>2183</ele>
        <time>2015-06-20T06:35:25Z</time>
      </trkpt>
      <trkpt lat="45.12588" lon="5.90893">
        <ele>2183</ele>
        <time>2015-06-20T06:35:27Z</time>
      </trkpt>
      <trkpt lat="45.12587" lon="5.9089">
        <ele>2184</ele>
        <time>2015-06-20T06:35:29Z</time>
      </trkpt>
      <trkpt lat="45.12587" lon="5.90886">
        <ele>2184</ele>
        <time>2015-06-20T06:35:31Z</time>
      </trkpt>
      <trkpt lat="45.12586" lon="5.90883">
        <ele>2186</ele>
        <time>2015-06-20T06:35:33Z</time>
      </trkpt>
      <trkpt lat="45.12586" lon="5.90879">
        <ele>2186</ele>
        <time>2015-06-20T06:35:35Z</time>
      </trkpt>
      <trkpt lat="45.12586" lon="5.90876">
        <ele>2186</ele>
        <time>2015-06-20T06:35:37Z</time>
      </trkpt>
      <trkpt lat="45.12586" lon="5.90873">
        <ele>2187</ele>
        <time>2015-06-20T06:35:39Z</time>
      </trkpt>
      <trkpt lat="45.12585" lon="5.9087">
        <ele>2187</ele>
        <time>2015-06-20T06:35:41Z</time>
      </trkpt>
      <trkpt lat="45.12584" lon="5.90866">
        <ele>2190</ele>
        <time>2015-06-20T06:35:43Z</time>
      </trkpt>
      <trkpt lat="45.12584" lon="5.90863">
        <ele>2189</ele>
        <time>2015-06-20T06:35:45Z</time>
      </trkpt>
      <trkpt lat="45.12583" lon="5.90859">
        <ele>2189</ele>
        <time>2015-06-20T06:35:47Z</time>
      </trkpt>
      <trkpt lat="45.12583" lon="5.90856">
        <ele>2190</ele>
        <time>2015-06-20T06:35:49Z</time>
      </trkpt>
      <trkpt lat="45.12584" lon="5.90852">
        <ele>2190</ele>
        <time>2015-06-20T06:35:51Z</time>
      </trkpt>
      <trkpt lat="45.12584" lon="5.90849">
        <ele>2191</ele>
        <time>2015-06-20T06:35:53Z</time>
      </trkpt>
      <trkpt lat="45.12585" lon="5.90845">
        <ele>2191</ele>
        <time>2015-06-20T06:35:55Z</time>
      </trkpt>
      <trkpt lat="45.12585" lon="5.90841">
        <ele>2191</ele>
        <time>2015-06-20T06:35:57Z</time>
      </trkpt>
      <trkpt lat="45.12586" lon="5.90838">
        <ele>2194</ele>
        <time>2015-06-20T06:35:59Z</time>
      </trkpt>
      <trkpt lat="45.12587" lon="5.90835">
        <ele>2194</ele>
        <time>2015-06-20T06:36:01Z</time>
      </trkpt>
      <trkpt lat="45.12588" lon="5.90831">
        <ele>2195</ele>
        <time>2015-06-20T06:36:03Z</time>
      </trkpt>
      <trkpt lat="45.12589" lon="5.90828">
        <ele>2195</ele>
        <time>2015-06-20T06:36:05Z</time>
      </trkpt>
      <trkpt lat="45.12589" lon="5.90825">
        <ele>2195</ele>
        <time>2015-06-20T06:36:07Z</time>
      </trkpt>
      <trkpt lat="45.12589" lon="5.90821">
        <ele>2195</ele>
        <time>2015-06-20T06:36:09Z</time>
      </trkpt>
      <trkpt lat="45.12589" lon="5.90818">
        <ele>2195</ele>
        <time>2015-06-20T06:36:11Z</time>
      </trkpt>
      <trkpt lat="45.1259" lon="5.90815">
        <ele>2195</ele>
        <time>2015-06-20T06:36:13Z</time>
      </trkpt>
      <trkpt lat="45.12591" lon="5.90811">
        <ele>2195</ele>
        <time>2015-06-20T06:36:15Z</time>
      </trkpt>
      <trkpt lat="45.12591" lon="5.90807">
        <ele>2195</ele>
        <time>2015-06-20T06:36:17Z</time>
      </trkpt>
      <trkpt lat="45.12592" lon="5.90803">
        <ele>2195</ele>
        <time>2015-06-20T06:36:19Z</time>
      </trkpt>
      <trkpt lat="45.12594" lon="5.908">
        <ele>2197</ele>
        <time>2015-06-20T06:36:21Z</time>
      </trkpt>
      <trkpt lat="45.12595" lon="5.90797">
        <ele>2197</ele>
        <time>2015-06-20T06:36:23Z</time>
      </trkpt>
      <trkpt lat="45.12595" lon="5.90793">
        <ele>2197</ele>
        <time>2015-06-20T06:36:26Z</time>
      </trkpt>
      <trkpt lat="45.12594" lon="5.9079">
        <ele>2197</ele>
        <time>2015-06-20T06:36:29Z</time>
      </trkpt>
      <trkpt lat="45.12593" lon="5.90786">
        <ele>2201</ele>
        <time>2015-06-20T06:36:32Z</time>
      </trkpt>
      <trkpt lat="45.12592" lon="5.90783">
        <ele>2201</ele>
        <time>2015-06-20T06:36:34Z</time>
      </trkpt>
      <trkpt lat="45.12592" lon="5.9078">
        <ele>2201</ele>
        <time>2015-06-20T06:36:36Z</time>
      </trkpt>
      <trkpt lat="45.12591" lon="5.90778">
        <ele>2201</ele>
        <time>2015-06-20T06:36:38Z</time>
      </trkpt>
      <trkpt lat="45.12591" lon="5.90775">
        <ele>2203</ele>
        <time>2015-06-20T06:36:41Z</time>
      </trkpt>
      <trkpt lat="45.12591" lon="5.90772">
        <ele>2203</ele>
        <time>2015-06-20T06:36:43Z</time>
      </trkpt>
      <trkpt lat="45.12592" lon="5.90768">
        <ele>2204</ele>
        <time>2015-06-20T06:36:45Z</time>
      </trkpt>
      <trkpt lat="45.12593" lon="5.90765">
        <ele>2204</ele>
        <time>2015-06-20T06:36:47Z</time>
      </trkpt>
      <trkpt lat="45.12593" lon="5.90762">
        <ele>2206</ele>
        <time>2015-06-20T06:36:49Z</time>
      </trkpt>
      <trkpt lat="45.12594" lon="5.90759">
        <ele>2206</ele>
        <time>2015-06-20T06:36:51Z</time>
      </trkpt>
      <trkpt lat="45.12594" lon="5.90756">
        <ele>2207</ele>
        <time>2015-06-20T06:36:53Z</time>
      </trkpt>
      <trkpt lat="45.12594" lon="5.90753">
        <ele>2207</ele>
        <time>2015-06-20T06:36:55Z</time>
      </trkpt>
      <trkpt lat="45.12594" lon="5.9075">
        <ele>2207</ele>
        <time>2015-06-20T06:36:57Z</time>
      </trkpt>
      <trkpt lat="45.12594" lon="5.90747">
        <ele>2207</ele>
        <time>2015-06-20T06:36:59Z</time>
      </trkpt>
      <trkpt lat="45.12595" lon="5.90744">
        <ele>2207</ele>
        <time>2015-06-20T06:37:01Z</time>
      </trkpt>
      <trkpt lat="45.12595" lon="5.90741">
        <ele>2210</ele>
        <time>2015-06-20T06:37:03Z</time>
      </trkpt>
      <trkpt lat="45.12596" lon="5.90737">
        <ele>2210</ele>
        <time>2015-06-20T06:37:05Z</time>
      </trkpt>
      <trkpt lat="45.12596" lon="5.90734">
        <ele>2210</ele>
        <time>2015-06-20T06:37:07Z</time>
      </trkpt>
      <trkpt lat="45.12596" lon="5.90731">
        <ele>2212</ele>
        <time>2015-06-20T06:37:09Z</time>
      </trkpt>
      <trkpt lat="45.12597" lon="5.90729">
        <ele>2212</ele>
        <time>2015-06-20T06:37:11Z</time>
      </trkpt>
      <trkpt lat="45.12598" lon="5.90725">
        <ele>2212</ele>
        <time>2015-06-20T06:37:13Z</time>
      </trkpt>
      <trkpt lat="45.12598" lon="5.90722">
        <ele>2214</ele>
        <time>2015-06-20T06:37:15Z</time>
      </trkpt>
      <trkpt lat="45.12599" lon="5.90718">
        <ele>2214</ele>
        <time>2015-06-20T06:37:17Z</time>
      </trkpt>
      <trkpt lat="45.126" lon="5.90715">
        <ele>2214</ele>
        <time>2015-06-20T06:37:19Z</time>
      </trkpt>
      <trkpt lat="45.12601" lon="5.9071">
        <ele>2215</ele>
        <time>2015-06-20T06:37:21Z</time>
      </trkpt>
      <trkpt lat="45.126" lon="5.90707">
        <ele>2215</ele>
        <time>2015-06-20T06:37:23Z</time>
      </trkpt>
      <trkpt lat="45.12599" lon="5.90704">
        <ele>2215</ele>
        <time>2015-06-20T06:37:25Z</time>
      </trkpt>
      <trkpt lat="45.12598" lon="5.90702">
        <ele>2215</ele>
        <time>2015-06-20T06:37:27Z</time>
      </trkpt>
      <trkpt lat="45.12597" lon="5.90699">
        <ele>2216</ele>
        <time>2015-06-20T06:37:29Z</time>
      </trkpt>
      <trkpt lat="45.12596" lon="5.90697">
        <ele>2216</ele>
        <time>2015-06-20T06:37:31Z</time>
      </trkpt>
      <trkpt lat="45.12595" lon="5.90694">
        <ele>2216</ele>
        <time>2015-06-20T06:37:33Z</time>
      </trkpt>
      <trkpt lat="45.12594" lon="5.90691">
        <ele>2216</ele>
        <time>2015-06-20T06:37:35Z</time>
      </trkpt>
      <trkpt lat="45.12593" lon="5.90688">
        <ele>2221</ele>
        <time>2015-06-20T06:37:37Z</time>
      </trkpt>
      <trkpt lat="45.12591" lon="5.90686">
        <ele>2221</ele>
        <time>2015-06-20T06:37:39Z</time>
      </trkpt>
      <trkpt lat="45.12589" lon="5.90685">
        <ele>2223</ele>
        <time>2015-06-20T06:37:41Z</time>
      </trkpt>
      <trkpt lat="45.12587" lon="5.90683">
        <ele>2223</ele>
        <time>2015-06-20T06:37:43Z</time>
      </trkpt>
      <trkpt lat="45.12585" lon="5.90681">
        <ele>2223</ele>
        <time>2015-06-20T06:37:45Z</time>
      </trkpt>
      <trkpt lat="45.12583" lon="5.90679">
        <ele>2223</ele>
        <time>2015-06-20T06:37:47Z</time>
      </trkpt>
      <trkpt lat="45.12583" lon="5.90676">
        <ele>2224</ele>
        <time>2015-06-20T06:37:49Z</time>
      </trkpt>
      <trkpt lat="45.12582" lon="5.90674">
        <ele>2225</ele>
        <time>2015-06-20T06:37:51Z</time>
      </trkpt>
      <trkpt lat="45.12581" lon="5.90671">
        <ele>2225</ele>
        <time>2015-06-20T06:37:53Z</time>
      </trkpt>
      <trkpt lat="45.12581" lon="5.90667">
        <ele>2225</ele>
        <time>2015-06-20T06:37:55Z</time>
      </trkpt>
      <trkpt lat="45.12581" lon="5.90664">
        <ele>2226</ele>
        <time>2015-06-20T06:37:57Z</time>
      </trkpt>
      <trkpt lat="45.12581" lon="5.9066">
        <ele>2226</ele>
        <time>2015-06-20T06:37:59Z</time>
      </trkpt>
      <trkpt lat="45.12582" lon="5.90657">
        <ele>2228</ele>
        <time>2015-06-20T06:38:01Z</time>
      </trkpt>
      <trkpt lat="45.12582" lon="5.90653">
        <ele>2228</ele>
        <time>2015-06-20T06:38:03Z</time>
      </trkpt>
      <trkpt lat="45.12581" lon="5.90651">
        <ele>2229</ele>
        <time>2015-06-20T06:38:05Z</time>
      </trkpt>
      <trkpt lat="45.1258" lon="5.90648">
        <ele>2229</ele>
        <time>2015-06-20T06:38:07Z</time>
      </trkpt>
      <trkpt lat="45.12578" lon="5.90646">
        <ele>2229</ele>
        <time>2015-06-20T06:38:09Z</time>
      </trkpt>
      <trkpt lat="45.12577" lon="5.90642">
        <ele>2231</ele>
        <time>2015-06-20T06:38:11Z</time>
      </trkpt>
      <trkpt lat="45.12576" lon="5.9064">
        <ele>2231</ele>
        <time>2015-06-20T06:38:13Z</time>
      </trkpt>
      <trkpt lat="45.12574" lon="5.90638">
        <ele>2233</ele>
        <time>2015-06-20T06:38:15Z</time>
      </trkpt>
      <trkpt lat="45.12574" lon="5.90634">
        <ele>2233</ele>
        <time>2015-06-20T06:38:17Z</time>
      </trkpt>
      <trkpt lat="45.12573" lon="5.9063">
        <ele>2233</ele>
        <time>2015-06-20T06:38:19Z</time>
      </trkpt>
      <trkpt lat="45.12573" lon="5.90627">
        <ele>2233</ele>
        <time>2015-06-20T06:38:21Z</time>
      </trkpt>
      <trkpt lat="45.12572" lon="5.90623">
        <ele>2233</ele>
        <time>2015-06-20T06:38:23Z</time>
      </trkpt>
      <trkpt lat="45.12571" lon="5.90621">
        <ele>2236</ele>
        <time>2015-06-20T06:38:25Z</time>
      </trkpt>
      <trkpt lat="45.1257" lon="5.90617">
        <ele>2236</ele>
        <time>2015-06-20T06:38:27Z</time>
      </trkpt>
      <trkpt lat="45.1257" lon="5.90614">
        <ele>2236</ele>
        <time>2015-06-20T06:38:29Z</time>
      </trkpt>
      <trkpt lat="45.12569" lon="5.90611">
        <ele>2238</ele>
        <time>2015-06-20T06:38:31Z</time>
      </trkpt>
      <trkpt lat="45.12568" lon="5.90608">
        <ele>2238</ele>
        <time>2015-06-20T06:38:33Z</time>
      </trkpt>
      <trkpt lat="45.12567" lon="5.90605">
        <ele>2240</ele>
        <time>2015-06-20T06:38:35Z</time>
      </trkpt>
      <trkpt lat="45.12567" lon="5.90602">
        <ele>2240</ele>
        <time>2015-06-20T06:38:37Z</time>
      </trkpt>
      <trkpt lat="45.12565" lon="5.90599">
        <ele>2241</ele>
        <time>2015-06-20T06:38:40Z</time>
      </trkpt>
      <trkpt lat="45.12562" lon="5.90598">
        <ele>2241</ele>
        <time>2015-06-20T06:38:42Z</time>
      </trkpt>
      <trkpt lat="45.1256" lon="5.90595">
        <ele>2241</ele>
        <time>2015-06-20T06:38:44Z</time>
      </trkpt>
      <trkpt lat="45.12559" lon="5.90593">
        <ele>2243</ele>
        <time>2015-06-20T06:38:46Z</time>
      </trkpt>
      <trkpt lat="45.12558" lon="5.9059">
        <ele>2243</ele>
        <time>2015-06-20T06:38:49Z</time>
      </trkpt>
      <trkpt lat="45.12557" lon="5.90588">
        <ele>2243</ele>
        <time>2015-06-20T06:38:51Z</time>
      </trkpt>
      <trkpt lat="45.12555" lon="5.90585">
        <ele>2243</ele>
        <time>2015-06-20T06:38:53Z</time>
      </trkpt>
      <trkpt lat="45.12554" lon="5.90582">
        <ele>2246</ele>
        <time>2015-06-20T06:38:56Z</time>
      </trkpt>
      <trkpt lat="45.12552" lon="5.90579">
        <ele>2246</ele>
        <time>2015-06-20T06:38:58Z</time>
      </trkpt>
      <trkpt lat="45.12551" lon="5.90577">
        <ele>2250</ele>
        <time>2015-06-20T06:39:00Z</time>
      </trkpt>
      <trkpt lat="45.12549" lon="5.90574">
        <ele>2250</ele>
        <time>2015-06-20T06:39:02Z</time>
      </trkpt>
      <trkpt lat="45.12547" lon="5.9057">
        <ele>2250</ele>
        <time>2015-06-20T06:39:04Z</time>
      </trkpt>
      <trkpt lat="45.12546" lon="5.90567">
        <ele>2250</ele>
        <time>2015-06-20T06:39:05Z</time>
      </trkpt>
      <trkpt lat="45.12545" lon="5.90564">
        <ele>2250</ele>
        <time>2015-06-20T06:39:06Z</time>
      </trkpt>
      <trkpt lat="45.12545" lon="5.90561">
        <ele>2250</ele>
        <time>2015-06-20T06:39:07Z</time>
      </trkpt>
      <trkpt lat="45.12544" lon="5.90558">
        <ele>2250</ele>
        <time>2015-06-20T06:39:08Z</time>
      </trkpt>
      <trkpt lat="45.12544" lon="5.90555">
        <ele>2250</ele>
        <time>2015-06-20T06:39:09Z</time>
      </trkpt>
      <trkpt lat="45.12544" lon="5.90552">
        <ele>2251</ele>
        <time>2015-06-20T06:39:10Z</time>
      </trkpt>
      <trkpt lat="45.12544" lon="5.90547">
        <ele>2251</ele>
        <time>2015-06-20T06:39:12Z</time>
      </trkpt>
      <trkpt lat="45.12544" lon="5.90542">
        <ele>2251</ele>
        <time>2015-06-20T06:39:14Z</time>
      </trkpt>
      <trkpt lat="45.12543" lon="5.9054">
        <ele>2251</ele>
        <time>2015-06-20T06:39:15Z</time>
      </trkpt>
      <trkpt lat="45.12543" lon="5.90537">
        <ele>2251</ele>
        <time>2015-06-20T06:39:16Z</time>
      </trkpt>
      <trkpt lat="45.12543" lon="5.90533">
        <ele>2250</ele>
        <time>2015-06-20T06:39:17Z</time>
      </trkpt>
      <trkpt lat="45.12543" lon="5.9053">
        <ele>2250</ele>
        <time>2015-06-20T06:39:18Z</time>
      </trkpt>
      <trkpt lat="45.12543" lon="5.90527">
        <ele>2250</ele>
        <time>2015-06-20T06:39:19Z</time>
      </trkpt>
      <trkpt lat="45.12543" lon="5.90523">
        <ele>2250</ele>
        <time>2015-06-20T06:39:20Z</time>
      </trkpt>
      <trkpt lat="45.12543" lon="5.9052">
        <ele>2250</ele>
        <time>2015-06-20T06:39:21Z</time>
      </trkpt>
      <trkpt lat="45.12543" lon="5.90517">
        <ele>2250</ele>
        <time>2015-06-20T06:39:22Z</time>
      </trkpt>
      <trkpt lat="45.12544" lon="5.90514">
        <ele>2250</ele>
        <time>2015-06-20T06:39:23Z</time>
      </trkpt>
      <trkpt lat="45.12544" lon="5.9051">
        <ele>2250</ele>
        <time>2015-06-20T06:39:24Z</time>
      </trkpt>
      <trkpt lat="45.12545" lon="5.90506">
        <ele>2250</ele>
        <time>2015-06-20T06:39:25Z</time>
      </trkpt>
      <trkpt lat="45.12546" lon="5.90502">
        <ele>2250</ele>
        <time>2015-06-20T06:39:26Z</time>
      </trkpt>
      <trkpt lat="45.12546" lon="5.90499">
        <ele>2250</ele>
        <time>2015-06-20T06:39:27Z</time>
      </trkpt>
      <trkpt lat="45.12547" lon="5.90495">
        <ele>2250</ele>
        <time>2015-06-20T06:39:28Z</time>
      </trkpt>
      <trkpt lat="45.12547" lon="5.90491">
        <ele>2250</ele>
        <time>2015-06-20T06:39:29Z</time>
      </trkpt>
      <trkpt lat="45.12548" lon="5.90487">
        <ele>2250</ele>
        <time>2015-06-20T06:39:30Z</time>
      </trkpt>
      <trkpt lat="45.12548" lon="5.90484">
        <ele>2250</ele>
        <time>2015-06-20T06:39:31Z</time>
      </trkpt>
      <trkpt lat="45.12548" lon="5.9048">
        <ele>2250</ele>
        <time>2015-06-20T06:39:32Z</time>
      </trkpt>
      <trkpt lat="45.12549" lon="5.90476">
        <ele>2250</ele>
        <time>2015-06-20T06:39:33Z</time>
      </trkpt>
      <trkpt lat="45.12549" lon="5.90473">
        <ele>2250</ele>
        <time>2015-06-20T06:39:34Z</time>
      </trkpt>
      <trkpt lat="45.12549" lon="5.9047">
        <ele>2250</ele>
        <time>2015-06-20T06:39:35Z</time>
      </trkpt>
      <trkpt lat="45.1255" lon="5.90467">
        <ele>2250</ele>
        <time>2015-06-20T06:39:36Z</time>
      </trkpt>
      <trkpt lat="45.1255" lon="5.90464">
        <ele>2250</ele>
        <time>2015-06-20T06:39:37Z</time>
      </trkpt>
      <trkpt lat="45.1255" lon="5.9046">
        <ele>2250</ele>
        <time>2015-06-20T06:39:38Z</time>
      </trkpt>
      <trkpt lat="45.1255" lon="5.90457">
        <ele>2250</ele>
        <time>2015-06-20T06:39:39Z</time>
      </trkpt>
      <trkpt lat="45.1255" lon="5.90453">
        <ele>2250</ele>
        <time>2015-06-20T06:39:40Z</time>
      </trkpt>
      <trkpt lat="45.1255" lon="5.9045">
        <ele>2250</ele>
        <time>2015-06-20T06:39:41Z</time>
      </trkpt>
      <trkpt lat="45.12551" lon="5.90446">
        <ele>2250</ele>
        <time>2015-06-20T06:39:42Z</time>
      </trkpt>
      <trkpt lat="45.12551" lon="5.90443">
        <ele>2250</ele>
        <time>2015-06-20T06:39:43Z</time>
      </trkpt>
      <trkpt lat="45.12551" lon="5.9044">
        <ele>2250</ele>
        <time>2015-06-20T06:39:44Z</time>
      </trkpt>
      <trkpt lat="45.12551" lon="5.90437">
        <ele>2250</ele>
        <time>2015-06-20T06:39:45Z</time>
      </trkpt>
      <trkpt lat="45.12551" lon="5.90433">
        <ele>2250</ele>
        <time>2015-06-20T06:39:46Z</time>
      </trkpt>
      <trkpt lat="45.12551" lon="5.9043">
        <ele>2249</ele>
        <time>2015-06-20T06:39:47Z</time>
      </trkpt>
      <trkpt lat="45.12551" lon="5.90426">
        <ele>2249</ele>
        <time>2015-06-20T06:39:48Z</time>
      </trkpt>
      <trkpt lat="45.12551" lon="5.90423">
        <ele>2249</ele>
        <time>2015-06-20T06:39:49Z</time>
      </trkpt>
      <trkpt lat="45.12551" lon="5.90419">
        <ele>2249</ele>
        <time>2015-06-20T06:39:50Z</time>
      </trkpt>
      <trkpt lat="45.12551" lon="5.90415">
        <ele>2249</ele>
        <time>2015-06-20T06:39:51Z</time>
      </trkpt>
      <trkpt lat="45.12551" lon="5.90412">
        <ele>2249</ele>
        <time>2015-06-20T06:39:52Z</time>
      </trkpt>
      <trkpt lat="45.12551" lon="5.90408">
        <ele>2249</ele>
        <time>2015-06-20T06:39:53Z</time>
      </trkpt>
      <trkpt lat="45.12551" lon="5.90405">
        <ele>2249</ele>
        <time>2015-06-20T06:39:54Z</time>
      </trkpt>
      <trkpt lat="45.12551" lon="5.90401">
        <ele>2249</ele>
        <time>2015-06-20T06:39:55Z</time>
      </trkpt>
      <trkpt lat="45.12551" lon="5.90398">
        <ele>2249</ele>
        <time>2015-06-20T06:39:56Z</time>
      </trkpt>
      <trkpt lat="45.12551" lon="5.90394">
        <ele>2248</ele>
        <time>2015-06-20T06:39:57Z</time>
      </trkpt>
      <trkpt lat="45.12551" lon="5.90391">
        <ele>2248</ele>
        <time>2015-06-20T06:39:58Z</time>
      </trkpt>
      <trkpt lat="45.12551" lon="5.90387">
        <ele>2248</ele>
        <time>2015-06-20T06:39:59Z</time>
      </trkpt>
      <trkpt lat="45.12551" lon="5.90385">
        <ele>2248</ele>
        <time>2015-06-20T06:40:00Z</time>
      </trkpt>
      <trkpt lat="45.12551" lon="5.90381">
        <ele>2248</ele>
        <time>2015-06-20T06:40:01Z</time>
      </trkpt>
      <trkpt lat="45.12551" lon="5.90378">
        <ele>2248</ele>
        <time>2015-06-20T06:40:02Z</time>
      </trkpt>
      <trkpt lat="45.12552" lon="5.90375">
        <ele>2246</ele>
        <time>2015-06-20T06:40:03Z</time>
      </trkpt>
      <trkpt lat="45.12552" lon="5.90372">
        <ele>2246</ele>
        <time>2015-06-20T06:40:04Z</time>
      </trkpt>
      <trkpt lat="45.12554" lon="5.90369">
        <ele>2246</ele>
        <time>2015-06-20T06:40:05Z</time>
      </trkpt>
      <trkpt lat="45.12555" lon="5.90367">
        <ele>2246</ele>
        <time>2015-06-20T06:40:06Z</time>
      </trkpt>
      <trkpt lat="45.12556" lon="5.90365">
        <ele>2246</ele>
        <time>2015-06-20T06:40:07Z</time>
      </trkpt>
      <trkpt lat="45.12557" lon="5.90362">
        <ele>2246</ele>
        <time>2015-06-20T06:40:08Z</time>
      </trkpt>
      <trkpt lat="45.12558" lon="5.90359">
        <ele>2246</ele>
        <time>2015-06-20T06:40:09Z</time>
      </trkpt>
      <trkpt lat="45.12559" lon="5.90357">
        <ele>2246</ele>
        <time>2015-06-20T06:40:10Z</time>
      </trkpt>
      <trkpt lat="45.12561" lon="5.90352">
        <ele>2246</ele>
        <time>2015-06-20T06:40:12Z</time>
      </trkpt>
      <trkpt lat="45.12563" lon="5.90348">
        <ele>2246</ele>
        <time>2015-06-20T06:40:14Z</time>
      </trkpt>
      <trkpt lat="45.12565" lon="5.90345">
        <ele>2249</ele>
        <time>2015-06-20T06:40:16Z</time>
      </trkpt>
      <trkpt lat="45.12566" lon="5.9034">
        <ele>2249</ele>
        <time>2015-06-20T06:40:18Z</time>
      </trkpt>
      <trkpt lat="45.12567" lon="5.90338">
        <ele>2249</ele>
        <time>2015-06-20T06:40:19Z</time>
      </trkpt>
      <trkpt lat="45.12567" lon="5.90335">
        <ele>2249</ele>
        <time>2015-06-20T06:40:20Z</time>
      </trkpt>
      <trkpt lat="45.12568" lon="5.90333">
        <ele>2249</ele>
        <time>2015-06-20T06:40:21Z</time>
      </trkpt>
      <trkpt lat="45.1257" lon="5.90329">
        <ele>2249</ele>
        <time>2015-06-20T06:40:23Z</time>
      </trkpt>
      <trkpt lat="45.1257" lon="5.90324">
        <ele>2249</ele>
        <time>2015-06-20T06:40:25Z</time>
      </trkpt>
      <trkpt lat="45.12569" lon="5.9032">
        <ele>2250</ele>
        <time>2015-06-20T06:40:27Z</time>
      </trkpt>
      <trkpt lat="45.12566" lon="5.90316">
        <ele>2250</ele>
        <time>2015-06-20T06:40:29Z</time>
      </trkpt>
      <trkpt lat="45.12564" lon="5.90314">
        <ele>2250</ele>
        <time>2015-06-20T06:40:31Z</time>
      </trkpt>
      <trkpt lat="45.12564" lon="5.90311">
        <ele>2250</ele>
        <time>2015-06-20T06:40:34Z</time>
      </trkpt>
      <trkpt lat="45.12565" lon="5.90309">
        <ele>2251</ele>
        <time>2015-06-20T06:40:37Z</time>
      </trkpt>
      <trkpt lat="45.1256" lon="5.9031">
        <ele>2251</ele>
        <time>2015-06-20T06:40:54Z</time>
      </trkpt>
      <trkpt lat="45.12558" lon="5.90315">
        <ele>2252</ele>
        <time>2015-06-20T06:42:40Z</time>
      </trkpt>
      <trkpt lat="45.12559" lon="5.90319">
        <ele>2253</ele>
        <time>2015-06-20T06:42:51Z</time>
      </trkpt>
      <trkpt lat="45.1256" lon="5.90322">
        <ele>2253</ele>
        <time>2015-06-20T06:42:53Z</time>
      </trkpt>
      <trkpt lat="45.12561" lon="5.90324">
        <ele>2253</ele>
        <time>2015-06-20T06:42:55Z</time>
      </trkpt>
      <trkpt lat="45.12563" lon="5.90325">
        <ele>2253</ele>
        <time>2015-06-20T06:42:57Z</time>
      </trkpt>
      <trkpt lat="45.12565" lon="5.90324">
        <ele>2253</ele>
        <time>2015-06-20T06:42:58Z</time>
      </trkpt>
      <trkpt lat="45.12567" lon="5.90325">
        <ele>2253</ele>
        <time>2015-06-20T06:42:59Z</time>
      </trkpt>
      <trkpt lat="45.12569" lon="5.90326">
        <ele>2249</ele>
        <time>2015-06-20T06:43:00Z</time>
      </trkpt>
      <trkpt lat="45.12571" lon="5.90329">
        <ele>2249</ele>
        <time>2015-06-20T06:43:01Z</time>
      </trkpt>
      <trkpt lat="45.12572" lon="5.90332">
        <ele>2249</ele>
        <time>2015-06-20T06:43:02Z</time>
      </trkpt>
      <trkpt lat="45.12574" lon="5.90335">
        <ele>2249</ele>
        <time>2015-06-20T06:43:03Z</time>
      </trkpt>
      <trkpt lat="45.12575" lon="5.90339">
        <ele>2249</ele>
        <time>2015-06-20T06:43:04Z</time>
      </trkpt>
      <trkpt lat="45.12577" lon="5.90342">
        <ele>2250</ele>
        <time>2015-06-20T06:43:05Z</time>
      </trkpt>
      <trkpt lat="45.12578" lon="5.90346">
        <ele>2250</ele>
        <time>2015-06-20T06:43:06Z</time>
      </trkpt>
      <trkpt lat="45.12579" lon="5.90349">
        <ele>2250</ele>
        <time>2015-06-20T06:43:07Z</time>
      </trkpt>
      <trkpt lat="45.12581" lon="5.90353">
        <ele>2250</ele>
        <time>2015-06-20T06:43:08Z</time>
      </trkpt>
      <trkpt lat="45.12582" lon="5.90356">
        <ele>2250</ele>
        <time>2015-06-20T06:43:09Z</time>
      </trkpt>
      <trkpt lat="45.12583" lon="5.90359">
        <ele>2250</ele>
        <time>2015-06-20T06:43:10Z</time>
      </trkpt>
      <trkpt lat="45.12584" lon="5.90363">
        <ele>2250</ele>
        <time>2015-06-20T06:43:11Z</time>
      </trkpt>
      <trkpt lat="45.12585" lon="5.90366">
        <ele>2250</ele>
        <time>2015-06-20T06:43:12Z</time>
      </trkpt>
      <trkpt lat="45.12586" lon="5.9037">
        <ele>2250</ele>
        <time>2015-06-20T06:43:13Z</time>
      </trkpt>
      <trkpt lat="45.12587" lon="5.90373">
        <ele>2250</ele>
        <time>2015-06-20T06:43:14Z</time>
      </trkpt>
      <trkpt lat="45.12588" lon="5.90376">
        <ele>2250</ele>
        <time>2015-06-20T06:43:15Z</time>
      </trkpt>
      <trkpt lat="45.12589" lon="5.9038">
        <ele>2250</ele>
        <time>2015-06-20T06:43:16Z</time>
      </trkpt>
      <trkpt lat="45.1259" lon="5.90383">
        <ele>2250</ele>
        <time>2015-06-20T06:43:17Z</time>
      </trkpt>
      <trkpt lat="45.12591" lon="5.90387">
        <ele>2250</ele>
        <time>2015-06-20T06:43:18Z</time>
      </trkpt>
      <trkpt lat="45.12592" lon="5.90391">
        <ele>2250</ele>
        <time>2015-06-20T06:43:19Z</time>
      </trkpt>
      <trkpt lat="45.12593" lon="5.90395">
        <ele>2247</ele>
        <time>2015-06-20T06:43:20Z</time>
      </trkpt>
      <trkpt lat="45.12594" lon="5.90399">
        <ele>2247</ele>
        <time>2015-06-20T06:43:21Z</time>
      </trkpt>
      <trkpt lat="45.12594" lon="5.90404">
        <ele>2247</ele>
        <time>2015-06-20T06:43:22Z</time>
      </trkpt>
      <trkpt lat="45.12595" lon="5.90408">
        <ele>2247</ele>
        <time>2015-06-20T06:43:23Z</time>
      </trkpt>
      <trkpt lat="45.12597" lon="5.90412">
        <ele>2247</ele>
        <time>2015-06-20T06:43:24Z</time>
      </trkpt>
      <trkpt lat="45.12597" lon="5.90416">
        <ele>2247</ele>
        <time>2015-06-20T06:43:25Z</time>
      </trkpt>
      <trkpt lat="45.12597" lon="5.9042">
        <ele>2247</ele>
        <time>2015-06-20T06:43:26Z</time>
      </trkpt>
      <trkpt lat="45.12597" lon="5.90425">
        <ele>2247</ele>
        <time>2015-06-20T06:43:27Z</time>
      </trkpt>
      <trkpt lat="45.12598" lon="5.90429">
        <ele>2247</ele>
        <time>2015-06-20T06:43:28Z</time>
      </trkpt>
      <trkpt lat="45.12598" lon="5.90433">
        <ele>2247</ele>
        <time>2015-06-20T06:43:29Z</time>
      </trkpt>
      <trkpt lat="45.12598" lon="5.90438">
        <ele>2247</ele>
        <time>2015-06-20T06:43:30Z</time>
      </trkpt>
      <trkpt lat="45.12598" lon="5.90442">
        <ele>2247</ele>
        <time>2015-06-20T06:43:31Z</time>
      </trkpt>
      <trkpt lat="45.12598" lon="5.90446">
        <ele>2247</ele>
        <time>2015-06-20T06:43:32Z</time>
      </trkpt>
      <trkpt lat="45.12598" lon="5.9045">
        <ele>2247</ele>
        <time>2015-06-20T06:43:33Z</time>
      </trkpt>
      <trkpt lat="45.12598" lon="5.90454">
        <ele>2247</ele>
        <time>2015-06-20T06:43:34Z</time>
      </trkpt>
      <trkpt lat="45.12597" lon="5.90458">
        <ele>2247</ele>
        <time>2015-06-20T06:43:35Z</time>
      </trkpt>
      <trkpt lat="45.12597" lon="5.90462">
        <ele>2247</ele>
        <time>2015-06-20T06:43:36Z</time>
      </trkpt>
      <trkpt lat="45.12596" lon="5.90466">
        <ele>2247</ele>
        <time>2015-06-20T06:43:37Z</time>
      </trkpt>
      <trkpt lat="45.12596" lon="5.9047">
        <ele>2247</ele>
        <time>2015-06-20T06:43:38Z</time>
      </trkpt>
      <trkpt lat="45.12596" lon="5.90474">
        <ele>2247</ele>
        <time>2015-06-20T06:43:39Z</time>
      </trkpt>
      <trkpt lat="45.12598" lon="5.90478">
        <ele>2244</ele>
        <time>2015-06-20T06:43:40Z</time>
      </trkpt>
      <trkpt lat="45.126" lon="5.90482">
        <ele>2244</ele>
        <time>2015-06-20T06:43:41Z</time>
      </trkpt>
      <trkpt lat="45.126" lon="5.90486">
        <ele>2244</ele>
        <time>2015-06-20T06:43:42Z</time>
      </trkpt>
      <trkpt lat="45.12601" lon="5.9049">
        <ele>2244</ele>
        <time>2015-06-20T06:43:43Z</time>
      </trkpt>
      <trkpt lat="45.12601" lon="5.90494">
        <ele>2244</ele>
        <time>2015-06-20T06:43:44Z</time>
      </trkpt>
      <trkpt lat="45.12602" lon="5.90498">
        <ele>2242</ele>
        <time>2015-06-20T06:43:45Z</time>
      </trkpt>
      <trkpt lat="45.12602" lon="5.90503">
        <ele>2242</ele>
        <time>2015-06-20T06:43:46Z</time>
      </trkpt>
      <trkpt lat="45.12602" lon="5.90508">
        <ele>2242</ele>
        <time>2015-06-20T06:43:47Z</time>
      </trkpt>
      <trkpt lat="45.12602" lon="5.90512">
        <ele>2242</ele>
        <time>2015-06-20T06:43:48Z</time>
      </trkpt>
      <trkpt lat="45.12603" lon="5.90516">
        <ele>2242</ele>
        <time>2015-06-20T06:43:49Z</time>
      </trkpt>
      <trkpt lat="45.12604" lon="5.9052">
        <ele>2241</ele>
        <time>2015-06-20T06:43:50Z</time>
      </trkpt>
      <trkpt lat="45.12604" lon="5.90524">
        <ele>2241</ele>
        <time>2015-06-20T06:43:51Z</time>
      </trkpt>
      <trkpt lat="45.12604" lon="5.90528">
        <ele>2241</ele>
        <time>2015-06-20T06:43:52Z</time>
      </trkpt>
      <trkpt lat="45.12605" lon="5.90533">
        <ele>2241</ele>
        <time>2015-06-20T06:43:53Z</time>
      </trkpt>
      <trkpt lat="45.12605" lon="5.90537">
        <ele>2241</ele>
        <time>2015-06-20T06:43:54Z</time>
      </trkpt>
      <trkpt lat="45.12605" lon="5.90541">
        <ele>2237</ele>
        <time>2015-06-20T06:43:55Z</time>
      </trkpt>
      <trkpt lat="45.12605" lon="5.90545">
        <ele>2238</ele>
        <time>2015-06-20T06:43:56Z</time>
      </trkpt>
      <trkpt lat="45.12605" lon="5.9055">
        <ele>2238</ele>
        <time>2015-06-20T06:43:57Z</time>
      </trkpt>
      <trkpt lat="45.12604" lon="5.90554">
        <ele>2238</ele>
        <time>2015-06-20T06:43:58Z</time>
      </trkpt>
      <trkpt lat="45.12604" lon="5.90559">
        <ele>2238</ele>
        <time>2015-06-20T06:43:59Z</time>
      </trkpt>
      <trkpt lat="45.12604" lon="5.90563">
        <ele>2234</ele>
        <time>2015-06-20T06:44:00Z</time>
      </trkpt>
      <trkpt lat="45.12604" lon="5.90567">
        <ele>2234</ele>
        <time>2015-06-20T06:44:01Z</time>
      </trkpt>
      <trkpt lat="45.12604" lon="5.90571">
        <ele>2234</ele>
        <time>2015-06-20T06:44:02Z</time>
      </trkpt>
      <trkpt lat="45.12604" lon="5.90575">
        <ele>2236</ele>
        <time>2015-06-20T06:44:03Z</time>
      </trkpt>
      <trkpt lat="45.12604" lon="5.90579">
        <ele>2235</ele>
        <time>2015-06-20T06:44:04Z</time>
      </trkpt>
      <trkpt lat="45.12603" lon="5.90583">
        <ele>2235</ele>
        <time>2015-06-20T06:44:05Z</time>
      </trkpt>
      <trkpt lat="45.12603" lon="5.90587">
        <ele>2232</ele>
        <time>2015-06-20T06:44:06Z</time>
      </trkpt>
      <trkpt lat="45.12603" lon="5.90591">
        <ele>2232</ele>
        <time>2015-06-20T06:44:07Z</time>
      </trkpt>
      <trkpt lat="45.12604" lon="5.90594">
        <ele>2231</ele>
        <time>2015-06-20T06:44:08Z</time>
      </trkpt>
      <trkpt lat="45.12604" lon="5.90598">
        <ele>2236</ele>
        <time>2015-06-20T06:44:09Z</time>
      </trkpt>
      <trkpt lat="45.12604" lon="5.90602">
        <ele>2231</ele>
        <time>2015-06-20T06:44:10Z</time>
      </trkpt>
      <trkpt lat="45.12604" lon="5.90606">
        <ele>2232</ele>
        <time>2015-06-20T06:44:11Z</time>
      </trkpt>
      <trkpt lat="45.12604" lon="5.9061">
        <ele>2232</ele>
        <time>2015-06-20T06:44:12Z</time>
      </trkpt>
      <trkpt lat="45.12605" lon="5.90614">
        <ele>2232</ele>
        <time>2015-06-20T06:44:13Z</time>
      </trkpt>
      <trkpt lat="45.12606" lon="5.90617">
        <ele>2232</ele>
        <time>2015-06-20T06:44:14Z</time>
      </trkpt>
      <trkpt lat="45.12606" lon="5.90622">
        <ele>2228</ele>
        <time>2015-06-20T06:44:15Z</time>
      </trkpt>
      <trkpt lat="45.12606" lon="5.90625">
        <ele>2228</ele>
        <time>2015-06-20T06:44:16Z</time>
      </trkpt>
      <trkpt lat="45.12606" lon="5.90629">
        <ele>2229</ele>
        <time>2015-06-20T06:44:17Z</time>
      </trkpt>
      <trkpt lat="45.12607" lon="5.90632">
        <ele>2229</ele>
        <time>2015-06-20T06:44:18Z</time>
      </trkpt>
      <trkpt lat="45.12607" lon="5.90636">
        <ele>2229</ele>
        <time>2015-06-20T06:44:19Z</time>
      </trkpt>
      <trkpt lat="45.12607" lon="5.90639">
        <ele>2228</ele>
        <time>2015-06-20T06:44:20Z</time>
      </trkpt>
      <trkpt lat="45.12607" lon="5.90643">
        <ele>2228</ele>
        <time>2015-06-20T06:44:21Z</time>
      </trkpt>
      <trkpt lat="45.12607" lon="5.90646">
        <ele>2228</ele>
        <time>2015-06-20T06:44:22Z</time>
      </trkpt>
      <trkpt lat="45.12607" lon="5.9065">
        <ele>2228</ele>
        <time>2015-06-20T06:44:23Z</time>
      </trkpt>
      <trkpt lat="45.12607" lon="5.90654">
        <ele>2228</ele>
        <time>2015-06-20T06:44:24Z</time>
      </trkpt>
      <trkpt lat="45.12607" lon="5.90658">
        <ele>2221</ele>
        <time>2015-06-20T06:44:25Z</time>
      </trkpt>
      <trkpt lat="45.12606" lon="5.90661">
        <ele>2221</ele>
        <time>2015-06-20T06:44:26Z</time>
      </trkpt>
      <trkpt lat="45.12606" lon="5.90665">
        <ele>2221</ele>
        <time>2015-06-20T06:44:27Z</time>
      </trkpt>
      <trkpt lat="45.12606" lon="5.90668">
        <ele>2221</ele>
        <time>2015-06-20T06:44:28Z</time>
      </trkpt>
      <trkpt lat="45.12607" lon="5.90671">
        <ele>2221</ele>
        <time>2015-06-20T06:44:29Z</time>
      </trkpt>
      <trkpt lat="45.12607" lon="5.90675">
        <ele>2218</ele>
        <time>2015-06-20T06:44:30Z</time>
      </trkpt>
      <trkpt lat="45.12607" lon="5.90678">
        <ele>2218</ele>
        <time>2015-06-20T06:44:31Z</time>
      </trkpt>
      <trkpt lat="45.12607" lon="5.90682">
        <ele>2218</ele>
        <time>2015-06-20T06:44:32Z</time>
      </trkpt>
      <trkpt lat="45.12607" lon="5.90685">
        <ele>2218</ele>
        <time>2015-06-20T06:44:33Z</time>
      </trkpt>
      <trkpt lat="45.12607" lon="5.90688">
        <ele>2218</ele>
        <time>2015-06-20T06:44:34Z</time>
      </trkpt>
      <trkpt lat="45.12607" lon="5.90692">
        <ele>2218</ele>
        <time>2015-06-20T06:44:35Z</time>
      </trkpt>
      <trkpt lat="45.12606" lon="5.90695">
        <ele>2218</ele>
        <time>2015-06-20T06:44:36Z</time>
      </trkpt>
      <trkpt lat="45.12606" lon="5.90698">
        <ele>2217</ele>
        <time>2015-06-20T06:44:37Z</time>
      </trkpt>
      <trkpt lat="45.12606" lon="5.90702">
        <ele>2217</ele>
        <time>2015-06-20T06:44:38Z</time>
      </trkpt>
      <trkpt lat="45.12606" lon="5.90705">
        <ele>2217</ele>
        <time>2015-06-20T06:44:39Z</time>
      </trkpt>
      <trkpt lat="45.12605" lon="5.90709">
        <ele>2216</ele>
        <time>2015-06-20T06:44:40Z</time>
      </trkpt>
      <trkpt lat="45.12605" lon="5.90712">
        <ele>2216</ele>
        <time>2015-06-20T06:44:41Z</time>
      </trkpt>
      <trkpt lat="45.12604" lon="5.90716">
        <ele>2215</ele>
        <time>2015-06-20T06:44:42Z</time>
      </trkpt>
      <trkpt lat="45.12603" lon="5.90719">
        <ele>2215</ele>
        <time>2015-06-20T06:44:43Z</time>
      </trkpt>
      <trkpt lat="45.12602" lon="5.90722">
        <ele>2215</ele>
        <time>2015-06-20T06:44:44Z</time>
      </trkpt>
      <trkpt lat="45.12602" lon="5.90725">
        <ele>2215</ele>
        <time>2015-06-20T06:44:45Z</time>
      </trkpt>
      <trkpt lat="45.12602" lon="5.90729">
        <ele>2215</ele>
        <time>2015-06-20T06:44:46Z</time>
      </trkpt>
      <trkpt lat="45.12601" lon="5.90732">
        <ele>2214</ele>
        <time>2015-06-20T06:44:47Z</time>
      </trkpt>
      <trkpt lat="45.126" lon="5.90735">
        <ele>2214</ele>
        <time>2015-06-20T06:44:48Z</time>
      </trkpt>
      <trkpt lat="45.12599" lon="5.90738">
        <ele>2214</ele>
        <time>2015-06-20T06:44:49Z</time>
      </trkpt>
      <trkpt lat="45.12598" lon="5.90741">
        <ele>2214</ele>
        <time>2015-06-20T06:44:50Z</time>
      </trkpt>
      <trkpt lat="45.12598" lon="5.90744">
        <ele>2214</ele>
        <time>2015-06-20T06:44:51Z</time>
      </trkpt>
      <trkpt lat="45.12597" lon="5.90747">
        <ele>2214</ele>
        <time>2015-06-20T06:44:52Z</time>
      </trkpt>
      <trkpt lat="45.12596" lon="5.9075">
        <ele>2211</ele>
        <time>2015-06-20T06:44:53Z</time>
      </trkpt>
      <trkpt lat="45.12596" lon="5.90754">
        <ele>2211</ele>
        <time>2015-06-20T06:44:54Z</time>
      </trkpt>
      <trkpt lat="45.12595" lon="5.90757">
        <ele>2211</ele>
        <time>2015-06-20T06:44:55Z</time>
      </trkpt>
      <trkpt lat="45.12594" lon="5.90761">
        <ele>2211</ele>
        <time>2015-06-20T06:44:56Z</time>
      </trkpt>
      <trkpt lat="45.12593" lon="5.90764">
        <ele>2211</ele>
        <time>2015-06-20T06:44:57Z</time>
      </trkpt>
      <trkpt lat="45.12593" lon="5.90767">
        <ele>2208</ele>
        <time>2015-06-20T06:44:58Z</time>
      </trkpt>
      <trkpt lat="45.12592" lon="5.9077">
        <ele>2208</ele>
        <time>2015-06-20T06:44:59Z</time>
      </trkpt>
      <trkpt lat="45.12592" lon="5.90773">
        <ele>2208</ele>
        <time>2015-06-20T06:45:00Z</time>
      </trkpt>
      <trkpt lat="45.12593" lon="5.90776">
        <ele>2204</ele>
        <time>2015-06-20T06:45:01Z</time>
      </trkpt>
      <trkpt lat="45.12593" lon="5.90778">
        <ele>2204</ele>
        <time>2015-06-20T06:45:02Z</time>
      </trkpt>
      <trkpt lat="45.12593" lon="5.90781">
        <ele>2204</ele>
        <time>2015-06-20T06:45:03Z</time>
      </trkpt>
      <trkpt lat="45.12592" lon="5.90784">
        <ele>2204</ele>
        <time>2015-06-20T06:45:04Z</time>
      </trkpt>
      <trkpt lat="45.12592" lon="5.90787">
        <ele>2204</ele>
        <time>2015-06-20T06:45:05Z</time>
      </trkpt>
      <trkpt lat="45.12591" lon="5.9079">
        <ele>2204</ele>
        <time>2015-06-20T06:45:06Z</time>
      </trkpt>
      <trkpt lat="45.12591" lon="5.90793">
        <ele>2204</ele>
        <time>2015-06-20T06:45:07Z</time>
      </trkpt>
      <trkpt lat="45.12591" lon="5.90796">
        <ele>2202</ele>
        <time>2015-06-20T06:45:08Z</time>
      </trkpt>
      <trkpt lat="45.12591" lon="5.908">
        <ele>2202</ele>
        <time>2015-06-20T06:45:09Z</time>
      </trkpt>
      <trkpt lat="45.12592" lon="5.90803">
        <ele>2200</ele>
        <time>2015-06-20T06:45:10Z</time>
      </trkpt>
      <trkpt lat="45.12592" lon="5.90806">
        <ele>2200</ele>
        <time>2015-06-20T06:45:11Z</time>
      </trkpt>
      <trkpt lat="45.12592" lon="5.9081">
        <ele>2197</ele>
        <time>2015-06-20T06:45:12Z</time>
      </trkpt>
      <trkpt lat="45.12592" lon="5.90813">
        <ele>2196</ele>
        <time>2015-06-20T06:45:13Z</time>
      </trkpt>
      <trkpt lat="45.12591" lon="5.90817">
        <ele>2197</ele>
        <time>2015-06-20T06:45:14Z</time>
      </trkpt>
      <trkpt lat="45.12591" lon="5.9082">
        <ele>2195</ele>
        <time>2015-06-20T06:45:15Z</time>
      </trkpt>
      <trkpt lat="45.1259" lon="5.90823">
        <ele>2195</ele>
        <time>2015-06-20T06:45:16Z</time>
      </trkpt>
      <trkpt lat="45.1259" lon="5.90827">
        <ele>2194</ele>
        <time>2015-06-20T06:45:17Z</time>
      </trkpt>
      <trkpt lat="45.12589" lon="5.90831">
        <ele>2194</ele>
        <time>2015-06-20T06:45:18Z</time>
      </trkpt>
      <trkpt lat="45.12588" lon="5.90835">
        <ele>2192</ele>
        <time>2015-06-20T06:45:19Z</time>
      </trkpt>
      <trkpt lat="45.12588" lon="5.90839">
        <ele>2192</ele>
        <time>2015-06-20T06:45:20Z</time>
      </trkpt>
      <trkpt lat="45.12588" lon="5.90844">
        <ele>2192</ele>
        <time>2015-06-20T06:45:21Z</time>
      </trkpt>
      <trkpt lat="45.12587" lon="5.90848">
        <ele>2192</ele>
        <time>2015-06-20T06:45:22Z</time>
      </trkpt>
      <trkpt lat="45.12586" lon="5.90851">
        <ele>2191</ele>
        <time>2015-06-20T06:45:23Z</time>
      </trkpt>
      <trkpt lat="45.12585" lon="5.90855">
        <ele>2191</ele>
        <time>2015-06-20T06:45:24Z</time>
      </trkpt>
      <trkpt lat="45.12585" lon="5.90858">
        <ele>2190</ele>
        <time>2015-06-20T06:45:25Z</time>
      </trkpt>
      <trkpt lat="45.12585" lon="5.90862">
        <ele>2190</ele>
        <time>2015-06-20T06:45:26Z</time>
      </trkpt>
      <trkpt lat="45.12585" lon="5.90866">
        <ele>2188</ele>
        <time>2015-06-20T06:45:27Z</time>
      </trkpt>
      <trkpt lat="45.12586" lon="5.9087">
        <ele>2188</ele>
        <time>2015-06-20T06:45:28Z</time>
      </trkpt>
      <trkpt lat="45.12586" lon="5.90874">
        <ele>2187</ele>
        <time>2015-06-20T06:45:29Z</time>
      </trkpt>
      <trkpt lat="45.12586" lon="5.90878">
        <ele>2187</ele>
        <time>2015-06-20T06:45:30Z</time>
      </trkpt>
      <trkpt lat="45.12587" lon="5.90882">
        <ele>2187</ele>
        <time>2015-06-20T06:45:31Z</time>
      </trkpt>
      <trkpt lat="45.12587" lon="5.90886">
        <ele>2187</ele>
        <time>2015-06-20T06:45:32Z</time>
      </trkpt>
      <trkpt lat="45.12588" lon="5.9089">
        <ele>2185</ele>
        <time>2015-06-20T06:45:33Z</time>
      </trkpt>
      <trkpt lat="45.12589" lon="5.90894">
        <ele>2185</ele>
        <time>2015-06-20T06:45:34Z</time>
      </trkpt>
      <trkpt lat="45.12589" lon="5.90898">
        <ele>2184</ele>
        <time>2015-06-20T06:45:35Z</time>
      </trkpt>
      <trkpt lat="45.1259" lon="5.90902">
        <ele>2184</ele>
        <time>2015-06-20T06:45:36Z</time>
      </trkpt>
      <trkpt lat="45.1259" lon="5.90905">
        <ele>2183</ele>
        <time>2015-06-20T06:45:37Z</time>
      </trkpt>
      <trkpt lat="45.12591" lon="5.90909">
        <ele>2183</ele>
        <time>2015-06-20T06:45:38Z</time>
      </trkpt>
      <trkpt lat="45.12591" lon="5.90913">
        <ele>2182</ele>
        <time>2015-06-20T06:45:39Z</time>
      </trkpt>
      <trkpt lat="45.12591" lon="5.90918">
        <ele>2182</ele>
        <time>2015-06-20T06:45:40Z</time>
      </trkpt>
      <trkpt lat="45.12592" lon="5.90922">
        <ele>2182</ele>
        <time>2015-06-20T06:45:41Z</time>
      </trkpt>
      <trkpt lat="45.12592" lon="5.90926">
        <ele>2182</ele>
        <time>2015-06-20T06:45:42Z</time>
      </trkpt>
      <trkpt lat="45.12592" lon="5.9093">
        <ele>2182</ele>
        <time>2015-06-20T06:45:43Z</time>
      </trkpt>
      <trkpt lat="45.12592" lon="5.90935">
        <ele>2180</ele>
        <time>2015-06-20T06:45:44Z</time>
      </trkpt>
      <trkpt lat="45.12591" lon="5.90939">
        <ele>2180</ele>
        <time>2015-06-20T06:45:45Z</time>
      </trkpt>
      <trkpt lat="45.1259" lon="5.90944">
        <ele>2180</ele>
        <time>2015-06-20T06:45:46Z</time>
      </trkpt>
      <trkpt lat="45.1259" lon="5.90948">
        <ele>2178</ele>
        <time>2015-06-20T06:45:47Z</time>
      </trkpt>
      <trkpt lat="45.12589" lon="5.90953">
        <ele>2177</ele>
        <time>2015-06-20T06:45:48Z</time>
      </trkpt>
      <trkpt lat="45.12589" lon="5.90957">
        <ele>2177</ele>
        <time>2015-06-20T06:45:49Z</time>
      </trkpt>
      <trkpt lat="45.12589" lon="5.90961">
        <ele>2177</ele>
        <time>2015-06-20T06:45:50Z</time>
      </trkpt>
      <trkpt lat="45.12589" lon="5.90964">
        <ele>2177</ele>
        <time>2015-06-20T06:45:51Z</time>
      </trkpt>
      <trkpt lat="45.12589" lon="5.90968">
        <ele>2177</ele>
        <time>2015-06-20T06:45:52Z</time>
      </trkpt>
      <trkpt lat="45.12588" lon="5.90972">
        <ele>2177</ele>
        <time>2015-06-20T06:45:53Z</time>
      </trkpt>
      <trkpt lat="45.12588" lon="5.90975">
        <ele>2177</ele>
        <time>2015-06-20T06:45:54Z</time>
      </trkpt>
      <trkpt lat="45.12588" lon="5.9098">
        <ele>2177</ele>
        <time>2015-06-20T06:45:56Z</time>
      </trkpt>
      <trkpt lat="45.12588" lon="5.90984">
        <ele>2178</ele>
        <time>2015-06-20T06:45:57Z</time>
      </trkpt>
      <trkpt lat="45.12588" lon="5.90987">
        <ele>2178</ele>
        <time>2015-06-20T06:45:58Z</time>
      </trkpt>
      <trkpt lat="45.12587" lon="5.90991">
        <ele>2178</ele>
        <time>2015-06-20T06:45:59Z</time>
      </trkpt>
      <trkpt lat="45.12587" lon="5.90994">
        <ele>2178</ele>
        <time>2015-06-20T06:46:00Z</time>
      </trkpt>
      <trkpt lat="45.12586" lon="5.90998">
        <ele>2178</ele>
        <time>2015-06-20T06:46:01Z</time>
      </trkpt>
      <trkpt lat="45.12584" lon="5.91001">
        <ele>2178</ele>
        <time>2015-06-20T06:46:02Z</time>
      </trkpt>
      <trkpt lat="45.12583" lon="5.91005">
        <ele>2175</ele>
        <time>2015-06-20T06:46:03Z</time>
      </trkpt>
      <trkpt lat="45.12582" lon="5.91009">
        <ele>2175</ele>
        <time>2015-06-20T06:46:04Z</time>
      </trkpt>
      <trkpt lat="45.1258" lon="5.91013">
        <ele>2175</ele>
        <time>2015-06-20T06:46:05Z</time>
      </trkpt>
      <trkpt lat="45.12579" lon="5.91016">
        <ele>2175</ele>
        <time>2015-06-20T06:46:06Z</time>
      </trkpt>
      <trkpt lat="45.12577" lon="5.9102">
        <ele>2175</ele>
        <time>2015-06-20T06:46:07Z</time>
      </trkpt>
      <trkpt lat="45.12575" lon="5.91023">
        <ele>2175</ele>
        <time>2015-06-20T06:46:08Z</time>
      </trkpt>
      <trkpt lat="45.12573" lon="5.91027">
        <ele>2175</ele>
        <time>2015-06-20T06:46:09Z</time>
      </trkpt>
      <trkpt lat="45.12572" lon="5.9103">
        <ele>2175</ele>
        <time>2015-06-20T06:46:10Z</time>
      </trkpt>
      <trkpt lat="45.1257" lon="5.91033">
        <ele>2175</ele>
        <time>2015-06-20T06:46:11Z</time>
      </trkpt>
      <trkpt lat="45.12568" lon="5.91035">
        <ele>2175</ele>
        <time>2015-06-20T06:46:12Z</time>
      </trkpt>
      <trkpt lat="45.12566" lon="5.91038">
        <ele>2175</ele>
        <time>2015-06-20T06:46:13Z</time>
      </trkpt>
      <trkpt lat="45.12564" lon="5.91042">
        <ele>2175</ele>
        <time>2015-06-20T06:46:14Z</time>
      </trkpt>
      <trkpt lat="45.12561" lon="5.91045">
        <ele>2175</ele>
        <time>2015-06-20T06:46:15Z</time>
      </trkpt>
      <trkpt lat="45.12559" lon="5.91049">
        <ele>2175</ele>
        <time>2015-06-20T06:46:16Z</time>
      </trkpt>
      <trkpt lat="45.12557" lon="5.91052">
        <ele>2175</ele>
        <time>2015-06-20T06:46:17Z</time>
      </trkpt>
      <trkpt lat="45.12555" lon="5.91055">
        <ele>2175</ele>
        <time>2015-06-20T06:46:18Z</time>
      </trkpt>
      <trkpt lat="45.12554" lon="5.91059">
        <ele>2173</ele>
        <time>2015-06-20T06:46:19Z</time>
      </trkpt>
      <trkpt lat="45.12552" lon="5.91062">
        <ele>2173</ele>
        <time>2015-06-20T06:46:20Z</time>
      </trkpt>
      <trkpt lat="45.1255" lon="5.91065">
        <ele>2173</ele>
        <time>2015-06-20T06:46:21Z</time>
      </trkpt>
      <trkpt lat="45.12548" lon="5.91069">
        <ele>2173</ele>
        <time>2015-06-20T06:46:22Z</time>
      </trkpt>
      <trkpt lat="45.12547" lon="5.91072">
        <ele>2173</ele>
        <time>2015-06-20T06:46:23Z</time>
      </trkpt>
      <trkpt lat="45.12545" lon="5.91075">
        <ele>2172</ele>
        <time>2015-06-20T06:46:24Z</time>
      </trkpt>
      <trkpt lat="45.12543" lon="5.91078">
        <ele>2172</ele>
        <time>2015-06-20T06:46:25Z</time>
      </trkpt>
      <trkpt lat="45.12542" lon="5.91081">
        <ele>2172</ele>
        <time>2015-06-20T06:46:26Z</time>
      </trkpt>
      <trkpt lat="45.1254" lon="5.91084">
        <ele>2172</ele>
        <time>2015-06-20T06:46:27Z</time>
      </trkpt>
      <trkpt lat="45.12539" lon="5.91088">
        <ele>2172</ele>
        <time>2015-06-20T06:46:28Z</time>
      </trkpt>
      <trkpt lat="45.12538" lon="5.91092">
        <ele>2171</ele>
        <time>2015-06-20T06:46:29Z</time>
      </trkpt>
      <trkpt lat="45.12537" lon="5.91095">
        <ele>2171</ele>
        <time>2015-06-20T06:46:30Z</time>
      </trkpt>
      <trkpt lat="45.12535" lon="5.91098">
        <ele>2171</ele>
        <time>2015-06-20T06:46:31Z</time>
      </trkpt>
      <trkpt lat="45.12536" lon="5.91094">
        <ele>2171</ele>
        <time>2015-06-20T06:46:35Z</time>
      </trkpt>
      <trkpt lat="45.12537" lon="5.91091">
        <ele>2171</ele>
        <time>2015-06-20T06:46:36Z</time>
      </trkpt>
      <trkpt lat="45.12538" lon="5.91088">
        <ele>2171</ele>
        <time>2015-06-20T06:46:37Z</time>
      </trkpt>
      <trkpt lat="45.1254" lon="5.91085">
        <ele>2171</ele>
        <time>2015-06-20T06:46:38Z</time>
      </trkpt>
      <trkpt lat="45.12541" lon="5.91082">
        <ele>2171</ele>
        <time>2015-06-20T06:46:39Z</time>
      </trkpt>
      <trkpt lat="45.12542" lon="5.91079">
        <ele>2171</ele>
        <time>2015-06-20T06:46:40Z</time>
      </trkpt>
      <trkpt lat="45.12544" lon="5.91076">
        <ele>2171</ele>
        <time>2015-06-20T06:46:41Z</time>
      </trkpt>
      <trkpt lat="45.12545" lon="5.91072">
        <ele>2171</ele>
        <time>2015-06-20T06:46:42Z</time>
      </trkpt>
      <trkpt lat="45.12547" lon="5.91069">
        <ele>2171</ele>
        <time>2015-06-20T06:46:43Z</time>
      </trkpt>
      <trkpt lat="45.12548" lon="5.91066">
        <ele>2171</ele>
        <time>2015-06-20T06:46:44Z</time>
      </trkpt>
      <trkpt lat="45.1255" lon="5.91064">
        <ele>2171</ele>
        <time>2015-06-20T06:46:45Z</time>
      </trkpt>
      <trkpt lat="45.12551" lon="5.91061">
        <ele>2171</ele>
        <time>2015-06-20T06:46:46Z</time>
      </trkpt>
      <trkpt lat="45.12553" lon="5.91058">
        <ele>2171</ele>
        <time>2015-06-20T06:46:47Z</time>
      </trkpt>
      <trkpt lat="45.12554" lon="5.91056">
        <ele>2171</ele>
        <time>2015-06-20T06:46:48Z</time>
      </trkpt>
      <trkpt lat="45.12555" lon="5.91053">
        <ele>2171</ele>
        <time>2015-06-20T06:46:49Z</time>
      </trkpt>
      <trkpt lat="45.12557" lon="5.91051">
        <ele>2171</ele>
        <time>2015-06-20T06:46:50Z</time>
      </trkpt>
      <trkpt lat="45.12558" lon="5.91048">
        <ele>2171</ele>
        <time>2015-06-20T06:46:51Z</time>
      </trkpt>
      <trkpt lat="45.12559" lon="5.91045">
        <ele>2171</ele>
        <time>2015-06-20T06:46:52Z</time>
      </trkpt>
      <trkpt lat="45.1256" lon="5.91043">
        <ele>2171</ele>
        <time>2015-06-20T06:46:53Z</time>
      </trkpt>
      <trkpt lat="45.12562" lon="5.9104">
        <ele>2173</ele>
        <time>2015-06-20T06:46:54Z</time>
      </trkpt>
      <trkpt lat="45.12563" lon="5.91038">
        <ele>2173</ele>
        <time>2015-06-20T06:46:55Z</time>
      </trkpt>
      <trkpt lat="45.12565" lon="5.91036">
        <ele>2173</ele>
        <time>2015-06-20T06:46:56Z</time>
      </trkpt>
      <trkpt lat="45.12566" lon="5.91033">
        <ele>2173</ele>
        <time>2015-06-20T06:46:57Z</time>
      </trkpt>
      <trkpt lat="45.12567" lon="5.91031">
        <ele>2173</ele>
        <time>2015-06-20T06:46:58Z</time>
      </trkpt>
      <trkpt lat="45.12569" lon="5.91029">
        <ele>2173</ele>
        <time>2015-06-20T06:46:59Z</time>
      </trkpt>
      <trkpt lat="45.1257" lon="5.91027">
        <ele>2173</ele>
        <time>2015-06-20T06:47:00Z</time>
      </trkpt>
      <trkpt lat="45.12572" lon="5.91025">
        <ele>2173</ele>
        <time>2015-06-20T06:47:01Z</time>
      </trkpt>
      <trkpt lat="45.12573" lon="5.91023">
        <ele>2174</ele>
        <time>2015-06-20T06:47:02Z</time>
      </trkpt>
      <trkpt lat="45.12574" lon="5.9102">
        <ele>2174</ele>
        <time>2015-06-20T06:47:03Z</time>
      </trkpt>
      <trkpt lat="45.12576" lon="5.91017">
        <ele>2174</ele>
        <time>2015-06-20T06:47:04Z</time>
      </trkpt>
      <trkpt lat="45.12577" lon="5.91014">
        <ele>2174</ele>
        <time>2015-06-20T06:47:05Z</time>
      </trkpt>
      <trkpt lat="45.12578" lon="5.91012">
        <ele>2174</ele>
        <time>2015-06-20T06:47:06Z</time>
      </trkpt>
      <trkpt lat="45.12579" lon="5.91009">
        <ele>2174</ele>
        <time>2015-06-20T06:47:07Z</time>
      </trkpt>
      <trkpt lat="45.12579" lon="5.91006">
        <ele>2174</ele>
        <time>2015-06-20T06:47:08Z</time>
      </trkpt>
      <trkpt lat="45.1258" lon="5.91003">
        <ele>2174</ele>
        <time>2015-06-20T06:47:09Z</time>
      </trkpt>
      <trkpt lat="45.12581" lon="5.90999">
        <ele>2174</ele>
        <time>2015-06-20T06:47:10Z</time>
      </trkpt>
      <trkpt lat="45.12582" lon="5.90996">
        <ele>2174</ele>
        <time>2015-06-20T06:47:11Z</time>
      </trkpt>
      <trkpt lat="45.12582" lon="5.90994">
        <ele>2174</ele>
        <time>2015-06-20T06:47:12Z</time>
      </trkpt>
      <trkpt lat="45.12583" lon="5.90991">
        <ele>2174</ele>
        <time>2015-06-20T06:47:13Z</time>
      </trkpt>
      <trkpt lat="45.12584" lon="5.90988">
        <ele>2174</ele>
        <time>2015-06-20T06:47:14Z</time>
      </trkpt>
      <trkpt lat="45.12584" lon="5.90986">
        <ele>2174</ele>
        <time>2015-06-20T06:47:15Z</time>
      </trkpt>
      <trkpt lat="45.12583" lon="5.9098">
        <ele>2175</ele>
        <time>2015-06-20T06:47:17Z</time>
      </trkpt>
      <trkpt lat="45.12582" lon="5.90978">
        <ele>2177</ele>
        <time>2015-06-20T06:47:18Z</time>
      </trkpt>
      <trkpt lat="45.12581" lon="5.90975">
        <ele>2177</ele>
        <time>2015-06-20T06:47:19Z</time>
      </trkpt>
      <trkpt lat="45.12581" lon="5.90973">
        <ele>2177</ele>
        <time>2015-06-20T06:47:20Z</time>
      </trkpt>
      <trkpt lat="45.1258" lon="5.90968">
        <ele>2175</ele>
        <time>2015-06-20T06:47:22Z</time>
      </trkpt>
      <trkpt lat="45.12577" lon="5.90966">
        <ele>2175</ele>
        <time>2015-06-20T06:47:24Z</time>
      </trkpt>
      <trkpt lat="45.12574" lon="5.90963">
        <ele>2175</ele>
        <time>2015-06-20T06:47:26Z</time>
      </trkpt>
      <trkpt lat="45.12573" lon="5.90961">
        <ele>2173</ele>
        <time>2015-06-20T06:47:27Z</time>
      </trkpt>
      <trkpt lat="45.12569" lon="5.90959">
        <ele>2173</ele>
        <time>2015-06-20T06:47:29Z</time>
      </trkpt>
      <trkpt lat="45.12567" lon="5.90959">
        <ele>2173</ele>
        <time>2015-06-20T06:47:30Z</time>
      </trkpt>
      <trkpt lat="45.12566" lon="5.90958">
        <ele>2173</ele>
        <time>2015-06-20T06:47:31Z</time>
      </trkpt>
      <trkpt lat="45.12564" lon="5.90959">
        <ele>2169</ele>
        <time>2015-06-20T06:47:32Z</time>
      </trkpt>
      <trkpt lat="45.1256" lon="5.90958">
        <ele>2169</ele>
        <time>2015-06-20T06:47:34Z</time>
      </trkpt>
      <trkpt lat="45.12558" lon="5.90957">
        <ele>2170</ele>
        <time>2015-06-20T06:47:36Z</time>
      </trkpt>
      <trkpt lat="45.12555" lon="5.90956">
        <ele>2166</ele>
        <time>2015-06-20T06:47:38Z</time>
      </trkpt>
      <trkpt lat="45.12553" lon="5.90958">
        <ele>2166</ele>
        <time>2015-06-20T06:47:39Z</time>
      </trkpt>
      <trkpt lat="45.12551" lon="5.90959">
        <ele>2164</ele>
        <time>2015-06-20T06:47:40Z</time>
      </trkpt>
      <trkpt lat="45.12549" lon="5.9096">
        <ele>2164</ele>
        <time>2015-06-20T06:47:41Z</time>
      </trkpt>
      <trkpt lat="45.12546" lon="5.90958">
        <ele>2163</ele>
        <time>2015-06-20T06:47:43Z</time>
      </trkpt>
      <trkpt lat="45.12543" lon="5.90957">
        <ele>2162</ele>
        <time>2015-06-20T06:47:45Z</time>
      </trkpt>
      <trkpt lat="45.12541" lon="5.90956">
        <ele>2160</ele>
        <time>2015-06-20T06:47:46Z</time>
      </trkpt>
      <trkpt lat="45.12537" lon="5.90955">
        <ele>2159</ele>
        <time>2015-06-20T06:47:48Z</time>
      </trkpt>
      <trkpt lat="45.12534" lon="5.90954">
        <ele>2157</ele>
        <time>2015-06-20T06:47:50Z</time>
      </trkpt>
      <trkpt lat="45.12531" lon="5.90954">
        <ele>2156</ele>
        <time>2015-06-20T06:47:52Z</time>
      </trkpt>
      <trkpt lat="45.12529" lon="5.90953">
        <ele>2156</ele>
        <time>2015-06-20T06:47:53Z</time>
      </trkpt>
      <trkpt lat="45.12527" lon="5.90953">
        <ele>2155</ele>
        <time>2015-06-20T06:47:54Z</time>
      </trkpt>
      <trkpt lat="45.12525" lon="5.90951">
        <ele>2154</ele>
        <time>2015-06-20T06:47:55Z</time>
      </trkpt>
      <trkpt lat="45.12523" lon="5.9095">
        <ele>2154</ele>
        <time>2015-06-20T06:47:56Z</time>
      </trkpt>
      <trkpt lat="45.12521" lon="5.90949">
        <ele>2153</ele>
        <time>2015-06-20T06:47:57Z</time>
      </trkpt>
      <trkpt lat="45.12518" lon="5.90948">
        <ele>2153</ele>
        <time>2015-06-20T06:47:58Z</time>
      </trkpt>
      <trkpt lat="45.12516" lon="5.90947">
        <ele>2152</ele>
        <time>2015-06-20T06:47:59Z</time>
      </trkpt>
      <trkpt lat="45.12514" lon="5.90946">
        <ele>2152</ele>
        <time>2015-06-20T06:48:00Z</time>
      </trkpt>
      <trkpt lat="45.12512" lon="5.90944">
        <ele>2150</ele>
        <time>2015-06-20T06:48:02Z</time>
      </trkpt>
      <trkpt lat="45.1251" lon="5.90941">
        <ele>2149</ele>
        <time>2015-06-20T06:48:04Z</time>
      </trkpt>
      <trkpt lat="45.12507" lon="5.90939">
        <ele>2148</ele>
        <time>2015-06-20T06:48:06Z</time>
      </trkpt>
      <trkpt lat="45.12504" lon="5.9094">
        <ele>2147</ele>
        <time>2015-06-20T06:48:08Z</time>
      </trkpt>
      <trkpt lat="45.12501" lon="5.90939">
        <ele>2145</ele>
        <time>2015-06-20T06:48:10Z</time>
      </trkpt>
      <trkpt lat="45.12499" lon="5.90936">
        <ele>2144</ele>
        <time>2015-06-20T06:48:12Z</time>
      </trkpt>
      <trkpt lat="45.12496" lon="5.90935">
        <ele>2143</ele>
        <time>2015-06-20T06:48:14Z</time>
      </trkpt>
      <trkpt lat="45.12494" lon="5.90933">
        <ele>2142</ele>
        <time>2015-06-20T06:48:15Z</time>
      </trkpt>
      <trkpt lat="45.12491" lon="5.90931">
        <ele>2140</ele>
        <time>2015-06-20T06:48:17Z</time>
      </trkpt>
      <trkpt lat="45.12489" lon="5.90929">
        <ele>2140</ele>
        <time>2015-06-20T06:48:18Z</time>
      </trkpt>
      <trkpt lat="45.12487" lon="5.90928">
        <ele>2139</ele>
        <time>2015-06-20T06:48:19Z</time>
      </trkpt>
      <trkpt lat="45.12485" lon="5.90928">
        <ele>2139</ele>
        <time>2015-06-20T06:48:20Z</time>
      </trkpt>
      <trkpt lat="45.12482" lon="5.90926">
        <ele>2139</ele>
        <time>2015-06-20T06:48:22Z</time>
      </trkpt>
      <trkpt lat="45.1248" lon="5.90924">
        <ele>2139</ele>
        <time>2015-06-20T06:48:24Z</time>
      </trkpt>
      <trkpt lat="45.12478" lon="5.90922">
        <ele>2136</ele>
        <time>2015-06-20T06:48:26Z</time>
      </trkpt>
      <trkpt lat="45.12475" lon="5.90924">
        <ele>2135</ele>
        <time>2015-06-20T06:48:28Z</time>
      </trkpt>
      <trkpt lat="45.12474" lon="5.90927">
        <ele>2135</ele>
        <time>2015-06-20T06:48:30Z</time>
      </trkpt>
      <trkpt lat="45.12474" lon="5.90931">
        <ele>2135</ele>
        <time>2015-06-20T06:48:33Z</time>
      </trkpt>
      <trkpt lat="45.12473" lon="5.90934">
        <ele>2133</ele>
        <time>2015-06-20T06:48:35Z</time>
      </trkpt>
      <trkpt lat="45.12471" lon="5.90935">
        <ele>2133</ele>
        <time>2015-06-20T06:48:36Z</time>
      </trkpt>
      <trkpt lat="45.12469" lon="5.90938">
        <ele>2133</ele>
        <time>2015-06-20T06:48:38Z</time>
      </trkpt>
      <trkpt lat="45.12467" lon="5.9094">
        <ele>2130</ele>
        <time>2015-06-20T06:48:39Z</time>
      </trkpt>
      <trkpt lat="45.12465" lon="5.90941">
        <ele>2130</ele>
        <time>2015-06-20T06:48:41Z</time>
      </trkpt>
      <trkpt lat="45.12463" lon="5.90944">
        <ele>2129</ele>
        <time>2015-06-20T06:48:43Z</time>
      </trkpt>
      <trkpt lat="45.12461" lon="5.90946">
        <ele>2128</ele>
        <time>2015-06-20T06:48:44Z</time>
      </trkpt>
      <trkpt lat="45.12459" lon="5.90946">
        <ele>2128</ele>
        <time>2015-06-20T06:48:45Z</time>
      </trkpt>
      <trkpt lat="45.12458" lon="5.90944">
        <ele>2127</ele>
        <time>2015-06-20T06:48:46Z</time>
      </trkpt>
      <trkpt lat="45.12456" lon="5.9094">
        <ele>2126</ele>
        <time>2015-06-20T06:48:48Z</time>
      </trkpt>
      <trkpt lat="45.12454" lon="5.90937">
        <ele>2126</ele>
        <time>2015-06-20T06:48:49Z</time>
      </trkpt>
      <trkpt lat="45.12452" lon="5.90934">
        <ele>2125</ele>
        <time>2015-06-20T06:48:51Z</time>
      </trkpt>
      <trkpt lat="45.12451" lon="5.9093">
        <ele>2125</ele>
        <time>2015-06-20T06:48:53Z</time>
      </trkpt>
      <trkpt lat="45.1245" lon="5.90926">
        <ele>2124</ele>
        <time>2015-06-20T06:48:55Z</time>
      </trkpt>
      <trkpt lat="45.12448" lon="5.90924">
        <ele>2124</ele>
        <time>2015-06-20T06:48:57Z</time>
      </trkpt>
      <trkpt lat="45.12448" lon="5.90922">
        <ele>2122</ele>
        <time>2015-06-20T06:48:59Z</time>
      </trkpt>
      <trkpt lat="45.12448" lon="5.90918">
        <ele>2121</ele>
        <time>2015-06-20T06:49:02Z</time>
      </trkpt>
      <trkpt lat="45.12449" lon="5.90916">
        <ele>2121</ele>
        <time>2015-06-20T06:49:04Z</time>
      </trkpt>
      <trkpt lat="45.12449" lon="5.90912">
        <ele>2120</ele>
        <time>2015-06-20T06:49:06Z</time>
      </trkpt>
      <trkpt lat="45.1245" lon="5.90909">
        <ele>2120</ele>
        <time>2015-06-20T06:49:07Z</time>
      </trkpt>
      <trkpt lat="45.1245" lon="5.90905">
        <ele>2120</ele>
        <time>2015-06-20T06:49:09Z</time>
      </trkpt>
      <trkpt lat="45.12449" lon="5.90902">
        <ele>2120</ele>
        <time>2015-06-20T06:49:10Z</time>
      </trkpt>
      <trkpt lat="45.12448" lon="5.90899">
        <ele>2117</ele>
        <time>2015-06-20T06:49:12Z</time>
      </trkpt>
      <trkpt lat="45.12446" lon="5.90899">
        <ele>2117</ele>
        <time>2015-06-20T06:49:13Z</time>
      </trkpt>
      <trkpt lat="45.12444" lon="5.909">
        <ele>2117</ele>
        <time>2015-06-20T06:49:14Z</time>
      </trkpt>
      <trkpt lat="45.12442" lon="5.90901">
        <ele>2114</ele>
        <time>2015-06-20T06:49:16Z</time>
      </trkpt>
      <trkpt lat="45.12439" lon="5.90901">
        <ele>2114</ele>
        <time>2015-06-20T06:49:18Z</time>
      </trkpt>
      <trkpt lat="45.12435" lon="5.90902">
        <ele>2114</ele>
        <time>2015-06-20T06:49:20Z</time>
      </trkpt>
      <trkpt lat="45.12434" lon="5.90904">
        <ele>2114</ele>
        <time>2015-06-20T06:49:21Z</time>
      </trkpt>
      <trkpt lat="45.12432" lon="5.90906">
        <ele>2108</ele>
        <time>2015-06-20T06:49:23Z</time>
      </trkpt>
      <trkpt lat="45.12431" lon="5.90909">
        <ele>2107</ele>
        <time>2015-06-20T06:49:25Z</time>
      </trkpt>
      <trkpt lat="45.12429" lon="5.9091">
        <ele>2107</ele>
        <time>2015-06-20T06:49:27Z</time>
      </trkpt>
      <trkpt lat="45.12428" lon="5.90909">
        <ele>2106</ele>
        <time>2015-06-20T06:49:30Z</time>
      </trkpt>
      <trkpt lat="45.12426" lon="5.90911">
        <ele>2104</ele>
        <time>2015-06-20T06:49:40Z</time>
      </trkpt>
      <trkpt lat="45.12423" lon="5.90912">
        <ele>2104</ele>
        <time>2015-06-20T06:49:42Z</time>
      </trkpt>
      <trkpt lat="45.12421" lon="5.90915">
        <ele>2103</ele>
        <time>2015-06-20T06:49:44Z</time>
      </trkpt>
      <trkpt lat="45.12419" lon="5.90918">
        <ele>2103</ele>
        <time>2015-06-20T06:49:46Z</time>
      </trkpt>
      <trkpt lat="45.12418" lon="5.9092">
        <ele>2103</ele>
        <time>2015-06-20T06:49:47Z</time>
      </trkpt>
      <trkpt lat="45.12416" lon="5.90924">
        <ele>2100</ele>
        <time>2015-06-20T06:49:49Z</time>
      </trkpt>
      <trkpt lat="45.12415" lon="5.90926">
        <ele>2100</ele>
        <time>2015-06-20T06:49:50Z</time>
      </trkpt>
      <trkpt lat="45.12415" lon="5.90929">
        <ele>2100</ele>
        <time>2015-06-20T06:49:51Z</time>
      </trkpt>
      <trkpt lat="45.12413" lon="5.90931">
        <ele>2100</ele>
        <time>2015-06-20T06:49:52Z</time>
      </trkpt>
      <trkpt lat="45.12412" lon="5.90933">
        <ele>2098</ele>
        <time>2015-06-20T06:49:53Z</time>
      </trkpt>
      <trkpt lat="45.12412" lon="5.90937">
        <ele>2098</ele>
        <time>2015-06-20T06:49:55Z</time>
      </trkpt>
      <trkpt lat="45.12412" lon="5.9094">
        <ele>2096</ele>
        <time>2015-06-20T06:49:56Z</time>
      </trkpt>
      <trkpt lat="45.12412" lon="5.90943">
        <ele>2095</ele>
        <time>2015-06-20T06:49:57Z</time>
      </trkpt>
      <trkpt lat="45.12411" lon="5.90946">
        <ele>2095</ele>
        <time>2015-06-20T06:49:58Z</time>
      </trkpt>
      <trkpt lat="45.12411" lon="5.90951">
        <ele>2095</ele>
        <time>2015-06-20T06:50:00Z</time>
      </trkpt>
      <trkpt lat="45.12411" lon="5.90954">
        <ele>2093</ele>
        <time>2015-06-20T06:50:01Z</time>
      </trkpt>
      <trkpt lat="45.1241" lon="5.90957">
        <ele>2092</ele>
        <time>2015-06-20T06:50:02Z</time>
      </trkpt>
      <trkpt lat="45.1241" lon="5.90962">
        <ele>2092</ele>
        <time>2015-06-20T06:50:04Z</time>
      </trkpt>
      <trkpt lat="45.12409" lon="5.90966">
        <ele>2092</ele>
        <time>2015-06-20T06:50:06Z</time>
      </trkpt>
      <trkpt lat="45.12407" lon="5.9097">
        <ele>2088</ele>
        <time>2015-06-20T06:50:08Z</time>
      </trkpt>
      <trkpt lat="45.12408" lon="5.90974">
        <ele>2087</ele>
        <time>2015-06-20T06:50:10Z</time>
      </trkpt>
      <trkpt lat="45.12407" lon="5.90978">
        <ele>2087</ele>
        <time>2015-06-20T06:50:12Z</time>
      </trkpt>
      <trkpt lat="45.12407" lon="5.9098">
        <ele>2086</ele>
        <time>2015-06-20T06:50:13Z</time>
      </trkpt>
      <trkpt lat="45.12406" lon="5.90983">
        <ele>2086</ele>
        <time>2015-06-20T06:50:14Z</time>
      </trkpt>
      <trkpt lat="45.12405" lon="5.90986">
        <ele>2084</ele>
        <time>2015-06-20T06:50:15Z</time>
      </trkpt>
      <trkpt lat="45.12404" lon="5.90988">
        <ele>2081</ele>
        <time>2015-06-20T06:50:16Z</time>
      </trkpt>
      <trkpt lat="45.12402" lon="5.90991">
        <ele>2081</ele>
        <time>2015-06-20T06:50:17Z</time>
      </trkpt>
      <trkpt lat="45.12401" lon="5.90994">
        <ele>2081</ele>
        <time>2015-06-20T06:50:18Z</time>
      </trkpt>
      <trkpt lat="45.12399" lon="5.90998">
        <ele>2080</ele>
        <time>2015-06-20T06:50:19Z</time>
      </trkpt>
      <trkpt lat="45.12398" lon="5.91001">
        <ele>2080</ele>
        <time>2015-06-20T06:50:20Z</time>
      </trkpt>
      <trkpt lat="45.12396" lon="5.91005">
        <ele>2080</ele>
        <time>2015-06-20T06:50:21Z</time>
      </trkpt>
      <trkpt lat="45.12394" lon="5.91008">
        <ele>2080</ele>
        <time>2015-06-20T06:50:22Z</time>
      </trkpt>
      <trkpt lat="45.12392" lon="5.91012">
        <ele>2079</ele>
        <time>2015-06-20T06:50:23Z</time>
      </trkpt>
      <trkpt lat="45.12389" lon="5.91016">
        <ele>2079</ele>
        <time>2015-06-20T06:50:24Z</time>
      </trkpt>
      <trkpt lat="45.12388" lon="5.9102">
        <ele>2078</ele>
        <time>2015-06-20T06:50:25Z</time>
      </trkpt>
      <trkpt lat="45.12386" lon="5.91024">
        <ele>2078</ele>
        <time>2015-06-20T06:50:26Z</time>
      </trkpt>
      <trkpt lat="45.12384" lon="5.91028">
        <ele>2078</ele>
        <time>2015-06-20T06:50:27Z</time>
      </trkpt>
      <trkpt lat="45.12383" lon="5.91032">
        <ele>2078</ele>
        <time>2015-06-20T06:50:28Z</time>
      </trkpt>
      <trkpt lat="45.12381" lon="5.91034">
        <ele>2077</ele>
        <time>2015-06-20T06:50:29Z</time>
      </trkpt>
      <trkpt lat="45.12378" lon="5.91037">
        <ele>2077</ele>
        <time>2015-06-20T06:50:30Z</time>
      </trkpt>
      <trkpt lat="45.12376" lon="5.9104">
        <ele>2077</ele>
        <time>2015-06-20T06:50:31Z</time>
      </trkpt>
      <trkpt lat="45.12372" lon="5.91042">
        <ele>2077</ele>
        <time>2015-06-20T06:50:32Z</time>
      </trkpt>
      <trkpt lat="45.12369" lon="5.91045">
        <ele>2077</ele>
        <time>2015-06-20T06:50:33Z</time>
      </trkpt>
      <trkpt lat="45.12367" lon="5.91045">
        <ele>2077</ele>
        <time>2015-06-20T06:50:34Z</time>
      </trkpt>
      <trkpt lat="45.12363" lon="5.91047">
        <ele>2077</ele>
        <time>2015-06-20T06:50:35Z</time>
      </trkpt>
      <trkpt lat="45.1236" lon="5.91049">
        <ele>2077</ele>
        <time>2015-06-20T06:50:36Z</time>
      </trkpt>
      <trkpt lat="45.12358" lon="5.91049">
        <ele>2077</ele>
        <time>2015-06-20T06:50:37Z</time>
      </trkpt>
      <trkpt lat="45.12356" lon="5.9105">
        <ele>2077</ele>
        <time>2015-06-20T06:50:38Z</time>
      </trkpt>
      <trkpt lat="45.12353" lon="5.91051">
        <ele>2077</ele>
        <time>2015-06-20T06:50:39Z</time>
      </trkpt>
      <trkpt lat="45.1235" lon="5.91053">
        <ele>2077</ele>
        <time>2015-06-20T06:50:40Z</time>
      </trkpt>
      <trkpt lat="45.12348" lon="5.91053">
        <ele>2077</ele>
        <time>2015-06-20T06:50:41Z</time>
      </trkpt>
      <trkpt lat="45.12344" lon="5.91054">
        <ele>2077</ele>
        <time>2015-06-20T06:50:42Z</time>
      </trkpt>
      <trkpt lat="45.12341" lon="5.91054">
        <ele>2077</ele>
        <time>2015-06-20T06:50:43Z</time>
      </trkpt>
      <trkpt lat="45.12338" lon="5.91054">
        <ele>2077</ele>
        <time>2015-06-20T06:50:44Z</time>
      </trkpt>
      <trkpt lat="45.12334" lon="5.91054">
        <ele>2077</ele>
        <time>2015-06-20T06:50:45Z</time>
      </trkpt>
      <trkpt lat="45.12331" lon="5.91053">
        <ele>2077</ele>
        <time>2015-06-20T06:50:46Z</time>
      </trkpt>
      <trkpt lat="45.12328" lon="5.91052">
        <ele>2077</ele>
        <time>2015-06-20T06:50:47Z</time>
      </trkpt>
      <trkpt lat="45.12326" lon="5.9105">
        <ele>2077</ele>
        <time>2015-06-20T06:50:48Z</time>
      </trkpt>
      <trkpt lat="45.12323" lon="5.91051">
        <ele>2077</ele>
        <time>2015-06-20T06:50:49Z</time>
      </trkpt>
      <trkpt lat="45.12319" lon="5.91051">
        <ele>2077</ele>
        <time>2015-06-20T06:50:50Z</time>
      </trkpt>
      <trkpt lat="45.12316" lon="5.91051">
        <ele>2077</ele>
        <time>2015-06-20T06:50:51Z</time>
      </trkpt>
      <trkpt lat="45.12313" lon="5.91051">
        <ele>2077</ele>
        <time>2015-06-20T06:50:52Z</time>
      </trkpt>
      <trkpt lat="45.1231" lon="5.91051">
        <ele>2077</ele>
        <time>2015-06-20T06:50:53Z</time>
      </trkpt>
      <trkpt lat="45.12307" lon="5.91049">
        <ele>2077</ele>
        <time>2015-06-20T06:50:54Z</time>
      </trkpt>
      <trkpt lat="45.12304" lon="5.91048">
        <ele>2077</ele>
        <time>2015-06-20T06:50:55Z</time>
      </trkpt>
      <trkpt lat="45.12301" lon="5.91046">
        <ele>2077</ele>
        <time>2015-06-20T06:50:56Z</time>
      </trkpt>
      <trkpt lat="45.12298" lon="5.91043">
        <ele>2073</ele>
        <time>2015-06-20T06:50:57Z</time>
      </trkpt>
      <trkpt lat="45.12296" lon="5.9104">
        <ele>2073</ele>
        <time>2015-06-20T06:50:58Z</time>
      </trkpt>
      <trkpt lat="45.12293" lon="5.91039">
        <ele>2073</ele>
        <time>2015-06-20T06:50:59Z</time>
      </trkpt>
      <trkpt lat="45.1229" lon="5.91037">
        <ele>2073</ele>
        <time>2015-06-20T06:51:00Z</time>
      </trkpt>
      <trkpt lat="45.12287" lon="5.91035">
        <ele>2073</ele>
        <time>2015-06-20T06:51:01Z</time>
      </trkpt>
      <trkpt lat="45.12284" lon="5.91033">
        <ele>2071</ele>
        <time>2015-06-20T06:51:02Z</time>
      </trkpt>
      <trkpt lat="45.12281" lon="5.91031">
        <ele>2071</ele>
        <time>2015-06-20T06:51:03Z</time>
      </trkpt>
      <trkpt lat="45.12278" lon="5.9103">
        <ele>2071</ele>
        <time>2015-06-20T06:51:04Z</time>
      </trkpt>
      <trkpt lat="45.12276" lon="5.91028">
        <ele>2071</ele>
        <time>2015-06-20T06:51:05Z</time>
      </trkpt>
      <trkpt lat="45.12274" lon="5.91026">
        <ele>2071</ele>
        <time>2015-06-20T06:51:06Z</time>
      </trkpt>
      <trkpt lat="45.12272" lon="5.91024">
        <ele>2071</ele>
        <time>2015-06-20T06:51:07Z</time>
      </trkpt>
      <trkpt lat="45.1227" lon="5.91023">
        <ele>2072</ele>
        <time>2015-06-20T06:51:08Z</time>
      </trkpt>
      <trkpt lat="45.12268" lon="5.91021">
        <ele>2072</ele>
        <time>2015-06-20T06:51:09Z</time>
      </trkpt>
      <trkpt lat="45.12266" lon="5.91019">
        <ele>2072</ele>
        <time>2015-06-20T06:51:10Z</time>
      </trkpt>
      <trkpt lat="45.12265" lon="5.91016">
        <ele>2072</ele>
        <time>2015-06-20T06:51:11Z</time>
      </trkpt>
      <trkpt lat="45.12263" lon="5.91015">
        <ele>2072</ele>
        <time>2015-06-20T06:51:12Z</time>
      </trkpt>
      <trkpt lat="45.12261" lon="5.91013">
        <ele>2072</ele>
        <time>2015-06-20T06:51:13Z</time>
      </trkpt>
      <trkpt lat="45.12259" lon="5.9101">
        <ele>2072</ele>
        <time>2015-06-20T06:51:14Z</time>
      </trkpt>
      <trkpt lat="45.12257" lon="5.91009">
        <ele>2072</ele>
        <time>2015-06-20T06:51:15Z</time>
      </trkpt>
      <trkpt lat="45.12255" lon="5.91007">
        <ele>2072</ele>
        <time>2015-06-20T06:51:16Z</time>
      </trkpt>
      <trkpt lat="45.12253" lon="5.91007">
        <ele>2072</ele>
        <time>2015-06-20T06:51:17Z</time>
      </trkpt>
      <trkpt lat="45.12251" lon="5.91006">
        <ele>2072</ele>
        <time>2015-06-20T06:51:18Z</time>
      </trkpt>
      <trkpt lat="45.12249" lon="5.91005">
        <ele>2072</ele>
        <time>2015-06-20T06:51:19Z</time>
      </trkpt>
      <trkpt lat="45.12246" lon="5.91005">
        <ele>2072</ele>
        <time>2015-06-20T06:51:20Z</time>
      </trkpt>
      <trkpt lat="45.12244" lon="5.91005">
        <ele>2072</ele>
        <time>2015-06-20T06:51:21Z</time>
      </trkpt>
      <trkpt lat="45.1224" lon="5.91006">
        <ele>2072</ele>
        <time>2015-06-20T06:51:22Z</time>
      </trkpt>
      <trkpt lat="45.12237" lon="5.91005">
        <ele>2072</ele>
        <time>2015-06-20T06:51:23Z</time>
      </trkpt>
      <trkpt lat="45.12235" lon="5.91003">
        <ele>2072</ele>
        <time>2015-06-20T06:51:24Z</time>
      </trkpt>
      <trkpt lat="45.12232" lon="5.91002">
        <ele>2072</ele>
        <time>2015-06-20T06:51:25Z</time>
      </trkpt>
      <trkpt lat="45.1223" lon="5.91002">
        <ele>2072</ele>
        <time>2015-06-20T06:51:26Z</time>
      </trkpt>
      <trkpt lat="45.12228" lon="5.91002">
        <ele>2072</ele>
        <time>2015-06-20T06:51:27Z</time>
      </trkpt>
      <trkpt lat="45.12225" lon="5.91">
        <ele>2072</ele>
        <time>2015-06-20T06:51:28Z</time>
      </trkpt>
      <trkpt lat="45.12223" lon="5.90999">
        <ele>2072</ele>
        <time>2015-06-20T06:51:29Z</time>
      </trkpt>
      <trkpt lat="45.12222" lon="5.90998">
        <ele>2072</ele>
        <time>2015-06-20T06:51:30Z</time>
      </trkpt>
      <trkpt lat="45.1222" lon="5.90995">
        <ele>2072</ele>
        <time>2015-06-20T06:51:32Z</time>
      </trkpt>
      <trkpt lat="45.12217" lon="5.90994">
        <ele>2072</ele>
        <time>2015-06-20T06:51:35Z</time>
      </trkpt>
      <trkpt lat="45.12215" lon="5.90993">
        <ele>2072</ele>
        <time>2015-06-20T06:51:36Z</time>
      </trkpt>
      <trkpt lat="45.12213" lon="5.9099">
        <ele>2072</ele>
        <time>2015-06-20T06:51:37Z</time>
      </trkpt>
      <trkpt lat="45.12211" lon="5.90986">
        <ele>2072</ele>
        <time>2015-06-20T06:51:38Z</time>
      </trkpt>
      <trkpt lat="45.12209" lon="5.90983">
        <ele>2072</ele>
        <time>2015-06-20T06:51:39Z</time>
      </trkpt>
      <trkpt lat="45.12207" lon="5.90981">
        <ele>2072</ele>
        <time>2015-06-20T06:51:40Z</time>
      </trkpt>
      <trkpt lat="45.12204" lon="5.9098">
        <ele>2072</ele>
        <time>2015-06-20T06:51:41Z</time>
      </trkpt>
      <trkpt lat="45.12202" lon="5.90979">
        <ele>2072</ele>
        <time>2015-06-20T06:51:42Z</time>
      </trkpt>
      <trkpt lat="45.122" lon="5.90978">
        <ele>2072</ele>
        <time>2015-06-20T06:51:43Z</time>
      </trkpt>
      <trkpt lat="45.12198" lon="5.90978">
        <ele>2072</ele>
        <time>2015-06-20T06:51:44Z</time>
      </trkpt>
      <trkpt lat="45.12196" lon="5.90978">
        <ele>2072</ele>
        <time>2015-06-20T06:51:45Z</time>
      </trkpt>
      <trkpt lat="45.12194" lon="5.90978">
        <ele>2072</ele>
        <time>2015-06-20T06:51:46Z</time>
      </trkpt>
      <trkpt lat="45.1219" lon="5.90977">
        <ele>2072</ele>
        <time>2015-06-20T06:51:48Z</time>
      </trkpt>
      <trkpt lat="45.12188" lon="5.90977">
        <ele>2070</ele>
        <time>2015-06-20T06:51:49Z</time>
      </trkpt>
      <trkpt lat="45.12186" lon="5.90977">
        <ele>2070</ele>
        <time>2015-06-20T06:51:50Z</time>
      </trkpt>
      <trkpt lat="45.12183" lon="5.90977">
        <ele>2070</ele>
        <time>2015-06-20T06:51:52Z</time>
      </trkpt>
      <trkpt lat="45.1218" lon="5.90976">
        <ele>2068</ele>
        <time>2015-06-20T06:51:54Z</time>
      </trkpt>
      <trkpt lat="45.12176" lon="5.90975">
        <ele>2068</ele>
        <time>2015-06-20T06:51:56Z</time>
      </trkpt>
      <trkpt lat="45.12173" lon="5.90975">
        <ele>2065</ele>
        <time>2015-06-20T06:51:58Z</time>
      </trkpt>
      <trkpt lat="45.1217" lon="5.90976">
        <ele>2064</ele>
        <time>2015-06-20T06:52:00Z</time>
      </trkpt>
      <trkpt lat="45.12167" lon="5.90974">
        <ele>2064</ele>
        <time>2015-06-20T06:52:02Z</time>
      </trkpt>
      <trkpt lat="45.12165" lon="5.90973">
        <ele>2063</ele>
        <time>2015-06-20T06:52:03Z</time>
      </trkpt>
      <trkpt lat="45.12161" lon="5.90972">
        <ele>2063</ele>
        <time>2015-06-20T06:52:05Z</time>
      </trkpt>
      <trkpt lat="45.12159" lon="5.90971">
        <ele>2060</ele>
        <time>2015-06-20T06:52:06Z</time>
      </trkpt>
      <trkpt lat="45.12157" lon="5.90967">
        <ele>2060</ele>
        <time>2015-06-20T06:52:07Z</time>
      </trkpt>
      <trkpt lat="45.12154" lon="5.90964">
        <ele>2058</ele>
        <time>2015-06-20T06:52:08Z</time>
      </trkpt>
      <trkpt lat="45.12152" lon="5.90961">
        <ele>2058</ele>
        <time>2015-06-20T06:52:09Z</time>
      </trkpt>
      <trkpt lat="45.1215" lon="5.90959">
        <ele>2058</ele>
        <time>2015-06-20T06:52:10Z</time>
      </trkpt>
      <trkpt lat="45.12147" lon="5.90958">
        <ele>2058</ele>
        <time>2015-06-20T06:52:11Z</time>
      </trkpt>
      <trkpt lat="45.12145" lon="5.90955">
        <ele>2058</ele>
        <time>2015-06-20T06:52:13Z</time>
      </trkpt>
      <trkpt lat="45.12142" lon="5.90953">
        <ele>2058</ele>
        <time>2015-06-20T06:52:15Z</time>
      </trkpt>
      <trkpt lat="45.1214" lon="5.90951">
        <ele>2058</ele>
        <time>2015-06-20T06:52:17Z</time>
      </trkpt>
      <trkpt lat="45.12137" lon="5.90949">
        <ele>2058</ele>
        <time>2015-06-20T06:52:19Z</time>
      </trkpt>
      <trkpt lat="45.12136" lon="5.90946">
        <ele>2058</ele>
        <time>2015-06-20T06:52:20Z</time>
      </trkpt>
      <trkpt lat="45.12134" lon="5.90944">
        <ele>2058</ele>
        <time>2015-06-20T06:52:22Z</time>
      </trkpt>
      <trkpt lat="45.12132" lon="5.90945">
        <ele>2058</ele>
        <time>2015-06-20T06:52:24Z</time>
      </trkpt>
      <trkpt lat="45.12128" lon="5.90946">
        <ele>2058</ele>
        <time>2015-06-20T06:52:26Z</time>
      </trkpt>
      <trkpt lat="45.12125" lon="5.90947">
        <ele>2058</ele>
        <time>2015-06-20T06:52:28Z</time>
      </trkpt>
      <trkpt lat="45.12121" lon="5.90948">
        <ele>2060</ele>
        <time>2015-06-20T06:52:30Z</time>
      </trkpt>
      <trkpt lat="45.1212" lon="5.90949">
        <ele>2060</ele>
        <time>2015-06-20T06:52:31Z</time>
      </trkpt>
      <trkpt lat="45.12117" lon="5.90948">
        <ele>2060</ele>
        <time>2015-06-20T06:52:33Z</time>
      </trkpt>
      <trkpt lat="45.12114" lon="5.90946">
        <ele>2060</ele>
        <time>2015-06-20T06:52:35Z</time>
      </trkpt>
      <trkpt lat="45.12114" lon="5.90941">
        <ele>2060</ele>
        <time>2015-06-20T06:52:37Z</time>
      </trkpt>
      <trkpt lat="45.12114" lon="5.90936">
        <ele>2060</ele>
        <time>2015-06-20T06:52:39Z</time>
      </trkpt>
      <trkpt lat="45.12113" lon="5.90933">
        <ele>2060</ele>
        <time>2015-06-20T06:52:40Z</time>
      </trkpt>
      <trkpt lat="45.12111" lon="5.90931">
        <ele>2060</ele>
        <time>2015-06-20T06:52:42Z</time>
      </trkpt>
      <trkpt lat="45.12109" lon="5.9093">
        <ele>2060</ele>
        <time>2015-06-20T06:52:43Z</time>
      </trkpt>
      <trkpt lat="45.12106" lon="5.9093">
        <ele>2060</ele>
        <time>2015-06-20T06:52:44Z</time>
      </trkpt>
      <trkpt lat="45.12105" lon="5.90929">
        <ele>2060</ele>
        <time>2015-06-20T06:52:45Z</time>
      </trkpt>
      <trkpt lat="45.12102" lon="5.90926">
        <ele>2060</ele>
        <time>2015-06-20T06:52:47Z</time>
      </trkpt>
      <trkpt lat="45.12101" lon="5.90924">
        <ele>2062</ele>
        <time>2015-06-20T06:52:48Z</time>
      </trkpt>
      <trkpt lat="45.12098" lon="5.9092">
        <ele>2062</ele>
        <time>2015-06-20T06:52:50Z</time>
      </trkpt>
      <trkpt lat="45.12097" lon="5.90919">
        <ele>2062</ele>
        <time>2015-06-20T06:52:51Z</time>
      </trkpt>
      <trkpt lat="45.12094" lon="5.90918">
        <ele>2062</ele>
        <time>2015-06-20T06:52:52Z</time>
      </trkpt>
      <trkpt lat="45.12092" lon="5.90915">
        <ele>2062</ele>
        <time>2015-06-20T06:52:53Z</time>
      </trkpt>
      <trkpt lat="45.1209" lon="5.90912">
        <ele>2063</ele>
        <time>2015-06-20T06:52:54Z</time>
      </trkpt>
      <trkpt lat="45.12089" lon="5.9091">
        <ele>2063</ele>
        <time>2015-06-20T06:52:55Z</time>
      </trkpt>
      <trkpt lat="45.12087" lon="5.90908">
        <ele>2063</ele>
        <time>2015-06-20T06:52:56Z</time>
      </trkpt>
      <trkpt lat="45.12086" lon="5.90905">
        <ele>2063</ele>
        <time>2015-06-20T06:52:57Z</time>
      </trkpt>
      <trkpt lat="45.12085" lon="5.90902">
        <ele>2063</ele>
        <time>2015-06-20T06:52:59Z</time>
      </trkpt>
      <trkpt lat="45.12083" lon="5.90899">
        <ele>2064</ele>
        <time>2015-06-20T06:53:00Z</time>
      </trkpt>
      <trkpt lat="45.12082" lon="5.90896">
        <ele>2064</ele>
        <time>2015-06-20T06:53:01Z</time>
      </trkpt>
      <trkpt lat="45.12082" lon="5.90893">
        <ele>2062</ele>
        <time>2015-06-20T06:53:02Z</time>
      </trkpt>
      <trkpt lat="45.12081" lon="5.9089">
        <ele>2062</ele>
        <time>2015-06-20T06:53:03Z</time>
      </trkpt>
      <trkpt lat="45.1208" lon="5.90887">
        <ele>2062</ele>
        <time>2015-06-20T06:53:04Z</time>
      </trkpt>
      <trkpt lat="45.12079" lon="5.90883">
        <ele>2062</ele>
        <time>2015-06-20T06:53:05Z</time>
      </trkpt>
      <trkpt lat="45.12077" lon="5.90882">
        <ele>2062</ele>
        <time>2015-06-20T06:53:06Z</time>
      </trkpt>
      <trkpt lat="45.12075" lon="5.9088">
        <ele>2062</ele>
        <time>2015-06-20T06:53:07Z</time>
      </trkpt>
      <trkpt lat="45.12073" lon="5.90878">
        <ele>2062</ele>
        <time>2015-06-20T06:53:08Z</time>
      </trkpt>
      <trkpt lat="45.12071" lon="5.90878">
        <ele>2062</ele>
        <time>2015-06-20T06:53:09Z</time>
      </trkpt>
      <trkpt lat="45.12069" lon="5.90878">
        <ele>2062</ele>
        <time>2015-06-20T06:53:10Z</time>
      </trkpt>
      <trkpt lat="45.12066" lon="5.90877">
        <ele>2062</ele>
        <time>2015-06-20T06:53:11Z</time>
      </trkpt>
      <trkpt lat="45.12064" lon="5.90877">
        <ele>2062</ele>
        <time>2015-06-20T06:53:12Z</time>
      </trkpt>
      <trkpt lat="45.12062" lon="5.90876">
        <ele>2062</ele>
        <time>2015-06-20T06:53:13Z</time>
      </trkpt>
      <trkpt lat="45.1206" lon="5.90874">
        <ele>2062</ele>
        <time>2015-06-20T06:53:14Z</time>
      </trkpt>
      <trkpt lat="45.12058" lon="5.90872">
        <ele>2062</ele>
        <time>2015-06-20T06:53:15Z</time>
      </trkpt>
      <trkpt lat="45.12056" lon="5.90869">
        <ele>2062</ele>
        <time>2015-06-20T06:53:16Z</time>
      </trkpt>
      <trkpt lat="45.12054" lon="5.90867">
        <ele>2062</ele>
        <time>2015-06-20T06:53:17Z</time>
      </trkpt>
      <trkpt lat="45.12052" lon="5.90866">
        <ele>2063</ele>
        <time>2015-06-20T06:53:18Z</time>
      </trkpt>
      <trkpt lat="45.1205" lon="5.90865">
        <ele>2063</ele>
        <time>2015-06-20T06:53:19Z</time>
      </trkpt>
      <trkpt lat="45.12048" lon="5.90864">
        <ele>2063</ele>
        <time>2015-06-20T06:53:20Z</time>
      </trkpt>
      <trkpt lat="45.12046" lon="5.90864">
        <ele>2063</ele>
        <time>2015-06-20T06:53:21Z</time>
      </trkpt>
      <trkpt lat="45.12043" lon="5.90864">
        <ele>2064</ele>
        <time>2015-06-20T06:53:23Z</time>
      </trkpt>
      <trkpt lat="45.12041" lon="5.90864">
        <ele>2064</ele>
        <time>2015-06-20T06:53:24Z</time>
      </trkpt>
      <trkpt lat="45.1204" lon="5.90864">
        <ele>2064</ele>
        <time>2015-06-20T06:53:25Z</time>
      </trkpt>
      <trkpt lat="45.12038" lon="5.90864">
        <ele>2064</ele>
        <time>2015-06-20T06:53:26Z</time>
      </trkpt>
      <trkpt lat="45.12035" lon="5.90864">
        <ele>2064</ele>
        <time>2015-06-20T06:53:28Z</time>
      </trkpt>
      <trkpt lat="45.12032" lon="5.90862">
        <ele>2064</ele>
        <time>2015-06-20T06:53:30Z</time>
      </trkpt>
      <trkpt lat="45.12028" lon="5.9086">
        <ele>2066</ele>
        <time>2015-06-20T06:53:32Z</time>
      </trkpt>
      <trkpt lat="45.12026" lon="5.90858">
        <ele>2066</ele>
        <time>2015-06-20T06:53:33Z</time>
      </trkpt>
      <trkpt lat="45.12024" lon="5.90856">
        <ele>2066</ele>
        <time>2015-06-20T06:53:34Z</time>
      </trkpt>
      <trkpt lat="45.12023" lon="5.90853">
        <ele>2066</ele>
        <time>2015-06-20T06:53:35Z</time>
      </trkpt>
      <trkpt lat="45.12023" lon="5.90851">
        <ele>2066</ele>
        <time>2015-06-20T06:53:36Z</time>
      </trkpt>
      <trkpt lat="45.12021" lon="5.90847">
        <ele>2066</ele>
        <time>2015-06-20T06:53:38Z</time>
      </trkpt>
      <trkpt lat="45.1202" lon="5.90844">
        <ele>2066</ele>
        <time>2015-06-20T06:53:39Z</time>
      </trkpt>
      <trkpt lat="45.1202" lon="5.90842">
        <ele>2066</ele>
        <time>2015-06-20T06:53:40Z</time>
      </trkpt>
      <trkpt lat="45.1202" lon="5.90838">
        <ele>2066</ele>
        <time>2015-06-20T06:53:42Z</time>
      </trkpt>
      <trkpt lat="45.12018" lon="5.90836">
        <ele>2066</ele>
        <time>2015-06-20T06:53:44Z</time>
      </trkpt>
      <trkpt lat="45.12014" lon="5.90834">
        <ele>2065</ele>
        <time>2015-06-20T06:53:46Z</time>
      </trkpt>
      <trkpt lat="45.12011" lon="5.90833">
        <ele>2065</ele>
        <time>2015-06-20T06:53:47Z</time>
      </trkpt>
      <trkpt lat="45.12009" lon="5.90831">
        <ele>2065</ele>
        <time>2015-06-20T06:53:48Z</time>
      </trkpt>
      <trkpt lat="45.12008" lon="5.9083">
        <ele>2065</ele>
        <time>2015-06-20T06:53:49Z</time>
      </trkpt>
      <trkpt lat="45.12006" lon="5.90828">
        <ele>2065</ele>
        <time>2015-06-20T06:53:50Z</time>
      </trkpt>
      <trkpt lat="45.12003" lon="5.90826">
        <ele>2065</ele>
        <time>2015-06-20T06:53:51Z</time>
      </trkpt>
      <trkpt lat="45.12002" lon="5.90824">
        <ele>2064</ele>
        <time>2015-06-20T06:53:52Z</time>
      </trkpt>
      <trkpt lat="45.12" lon="5.90822">
        <ele>2064</ele>
        <time>2015-06-20T06:53:53Z</time>
      </trkpt>
      <trkpt lat="45.11998" lon="5.9082">
        <ele>2064</ele>
        <time>2015-06-20T06:53:54Z</time>
      </trkpt>
      <trkpt lat="45.11997" lon="5.90818">
        <ele>2064</ele>
        <time>2015-06-20T06:53:55Z</time>
      </trkpt>
      <trkpt lat="45.11996" lon="5.90815">
        <ele>2064</ele>
        <time>2015-06-20T06:53:56Z</time>
      </trkpt>
      <trkpt lat="45.11996" lon="5.90811">
        <ele>2064</ele>
        <time>2015-06-20T06:53:57Z</time>
      </trkpt>
      <trkpt lat="45.11995" lon="5.90808">
        <ele>2064</ele>
        <time>2015-06-20T06:53:58Z</time>
      </trkpt>
      <trkpt lat="45.11994" lon="5.90804">
        <ele>2064</ele>
        <time>2015-06-20T06:53:59Z</time>
      </trkpt>
      <trkpt lat="45.11993" lon="5.908">
        <ele>2064</ele>
        <time>2015-06-20T06:54:00Z</time>
      </trkpt>
      <trkpt lat="45.11992" lon="5.90796">
        <ele>2064</ele>
        <time>2015-06-20T06:54:01Z</time>
      </trkpt>
      <trkpt lat="45.11992" lon="5.90793">
        <ele>2064</ele>
        <time>2015-06-20T06:54:02Z</time>
      </trkpt>
      <trkpt lat="45.1199" lon="5.9079">
        <ele>2064</ele>
        <time>2015-06-20T06:54:04Z</time>
      </trkpt>
      <trkpt lat="45.11988" lon="5.90787">
        <ele>2064</ele>
        <time>2015-06-20T06:54:06Z</time>
      </trkpt>
      <trkpt lat="45.11986" lon="5.90784">
        <ele>2064</ele>
        <time>2015-06-20T06:54:08Z</time>
      </trkpt>
      <trkpt lat="45.11984" lon="5.90783">
        <ele>2064</ele>
        <time>2015-06-20T06:54:09Z</time>
      </trkpt>
      <trkpt lat="45.11982" lon="5.90782">
        <ele>2064</ele>
        <time>2015-06-20T06:54:10Z</time>
      </trkpt>
      <trkpt lat="45.1198" lon="5.9078">
        <ele>2064</ele>
        <time>2015-06-20T06:54:11Z</time>
      </trkpt>
      <trkpt lat="45.11978" lon="5.90778">
        <ele>2061</ele>
        <time>2015-06-20T06:54:12Z</time>
      </trkpt>
      <trkpt lat="45.11975" lon="5.90777">
        <ele>2061</ele>
        <time>2015-06-20T06:54:13Z</time>
      </trkpt>
      <trkpt lat="45.11973" lon="5.90775">
        <ele>2061</ele>
        <time>2015-06-20T06:54:14Z</time>
      </trkpt>
      <trkpt lat="45.11971" lon="5.90774">
        <ele>2061</ele>
        <time>2015-06-20T06:54:15Z</time>
      </trkpt>
      <trkpt lat="45.11969" lon="5.90772">
        <ele>2059</ele>
        <time>2015-06-20T06:54:18Z</time>
      </trkpt>
      <trkpt lat="45.11967" lon="5.9077">
        <ele>2059</ele>
        <time>2015-06-20T06:54:21Z</time>
      </trkpt>
      <trkpt lat="45.11965" lon="5.90767">
        <ele>2057</ele>
        <time>2015-06-20T06:54:23Z</time>
      </trkpt>
      <trkpt lat="45.11972" lon="5.90769">
        <ele>2057</ele>
        <time>2015-06-20T06:54:31Z</time>
      </trkpt>
      <trkpt lat="45.11973" lon="5.9077">
        <ele>2057</ele>
        <time>2015-06-20T06:54:32Z</time>
      </trkpt>
      <trkpt lat="45.11975" lon="5.90772">
        <ele>2058</ele>
        <time>2015-06-20T06:54:33Z</time>
      </trkpt>
      <trkpt lat="45.11976" lon="5.90773">
        <ele>2058</ele>
        <time>2015-06-20T06:54:34Z</time>
      </trkpt>
      <trkpt lat="45.11978" lon="5.90775">
        <ele>2058</ele>
        <time>2015-06-20T06:54:35Z</time>
      </trkpt>
      <trkpt lat="45.1198" lon="5.90776">
        <ele>2058</ele>
        <time>2015-06-20T06:54:36Z</time>
      </trkpt>
      <trkpt lat="45.11981" lon="5.90779">
        <ele>2058</ele>
        <time>2015-06-20T06:54:38Z</time>
      </trkpt>
      <trkpt lat="45.11981" lon="5.90783">
        <ele>2058</ele>
        <time>2015-06-20T06:54:40Z</time>
      </trkpt>
      <trkpt lat="45.1198" lon="5.90786">
        <ele>2058</ele>
        <time>2015-06-20T06:54:41Z</time>
      </trkpt>
      <trkpt lat="45.1198" lon="5.90788">
        <ele>2058</ele>
        <time>2015-06-20T06:54:42Z</time>
      </trkpt>
      <trkpt lat="45.1198" lon="5.90791">
        <ele>2058</ele>
        <time>2015-06-20T06:54:43Z</time>
      </trkpt>
      <trkpt lat="45.11979" lon="5.90796">
        <ele>2058</ele>
        <time>2015-06-20T06:54:45Z</time>
      </trkpt>
      <trkpt lat="45.11978" lon="5.908">
        <ele>2058</ele>
        <time>2015-06-20T06:54:47Z</time>
      </trkpt>
      <trkpt lat="45.11977" lon="5.90802">
        <ele>2058</ele>
        <time>2015-06-20T06:54:49Z</time>
      </trkpt>
      <trkpt lat="45.11975" lon="5.90802">
        <ele>2058</ele>
        <time>2015-06-20T06:54:51Z</time>
      </trkpt>
      <trkpt lat="45.11968" lon="5.90813">
        <ele>2049</ele>
        <time>2015-06-20T06:55:17Z</time>
      </trkpt>
      <trkpt lat="45.11966" lon="5.90811">
        <ele>2049</ele>
        <time>2015-06-20T06:55:23Z</time>
      </trkpt>
      <trkpt lat="45.11964" lon="5.90808">
        <ele>2046</ele>
        <time>2015-06-20T06:55:26Z</time>
      </trkpt>
      <trkpt lat="45.11962" lon="5.90806">
        <ele>2046</ele>
        <time>2015-06-20T06:55:28Z</time>
      </trkpt>
      <trkpt lat="45.11962" lon="5.90802">
        <ele>2044</ele>
        <time>2015-06-20T06:55:30Z</time>
      </trkpt>
      <trkpt lat="45.11962" lon="5.908">
        <ele>2044</ele>
        <time>2015-06-20T06:55:31Z</time>
      </trkpt>
      <trkpt lat="45.11961" lon="5.90796">
        <ele>2043</ele>
        <time>2015-06-20T06:55:33Z</time>
      </trkpt>
      <trkpt lat="45.11961" lon="5.90791">
        <ele>2043</ele>
        <time>2015-06-20T06:55:35Z</time>
      </trkpt>
      <trkpt lat="45.1196" lon="5.90788">
        <ele>2041</ele>
        <time>2015-06-20T06:55:37Z</time>
      </trkpt>
      <trkpt lat="45.11957" lon="5.90786">
        <ele>2040</ele>
        <time>2015-06-20T06:55:39Z</time>
      </trkpt>
      <trkpt lat="45.11955" lon="5.90783">
        <ele>2040</ele>
        <time>2015-06-20T06:55:41Z</time>
      </trkpt>
      <trkpt lat="45.11953" lon="5.9078">
        <ele>2039</ele>
        <time>2015-06-20T06:55:43Z</time>
      </trkpt>
      <trkpt lat="45.11951" lon="5.90778">
        <ele>2039</ele>
        <time>2015-06-20T06:55:45Z</time>
      </trkpt>
      <trkpt lat="45.11949" lon="5.90776">
        <ele>2039</ele>
        <time>2015-06-20T06:55:47Z</time>
      </trkpt>
      <trkpt lat="45.11947" lon="5.90771">
        <ele>2038</ele>
        <time>2015-06-20T06:55:49Z</time>
      </trkpt>
      <trkpt lat="45.11947" lon="5.90769">
        <ele>2038</ele>
        <time>2015-06-20T06:55:50Z</time>
      </trkpt>
      <trkpt lat="45.11943" lon="5.90767">
        <ele>2038</ele>
        <time>2015-06-20T06:55:52Z</time>
      </trkpt>
      <trkpt lat="45.11941" lon="5.90766">
        <ele>2038</ele>
        <time>2015-06-20T06:55:53Z</time>
      </trkpt>
      <trkpt lat="45.11938" lon="5.90764">
        <ele>2038</ele>
        <time>2015-06-20T06:55:54Z</time>
      </trkpt>
      <trkpt lat="45.11935" lon="5.90763">
        <ele>2038</ele>
        <time>2015-06-20T06:55:55Z</time>
      </trkpt>
      <trkpt lat="45.11933" lon="5.90761">
        <ele>2038</ele>
        <time>2015-06-20T06:55:56Z</time>
      </trkpt>
      <trkpt lat="45.11932" lon="5.90759">
        <ele>2038</ele>
        <time>2015-06-20T06:55:57Z</time>
      </trkpt>
      <trkpt lat="45.11929" lon="5.90758">
        <ele>2038</ele>
        <time>2015-06-20T06:55:58Z</time>
      </trkpt>
      <trkpt lat="45.11927" lon="5.90756">
        <ele>2038</ele>
        <time>2015-06-20T06:55:59Z</time>
      </trkpt>
      <trkpt lat="45.11926" lon="5.90754">
        <ele>2038</ele>
        <time>2015-06-20T06:56:00Z</time>
      </trkpt>
      <trkpt lat="45.11924" lon="5.9075">
        <ele>2036</ele>
        <time>2015-06-20T06:56:02Z</time>
      </trkpt>
      <trkpt lat="45.11921" lon="5.9075">
        <ele>2036</ele>
        <time>2015-06-20T06:56:04Z</time>
      </trkpt>
      <trkpt lat="45.1192" lon="5.90748">
        <ele>2036</ele>
        <time>2015-06-20T06:56:05Z</time>
      </trkpt>
      <trkpt lat="45.11919" lon="5.90744">
        <ele>2036</ele>
        <time>2015-06-20T06:56:07Z</time>
      </trkpt>
      <trkpt lat="45.11917" lon="5.90741">
        <ele>2036</ele>
        <time>2015-06-20T06:56:09Z</time>
      </trkpt>
      <trkpt lat="45.11915" lon="5.90739">
        <ele>2036</ele>
        <time>2015-06-20T06:56:10Z</time>
      </trkpt>
      <trkpt lat="45.11914" lon="5.90737">
        <ele>2036</ele>
        <time>2015-06-20T06:56:11Z</time>
      </trkpt>
      <trkpt lat="45.11911" lon="5.90735">
        <ele>2032</ele>
        <time>2015-06-20T06:56:13Z</time>
      </trkpt>
      <trkpt lat="45.11909" lon="5.90734">
        <ele>2032</ele>
        <time>2015-06-20T06:56:14Z</time>
      </trkpt>
      <trkpt lat="45.11907" lon="5.90733">
        <ele>2030</ele>
        <time>2015-06-20T06:56:15Z</time>
      </trkpt>
      <trkpt lat="45.11905" lon="5.90731">
        <ele>2030</ele>
        <time>2015-06-20T06:56:16Z</time>
      </trkpt>
      <trkpt lat="45.11903" lon="5.90728">
        <ele>2030</ele>
        <time>2015-06-20T06:56:17Z</time>
      </trkpt>
      <trkpt lat="45.11901" lon="5.90726">
        <ele>2029</ele>
        <time>2015-06-20T06:56:18Z</time>
      </trkpt>
      <trkpt lat="45.11898" lon="5.90725">
        <ele>2029</ele>
        <time>2015-06-20T06:56:19Z</time>
      </trkpt>
      <trkpt lat="45.11896" lon="5.90724">
        <ele>2029</ele>
        <time>2015-06-20T06:56:20Z</time>
      </trkpt>
      <trkpt lat="45.11893" lon="5.90724">
        <ele>2028</ele>
        <time>2015-06-20T06:56:21Z</time>
      </trkpt>
      <trkpt lat="45.11891" lon="5.90722">
        <ele>2028</ele>
        <time>2015-06-20T06:56:22Z</time>
      </trkpt>
      <trkpt lat="45.11888" lon="5.9072">
        <ele>2026</ele>
        <time>2015-06-20T06:56:23Z</time>
      </trkpt>
      <trkpt lat="45.11886" lon="5.90717">
        <ele>2026</ele>
        <time>2015-06-20T06:56:24Z</time>
      </trkpt>
      <trkpt lat="45.11884" lon="5.90714">
        <ele>2026</ele>
        <time>2015-06-20T06:56:25Z</time>
      </trkpt>
      <trkpt lat="45.11882" lon="5.90713">
        <ele>2025</ele>
        <time>2015-06-20T06:56:26Z</time>
      </trkpt>
      <trkpt lat="45.11881" lon="5.90711">
        <ele>2025</ele>
        <time>2015-06-20T06:56:28Z</time>
      </trkpt>
      <trkpt lat="45.11878" lon="5.90709">
        <ele>2026</ele>
        <time>2015-06-20T06:56:30Z</time>
      </trkpt>
      <trkpt lat="45.11877" lon="5.90708">
        <ele>2026</ele>
        <time>2015-06-20T06:56:31Z</time>
      </trkpt>
      <trkpt lat="45.11875" lon="5.90706">
        <ele>2025</ele>
        <time>2015-06-20T06:56:32Z</time>
      </trkpt>
      <trkpt lat="45.11873" lon="5.90703">
        <ele>2025</ele>
        <time>2015-06-20T06:56:33Z</time>
      </trkpt>
      <trkpt lat="45.11871" lon="5.90701">
        <ele>2024</ele>
        <time>2015-06-20T06:56:34Z</time>
      </trkpt>
      <trkpt lat="45.11869" lon="5.90699">
        <ele>2024</ele>
        <time>2015-06-20T06:56:35Z</time>
      </trkpt>
      <trkpt lat="45.11866" lon="5.90697">
        <ele>2024</ele>
        <time>2015-06-20T06:56:36Z</time>
      </trkpt>
      <trkpt lat="45.11864" lon="5.90694">
        <ele>2024</ele>
        <time>2015-06-20T06:56:37Z</time>
      </trkpt>
      <trkpt lat="45.11864" lon="5.9069">
        <ele>2024</ele>
        <time>2015-06-20T06:56:38Z</time>
      </trkpt>
      <trkpt lat="45.11863" lon="5.90687">
        <ele>2024</ele>
        <time>2015-06-20T06:56:39Z</time>
      </trkpt>
      <trkpt lat="45.11863" lon="5.90684">
        <ele>2024</ele>
        <time>2015-06-20T06:56:40Z</time>
      </trkpt>
      <trkpt lat="45.11863" lon="5.90681">
        <ele>2024</ele>
        <time>2015-06-20T06:56:41Z</time>
      </trkpt>
      <trkpt lat="45.11864" lon="5.90678">
        <ele>2024</ele>
        <time>2015-06-20T06:56:42Z</time>
      </trkpt>
      <trkpt lat="45.11864" lon="5.90675">
        <ele>2024</ele>
        <time>2015-06-20T06:56:43Z</time>
      </trkpt>
      <trkpt lat="45.11863" lon="5.90672">
        <ele>2024</ele>
        <time>2015-06-20T06:56:44Z</time>
      </trkpt>
      <trkpt lat="45.11861" lon="5.90669">
        <ele>2024</ele>
        <time>2015-06-20T06:56:45Z</time>
      </trkpt>
      <trkpt lat="45.11859" lon="5.90667">
        <ele>2024</ele>
        <time>2015-06-20T06:56:46Z</time>
      </trkpt>
      <trkpt lat="45.11856" lon="5.90666">
        <ele>2024</ele>
        <time>2015-06-20T06:56:47Z</time>
      </trkpt>
      <trkpt lat="45.11853" lon="5.90664">
        <ele>2024</ele>
        <time>2015-06-20T06:56:48Z</time>
      </trkpt>
      <trkpt lat="45.11852" lon="5.90662">
        <ele>2024</ele>
        <time>2015-06-20T06:56:49Z</time>
      </trkpt>
      <trkpt lat="45.11848" lon="5.9066">
        <ele>2024</ele>
        <time>2015-06-20T06:56:51Z</time>
      </trkpt>
      <trkpt lat="45.11846" lon="5.90658">
        <ele>2024</ele>
        <time>2015-06-20T06:56:52Z</time>
      </trkpt>
      <trkpt lat="45.11844" lon="5.90657">
        <ele>2024</ele>
        <time>2015-06-20T06:56:53Z</time>
      </trkpt>
      <trkpt lat="45.11842" lon="5.90655">
        <ele>2024</ele>
        <time>2015-06-20T06:56:54Z</time>
      </trkpt>
      <trkpt lat="45.1184" lon="5.90654">
        <ele>2023</ele>
        <time>2015-06-20T06:56:55Z</time>
      </trkpt>
      <trkpt lat="45.11837" lon="5.90653">
        <ele>2023</ele>
        <time>2015-06-20T06:56:56Z</time>
      </trkpt>
      <trkpt lat="45.11835" lon="5.90653">
        <ele>2023</ele>
        <time>2015-06-20T06:56:57Z</time>
      </trkpt>
      <trkpt lat="45.11833" lon="5.90652">
        <ele>2023</ele>
        <time>2015-06-20T06:56:58Z</time>
      </trkpt>
      <trkpt lat="45.11831" lon="5.90651">
        <ele>2023</ele>
        <time>2015-06-20T06:56:59Z</time>
      </trkpt>
      <trkpt lat="45.11828" lon="5.9065">
        <ele>2023</ele>
        <time>2015-06-20T06:57:00Z</time>
      </trkpt>
      <trkpt lat="45.11826" lon="5.90648">
        <ele>2023</ele>
        <time>2015-06-20T06:57:01Z</time>
      </trkpt>
      <trkpt lat="45.11825" lon="5.90646">
        <ele>2023</ele>
        <time>2015-06-20T06:57:02Z</time>
      </trkpt>
      <trkpt lat="45.11823" lon="5.90643">
        <ele>2023</ele>
        <time>2015-06-20T06:57:03Z</time>
      </trkpt>
      <trkpt lat="45.11821" lon="5.90641">
        <ele>2023</ele>
        <time>2015-06-20T06:57:04Z</time>
      </trkpt>
      <trkpt lat="45.11819" lon="5.90639">
        <ele>2023</ele>
        <time>2015-06-20T06:57:05Z</time>
      </trkpt>
      <trkpt lat="45.11816" lon="5.90638">
        <ele>2023</ele>
        <time>2015-06-20T06:57:06Z</time>
      </trkpt>
      <trkpt lat="45.11814" lon="5.90636">
        <ele>2023</ele>
        <time>2015-06-20T06:57:07Z</time>
      </trkpt>
      <trkpt lat="45.11812" lon="5.90633">
        <ele>2024</ele>
        <time>2015-06-20T06:57:08Z</time>
      </trkpt>
      <trkpt lat="45.11811" lon="5.90632">
        <ele>2024</ele>
        <time>2015-06-20T06:57:09Z</time>
      </trkpt>
      <trkpt lat="45.11809" lon="5.90629">
        <ele>2024</ele>
        <time>2015-06-20T06:57:10Z</time>
      </trkpt>
      <trkpt lat="45.11807" lon="5.90627">
        <ele>2024</ele>
        <time>2015-06-20T06:57:11Z</time>
      </trkpt>
      <trkpt lat="45.11806" lon="5.90625">
        <ele>2024</ele>
        <time>2015-06-20T06:57:12Z</time>
      </trkpt>
      <trkpt lat="45.11804" lon="5.90624">
        <ele>2025</ele>
        <time>2015-06-20T06:57:13Z</time>
      </trkpt>
      <trkpt lat="45.11802" lon="5.90622">
        <ele>2025</ele>
        <time>2015-06-20T06:57:14Z</time>
      </trkpt>
      <trkpt lat="45.11801" lon="5.9062">
        <ele>2025</ele>
        <time>2015-06-20T06:57:15Z</time>
      </trkpt>
      <trkpt lat="45.11799" lon="5.90617">
        <ele>2025</ele>
        <time>2015-06-20T06:57:16Z</time>
      </trkpt>
      <trkpt lat="45.11798" lon="5.90615">
        <ele>2025</ele>
        <time>2015-06-20T06:57:17Z</time>
      </trkpt>
      <trkpt lat="45.11796" lon="5.90612">
        <ele>2025</ele>
        <time>2015-06-20T06:57:18Z</time>
      </trkpt>
      <trkpt lat="45.11795" lon="5.90609">
        <ele>2025</ele>
        <time>2015-06-20T06:57:19Z</time>
      </trkpt>
      <trkpt lat="45.11794" lon="5.90606">
        <ele>2025</ele>
        <time>2015-06-20T06:57:20Z</time>
      </trkpt>
      <trkpt lat="45.11792" lon="5.90603">
        <ele>2025</ele>
        <time>2015-06-20T06:57:21Z</time>
      </trkpt>
      <trkpt lat="45.1179" lon="5.90601">
        <ele>2025</ele>
        <time>2015-06-20T06:57:22Z</time>
      </trkpt>
      <trkpt lat="45.11789" lon="5.90598">
        <ele>2026</ele>
        <time>2015-06-20T06:57:23Z</time>
      </trkpt>
      <trkpt lat="45.11789" lon="5.90595">
        <ele>2026</ele>
        <time>2015-06-20T06:57:24Z</time>
      </trkpt>
      <trkpt lat="45.11787" lon="5.90591">
        <ele>2026</ele>
        <time>2015-06-20T06:57:26Z</time>
      </trkpt>
      <trkpt lat="45.11785" lon="5.9059">
        <ele>2026</ele>
        <time>2015-06-20T06:57:27Z</time>
      </trkpt>
      <trkpt lat="45.11783" lon="5.90586">
        <ele>2026</ele>
        <time>2015-06-20T06:57:29Z</time>
      </trkpt>
      <trkpt lat="45.11782" lon="5.90584">
        <ele>2026</ele>
        <time>2015-06-20T06:57:30Z</time>
      </trkpt>
      <trkpt lat="45.1178" lon="5.90582">
        <ele>2026</ele>
        <time>2015-06-20T06:57:31Z</time>
      </trkpt>
      <trkpt lat="45.11778" lon="5.90579">
        <ele>2029</ele>
        <time>2015-06-20T06:57:33Z</time>
      </trkpt>
      <trkpt lat="45.11776" lon="5.90575">
        <ele>2029</ele>
        <time>2015-06-20T06:57:35Z</time>
      </trkpt>
      <trkpt lat="45.11774" lon="5.90574">
        <ele>2029</ele>
        <time>2015-06-20T06:57:37Z</time>
      </trkpt>
      <trkpt lat="45.11771" lon="5.90573">
        <ele>2028</ele>
        <time>2015-06-20T06:57:39Z</time>
      </trkpt>
      <trkpt lat="45.11768" lon="5.90572">
        <ele>2026</ele>
        <time>2015-06-20T06:57:42Z</time>
      </trkpt>
      <trkpt lat="45.11765" lon="5.90571">
        <ele>2026</ele>
        <time>2015-06-20T06:57:44Z</time>
      </trkpt>
      <trkpt lat="45.11763" lon="5.90568">
        <ele>2026</ele>
        <time>2015-06-20T06:57:46Z</time>
      </trkpt>
      <trkpt lat="45.11761" lon="5.90566">
        <ele>2026</ele>
        <time>2015-06-20T06:57:48Z</time>
      </trkpt>
      <trkpt lat="45.11758" lon="5.90564">
        <ele>2026</ele>
        <time>2015-06-20T06:57:50Z</time>
      </trkpt>
      <trkpt lat="45.11757" lon="5.90559">
        <ele>2020</ele>
        <time>2015-06-20T06:57:52Z</time>
      </trkpt>
      <trkpt lat="45.11756" lon="5.90557">
        <ele>2020</ele>
        <time>2015-06-20T06:57:53Z</time>
      </trkpt>
      <trkpt lat="45.11754" lon="5.90555">
        <ele>2019</ele>
        <time>2015-06-20T06:57:54Z</time>
      </trkpt>
      <trkpt lat="45.11751" lon="5.90554">
        <ele>2018</ele>
        <time>2015-06-20T06:57:55Z</time>
      </trkpt>
      <trkpt lat="45.11749" lon="5.90553">
        <ele>2018</ele>
        <time>2015-06-20T06:57:56Z</time>
      </trkpt>
      <trkpt lat="45.11746" lon="5.90552">
        <ele>2015</ele>
        <time>2015-06-20T06:57:57Z</time>
      </trkpt>
      <trkpt lat="45.11744" lon="5.9055">
        <ele>2015</ele>
        <time>2015-06-20T06:57:58Z</time>
      </trkpt>
      <trkpt lat="45.11742" lon="5.90548">
        <ele>2015</ele>
        <time>2015-06-20T06:57:59Z</time>
      </trkpt>
      <trkpt lat="45.1174" lon="5.90546">
        <ele>2014</ele>
        <time>2015-06-20T06:58:00Z</time>
      </trkpt>
      <trkpt lat="45.11738" lon="5.90543">
        <ele>2014</ele>
        <time>2015-06-20T06:58:01Z</time>
      </trkpt>
      <trkpt lat="45.11736" lon="5.90541">
        <ele>2012</ele>
        <time>2015-06-20T06:58:02Z</time>
      </trkpt>
      <trkpt lat="45.11734" lon="5.90538">
        <ele>2011</ele>
        <time>2015-06-20T06:58:03Z</time>
      </trkpt>
      <trkpt lat="45.11733" lon="5.90535">
        <ele>2011</ele>
        <time>2015-06-20T06:58:04Z</time>
      </trkpt>
      <trkpt lat="45.1173" lon="5.90533">
        <ele>2011</ele>
        <time>2015-06-20T06:58:05Z</time>
      </trkpt>
      <trkpt lat="45.11728" lon="5.90531">
        <ele>2009</ele>
        <time>2015-06-20T06:58:06Z</time>
      </trkpt>
      <trkpt lat="45.11726" lon="5.90529">
        <ele>2009</ele>
        <time>2015-06-20T06:58:07Z</time>
      </trkpt>
      <trkpt lat="45.11723" lon="5.90527">
        <ele>2006</ele>
        <time>2015-06-20T06:58:08Z</time>
      </trkpt>
      <trkpt lat="45.1172" lon="5.90524">
        <ele>2005</ele>
        <time>2015-06-20T06:58:09Z</time>
      </trkpt>
      <trkpt lat="45.11718" lon="5.90522">
        <ele>2005</ele>
        <time>2015-06-20T06:58:10Z</time>
      </trkpt>
      <trkpt lat="45.11715" lon="5.90519">
        <ele>2004</ele>
        <time>2015-06-20T06:58:11Z</time>
      </trkpt>
      <trkpt lat="45.11713" lon="5.90516">
        <ele>2004</ele>
        <time>2015-06-20T06:58:12Z</time>
      </trkpt>
      <trkpt lat="45.1171" lon="5.90514">
        <ele>2004</ele>
        <time>2015-06-20T06:58:13Z</time>
      </trkpt>
      <trkpt lat="45.11707" lon="5.90512">
        <ele>2004</ele>
        <time>2015-06-20T06:58:14Z</time>
      </trkpt>
      <trkpt lat="45.11705" lon="5.90509">
        <ele>2001</ele>
        <time>2015-06-20T06:58:15Z</time>
      </trkpt>
      <trkpt lat="45.11702" lon="5.90506">
        <ele>2001</ele>
        <time>2015-06-20T06:58:16Z</time>
      </trkpt>
      <trkpt lat="45.117" lon="5.90503">
        <ele>2000</ele>
        <time>2015-06-20T06:58:17Z</time>
      </trkpt>
      <trkpt lat="45.11697" lon="5.90501">
        <ele>2000</ele>
        <time>2015-06-20T06:58:18Z</time>
      </trkpt>
      <trkpt lat="45.11695" lon="5.90499">
        <ele>1999</ele>
        <time>2015-06-20T06:58:19Z</time>
      </trkpt>
      <trkpt lat="45.11692" lon="5.90497">
        <ele>1999</ele>
        <time>2015-06-20T06:58:20Z</time>
      </trkpt>
      <trkpt lat="45.1169" lon="5.90494">
        <ele>1998</ele>
        <time>2015-06-20T06:58:21Z</time>
      </trkpt>
      <trkpt lat="45.11687" lon="5.90492">
        <ele>1998</ele>
        <time>2015-06-20T06:58:22Z</time>
      </trkpt>
      <trkpt lat="45.11684" lon="5.90491">
        <ele>1997</ele>
        <time>2015-06-20T06:58:23Z</time>
      </trkpt>
      <trkpt lat="45.11681" lon="5.90489">
        <ele>1997</ele>
        <time>2015-06-20T06:58:24Z</time>
      </trkpt>
      <trkpt lat="45.11679" lon="5.90487">
        <ele>1997</ele>
        <time>2015-06-20T06:58:25Z</time>
      </trkpt>
      <trkpt lat="45.11677" lon="5.90487">
        <ele>1996</ele>
        <time>2015-06-20T06:58:26Z</time>
      </trkpt>
      <trkpt lat="45.11675" lon="5.90484">
        <ele>1995</ele>
        <time>2015-06-20T06:58:27Z</time>
      </trkpt>
      <trkpt lat="45.11675" lon="5.90482">
        <ele>1995</ele>
        <time>2015-06-20T06:58:28Z</time>
      </trkpt>
      <trkpt lat="45.11671" lon="5.90481">
        <ele>1993</ele>
        <time>2015-06-20T06:58:30Z</time>
      </trkpt>
      <trkpt lat="45.11669" lon="5.90481">
        <ele>1993</ele>
        <time>2015-06-20T06:58:31Z</time>
      </trkpt>
      <trkpt lat="45.11667" lon="5.90482">
        <ele>1991</ele>
        <time>2015-06-20T06:58:32Z</time>
      </trkpt>
      <trkpt lat="45.11664" lon="5.90482">
        <ele>1991</ele>
        <time>2015-06-20T06:58:33Z</time>
      </trkpt>
      <trkpt lat="45.11662" lon="5.90481">
        <ele>1991</ele>
        <time>2015-06-20T06:58:34Z</time>
      </trkpt>
      <trkpt lat="45.11659" lon="5.90481">
        <ele>1991</ele>
        <time>2015-06-20T06:58:35Z</time>
      </trkpt>
      <trkpt lat="45.11657" lon="5.90481">
        <ele>1991</ele>
        <time>2015-06-20T06:58:36Z</time>
      </trkpt>
      <trkpt lat="45.11654" lon="5.90481">
        <ele>1988</ele>
        <time>2015-06-20T06:58:37Z</time>
      </trkpt>
      <trkpt lat="45.11652" lon="5.9048">
        <ele>1988</ele>
        <time>2015-06-20T06:58:38Z</time>
      </trkpt>
      <trkpt lat="45.1165" lon="5.90479">
        <ele>1987</ele>
        <time>2015-06-20T06:58:39Z</time>
      </trkpt>
      <trkpt lat="45.11648" lon="5.90477">
        <ele>1987</ele>
        <time>2015-06-20T06:58:40Z</time>
      </trkpt>
      <trkpt lat="45.11646" lon="5.90475">
        <ele>1986</ele>
        <time>2015-06-20T06:58:41Z</time>
      </trkpt>
      <trkpt lat="45.11643" lon="5.90473">
        <ele>1986</ele>
        <time>2015-06-20T06:58:42Z</time>
      </trkpt>
      <trkpt lat="45.1164" lon="5.90472">
        <ele>1986</ele>
        <time>2015-06-20T06:58:43Z</time>
      </trkpt>
      <trkpt lat="45.11637" lon="5.90471">
        <ele>1985</ele>
        <time>2015-06-20T06:58:44Z</time>
      </trkpt>
      <trkpt lat="45.11634" lon="5.9047">
        <ele>1984</ele>
        <time>2015-06-20T06:58:45Z</time>
      </trkpt>
      <trkpt lat="45.11631" lon="5.90468">
        <ele>1983</ele>
        <time>2015-06-20T06:58:46Z</time>
      </trkpt>
      <trkpt lat="45.11629" lon="5.90468">
        <ele>1983</ele>
        <time>2015-06-20T06:58:47Z</time>
      </trkpt>
      <trkpt lat="45.11626" lon="5.90467">
        <ele>1983</ele>
        <time>2015-06-20T06:58:48Z</time>
      </trkpt>
      <trkpt lat="45.11624" lon="5.90465">
        <ele>1981</ele>
        <time>2015-06-20T06:58:49Z</time>
      </trkpt>
      <trkpt lat="45.11623" lon="5.90462">
        <ele>1981</ele>
        <time>2015-06-20T06:58:50Z</time>
      </trkpt>
      <trkpt lat="45.11621" lon="5.9046">
        <ele>1981</ele>
        <time>2015-06-20T06:58:51Z</time>
      </trkpt>
      <trkpt lat="45.11618" lon="5.90458">
        <ele>1979</ele>
        <time>2015-06-20T06:58:52Z</time>
      </trkpt>
      <trkpt lat="45.11616" lon="5.90458">
        <ele>1979</ele>
        <time>2015-06-20T06:58:53Z</time>
      </trkpt>
      <trkpt lat="45.11613" lon="5.90457">
        <ele>1979</ele>
        <time>2015-06-20T06:58:54Z</time>
      </trkpt>
      <trkpt lat="45.1161" lon="5.90457">
        <ele>1978</ele>
        <time>2015-06-20T06:58:55Z</time>
      </trkpt>
      <trkpt lat="45.11607" lon="5.90456">
        <ele>1978</ele>
        <time>2015-06-20T06:58:56Z</time>
      </trkpt>
      <trkpt lat="45.11604" lon="5.90456">
        <ele>1978</ele>
        <time>2015-06-20T06:58:57Z</time>
      </trkpt>
      <trkpt lat="45.11602" lon="5.90456">
        <ele>1977</ele>
        <time>2015-06-20T06:58:58Z</time>
      </trkpt>
      <trkpt lat="45.11599" lon="5.90456">
        <ele>1977</ele>
        <time>2015-06-20T06:58:59Z</time>
      </trkpt>
      <trkpt lat="45.11596" lon="5.90455">
        <ele>1976</ele>
        <time>2015-06-20T06:59:00Z</time>
      </trkpt>
      <trkpt lat="45.11594" lon="5.90453">
        <ele>1976</ele>
        <time>2015-06-20T06:59:01Z</time>
      </trkpt>
      <trkpt lat="45.11591" lon="5.90452">
        <ele>1976</ele>
        <time>2015-06-20T06:59:02Z</time>
      </trkpt>
      <trkpt lat="45.11588" lon="5.9045">
        <ele>1974</ele>
        <time>2015-06-20T06:59:03Z</time>
      </trkpt>
      <trkpt lat="45.11585" lon="5.90449">
        <ele>1974</ele>
        <time>2015-06-20T06:59:04Z</time>
      </trkpt>
      <trkpt lat="45.11582" lon="5.9045">
        <ele>1972</ele>
        <time>2015-06-20T06:59:05Z</time>
      </trkpt>
      <trkpt lat="45.11579" lon="5.90451">
        <ele>1972</ele>
        <time>2015-06-20T06:59:06Z</time>
      </trkpt>
      <trkpt lat="45.11577" lon="5.90451">
        <ele>1972</ele>
        <time>2015-06-20T06:59:07Z</time>
      </trkpt>
      <trkpt lat="45.11574" lon="5.9045">
        <ele>1971</ele>
        <time>2015-06-20T06:59:08Z</time>
      </trkpt>
      <trkpt lat="45.11571" lon="5.9045">
        <ele>1970</ele>
        <time>2015-06-20T06:59:09Z</time>
      </trkpt>
      <trkpt lat="45.11568" lon="5.9045">
        <ele>1970</ele>
        <time>2015-06-20T06:59:10Z</time>
      </trkpt>
      <trkpt lat="45.11564" lon="5.9045">
        <ele>1969</ele>
        <time>2015-06-20T06:59:11Z</time>
      </trkpt>
      <trkpt lat="45.11561" lon="5.90449">
        <ele>1969</ele>
        <time>2015-06-20T06:59:12Z</time>
      </trkpt>
      <trkpt lat="45.11558" lon="5.90449">
        <ele>1969</ele>
        <time>2015-06-20T06:59:13Z</time>
      </trkpt>
      <trkpt lat="45.11554" lon="5.90449">
        <ele>1967</ele>
        <time>2015-06-20T06:59:14Z</time>
      </trkpt>
      <trkpt lat="45.11551" lon="5.90449">
        <ele>1966</ele>
        <time>2015-06-20T06:59:15Z</time>
      </trkpt>
      <trkpt lat="45.11547" lon="5.90449">
        <ele>1965</ele>
        <time>2015-06-20T06:59:16Z</time>
      </trkpt>
      <trkpt lat="45.11544" lon="5.90449">
        <ele>1965</ele>
        <time>2015-06-20T06:59:17Z</time>
      </trkpt>
      <trkpt lat="45.1154" lon="5.9045">
        <ele>1965</ele>
        <time>2015-06-20T06:59:18Z</time>
      </trkpt>
      <trkpt lat="45.11536" lon="5.9045">
        <ele>1965</ele>
        <time>2015-06-20T06:59:19Z</time>
      </trkpt>
      <trkpt lat="45.11532" lon="5.90449">
        <ele>1965</ele>
        <time>2015-06-20T06:59:20Z</time>
      </trkpt>
      <trkpt lat="45.11529" lon="5.90448">
        <ele>1963</ele>
        <time>2015-06-20T06:59:21Z</time>
      </trkpt>
      <trkpt lat="45.11526" lon="5.90448">
        <ele>1963</ele>
        <time>2015-06-20T06:59:22Z</time>
      </trkpt>
      <trkpt lat="45.11524" lon="5.90447">
        <ele>1962</ele>
        <time>2015-06-20T06:59:23Z</time>
      </trkpt>
      <trkpt lat="45.11522" lon="5.90446">
        <ele>1962</ele>
        <time>2015-06-20T06:59:24Z</time>
      </trkpt>
      <trkpt lat="45.1152" lon="5.90444">
        <ele>1962</ele>
        <time>2015-06-20T06:59:25Z</time>
      </trkpt>
      <trkpt lat="45.11517" lon="5.90442">
        <ele>1961</ele>
        <time>2015-06-20T06:59:26Z</time>
      </trkpt>
      <trkpt lat="45.11514" lon="5.90439">
        <ele>1960</ele>
        <time>2015-06-20T06:59:27Z</time>
      </trkpt>
      <trkpt lat="45.11511" lon="5.90435">
        <ele>1960</ele>
        <time>2015-06-20T06:59:28Z</time>
      </trkpt>
      <trkpt lat="45.11509" lon="5.90432">
        <ele>1960</ele>
        <time>2015-06-20T06:59:29Z</time>
      </trkpt>
      <trkpt lat="45.11506" lon="5.90428">
        <ele>1958</ele>
        <time>2015-06-20T06:59:30Z</time>
      </trkpt>
      <trkpt lat="45.11503" lon="5.90427">
        <ele>1957</ele>
        <time>2015-06-20T06:59:31Z</time>
      </trkpt>
      <trkpt lat="45.115" lon="5.90426">
        <ele>1955</ele>
        <time>2015-06-20T06:59:32Z</time>
      </trkpt>
      <trkpt lat="45.11498" lon="5.90425">
        <ele>1955</ele>
        <time>2015-06-20T06:59:33Z</time>
      </trkpt>
      <trkpt lat="45.11495" lon="5.90422">
        <ele>1954</ele>
        <time>2015-06-20T06:59:34Z</time>
      </trkpt>
      <trkpt lat="45.11493" lon="5.90419">
        <ele>1954</ele>
        <time>2015-06-20T06:59:35Z</time>
      </trkpt>
      <trkpt lat="45.11491" lon="5.90415">
        <ele>1954</ele>
        <time>2015-06-20T06:59:36Z</time>
      </trkpt>
      <trkpt lat="45.11489" lon="5.90412">
        <ele>1954</ele>
        <time>2015-06-20T06:59:37Z</time>
      </trkpt>
      <trkpt lat="45.11487" lon="5.90408">
        <ele>1954</ele>
        <time>2015-06-20T06:59:38Z</time>
      </trkpt>
      <trkpt lat="45.11485" lon="5.90404">
        <ele>1954</ele>
        <time>2015-06-20T06:59:39Z</time>
      </trkpt>
      <trkpt lat="45.11483" lon="5.90401">
        <ele>1954</ele>
        <time>2015-06-20T06:59:40Z</time>
      </trkpt>
      <trkpt lat="45.1148" lon="5.90398">
        <ele>1954</ele>
        <time>2015-06-20T06:59:42Z</time>
      </trkpt>
      <trkpt lat="45.11478" lon="5.90396">
        <ele>1954</ele>
        <time>2015-06-20T06:59:43Z</time>
      </trkpt>
      <trkpt lat="45.11477" lon="5.90395">
        <ele>1954</ele>
        <time>2015-06-20T06:59:44Z</time>
      </trkpt>
      <trkpt lat="45.11474" lon="5.90393">
        <ele>1954</ele>
        <time>2015-06-20T06:59:46Z</time>
      </trkpt>
      <trkpt lat="45.11472" lon="5.9039">
        <ele>1954</ele>
        <time>2015-06-20T06:59:48Z</time>
      </trkpt>
      <trkpt lat="45.1147" lon="5.90387">
        <ele>1954</ele>
        <time>2015-06-20T06:59:50Z</time>
      </trkpt>
      <trkpt lat="45.11468" lon="5.90385">
        <ele>1953</ele>
        <time>2015-06-20T06:59:52Z</time>
      </trkpt>
      <trkpt lat="45.11465" lon="5.90386">
        <ele>1953</ele>
        <time>2015-06-20T06:59:54Z</time>
      </trkpt>
      <trkpt lat="45.11463" lon="5.90385">
        <ele>1953</ele>
        <time>2015-06-20T06:59:55Z</time>
      </trkpt>
      <trkpt lat="45.1146" lon="5.90384">
        <ele>1953</ele>
        <time>2015-06-20T06:59:56Z</time>
      </trkpt>
      <trkpt lat="45.11458" lon="5.90382">
        <ele>1953</ele>
        <time>2015-06-20T06:59:57Z</time>
      </trkpt>
      <trkpt lat="45.11456" lon="5.9038">
        <ele>1953</ele>
        <time>2015-06-20T06:59:58Z</time>
      </trkpt>
      <trkpt lat="45.11454" lon="5.90379">
        <ele>1953</ele>
        <time>2015-06-20T06:59:59Z</time>
      </trkpt>
      <trkpt lat="45.11451" lon="5.90377">
        <ele>1953</ele>
        <time>2015-06-20T07:00:01Z</time>
      </trkpt>
      <trkpt lat="45.1145" lon="5.90373">
        <ele>1953</ele>
        <time>2015-06-20T07:00:03Z</time>
      </trkpt>
      <trkpt lat="45.11446" lon="5.90373">
        <ele>1953</ele>
        <time>2015-06-20T07:00:05Z</time>
      </trkpt>
      <trkpt lat="45.11444" lon="5.90373">
        <ele>1953</ele>
        <time>2015-06-20T07:00:06Z</time>
      </trkpt>
      <trkpt lat="45.11442" lon="5.90373">
        <ele>1953</ele>
        <time>2015-06-20T07:00:07Z</time>
      </trkpt>
      <trkpt lat="45.1144" lon="5.90373">
        <ele>1953</ele>
        <time>2015-06-20T07:00:08Z</time>
      </trkpt>
      <trkpt lat="45.11437" lon="5.90374">
        <ele>1953</ele>
        <time>2015-06-20T07:00:09Z</time>
      </trkpt>
      <trkpt lat="45.11435" lon="5.90373">
        <ele>1953</ele>
        <time>2015-06-20T07:00:10Z</time>
      </trkpt>
      <trkpt lat="45.11432" lon="5.9037">
        <ele>1953</ele>
        <time>2015-06-20T07:00:11Z</time>
      </trkpt>
      <trkpt lat="45.11431" lon="5.90366">
        <ele>1950</ele>
        <time>2015-06-20T07:00:12Z</time>
      </trkpt>
      <trkpt lat="45.11431" lon="5.90361">
        <ele>1950</ele>
        <time>2015-06-20T07:00:13Z</time>
      </trkpt>
      <trkpt lat="45.11431" lon="5.90356">
        <ele>1950</ele>
        <time>2015-06-20T07:00:14Z</time>
      </trkpt>
      <trkpt lat="45.1143" lon="5.90351">
        <ele>1950</ele>
        <time>2015-06-20T07:00:15Z</time>
      </trkpt>
      <trkpt lat="45.1143" lon="5.90348">
        <ele>1950</ele>
        <time>2015-06-20T07:00:16Z</time>
      </trkpt>
      <trkpt lat="45.11429" lon="5.90344">
        <ele>1950</ele>
        <time>2015-06-20T07:00:17Z</time>
      </trkpt>
      <trkpt lat="45.11428" lon="5.90341">
        <ele>1950</ele>
        <time>2015-06-20T07:00:18Z</time>
      </trkpt>
      <trkpt lat="45.11427" lon="5.90338">
        <ele>1950</ele>
        <time>2015-06-20T07:00:19Z</time>
      </trkpt>
      <trkpt lat="45.11424" lon="5.90335">
        <ele>1950</ele>
        <time>2015-06-20T07:00:20Z</time>
      </trkpt>
      <trkpt lat="45.11422" lon="5.90333">
        <ele>1950</ele>
        <time>2015-06-20T07:00:21Z</time>
      </trkpt>
      <trkpt lat="45.1142" lon="5.90331">
        <ele>1950</ele>
        <time>2015-06-20T07:00:22Z</time>
      </trkpt>
      <trkpt lat="45.11418" lon="5.90329">
        <ele>1948</ele>
        <time>2015-06-20T07:00:23Z</time>
      </trkpt>
      <trkpt lat="45.11416" lon="5.90328">
        <ele>1948</ele>
        <time>2015-06-20T07:00:24Z</time>
      </trkpt>
      <trkpt lat="45.11413" lon="5.90326">
        <ele>1948</ele>
        <time>2015-06-20T07:00:25Z</time>
      </trkpt>
      <trkpt lat="45.11411" lon="5.90325">
        <ele>1947</ele>
        <time>2015-06-20T07:00:26Z</time>
      </trkpt>
      <trkpt lat="45.11409" lon="5.90324">
        <ele>1946</ele>
        <time>2015-06-20T07:00:27Z</time>
      </trkpt>
      <trkpt lat="45.11407" lon="5.90321">
        <ele>1946</ele>
        <time>2015-06-20T07:00:28Z</time>
      </trkpt>
      <trkpt lat="45.11405" lon="5.90319">
        <ele>1946</ele>
        <time>2015-06-20T07:00:29Z</time>
      </trkpt>
      <trkpt lat="45.11404" lon="5.90316">
        <ele>1946</ele>
        <time>2015-06-20T07:00:30Z</time>
      </trkpt>
      <trkpt lat="45.11402" lon="5.90314">
        <ele>1945</ele>
        <time>2015-06-20T07:00:31Z</time>
      </trkpt>
      <trkpt lat="45.114" lon="5.90311">
        <ele>1945</ele>
        <time>2015-06-20T07:00:32Z</time>
      </trkpt>
      <trkpt lat="45.11398" lon="5.90308">
        <ele>1945</ele>
        <time>2015-06-20T07:00:33Z</time>
      </trkpt>
      <trkpt lat="45.11396" lon="5.90307">
        <ele>1944</ele>
        <time>2015-06-20T07:00:34Z</time>
      </trkpt>
      <trkpt lat="45.11394" lon="5.90306">
        <ele>1944</ele>
        <time>2015-06-20T07:00:35Z</time>
      </trkpt>
      <trkpt lat="45.11392" lon="5.90304">
        <ele>1944</ele>
        <time>2015-06-20T07:00:37Z</time>
      </trkpt>
      <trkpt lat="45.1139" lon="5.903">
        <ele>1941</ele>
        <time>2015-06-20T07:00:39Z</time>
      </trkpt>
      <trkpt lat="45.11388" lon="5.90297">
        <ele>1941</ele>
        <time>2015-06-20T07:00:41Z</time>
      </trkpt>
      <trkpt lat="45.11386" lon="5.90295">
        <ele>1941</ele>
        <time>2015-06-20T07:00:42Z</time>
      </trkpt>
      <trkpt lat="45.11385" lon="5.90294">
        <ele>1938</ele>
        <time>2015-06-20T07:00:43Z</time>
      </trkpt>
      <trkpt lat="45.11383" lon="5.90293">
        <ele>1938</ele>
        <time>2015-06-20T07:00:44Z</time>
      </trkpt>
      <trkpt lat="45.11381" lon="5.90293">
        <ele>1937</ele>
        <time>2015-06-20T07:00:45Z</time>
      </trkpt>
      <trkpt lat="45.11379" lon="5.90292">
        <ele>1937</ele>
        <time>2015-06-20T07:00:46Z</time>
      </trkpt>
      <trkpt lat="45.11376" lon="5.90291">
        <ele>1936</ele>
        <time>2015-06-20T07:00:48Z</time>
      </trkpt>
      <trkpt lat="45.11374" lon="5.90288">
        <ele>1935</ele>
        <time>2015-06-20T07:00:50Z</time>
      </trkpt>
      <trkpt lat="45.11372" lon="5.90286">
        <ele>1935</ele>
        <time>2015-06-20T07:00:51Z</time>
      </trkpt>
      <trkpt lat="45.1137" lon="5.90285">
        <ele>1934</ele>
        <time>2015-06-20T07:00:52Z</time>
      </trkpt>
      <trkpt lat="45.11368" lon="5.90284">
        <ele>1934</ele>
        <time>2015-06-20T07:00:53Z</time>
      </trkpt>
      <trkpt lat="45.11366" lon="5.90282">
        <ele>1933</ele>
        <time>2015-06-20T07:00:54Z</time>
      </trkpt>
      <trkpt lat="45.11364" lon="5.9028">
        <ele>1933</ele>
        <time>2015-06-20T07:00:55Z</time>
      </trkpt>
      <trkpt lat="45.11362" lon="5.90279">
        <ele>1933</ele>
        <time>2015-06-20T07:00:56Z</time>
      </trkpt>
      <trkpt lat="45.11359" lon="5.90278">
        <ele>1933</ele>
        <time>2015-06-20T07:00:57Z</time>
      </trkpt>
      <trkpt lat="45.11357" lon="5.90276">
        <ele>1933</ele>
        <time>2015-06-20T07:00:58Z</time>
      </trkpt>
      <trkpt lat="45.11355" lon="5.90274">
        <ele>1933</ele>
        <time>2015-06-20T07:00:59Z</time>
      </trkpt>
      <trkpt lat="45.11352" lon="5.90271">
        <ele>1930</ele>
        <time>2015-06-20T07:01:01Z</time>
      </trkpt>
      <trkpt lat="45.1135" lon="5.90269">
        <ele>1928</ele>
        <time>2015-06-20T07:01:02Z</time>
      </trkpt>
      <trkpt lat="45.11347" lon="5.90267">
        <ele>1928</ele>
        <time>2015-06-20T07:01:04Z</time>
      </trkpt>
      <trkpt lat="45.11343" lon="5.90265">
        <ele>1928</ele>
        <time>2015-06-20T07:01:06Z</time>
      </trkpt>
      <trkpt lat="45.11341" lon="5.90264">
        <ele>1928</ele>
        <time>2015-06-20T07:01:07Z</time>
      </trkpt>
      <trkpt lat="45.11339" lon="5.90263">
        <ele>1926</ele>
        <time>2015-06-20T07:01:08Z</time>
      </trkpt>
      <trkpt lat="45.11336" lon="5.90263">
        <ele>1924</ele>
        <time>2015-06-20T07:01:09Z</time>
      </trkpt>
      <trkpt lat="45.11332" lon="5.90263">
        <ele>1924</ele>
        <time>2015-06-20T07:01:10Z</time>
      </trkpt>
      <trkpt lat="45.11329" lon="5.90262">
        <ele>1924</ele>
        <time>2015-06-20T07:01:11Z</time>
      </trkpt>
      <trkpt lat="45.11326" lon="5.90261">
        <ele>1923</ele>
        <time>2015-06-20T07:01:12Z</time>
      </trkpt>
      <trkpt lat="45.11324" lon="5.9026">
        <ele>1923</ele>
        <time>2015-06-20T07:01:13Z</time>
      </trkpt>
      <trkpt lat="45.11321" lon="5.9026">
        <ele>1923</ele>
        <time>2015-06-20T07:01:14Z</time>
      </trkpt>
      <trkpt lat="45.11319" lon="5.90257">
        <ele>1923</ele>
        <time>2015-06-20T07:01:15Z</time>
      </trkpt>
      <trkpt lat="45.11317" lon="5.90254">
        <ele>1924</ele>
        <time>2015-06-20T07:01:16Z</time>
      </trkpt>
      <trkpt lat="45.11315" lon="5.90251">
        <ele>1923</ele>
        <time>2015-06-20T07:01:17Z</time>
      </trkpt>
      <trkpt lat="45.11313" lon="5.90247">
        <ele>1923</ele>
        <time>2015-06-20T07:01:18Z</time>
      </trkpt>
      <trkpt lat="45.11311" lon="5.90244">
        <ele>1923</ele>
        <time>2015-06-20T07:01:19Z</time>
      </trkpt>
      <trkpt lat="45.11309" lon="5.90241">
        <ele>1923</ele>
        <time>2015-06-20T07:01:20Z</time>
      </trkpt>
      <trkpt lat="45.11307" lon="5.9024">
        <ele>1923</ele>
        <time>2015-06-20T07:01:21Z</time>
      </trkpt>
      <trkpt lat="45.11304" lon="5.90238">
        <ele>1923</ele>
        <time>2015-06-20T07:01:22Z</time>
      </trkpt>
      <trkpt lat="45.11301" lon="5.90235">
        <ele>1922</ele>
        <time>2015-06-20T07:01:23Z</time>
      </trkpt>
      <trkpt lat="45.11299" lon="5.90232">
        <ele>1922</ele>
        <time>2015-06-20T07:01:24Z</time>
      </trkpt>
      <trkpt lat="45.11297" lon="5.90228">
        <ele>1922</ele>
        <time>2015-06-20T07:01:25Z</time>
      </trkpt>
      <trkpt lat="45.11295" lon="5.90225">
        <ele>1922</ele>
        <time>2015-06-20T07:01:26Z</time>
      </trkpt>
      <trkpt lat="45.11293" lon="5.90222">
        <ele>1922</ele>
        <time>2015-06-20T07:01:27Z</time>
      </trkpt>
      <trkpt lat="45.11291" lon="5.9022">
        <ele>1920</ele>
        <time>2015-06-20T07:01:28Z</time>
      </trkpt>
      <trkpt lat="45.11288" lon="5.90218">
        <ele>1920</ele>
        <time>2015-06-20T07:01:29Z</time>
      </trkpt>
      <trkpt lat="45.11286" lon="5.90216">
        <ele>1920</ele>
        <time>2015-06-20T07:01:30Z</time>
      </trkpt>
      <trkpt lat="45.11283" lon="5.90215">
        <ele>1920</ele>
        <time>2015-06-20T07:01:31Z</time>
      </trkpt>
      <trkpt lat="45.1128" lon="5.90214">
        <ele>1920</ele>
        <time>2015-06-20T07:01:32Z</time>
      </trkpt>
      <trkpt lat="45.11277" lon="5.90215">
        <ele>1920</ele>
        <time>2015-06-20T07:01:33Z</time>
      </trkpt>
      <trkpt lat="45.11275" lon="5.90216">
        <ele>1920</ele>
        <time>2015-06-20T07:01:34Z</time>
      </trkpt>
      <trkpt lat="45.11273" lon="5.90218">
        <ele>1920</ele>
        <time>2015-06-20T07:01:35Z</time>
      </trkpt>
      <trkpt lat="45.1127" lon="5.90219">
        <ele>1920</ele>
        <time>2015-06-20T07:01:36Z</time>
      </trkpt>
      <trkpt lat="45.11268" lon="5.90219">
        <ele>1920</ele>
        <time>2015-06-20T07:01:37Z</time>
      </trkpt>
      <trkpt lat="45.11266" lon="5.90218">
        <ele>1920</ele>
        <time>2015-06-20T07:01:38Z</time>
      </trkpt>
      <trkpt lat="45.11263" lon="5.90218">
        <ele>1920</ele>
        <time>2015-06-20T07:01:39Z</time>
      </trkpt>
      <trkpt lat="45.1126" lon="5.90216">
        <ele>1920</ele>
        <time>2015-06-20T07:01:40Z</time>
      </trkpt>
      <trkpt lat="45.11257" lon="5.90215">
        <ele>1920</ele>
        <time>2015-06-20T07:01:41Z</time>
      </trkpt>
      <trkpt lat="45.11254" lon="5.90215">
        <ele>1920</ele>
        <time>2015-06-20T07:01:42Z</time>
      </trkpt>
      <trkpt lat="45.11251" lon="5.90214">
        <ele>1920</ele>
        <time>2015-06-20T07:01:43Z</time>
      </trkpt>
      <trkpt lat="45.11248" lon="5.90213">
        <ele>1920</ele>
        <time>2015-06-20T07:01:44Z</time>
      </trkpt>
      <trkpt lat="45.11245" lon="5.90212">
        <ele>1920</ele>
        <time>2015-06-20T07:01:45Z</time>
      </trkpt>
      <trkpt lat="45.11242" lon="5.90211">
        <ele>1920</ele>
        <time>2015-06-20T07:01:46Z</time>
      </trkpt>
      <trkpt lat="45.11239" lon="5.9021">
        <ele>1920</ele>
        <time>2015-06-20T07:01:47Z</time>
      </trkpt>
      <trkpt lat="45.11236" lon="5.90208">
        <ele>1917</ele>
        <time>2015-06-20T07:01:48Z</time>
      </trkpt>
      <trkpt lat="45.11233" lon="5.90206">
        <ele>1917</ele>
        <time>2015-06-20T07:01:49Z</time>
      </trkpt>
      <trkpt lat="45.11231" lon="5.90203">
        <ele>1917</ele>
        <time>2015-06-20T07:01:50Z</time>
      </trkpt>
      <trkpt lat="45.11228" lon="5.90201">
        <ele>1917</ele>
        <time>2015-06-20T07:01:51Z</time>
      </trkpt>
      <trkpt lat="45.11226" lon="5.90199">
        <ele>1917</ele>
        <time>2015-06-20T07:01:52Z</time>
      </trkpt>
      <trkpt lat="45.11224" lon="5.90197">
        <ele>1917</ele>
        <time>2015-06-20T07:01:53Z</time>
      </trkpt>
      <trkpt lat="45.11221" lon="5.90196">
        <ele>1916</ele>
        <time>2015-06-20T07:01:54Z</time>
      </trkpt>
      <trkpt lat="45.1122" lon="5.90193">
        <ele>1916</ele>
        <time>2015-06-20T07:01:55Z</time>
      </trkpt>
      <trkpt lat="45.11218" lon="5.90192">
        <ele>1916</ele>
        <time>2015-06-20T07:01:56Z</time>
      </trkpt>
      <trkpt lat="45.11216" lon="5.90191">
        <ele>1916</ele>
        <time>2015-06-20T07:01:57Z</time>
      </trkpt>
      <trkpt lat="45.11212" lon="5.90191">
        <ele>1917</ele>
        <time>2015-06-20T07:01:59Z</time>
      </trkpt>
      <trkpt lat="45.1121" lon="5.9019">
        <ele>1917</ele>
        <time>2015-06-20T07:02:00Z</time>
      </trkpt>
      <trkpt lat="45.11208" lon="5.90189">
        <ele>1917</ele>
        <time>2015-06-20T07:02:01Z</time>
      </trkpt>
      <trkpt lat="45.11205" lon="5.90188">
        <ele>1917</ele>
        <time>2015-06-20T07:02:02Z</time>
      </trkpt>
      <trkpt lat="45.11202" lon="5.90186">
        <ele>1917</ele>
        <time>2015-06-20T07:02:04Z</time>
      </trkpt>
      <trkpt lat="45.11199" lon="5.90183">
        <ele>1917</ele>
        <time>2015-06-20T07:02:05Z</time>
      </trkpt>
      <trkpt lat="45.11197" lon="5.90181">
        <ele>1917</ele>
        <time>2015-06-20T07:02:06Z</time>
      </trkpt>
      <trkpt lat="45.11195" lon="5.90179">
        <ele>1917</ele>
        <time>2015-06-20T07:02:07Z</time>
      </trkpt>
      <trkpt lat="45.11193" lon="5.90177">
        <ele>1917</ele>
        <time>2015-06-20T07:02:08Z</time>
      </trkpt>
      <trkpt lat="45.11191" lon="5.90175">
        <ele>1917</ele>
        <time>2015-06-20T07:02:09Z</time>
      </trkpt>
      <trkpt lat="45.1119" lon="5.90172">
        <ele>1917</ele>
        <time>2015-06-20T07:02:10Z</time>
      </trkpt>
      <trkpt lat="45.11188" lon="5.9017">
        <ele>1917</ele>
        <time>2015-06-20T07:02:11Z</time>
      </trkpt>
      <trkpt lat="45.11186" lon="5.90168">
        <ele>1917</ele>
        <time>2015-06-20T07:02:12Z</time>
      </trkpt>
      <trkpt lat="45.11184" lon="5.90165">
        <ele>1917</ele>
        <time>2015-06-20T07:02:13Z</time>
      </trkpt>
      <trkpt lat="45.11182" lon="5.90162">
        <ele>1917</ele>
        <time>2015-06-20T07:02:14Z</time>
      </trkpt>
      <trkpt lat="45.11181" lon="5.9016">
        <ele>1917</ele>
        <time>2015-06-20T07:02:15Z</time>
      </trkpt>
      <trkpt lat="45.11179" lon="5.90157">
        <ele>1917</ele>
        <time>2015-06-20T07:02:16Z</time>
      </trkpt>
      <trkpt lat="45.11177" lon="5.90155">
        <ele>1917</ele>
        <time>2015-06-20T07:02:17Z</time>
      </trkpt>
      <trkpt lat="45.11175" lon="5.90154">
        <ele>1917</ele>
        <time>2015-06-20T07:02:18Z</time>
      </trkpt>
      <trkpt lat="45.11172" lon="5.90153">
        <ele>1917</ele>
        <time>2015-06-20T07:02:20Z</time>
      </trkpt>
      <trkpt lat="45.1117" lon="5.90153">
        <ele>1917</ele>
        <time>2015-06-20T07:02:21Z</time>
      </trkpt>
      <trkpt lat="45.11166" lon="5.90154">
        <ele>1917</ele>
        <time>2015-06-20T07:02:23Z</time>
      </trkpt>
      <trkpt lat="45.11163" lon="5.90153">
        <ele>1917</ele>
        <time>2015-06-20T07:02:24Z</time>
      </trkpt>
      <trkpt lat="45.1116" lon="5.90152">
        <ele>1917</ele>
        <time>2015-06-20T07:02:25Z</time>
      </trkpt>
      <trkpt lat="45.11158" lon="5.90151">
        <ele>1917</ele>
        <time>2015-06-20T07:02:26Z</time>
      </trkpt>
      <trkpt lat="45.11155" lon="5.9015">
        <ele>1917</ele>
        <time>2015-06-20T07:02:27Z</time>
      </trkpt>
      <trkpt lat="45.11152" lon="5.90148">
        <ele>1917</ele>
        <time>2015-06-20T07:02:28Z</time>
      </trkpt>
      <trkpt lat="45.1115" lon="5.90146">
        <ele>1917</ele>
        <time>2015-06-20T07:02:29Z</time>
      </trkpt>
      <trkpt lat="45.11148" lon="5.90145">
        <ele>1917</ele>
        <time>2015-06-20T07:02:30Z</time>
      </trkpt>
      <trkpt lat="45.11144" lon="5.90145">
        <ele>1918</ele>
        <time>2015-06-20T07:02:32Z</time>
      </trkpt>
      <trkpt lat="45.11142" lon="5.90144">
        <ele>1918</ele>
        <time>2015-06-20T07:02:33Z</time>
      </trkpt>
      <trkpt lat="45.11139" lon="5.90143">
        <ele>1918</ele>
        <time>2015-06-20T07:02:34Z</time>
      </trkpt>
      <trkpt lat="45.11136" lon="5.90143">
        <ele>1918</ele>
        <time>2015-06-20T07:02:35Z</time>
      </trkpt>
      <trkpt lat="45.11134" lon="5.90144">
        <ele>1918</ele>
        <time>2015-06-20T07:02:36Z</time>
      </trkpt>
      <trkpt lat="45.11132" lon="5.90145">
        <ele>1918</ele>
        <time>2015-06-20T07:02:37Z</time>
      </trkpt>
      <trkpt lat="45.11129" lon="5.90145">
        <ele>1918</ele>
        <time>2015-06-20T07:02:38Z</time>
      </trkpt>
      <trkpt lat="45.11127" lon="5.90144">
        <ele>1918</ele>
        <time>2015-06-20T07:02:39Z</time>
      </trkpt>
      <trkpt lat="45.11124" lon="5.90142">
        <ele>1918</ele>
        <time>2015-06-20T07:02:40Z</time>
      </trkpt>
      <trkpt lat="45.11121" lon="5.90142">
        <ele>1918</ele>
        <time>2015-06-20T07:02:41Z</time>
      </trkpt>
      <trkpt lat="45.11117" lon="5.90141">
        <ele>1917</ele>
        <time>2015-06-20T07:02:42Z</time>
      </trkpt>
      <trkpt lat="45.11114" lon="5.9014">
        <ele>1917</ele>
        <time>2015-06-20T07:02:43Z</time>
      </trkpt>
      <trkpt lat="45.11112" lon="5.90139">
        <ele>1917</ele>
        <time>2015-06-20T07:02:44Z</time>
      </trkpt>
      <trkpt lat="45.1111" lon="5.90138">
        <ele>1917</ele>
        <time>2015-06-20T07:02:45Z</time>
      </trkpt>
      <trkpt lat="45.11107" lon="5.90135">
        <ele>1917</ele>
        <time>2015-06-20T07:02:47Z</time>
      </trkpt>
      <trkpt lat="45.11103" lon="5.90135">
        <ele>1917</ele>
        <time>2015-06-20T07:02:49Z</time>
      </trkpt>
      <trkpt lat="45.11101" lon="5.90132">
        <ele>1917</ele>
        <time>2015-06-20T07:02:51Z</time>
      </trkpt>
      <trkpt lat="45.11099" lon="5.9013">
        <ele>1917</ele>
        <time>2015-06-20T07:02:52Z</time>
      </trkpt>
      <trkpt lat="45.11098" lon="5.90126">
        <ele>1915</ele>
        <time>2015-06-20T07:02:54Z</time>
      </trkpt>
      <trkpt lat="45.11096" lon="5.90123">
        <ele>1915</ele>
        <time>2015-06-20T07:02:56Z</time>
      </trkpt>
      <trkpt lat="45.11094" lon="5.90124">
        <ele>1915</ele>
        <time>2015-06-20T07:02:58Z</time>
      </trkpt>
      <trkpt lat="45.11092" lon="5.90125">
        <ele>1915</ele>
        <time>2015-06-20T07:03:00Z</time>
      </trkpt>
      <trkpt lat="45.11089" lon="5.90127">
        <ele>1910</ele>
        <time>2015-06-20T07:03:03Z</time>
      </trkpt>
      <trkpt lat="45.11087" lon="5.90125">
        <ele>1910</ele>
        <time>2015-06-20T07:03:06Z</time>
      </trkpt>
      <trkpt lat="45.11084" lon="5.90122">
        <ele>1910</ele>
        <time>2015-06-20T07:03:11Z</time>
      </trkpt>
      <trkpt lat="45.11082" lon="5.9012">
        <ele>1905</ele>
        <time>2015-06-20T07:03:13Z</time>
      </trkpt>
      <trkpt lat="45.1108" lon="5.90119">
        <ele>1904</ele>
        <time>2015-06-20T07:03:15Z</time>
      </trkpt>
      <trkpt lat="45.11078" lon="5.90119">
        <ele>1904</ele>
        <time>2015-06-20T07:03:17Z</time>
      </trkpt>
      <trkpt lat="45.11075" lon="5.9012">
        <ele>1904</ele>
        <time>2015-06-20T07:03:19Z</time>
      </trkpt>
      <trkpt lat="45.11073" lon="5.90123">
        <ele>1904</ele>
        <time>2015-06-20T07:03:21Z</time>
      </trkpt>
      <trkpt lat="45.11071" lon="5.90124">
        <ele>1901</ele>
        <time>2015-06-20T07:03:23Z</time>
      </trkpt>
      <trkpt lat="45.11069" lon="5.90123">
        <ele>1899</ele>
        <time>2015-06-20T07:03:25Z</time>
      </trkpt>
      <trkpt lat="45.11067" lon="5.90123">
        <ele>1899</ele>
        <time>2015-06-20T07:03:26Z</time>
      </trkpt>
      <trkpt lat="45.11066" lon="5.9012">
        <ele>1899</ele>
        <time>2015-06-20T07:03:27Z</time>
      </trkpt>
      <trkpt lat="45.11064" lon="5.90118">
        <ele>1899</ele>
        <time>2015-06-20T07:03:28Z</time>
      </trkpt>
      <trkpt lat="45.11062" lon="5.90116">
        <ele>1897</ele>
        <time>2015-06-20T07:03:29Z</time>
      </trkpt>
      <trkpt lat="45.1106" lon="5.90116">
        <ele>1896</ele>
        <time>2015-06-20T07:03:30Z</time>
      </trkpt>
      <trkpt lat="45.11058" lon="5.90116">
        <ele>1896</ele>
        <time>2015-06-20T07:03:31Z</time>
      </trkpt>
      <trkpt lat="45.11055" lon="5.90114">
        <ele>1896</ele>
        <time>2015-06-20T07:03:32Z</time>
      </trkpt>
      <trkpt lat="45.11053" lon="5.90111">
        <ele>1895</ele>
        <time>2015-06-20T07:03:33Z</time>
      </trkpt>
      <trkpt lat="45.11052" lon="5.90107">
        <ele>1895</ele>
        <time>2015-06-20T07:03:34Z</time>
      </trkpt>
      <trkpt lat="45.11051" lon="5.90103">
        <ele>1895</ele>
        <time>2015-06-20T07:03:35Z</time>
      </trkpt>
      <trkpt lat="45.11051" lon="5.90099">
        <ele>1894</ele>
        <time>2015-06-20T07:03:36Z</time>
      </trkpt>
      <trkpt lat="45.11051" lon="5.90095">
        <ele>1894</ele>
        <time>2015-06-20T07:03:37Z</time>
      </trkpt>
      <trkpt lat="45.11052" lon="5.90091">
        <ele>1893</ele>
        <time>2015-06-20T07:03:38Z</time>
      </trkpt>
      <trkpt lat="45.11051" lon="5.90087">
        <ele>1893</ele>
        <time>2015-06-20T07:03:39Z</time>
      </trkpt>
      <trkpt lat="45.11051" lon="5.90084">
        <ele>1893</ele>
        <time>2015-06-20T07:03:40Z</time>
      </trkpt>
      <trkpt lat="45.11051" lon="5.90081">
        <ele>1892</ele>
        <time>2015-06-20T07:03:41Z</time>
      </trkpt>
      <trkpt lat="45.1105" lon="5.90078">
        <ele>1892</ele>
        <time>2015-06-20T07:03:42Z</time>
      </trkpt>
      <trkpt lat="45.11049" lon="5.90075">
        <ele>1892</ele>
        <time>2015-06-20T07:03:43Z</time>
      </trkpt>
      <trkpt lat="45.11046" lon="5.90073">
        <ele>1891</ele>
        <time>2015-06-20T07:03:44Z</time>
      </trkpt>
      <trkpt lat="45.11044" lon="5.90072">
        <ele>1891</ele>
        <time>2015-06-20T07:03:45Z</time>
      </trkpt>
      <trkpt lat="45.11041" lon="5.90072">
        <ele>1891</ele>
        <time>2015-06-20T07:03:46Z</time>
      </trkpt>
      <trkpt lat="45.11038" lon="5.90072">
        <ele>1891</ele>
        <time>2015-06-20T07:03:47Z</time>
      </trkpt>
      <trkpt lat="45.11034" lon="5.90071">
        <ele>1891</ele>
        <time>2015-06-20T07:03:48Z</time>
      </trkpt>
      <trkpt lat="45.11031" lon="5.90069">
        <ele>1891</ele>
        <time>2015-06-20T07:03:49Z</time>
      </trkpt>
      <trkpt lat="45.11029" lon="5.90068">
        <ele>1890</ele>
        <time>2015-06-20T07:03:50Z</time>
      </trkpt>
      <trkpt lat="45.11026" lon="5.90066">
        <ele>1890</ele>
        <time>2015-06-20T07:03:51Z</time>
      </trkpt>
      <trkpt lat="45.11025" lon="5.90063">
        <ele>1890</ele>
        <time>2015-06-20T07:03:52Z</time>
      </trkpt>
      <trkpt lat="45.11024" lon="5.9006">
        <ele>1890</ele>
        <time>2015-06-20T07:03:53Z</time>
      </trkpt>
      <trkpt lat="45.11023" lon="5.90058">
        <ele>1890</ele>
        <time>2015-06-20T07:03:54Z</time>
      </trkpt>
      <trkpt lat="45.11021" lon="5.90056">
        <ele>1888</ele>
        <time>2015-06-20T07:03:55Z</time>
      </trkpt>
      <trkpt lat="45.1102" lon="5.90054">
        <ele>1888</ele>
        <time>2015-06-20T07:03:56Z</time>
      </trkpt>
      <trkpt lat="45.11019" lon="5.90052">
        <ele>1888</ele>
        <time>2015-06-20T07:03:57Z</time>
      </trkpt>
      <trkpt lat="45.11017" lon="5.9005">
        <ele>1888</ele>
        <time>2015-06-20T07:03:58Z</time>
      </trkpt>
      <trkpt lat="45.11016" lon="5.90048">
        <ele>1888</ele>
        <time>2015-06-20T07:03:59Z</time>
      </trkpt>
      <trkpt lat="45.11014" lon="5.90044">
        <ele>1888</ele>
        <time>2015-06-20T07:04:01Z</time>
      </trkpt>
      <trkpt lat="45.11013" lon="5.90041">
        <ele>1885</ele>
        <time>2015-06-20T07:04:02Z</time>
      </trkpt>
      <trkpt lat="45.11011" lon="5.90038">
        <ele>1885</ele>
        <time>2015-06-20T07:04:03Z</time>
      </trkpt>
      <trkpt lat="45.1101" lon="5.90035">
        <ele>1885</ele>
        <time>2015-06-20T07:04:04Z</time>
      </trkpt>
      <trkpt lat="45.11009" lon="5.90034">
        <ele>1885</ele>
        <time>2015-06-20T07:04:05Z</time>
      </trkpt>
      <trkpt lat="45.11007" lon="5.90031">
        <ele>1883</ele>
        <time>2015-06-20T07:04:07Z</time>
      </trkpt>
      <trkpt lat="45.11003" lon="5.90027">
        <ele>1883</ele>
        <time>2015-06-20T07:04:09Z</time>
      </trkpt>
      <trkpt lat="45.11" lon="5.90025">
        <ele>1883</ele>
        <time>2015-06-20T07:04:10Z</time>
      </trkpt>
      <trkpt lat="45.10998" lon="5.90024">
        <ele>1883</ele>
        <time>2015-06-20T07:04:11Z</time>
      </trkpt>
      <trkpt lat="45.10995" lon="5.90022">
        <ele>1881</ele>
        <time>2015-06-20T07:04:12Z</time>
      </trkpt>
      <trkpt lat="45.10993" lon="5.90019">
        <ele>1881</ele>
        <time>2015-06-20T07:04:13Z</time>
      </trkpt>
      <trkpt lat="45.1099" lon="5.90017">
        <ele>1881</ele>
        <time>2015-06-20T07:04:14Z</time>
      </trkpt>
      <trkpt lat="45.10988" lon="5.90013">
        <ele>1881</ele>
        <time>2015-06-20T07:04:15Z</time>
      </trkpt>
      <trkpt lat="45.10985" lon="5.90009">
        <ele>1878</ele>
        <time>2015-06-20T07:04:16Z</time>
      </trkpt>
      <trkpt lat="45.10983" lon="5.90006">
        <ele>1878</ele>
        <time>2015-06-20T07:04:17Z</time>
      </trkpt>
      <trkpt lat="45.10981" lon="5.90005">
        <ele>1878</ele>
        <time>2015-06-20T07:04:18Z</time>
      </trkpt>
      <trkpt lat="45.10978" lon="5.90003">
        <ele>1878</ele>
        <time>2015-06-20T07:04:19Z</time>
      </trkpt>
      <trkpt lat="45.10975" lon="5.9">
        <ele>1878</ele>
        <time>2015-06-20T07:04:20Z</time>
      </trkpt>
      <trkpt lat="45.10972" lon="5.89997">
        <ele>1878</ele>
        <time>2015-06-20T07:04:21Z</time>
      </trkpt>
      <trkpt lat="45.10971" lon="5.89993">
        <ele>1877</ele>
        <time>2015-06-20T07:04:22Z</time>
      </trkpt>
      <trkpt lat="45.10968" lon="5.8999">
        <ele>1877</ele>
        <time>2015-06-20T07:04:23Z</time>
      </trkpt>
      <trkpt lat="45.10966" lon="5.89986">
        <ele>1877</ele>
        <time>2015-06-20T07:04:24Z</time>
      </trkpt>
      <trkpt lat="45.10964" lon="5.89984">
        <ele>1877</ele>
        <time>2015-06-20T07:04:25Z</time>
      </trkpt>
      <trkpt lat="45.10962" lon="5.89982">
        <ele>1877</ele>
        <time>2015-06-20T07:04:26Z</time>
      </trkpt>
      <trkpt lat="45.1096" lon="5.89981">
        <ele>1877</ele>
        <time>2015-06-20T07:04:27Z</time>
      </trkpt>
      <trkpt lat="45.10958" lon="5.89979">
        <ele>1877</ele>
        <time>2015-06-20T07:04:28Z</time>
      </trkpt>
      <trkpt lat="45.10956" lon="5.89977">
        <ele>1877</ele>
        <time>2015-06-20T07:04:29Z</time>
      </trkpt>
      <trkpt lat="45.10955" lon="5.89974">
        <ele>1877</ele>
        <time>2015-06-20T07:04:30Z</time>
      </trkpt>
      <trkpt lat="45.10954" lon="5.89972">
        <ele>1877</ele>
        <time>2015-06-20T07:04:32Z</time>
      </trkpt>
      <trkpt lat="45.10953" lon="5.89967">
        <ele>1877</ele>
        <time>2015-06-20T07:04:34Z</time>
      </trkpt>
      <trkpt lat="45.10952" lon="5.89964">
        <ele>1877</ele>
        <time>2015-06-20T07:04:35Z</time>
      </trkpt>
      <trkpt lat="45.10952" lon="5.89962">
        <ele>1877</ele>
        <time>2015-06-20T07:04:36Z</time>
      </trkpt>
      <trkpt lat="45.10951" lon="5.89958">
        <ele>1877</ele>
        <time>2015-06-20T07:04:38Z</time>
      </trkpt>
      <trkpt lat="45.10952" lon="5.89954">
        <ele>1877</ele>
        <time>2015-06-20T07:04:40Z</time>
      </trkpt>
      <trkpt lat="45.10951" lon="5.89951">
        <ele>1877</ele>
        <time>2015-06-20T07:04:42Z</time>
      </trkpt>
      <trkpt lat="45.1095" lon="5.89947">
        <ele>1877</ele>
        <time>2015-06-20T07:04:45Z</time>
      </trkpt>
      <trkpt lat="45.1095" lon="5.89945">
        <ele>1877</ele>
        <time>2015-06-20T07:04:46Z</time>
      </trkpt>
      <trkpt lat="45.10947" lon="5.89941">
        <ele>1877</ele>
        <time>2015-06-20T07:04:48Z</time>
      </trkpt>
      <trkpt lat="45.10945" lon="5.89941">
        <ele>1877</ele>
        <time>2015-06-20T07:04:49Z</time>
      </trkpt>
      <trkpt lat="45.10942" lon="5.89939">
        <ele>1877</ele>
        <time>2015-06-20T07:04:51Z</time>
      </trkpt>
      <trkpt lat="45.1094" lon="5.89938">
        <ele>1877</ele>
        <time>2015-06-20T07:04:52Z</time>
      </trkpt>
      <trkpt lat="45.10938" lon="5.89937">
        <ele>1877</ele>
        <time>2015-06-20T07:04:53Z</time>
      </trkpt>
      <trkpt lat="45.10936" lon="5.89936">
        <ele>1877</ele>
        <time>2015-06-20T07:04:54Z</time>
      </trkpt>
      <trkpt lat="45.10933" lon="5.89937">
        <ele>1877</ele>
        <time>2015-06-20T07:04:56Z</time>
      </trkpt>
      <trkpt lat="45.10931" lon="5.89937">
        <ele>1877</ele>
        <time>2015-06-20T07:04:57Z</time>
      </trkpt>
      <trkpt lat="45.10929" lon="5.89937">
        <ele>1877</ele>
        <time>2015-06-20T07:04:58Z</time>
      </trkpt>
      <trkpt lat="45.10926" lon="5.89936">
        <ele>1877</ele>
        <time>2015-06-20T07:04:59Z</time>
      </trkpt>
      <trkpt lat="45.10925" lon="5.89934">
        <ele>1877</ele>
        <time>2015-06-20T07:05:00Z</time>
      </trkpt>
      <trkpt lat="45.10923" lon="5.89931">
        <ele>1877</ele>
        <time>2015-06-20T07:05:01Z</time>
      </trkpt>
      <trkpt lat="45.10922" lon="5.89927">
        <ele>1877</ele>
        <time>2015-06-20T07:05:02Z</time>
      </trkpt>
      <trkpt lat="45.10922" lon="5.89925">
        <ele>1876</ele>
        <time>2015-06-20T07:05:03Z</time>
      </trkpt>
      <trkpt lat="45.10921" lon="5.8992">
        <ele>1876</ele>
        <time>2015-06-20T07:05:05Z</time>
      </trkpt>
      <trkpt lat="45.10919" lon="5.89917">
        <ele>1876</ele>
        <time>2015-06-20T07:05:07Z</time>
      </trkpt>
      <trkpt lat="45.10917" lon="5.89915">
        <ele>1876</ele>
        <time>2015-06-20T07:05:08Z</time>
      </trkpt>
      <trkpt lat="45.10916" lon="5.89912">
        <ele>1876</ele>
        <time>2015-06-20T07:05:09Z</time>
      </trkpt>
      <trkpt lat="45.10915" lon="5.89908">
        <ele>1876</ele>
        <time>2015-06-20T07:05:10Z</time>
      </trkpt>
      <trkpt lat="45.10915" lon="5.89906">
        <ele>1876</ele>
        <time>2015-06-20T07:05:11Z</time>
      </trkpt>
      <trkpt lat="45.10913" lon="5.89903">
        <ele>1876</ele>
        <time>2015-06-20T07:05:12Z</time>
      </trkpt>
      <trkpt lat="45.10912" lon="5.899">
        <ele>1877</ele>
        <time>2015-06-20T07:05:13Z</time>
      </trkpt>
      <trkpt lat="45.1091" lon="5.89898">
        <ele>1877</ele>
        <time>2015-06-20T07:05:14Z</time>
      </trkpt>
      <trkpt lat="45.10908" lon="5.89897">
        <ele>1877</ele>
        <time>2015-06-20T07:05:15Z</time>
      </trkpt>
      <trkpt lat="45.10905" lon="5.89896">
        <ele>1877</ele>
        <time>2015-06-20T07:05:16Z</time>
      </trkpt>
      <trkpt lat="45.10903" lon="5.89896">
        <ele>1877</ele>
        <time>2015-06-20T07:05:17Z</time>
      </trkpt>
      <trkpt lat="45.10901" lon="5.89895">
        <ele>1877</ele>
        <time>2015-06-20T07:05:18Z</time>
      </trkpt>
      <trkpt lat="45.10899" lon="5.89894">
        <ele>1877</ele>
        <time>2015-06-20T07:05:19Z</time>
      </trkpt>
      <trkpt lat="45.10899" lon="5.89889">
        <ele>1877</ele>
        <time>2015-06-20T07:05:21Z</time>
      </trkpt>
      <trkpt lat="45.10899" lon="5.89884">
        <ele>1877</ele>
        <time>2015-06-20T07:05:23Z</time>
      </trkpt>
      <trkpt lat="45.10899" lon="5.89881">
        <ele>1877</ele>
        <time>2015-06-20T07:05:24Z</time>
      </trkpt>
      <trkpt lat="45.109" lon="5.89878">
        <ele>1877</ele>
        <time>2015-06-20T07:05:25Z</time>
      </trkpt>
      <trkpt lat="45.10899" lon="5.89873">
        <ele>1877</ele>
        <time>2015-06-20T07:05:27Z</time>
      </trkpt>
      <trkpt lat="45.109" lon="5.89868">
        <ele>1877</ele>
        <time>2015-06-20T07:05:29Z</time>
      </trkpt>
      <trkpt lat="45.10901" lon="5.89866">
        <ele>1877</ele>
        <time>2015-06-20T07:05:30Z</time>
      </trkpt>
      <trkpt lat="45.10901" lon="5.89863">
        <ele>1877</ele>
        <time>2015-06-20T07:05:31Z</time>
      </trkpt>
      <trkpt lat="45.10901" lon="5.8986">
        <ele>1877</ele>
        <time>2015-06-20T07:05:32Z</time>
      </trkpt>
      <trkpt lat="45.10901" lon="5.89858">
        <ele>1877</ele>
        <time>2015-06-20T07:05:33Z</time>
      </trkpt>
      <trkpt lat="45.10901" lon="5.89855">
        <ele>1875</ele>
        <time>2015-06-20T07:05:34Z</time>
      </trkpt>
      <trkpt lat="45.10899" lon="5.8985">
        <ele>1875</ele>
        <time>2015-06-20T07:05:36Z</time>
      </trkpt>
      <trkpt lat="45.10899" lon="5.89847">
        <ele>1875</ele>
        <time>2015-06-20T07:05:37Z</time>
      </trkpt>
      <trkpt lat="45.10898" lon="5.89845">
        <ele>1875</ele>
        <time>2015-06-20T07:05:38Z</time>
      </trkpt>
      <trkpt lat="45.10896" lon="5.89842">
        <ele>1875</ele>
        <time>2015-06-20T07:05:39Z</time>
      </trkpt>
      <trkpt lat="45.10895" lon="5.8984">
        <ele>1875</ele>
        <time>2015-06-20T07:05:40Z</time>
      </trkpt>
      <trkpt lat="45.10893" lon="5.89838">
        <ele>1875</ele>
        <time>2015-06-20T07:05:41Z</time>
      </trkpt>
      <trkpt lat="45.10891" lon="5.89835">
        <ele>1875</ele>
        <time>2015-06-20T07:05:43Z</time>
      </trkpt>
      <trkpt lat="45.10889" lon="5.89833">
        <ele>1870</ele>
        <time>2015-06-20T07:05:44Z</time>
      </trkpt>
      <trkpt lat="45.10887" lon="5.8983">
        <ele>1870</ele>
        <time>2015-06-20T07:05:45Z</time>
      </trkpt>
      <trkpt lat="45.10885" lon="5.89827">
        <ele>1870</ele>
        <time>2015-06-20T07:05:46Z</time>
      </trkpt>
      <trkpt lat="45.10883" lon="5.89825">
        <ele>1870</ele>
        <time>2015-06-20T07:05:47Z</time>
      </trkpt>
      <trkpt lat="45.10881" lon="5.89823">
        <ele>1867</ele>
        <time>2015-06-20T07:05:48Z</time>
      </trkpt>
      <trkpt lat="45.10879" lon="5.89821">
        <ele>1867</ele>
        <time>2015-06-20T07:05:49Z</time>
      </trkpt>
      <trkpt lat="45.10877" lon="5.89818">
        <ele>1867</ele>
        <time>2015-06-20T07:05:50Z</time>
      </trkpt>
      <trkpt lat="45.10876" lon="5.89815">
        <ele>1867</ele>
        <time>2015-06-20T07:05:51Z</time>
      </trkpt>
      <trkpt lat="45.10876" lon="5.89813">
        <ele>1867</ele>
        <time>2015-06-20T07:05:52Z</time>
      </trkpt>
      <trkpt lat="45.10874" lon="5.8981">
        <ele>1867</ele>
        <time>2015-06-20T07:05:53Z</time>
      </trkpt>
      <trkpt lat="45.10873" lon="5.89808">
        <ele>1865</ele>
        <time>2015-06-20T07:05:54Z</time>
      </trkpt>
      <trkpt lat="45.10871" lon="5.89805">
        <ele>1865</ele>
        <time>2015-06-20T07:05:55Z</time>
      </trkpt>
      <trkpt lat="45.10869" lon="5.89801">
        <ele>1865</ele>
        <time>2015-06-20T07:05:56Z</time>
      </trkpt>
      <trkpt lat="45.10867" lon="5.89798">
        <ele>1865</ele>
        <time>2015-06-20T07:05:57Z</time>
      </trkpt>
      <trkpt lat="45.10866" lon="5.89795">
        <ele>1865</ele>
        <time>2015-06-20T07:05:58Z</time>
      </trkpt>
      <trkpt lat="45.10863" lon="5.89792">
        <ele>1865</ele>
        <time>2015-06-20T07:05:59Z</time>
      </trkpt>
      <trkpt lat="45.10861" lon="5.89791">
        <ele>1863</ele>
        <time>2015-06-20T07:06:00Z</time>
      </trkpt>
      <trkpt lat="45.10859" lon="5.89788">
        <ele>1863</ele>
        <time>2015-06-20T07:06:01Z</time>
      </trkpt>
      <trkpt lat="45.10857" lon="5.89786">
        <ele>1862</ele>
        <time>2015-06-20T07:06:02Z</time>
      </trkpt>
      <trkpt lat="45.10855" lon="5.89784">
        <ele>1862</ele>
        <time>2015-06-20T07:06:03Z</time>
      </trkpt>
      <trkpt lat="45.10853" lon="5.89782">
        <ele>1862</ele>
        <time>2015-06-20T07:06:04Z</time>
      </trkpt>
      <trkpt lat="45.10851" lon="5.89779">
        <ele>1862</ele>
        <time>2015-06-20T07:06:05Z</time>
      </trkpt>
      <trkpt lat="45.10851" lon="5.89776">
        <ele>1862</ele>
        <time>2015-06-20T07:06:06Z</time>
      </trkpt>
      <trkpt lat="45.10851" lon="5.89771">
        <ele>1862</ele>
        <time>2015-06-20T07:06:07Z</time>
      </trkpt>
      <trkpt lat="45.1085" lon="5.89768">
        <ele>1862</ele>
        <time>2015-06-20T07:06:08Z</time>
      </trkpt>
      <trkpt lat="45.1085" lon="5.89766">
        <ele>1862</ele>
        <time>2015-06-20T07:06:09Z</time>
      </trkpt>
      <trkpt lat="45.1085" lon="5.89763">
        <ele>1862</ele>
        <time>2015-06-20T07:06:10Z</time>
      </trkpt>
      <trkpt lat="45.1085" lon="5.89759">
        <ele>1861</ele>
        <time>2015-06-20T07:06:12Z</time>
      </trkpt>
      <trkpt lat="45.10849" lon="5.89755">
        <ele>1861</ele>
        <time>2015-06-20T07:06:14Z</time>
      </trkpt>
      <trkpt lat="45.10848" lon="5.89751">
        <ele>1861</ele>
        <time>2015-06-20T07:06:16Z</time>
      </trkpt>
      <trkpt lat="45.10848" lon="5.89748">
        <ele>1858</ele>
        <time>2015-06-20T07:06:18Z</time>
      </trkpt>
      <trkpt lat="45.10847" lon="5.89743">
        <ele>1858</ele>
        <time>2015-06-20T07:06:20Z</time>
      </trkpt>
      <trkpt lat="45.10847" lon="5.89741">
        <ele>1858</ele>
        <time>2015-06-20T07:06:21Z</time>
      </trkpt>
      <trkpt lat="45.10849" lon="5.89738">
        <ele>1858</ele>
        <time>2015-06-20T07:06:23Z</time>
      </trkpt>
      <trkpt lat="45.10851" lon="5.89737">
        <ele>1856</ele>
        <time>2015-06-20T07:06:25Z</time>
      </trkpt>
      <trkpt lat="45.10852" lon="5.89734">
        <ele>1856</ele>
        <time>2015-06-20T07:06:27Z</time>
      </trkpt>
      <trkpt lat="45.10851" lon="5.8973">
        <ele>1853</ele>
        <time>2015-06-20T07:06:29Z</time>
      </trkpt>
      <trkpt lat="45.1085" lon="5.89727">
        <ele>1853</ele>
        <time>2015-06-20T07:06:31Z</time>
      </trkpt>
      <trkpt lat="45.10849" lon="5.89723">
        <ele>1851</ele>
        <time>2015-06-20T07:06:33Z</time>
      </trkpt>
      <trkpt lat="45.1085" lon="5.89721">
        <ele>1851</ele>
        <time>2015-06-20T07:06:35Z</time>
      </trkpt>
      <trkpt lat="45.10851" lon="5.89719">
        <ele>1848</ele>
        <time>2015-06-20T07:06:37Z</time>
      </trkpt>
      <trkpt lat="45.10851" lon="5.89716">
        <ele>1848</ele>
        <time>2015-06-20T07:06:39Z</time>
      </trkpt>
      <trkpt lat="45.1085" lon="5.89713">
        <ele>1848</ele>
        <time>2015-06-20T07:06:40Z</time>
      </trkpt>
      <trkpt lat="45.10848" lon="5.89709">
        <ele>1848</ele>
        <time>2015-06-20T07:06:41Z</time>
      </trkpt>
      <trkpt lat="45.10847" lon="5.89707">
        <ele>1846</ele>
        <time>2015-06-20T07:06:42Z</time>
      </trkpt>
      <trkpt lat="45.10845" lon="5.89705">
        <ele>1846</ele>
        <time>2015-06-20T07:06:43Z</time>
      </trkpt>
      <trkpt lat="45.10844" lon="5.89703">
        <ele>1846</ele>
        <time>2015-06-20T07:06:44Z</time>
      </trkpt>
      <trkpt lat="45.10844" lon="5.897">
        <ele>1845</ele>
        <time>2015-06-20T07:06:45Z</time>
      </trkpt>
      <trkpt lat="45.10843" lon="5.89697">
        <ele>1843</ele>
        <time>2015-06-20T07:06:46Z</time>
      </trkpt>
      <trkpt lat="45.10842" lon="5.89695">
        <ele>1843</ele>
        <time>2015-06-20T07:06:47Z</time>
      </trkpt>
      <trkpt lat="45.10842" lon="5.8969">
        <ele>1843</ele>
        <time>2015-06-20T07:06:49Z</time>
      </trkpt>
      <trkpt lat="45.10842" lon="5.89687">
        <ele>1843</ele>
        <time>2015-06-20T07:06:51Z</time>
      </trkpt>
      <trkpt lat="45.1084" lon="5.89682">
        <ele>1843</ele>
        <time>2015-06-20T07:06:53Z</time>
      </trkpt>
      <trkpt lat="45.10839" lon="5.89679">
        <ele>1841</ele>
        <time>2015-06-20T07:06:54Z</time>
      </trkpt>
      <trkpt lat="45.10839" lon="5.89677">
        <ele>1841</ele>
        <time>2015-06-20T07:06:55Z</time>
      </trkpt>
      <trkpt lat="45.10838" lon="5.89674">
        <ele>1841</ele>
        <time>2015-06-20T07:06:56Z</time>
      </trkpt>
      <trkpt lat="45.10836" lon="5.89672">
        <ele>1841</ele>
        <time>2015-06-20T07:06:57Z</time>
      </trkpt>
      <trkpt lat="45.10834" lon="5.89672">
        <ele>1841</ele>
        <time>2015-06-20T07:06:58Z</time>
      </trkpt>
      <trkpt lat="45.10832" lon="5.89671">
        <ele>1838</ele>
        <time>2015-06-20T07:06:59Z</time>
      </trkpt>
      <trkpt lat="45.10829" lon="5.89671">
        <ele>1838</ele>
        <time>2015-06-20T07:07:00Z</time>
      </trkpt>
      <trkpt lat="45.10827" lon="5.8967">
        <ele>1838</ele>
        <time>2015-06-20T07:07:01Z</time>
      </trkpt>
      <trkpt lat="45.10824" lon="5.89669">
        <ele>1838</ele>
        <time>2015-06-20T07:07:02Z</time>
      </trkpt>
      <trkpt lat="45.10823" lon="5.89668">
        <ele>1836</ele>
        <time>2015-06-20T07:07:03Z</time>
      </trkpt>
      <trkpt lat="45.10821" lon="5.89667">
        <ele>1836</ele>
        <time>2015-06-20T07:07:04Z</time>
      </trkpt>
      <trkpt lat="45.10818" lon="5.89665">
        <ele>1836</ele>
        <time>2015-06-20T07:07:06Z</time>
      </trkpt>
      <trkpt lat="45.10815" lon="5.89666">
        <ele>1833</ele>
        <time>2015-06-20T07:07:08Z</time>
      </trkpt>
      <trkpt lat="45.10812" lon="5.89666">
        <ele>1833</ele>
        <time>2015-06-20T07:07:10Z</time>
      </trkpt>
      <trkpt lat="45.1081" lon="5.89667">
        <ele>1833</ele>
        <time>2015-06-20T07:07:11Z</time>
      </trkpt>
      <trkpt lat="45.10808" lon="5.89666">
        <ele>1833</ele>
        <time>2015-06-20T07:07:12Z</time>
      </trkpt>
      <trkpt lat="45.10807" lon="5.89664">
        <ele>1833</ele>
        <time>2015-06-20T07:07:13Z</time>
      </trkpt>
      <trkpt lat="45.10804" lon="5.89661">
        <ele>1830</ele>
        <time>2015-06-20T07:07:15Z</time>
      </trkpt>
      <trkpt lat="45.10802" lon="5.8966">
        <ele>1829</ele>
        <time>2015-06-20T07:07:17Z</time>
      </trkpt>
      <trkpt lat="45.10799" lon="5.89658">
        <ele>1827</ele>
        <time>2015-06-20T07:07:20Z</time>
      </trkpt>
      <trkpt lat="45.10797" lon="5.89654">
        <ele>1826</ele>
        <time>2015-06-20T07:07:22Z</time>
      </trkpt>
      <trkpt lat="45.10796" lon="5.89651">
        <ele>1825</ele>
        <time>2015-06-20T07:07:24Z</time>
      </trkpt>
      <trkpt lat="45.10794" lon="5.89651">
        <ele>1825</ele>
        <time>2015-06-20T07:07:26Z</time>
      </trkpt>
      <trkpt lat="45.10791" lon="5.89653">
        <ele>1824</ele>
        <time>2015-06-20T07:07:28Z</time>
      </trkpt>
      <trkpt lat="45.10788" lon="5.89654">
        <ele>1824</ele>
        <time>2015-06-20T07:07:30Z</time>
      </trkpt>
      <trkpt lat="45.10787" lon="5.89651">
        <ele>1824</ele>
        <time>2015-06-20T07:07:32Z</time>
      </trkpt>
      <trkpt lat="45.10785" lon="5.89648">
        <ele>1824</ele>
        <time>2015-06-20T07:07:34Z</time>
      </trkpt>
      <trkpt lat="45.10783" lon="5.89646">
        <ele>1821</ele>
        <time>2015-06-20T07:07:36Z</time>
      </trkpt>
      <trkpt lat="45.10781" lon="5.89643">
        <ele>1821</ele>
        <time>2015-06-20T07:07:38Z</time>
      </trkpt>
      <trkpt lat="45.10779" lon="5.89641">
        <ele>1821</ele>
        <time>2015-06-20T07:07:40Z</time>
      </trkpt>
      <trkpt lat="45.10777" lon="5.89638">
        <ele>1821</ele>
        <time>2015-06-20T07:07:42Z</time>
      </trkpt>
      <trkpt lat="45.10776" lon="5.89634">
        <ele>1821</ele>
        <time>2015-06-20T07:07:44Z</time>
      </trkpt>
      <trkpt lat="45.10774" lon="5.8963">
        <ele>1821</ele>
        <time>2015-06-20T07:07:46Z</time>
      </trkpt>
      <trkpt lat="45.10771" lon="5.89628">
        <ele>1816</ele>
        <time>2015-06-20T07:07:48Z</time>
      </trkpt>
      <trkpt lat="45.10769" lon="5.89627">
        <ele>1816</ele>
        <time>2015-06-20T07:07:49Z</time>
      </trkpt>
      <trkpt lat="45.10767" lon="5.89625">
        <ele>1814</ele>
        <time>2015-06-20T07:07:50Z</time>
      </trkpt>
      <trkpt lat="45.10763" lon="5.89625">
        <ele>1813</ele>
        <time>2015-06-20T07:07:52Z</time>
      </trkpt>
      <trkpt lat="45.10761" lon="5.89624">
        <ele>1813</ele>
        <time>2015-06-20T07:07:53Z</time>
      </trkpt>
      <trkpt lat="45.10759" lon="5.89624">
        <ele>1813</ele>
        <time>2015-06-20T07:07:54Z</time>
      </trkpt>
      <trkpt lat="45.10757" lon="5.89623">
        <ele>1812</ele>
        <time>2015-06-20T07:07:55Z</time>
      </trkpt>
      <trkpt lat="45.10755" lon="5.89622">
        <ele>1812</ele>
        <time>2015-06-20T07:07:56Z</time>
      </trkpt>
      <trkpt lat="45.10753" lon="5.8962">
        <ele>1812</ele>
        <time>2015-06-20T07:07:57Z</time>
      </trkpt>
      <trkpt lat="45.10751" lon="5.89618">
        <ele>1811</ele>
        <time>2015-06-20T07:07:58Z</time>
      </trkpt>
      <trkpt lat="45.10749" lon="5.89616">
        <ele>1811</ele>
        <time>2015-06-20T07:07:59Z</time>
      </trkpt>
      <trkpt lat="45.10748" lon="5.89614">
        <ele>1810</ele>
        <time>2015-06-20T07:08:00Z</time>
      </trkpt>
      <trkpt lat="45.10746" lon="5.89612">
        <ele>1810</ele>
        <time>2015-06-20T07:08:01Z</time>
      </trkpt>
      <trkpt lat="45.10744" lon="5.89611">
        <ele>1810</ele>
        <time>2015-06-20T07:08:02Z</time>
      </trkpt>
      <trkpt lat="45.10741" lon="5.89609">
        <ele>1810</ele>
        <time>2015-06-20T07:08:04Z</time>
      </trkpt>
      <trkpt lat="45.10739" lon="5.89608">
        <ele>1810</ele>
        <time>2015-06-20T07:08:05Z</time>
      </trkpt>
      <trkpt lat="45.10736" lon="5.89607">
        <ele>1810</ele>
        <time>2015-06-20T07:08:06Z</time>
      </trkpt>
      <trkpt lat="45.10734" lon="5.89606">
        <ele>1810</ele>
        <time>2015-06-20T07:08:07Z</time>
      </trkpt>
      <trkpt lat="45.10733" lon="5.89604">
        <ele>1808</ele>
        <time>2015-06-20T07:08:08Z</time>
      </trkpt>
      <trkpt lat="45.10731" lon="5.89602">
        <ele>1808</ele>
        <time>2015-06-20T07:08:10Z</time>
      </trkpt>
      <trkpt lat="45.10729" lon="5.896">
        <ele>1808</ele>
        <time>2015-06-20T07:08:11Z</time>
      </trkpt>
      <trkpt lat="45.10726" lon="5.89601">
        <ele>1808</ele>
        <time>2015-06-20T07:08:12Z</time>
      </trkpt>
      <trkpt lat="45.10724" lon="5.89601">
        <ele>1805</ele>
        <time>2015-06-20T07:08:13Z</time>
      </trkpt>
      <trkpt lat="45.10722" lon="5.89601">
        <ele>1805</ele>
        <time>2015-06-20T07:08:14Z</time>
      </trkpt>
      <trkpt lat="45.10721" lon="5.89599">
        <ele>1805</ele>
        <time>2015-06-20T07:08:15Z</time>
      </trkpt>
      <trkpt lat="45.10718" lon="5.89596">
        <ele>1805</ele>
        <time>2015-06-20T07:08:17Z</time>
      </trkpt>
      <trkpt lat="45.10714" lon="5.89594">
        <ele>1805</ele>
        <time>2015-06-20T07:08:19Z</time>
      </trkpt>
      <trkpt lat="45.10712" lon="5.89593">
        <ele>1803</ele>
        <time>2015-06-20T07:08:20Z</time>
      </trkpt>
      <trkpt lat="45.1071" lon="5.89591">
        <ele>1803</ele>
        <time>2015-06-20T07:08:21Z</time>
      </trkpt>
      <trkpt lat="45.10708" lon="5.8959">
        <ele>1801</ele>
        <time>2015-06-20T07:08:22Z</time>
      </trkpt>
      <trkpt lat="45.10706" lon="5.89589">
        <ele>1801</ele>
        <time>2015-06-20T07:08:23Z</time>
      </trkpt>
      <trkpt lat="45.10703" lon="5.89587">
        <ele>1801</ele>
        <time>2015-06-20T07:08:24Z</time>
      </trkpt>
      <trkpt lat="45.10702" lon="5.89586">
        <ele>1801</ele>
        <time>2015-06-20T07:08:25Z</time>
      </trkpt>
      <trkpt lat="45.10699" lon="5.89585">
        <ele>1801</ele>
        <time>2015-06-20T07:08:26Z</time>
      </trkpt>
      <trkpt lat="45.10697" lon="5.89584">
        <ele>1798</ele>
        <time>2015-06-20T07:08:27Z</time>
      </trkpt>
      <trkpt lat="45.10696" lon="5.89583">
        <ele>1798</ele>
        <time>2015-06-20T07:08:28Z</time>
      </trkpt>
      <trkpt lat="45.10693" lon="5.8958">
        <ele>1796</ele>
        <time>2015-06-20T07:08:30Z</time>
      </trkpt>
      <trkpt lat="45.1069" lon="5.89579">
        <ele>1795</ele>
        <time>2015-06-20T07:08:32Z</time>
      </trkpt>
      <trkpt lat="45.1069" lon="5.89576">
        <ele>1795</ele>
        <time>2015-06-20T07:08:33Z</time>
      </trkpt>
      <trkpt lat="45.10689" lon="5.89573">
        <ele>1795</ele>
        <time>2015-06-20T07:08:35Z</time>
      </trkpt>
      <trkpt lat="45.10687" lon="5.8957">
        <ele>1795</ele>
        <time>2015-06-20T07:08:37Z</time>
      </trkpt>
      <trkpt lat="45.10686" lon="5.89565">
        <ele>1795</ele>
        <time>2015-06-20T07:08:39Z</time>
      </trkpt>
      <trkpt lat="45.10683" lon="5.89564">
        <ele>1793</ele>
        <time>2015-06-20T07:08:40Z</time>
      </trkpt>
      <trkpt lat="45.10682" lon="5.89563">
        <ele>1793</ele>
        <time>2015-06-20T07:08:41Z</time>
      </trkpt>
      <trkpt lat="45.10679" lon="5.89561">
        <ele>1793</ele>
        <time>2015-06-20T07:08:43Z</time>
      </trkpt>
      <trkpt lat="45.10676" lon="5.89559">
        <ele>1793</ele>
        <time>2015-06-20T07:08:45Z</time>
      </trkpt>
      <trkpt lat="45.10674" lon="5.89556">
        <ele>1793</ele>
        <time>2015-06-20T07:08:47Z</time>
      </trkpt>
      <trkpt lat="45.10672" lon="5.89556">
        <ele>1790</ele>
        <time>2015-06-20T07:08:48Z</time>
      </trkpt>
      <trkpt lat="45.1067" lon="5.89553">
        <ele>1790</ele>
        <time>2015-06-20T07:08:50Z</time>
      </trkpt>
      <trkpt lat="45.10669" lon="5.8955">
        <ele>1788</ele>
        <time>2015-06-20T07:08:51Z</time>
      </trkpt>
      <trkpt lat="45.1067" lon="5.89547">
        <ele>1788</ele>
        <time>2015-06-20T07:08:53Z</time>
      </trkpt>
      <trkpt lat="45.10668" lon="5.89543">
        <ele>1788</ele>
        <time>2015-06-20T07:08:55Z</time>
      </trkpt>
      <trkpt lat="45.10665" lon="5.89543">
        <ele>1788</ele>
        <time>2015-06-20T07:08:57Z</time>
      </trkpt>
      <trkpt lat="45.10663" lon="5.89542">
        <ele>1783</ele>
        <time>2015-06-20T07:08:59Z</time>
      </trkpt>
      <trkpt lat="45.1066" lon="5.89545">
        <ele>1783</ele>
        <time>2015-06-20T07:09:01Z</time>
      </trkpt>
      <trkpt lat="45.10657" lon="5.89545">
        <ele>1779</ele>
        <time>2015-06-20T07:09:03Z</time>
      </trkpt>
      <trkpt lat="45.10655" lon="5.89544">
        <ele>1779</ele>
        <time>2015-06-20T07:09:05Z</time>
      </trkpt>
      <trkpt lat="45.10653" lon="5.89542">
        <ele>1779</ele>
        <time>2015-06-20T07:09:07Z</time>
      </trkpt>
      <trkpt lat="45.10651" lon="5.8954">
        <ele>1779</ele>
        <time>2015-06-20T07:09:10Z</time>
      </trkpt>
      <trkpt lat="45.10648" lon="5.89538">
        <ele>1779</ele>
        <time>2015-06-20T07:09:12Z</time>
      </trkpt>
      <trkpt lat="45.10647" lon="5.89535">
        <ele>1779</ele>
        <time>2015-06-20T07:09:14Z</time>
      </trkpt>
      <trkpt lat="45.10646" lon="5.89532">
        <ele>1775</ele>
        <time>2015-06-20T07:09:16Z</time>
      </trkpt>
      <trkpt lat="45.10644" lon="5.89529">
        <ele>1774</ele>
        <time>2015-06-20T07:09:18Z</time>
      </trkpt>
      <trkpt lat="45.10642" lon="5.89526">
        <ele>1774</ele>
        <time>2015-06-20T07:09:19Z</time>
      </trkpt>
      <trkpt lat="45.1064" lon="5.89522">
        <ele>1772</ele>
        <time>2015-06-20T07:09:21Z</time>
      </trkpt>
      <trkpt lat="45.10638" lon="5.89521">
        <ele>1772</ele>
        <time>2015-06-20T07:09:22Z</time>
      </trkpt>
      <trkpt lat="45.10636" lon="5.89519">
        <ele>1772</ele>
        <time>2015-06-20T07:09:23Z</time>
      </trkpt>
      <trkpt lat="45.10635" lon="5.89516">
        <ele>1771</ele>
        <time>2015-06-20T07:09:24Z</time>
      </trkpt>
      <trkpt lat="45.10634" lon="5.89513">
        <ele>1771</ele>
        <time>2015-06-20T07:09:25Z</time>
      </trkpt>
      <trkpt lat="45.10633" lon="5.8951">
        <ele>1771</ele>
        <time>2015-06-20T07:09:26Z</time>
      </trkpt>
      <trkpt lat="45.10631" lon="5.89506">
        <ele>1771</ele>
        <time>2015-06-20T07:09:28Z</time>
      </trkpt>
      <trkpt lat="45.10629" lon="5.89505">
        <ele>1771</ele>
        <time>2015-06-20T07:09:29Z</time>
      </trkpt>
      <trkpt lat="45.10627" lon="5.89505">
        <ele>1768</ele>
        <time>2015-06-20T07:09:30Z</time>
      </trkpt>
      <trkpt lat="45.10624" lon="5.89504">
        <ele>1768</ele>
        <time>2015-06-20T07:09:32Z</time>
      </trkpt>
      <trkpt lat="45.10621" lon="5.89504">
        <ele>1768</ele>
        <time>2015-06-20T07:09:33Z</time>
      </trkpt>
      <trkpt lat="45.10618" lon="5.89503">
        <ele>1768</ele>
        <time>2015-06-20T07:09:35Z</time>
      </trkpt>
      <trkpt lat="45.10616" lon="5.89501">
        <ele>1764</ele>
        <time>2015-06-20T07:09:37Z</time>
      </trkpt>
      <trkpt lat="45.10614" lon="5.89503">
        <ele>1764</ele>
        <time>2015-06-20T07:09:40Z</time>
      </trkpt>
      <trkpt lat="45.10612" lon="5.89502">
        <ele>1762</ele>
        <time>2015-06-20T07:09:42Z</time>
      </trkpt>
      <trkpt lat="45.1061" lon="5.89501">
        <ele>1762</ele>
        <time>2015-06-20T07:09:44Z</time>
      </trkpt>
      <trkpt lat="45.10608" lon="5.895">
        <ele>1760</ele>
        <time>2015-06-20T07:09:46Z</time>
      </trkpt>
      <trkpt lat="45.10605" lon="5.89498">
        <ele>1758</ele>
        <time>2015-06-20T07:09:48Z</time>
      </trkpt>
      <trkpt lat="45.10604" lon="5.89496">
        <ele>1758</ele>
        <time>2015-06-20T07:09:50Z</time>
      </trkpt>
      <trkpt lat="45.10603" lon="5.89493">
        <ele>1756</ele>
        <time>2015-06-20T07:09:52Z</time>
      </trkpt>
      <trkpt lat="45.10601" lon="5.8949">
        <ele>1756</ele>
        <time>2015-06-20T07:09:54Z</time>
      </trkpt>
      <trkpt lat="45.10599" lon="5.89487">
        <ele>1754</ele>
        <time>2015-06-20T07:09:56Z</time>
      </trkpt>
      <trkpt lat="45.10596" lon="5.89489">
        <ele>1754</ele>
        <time>2015-06-20T07:09:59Z</time>
      </trkpt>
      <trkpt lat="45.10593" lon="5.89491">
        <ele>1752</ele>
        <time>2015-06-20T07:10:01Z</time>
      </trkpt>
      <trkpt lat="45.1059" lon="5.89489">
        <ele>1752</ele>
        <time>2015-06-20T07:10:03Z</time>
      </trkpt>
      <trkpt lat="45.10588" lon="5.89486">
        <ele>1750</ele>
        <time>2015-06-20T07:10:05Z</time>
      </trkpt>
      <trkpt lat="45.10587" lon="5.89483">
        <ele>1749</ele>
        <time>2015-06-20T07:10:07Z</time>
      </trkpt>
      <trkpt lat="45.10587" lon="5.89479">
        <ele>1747</ele>
        <time>2015-06-20T07:10:09Z</time>
      </trkpt>
      <trkpt lat="45.10585" lon="5.89476">
        <ele>1746</ele>
        <time>2015-06-20T07:10:11Z</time>
      </trkpt>
      <trkpt lat="45.10583" lon="5.89473">
        <ele>1745</ele>
        <time>2015-06-20T07:10:13Z</time>
      </trkpt>
      <trkpt lat="45.10581" lon="5.89472">
        <ele>1745</ele>
        <time>2015-06-20T07:10:14Z</time>
      </trkpt>
      <trkpt lat="45.10579" lon="5.89469">
        <ele>1744</ele>
        <time>2015-06-20T07:10:16Z</time>
      </trkpt>
      <trkpt lat="45.1058" lon="5.89464">
        <ele>1741</ele>
        <time>2015-06-20T07:10:18Z</time>
      </trkpt>
      <trkpt lat="45.1058" lon="5.89462">
        <ele>1741</ele>
        <time>2015-06-20T07:10:19Z</time>
      </trkpt>
      <trkpt lat="45.10578" lon="5.8946">
        <ele>1741</ele>
        <time>2015-06-20T07:10:20Z</time>
      </trkpt>
      <trkpt lat="45.10576" lon="5.8946">
        <ele>1741</ele>
        <time>2015-06-20T07:10:21Z</time>
      </trkpt>
      <trkpt lat="45.10574" lon="5.8946">
        <ele>1741</ele>
        <time>2015-06-20T07:10:22Z</time>
      </trkpt>
      <trkpt lat="45.10571" lon="5.8946">
        <ele>1738</ele>
        <time>2015-06-20T07:10:23Z</time>
      </trkpt>
      <trkpt lat="45.10569" lon="5.89459">
        <ele>1738</ele>
        <time>2015-06-20T07:10:24Z</time>
      </trkpt>
      <trkpt lat="45.10567" lon="5.89457">
        <ele>1738</ele>
        <time>2015-06-20T07:10:25Z</time>
      </trkpt>
      <trkpt lat="45.10565" lon="5.89454">
        <ele>1738</ele>
        <time>2015-06-20T07:10:26Z</time>
      </trkpt>
      <trkpt lat="45.10563" lon="5.89452">
        <ele>1738</ele>
        <time>2015-06-20T07:10:27Z</time>
      </trkpt>
      <trkpt lat="45.10561" lon="5.89448">
        <ele>1738</ele>
        <time>2015-06-20T07:10:28Z</time>
      </trkpt>
      <trkpt lat="45.1056" lon="5.89445">
        <ele>1737</ele>
        <time>2015-06-20T07:10:29Z</time>
      </trkpt>
      <trkpt lat="45.1056" lon="5.89443">
        <ele>1737</ele>
        <time>2015-06-20T07:10:30Z</time>
      </trkpt>
      <trkpt lat="45.10559" lon="5.8944">
        <ele>1737</ele>
        <time>2015-06-20T07:10:31Z</time>
      </trkpt>
      <trkpt lat="45.10558" lon="5.89437">
        <ele>1737</ele>
        <time>2015-06-20T07:10:32Z</time>
      </trkpt>
      <trkpt lat="45.10556" lon="5.89434">
        <ele>1737</ele>
        <time>2015-06-20T07:10:33Z</time>
      </trkpt>
      <trkpt lat="45.10554" lon="5.89431">
        <ele>1737</ele>
        <time>2015-06-20T07:10:34Z</time>
      </trkpt>
      <trkpt lat="45.10552" lon="5.89428">
        <ele>1737</ele>
        <time>2015-06-20T07:10:35Z</time>
      </trkpt>
      <trkpt lat="45.10551" lon="5.89426">
        <ele>1737</ele>
        <time>2015-06-20T07:10:36Z</time>
      </trkpt>
      <trkpt lat="45.10549" lon="5.89424">
        <ele>1737</ele>
        <time>2015-06-20T07:10:37Z</time>
      </trkpt>
      <trkpt lat="45.10548" lon="5.89422">
        <ele>1737</ele>
        <time>2015-06-20T07:10:38Z</time>
      </trkpt>
      <trkpt lat="45.10548" lon="5.89418">
        <ele>1737</ele>
        <time>2015-06-20T07:10:39Z</time>
      </trkpt>
      <trkpt lat="45.10548" lon="5.89415">
        <ele>1737</ele>
        <time>2015-06-20T07:10:40Z</time>
      </trkpt>
      <trkpt lat="45.10547" lon="5.89409">
        <ele>1737</ele>
        <time>2015-06-20T07:10:42Z</time>
      </trkpt>
      <trkpt lat="45.10547" lon="5.89406">
        <ele>1737</ele>
        <time>2015-06-20T07:10:43Z</time>
      </trkpt>
      <trkpt lat="45.10546" lon="5.89404">
        <ele>1737</ele>
        <time>2015-06-20T07:10:44Z</time>
      </trkpt>
      <trkpt lat="45.10545" lon="5.89401">
        <ele>1737</ele>
        <time>2015-06-20T07:10:45Z</time>
      </trkpt>
      <trkpt lat="45.10543" lon="5.89398">
        <ele>1737</ele>
        <time>2015-06-20T07:10:46Z</time>
      </trkpt>
      <trkpt lat="45.10542" lon="5.89396">
        <ele>1737</ele>
        <time>2015-06-20T07:10:47Z</time>
      </trkpt>
      <trkpt lat="45.10541" lon="5.89393">
        <ele>1737</ele>
        <time>2015-06-20T07:10:48Z</time>
      </trkpt>
      <trkpt lat="45.10539" lon="5.89392">
        <ele>1737</ele>
        <time>2015-06-20T07:10:49Z</time>
      </trkpt>
      <trkpt lat="45.10537" lon="5.89391">
        <ele>1735</ele>
        <time>2015-06-20T07:10:50Z</time>
      </trkpt>
      <trkpt lat="45.10535" lon="5.89389">
        <ele>1735</ele>
        <time>2015-06-20T07:10:51Z</time>
      </trkpt>
      <trkpt lat="45.10534" lon="5.89387">
        <ele>1735</ele>
        <time>2015-06-20T07:10:52Z</time>
      </trkpt>
      <trkpt lat="45.10533" lon="5.89385">
        <ele>1735</ele>
        <time>2015-06-20T07:10:53Z</time>
      </trkpt>
      <trkpt lat="45.10531" lon="5.89383">
        <ele>1735</ele>
        <time>2015-06-20T07:10:54Z</time>
      </trkpt>
      <trkpt lat="45.10529" lon="5.8938">
        <ele>1735</ele>
        <time>2015-06-20T07:10:55Z</time>
      </trkpt>
      <trkpt lat="45.10528" lon="5.89379">
        <ele>1735</ele>
        <time>2015-06-20T07:10:56Z</time>
      </trkpt>
      <trkpt lat="45.10526" lon="5.89378">
        <ele>1735</ele>
        <time>2015-06-20T07:10:57Z</time>
      </trkpt>
      <trkpt lat="45.10523" lon="5.89377">
        <ele>1735</ele>
        <time>2015-06-20T07:10:59Z</time>
      </trkpt>
      <trkpt lat="45.10523" lon="5.89373">
        <ele>1732</ele>
        <time>2015-06-20T07:11:00Z</time>
      </trkpt>
      <trkpt lat="45.10523" lon="5.8937">
        <ele>1729</ele>
        <time>2015-06-20T07:11:01Z</time>
      </trkpt>
      <trkpt lat="45.10523" lon="5.89367">
        <ele>1729</ele>
        <time>2015-06-20T07:11:02Z</time>
      </trkpt>
      <trkpt lat="45.10523" lon="5.89364">
        <ele>1729</ele>
        <time>2015-06-20T07:11:03Z</time>
      </trkpt>
      <trkpt lat="45.10524" lon="5.8936">
        <ele>1729</ele>
        <time>2015-06-20T07:11:04Z</time>
      </trkpt>
      <trkpt lat="45.10524" lon="5.89356">
        <ele>1729</ele>
        <time>2015-06-20T07:11:05Z</time>
      </trkpt>
      <trkpt lat="45.10523" lon="5.89354">
        <ele>1729</ele>
        <time>2015-06-20T07:11:06Z</time>
      </trkpt>
      <trkpt lat="45.10521" lon="5.89351">
        <ele>1729</ele>
        <time>2015-06-20T07:11:08Z</time>
      </trkpt>
      <trkpt lat="45.10518" lon="5.89348">
        <ele>1728</ele>
        <time>2015-06-20T07:11:10Z</time>
      </trkpt>
      <trkpt lat="45.10515" lon="5.89346">
        <ele>1725</ele>
        <time>2015-06-20T07:11:12Z</time>
      </trkpt>
      <trkpt lat="45.10513" lon="5.89344">
        <ele>1725</ele>
        <time>2015-06-20T07:11:13Z</time>
      </trkpt>
      <trkpt lat="45.10512" lon="5.89341">
        <ele>1725</ele>
        <time>2015-06-20T07:11:14Z</time>
      </trkpt>
      <trkpt lat="45.1051" lon="5.89338">
        <ele>1724</ele>
        <time>2015-06-20T07:11:15Z</time>
      </trkpt>
      <trkpt lat="45.10507" lon="5.89336">
        <ele>1724</ele>
        <time>2015-06-20T07:11:16Z</time>
      </trkpt>
      <trkpt lat="45.10504" lon="5.89334">
        <ele>1724</ele>
        <time>2015-06-20T07:11:17Z</time>
      </trkpt>
      <trkpt lat="45.10501" lon="5.89331">
        <ele>1723</ele>
        <time>2015-06-20T07:11:18Z</time>
      </trkpt>
      <trkpt lat="45.10498" lon="5.89329">
        <ele>1723</ele>
        <time>2015-06-20T07:11:19Z</time>
      </trkpt>
      <trkpt lat="45.10495" lon="5.89326">
        <ele>1723</ele>
        <time>2015-06-20T07:11:20Z</time>
      </trkpt>
      <trkpt lat="45.10492" lon="5.89325">
        <ele>1723</ele>
        <time>2015-06-20T07:11:21Z</time>
      </trkpt>
      <trkpt lat="45.10489" lon="5.89323">
        <ele>1723</ele>
        <time>2015-06-20T07:11:22Z</time>
      </trkpt>
      <trkpt lat="45.10486" lon="5.89321">
        <ele>1721</ele>
        <time>2015-06-20T07:11:23Z</time>
      </trkpt>
      <trkpt lat="45.10484" lon="5.89318">
        <ele>1721</ele>
        <time>2015-06-20T07:11:24Z</time>
      </trkpt>
      <trkpt lat="45.10481" lon="5.89315">
        <ele>1721</ele>
        <time>2015-06-20T07:11:25Z</time>
      </trkpt>
      <trkpt lat="45.10479" lon="5.89313">
        <ele>1721</ele>
        <time>2015-06-20T07:11:26Z</time>
      </trkpt>
      <trkpt lat="45.10476" lon="5.89311">
        <ele>1721</ele>
        <time>2015-06-20T07:11:27Z</time>
      </trkpt>
      <trkpt lat="45.10474" lon="5.89308">
        <ele>1721</ele>
        <time>2015-06-20T07:11:28Z</time>
      </trkpt>
      <trkpt lat="45.10471" lon="5.89305">
        <ele>1718</ele>
        <time>2015-06-20T07:11:29Z</time>
      </trkpt>
      <trkpt lat="45.10469" lon="5.89303">
        <ele>1718</ele>
        <time>2015-06-20T07:11:30Z</time>
      </trkpt>
      <trkpt lat="45.10467" lon="5.893">
        <ele>1718</ele>
        <time>2015-06-20T07:11:31Z</time>
      </trkpt>
      <trkpt lat="45.10465" lon="5.89296">
        <ele>1718</ele>
        <time>2015-06-20T07:11:32Z</time>
      </trkpt>
      <trkpt lat="45.10463" lon="5.89293">
        <ele>1718</ele>
        <time>2015-06-20T07:11:33Z</time>
      </trkpt>
      <trkpt lat="45.10462" lon="5.89288">
        <ele>1717</ele>
        <time>2015-06-20T07:11:34Z</time>
      </trkpt>
      <trkpt lat="45.1046" lon="5.89285">
        <ele>1717</ele>
        <time>2015-06-20T07:11:35Z</time>
      </trkpt>
      <trkpt lat="45.10457" lon="5.89282">
        <ele>1717</ele>
        <time>2015-06-20T07:11:36Z</time>
      </trkpt>
      <trkpt lat="45.10454" lon="5.8928">
        <ele>1717</ele>
        <time>2015-06-20T07:11:37Z</time>
      </trkpt>
      <trkpt lat="45.10451" lon="5.89277">
        <ele>1717</ele>
        <time>2015-06-20T07:11:38Z</time>
      </trkpt>
      <trkpt lat="45.10447" lon="5.89275">
        <ele>1717</ele>
        <time>2015-06-20T07:11:39Z</time>
      </trkpt>
      <trkpt lat="45.10445" lon="5.89271">
        <ele>1717</ele>
        <time>2015-06-20T07:11:40Z</time>
      </trkpt>
      <trkpt lat="45.10442" lon="5.89268">
        <ele>1717</ele>
        <time>2015-06-20T07:11:41Z</time>
      </trkpt>
      <trkpt lat="45.10439" lon="5.89266">
        <ele>1717</ele>
        <time>2015-06-20T07:11:42Z</time>
      </trkpt>
      <trkpt lat="45.10436" lon="5.89264">
        <ele>1717</ele>
        <time>2015-06-20T07:11:43Z</time>
      </trkpt>
      <trkpt lat="45.10432" lon="5.89262">
        <ele>1717</ele>
        <time>2015-06-20T07:11:44Z</time>
      </trkpt>
      <trkpt lat="45.10429" lon="5.8926">
        <ele>1716</ele>
        <time>2015-06-20T07:11:45Z</time>
      </trkpt>
      <trkpt lat="45.10426" lon="5.89258">
        <ele>1716</ele>
        <time>2015-06-20T07:11:46Z</time>
      </trkpt>
      <trkpt lat="45.10423" lon="5.89257">
        <ele>1716</ele>
        <time>2015-06-20T07:11:47Z</time>
      </trkpt>
      <trkpt lat="45.1042" lon="5.89256">
        <ele>1716</ele>
        <time>2015-06-20T07:11:48Z</time>
      </trkpt>
      <trkpt lat="45.10417" lon="5.89254">
        <ele>1716</ele>
        <time>2015-06-20T07:11:49Z</time>
      </trkpt>
      <trkpt lat="45.10415" lon="5.89252">
        <ele>1716</ele>
        <time>2015-06-20T07:11:50Z</time>
      </trkpt>
      <trkpt lat="45.10412" lon="5.89251">
        <ele>1716</ele>
        <time>2015-06-20T07:11:51Z</time>
      </trkpt>
      <trkpt lat="45.1041" lon="5.89251">
        <ele>1716</ele>
        <time>2015-06-20T07:11:52Z</time>
      </trkpt>
      <trkpt lat="45.10407" lon="5.8925">
        <ele>1716</ele>
        <time>2015-06-20T07:11:53Z</time>
      </trkpt>
      <trkpt lat="45.10404" lon="5.89251">
        <ele>1714</ele>
        <time>2015-06-20T07:11:54Z</time>
      </trkpt>
      <trkpt lat="45.104" lon="5.89251">
        <ele>1714</ele>
        <time>2015-06-20T07:11:55Z</time>
      </trkpt>
      <trkpt lat="45.10398" lon="5.89251">
        <ele>1714</ele>
        <time>2015-06-20T07:11:56Z</time>
      </trkpt>
      <trkpt lat="45.10394" lon="5.89251">
        <ele>1714</ele>
        <time>2015-06-20T07:11:58Z</time>
      </trkpt>
      <trkpt lat="45.10391" lon="5.89251">
        <ele>1714</ele>
        <time>2015-06-20T07:11:59Z</time>
      </trkpt>
      <trkpt lat="45.10388" lon="5.8925">
        <ele>1714</ele>
        <time>2015-06-20T07:12:00Z</time>
      </trkpt>
      <trkpt lat="45.10384" lon="5.8925">
        <ele>1711</ele>
        <time>2015-06-20T07:12:01Z</time>
      </trkpt>
      <trkpt lat="45.10379" lon="5.89249">
        <ele>1711</ele>
        <time>2015-06-20T07:12:02Z</time>
      </trkpt>
      <trkpt lat="45.10376" lon="5.89249">
        <ele>1711</ele>
        <time>2015-06-20T07:12:03Z</time>
      </trkpt>
      <trkpt lat="45.10372" lon="5.89248">
        <ele>1711</ele>
        <time>2015-06-20T07:12:04Z</time>
      </trkpt>
      <trkpt lat="45.10368" lon="5.89248">
        <ele>1709</ele>
        <time>2015-06-20T07:12:05Z</time>
      </trkpt>
      <trkpt lat="45.10364" lon="5.89247">
        <ele>1708</ele>
        <time>2015-06-20T07:12:06Z</time>
      </trkpt>
      <trkpt lat="45.1036" lon="5.89247">
        <ele>1708</ele>
        <time>2015-06-20T07:12:07Z</time>
      </trkpt>
      <trkpt lat="45.10357" lon="5.89246">
        <ele>1708</ele>
        <time>2015-06-20T07:12:08Z</time>
      </trkpt>
      <trkpt lat="45.10354" lon="5.89245">
        <ele>1706</ele>
        <time>2015-06-20T07:12:09Z</time>
      </trkpt>
      <trkpt lat="45.10351" lon="5.89244">
        <ele>1705</ele>
        <time>2015-06-20T07:12:10Z</time>
      </trkpt>
      <trkpt lat="45.10348" lon="5.89243">
        <ele>1705</ele>
        <time>2015-06-20T07:12:11Z</time>
      </trkpt>
      <trkpt lat="45.10346" lon="5.8924">
        <ele>1705</ele>
        <time>2015-06-20T07:12:12Z</time>
      </trkpt>
      <trkpt lat="45.10345" lon="5.89237">
        <ele>1705</ele>
        <time>2015-06-20T07:12:13Z</time>
      </trkpt>
      <trkpt lat="45.10343" lon="5.89236">
        <ele>1705</ele>
        <time>2015-06-20T07:12:14Z</time>
      </trkpt>
      <trkpt lat="45.10341" lon="5.89236">
        <ele>1704</ele>
        <time>2015-06-20T07:12:15Z</time>
      </trkpt>
      <trkpt lat="45.10339" lon="5.89236">
        <ele>1704</ele>
        <time>2015-06-20T07:12:16Z</time>
      </trkpt>
      <trkpt lat="45.10336" lon="5.89236">
        <ele>1702</ele>
        <time>2015-06-20T07:12:17Z</time>
      </trkpt>
      <trkpt lat="45.10334" lon="5.89235">
        <ele>1701</ele>
        <time>2015-06-20T07:12:18Z</time>
      </trkpt>
      <trkpt lat="45.10332" lon="5.89235">
        <ele>1701</ele>
        <time>2015-06-20T07:12:19Z</time>
      </trkpt>
      <trkpt lat="45.1033" lon="5.89233">
        <ele>1700</ele>
        <time>2015-06-20T07:12:20Z</time>
      </trkpt>
      <trkpt lat="45.10328" lon="5.89231">
        <ele>1700</ele>
        <time>2015-06-20T07:12:21Z</time>
      </trkpt>
      <trkpt lat="45.10327" lon="5.89228">
        <ele>1698</ele>
        <time>2015-06-20T07:12:22Z</time>
      </trkpt>
      <trkpt lat="45.10325" lon="5.89225">
        <ele>1698</ele>
        <time>2015-06-20T07:12:23Z</time>
      </trkpt>
      <trkpt lat="45.10323" lon="5.89222">
        <ele>1698</ele>
        <time>2015-06-20T07:12:24Z</time>
      </trkpt>
      <trkpt lat="45.10322" lon="5.89219">
        <ele>1698</ele>
        <time>2015-06-20T07:12:25Z</time>
      </trkpt>
      <trkpt lat="45.1032" lon="5.89216">
        <ele>1696</ele>
        <time>2015-06-20T07:12:26Z</time>
      </trkpt>
      <trkpt lat="45.10319" lon="5.89214">
        <ele>1695</ele>
        <time>2015-06-20T07:12:27Z</time>
      </trkpt>
      <trkpt lat="45.10318" lon="5.89211">
        <ele>1693</ele>
        <time>2015-06-20T07:12:28Z</time>
      </trkpt>
      <trkpt lat="45.10316" lon="5.89209">
        <ele>1692</ele>
        <time>2015-06-20T07:12:29Z</time>
      </trkpt>
      <trkpt lat="45.10314" lon="5.89206">
        <ele>1692</ele>
        <time>2015-06-20T07:12:30Z</time>
      </trkpt>
      <trkpt lat="45.10312" lon="5.89204">
        <ele>1692</ele>
        <time>2015-06-20T07:12:31Z</time>
      </trkpt>
      <trkpt lat="45.1031" lon="5.89201">
        <ele>1692</ele>
        <time>2015-06-20T07:12:32Z</time>
      </trkpt>
      <trkpt lat="45.10308" lon="5.89198">
        <ele>1692</ele>
        <time>2015-06-20T07:12:33Z</time>
      </trkpt>
      <trkpt lat="45.10305" lon="5.89195">
        <ele>1690</ele>
        <time>2015-06-20T07:12:34Z</time>
      </trkpt>
      <trkpt lat="45.10302" lon="5.89192">
        <ele>1690</ele>
        <time>2015-06-20T07:12:35Z</time>
      </trkpt>
      <trkpt lat="45.10298" lon="5.8919">
        <ele>1690</ele>
        <time>2015-06-20T07:12:36Z</time>
      </trkpt>
      <trkpt lat="45.10294" lon="5.89187">
        <ele>1689</ele>
        <time>2015-06-20T07:12:37Z</time>
      </trkpt>
      <trkpt lat="45.10291" lon="5.89185">
        <ele>1689</ele>
        <time>2015-06-20T07:12:38Z</time>
      </trkpt>
      <trkpt lat="45.10289" lon="5.89182">
        <ele>1689</ele>
        <time>2015-06-20T07:12:39Z</time>
      </trkpt>
      <trkpt lat="45.10287" lon="5.89179">
        <ele>1689</ele>
        <time>2015-06-20T07:12:40Z</time>
      </trkpt>
      <trkpt lat="45.10284" lon="5.89175">
        <ele>1689</ele>
        <time>2015-06-20T07:12:41Z</time>
      </trkpt>
      <trkpt lat="45.10283" lon="5.89172">
        <ele>1688</ele>
        <time>2015-06-20T07:12:42Z</time>
      </trkpt>
      <trkpt lat="45.1028" lon="5.89167">
        <ele>1688</ele>
        <time>2015-06-20T07:12:43Z</time>
      </trkpt>
      <trkpt lat="45.10277" lon="5.89164">
        <ele>1687</ele>
        <time>2015-06-20T07:12:44Z</time>
      </trkpt>
      <trkpt lat="45.10275" lon="5.89159">
        <ele>1687</ele>
        <time>2015-06-20T07:12:45Z</time>
      </trkpt>
      <trkpt lat="45.10273" lon="5.89154">
        <ele>1687</ele>
        <time>2015-06-20T07:12:46Z</time>
      </trkpt>
      <trkpt lat="45.10272" lon="5.89149">
        <ele>1687</ele>
        <time>2015-06-20T07:12:47Z</time>
      </trkpt>
      <trkpt lat="45.1027" lon="5.89145">
        <ele>1687</ele>
        <time>2015-06-20T07:12:48Z</time>
      </trkpt>
      <trkpt lat="45.10268" lon="5.8914">
        <ele>1687</ele>
        <time>2015-06-20T07:12:49Z</time>
      </trkpt>
      <trkpt lat="45.10266" lon="5.89136">
        <ele>1686</ele>
        <time>2015-06-20T07:12:50Z</time>
      </trkpt>
      <trkpt lat="45.10264" lon="5.8913">
        <ele>1686</ele>
        <time>2015-06-20T07:12:51Z</time>
      </trkpt>
      <trkpt lat="45.10263" lon="5.89123">
        <ele>1686</ele>
        <time>2015-06-20T07:12:52Z</time>
      </trkpt>
      <trkpt lat="45.10262" lon="5.89116">
        <ele>1686</ele>
        <time>2015-06-20T07:12:53Z</time>
      </trkpt>
      <trkpt lat="45.1026" lon="5.89109">
        <ele>1684</ele>
        <time>2015-06-20T07:12:54Z</time>
      </trkpt>
      <trkpt lat="45.10258" lon="5.89104">
        <ele>1684</ele>
        <time>2015-06-20T07:12:55Z</time>
      </trkpt>
      <trkpt lat="45.10256" lon="5.89098">
        <ele>1684</ele>
        <time>2015-06-20T07:12:56Z</time>
      </trkpt>
      <trkpt lat="45.10255" lon="5.89092">
        <ele>1684</ele>
        <time>2015-06-20T07:12:57Z</time>
      </trkpt>
      <trkpt lat="45.10253" lon="5.89088">
        <ele>1684</ele>
        <time>2015-06-20T07:12:58Z</time>
      </trkpt>
      <trkpt lat="45.10252" lon="5.89083">
        <ele>1684</ele>
        <time>2015-06-20T07:12:59Z</time>
      </trkpt>
      <trkpt lat="45.10251" lon="5.8908">
        <ele>1682</ele>
        <time>2015-06-20T07:13:00Z</time>
      </trkpt>
      <trkpt lat="45.10249" lon="5.89076">
        <ele>1680</ele>
        <time>2015-06-20T07:13:01Z</time>
      </trkpt>
      <trkpt lat="45.10248" lon="5.89073">
        <ele>1680</ele>
        <time>2015-06-20T07:13:02Z</time>
      </trkpt>
      <trkpt lat="45.10247" lon="5.8907">
        <ele>1680</ele>
        <time>2015-06-20T07:13:03Z</time>
      </trkpt>
      <trkpt lat="45.10246" lon="5.89067">
        <ele>1680</ele>
        <time>2015-06-20T07:13:04Z</time>
      </trkpt>
      <trkpt lat="45.10245" lon="5.89064">
        <ele>1680</ele>
        <time>2015-06-20T07:13:05Z</time>
      </trkpt>
      <trkpt lat="45.10244" lon="5.8906">
        <ele>1680</ele>
        <time>2015-06-20T07:13:06Z</time>
      </trkpt>
      <trkpt lat="45.10242" lon="5.89055">
        <ele>1681</ele>
        <time>2015-06-20T07:13:07Z</time>
      </trkpt>
      <trkpt lat="45.1024" lon="5.8905">
        <ele>1681</ele>
        <time>2015-06-20T07:13:08Z</time>
      </trkpt>
      <trkpt lat="45.10239" lon="5.89046">
        <ele>1681</ele>
        <time>2015-06-20T07:13:09Z</time>
      </trkpt>
      <trkpt lat="45.10238" lon="5.89041">
        <ele>1681</ele>
        <time>2015-06-20T07:13:10Z</time>
      </trkpt>
      <trkpt lat="45.10237" lon="5.89036">
        <ele>1681</ele>
        <time>2015-06-20T07:13:11Z</time>
      </trkpt>
      <trkpt lat="45.10235" lon="5.89031">
        <ele>1681</ele>
        <time>2015-06-20T07:13:12Z</time>
      </trkpt>
      <trkpt lat="45.10234" lon="5.89027">
        <ele>1681</ele>
        <time>2015-06-20T07:13:13Z</time>
      </trkpt>
      <trkpt lat="45.10234" lon="5.89024">
        <ele>1681</ele>
        <time>2015-06-20T07:13:14Z</time>
      </trkpt>
      <trkpt lat="45.10233" lon="5.89021">
        <ele>1681</ele>
        <time>2015-06-20T07:13:15Z</time>
      </trkpt>
      <trkpt lat="45.10231" lon="5.89018">
        <ele>1681</ele>
        <time>2015-06-20T07:13:16Z</time>
      </trkpt>
      <trkpt lat="45.10229" lon="5.89016">
        <ele>1681</ele>
        <time>2015-06-20T07:13:17Z</time>
      </trkpt>
      <trkpt lat="45.10227" lon="5.89014">
        <ele>1682</ele>
        <time>2015-06-20T07:13:18Z</time>
      </trkpt>
      <trkpt lat="45.10225" lon="5.89011">
        <ele>1682</ele>
        <time>2015-06-20T07:13:19Z</time>
      </trkpt>
      <trkpt lat="45.10223" lon="5.89009">
        <ele>1682</ele>
        <time>2015-06-20T07:13:20Z</time>
      </trkpt>
      <trkpt lat="45.10221" lon="5.89006">
        <ele>1682</ele>
        <time>2015-06-20T07:13:21Z</time>
      </trkpt>
      <trkpt lat="45.10219" lon="5.89002">
        <ele>1682</ele>
        <time>2015-06-20T07:13:22Z</time>
      </trkpt>
      <trkpt lat="45.10217" lon="5.88998">
        <ele>1682</ele>
        <time>2015-06-20T07:13:23Z</time>
      </trkpt>
      <trkpt lat="45.10216" lon="5.88995">
        <ele>1682</ele>
        <time>2015-06-20T07:13:24Z</time>
      </trkpt>
      <trkpt lat="45.10214" lon="5.88991">
        <ele>1682</ele>
        <time>2015-06-20T07:13:25Z</time>
      </trkpt>
      <trkpt lat="45.10212" lon="5.88988">
        <ele>1682</ele>
        <time>2015-06-20T07:13:26Z</time>
      </trkpt>
      <trkpt lat="45.1021" lon="5.88985">
        <ele>1682</ele>
        <time>2015-06-20T07:13:27Z</time>
      </trkpt>
      <trkpt lat="45.10207" lon="5.88984">
        <ele>1680</ele>
        <time>2015-06-20T07:13:28Z</time>
      </trkpt>
      <trkpt lat="45.10205" lon="5.88982">
        <ele>1680</ele>
        <time>2015-06-20T07:13:29Z</time>
      </trkpt>
      <trkpt lat="45.10202" lon="5.88979">
        <ele>1680</ele>
        <time>2015-06-20T07:13:30Z</time>
      </trkpt>
      <trkpt lat="45.102" lon="5.88976">
        <ele>1680</ele>
        <time>2015-06-20T07:13:31Z</time>
      </trkpt>
      <trkpt lat="45.10198" lon="5.88974">
        <ele>1680</ele>
        <time>2015-06-20T07:13:32Z</time>
      </trkpt>
      <trkpt lat="45.10195" lon="5.88973">
        <ele>1680</ele>
        <time>2015-06-20T07:13:33Z</time>
      </trkpt>
      <trkpt lat="45.10192" lon="5.88972">
        <ele>1680</ele>
        <time>2015-06-20T07:13:34Z</time>
      </trkpt>
      <trkpt lat="45.1019" lon="5.88971">
        <ele>1680</ele>
        <time>2015-06-20T07:13:35Z</time>
      </trkpt>
      <trkpt lat="45.10187" lon="5.88968">
        <ele>1680</ele>
        <time>2015-06-20T07:13:36Z</time>
      </trkpt>
      <trkpt lat="45.10185" lon="5.88965">
        <ele>1676</ele>
        <time>2015-06-20T07:13:37Z</time>
      </trkpt>
      <trkpt lat="45.10183" lon="5.88963">
        <ele>1676</ele>
        <time>2015-06-20T07:13:38Z</time>
      </trkpt>
      <trkpt lat="45.1018" lon="5.8896">
        <ele>1676</ele>
        <time>2015-06-20T07:13:39Z</time>
      </trkpt>
      <trkpt lat="45.10178" lon="5.88956">
        <ele>1676</ele>
        <time>2015-06-20T07:13:40Z</time>
      </trkpt>
      <trkpt lat="45.10176" lon="5.88952">
        <ele>1672</ele>
        <time>2015-06-20T07:13:41Z</time>
      </trkpt>
      <trkpt lat="45.10174" lon="5.88948">
        <ele>1672</ele>
        <time>2015-06-20T07:13:42Z</time>
      </trkpt>
      <trkpt lat="45.10174" lon="5.88944">
        <ele>1672</ele>
        <time>2015-06-20T07:13:43Z</time>
      </trkpt>
      <trkpt lat="45.10174" lon="5.88939">
        <ele>1672</ele>
        <time>2015-06-20T07:13:44Z</time>
      </trkpt>
      <trkpt lat="45.10175" lon="5.88934">
        <ele>1672</ele>
        <time>2015-06-20T07:13:45Z</time>
      </trkpt>
      <trkpt lat="45.10176" lon="5.88929">
        <ele>1672</ele>
        <time>2015-06-20T07:13:46Z</time>
      </trkpt>
      <trkpt lat="45.10176" lon="5.88925">
        <ele>1672</ele>
        <time>2015-06-20T07:13:47Z</time>
      </trkpt>
      <trkpt lat="45.10176" lon="5.8892">
        <ele>1670</ele>
        <time>2015-06-20T07:13:48Z</time>
      </trkpt>
      <trkpt lat="45.10175" lon="5.88918">
        <ele>1670</ele>
        <time>2015-06-20T07:13:49Z</time>
      </trkpt>
      <trkpt lat="45.10175" lon="5.88914">
        <ele>1668</ele>
        <time>2015-06-20T07:13:50Z</time>
      </trkpt>
      <trkpt lat="45.10174" lon="5.88911">
        <ele>1668</ele>
        <time>2015-06-20T07:13:51Z</time>
      </trkpt>
      <trkpt lat="45.10173" lon="5.88908">
        <ele>1666</ele>
        <time>2015-06-20T07:13:52Z</time>
      </trkpt>
      <trkpt lat="45.10172" lon="5.88905">
        <ele>1666</ele>
        <time>2015-06-20T07:13:53Z</time>
      </trkpt>
      <trkpt lat="45.10171" lon="5.88903">
        <ele>1666</ele>
        <time>2015-06-20T07:13:54Z</time>
      </trkpt>
      <trkpt lat="45.10169" lon="5.889">
        <ele>1666</ele>
        <time>2015-06-20T07:13:55Z</time>
      </trkpt>
      <trkpt lat="45.10168" lon="5.88897">
        <ele>1664</ele>
        <time>2015-06-20T07:13:56Z</time>
      </trkpt>
      <trkpt lat="45.10166" lon="5.88895">
        <ele>1664</ele>
        <time>2015-06-20T07:13:57Z</time>
      </trkpt>
      <trkpt lat="45.10164" lon="5.88894">
        <ele>1662</ele>
        <time>2015-06-20T07:13:58Z</time>
      </trkpt>
      <trkpt lat="45.10162" lon="5.88892">
        <ele>1662</ele>
        <time>2015-06-20T07:13:59Z</time>
      </trkpt>
      <trkpt lat="45.1016" lon="5.8889">
        <ele>1660</ele>
        <time>2015-06-20T07:14:00Z</time>
      </trkpt>
      <trkpt lat="45.10158" lon="5.88889">
        <ele>1660</ele>
        <time>2015-06-20T07:14:01Z</time>
      </trkpt>
      <trkpt lat="45.10155" lon="5.88887">
        <ele>1660</ele>
        <time>2015-06-20T07:14:02Z</time>
      </trkpt>
      <trkpt lat="45.10152" lon="5.88885">
        <ele>1660</ele>
        <time>2015-06-20T07:14:03Z</time>
      </trkpt>
      <trkpt lat="45.10149" lon="5.88883">
        <ele>1660</ele>
        <time>2015-06-20T07:14:04Z</time>
      </trkpt>
      <trkpt lat="45.10147" lon="5.8888">
        <ele>1660</ele>
        <time>2015-06-20T07:14:05Z</time>
      </trkpt>
      <trkpt lat="45.10145" lon="5.88876">
        <ele>1658</ele>
        <time>2015-06-20T07:14:06Z</time>
      </trkpt>
      <trkpt lat="45.10142" lon="5.88872">
        <ele>1658</ele>
        <time>2015-06-20T07:14:07Z</time>
      </trkpt>
      <trkpt lat="45.1014" lon="5.88868">
        <ele>1658</ele>
        <time>2015-06-20T07:14:08Z</time>
      </trkpt>
      <trkpt lat="45.10137" lon="5.88865">
        <ele>1657</ele>
        <time>2015-06-20T07:14:09Z</time>
      </trkpt>
      <trkpt lat="45.10135" lon="5.88862">
        <ele>1657</ele>
        <time>2015-06-20T07:14:10Z</time>
      </trkpt>
      <trkpt lat="45.10131" lon="5.88858">
        <ele>1657</ele>
        <time>2015-06-20T07:14:11Z</time>
      </trkpt>
      <trkpt lat="45.10128" lon="5.88855">
        <ele>1656</ele>
        <time>2015-06-20T07:14:12Z</time>
      </trkpt>
      <trkpt lat="45.10126" lon="5.88852">
        <ele>1656</ele>
        <time>2015-06-20T07:14:13Z</time>
      </trkpt>
      <trkpt lat="45.10124" lon="5.88849">
        <ele>1656</ele>
        <time>2015-06-20T07:14:14Z</time>
      </trkpt>
      <trkpt lat="45.10122" lon="5.88846">
        <ele>1656</ele>
        <time>2015-06-20T07:14:15Z</time>
      </trkpt>
      <trkpt lat="45.10119" lon="5.88843">
        <ele>1656</ele>
        <time>2015-06-20T07:14:16Z</time>
      </trkpt>
      <trkpt lat="45.10118" lon="5.8884">
        <ele>1655</ele>
        <time>2015-06-20T07:14:17Z</time>
      </trkpt>
      <trkpt lat="45.10115" lon="5.88837">
        <ele>1655</ele>
        <time>2015-06-20T07:14:18Z</time>
      </trkpt>
      <trkpt lat="45.10113" lon="5.88834">
        <ele>1655</ele>
        <time>2015-06-20T07:14:19Z</time>
      </trkpt>
      <trkpt lat="45.10111" lon="5.88831">
        <ele>1655</ele>
        <time>2015-06-20T07:14:20Z</time>
      </trkpt>
      <trkpt lat="45.10108" lon="5.88828">
        <ele>1655</ele>
        <time>2015-06-20T07:14:21Z</time>
      </trkpt>
      <trkpt lat="45.10107" lon="5.88825">
        <ele>1655</ele>
        <time>2015-06-20T07:14:22Z</time>
      </trkpt>
      <trkpt lat="45.10105" lon="5.88822">
        <ele>1655</ele>
        <time>2015-06-20T07:14:23Z</time>
      </trkpt>
      <trkpt lat="45.10103" lon="5.88819">
        <ele>1655</ele>
        <time>2015-06-20T07:14:24Z</time>
      </trkpt>
      <trkpt lat="45.10102" lon="5.88816">
        <ele>1655</ele>
        <time>2015-06-20T07:14:25Z</time>
      </trkpt>
      <trkpt lat="45.10101" lon="5.88811">
        <ele>1655</ele>
        <time>2015-06-20T07:14:26Z</time>
      </trkpt>
      <trkpt lat="45.10098" lon="5.88806">
        <ele>1655</ele>
        <time>2015-06-20T07:14:27Z</time>
      </trkpt>
      <trkpt lat="45.10095" lon="5.88803">
        <ele>1655</ele>
        <time>2015-06-20T07:14:28Z</time>
      </trkpt>
      <trkpt lat="45.10093" lon="5.888">
        <ele>1655</ele>
        <time>2015-06-20T07:14:29Z</time>
      </trkpt>
      <trkpt lat="45.10092" lon="5.88797">
        <ele>1653</ele>
        <time>2015-06-20T07:14:30Z</time>
      </trkpt>
      <trkpt lat="45.1009" lon="5.88795">
        <ele>1653</ele>
        <time>2015-06-20T07:14:31Z</time>
      </trkpt>
      <trkpt lat="45.10087" lon="5.88793">
        <ele>1653</ele>
        <time>2015-06-20T07:14:32Z</time>
      </trkpt>
      <trkpt lat="45.10084" lon="5.88788">
        <ele>1653</ele>
        <time>2015-06-20T07:14:33Z</time>
      </trkpt>
      <trkpt lat="45.10083" lon="5.88782">
        <ele>1653</ele>
        <time>2015-06-20T07:14:34Z</time>
      </trkpt>
      <trkpt lat="45.10081" lon="5.88776">
        <ele>1653</ele>
        <time>2015-06-20T07:14:35Z</time>
      </trkpt>
      <trkpt lat="45.1008" lon="5.8877">
        <ele>1653</ele>
        <time>2015-06-20T07:14:36Z</time>
      </trkpt>
      <trkpt lat="45.10079" lon="5.88765">
        <ele>1653</ele>
        <time>2015-06-20T07:14:37Z</time>
      </trkpt>
      <trkpt lat="45.10077" lon="5.8876">
        <ele>1653</ele>
        <time>2015-06-20T07:14:38Z</time>
      </trkpt>
      <trkpt lat="45.10075" lon="5.88756">
        <ele>1653</ele>
        <time>2015-06-20T07:14:39Z</time>
      </trkpt>
      <trkpt lat="45.10073" lon="5.88751">
        <ele>1650</ele>
        <time>2015-06-20T07:14:40Z</time>
      </trkpt>
      <trkpt lat="45.10071" lon="5.88748">
        <ele>1650</ele>
        <time>2015-06-20T07:14:41Z</time>
      </trkpt>
      <trkpt lat="45.10069" lon="5.88745">
        <ele>1650</ele>
        <time>2015-06-20T07:14:42Z</time>
      </trkpt>
      <trkpt lat="45.10068" lon="5.88742">
        <ele>1650</ele>
        <time>2015-06-20T07:14:43Z</time>
      </trkpt>
      <trkpt lat="45.10065" lon="5.8874">
        <ele>1650</ele>
        <time>2015-06-20T07:14:44Z</time>
      </trkpt>
      <trkpt lat="45.10062" lon="5.88737">
        <ele>1649</ele>
        <time>2015-06-20T07:14:45Z</time>
      </trkpt>
      <trkpt lat="45.10058" lon="5.88734">
        <ele>1649</ele>
        <time>2015-06-20T07:14:46Z</time>
      </trkpt>
      <trkpt lat="45.10054" lon="5.88732">
        <ele>1649</ele>
        <time>2015-06-20T07:14:47Z</time>
      </trkpt>
      <trkpt lat="45.10049" lon="5.88731">
        <ele>1649</ele>
        <time>2015-06-20T07:14:48Z</time>
      </trkpt>
      <trkpt lat="45.10046" lon="5.88729">
        <ele>1649</ele>
        <time>2015-06-20T07:14:49Z</time>
      </trkpt>
      <trkpt lat="45.10042" lon="5.88727">
        <ele>1649</ele>
        <time>2015-06-20T07:14:50Z</time>
      </trkpt>
      <trkpt lat="45.10039" lon="5.88724">
        <ele>1649</ele>
        <time>2015-06-20T07:14:51Z</time>
      </trkpt>
      <trkpt lat="45.10036" lon="5.88721">
        <ele>1649</ele>
        <time>2015-06-20T07:14:52Z</time>
      </trkpt>
      <trkpt lat="45.10032" lon="5.88718">
        <ele>1649</ele>
        <time>2015-06-20T07:14:53Z</time>
      </trkpt>
      <trkpt lat="45.10029" lon="5.88713">
        <ele>1648</ele>
        <time>2015-06-20T07:14:54Z</time>
      </trkpt>
      <trkpt lat="45.10027" lon="5.88708">
        <ele>1648</ele>
        <time>2015-06-20T07:14:55Z</time>
      </trkpt>
      <trkpt lat="45.10026" lon="5.88702">
        <ele>1648</ele>
        <time>2015-06-20T07:14:56Z</time>
      </trkpt>
      <trkpt lat="45.10025" lon="5.88697">
        <ele>1648</ele>
        <time>2015-06-20T07:14:57Z</time>
      </trkpt>
      <trkpt lat="45.10024" lon="5.88692">
        <ele>1648</ele>
        <time>2015-06-20T07:14:58Z</time>
      </trkpt>
      <trkpt lat="45.10022" lon="5.88688">
        <ele>1648</ele>
        <time>2015-06-20T07:14:59Z</time>
      </trkpt>
      <trkpt lat="45.10021" lon="5.88684">
        <ele>1648</ele>
        <time>2015-06-20T07:15:00Z</time>
      </trkpt>
      <trkpt lat="45.10019" lon="5.8868">
        <ele>1646</ele>
        <time>2015-06-20T07:15:01Z</time>
      </trkpt>
      <trkpt lat="45.10018" lon="5.88676">
        <ele>1646</ele>
        <time>2015-06-20T07:15:02Z</time>
      </trkpt>
      <trkpt lat="45.10016" lon="5.88673">
        <ele>1646</ele>
        <time>2015-06-20T07:15:03Z</time>
      </trkpt>
      <trkpt lat="45.10014" lon="5.8867">
        <ele>1646</ele>
        <time>2015-06-20T07:15:04Z</time>
      </trkpt>
      <trkpt lat="45.10012" lon="5.88666">
        <ele>1646</ele>
        <time>2015-06-20T07:15:05Z</time>
      </trkpt>
      <trkpt lat="45.1001" lon="5.88662">
        <ele>1646</ele>
        <time>2015-06-20T07:15:06Z</time>
      </trkpt>
      <trkpt lat="45.10008" lon="5.88658">
        <ele>1646</ele>
        <time>2015-06-20T07:15:07Z</time>
      </trkpt>
      <trkpt lat="45.10006" lon="5.88654">
        <ele>1646</ele>
        <time>2015-06-20T07:15:08Z</time>
      </trkpt>
      <trkpt lat="45.10003" lon="5.8865">
        <ele>1646</ele>
        <time>2015-06-20T07:15:09Z</time>
      </trkpt>
      <trkpt lat="45.1" lon="5.88645">
        <ele>1646</ele>
        <time>2015-06-20T07:15:10Z</time>
      </trkpt>
      <trkpt lat="45.09997" lon="5.88641">
        <ele>1646</ele>
        <time>2015-06-20T07:15:11Z</time>
      </trkpt>
      <trkpt lat="45.09994" lon="5.88638">
        <ele>1646</ele>
        <time>2015-06-20T07:15:12Z</time>
      </trkpt>
      <trkpt lat="45.09992" lon="5.88634">
        <ele>1644</ele>
        <time>2015-06-20T07:15:13Z</time>
      </trkpt>
      <trkpt lat="45.0999" lon="5.8863">
        <ele>1644</ele>
        <time>2015-06-20T07:15:14Z</time>
      </trkpt>
      <trkpt lat="45.09988" lon="5.88626">
        <ele>1644</ele>
        <time>2015-06-20T07:15:15Z</time>
      </trkpt>
      <trkpt lat="45.09986" lon="5.88622">
        <ele>1644</ele>
        <time>2015-06-20T07:15:16Z</time>
      </trkpt>
      <trkpt lat="45.09984" lon="5.88618">
        <ele>1644</ele>
        <time>2015-06-20T07:15:17Z</time>
      </trkpt>
      <trkpt lat="45.09982" lon="5.88615">
        <ele>1642</ele>
        <time>2015-06-20T07:15:18Z</time>
      </trkpt>
      <trkpt lat="45.09979" lon="5.88612">
        <ele>1642</ele>
        <time>2015-06-20T07:15:19Z</time>
      </trkpt>
      <trkpt lat="45.09977" lon="5.8861">
        <ele>1642</ele>
        <time>2015-06-20T07:15:20Z</time>
      </trkpt>
      <trkpt lat="45.09975" lon="5.88607">
        <ele>1642</ele>
        <time>2015-06-20T07:15:21Z</time>
      </trkpt>
      <trkpt lat="45.09973" lon="5.88603">
        <ele>1642</ele>
        <time>2015-06-20T07:15:22Z</time>
      </trkpt>
      <trkpt lat="45.09971" lon="5.886">
        <ele>1642</ele>
        <time>2015-06-20T07:15:23Z</time>
      </trkpt>
      <trkpt lat="45.09969" lon="5.88596">
        <ele>1642</ele>
        <time>2015-06-20T07:15:24Z</time>
      </trkpt>
      <trkpt lat="45.09966" lon="5.88592">
        <ele>1642</ele>
        <time>2015-06-20T07:15:25Z</time>
      </trkpt>
      <trkpt lat="45.09963" lon="5.88589">
        <ele>1642</ele>
        <time>2015-06-20T07:15:26Z</time>
      </trkpt>
      <trkpt lat="45.09961" lon="5.88586">
        <ele>1642</ele>
        <time>2015-06-20T07:15:27Z</time>
      </trkpt>
      <trkpt lat="45.09959" lon="5.88583">
        <ele>1642</ele>
        <time>2015-06-20T07:15:28Z</time>
      </trkpt>
      <trkpt lat="45.09956" lon="5.8858">
        <ele>1642</ele>
        <time>2015-06-20T07:15:29Z</time>
      </trkpt>
      <trkpt lat="45.09954" lon="5.88577">
        <ele>1642</ele>
        <time>2015-06-20T07:15:30Z</time>
      </trkpt>
      <trkpt lat="45.09951" lon="5.88574">
        <ele>1642</ele>
        <time>2015-06-20T07:15:31Z</time>
      </trkpt>
      <trkpt lat="45.09948" lon="5.8857">
        <ele>1642</ele>
        <time>2015-06-20T07:15:32Z</time>
      </trkpt>
      <trkpt lat="45.09945" lon="5.88567">
        <ele>1641</ele>
        <time>2015-06-20T07:15:33Z</time>
      </trkpt>
      <trkpt lat="45.09942" lon="5.88564">
        <ele>1641</ele>
        <time>2015-06-20T07:15:34Z</time>
      </trkpt>
      <trkpt lat="45.09939" lon="5.88561">
        <ele>1641</ele>
        <time>2015-06-20T07:15:35Z</time>
      </trkpt>
      <trkpt lat="45.09936" lon="5.88557">
        <ele>1641</ele>
        <time>2015-06-20T07:15:36Z</time>
      </trkpt>
      <trkpt lat="45.09933" lon="5.88553">
        <ele>1641</ele>
        <time>2015-06-20T07:15:37Z</time>
      </trkpt>
      <trkpt lat="45.0993" lon="5.8855">
        <ele>1641</ele>
        <time>2015-06-20T07:15:38Z</time>
      </trkpt>
      <trkpt lat="45.09928" lon="5.88546">
        <ele>1641</ele>
        <time>2015-06-20T07:15:39Z</time>
      </trkpt>
      <trkpt lat="45.09926" lon="5.88542">
        <ele>1641</ele>
        <time>2015-06-20T07:15:40Z</time>
      </trkpt>
      <trkpt lat="45.09924" lon="5.88538">
        <ele>1641</ele>
        <time>2015-06-20T07:15:41Z</time>
      </trkpt>
      <trkpt lat="45.09922" lon="5.88534">
        <ele>1638</ele>
        <time>2015-06-20T07:15:42Z</time>
      </trkpt>
      <trkpt lat="45.0992" lon="5.8853">
        <ele>1638</ele>
        <time>2015-06-20T07:15:43Z</time>
      </trkpt>
      <trkpt lat="45.09918" lon="5.88527">
        <ele>1638</ele>
        <time>2015-06-20T07:15:44Z</time>
      </trkpt>
      <trkpt lat="45.09915" lon="5.88524">
        <ele>1638</ele>
        <time>2015-06-20T07:15:45Z</time>
      </trkpt>
      <trkpt lat="45.09912" lon="5.88522">
        <ele>1638</ele>
        <time>2015-06-20T07:15:46Z</time>
      </trkpt>
      <trkpt lat="45.0991" lon="5.8852">
        <ele>1636</ele>
        <time>2015-06-20T07:15:47Z</time>
      </trkpt>
      <trkpt lat="45.09907" lon="5.88519">
        <ele>1636</ele>
        <time>2015-06-20T07:15:48Z</time>
      </trkpt>
      <trkpt lat="45.09904" lon="5.88517">
        <ele>1636</ele>
        <time>2015-06-20T07:15:49Z</time>
      </trkpt>
      <trkpt lat="45.09901" lon="5.88515">
        <ele>1636</ele>
        <time>2015-06-20T07:15:50Z</time>
      </trkpt>
      <trkpt lat="45.09898" lon="5.88513">
        <ele>1636</ele>
        <time>2015-06-20T07:15:51Z</time>
      </trkpt>
      <trkpt lat="45.09896" lon="5.88512">
        <ele>1634</ele>
        <time>2015-06-20T07:15:52Z</time>
      </trkpt>
      <trkpt lat="45.09893" lon="5.88509">
        <ele>1634</ele>
        <time>2015-06-20T07:15:53Z</time>
      </trkpt>
      <trkpt lat="45.0989" lon="5.88506">
        <ele>1634</ele>
        <time>2015-06-20T07:15:54Z</time>
      </trkpt>
      <trkpt lat="45.09887" lon="5.88504">
        <ele>1634</ele>
        <time>2015-06-20T07:15:55Z</time>
      </trkpt>
      <trkpt lat="45.09884" lon="5.88502">
        <ele>1633</ele>
        <time>2015-06-20T07:15:56Z</time>
      </trkpt>
      <trkpt lat="45.09881" lon="5.88501">
        <ele>1633</ele>
        <time>2015-06-20T07:15:57Z</time>
      </trkpt>
      <trkpt lat="45.09877" lon="5.88498">
        <ele>1633</ele>
        <time>2015-06-20T07:15:58Z</time>
      </trkpt>
      <trkpt lat="45.09874" lon="5.88496">
        <ele>1633</ele>
        <time>2015-06-20T07:15:59Z</time>
      </trkpt>
      <trkpt lat="45.0987" lon="5.88493">
        <ele>1633</ele>
        <time>2015-06-20T07:16:00Z</time>
      </trkpt>
      <trkpt lat="45.09867" lon="5.88491">
        <ele>1631</ele>
        <time>2015-06-20T07:16:01Z</time>
      </trkpt>
      <trkpt lat="45.09863" lon="5.88489">
        <ele>1631</ele>
        <time>2015-06-20T07:16:02Z</time>
      </trkpt>
      <trkpt lat="45.0986" lon="5.88486">
        <ele>1631</ele>
        <time>2015-06-20T07:16:03Z</time>
      </trkpt>
      <trkpt lat="45.09857" lon="5.88484">
        <ele>1631</ele>
        <time>2015-06-20T07:16:04Z</time>
      </trkpt>
      <trkpt lat="45.09854" lon="5.88481">
        <ele>1631</ele>
        <time>2015-06-20T07:16:05Z</time>
      </trkpt>
      <trkpt lat="45.09851" lon="5.88479">
        <ele>1631</ele>
        <time>2015-06-20T07:16:06Z</time>
      </trkpt>
      <trkpt lat="45.09848" lon="5.88478">
        <ele>1630</ele>
        <time>2015-06-20T07:16:07Z</time>
      </trkpt>
      <trkpt lat="45.09846" lon="5.88476">
        <ele>1630</ele>
        <time>2015-06-20T07:16:08Z</time>
      </trkpt>
      <trkpt lat="45.09843" lon="5.88475">
        <ele>1630</ele>
        <time>2015-06-20T07:16:09Z</time>
      </trkpt>
      <trkpt lat="45.09839" lon="5.88474">
        <ele>1630</ele>
        <time>2015-06-20T07:16:10Z</time>
      </trkpt>
      <trkpt lat="45.09837" lon="5.88473">
        <ele>1630</ele>
        <time>2015-06-20T07:16:11Z</time>
      </trkpt>
      <trkpt lat="45.09834" lon="5.88471">
        <ele>1629</ele>
        <time>2015-06-20T07:16:12Z</time>
      </trkpt>
      <trkpt lat="45.09832" lon="5.88469">
        <ele>1629</ele>
        <time>2015-06-20T07:16:13Z</time>
      </trkpt>
      <trkpt lat="45.09829" lon="5.88467">
        <ele>1629</ele>
        <time>2015-06-20T07:16:14Z</time>
      </trkpt>
      <trkpt lat="45.09826" lon="5.88465">
        <ele>1629</ele>
        <time>2015-06-20T07:16:15Z</time>
      </trkpt>
      <trkpt lat="45.09823" lon="5.88463">
        <ele>1629</ele>
        <time>2015-06-20T07:16:16Z</time>
      </trkpt>
      <trkpt lat="45.0982" lon="5.88461">
        <ele>1629</ele>
        <time>2015-06-20T07:16:17Z</time>
      </trkpt>
      <trkpt lat="45.09818" lon="5.8846">
        <ele>1629</ele>
        <time>2015-06-20T07:16:18Z</time>
      </trkpt>
      <trkpt lat="45.09815" lon="5.88457">
        <ele>1629</ele>
        <time>2015-06-20T07:16:19Z</time>
      </trkpt>
      <trkpt lat="45.09812" lon="5.88455">
        <ele>1629</ele>
        <time>2015-06-20T07:16:20Z</time>
      </trkpt>
      <trkpt lat="45.0981" lon="5.88454">
        <ele>1629</ele>
        <time>2015-06-20T07:16:21Z</time>
      </trkpt>
      <trkpt lat="45.09806" lon="5.88452">
        <ele>1629</ele>
        <time>2015-06-20T07:16:22Z</time>
      </trkpt>
      <trkpt lat="45.09803" lon="5.88451">
        <ele>1629</ele>
        <time>2015-06-20T07:16:23Z</time>
      </trkpt>
      <trkpt lat="45.09801" lon="5.8845">
        <ele>1629</ele>
        <time>2015-06-20T07:16:24Z</time>
      </trkpt>
      <trkpt lat="45.09798" lon="5.8845">
        <ele>1629</ele>
        <time>2015-06-20T07:16:25Z</time>
      </trkpt>
      <trkpt lat="45.09795" lon="5.88449">
        <ele>1629</ele>
        <time>2015-06-20T07:16:26Z</time>
      </trkpt>
      <trkpt lat="45.09792" lon="5.88448">
        <ele>1629</ele>
        <time>2015-06-20T07:16:27Z</time>
      </trkpt>
      <trkpt lat="45.0979" lon="5.88448">
        <ele>1629</ele>
        <time>2015-06-20T07:16:28Z</time>
      </trkpt>
      <trkpt lat="45.09786" lon="5.88447">
        <ele>1629</ele>
        <time>2015-06-20T07:16:29Z</time>
      </trkpt>
      <trkpt lat="45.09784" lon="5.88447">
        <ele>1629</ele>
        <time>2015-06-20T07:16:30Z</time>
      </trkpt>
      <trkpt lat="45.09781" lon="5.88448">
        <ele>1629</ele>
        <time>2015-06-20T07:16:31Z</time>
      </trkpt>
      <trkpt lat="45.09778" lon="5.88448">
        <ele>1629</ele>
        <time>2015-06-20T07:16:32Z</time>
      </trkpt>
      <trkpt lat="45.09775" lon="5.88448">
        <ele>1629</ele>
        <time>2015-06-20T07:16:33Z</time>
      </trkpt>
      <trkpt lat="45.09772" lon="5.88449">
        <ele>1629</ele>
        <time>2015-06-20T07:16:34Z</time>
      </trkpt>
      <trkpt lat="45.09769" lon="5.88449">
        <ele>1630</ele>
        <time>2015-06-20T07:16:35Z</time>
      </trkpt>
      <trkpt lat="45.09766" lon="5.88449">
        <ele>1630</ele>
        <time>2015-06-20T07:16:36Z</time>
      </trkpt>
      <trkpt lat="45.09764" lon="5.88448">
        <ele>1630</ele>
        <time>2015-06-20T07:16:37Z</time>
      </trkpt>
      <trkpt lat="45.09762" lon="5.88447">
        <ele>1630</ele>
        <time>2015-06-20T07:16:38Z</time>
      </trkpt>
      <trkpt lat="45.09759" lon="5.88446">
        <ele>1630</ele>
        <time>2015-06-20T07:16:39Z</time>
      </trkpt>
      <trkpt lat="45.09756" lon="5.88445">
        <ele>1630</ele>
        <time>2015-06-20T07:16:40Z</time>
      </trkpt>
      <trkpt lat="45.09753" lon="5.88445">
        <ele>1630</ele>
        <time>2015-06-20T07:16:41Z</time>
      </trkpt>
      <trkpt lat="45.09749" lon="5.88445">
        <ele>1630</ele>
        <time>2015-06-20T07:16:42Z</time>
      </trkpt>
      <trkpt lat="45.09747" lon="5.88446">
        <ele>1630</ele>
        <time>2015-06-20T07:16:43Z</time>
      </trkpt>
      <trkpt lat="45.09743" lon="5.88446">
        <ele>1630</ele>
        <time>2015-06-20T07:16:44Z</time>
      </trkpt>
      <trkpt lat="45.0974" lon="5.88446">
        <ele>1630</ele>
        <time>2015-06-20T07:16:45Z</time>
      </trkpt>
      <trkpt lat="45.09737" lon="5.88446">
        <ele>1630</ele>
        <time>2015-06-20T07:16:46Z</time>
      </trkpt>
      <trkpt lat="45.09735" lon="5.88446">
        <ele>1630</ele>
        <time>2015-06-20T07:16:47Z</time>
      </trkpt>
      <trkpt lat="45.09731" lon="5.88446">
        <ele>1630</ele>
        <time>2015-06-20T07:16:48Z</time>
      </trkpt>
      <trkpt lat="45.09728" lon="5.88446">
        <ele>1630</ele>
        <time>2015-06-20T07:16:49Z</time>
      </trkpt>
      <trkpt lat="45.09726" lon="5.88445">
        <ele>1630</ele>
        <time>2015-06-20T07:16:50Z</time>
      </trkpt>
      <trkpt lat="45.09723" lon="5.88444">
        <ele>1630</ele>
        <time>2015-06-20T07:16:51Z</time>
      </trkpt>
      <trkpt lat="45.0972" lon="5.88444">
        <ele>1630</ele>
        <time>2015-06-20T07:16:52Z</time>
      </trkpt>
      <trkpt lat="45.09717" lon="5.88442">
        <ele>1630</ele>
        <time>2015-06-20T07:16:53Z</time>
      </trkpt>
      <trkpt lat="45.09715" lon="5.88441">
        <ele>1630</ele>
        <time>2015-06-20T07:16:54Z</time>
      </trkpt>
      <trkpt lat="45.09712" lon="5.8844">
        <ele>1630</ele>
        <time>2015-06-20T07:16:55Z</time>
      </trkpt>
      <trkpt lat="45.09709" lon="5.8844">
        <ele>1631</ele>
        <time>2015-06-20T07:16:56Z</time>
      </trkpt>
      <trkpt lat="45.09706" lon="5.8844">
        <ele>1631</ele>
        <time>2015-06-20T07:16:57Z</time>
      </trkpt>
      <trkpt lat="45.09703" lon="5.8844">
        <ele>1631</ele>
        <time>2015-06-20T07:16:58Z</time>
      </trkpt>
      <trkpt lat="45.09699" lon="5.8844">
        <ele>1631</ele>
        <time>2015-06-20T07:16:59Z</time>
      </trkpt>
      <trkpt lat="45.09696" lon="5.88438">
        <ele>1631</ele>
        <time>2015-06-20T07:17:00Z</time>
      </trkpt>
      <trkpt lat="45.09694" lon="5.88436">
        <ele>1631</ele>
        <time>2015-06-20T07:17:01Z</time>
      </trkpt>
      <trkpt lat="45.09691" lon="5.88432">
        <ele>1631</ele>
        <time>2015-06-20T07:17:02Z</time>
      </trkpt>
      <trkpt lat="45.09688" lon="5.8843">
        <ele>1631</ele>
        <time>2015-06-20T07:17:03Z</time>
      </trkpt>
      <trkpt lat="45.09686" lon="5.88427">
        <ele>1631</ele>
        <time>2015-06-20T07:17:04Z</time>
      </trkpt>
      <trkpt lat="45.09684" lon="5.88424">
        <ele>1631</ele>
        <time>2015-06-20T07:17:05Z</time>
      </trkpt>
      <trkpt lat="45.09681" lon="5.88421">
        <ele>1631</ele>
        <time>2015-06-20T07:17:06Z</time>
      </trkpt>
      <trkpt lat="45.0968" lon="5.88417">
        <ele>1631</ele>
        <time>2015-06-20T07:17:07Z</time>
      </trkpt>
      <trkpt lat="45.09678" lon="5.88412">
        <ele>1631</ele>
        <time>2015-06-20T07:17:08Z</time>
      </trkpt>
      <trkpt lat="45.09677" lon="5.88407">
        <ele>1631</ele>
        <time>2015-06-20T07:17:09Z</time>
      </trkpt>
      <trkpt lat="45.09675" lon="5.88402">
        <ele>1631</ele>
        <time>2015-06-20T07:17:10Z</time>
      </trkpt>
      <trkpt lat="45.09674" lon="5.88399">
        <ele>1631</ele>
        <time>2015-06-20T07:17:11Z</time>
      </trkpt>
      <trkpt lat="45.09671" lon="5.88394">
        <ele>1629</ele>
        <time>2015-06-20T07:17:12Z</time>
      </trkpt>
      <trkpt lat="45.09669" lon="5.88391">
        <ele>1629</ele>
        <time>2015-06-20T07:17:13Z</time>
      </trkpt>
      <trkpt lat="45.09667" lon="5.88388">
        <ele>1629</ele>
        <time>2015-06-20T07:17:14Z</time>
      </trkpt>
      <trkpt lat="45.09665" lon="5.88384">
        <ele>1629</ele>
        <time>2015-06-20T07:17:15Z</time>
      </trkpt>
      <trkpt lat="45.09663" lon="5.88381">
        <ele>1629</ele>
        <time>2015-06-20T07:17:16Z</time>
      </trkpt>
      <trkpt lat="45.0966" lon="5.88379">
        <ele>1629</ele>
        <time>2015-06-20T07:17:17Z</time>
      </trkpt>
      <trkpt lat="45.09656" lon="5.88376">
        <ele>1629</ele>
        <time>2015-06-20T07:17:18Z</time>
      </trkpt>
      <trkpt lat="45.09653" lon="5.88374">
        <ele>1629</ele>
        <time>2015-06-20T07:17:19Z</time>
      </trkpt>
      <trkpt lat="45.0965" lon="5.88372">
        <ele>1629</ele>
        <time>2015-06-20T07:17:20Z</time>
      </trkpt>
      <trkpt lat="45.09647" lon="5.8837">
        <ele>1629</ele>
        <time>2015-06-20T07:17:21Z</time>
      </trkpt>
      <trkpt lat="45.09644" lon="5.88368">
        <ele>1627</ele>
        <time>2015-06-20T07:17:22Z</time>
      </trkpt>
      <trkpt lat="45.09641" lon="5.88366">
        <ele>1627</ele>
        <time>2015-06-20T07:17:23Z</time>
      </trkpt>
      <trkpt lat="45.09639" lon="5.88365">
        <ele>1627</ele>
        <time>2015-06-20T07:17:24Z</time>
      </trkpt>
      <trkpt lat="45.09635" lon="5.88362">
        <ele>1627</ele>
        <time>2015-06-20T07:17:25Z</time>
      </trkpt>
      <trkpt lat="45.09633" lon="5.88359">
        <ele>1627</ele>
        <time>2015-06-20T07:17:26Z</time>
      </trkpt>
      <trkpt lat="45.0963" lon="5.88356">
        <ele>1627</ele>
        <time>2015-06-20T07:17:27Z</time>
      </trkpt>
      <trkpt lat="45.09627" lon="5.88353">
        <ele>1627</ele>
        <time>2015-06-20T07:17:28Z</time>
      </trkpt>
      <trkpt lat="45.09624" lon="5.8835">
        <ele>1627</ele>
        <time>2015-06-20T07:17:29Z</time>
      </trkpt>
      <trkpt lat="45.0962" lon="5.88348">
        <ele>1627</ele>
        <time>2015-06-20T07:17:30Z</time>
      </trkpt>
      <trkpt lat="45.09617" lon="5.88345">
        <ele>1627</ele>
        <time>2015-06-20T07:17:31Z</time>
      </trkpt>
      <trkpt lat="45.09616" lon="5.88341">
        <ele>1625</ele>
        <time>2015-06-20T07:17:32Z</time>
      </trkpt>
      <trkpt lat="45.09613" lon="5.88336">
        <ele>1625</ele>
        <time>2015-06-20T07:17:33Z</time>
      </trkpt>
      <trkpt lat="45.0961" lon="5.88333">
        <ele>1625</ele>
        <time>2015-06-20T07:17:34Z</time>
      </trkpt>
      <trkpt lat="45.09608" lon="5.88329">
        <ele>1625</ele>
        <time>2015-06-20T07:17:35Z</time>
      </trkpt>
      <trkpt lat="45.09606" lon="5.88326">
        <ele>1625</ele>
        <time>2015-06-20T07:17:36Z</time>
      </trkpt>
      <trkpt lat="45.09604" lon="5.88323">
        <ele>1623</ele>
        <time>2015-06-20T07:17:37Z</time>
      </trkpt>
      <trkpt lat="45.09601" lon="5.88321">
        <ele>1623</ele>
        <time>2015-06-20T07:17:38Z</time>
      </trkpt>
      <trkpt lat="45.09598" lon="5.8832">
        <ele>1623</ele>
        <time>2015-06-20T07:17:39Z</time>
      </trkpt>
      <trkpt lat="45.09594" lon="5.8832">
        <ele>1623</ele>
        <time>2015-06-20T07:17:40Z</time>
      </trkpt>
      <trkpt lat="45.09591" lon="5.88319">
        <ele>1623</ele>
        <time>2015-06-20T07:17:41Z</time>
      </trkpt>
      <trkpt lat="45.09588" lon="5.88318">
        <ele>1622</ele>
        <time>2015-06-20T07:17:42Z</time>
      </trkpt>
      <trkpt lat="45.09585" lon="5.88316">
        <ele>1622</ele>
        <time>2015-06-20T07:17:43Z</time>
      </trkpt>
      <trkpt lat="45.09582" lon="5.88314">
        <ele>1622</ele>
        <time>2015-06-20T07:17:44Z</time>
      </trkpt>
      <trkpt lat="45.09579" lon="5.88313">
        <ele>1622</ele>
        <time>2015-06-20T07:17:45Z</time>
      </trkpt>
      <trkpt lat="45.09576" lon="5.8831">
        <ele>1622</ele>
        <time>2015-06-20T07:17:46Z</time>
      </trkpt>
      <trkpt lat="45.09573" lon="5.88308">
        <ele>1622</ele>
        <time>2015-06-20T07:17:47Z</time>
      </trkpt>
      <trkpt lat="45.0957" lon="5.88307">
        <ele>1622</ele>
        <time>2015-06-20T07:17:48Z</time>
      </trkpt>
      <trkpt lat="45.09567" lon="5.88305">
        <ele>1622</ele>
        <time>2015-06-20T07:17:49Z</time>
      </trkpt>
      <trkpt lat="45.09564" lon="5.88303">
        <ele>1622</ele>
        <time>2015-06-20T07:17:50Z</time>
      </trkpt>
      <trkpt lat="45.09562" lon="5.883">
        <ele>1622</ele>
        <time>2015-06-20T07:17:51Z</time>
      </trkpt>
      <trkpt lat="45.09559" lon="5.88298">
        <ele>1622</ele>
        <time>2015-06-20T07:17:52Z</time>
      </trkpt>
      <trkpt lat="45.09556" lon="5.88296">
        <ele>1622</ele>
        <time>2015-06-20T07:17:53Z</time>
      </trkpt>
      <trkpt lat="45.09554" lon="5.88295">
        <ele>1622</ele>
        <time>2015-06-20T07:17:54Z</time>
      </trkpt>
      <trkpt lat="45.09551" lon="5.88293">
        <ele>1622</ele>
        <time>2015-06-20T07:17:55Z</time>
      </trkpt>
      <trkpt lat="45.09548" lon="5.88293">
        <ele>1622</ele>
        <time>2015-06-20T07:17:56Z</time>
      </trkpt>
      <trkpt lat="45.09545" lon="5.88292">
        <ele>1622</ele>
        <time>2015-06-20T07:17:57Z</time>
      </trkpt>
      <trkpt lat="45.09543" lon="5.88292">
        <ele>1622</ele>
        <time>2015-06-20T07:17:58Z</time>
      </trkpt>
      <trkpt lat="45.0954" lon="5.8829">
        <ele>1622</ele>
        <time>2015-06-20T07:17:59Z</time>
      </trkpt>
      <trkpt lat="45.09539" lon="5.88286">
        <ele>1622</ele>
        <time>2015-06-20T07:18:00Z</time>
      </trkpt>
      <trkpt lat="45.09536" lon="5.88284">
        <ele>1622</ele>
        <time>2015-06-20T07:18:01Z</time>
      </trkpt>
      <trkpt lat="45.09533" lon="5.88282">
        <ele>1621</ele>
        <time>2015-06-20T07:18:02Z</time>
      </trkpt>
      <trkpt lat="45.0953" lon="5.8828">
        <ele>1621</ele>
        <time>2015-06-20T07:18:03Z</time>
      </trkpt>
      <trkpt lat="45.09527" lon="5.88278">
        <ele>1621</ele>
        <time>2015-06-20T07:18:04Z</time>
      </trkpt>
      <trkpt lat="45.09524" lon="5.88276">
        <ele>1621</ele>
        <time>2015-06-20T07:18:05Z</time>
      </trkpt>
      <trkpt lat="45.09522" lon="5.88273">
        <ele>1621</ele>
        <time>2015-06-20T07:18:06Z</time>
      </trkpt>
      <trkpt lat="45.09519" lon="5.88271">
        <ele>1621</ele>
        <time>2015-06-20T07:18:07Z</time>
      </trkpt>
      <trkpt lat="45.09516" lon="5.88269">
        <ele>1621</ele>
        <time>2015-06-20T07:18:08Z</time>
      </trkpt>
      <trkpt lat="45.09514" lon="5.88267">
        <ele>1621</ele>
        <time>2015-06-20T07:18:09Z</time>
      </trkpt>
      <trkpt lat="45.09511" lon="5.88265">
        <ele>1621</ele>
        <time>2015-06-20T07:18:10Z</time>
      </trkpt>
      <trkpt lat="45.09508" lon="5.88262">
        <ele>1621</ele>
        <time>2015-06-20T07:18:11Z</time>
      </trkpt>
      <trkpt lat="45.09506" lon="5.88259">
        <ele>1621</ele>
        <time>2015-06-20T07:18:12Z</time>
      </trkpt>
      <trkpt lat="45.09506" lon="5.88255">
        <ele>1619</ele>
        <time>2015-06-20T07:18:13Z</time>
      </trkpt>
      <trkpt lat="45.09509" lon="5.88249">
        <ele>1619</ele>
        <time>2015-06-20T07:18:14Z</time>
      </trkpt>
      <trkpt lat="45.09511" lon="5.88243">
        <ele>1619</ele>
        <time>2015-06-20T07:18:15Z</time>
      </trkpt>
      <trkpt lat="45.09515" lon="5.88239">
        <ele>1619</ele>
        <time>2015-06-20T07:18:16Z</time>
      </trkpt>
      <trkpt lat="45.09518" lon="5.88235">
        <ele>1619</ele>
        <time>2015-06-20T07:18:17Z</time>
      </trkpt>
      <trkpt lat="45.09519" lon="5.88231">
        <ele>1617</ele>
        <time>2015-06-20T07:18:18Z</time>
      </trkpt>
      <trkpt lat="45.09519" lon="5.88226">
        <ele>1617</ele>
        <time>2015-06-20T07:18:19Z</time>
      </trkpt>
      <trkpt lat="45.09519" lon="5.88222">
        <ele>1617</ele>
        <time>2015-06-20T07:18:20Z</time>
      </trkpt>
      <trkpt lat="45.09519" lon="5.88218">
        <ele>1617</ele>
        <time>2015-06-20T07:18:21Z</time>
      </trkpt>
      <trkpt lat="45.0952" lon="5.88215">
        <ele>1617</ele>
        <time>2015-06-20T07:18:22Z</time>
      </trkpt>
      <trkpt lat="45.09519" lon="5.88211">
        <ele>1617</ele>
        <time>2015-06-20T07:18:23Z</time>
      </trkpt>
      <trkpt lat="45.09519" lon="5.88206">
        <ele>1617</ele>
        <time>2015-06-20T07:18:24Z</time>
      </trkpt>
      <trkpt lat="45.09519" lon="5.88201">
        <ele>1617</ele>
        <time>2015-06-20T07:18:25Z</time>
      </trkpt>
      <trkpt lat="45.09519" lon="5.88197">
        <ele>1617</ele>
        <time>2015-06-20T07:18:26Z</time>
      </trkpt>
      <trkpt lat="45.09519" lon="5.88194">
        <ele>1617</ele>
        <time>2015-06-20T07:18:27Z</time>
      </trkpt>
      <trkpt lat="45.09518" lon="5.88189">
        <ele>1617</ele>
        <time>2015-06-20T07:18:28Z</time>
      </trkpt>
      <trkpt lat="45.09518" lon="5.88185">
        <ele>1617</ele>
        <time>2015-06-20T07:18:29Z</time>
      </trkpt>
      <trkpt lat="45.09517" lon="5.88181">
        <ele>1617</ele>
        <time>2015-06-20T07:18:30Z</time>
      </trkpt>
      <trkpt lat="45.09517" lon="5.88177">
        <ele>1617</ele>
        <time>2015-06-20T07:18:31Z</time>
      </trkpt>
      <trkpt lat="45.09516" lon="5.88174">
        <ele>1617</ele>
        <time>2015-06-20T07:18:32Z</time>
      </trkpt>
      <trkpt lat="45.09515" lon="5.8817">
        <ele>1616</ele>
        <time>2015-06-20T07:18:33Z</time>
      </trkpt>
      <trkpt lat="45.09514" lon="5.88167">
        <ele>1616</ele>
        <time>2015-06-20T07:18:34Z</time>
      </trkpt>
      <trkpt lat="45.09513" lon="5.88164">
        <ele>1616</ele>
        <time>2015-06-20T07:18:35Z</time>
      </trkpt>
      <trkpt lat="45.09512" lon="5.8816">
        <ele>1616</ele>
        <time>2015-06-20T07:18:36Z</time>
      </trkpt>
      <trkpt lat="45.09511" lon="5.88156">
        <ele>1616</ele>
        <time>2015-06-20T07:18:37Z</time>
      </trkpt>
      <trkpt lat="45.0951" lon="5.88153">
        <ele>1616</ele>
        <time>2015-06-20T07:18:38Z</time>
      </trkpt>
      <trkpt lat="45.09509" lon="5.88149">
        <ele>1616</ele>
        <time>2015-06-20T07:18:39Z</time>
      </trkpt>
      <trkpt lat="45.09509" lon="5.88146">
        <ele>1616</ele>
        <time>2015-06-20T07:18:40Z</time>
      </trkpt>
      <trkpt lat="45.09508" lon="5.88143">
        <ele>1616</ele>
        <time>2015-06-20T07:18:41Z</time>
      </trkpt>
      <trkpt lat="45.09508" lon="5.88141">
        <ele>1615</ele>
        <time>2015-06-20T07:18:42Z</time>
      </trkpt>
      <trkpt lat="45.09507" lon="5.88138">
        <ele>1615</ele>
        <time>2015-06-20T07:18:43Z</time>
      </trkpt>
      <trkpt lat="45.09506" lon="5.88135">
        <ele>1615</ele>
        <time>2015-06-20T07:18:44Z</time>
      </trkpt>
      <trkpt lat="45.09506" lon="5.88131">
        <ele>1615</ele>
        <time>2015-06-20T07:18:45Z</time>
      </trkpt>
      <trkpt lat="45.09505" lon="5.88126">
        <ele>1615</ele>
        <time>2015-06-20T07:18:46Z</time>
      </trkpt>
      <trkpt lat="45.09505" lon="5.88122">
        <ele>1615</ele>
        <time>2015-06-20T07:18:47Z</time>
      </trkpt>
      <trkpt lat="45.09504" lon="5.88117">
        <ele>1615</ele>
        <time>2015-06-20T07:18:48Z</time>
      </trkpt>
      <trkpt lat="45.09503" lon="5.88112">
        <ele>1615</ele>
        <time>2015-06-20T07:18:49Z</time>
      </trkpt>
      <trkpt lat="45.09502" lon="5.88106">
        <ele>1615</ele>
        <time>2015-06-20T07:18:50Z</time>
      </trkpt>
      <trkpt lat="45.09501" lon="5.88101">
        <ele>1615</ele>
        <time>2015-06-20T07:18:51Z</time>
      </trkpt>
      <trkpt lat="45.09501" lon="5.88097">
        <ele>1615</ele>
        <time>2015-06-20T07:18:52Z</time>
      </trkpt>
      <trkpt lat="45.09501" lon="5.88093">
        <ele>1614</ele>
        <time>2015-06-20T07:18:53Z</time>
      </trkpt>
      <trkpt lat="45.09501" lon="5.88089">
        <ele>1614</ele>
        <time>2015-06-20T07:18:54Z</time>
      </trkpt>
      <trkpt lat="45.09501" lon="5.88085">
        <ele>1614</ele>
        <time>2015-06-20T07:18:55Z</time>
      </trkpt>
      <trkpt lat="45.09501" lon="5.8808">
        <ele>1614</ele>
        <time>2015-06-20T07:18:56Z</time>
      </trkpt>
      <trkpt lat="45.09501" lon="5.88075">
        <ele>1614</ele>
        <time>2015-06-20T07:18:57Z</time>
      </trkpt>
      <trkpt lat="45.09501" lon="5.88071">
        <ele>1614</ele>
        <time>2015-06-20T07:18:58Z</time>
      </trkpt>
      <trkpt lat="45.09501" lon="5.88066">
        <ele>1614</ele>
        <time>2015-06-20T07:18:59Z</time>
      </trkpt>
      <trkpt lat="45.09502" lon="5.88062">
        <ele>1614</ele>
        <time>2015-06-20T07:19:00Z</time>
      </trkpt>
      <trkpt lat="45.09504" lon="5.88057">
        <ele>1614</ele>
        <time>2015-06-20T07:19:01Z</time>
      </trkpt>
      <trkpt lat="45.09505" lon="5.88052">
        <ele>1610</ele>
        <time>2015-06-20T07:19:02Z</time>
      </trkpt>
      <trkpt lat="45.09506" lon="5.88049">
        <ele>1610</ele>
        <time>2015-06-20T07:19:03Z</time>
      </trkpt>
      <trkpt lat="45.09507" lon="5.88044">
        <ele>1610</ele>
        <time>2015-06-20T07:19:04Z</time>
      </trkpt>
      <trkpt lat="45.09508" lon="5.8804">
        <ele>1610</ele>
        <time>2015-06-20T07:19:05Z</time>
      </trkpt>
      <trkpt lat="45.09509" lon="5.88036">
        <ele>1610</ele>
        <time>2015-06-20T07:19:08Z</time>
      </trkpt>
      <trkpt lat="45.09509" lon="5.88032">
        <ele>1610</ele>
        <time>2015-06-20T07:19:10Z</time>
      </trkpt>
      <trkpt lat="45.09509" lon="5.88029">
        <ele>1610</ele>
        <time>2015-06-20T07:19:11Z</time>
      </trkpt>
      <trkpt lat="45.09508" lon="5.88027">
        <ele>1610</ele>
        <time>2015-06-20T07:19:12Z</time>
      </trkpt>
      <trkpt lat="45.09508" lon="5.88022">
        <ele>1608</ele>
        <time>2015-06-20T07:19:14Z</time>
      </trkpt>
      <trkpt lat="45.09507" lon="5.8802">
        <ele>1610</ele>
        <time>2015-06-20T07:19:15Z</time>
      </trkpt>
      <trkpt lat="45.09507" lon="5.88017">
        <ele>1611</ele>
        <time>2015-06-20T07:19:16Z</time>
      </trkpt>
      <trkpt lat="45.09506" lon="5.88015">
        <ele>1611</ele>
        <time>2015-06-20T07:19:17Z</time>
      </trkpt>
      <trkpt lat="45.09506" lon="5.88012">
        <ele>1611</ele>
        <time>2015-06-20T07:19:18Z</time>
      </trkpt>
      <trkpt lat="45.09504" lon="5.88007">
        <ele>1611</ele>
        <time>2015-06-20T07:19:20Z</time>
      </trkpt>
      <trkpt lat="45.09504" lon="5.88005">
        <ele>1612</ele>
        <time>2015-06-20T07:19:22Z</time>
      </trkpt>
      <trkpt lat="45.09506" lon="5.88007">
        <ele>1611</ele>
        <time>2015-06-20T07:19:29Z</time>
      </trkpt>
      <trkpt lat="45.09508" lon="5.8801">
        <ele>1611</ele>
        <time>2015-06-20T07:19:30Z</time>
      </trkpt>
      <trkpt lat="45.09509" lon="5.88012">
        <ele>1611</ele>
        <time>2015-06-20T07:19:31Z</time>
      </trkpt>
      <trkpt lat="45.09511" lon="5.88016">
        <ele>1611</ele>
        <time>2015-06-20T07:19:33Z</time>
      </trkpt>
      <trkpt lat="45.09509" lon="5.88017">
        <ele>1611</ele>
        <time>2015-06-20T07:19:35Z</time>
      </trkpt>
      <trkpt lat="45.09498" lon="5.8801">
        <ele>1611</ele>
        <time>2015-06-20T07:19:43Z</time>
      </trkpt>
      <trkpt lat="45.09497" lon="5.88007">
        <ele>1610</ele>
        <time>2015-06-20T07:19:45Z</time>
      </trkpt>
      <trkpt lat="45.09496" lon="5.88004">
        <ele>1610</ele>
        <time>2015-06-20T07:19:47Z</time>
      </trkpt>
      <trkpt lat="45.09494" lon="5.88003">
        <ele>1610</ele>
        <time>2015-06-20T07:19:49Z</time>
      </trkpt>
      <trkpt lat="45.09491" lon="5.88004">
        <ele>1610</ele>
        <time>2015-06-20T07:19:51Z</time>
      </trkpt>
      <trkpt lat="45.09489" lon="5.88004">
        <ele>1610</ele>
        <time>2015-06-20T07:19:52Z</time>
      </trkpt>
      <trkpt lat="45.09487" lon="5.88004">
        <ele>1610</ele>
        <time>2015-06-20T07:19:53Z</time>
      </trkpt>
      <trkpt lat="45.09485" lon="5.88004">
        <ele>1610</ele>
        <time>2015-06-20T07:19:54Z</time>
      </trkpt>
      <trkpt lat="45.09482" lon="5.88005">
        <ele>1610</ele>
        <time>2015-06-20T07:19:55Z</time>
      </trkpt>
      <trkpt lat="45.09481" lon="5.88007">
        <ele>1610</ele>
        <time>2015-06-20T07:19:56Z</time>
      </trkpt>
      <trkpt lat="45.09478" lon="5.88008">
        <ele>1610</ele>
        <time>2015-06-20T07:19:57Z</time>
      </trkpt>
      <trkpt lat="45.09476" lon="5.8801">
        <ele>1610</ele>
        <time>2015-06-20T07:19:58Z</time>
      </trkpt>
      <trkpt lat="45.09475" lon="5.88011">
        <ele>1610</ele>
        <time>2015-06-20T07:19:59Z</time>
      </trkpt>
      <trkpt lat="45.09473" lon="5.88012">
        <ele>1610</ele>
        <time>2015-06-20T07:20:00Z</time>
      </trkpt>
      <trkpt lat="45.0947" lon="5.88013">
        <ele>1610</ele>
        <time>2015-06-20T07:20:01Z</time>
      </trkpt>
      <trkpt lat="45.09468" lon="5.88013">
        <ele>1608</ele>
        <time>2015-06-20T07:20:02Z</time>
      </trkpt>
      <trkpt lat="45.09465" lon="5.88013">
        <ele>1608</ele>
        <time>2015-06-20T07:20:03Z</time>
      </trkpt>
      <trkpt lat="45.09462" lon="5.88013">
        <ele>1608</ele>
        <time>2015-06-20T07:20:04Z</time>
      </trkpt>
      <trkpt lat="45.09459" lon="5.88012">
        <ele>1608</ele>
        <time>2015-06-20T07:20:05Z</time>
      </trkpt>
      <trkpt lat="45.09456" lon="5.88011">
        <ele>1608</ele>
        <time>2015-06-20T07:20:06Z</time>
      </trkpt>
      <trkpt lat="45.09453" lon="5.88011">
        <ele>1608</ele>
        <time>2015-06-20T07:20:07Z</time>
      </trkpt>
      <trkpt lat="45.09451" lon="5.88011">
        <ele>1608</ele>
        <time>2015-06-20T07:20:08Z</time>
      </trkpt>
      <trkpt lat="45.09449" lon="5.8801">
        <ele>1608</ele>
        <time>2015-06-20T07:20:09Z</time>
      </trkpt>
      <trkpt lat="45.09446" lon="5.88009">
        <ele>1608</ele>
        <time>2015-06-20T07:20:11Z</time>
      </trkpt>
      <trkpt lat="45.09434" lon="5.87996">
        <ele>1609</ele>
        <time>2015-06-20T07:21:26Z</time>
      </trkpt>
      <trkpt lat="45.09426" lon="5.88004">
        <ele>1609</ele>
        <time>2015-06-20T07:21:35Z</time>
      </trkpt>
      <trkpt lat="45.09424" lon="5.88006">
        <ele>1610</ele>
        <time>2015-06-20T07:21:36Z</time>
      </trkpt>
      <trkpt lat="45.09422" lon="5.88008">
        <ele>1610</ele>
        <time>2015-06-20T07:21:37Z</time>
      </trkpt>
      <trkpt lat="45.09418" lon="5.88009">
        <ele>1610</ele>
        <time>2015-06-20T07:21:38Z</time>
      </trkpt>
      <trkpt lat="45.09415" lon="5.88011">
        <ele>1610</ele>
        <time>2015-06-20T07:21:39Z</time>
      </trkpt>
      <trkpt lat="45.09413" lon="5.88012">
        <ele>1610</ele>
        <time>2015-06-20T07:21:40Z</time>
      </trkpt>
      <trkpt lat="45.0941" lon="5.88013">
        <ele>1610</ele>
        <time>2015-06-20T07:21:41Z</time>
      </trkpt>
      <trkpt lat="45.09408" lon="5.88014">
        <ele>1610</ele>
        <time>2015-06-20T07:21:42Z</time>
      </trkpt>
      <trkpt lat="45.09405" lon="5.88015">
        <ele>1610</ele>
        <time>2015-06-20T07:21:43Z</time>
      </trkpt>
      <trkpt lat="45.09402" lon="5.88016">
        <ele>1610</ele>
        <time>2015-06-20T07:21:44Z</time>
      </trkpt>
      <trkpt lat="45.09399" lon="5.88016">
        <ele>1610</ele>
        <time>2015-06-20T07:21:45Z</time>
      </trkpt>
      <trkpt lat="45.09396" lon="5.88016">
        <ele>1610</ele>
        <time>2015-06-20T07:21:46Z</time>
      </trkpt>
      <trkpt lat="45.09392" lon="5.88015">
        <ele>1610</ele>
        <time>2015-06-20T07:21:47Z</time>
      </trkpt>
      <trkpt lat="45.09389" lon="5.88014">
        <ele>1610</ele>
        <time>2015-06-20T07:21:48Z</time>
      </trkpt>
      <trkpt lat="45.09385" lon="5.88014">
        <ele>1610</ele>
        <time>2015-06-20T07:21:49Z</time>
      </trkpt>
      <trkpt lat="45.09381" lon="5.88013">
        <ele>1610</ele>
        <time>2015-06-20T07:21:50Z</time>
      </trkpt>
      <trkpt lat="45.09379" lon="5.88013">
        <ele>1610</ele>
        <time>2015-06-20T07:21:51Z</time>
      </trkpt>
      <trkpt lat="45.09375" lon="5.88012">
        <ele>1612</ele>
        <time>2015-06-20T07:21:52Z</time>
      </trkpt>
      <trkpt lat="45.09373" lon="5.88011">
        <ele>1612</ele>
        <time>2015-06-20T07:21:53Z</time>
      </trkpt>
      <trkpt lat="45.0937" lon="5.88009">
        <ele>1612</ele>
        <time>2015-06-20T07:21:54Z</time>
      </trkpt>
      <trkpt lat="45.09367" lon="5.88008">
        <ele>1612</ele>
        <time>2015-06-20T07:21:55Z</time>
      </trkpt>
      <trkpt lat="45.09365" lon="5.88007">
        <ele>1612</ele>
        <time>2015-06-20T07:21:56Z</time>
      </trkpt>
      <trkpt lat="45.09361" lon="5.88006">
        <ele>1612</ele>
        <time>2015-06-20T07:21:57Z</time>
      </trkpt>
      <trkpt lat="45.09359" lon="5.88004">
        <ele>1612</ele>
        <time>2015-06-20T07:21:58Z</time>
      </trkpt>
      <trkpt lat="45.09355" lon="5.88002">
        <ele>1612</ele>
        <time>2015-06-20T07:21:59Z</time>
      </trkpt>
      <trkpt lat="45.09352" lon="5.88002">
        <ele>1612</ele>
        <time>2015-06-20T07:22:00Z</time>
      </trkpt>
      <trkpt lat="45.09348" lon="5.88001">
        <ele>1612</ele>
        <time>2015-06-20T07:22:01Z</time>
      </trkpt>
      <trkpt lat="45.09345" lon="5.87999">
        <ele>1612</ele>
        <time>2015-06-20T07:22:02Z</time>
      </trkpt>
      <trkpt lat="45.09343" lon="5.87999">
        <ele>1612</ele>
        <time>2015-06-20T07:22:03Z</time>
      </trkpt>
      <trkpt lat="45.0934" lon="5.87999">
        <ele>1612</ele>
        <time>2015-06-20T07:22:04Z</time>
      </trkpt>
      <trkpt lat="45.09338" lon="5.88">
        <ele>1612</ele>
        <time>2015-06-20T07:22:05Z</time>
      </trkpt>
      <trkpt lat="45.09337" lon="5.88">
        <ele>1612</ele>
        <time>2015-06-20T07:22:06Z</time>
      </trkpt>
      <trkpt lat="45.09334" lon="5.88">
        <ele>1612</ele>
        <time>2015-06-20T07:22:07Z</time>
      </trkpt>
      <trkpt lat="45.09331" lon="5.88">
        <ele>1612</ele>
        <time>2015-06-20T07:22:08Z</time>
      </trkpt>
      <trkpt lat="45.09329" lon="5.88">
        <ele>1612</ele>
        <time>2015-06-20T07:22:09Z</time>
      </trkpt>
      <trkpt lat="45.09326" lon="5.88001">
        <ele>1612</ele>
        <time>2015-06-20T07:22:10Z</time>
      </trkpt>
      <trkpt lat="45.09323" lon="5.88003">
        <ele>1612</ele>
        <time>2015-06-20T07:22:11Z</time>
      </trkpt>
      <trkpt lat="45.09321" lon="5.88003">
        <ele>1612</ele>
        <time>2015-06-20T07:22:12Z</time>
      </trkpt>
      <trkpt lat="45.09317" lon="5.88002">
        <ele>1610</ele>
        <time>2015-06-20T07:22:13Z</time>
      </trkpt>
      <trkpt lat="45.09315" lon="5.88001">
        <ele>1610</ele>
        <time>2015-06-20T07:22:14Z</time>
      </trkpt>
      <trkpt lat="45.09312" lon="5.88001">
        <ele>1610</ele>
        <time>2015-06-20T07:22:15Z</time>
      </trkpt>
      <trkpt lat="45.09309" lon="5.88001">
        <ele>1610</ele>
        <time>2015-06-20T07:22:16Z</time>
      </trkpt>
      <trkpt lat="45.09305" lon="5.88001">
        <ele>1610</ele>
        <time>2015-06-20T07:22:17Z</time>
      </trkpt>
      <trkpt lat="45.09301" lon="5.88001">
        <ele>1610</ele>
        <time>2015-06-20T07:22:18Z</time>
      </trkpt>
      <trkpt lat="45.09297" lon="5.88001">
        <ele>1610</ele>
        <time>2015-06-20T07:22:19Z</time>
      </trkpt>
      <trkpt lat="45.09294" lon="5.88">
        <ele>1610</ele>
        <time>2015-06-20T07:22:20Z</time>
      </trkpt>
      <trkpt lat="45.0929" lon="5.87999">
        <ele>1610</ele>
        <time>2015-06-20T07:22:21Z</time>
      </trkpt>
      <trkpt lat="45.09287" lon="5.87999">
        <ele>1610</ele>
        <time>2015-06-20T07:22:22Z</time>
      </trkpt>
      <trkpt lat="45.09284" lon="5.87999">
        <ele>1607</ele>
        <time>2015-06-20T07:22:23Z</time>
      </trkpt>
      <trkpt lat="45.09282" lon="5.87999">
        <ele>1607</ele>
        <time>2015-06-20T07:22:24Z</time>
      </trkpt>
      <trkpt lat="45.09279" lon="5.87999">
        <ele>1607</ele>
        <time>2015-06-20T07:22:25Z</time>
      </trkpt>
      <trkpt lat="45.09276" lon="5.87999">
        <ele>1607</ele>
        <time>2015-06-20T07:22:26Z</time>
      </trkpt>
      <trkpt lat="45.09273" lon="5.88">
        <ele>1604</ele>
        <time>2015-06-20T07:22:27Z</time>
      </trkpt>
      <trkpt lat="45.0927" lon="5.88">
        <ele>1604</ele>
        <time>2015-06-20T07:22:28Z</time>
      </trkpt>
      <trkpt lat="45.09267" lon="5.88001">
        <ele>1604</ele>
        <time>2015-06-20T07:22:29Z</time>
      </trkpt>
      <trkpt lat="45.09264" lon="5.88">
        <ele>1604</ele>
        <time>2015-06-20T07:22:30Z</time>
      </trkpt>
      <trkpt lat="45.09262" lon="5.87999">
        <ele>1604</ele>
        <time>2015-06-20T07:22:31Z</time>
      </trkpt>
      <trkpt lat="45.09259" lon="5.87997">
        <ele>1604</ele>
        <time>2015-06-20T07:22:32Z</time>
      </trkpt>
      <trkpt lat="45.09256" lon="5.87996">
        <ele>1602</ele>
        <time>2015-06-20T07:22:33Z</time>
      </trkpt>
      <trkpt lat="45.09253" lon="5.87996">
        <ele>1601</ele>
        <time>2015-06-20T07:22:34Z</time>
      </trkpt>
      <trkpt lat="45.0925" lon="5.87995">
        <ele>1601</ele>
        <time>2015-06-20T07:22:35Z</time>
      </trkpt>
      <trkpt lat="45.09247" lon="5.87993">
        <ele>1601</ele>
        <time>2015-06-20T07:22:36Z</time>
      </trkpt>
      <trkpt lat="45.09245" lon="5.8799">
        <ele>1601</ele>
        <time>2015-06-20T07:22:37Z</time>
      </trkpt>
      <trkpt lat="45.09243" lon="5.87988">
        <ele>1599</ele>
        <time>2015-06-20T07:22:38Z</time>
      </trkpt>
      <trkpt lat="45.09241" lon="5.87987">
        <ele>1599</ele>
        <time>2015-06-20T07:22:39Z</time>
      </trkpt>
      <trkpt lat="45.09238" lon="5.87986">
        <ele>1599</ele>
        <time>2015-06-20T07:22:40Z</time>
      </trkpt>
      <trkpt lat="45.09235" lon="5.87984">
        <ele>1599</ele>
        <time>2015-06-20T07:22:41Z</time>
      </trkpt>
      <trkpt lat="45.09232" lon="5.87983">
        <ele>1599</ele>
        <time>2015-06-20T07:22:42Z</time>
      </trkpt>
      <trkpt lat="45.0923" lon="5.87983">
        <ele>1599</ele>
        <time>2015-06-20T07:22:43Z</time>
      </trkpt>
      <trkpt lat="45.09228" lon="5.87984">
        <ele>1599</ele>
        <time>2015-06-20T07:22:44Z</time>
      </trkpt>
      <trkpt lat="45.09225" lon="5.87986">
        <ele>1599</ele>
        <time>2015-06-20T07:22:45Z</time>
      </trkpt>
      <trkpt lat="45.09223" lon="5.87988">
        <ele>1599</ele>
        <time>2015-06-20T07:22:46Z</time>
      </trkpt>
      <trkpt lat="45.09221" lon="5.87991">
        <ele>1599</ele>
        <time>2015-06-20T07:22:47Z</time>
      </trkpt>
      <trkpt lat="45.09219" lon="5.87993">
        <ele>1599</ele>
        <time>2015-06-20T07:22:48Z</time>
      </trkpt>
      <trkpt lat="45.09218" lon="5.87995">
        <ele>1597</ele>
        <time>2015-06-20T07:22:49Z</time>
      </trkpt>
      <trkpt lat="45.09216" lon="5.87998">
        <ele>1597</ele>
        <time>2015-06-20T07:22:50Z</time>
      </trkpt>
      <trkpt lat="45.09214" lon="5.88">
        <ele>1597</ele>
        <time>2015-06-20T07:22:51Z</time>
      </trkpt>
      <trkpt lat="45.09212" lon="5.88001">
        <ele>1597</ele>
        <time>2015-06-20T07:22:52Z</time>
      </trkpt>
      <trkpt lat="45.0921" lon="5.88003">
        <ele>1597</ele>
        <time>2015-06-20T07:22:53Z</time>
      </trkpt>
      <trkpt lat="45.09208" lon="5.88005">
        <ele>1597</ele>
        <time>2015-06-20T07:22:54Z</time>
      </trkpt>
      <trkpt lat="45.09206" lon="5.88006">
        <ele>1594</ele>
        <time>2015-06-20T07:22:55Z</time>
      </trkpt>
      <trkpt lat="45.09204" lon="5.88008">
        <ele>1594</ele>
        <time>2015-06-20T07:22:56Z</time>
      </trkpt>
      <trkpt lat="45.09202" lon="5.8801">
        <ele>1594</ele>
        <time>2015-06-20T07:22:57Z</time>
      </trkpt>
      <trkpt lat="45.09201" lon="5.88012">
        <ele>1593</ele>
        <time>2015-06-20T07:22:58Z</time>
      </trkpt>
      <trkpt lat="45.09199" lon="5.88014">
        <ele>1593</ele>
        <time>2015-06-20T07:22:59Z</time>
      </trkpt>
      <trkpt lat="45.09197" lon="5.88016">
        <ele>1593</ele>
        <time>2015-06-20T07:23:00Z</time>
      </trkpt>
      <trkpt lat="45.09195" lon="5.88018">
        <ele>1594</ele>
        <time>2015-06-20T07:23:01Z</time>
      </trkpt>
      <trkpt lat="45.09192" lon="5.88022">
        <ele>1592</ele>
        <time>2015-06-20T07:23:02Z</time>
      </trkpt>
      <trkpt lat="45.0919" lon="5.88025">
        <ele>1592</ele>
        <time>2015-06-20T07:23:03Z</time>
      </trkpt>
      <trkpt lat="45.09188" lon="5.88028">
        <ele>1592</ele>
        <time>2015-06-20T07:23:04Z</time>
      </trkpt>
      <trkpt lat="45.09186" lon="5.88032">
        <ele>1592</ele>
        <time>2015-06-20T07:23:05Z</time>
      </trkpt>
      <trkpt lat="45.09185" lon="5.88036">
        <ele>1592</ele>
        <time>2015-06-20T07:23:06Z</time>
      </trkpt>
      <trkpt lat="45.09183" lon="5.8804">
        <ele>1592</ele>
        <time>2015-06-20T07:23:07Z</time>
      </trkpt>
      <trkpt lat="45.09181" lon="5.88043">
        <ele>1590</ele>
        <time>2015-06-20T07:23:08Z</time>
      </trkpt>
      <trkpt lat="45.0918" lon="5.88046">
        <ele>1590</ele>
        <time>2015-06-20T07:23:09Z</time>
      </trkpt>
      <trkpt lat="45.09178" lon="5.8805">
        <ele>1590</ele>
        <time>2015-06-20T07:23:10Z</time>
      </trkpt>
      <trkpt lat="45.09177" lon="5.88054">
        <ele>1590</ele>
        <time>2015-06-20T07:23:11Z</time>
      </trkpt>
      <trkpt lat="45.09176" lon="5.88058">
        <ele>1590</ele>
        <time>2015-06-20T07:23:12Z</time>
      </trkpt>
      <trkpt lat="45.09176" lon="5.88061">
        <ele>1589</ele>
        <time>2015-06-20T07:23:13Z</time>
      </trkpt>
      <trkpt lat="45.09175" lon="5.88065">
        <ele>1589</ele>
        <time>2015-06-20T07:23:14Z</time>
      </trkpt>
      <trkpt lat="45.09174" lon="5.88068">
        <ele>1589</ele>
        <time>2015-06-20T07:23:15Z</time>
      </trkpt>
      <trkpt lat="45.09173" lon="5.88072">
        <ele>1589</ele>
        <time>2015-06-20T07:23:16Z</time>
      </trkpt>
      <trkpt lat="45.09171" lon="5.88076">
        <ele>1587</ele>
        <time>2015-06-20T07:23:17Z</time>
      </trkpt>
      <trkpt lat="45.0917" lon="5.88079">
        <ele>1587</ele>
        <time>2015-06-20T07:23:18Z</time>
      </trkpt>
      <trkpt lat="45.09167" lon="5.88083">
        <ele>1587</ele>
        <time>2015-06-20T07:23:19Z</time>
      </trkpt>
      <trkpt lat="45.09165" lon="5.88086">
        <ele>1587</ele>
        <time>2015-06-20T07:23:20Z</time>
      </trkpt>
      <trkpt lat="45.09163" lon="5.88089">
        <ele>1587</ele>
        <time>2015-06-20T07:23:21Z</time>
      </trkpt>
      <trkpt lat="45.0916" lon="5.88091">
        <ele>1585</ele>
        <time>2015-06-20T07:23:22Z</time>
      </trkpt>
      <trkpt lat="45.09159" lon="5.88093">
        <ele>1585</ele>
        <time>2015-06-20T07:23:23Z</time>
      </trkpt>
      <trkpt lat="45.09158" lon="5.88096">
        <ele>1585</ele>
        <time>2015-06-20T07:23:24Z</time>
      </trkpt>
      <trkpt lat="45.09157" lon="5.88099">
        <ele>1585</ele>
        <time>2015-06-20T07:23:25Z</time>
      </trkpt>
      <trkpt lat="45.09156" lon="5.88101">
        <ele>1585</ele>
        <time>2015-06-20T07:23:26Z</time>
      </trkpt>
      <trkpt lat="45.09153" lon="5.88103">
        <ele>1585</ele>
        <time>2015-06-20T07:23:27Z</time>
      </trkpt>
      <trkpt lat="45.09151" lon="5.88105">
        <ele>1581</ele>
        <time>2015-06-20T07:23:28Z</time>
      </trkpt>
      <trkpt lat="45.09148" lon="5.88106">
        <ele>1579</ele>
        <time>2015-06-20T07:23:29Z</time>
      </trkpt>
      <trkpt lat="45.09146" lon="5.88107">
        <ele>1579</ele>
        <time>2015-06-20T07:23:30Z</time>
      </trkpt>
      <trkpt lat="45.09143" lon="5.88108">
        <ele>1577</ele>
        <time>2015-06-20T07:23:32Z</time>
      </trkpt>
      <trkpt lat="45.0914" lon="5.88108">
        <ele>1576</ele>
        <time>2015-06-20T07:23:34Z</time>
      </trkpt>
      <trkpt lat="45.09136" lon="5.88107">
        <ele>1576</ele>
        <time>2015-06-20T07:23:36Z</time>
      </trkpt>
      <trkpt lat="45.09133" lon="5.88106">
        <ele>1575</ele>
        <time>2015-06-20T07:23:37Z</time>
      </trkpt>
      <trkpt lat="45.09131" lon="5.88105">
        <ele>1573</ele>
        <time>2015-06-20T07:23:38Z</time>
      </trkpt>
      <trkpt lat="45.09129" lon="5.88106">
        <ele>1572</ele>
        <time>2015-06-20T07:23:40Z</time>
      </trkpt>
      <trkpt lat="45.09131" lon="5.8811">
        <ele>1572</ele>
        <time>2015-06-20T07:23:43Z</time>
      </trkpt>
      <trkpt lat="45.09132" lon="5.88113">
        <ele>1572</ele>
        <time>2015-06-20T07:23:45Z</time>
      </trkpt>
      <trkpt lat="45.09133" lon="5.88118">
        <ele>1571</ele>
        <time>2015-06-20T07:23:47Z</time>
      </trkpt>
      <trkpt lat="45.09134" lon="5.88122">
        <ele>1569</ele>
        <time>2015-06-20T07:23:49Z</time>
      </trkpt>
      <trkpt lat="45.09134" lon="5.88126">
        <ele>1569</ele>
        <time>2015-06-20T07:23:51Z</time>
      </trkpt>
      <trkpt lat="45.09134" lon="5.8813">
        <ele>1569</ele>
        <time>2015-06-20T07:23:53Z</time>
      </trkpt>
      <trkpt lat="45.09136" lon="5.88134">
        <ele>1569</ele>
        <time>2015-06-20T07:23:55Z</time>
      </trkpt>
      <trkpt lat="45.09137" lon="5.88137">
        <ele>1566</ele>
        <time>2015-06-20T07:23:57Z</time>
      </trkpt>
      <trkpt lat="45.09136" lon="5.88141">
        <ele>1566</ele>
        <time>2015-06-20T07:23:59Z</time>
      </trkpt>
      <trkpt lat="45.09134" lon="5.88143">
        <ele>1566</ele>
        <time>2015-06-20T07:24:01Z</time>
      </trkpt>
      <trkpt lat="45.09132" lon="5.88145">
        <ele>1566</ele>
        <time>2015-06-20T07:24:03Z</time>
      </trkpt>
      <trkpt lat="45.09129" lon="5.88146">
        <ele>1566</ele>
        <time>2015-06-20T07:24:05Z</time>
      </trkpt>
      <trkpt lat="45.09126" lon="5.88145">
        <ele>1566</ele>
        <time>2015-06-20T07:24:07Z</time>
      </trkpt>
      <trkpt lat="45.09124" lon="5.88146">
        <ele>1566</ele>
        <time>2015-06-20T07:24:09Z</time>
      </trkpt>
      <trkpt lat="45.09121" lon="5.88146">
        <ele>1566</ele>
        <time>2015-06-20T07:24:11Z</time>
      </trkpt>
      <trkpt lat="45.09119" lon="5.88144">
        <ele>1566</ele>
        <time>2015-06-20T07:24:13Z</time>
      </trkpt>
      <trkpt lat="45.09118" lon="5.88143">
        <ele>1566</ele>
        <time>2015-06-20T07:24:15Z</time>
      </trkpt>
      <trkpt lat="45.09118" lon="5.88146">
        <ele>1553</ele>
        <time>2015-06-20T07:24:19Z</time>
      </trkpt>
      <trkpt lat="45.09118" lon="5.88148">
        <ele>1553</ele>
        <time>2015-06-20T07:24:21Z</time>
      </trkpt>
      <trkpt lat="45.09119" lon="5.88151">
        <ele>1551</ele>
        <time>2015-06-20T07:24:24Z</time>
      </trkpt>
      <trkpt lat="45.09121" lon="5.88153">
        <ele>1549</ele>
        <time>2015-06-20T07:24:31Z</time>
      </trkpt>
      <trkpt lat="45.09122" lon="5.88156">
        <ele>1548</ele>
        <time>2015-06-20T07:24:35Z</time>
      </trkpt>
      <trkpt lat="45.09124" lon="5.8816">
        <ele>1548</ele>
        <time>2015-06-20T07:24:37Z</time>
      </trkpt>
      <trkpt lat="45.09123" lon="5.88164">
        <ele>1546</ele>
        <time>2015-06-20T07:24:39Z</time>
      </trkpt>
      <trkpt lat="45.09123" lon="5.88167">
        <ele>1546</ele>
        <time>2015-06-20T07:24:40Z</time>
      </trkpt>
      <trkpt lat="45.09123" lon="5.88171">
        <ele>1546</ele>
        <time>2015-06-20T07:24:42Z</time>
      </trkpt>
      <trkpt lat="45.0912" lon="5.88174">
        <ele>1543</ele>
        <time>2015-06-20T07:24:44Z</time>
      </trkpt>
      <trkpt lat="45.09118" lon="5.88174">
        <ele>1541</ele>
        <time>2015-06-20T07:24:46Z</time>
      </trkpt>
      <trkpt lat="45.09117" lon="5.88172">
        <ele>1541</ele>
        <time>2015-06-20T07:24:49Z</time>
      </trkpt>
      <trkpt lat="45.09115" lon="5.88171">
        <ele>1538</ele>
        <time>2015-06-20T07:24:51Z</time>
      </trkpt>
      <trkpt lat="45.09112" lon="5.8817">
        <ele>1538</ele>
        <time>2015-06-20T07:24:53Z</time>
      </trkpt>
      <trkpt lat="45.09111" lon="5.8817">
        <ele>1535</ele>
        <time>2015-06-20T07:24:54Z</time>
      </trkpt>
      <trkpt lat="45.09107" lon="5.88173">
        <ele>1534</ele>
        <time>2015-06-20T07:24:56Z</time>
      </trkpt>
      <trkpt lat="45.09105" lon="5.88174">
        <ele>1534</ele>
        <time>2015-06-20T07:24:57Z</time>
      </trkpt>
      <trkpt lat="45.09103" lon="5.88174">
        <ele>1531</ele>
        <time>2015-06-20T07:24:58Z</time>
      </trkpt>
      <trkpt lat="45.09101" lon="5.88175">
        <ele>1531</ele>
        <time>2015-06-20T07:24:59Z</time>
      </trkpt>
      <trkpt lat="45.09099" lon="5.88177">
        <ele>1530</ele>
        <time>2015-06-20T07:25:00Z</time>
      </trkpt>
      <trkpt lat="45.09097" lon="5.88179">
        <ele>1530</ele>
        <time>2015-06-20T07:25:01Z</time>
      </trkpt>
      <trkpt lat="45.09095" lon="5.88182">
        <ele>1530</ele>
        <time>2015-06-20T07:25:02Z</time>
      </trkpt>
      <trkpt lat="45.09093" lon="5.88184">
        <ele>1531</ele>
        <time>2015-06-20T07:25:04Z</time>
      </trkpt>
      <trkpt lat="45.09091" lon="5.88186">
        <ele>1531</ele>
        <time>2015-06-20T07:25:05Z</time>
      </trkpt>
      <trkpt lat="45.09087" lon="5.88185">
        <ele>1531</ele>
        <time>2015-06-20T07:25:07Z</time>
      </trkpt>
      <trkpt lat="45.09084" lon="5.88184">
        <ele>1531</ele>
        <time>2015-06-20T07:25:08Z</time>
      </trkpt>
      <trkpt lat="45.09082" lon="5.88183">
        <ele>1531</ele>
        <time>2015-06-20T07:25:09Z</time>
      </trkpt>
      <trkpt lat="45.09079" lon="5.88184">
        <ele>1531</ele>
        <time>2015-06-20T07:25:11Z</time>
      </trkpt>
      <trkpt lat="45.09077" lon="5.88185">
        <ele>1531</ele>
        <time>2015-06-20T07:25:12Z</time>
      </trkpt>
      <trkpt lat="45.09075" lon="5.88187">
        <ele>1531</ele>
        <time>2015-06-20T07:25:13Z</time>
      </trkpt>
      <trkpt lat="45.09074" lon="5.88191">
        <ele>1531</ele>
        <time>2015-06-20T07:25:15Z</time>
      </trkpt>
      <trkpt lat="45.09072" lon="5.88193">
        <ele>1531</ele>
        <time>2015-06-20T07:25:16Z</time>
      </trkpt>
      <trkpt lat="45.0907" lon="5.88195">
        <ele>1531</ele>
        <time>2015-06-20T07:25:17Z</time>
      </trkpt>
      <trkpt lat="45.09069" lon="5.88197">
        <ele>1531</ele>
        <time>2015-06-20T07:25:18Z</time>
      </trkpt>
      <trkpt lat="45.09067" lon="5.882">
        <ele>1531</ele>
        <time>2015-06-20T07:25:19Z</time>
      </trkpt>
      <trkpt lat="45.09065" lon="5.88202">
        <ele>1531</ele>
        <time>2015-06-20T07:25:20Z</time>
      </trkpt>
      <trkpt lat="45.09062" lon="5.88204">
        <ele>1531</ele>
        <time>2015-06-20T07:25:22Z</time>
      </trkpt>
      <trkpt lat="45.0906" lon="5.88205">
        <ele>1531</ele>
        <time>2015-06-20T07:25:23Z</time>
      </trkpt>
      <trkpt lat="45.09058" lon="5.88206">
        <ele>1531</ele>
        <time>2015-06-20T07:25:24Z</time>
      </trkpt>
      <trkpt lat="45.09056" lon="5.88207">
        <ele>1526</ele>
        <time>2015-06-20T07:25:25Z</time>
      </trkpt>
      <trkpt lat="45.09054" lon="5.88208">
        <ele>1526</ele>
        <time>2015-06-20T07:25:26Z</time>
      </trkpt>
      <trkpt lat="45.09053" lon="5.88209">
        <ele>1526</ele>
        <time>2015-06-20T07:25:28Z</time>
      </trkpt>
      <trkpt lat="45.09052" lon="5.88213">
        <ele>1526</ele>
        <time>2015-06-20T07:25:30Z</time>
      </trkpt>
      <trkpt lat="45.09051" lon="5.88216">
        <ele>1526</ele>
        <time>2015-06-20T07:25:32Z</time>
      </trkpt>
      <trkpt lat="45.09051" lon="5.88218">
        <ele>1526</ele>
        <time>2015-06-20T07:25:40Z</time>
      </trkpt>
      <trkpt lat="45.09053" lon="5.88221">
        <ele>1519</ele>
        <time>2015-06-20T07:25:43Z</time>
      </trkpt>
      <trkpt lat="45.09053" lon="5.88224">
        <ele>1519</ele>
        <time>2015-06-20T07:25:48Z</time>
      </trkpt>
      <trkpt lat="45.09051" lon="5.88223">
        <ele>1518</ele>
        <time>2015-06-20T07:25:54Z</time>
      </trkpt>
      <trkpt lat="45.09049" lon="5.88223">
        <ele>1517</ele>
        <time>2015-06-20T07:25:57Z</time>
      </trkpt>
      <trkpt lat="45.09047" lon="5.88226">
        <ele>1515</ele>
        <time>2015-06-20T07:26:01Z</time>
      </trkpt>
      <trkpt lat="45.09045" lon="5.88225">
        <ele>1515</ele>
        <time>2015-06-20T07:26:04Z</time>
      </trkpt>
      <trkpt lat="45.09044" lon="5.88228">
        <ele>1515</ele>
        <time>2015-06-20T07:26:11Z</time>
      </trkpt>
      <trkpt lat="45.09045" lon="5.88231">
        <ele>1513</ele>
        <time>2015-06-20T07:26:13Z</time>
      </trkpt>
      <trkpt lat="45.09044" lon="5.88233">
        <ele>1511</ele>
        <time>2015-06-20T07:26:16Z</time>
      </trkpt>
      <trkpt lat="45.09042" lon="5.88234">
        <ele>1511</ele>
        <time>2015-06-20T07:26:18Z</time>
      </trkpt>
      <trkpt lat="45.0904" lon="5.88234">
        <ele>1511</ele>
        <time>2015-06-20T07:26:21Z</time>
      </trkpt>
      <trkpt lat="45.09038" lon="5.88234">
        <ele>1509</ele>
        <time>2015-06-20T07:26:23Z</time>
      </trkpt>
      <trkpt lat="45.09036" lon="5.88235">
        <ele>1506</ele>
        <time>2015-06-20T07:26:26Z</time>
      </trkpt>
      <trkpt lat="45.09036" lon="5.88239">
        <ele>1506</ele>
        <time>2015-06-20T07:26:28Z</time>
      </trkpt>
      <trkpt lat="45.09037" lon="5.88242">
        <ele>1506</ele>
        <time>2015-06-20T07:26:30Z</time>
      </trkpt>
      <trkpt lat="45.09035" lon="5.88242">
        <ele>1504</ele>
        <time>2015-06-20T07:26:32Z</time>
      </trkpt>
      <trkpt lat="45.09033" lon="5.88239">
        <ele>1504</ele>
        <time>2015-06-20T07:26:34Z</time>
      </trkpt>
      <trkpt lat="45.09031" lon="5.88236">
        <ele>1504</ele>
        <time>2015-06-20T07:26:36Z</time>
      </trkpt>
      <trkpt lat="45.0903" lon="5.88232">
        <ele>1501</ele>
        <time>2015-06-20T07:26:38Z</time>
      </trkpt>
      <trkpt lat="45.09029" lon="5.8823">
        <ele>1501</ele>
        <time>2015-06-20T07:26:40Z</time>
      </trkpt>
      <trkpt lat="45.09028" lon="5.88227">
        <ele>1500</ele>
        <time>2015-06-20T07:26:42Z</time>
      </trkpt>
      <trkpt lat="45.09026" lon="5.88224">
        <ele>1500</ele>
        <time>2015-06-20T07:26:44Z</time>
      </trkpt>
      <trkpt lat="45.09025" lon="5.88226">
        <ele>1500</ele>
        <time>2015-06-20T07:26:47Z</time>
      </trkpt>
      <trkpt lat="45.09022" lon="5.8823">
        <ele>1496</ele>
        <time>2015-06-20T07:26:49Z</time>
      </trkpt>
      <trkpt lat="45.09021" lon="5.88234">
        <ele>1496</ele>
        <time>2015-06-20T07:26:51Z</time>
      </trkpt>
      <trkpt lat="45.09019" lon="5.88238">
        <ele>1492</ele>
        <time>2015-06-20T07:26:53Z</time>
      </trkpt>
      <trkpt lat="45.09017" lon="5.8824">
        <ele>1492</ele>
        <time>2015-06-20T07:26:54Z</time>
      </trkpt>
      <trkpt lat="45.09016" lon="5.88243">
        <ele>1490</ele>
        <time>2015-06-20T07:26:55Z</time>
      </trkpt>
      <trkpt lat="45.09014" lon="5.88244">
        <ele>1489</ele>
        <time>2015-06-20T07:26:56Z</time>
      </trkpt>
      <trkpt lat="45.09013" lon="5.88246">
        <ele>1489</ele>
        <time>2015-06-20T07:26:57Z</time>
      </trkpt>
      <trkpt lat="45.09011" lon="5.88248">
        <ele>1488</ele>
        <time>2015-06-20T07:26:58Z</time>
      </trkpt>
      <trkpt lat="45.0901" lon="5.8825">
        <ele>1488</ele>
        <time>2015-06-20T07:26:59Z</time>
      </trkpt>
      <trkpt lat="45.09007" lon="5.8825">
        <ele>1486</ele>
        <time>2015-06-20T07:27:01Z</time>
      </trkpt>
      <trkpt lat="45.09005" lon="5.88249">
        <ele>1486</ele>
        <time>2015-06-20T07:27:02Z</time>
      </trkpt>
      <trkpt lat="45.09003" lon="5.88247">
        <ele>1486</ele>
        <time>2015-06-20T07:27:03Z</time>
      </trkpt>
      <trkpt lat="45.09002" lon="5.88244">
        <ele>1485</ele>
        <time>2015-06-20T07:27:04Z</time>
      </trkpt>
      <trkpt lat="45.09001" lon="5.88241">
        <ele>1485</ele>
        <time>2015-06-20T07:27:05Z</time>
      </trkpt>
      <trkpt lat="45.09002" lon="5.88237">
        <ele>1485</ele>
        <time>2015-06-20T07:27:06Z</time>
      </trkpt>
      <trkpt lat="45.09002" lon="5.88234">
        <ele>1485</ele>
        <time>2015-06-20T07:27:07Z</time>
      </trkpt>
      <trkpt lat="45.09002" lon="5.8823">
        <ele>1485</ele>
        <time>2015-06-20T07:27:08Z</time>
      </trkpt>
      <trkpt lat="45.09003" lon="5.88227">
        <ele>1485</ele>
        <time>2015-06-20T07:27:09Z</time>
      </trkpt>
      <trkpt lat="45.09003" lon="5.88223">
        <ele>1485</ele>
        <time>2015-06-20T07:27:11Z</time>
      </trkpt>
      <trkpt lat="45.09003" lon="5.8822">
        <ele>1482</ele>
        <time>2015-06-20T07:27:13Z</time>
      </trkpt>
      <trkpt lat="45.09004" lon="5.88216">
        <ele>1482</ele>
        <time>2015-06-20T07:27:15Z</time>
      </trkpt>
      <trkpt lat="45.09006" lon="5.88213">
        <ele>1478</ele>
        <time>2015-06-20T07:27:17Z</time>
      </trkpt>
      <trkpt lat="45.09005" lon="5.8821">
        <ele>1475</ele>
        <time>2015-06-20T07:27:19Z</time>
      </trkpt>
      <trkpt lat="45.09002" lon="5.88207">
        <ele>1475</ele>
        <time>2015-06-20T07:27:21Z</time>
      </trkpt>
      <trkpt lat="45.09" lon="5.88204">
        <ele>1473</ele>
        <time>2015-06-20T07:27:23Z</time>
      </trkpt>
      <trkpt lat="45.09" lon="5.88201">
        <ele>1473</ele>
        <time>2015-06-20T07:27:25Z</time>
      </trkpt>
      <trkpt lat="45.08997" lon="5.88198">
        <ele>1472</ele>
        <time>2015-06-20T07:27:28Z</time>
      </trkpt>
      <trkpt lat="45.08995" lon="5.88198">
        <ele>1472</ele>
        <time>2015-06-20T07:27:30Z</time>
      </trkpt>
      <trkpt lat="45.08993" lon="5.88198">
        <ele>1468</ele>
        <time>2015-06-20T07:27:32Z</time>
      </trkpt>
      <trkpt lat="45.08991" lon="5.88195">
        <ele>1468</ele>
        <time>2015-06-20T07:27:34Z</time>
      </trkpt>
      <trkpt lat="45.08989" lon="5.88195">
        <ele>1466</ele>
        <time>2015-06-20T07:27:40Z</time>
      </trkpt>
      <trkpt lat="45.08987" lon="5.88196">
        <ele>1466</ele>
        <time>2015-06-20T07:27:42Z</time>
      </trkpt>
      <trkpt lat="45.08986" lon="5.88197">
        <ele>1466</ele>
        <time>2015-06-20T07:27:44Z</time>
      </trkpt>
      <trkpt lat="45.08986" lon="5.88201">
        <ele>1464</ele>
        <time>2015-06-20T07:27:46Z</time>
      </trkpt>
      <trkpt lat="45.08984" lon="5.88204">
        <ele>1464</ele>
        <time>2015-06-20T07:27:48Z</time>
      </trkpt>
      <trkpt lat="45.08982" lon="5.88208">
        <ele>1461</ele>
        <time>2015-06-20T07:27:50Z</time>
      </trkpt>
      <trkpt lat="45.08981" lon="5.8821">
        <ele>1461</ele>
        <time>2015-06-20T07:27:51Z</time>
      </trkpt>
      <trkpt lat="45.0898" lon="5.88212">
        <ele>1459</ele>
        <time>2015-06-20T07:27:52Z</time>
      </trkpt>
      <trkpt lat="45.08979" lon="5.88215">
        <ele>1458</ele>
        <time>2015-06-20T07:27:53Z</time>
      </trkpt>
      <trkpt lat="45.08978" lon="5.88217">
        <ele>1458</ele>
        <time>2015-06-20T07:27:54Z</time>
      </trkpt>
      <trkpt lat="45.08977" lon="5.8822">
        <ele>1457</ele>
        <time>2015-06-20T07:27:55Z</time>
      </trkpt>
      <trkpt lat="45.08975" lon="5.88223">
        <ele>1457</ele>
        <time>2015-06-20T07:27:56Z</time>
      </trkpt>
      <trkpt lat="45.08973" lon="5.88225">
        <ele>1457</ele>
        <time>2015-06-20T07:27:57Z</time>
      </trkpt>
      <trkpt lat="45.08972" lon="5.88228">
        <ele>1455</ele>
        <time>2015-06-20T07:27:58Z</time>
      </trkpt>
      <trkpt lat="45.08971" lon="5.88231">
        <ele>1455</ele>
        <time>2015-06-20T07:27:59Z</time>
      </trkpt>
      <trkpt lat="45.0897" lon="5.88234">
        <ele>1455</ele>
        <time>2015-06-20T07:28:00Z</time>
      </trkpt>
      <trkpt lat="45.08969" lon="5.88237">
        <ele>1453</ele>
        <time>2015-06-20T07:28:01Z</time>
      </trkpt>
      <trkpt lat="45.08969" lon="5.8824">
        <ele>1453</ele>
        <time>2015-06-20T07:28:02Z</time>
      </trkpt>
      <trkpt lat="45.08968" lon="5.88244">
        <ele>1453</ele>
        <time>2015-06-20T07:28:03Z</time>
      </trkpt>
      <trkpt lat="45.08967" lon="5.88248">
        <ele>1453</ele>
        <time>2015-06-20T07:28:04Z</time>
      </trkpt>
      <trkpt lat="45.08967" lon="5.88251">
        <ele>1452</ele>
        <time>2015-06-20T07:28:05Z</time>
      </trkpt>
      <trkpt lat="45.08967" lon="5.88254">
        <ele>1452</ele>
        <time>2015-06-20T07:28:06Z</time>
      </trkpt>
      <trkpt lat="45.08966" lon="5.88258">
        <ele>1450</ele>
        <time>2015-06-20T07:28:07Z</time>
      </trkpt>
      <trkpt lat="45.08965" lon="5.88262">
        <ele>1449</ele>
        <time>2015-06-20T07:28:08Z</time>
      </trkpt>
      <trkpt lat="45.08964" lon="5.88265">
        <ele>1449</ele>
        <time>2015-06-20T07:28:09Z</time>
      </trkpt>
      <trkpt lat="45.08963" lon="5.88269">
        <ele>1449</ele>
        <time>2015-06-20T07:28:10Z</time>
      </trkpt>
      <trkpt lat="45.08962" lon="5.88272">
        <ele>1448</ele>
        <time>2015-06-20T07:28:11Z</time>
      </trkpt>
      <trkpt lat="45.08961" lon="5.88275">
        <ele>1448</ele>
        <time>2015-06-20T07:28:12Z</time>
      </trkpt>
      <trkpt lat="45.08961" lon="5.88278">
        <ele>1448</ele>
        <time>2015-06-20T07:28:13Z</time>
      </trkpt>
      <trkpt lat="45.08961" lon="5.8828">
        <ele>1448</ele>
        <time>2015-06-20T07:28:14Z</time>
      </trkpt>
      <trkpt lat="45.0896" lon="5.88283">
        <ele>1446</ele>
        <time>2015-06-20T07:28:16Z</time>
      </trkpt>
      <trkpt lat="45.08959" lon="5.88288">
        <ele>1446</ele>
        <time>2015-06-20T07:28:18Z</time>
      </trkpt>
      <trkpt lat="45.08959" lon="5.88292">
        <ele>1446</ele>
        <time>2015-06-20T07:28:20Z</time>
      </trkpt>
      <trkpt lat="45.0896" lon="5.88296">
        <ele>1443</ele>
        <time>2015-06-20T07:28:22Z</time>
      </trkpt>
      <trkpt lat="45.0896" lon="5.883">
        <ele>1443</ele>
        <time>2015-06-20T07:28:24Z</time>
      </trkpt>
      <trkpt lat="45.0896" lon="5.88303">
        <ele>1441</ele>
        <time>2015-06-20T07:28:25Z</time>
      </trkpt>
      <trkpt lat="45.0896" lon="5.88305">
        <ele>1441</ele>
        <time>2015-06-20T07:28:26Z</time>
      </trkpt>
      <trkpt lat="45.0896" lon="5.88309">
        <ele>1439</ele>
        <time>2015-06-20T07:28:27Z</time>
      </trkpt>
      <trkpt lat="45.08959" lon="5.88311">
        <ele>1436</ele>
        <time>2015-06-20T07:28:28Z</time>
      </trkpt>
      <trkpt lat="45.08956" lon="5.88312">
        <ele>1436</ele>
        <time>2015-06-20T07:28:29Z</time>
      </trkpt>
      <trkpt lat="45.08954" lon="5.88313">
        <ele>1436</ele>
        <time>2015-06-20T07:28:30Z</time>
      </trkpt>
      <trkpt lat="45.08951" lon="5.88313">
        <ele>1435</ele>
        <time>2015-06-20T07:28:32Z</time>
      </trkpt>
      <trkpt lat="45.08949" lon="5.88312">
        <ele>1435</ele>
        <time>2015-06-20T07:28:33Z</time>
      </trkpt>
      <trkpt lat="45.08947" lon="5.88309">
        <ele>1433</ele>
        <time>2015-06-20T07:28:34Z</time>
      </trkpt>
      <trkpt lat="45.08946" lon="5.88307">
        <ele>1433</ele>
        <time>2015-06-20T07:28:35Z</time>
      </trkpt>
      <trkpt lat="45.08945" lon="5.88306">
        <ele>1432</ele>
        <time>2015-06-20T07:28:36Z</time>
      </trkpt>
      <trkpt lat="45.08943" lon="5.88302">
        <ele>1432</ele>
        <time>2015-06-20T07:28:38Z</time>
      </trkpt>
      <trkpt lat="45.08942" lon="5.88298">
        <ele>1428</ele>
        <time>2015-06-20T07:28:40Z</time>
      </trkpt>
      <trkpt lat="45.08939" lon="5.88295">
        <ele>1427</ele>
        <time>2015-06-20T07:28:42Z</time>
      </trkpt>
      <trkpt lat="45.08939" lon="5.88291">
        <ele>1427</ele>
        <time>2015-06-20T07:28:44Z</time>
      </trkpt>
      <trkpt lat="45.08937" lon="5.88288">
        <ele>1424</ele>
        <time>2015-06-20T07:28:46Z</time>
      </trkpt>
      <trkpt lat="45.08936" lon="5.88284">
        <ele>1423</ele>
        <time>2015-06-20T07:28:48Z</time>
      </trkpt>
      <trkpt lat="45.08936" lon="5.88281">
        <ele>1422</ele>
        <time>2015-06-20T07:28:50Z</time>
      </trkpt>
      <trkpt lat="45.08937" lon="5.88277">
        <ele>1422</ele>
        <time>2015-06-20T07:28:52Z</time>
      </trkpt>
      <trkpt lat="45.0894" lon="5.88275">
        <ele>1422</ele>
        <time>2015-06-20T07:28:54Z</time>
      </trkpt>
      <trkpt lat="45.08941" lon="5.88273">
        <ele>1418</ele>
        <time>2015-06-20T07:28:56Z</time>
      </trkpt>
      <trkpt lat="45.08939" lon="5.8827">
        <ele>1416</ele>
        <time>2015-06-20T07:29:00Z</time>
      </trkpt>
      <trkpt lat="45.08939" lon="5.88266">
        <ele>1416</ele>
        <time>2015-06-20T07:29:02Z</time>
      </trkpt>
      <trkpt lat="45.08939" lon="5.88262">
        <ele>1414</ele>
        <time>2015-06-20T07:29:05Z</time>
      </trkpt>
      <trkpt lat="45.08939" lon="5.88259">
        <ele>1414</ele>
        <time>2015-06-20T07:29:06Z</time>
      </trkpt>
      <trkpt lat="45.08939" lon="5.88256">
        <ele>1414</ele>
        <time>2015-06-20T07:29:07Z</time>
      </trkpt>
      <trkpt lat="45.08939" lon="5.88253">
        <ele>1412</ele>
        <time>2015-06-20T07:29:08Z</time>
      </trkpt>
      <trkpt lat="45.08938" lon="5.8825">
        <ele>1412</ele>
        <time>2015-06-20T07:29:09Z</time>
      </trkpt>
      <trkpt lat="45.08938" lon="5.88247">
        <ele>1412</ele>
        <time>2015-06-20T07:29:10Z</time>
      </trkpt>
      <trkpt lat="45.08937" lon="5.88244">
        <ele>1412</ele>
        <time>2015-06-20T07:29:12Z</time>
      </trkpt>
      <trkpt lat="45.08935" lon="5.88242">
        <ele>1408</ele>
        <time>2015-06-20T07:29:14Z</time>
      </trkpt>
      <trkpt lat="45.08933" lon="5.8824">
        <ele>1408</ele>
        <time>2015-06-20T07:29:16Z</time>
      </trkpt>
      <trkpt lat="45.08931" lon="5.8824">
        <ele>1408</ele>
        <time>2015-06-20T07:29:18Z</time>
      </trkpt>
      <trkpt lat="45.0893" lon="5.88243">
        <ele>1405</ele>
        <time>2015-06-20T07:29:20Z</time>
      </trkpt>
      <trkpt lat="45.08927" lon="5.88246">
        <ele>1404</ele>
        <time>2015-06-20T07:29:22Z</time>
      </trkpt>
      <trkpt lat="45.08926" lon="5.88248">
        <ele>1404</ele>
        <time>2015-06-20T07:29:23Z</time>
      </trkpt>
      <trkpt lat="45.08925" lon="5.88251">
        <ele>1402</ele>
        <time>2015-06-20T07:29:24Z</time>
      </trkpt>
      <trkpt lat="45.08923" lon="5.88254">
        <ele>1402</ele>
        <time>2015-06-20T07:29:26Z</time>
      </trkpt>
      <trkpt lat="45.08922" lon="5.88258">
        <ele>1400</ele>
        <time>2015-06-20T07:29:28Z</time>
      </trkpt>
      <trkpt lat="45.08921" lon="5.8826">
        <ele>1398</ele>
        <time>2015-06-20T07:29:29Z</time>
      </trkpt>
      <trkpt lat="45.08919" lon="5.88264">
        <ele>1397</ele>
        <time>2015-06-20T07:29:31Z</time>
      </trkpt>
      <trkpt lat="45.08917" lon="5.88265">
        <ele>1397</ele>
        <time>2015-06-20T07:29:32Z</time>
      </trkpt>
      <trkpt lat="45.08916" lon="5.88267">
        <ele>1397</ele>
        <time>2015-06-20T07:29:33Z</time>
      </trkpt>
      <trkpt lat="45.08914" lon="5.8827">
        <ele>1395</ele>
        <time>2015-06-20T07:29:35Z</time>
      </trkpt>
      <trkpt lat="45.08913" lon="5.88275">
        <ele>1395</ele>
        <time>2015-06-20T07:29:37Z</time>
      </trkpt>
      <trkpt lat="45.08911" lon="5.88279">
        <ele>1394</ele>
        <time>2015-06-20T07:29:39Z</time>
      </trkpt>
      <trkpt lat="45.0891" lon="5.8828">
        <ele>1393</ele>
        <time>2015-06-20T07:29:40Z</time>
      </trkpt>
      <trkpt lat="45.08908" lon="5.88283">
        <ele>1393</ele>
        <time>2015-06-20T07:29:41Z</time>
      </trkpt>
      <trkpt lat="45.08908" lon="5.88287">
        <ele>1392</ele>
        <time>2015-06-20T07:29:43Z</time>
      </trkpt>
      <trkpt lat="45.08907" lon="5.88292">
        <ele>1392</ele>
        <time>2015-06-20T07:29:45Z</time>
      </trkpt>
      <trkpt lat="45.08907" lon="5.88295">
        <ele>1390</ele>
        <time>2015-06-20T07:29:46Z</time>
      </trkpt>
      <trkpt lat="45.08906" lon="5.88297">
        <ele>1388</ele>
        <time>2015-06-20T07:29:47Z</time>
      </trkpt>
      <trkpt lat="45.08907" lon="5.88302">
        <ele>1388</ele>
        <time>2015-06-20T07:29:49Z</time>
      </trkpt>
      <trkpt lat="45.08907" lon="5.88304">
        <ele>1387</ele>
        <time>2015-06-20T07:29:50Z</time>
      </trkpt>
      <trkpt lat="45.08907" lon="5.88307">
        <ele>1387</ele>
        <time>2015-06-20T07:29:51Z</time>
      </trkpt>
      <trkpt lat="45.08908" lon="5.88311">
        <ele>1384</ele>
        <time>2015-06-20T07:29:53Z</time>
      </trkpt>
      <trkpt lat="45.08907" lon="5.88316">
        <ele>1384</ele>
        <time>2015-06-20T07:29:55Z</time>
      </trkpt>
      <trkpt lat="45.08907" lon="5.88319">
        <ele>1383</ele>
        <time>2015-06-20T07:29:56Z</time>
      </trkpt>
      <trkpt lat="45.08907" lon="5.88323">
        <ele>1383</ele>
        <time>2015-06-20T07:29:57Z</time>
      </trkpt>
      <trkpt lat="45.08907" lon="5.88325">
        <ele>1382</ele>
        <time>2015-06-20T07:29:58Z</time>
      </trkpt>
      <trkpt lat="45.08906" lon="5.88328">
        <ele>1382</ele>
        <time>2015-06-20T07:29:59Z</time>
      </trkpt>
      <trkpt lat="45.08906" lon="5.88331">
        <ele>1382</ele>
        <time>2015-06-20T07:30:00Z</time>
      </trkpt>
      <trkpt lat="45.08905" lon="5.88334">
        <ele>1380</ele>
        <time>2015-06-20T07:30:01Z</time>
      </trkpt>
      <trkpt lat="45.08904" lon="5.88339">
        <ele>1380</ele>
        <time>2015-06-20T07:30:03Z</time>
      </trkpt>
      <trkpt lat="45.08904" lon="5.88341">
        <ele>1379</ele>
        <time>2015-06-20T07:30:04Z</time>
      </trkpt>
      <trkpt lat="45.08902" lon="5.88344">
        <ele>1379</ele>
        <time>2015-06-20T07:30:05Z</time>
      </trkpt>
      <trkpt lat="45.08901" lon="5.88347">
        <ele>1377</ele>
        <time>2015-06-20T07:30:06Z</time>
      </trkpt>
      <trkpt lat="45.089" lon="5.88352">
        <ele>1375</ele>
        <time>2015-06-20T07:30:08Z</time>
      </trkpt>
      <trkpt lat="45.08898" lon="5.88355">
        <ele>1375</ele>
        <time>2015-06-20T07:30:10Z</time>
      </trkpt>
      <trkpt lat="45.08896" lon="5.8836">
        <ele>1372</ele>
        <time>2015-06-20T07:30:12Z</time>
      </trkpt>
      <trkpt lat="45.08895" lon="5.88363">
        <ele>1370</ele>
        <time>2015-06-20T07:30:13Z</time>
      </trkpt>
      <trkpt lat="45.08894" lon="5.88366">
        <ele>1370</ele>
        <time>2015-06-20T07:30:14Z</time>
      </trkpt>
      <trkpt lat="45.08894" lon="5.88369">
        <ele>1370</ele>
        <time>2015-06-20T07:30:15Z</time>
      </trkpt>
      <trkpt lat="45.08894" lon="5.88372">
        <ele>1369</ele>
        <time>2015-06-20T07:30:16Z</time>
      </trkpt>
      <trkpt lat="45.08894" lon="5.88375">
        <ele>1369</ele>
        <time>2015-06-20T07:30:17Z</time>
      </trkpt>
      <trkpt lat="45.08893" lon="5.88379">
        <ele>1369</ele>
        <time>2015-06-20T07:30:19Z</time>
      </trkpt>
      <trkpt lat="45.08893" lon="5.88383">
        <ele>1367</ele>
        <time>2015-06-20T07:30:21Z</time>
      </trkpt>
      <trkpt lat="45.08894" lon="5.88385">
        <ele>1363</ele>
        <time>2015-06-20T07:30:23Z</time>
      </trkpt>
      <trkpt lat="45.08897" lon="5.88389">
        <ele>1363</ele>
        <time>2015-06-20T07:30:25Z</time>
      </trkpt>
      <trkpt lat="45.08899" lon="5.88392">
        <ele>1363</ele>
        <time>2015-06-20T07:30:27Z</time>
      </trkpt>
      <trkpt lat="45.089" lon="5.88396">
        <ele>1360</ele>
        <time>2015-06-20T07:30:29Z</time>
      </trkpt>
      <trkpt lat="45.089" lon="5.88399">
        <ele>1359</ele>
        <time>2015-06-20T07:30:30Z</time>
      </trkpt>
      <trkpt lat="45.08899" lon="5.88401">
        <ele>1359</ele>
        <time>2015-06-20T07:30:31Z</time>
      </trkpt>
      <trkpt lat="45.08896" lon="5.88402">
        <ele>1358</ele>
        <time>2015-06-20T07:30:32Z</time>
      </trkpt>
      <trkpt lat="45.08893" lon="5.88403">
        <ele>1355</ele>
        <time>2015-06-20T07:30:34Z</time>
      </trkpt>
      <trkpt lat="45.08891" lon="5.88404">
        <ele>1355</ele>
        <time>2015-06-20T07:30:35Z</time>
      </trkpt>
      <trkpt lat="45.08888" lon="5.88407">
        <ele>1354</ele>
        <time>2015-06-20T07:30:37Z</time>
      </trkpt>
      <trkpt lat="45.08887" lon="5.8841">
        <ele>1354</ele>
        <time>2015-06-20T07:30:39Z</time>
      </trkpt>
      <trkpt lat="45.08888" lon="5.88415">
        <ele>1350</ele>
        <time>2015-06-20T07:30:41Z</time>
      </trkpt>
      <trkpt lat="45.08889" lon="5.88417">
        <ele>1350</ele>
        <time>2015-06-20T07:30:43Z</time>
      </trkpt>
      <trkpt lat="45.08891" lon="5.88419">
        <ele>1350</ele>
        <time>2015-06-20T07:30:45Z</time>
      </trkpt>
      <trkpt lat="45.08893" lon="5.88421">
        <ele>1347</ele>
        <time>2015-06-20T07:30:47Z</time>
      </trkpt>
      <trkpt lat="45.08897" lon="5.88424">
        <ele>1344</ele>
        <time>2015-06-20T07:30:50Z</time>
      </trkpt>
      <trkpt lat="45.089" lon="5.88426">
        <ele>1344</ele>
        <time>2015-06-20T07:30:52Z</time>
      </trkpt>
      <trkpt lat="45.08901" lon="5.88429">
        <ele>1344</ele>
        <time>2015-06-20T07:31:01Z</time>
      </trkpt>
      <trkpt lat="45.08903" lon="5.8843">
        <ele>1344</ele>
        <time>2015-06-20T07:31:06Z</time>
      </trkpt>
      <trkpt lat="45.08905" lon="5.88432">
        <ele>1344</ele>
        <time>2015-06-20T07:31:08Z</time>
      </trkpt>
      <trkpt lat="45.08907" lon="5.88435">
        <ele>1344</ele>
        <time>2015-06-20T07:31:10Z</time>
      </trkpt>
      <trkpt lat="45.08909" lon="5.88437">
        <ele>1344</ele>
        <time>2015-06-20T07:31:11Z</time>
      </trkpt>
      <trkpt lat="45.0891" lon="5.8844">
        <ele>1344</ele>
        <time>2015-06-20T07:31:12Z</time>
      </trkpt>
      <trkpt lat="45.08911" lon="5.88442">
        <ele>1344</ele>
        <time>2015-06-20T07:31:13Z</time>
      </trkpt>
      <trkpt lat="45.08908" lon="5.88445">
        <ele>1339</ele>
        <time>2015-06-20T07:31:15Z</time>
      </trkpt>
      <trkpt lat="45.08907" lon="5.88447">
        <ele>1339</ele>
        <time>2015-06-20T07:31:16Z</time>
      </trkpt>
      <trkpt lat="45.08905" lon="5.88448">
        <ele>1339</ele>
        <time>2015-06-20T07:31:17Z</time>
      </trkpt>
      <trkpt lat="45.08902" lon="5.88449">
        <ele>1333</ele>
        <time>2015-06-20T07:31:19Z</time>
      </trkpt>
      <trkpt lat="45.08899" lon="5.8845">
        <ele>1333</ele>
        <time>2015-06-20T07:31:21Z</time>
      </trkpt>
      <trkpt lat="45.08897" lon="5.88453">
        <ele>1333</ele>
        <time>2015-06-20T07:31:24Z</time>
      </trkpt>
      <trkpt lat="45.08898" lon="5.88456">
        <ele>1325</ele>
        <time>2015-06-20T07:31:26Z</time>
      </trkpt>
      <trkpt lat="45.08899" lon="5.88459">
        <ele>1324</ele>
        <time>2015-06-20T07:31:28Z</time>
      </trkpt>
      <trkpt lat="45.08901" lon="5.88462">
        <ele>1324</ele>
        <time>2015-06-20T07:31:30Z</time>
      </trkpt>
      <trkpt lat="45.08902" lon="5.88466">
        <ele>1324</ele>
        <time>2015-06-20T07:31:32Z</time>
      </trkpt>
      <trkpt lat="45.08902" lon="5.8847">
        <ele>1321</ele>
        <time>2015-06-20T07:31:34Z</time>
      </trkpt>
      <trkpt lat="45.08901" lon="5.88474">
        <ele>1320</ele>
        <time>2015-06-20T07:31:36Z</time>
      </trkpt>
      <trkpt lat="45.089" lon="5.88477">
        <ele>1319</ele>
        <time>2015-06-20T07:31:38Z</time>
      </trkpt>
      <trkpt lat="45.08903" lon="5.88478">
        <ele>1317</ele>
        <time>2015-06-20T07:31:41Z</time>
      </trkpt>
      <trkpt lat="45.08904" lon="5.88479">
        <ele>1315</ele>
        <time>2015-06-20T07:31:43Z</time>
      </trkpt>
      <trkpt lat="45.08906" lon="5.88477">
        <ele>1314</ele>
        <time>2015-06-20T07:31:45Z</time>
      </trkpt>
      <trkpt lat="45.08908" lon="5.88477">
        <ele>1312</ele>
        <time>2015-06-20T07:31:47Z</time>
      </trkpt>
      <trkpt lat="45.08911" lon="5.88479">
        <ele>1312</ele>
        <time>2015-06-20T07:31:49Z</time>
      </trkpt>
      <trkpt lat="45.08913" lon="5.88483">
        <ele>1312</ele>
        <time>2015-06-20T07:31:51Z</time>
      </trkpt>
      <trkpt lat="45.08914" lon="5.88485">
        <ele>1309</ele>
        <time>2015-06-20T07:31:53Z</time>
      </trkpt>
      <trkpt lat="45.08916" lon="5.88489">
        <ele>1308</ele>
        <time>2015-06-20T07:31:55Z</time>
      </trkpt>
      <trkpt lat="45.08913" lon="5.88492">
        <ele>1308</ele>
        <time>2015-06-20T07:31:57Z</time>
      </trkpt>
      <trkpt lat="45.08912" lon="5.88494">
        <ele>1305</ele>
        <time>2015-06-20T07:31:59Z</time>
      </trkpt>
      <trkpt lat="45.08913" lon="5.88498">
        <ele>1305</ele>
        <time>2015-06-20T07:32:01Z</time>
      </trkpt>
      <trkpt lat="45.08915" lon="5.885">
        <ele>1303</ele>
        <time>2015-06-20T07:32:03Z</time>
      </trkpt>
      <trkpt lat="45.08917" lon="5.88502">
        <ele>1303</ele>
        <time>2015-06-20T07:32:04Z</time>
      </trkpt>
      <trkpt lat="45.08918" lon="5.88504">
        <ele>1302</ele>
        <time>2015-06-20T07:32:06Z</time>
      </trkpt>
      <trkpt lat="45.0892" lon="5.88505">
        <ele>1300</ele>
        <time>2015-06-20T07:32:09Z</time>
      </trkpt>
      <trkpt lat="45.08922" lon="5.88507">
        <ele>1299</ele>
        <time>2015-06-20T07:32:11Z</time>
      </trkpt>
      <trkpt lat="45.08924" lon="5.8851">
        <ele>1296</ele>
        <time>2015-06-20T07:32:13Z</time>
      </trkpt>
      <trkpt lat="45.08926" lon="5.88513">
        <ele>1296</ele>
        <time>2015-06-20T07:32:15Z</time>
      </trkpt>
      <trkpt lat="45.08929" lon="5.88515">
        <ele>1293</ele>
        <time>2015-06-20T07:32:17Z</time>
      </trkpt>
      <trkpt lat="45.08931" lon="5.88516">
        <ele>1290</ele>
        <time>2015-06-20T07:32:19Z</time>
      </trkpt>
      <trkpt lat="45.08933" lon="5.88517">
        <ele>1290</ele>
        <time>2015-06-20T07:32:21Z</time>
      </trkpt>
      <trkpt lat="45.08934" lon="5.8852">
        <ele>1289</ele>
        <time>2015-06-20T07:32:23Z</time>
      </trkpt>
      <trkpt lat="45.08932" lon="5.88523">
        <ele>1288</ele>
        <time>2015-06-20T07:32:25Z</time>
      </trkpt>
      <trkpt lat="45.08934" lon="5.88527">
        <ele>1288</ele>
        <time>2015-06-20T07:32:28Z</time>
      </trkpt>
      <trkpt lat="45.08936" lon="5.8853">
        <ele>1285</ele>
        <time>2015-06-20T07:32:30Z</time>
      </trkpt>
      <trkpt lat="45.08934" lon="5.88533">
        <ele>1283</ele>
        <time>2015-06-20T07:32:33Z</time>
      </trkpt>
      <trkpt lat="45.08936" lon="5.88535">
        <ele>1283</ele>
        <time>2015-06-20T07:32:36Z</time>
      </trkpt>
      <trkpt lat="45.08937" lon="5.88537">
        <ele>1280</ele>
        <time>2015-06-20T07:32:38Z</time>
      </trkpt>
      <trkpt lat="45.0894" lon="5.88538">
        <ele>1279</ele>
        <time>2015-06-20T07:32:40Z</time>
      </trkpt>
      <trkpt lat="45.08943" lon="5.88537">
        <ele>1277</ele>
        <time>2015-06-20T07:32:42Z</time>
      </trkpt>
      <trkpt lat="45.08945" lon="5.88537">
        <ele>1276</ele>
        <time>2015-06-20T07:32:45Z</time>
      </trkpt>
      <trkpt lat="45.08947" lon="5.88536">
        <ele>1275</ele>
        <time>2015-06-20T07:32:47Z</time>
      </trkpt>
      <trkpt lat="45.08949" lon="5.88537">
        <ele>1275</ele>
        <time>2015-06-20T07:32:48Z</time>
      </trkpt>
      <trkpt lat="45.08952" lon="5.88538">
        <ele>1273</ele>
        <time>2015-06-20T07:32:49Z</time>
      </trkpt>
      <trkpt lat="45.08954" lon="5.8854">
        <ele>1273</ele>
        <time>2015-06-20T07:32:51Z</time>
      </trkpt>
      <trkpt lat="45.08956" lon="5.88544">
        <ele>1271</ele>
        <time>2015-06-20T07:32:53Z</time>
      </trkpt>
      <trkpt lat="45.08956" lon="5.88547">
        <ele>1271</ele>
        <time>2015-06-20T07:32:55Z</time>
      </trkpt>
      <trkpt lat="45.08955" lon="5.88549">
        <ele>1269</ele>
        <time>2015-06-20T07:32:58Z</time>
      </trkpt>
      <trkpt lat="45.08953" lon="5.8855">
        <ele>1267</ele>
        <time>2015-06-20T07:33:00Z</time>
      </trkpt>
      <trkpt lat="45.0895" lon="5.88551">
        <ele>1267</ele>
        <time>2015-06-20T07:33:03Z</time>
      </trkpt>
      <trkpt lat="45.08948" lon="5.88552">
        <ele>1267</ele>
        <time>2015-06-20T07:33:05Z</time>
      </trkpt>
      <trkpt lat="45.08946" lon="5.88555">
        <ele>1265</ele>
        <time>2015-06-20T07:33:07Z</time>
      </trkpt>
      <trkpt lat="45.08945" lon="5.88558">
        <ele>1265</ele>
        <time>2015-06-20T07:33:09Z</time>
      </trkpt>
      <trkpt lat="45.08946" lon="5.8856">
        <ele>1265</ele>
        <time>2015-06-20T07:33:11Z</time>
      </trkpt>
      <trkpt lat="45.08947" lon="5.88563">
        <ele>1259</ele>
        <time>2015-06-20T07:33:14Z</time>
      </trkpt>
      <trkpt lat="45.08947" lon="5.88567">
        <ele>1258</ele>
        <time>2015-06-20T07:33:16Z</time>
      </trkpt>
      <trkpt lat="45.08946" lon="5.8857">
        <ele>1257</ele>
        <time>2015-06-20T07:33:18Z</time>
      </trkpt>
      <trkpt lat="45.08944" lon="5.88573">
        <ele>1256</ele>
        <time>2015-06-20T07:33:20Z</time>
      </trkpt>
      <trkpt lat="45.08942" lon="5.88576">
        <ele>1256</ele>
        <time>2015-06-20T07:33:22Z</time>
      </trkpt>
      <trkpt lat="45.08939" lon="5.88577">
        <ele>1255</ele>
        <time>2015-06-20T07:33:24Z</time>
      </trkpt>
      <trkpt lat="45.08936" lon="5.88577">
        <ele>1255</ele>
        <time>2015-06-20T07:33:26Z</time>
      </trkpt>
      <trkpt lat="45.08934" lon="5.88579">
        <ele>1251</ele>
        <time>2015-06-20T07:33:28Z</time>
      </trkpt>
      <trkpt lat="45.0893" lon="5.88581">
        <ele>1251</ele>
        <time>2015-06-20T07:33:30Z</time>
      </trkpt>
      <trkpt lat="45.08929" lon="5.88584">
        <ele>1247</ele>
        <time>2015-06-20T07:33:32Z</time>
      </trkpt>
      <trkpt lat="45.08927" lon="5.88585">
        <ele>1247</ele>
        <time>2015-06-20T07:33:34Z</time>
      </trkpt>
      <trkpt lat="45.08927" lon="5.88588">
        <ele>1246</ele>
        <time>2015-06-20T07:33:38Z</time>
      </trkpt>
      <trkpt lat="45.0893" lon="5.8859">
        <ele>1243</ele>
        <time>2015-06-20T07:33:40Z</time>
      </trkpt>
      <trkpt lat="45.08932" lon="5.88594">
        <ele>1243</ele>
        <time>2015-06-20T07:33:42Z</time>
      </trkpt>
      <trkpt lat="45.08934" lon="5.88594">
        <ele>1240</ele>
        <time>2015-06-20T07:33:45Z</time>
      </trkpt>
      <trkpt lat="45.08935" lon="5.88596">
        <ele>1240</ele>
        <time>2015-06-20T07:33:48Z</time>
      </trkpt>
      <trkpt lat="45.08938" lon="5.88599">
        <ele>1236</ele>
        <time>2015-06-20T07:33:50Z</time>
      </trkpt>
      <trkpt lat="45.0894" lon="5.886">
        <ele>1236</ele>
        <time>2015-06-20T07:33:51Z</time>
      </trkpt>
      <trkpt lat="45.08942" lon="5.886">
        <ele>1234</ele>
        <time>2015-06-20T07:33:52Z</time>
      </trkpt>
      <trkpt lat="45.08943" lon="5.88603">
        <ele>1233</ele>
        <time>2015-06-20T07:33:54Z</time>
      </trkpt>
      <trkpt lat="45.08943" lon="5.88608">
        <ele>1232</ele>
        <time>2015-06-20T07:33:56Z</time>
      </trkpt>
      <trkpt lat="45.08942" lon="5.8861">
        <ele>1230</ele>
        <time>2015-06-20T07:33:57Z</time>
      </trkpt>
      <trkpt lat="45.08941" lon="5.88613">
        <ele>1230</ele>
        <time>2015-06-20T07:33:58Z</time>
      </trkpt>
      <trkpt lat="45.0894" lon="5.88616">
        <ele>1228</ele>
        <time>2015-06-20T07:34:00Z</time>
      </trkpt>
      <trkpt lat="45.08937" lon="5.88617">
        <ele>1228</ele>
        <time>2015-06-20T07:34:01Z</time>
      </trkpt>
      <trkpt lat="45.08934" lon="5.88619">
        <ele>1227</ele>
        <time>2015-06-20T07:34:03Z</time>
      </trkpt>
      <trkpt lat="45.08933" lon="5.88621">
        <ele>1226</ele>
        <time>2015-06-20T07:34:05Z</time>
      </trkpt>
      <trkpt lat="45.0893" lon="5.88625">
        <ele>1225</ele>
        <time>2015-06-20T07:34:07Z</time>
      </trkpt>
      <trkpt lat="45.08929" lon="5.88626">
        <ele>1225</ele>
        <time>2015-06-20T07:34:08Z</time>
      </trkpt>
      <trkpt lat="45.08927" lon="5.88627">
        <ele>1223</ele>
        <time>2015-06-20T07:34:09Z</time>
      </trkpt>
      <trkpt lat="45.08925" lon="5.88628">
        <ele>1223</ele>
        <time>2015-06-20T07:34:10Z</time>
      </trkpt>
      <trkpt lat="45.08921" lon="5.88627">
        <ele>1221</ele>
        <time>2015-06-20T07:34:12Z</time>
      </trkpt>
      <trkpt lat="45.08919" lon="5.88627">
        <ele>1221</ele>
        <time>2015-06-20T07:34:13Z</time>
      </trkpt>
      <trkpt lat="45.08916" lon="5.88628">
        <ele>1218</ele>
        <time>2015-06-20T07:34:15Z</time>
      </trkpt>
      <trkpt lat="45.08914" lon="5.88629">
        <ele>1216</ele>
        <time>2015-06-20T07:34:17Z</time>
      </trkpt>
      <trkpt lat="45.08914" lon="5.88633">
        <ele>1215</ele>
        <time>2015-06-20T07:34:20Z</time>
      </trkpt>
      <trkpt lat="45.08914" lon="5.88636">
        <ele>1211</ele>
        <time>2015-06-20T07:34:23Z</time>
      </trkpt>
      <trkpt lat="45.08914" lon="5.88639">
        <ele>1210</ele>
        <time>2015-06-20T07:34:26Z</time>
      </trkpt>
      <trkpt lat="45.08915" lon="5.88642">
        <ele>1209</ele>
        <time>2015-06-20T07:34:28Z</time>
      </trkpt>
      <trkpt lat="45.08916" lon="5.88645">
        <ele>1209</ele>
        <time>2015-06-20T07:34:30Z</time>
      </trkpt>
      <trkpt lat="45.08918" lon="5.88648">
        <ele>1205</ele>
        <time>2015-06-20T07:34:32Z</time>
      </trkpt>
      <trkpt lat="45.08919" lon="5.88651">
        <ele>1204</ele>
        <time>2015-06-20T07:34:34Z</time>
      </trkpt>
      <trkpt lat="45.08919" lon="5.88655">
        <ele>1202</ele>
        <time>2015-06-20T07:34:36Z</time>
      </trkpt>
      <trkpt lat="45.08916" lon="5.88657">
        <ele>1201</ele>
        <time>2015-06-20T07:34:38Z</time>
      </trkpt>
      <trkpt lat="45.08912" lon="5.88658">
        <ele>1200</ele>
        <time>2015-06-20T07:34:40Z</time>
      </trkpt>
      <trkpt lat="45.08911" lon="5.88659">
        <ele>1200</ele>
        <time>2015-06-20T07:34:41Z</time>
      </trkpt>
      <trkpt lat="45.08908" lon="5.8866">
        <ele>1198</ele>
        <time>2015-06-20T07:34:43Z</time>
      </trkpt>
      <trkpt lat="45.08906" lon="5.88661">
        <ele>1196</ele>
        <time>2015-06-20T07:34:45Z</time>
      </trkpt>
      <trkpt lat="45.08906" lon="5.88664">
        <ele>1195</ele>
        <time>2015-06-20T07:34:47Z</time>
      </trkpt>
      <trkpt lat="45.08907" lon="5.88667">
        <ele>1194</ele>
        <time>2015-06-20T07:34:49Z</time>
      </trkpt>
      <trkpt lat="45.08909" lon="5.8867">
        <ele>1193</ele>
        <time>2015-06-20T07:34:51Z</time>
      </trkpt>
      <trkpt lat="45.0891" lon="5.88672">
        <ele>1193</ele>
        <time>2015-06-20T07:34:52Z</time>
      </trkpt>
      <trkpt lat="45.08912" lon="5.88675">
        <ele>1192</ele>
        <time>2015-06-20T07:34:54Z</time>
      </trkpt>
      <trkpt lat="45.0891" lon="5.88676">
        <ele>1190</ele>
        <time>2015-06-20T07:34:56Z</time>
      </trkpt>
      <trkpt lat="45.08906" lon="5.88674">
        <ele>1188</ele>
        <time>2015-06-20T07:34:58Z</time>
      </trkpt>
      <trkpt lat="45.08903" lon="5.88674">
        <ele>1187</ele>
        <time>2015-06-20T07:34:59Z</time>
      </trkpt>
      <trkpt lat="45.089" lon="5.88673">
        <ele>1187</ele>
        <time>2015-06-20T07:35:00Z</time>
      </trkpt>
      <trkpt lat="45.08897" lon="5.88672">
        <ele>1185</ele>
        <time>2015-06-20T07:35:01Z</time>
      </trkpt>
      <trkpt lat="45.08894" lon="5.88671">
        <ele>1185</ele>
        <time>2015-06-20T07:35:02Z</time>
      </trkpt>
      <trkpt lat="45.08892" lon="5.8867">
        <ele>1184</ele>
        <time>2015-06-20T07:35:03Z</time>
      </trkpt>
      <trkpt lat="45.08891" lon="5.88669">
        <ele>1184</ele>
        <time>2015-06-20T07:35:04Z</time>
      </trkpt>
      <trkpt lat="45.08889" lon="5.88668">
        <ele>1181</ele>
        <time>2015-06-20T07:35:05Z</time>
      </trkpt>
      <trkpt lat="45.08885" lon="5.88667">
        <ele>1180</ele>
        <time>2015-06-20T07:35:07Z</time>
      </trkpt>
      <trkpt lat="45.08883" lon="5.88666">
        <ele>1180</ele>
        <time>2015-06-20T07:35:08Z</time>
      </trkpt>
      <trkpt lat="45.08881" lon="5.88665">
        <ele>1180</ele>
        <time>2015-06-20T07:35:09Z</time>
      </trkpt>
      <trkpt lat="45.08878" lon="5.88663">
        <ele>1179</ele>
        <time>2015-06-20T07:35:11Z</time>
      </trkpt>
      <trkpt lat="45.08876" lon="5.8866">
        <ele>1177</ele>
        <time>2015-06-20T07:35:12Z</time>
      </trkpt>
      <trkpt lat="45.08874" lon="5.88658">
        <ele>1177</ele>
        <time>2015-06-20T07:35:13Z</time>
      </trkpt>
      <trkpt lat="45.08873" lon="5.88655">
        <ele>1176</ele>
        <time>2015-06-20T07:35:14Z</time>
      </trkpt>
      <trkpt lat="45.08871" lon="5.88654">
        <ele>1176</ele>
        <time>2015-06-20T07:35:15Z</time>
      </trkpt>
      <trkpt lat="45.08869" lon="5.88652">
        <ele>1174</ele>
        <time>2015-06-20T07:35:17Z</time>
      </trkpt>
      <trkpt lat="45.08865" lon="5.8865">
        <ele>1172</ele>
        <time>2015-06-20T07:35:19Z</time>
      </trkpt>
      <trkpt lat="45.08863" lon="5.88649">
        <ele>1172</ele>
        <time>2015-06-20T07:35:20Z</time>
      </trkpt>
      <trkpt lat="45.08861" lon="5.88649">
        <ele>1170</ele>
        <time>2015-06-20T07:35:22Z</time>
      </trkpt>
      <trkpt lat="45.0886" lon="5.88652">
        <ele>1170</ele>
        <time>2015-06-20T07:35:23Z</time>
      </trkpt>
      <trkpt lat="45.08861" lon="5.88657">
        <ele>1167</ele>
        <time>2015-06-20T07:35:25Z</time>
      </trkpt>
      <trkpt lat="45.08862" lon="5.8866">
        <ele>1167</ele>
        <time>2015-06-20T07:35:26Z</time>
      </trkpt>
      <trkpt lat="45.08863" lon="5.88663">
        <ele>1164</ele>
        <time>2015-06-20T07:35:27Z</time>
      </trkpt>
      <trkpt lat="45.08864" lon="5.88665">
        <ele>1164</ele>
        <time>2015-06-20T07:35:28Z</time>
      </trkpt>
      <trkpt lat="45.08865" lon="5.88667">
        <ele>1163</ele>
        <time>2015-06-20T07:35:29Z</time>
      </trkpt>
      <trkpt lat="45.08867" lon="5.8867">
        <ele>1163</ele>
        <time>2015-06-20T07:35:30Z</time>
      </trkpt>
      <trkpt lat="45.08869" lon="5.88672">
        <ele>1162</ele>
        <time>2015-06-20T07:35:31Z</time>
      </trkpt>
      <trkpt lat="45.0887" lon="5.88675">
        <ele>1162</ele>
        <time>2015-06-20T07:35:32Z</time>
      </trkpt>
      <trkpt lat="45.08872" lon="5.88677">
        <ele>1162</ele>
        <time>2015-06-20T07:35:33Z</time>
      </trkpt>
      <trkpt lat="45.08873" lon="5.88679">
        <ele>1162</ele>
        <time>2015-06-20T07:35:34Z</time>
      </trkpt>
      <trkpt lat="45.08873" lon="5.88682">
        <ele>1160</ele>
        <time>2015-06-20T07:35:35Z</time>
      </trkpt>
      <trkpt lat="45.0887" lon="5.88682">
        <ele>1159</ele>
        <time>2015-06-20T07:35:37Z</time>
      </trkpt>
      <trkpt lat="45.08867" lon="5.8868">
        <ele>1159</ele>
        <time>2015-06-20T07:35:38Z</time>
      </trkpt>
      <trkpt lat="45.08865" lon="5.88677">
        <ele>1159</ele>
        <time>2015-06-20T07:35:39Z</time>
      </trkpt>
      <trkpt lat="45.08863" lon="5.88676">
        <ele>1158</ele>
        <time>2015-06-20T07:35:40Z</time>
      </trkpt>
      <trkpt lat="45.08862" lon="5.88675">
        <ele>1158</ele>
        <time>2015-06-20T07:35:41Z</time>
      </trkpt>
      <trkpt lat="45.08859" lon="5.88674">
        <ele>1158</ele>
        <time>2015-06-20T07:35:42Z</time>
      </trkpt>
      <trkpt lat="45.08857" lon="5.88673">
        <ele>1156</ele>
        <time>2015-06-20T07:35:43Z</time>
      </trkpt>
      <trkpt lat="45.08854" lon="5.88671">
        <ele>1155</ele>
        <time>2015-06-20T07:35:44Z</time>
      </trkpt>
      <trkpt lat="45.08852" lon="5.8867">
        <ele>1155</ele>
        <time>2015-06-20T07:35:45Z</time>
      </trkpt>
      <trkpt lat="45.0885" lon="5.88671">
        <ele>1153</ele>
        <time>2015-06-20T07:35:47Z</time>
      </trkpt>
      <trkpt lat="45.08851" lon="5.88674">
        <ele>1152</ele>
        <time>2015-06-20T07:35:49Z</time>
      </trkpt>
      <trkpt lat="45.08852" lon="5.88678">
        <ele>1152</ele>
        <time>2015-06-20T07:35:51Z</time>
      </trkpt>
      <trkpt lat="45.08853" lon="5.8868">
        <ele>1149</ele>
        <time>2015-06-20T07:35:53Z</time>
      </trkpt>
      <trkpt lat="45.08853" lon="5.88685">
        <ele>1149</ele>
        <time>2015-06-20T07:35:55Z</time>
      </trkpt>
      <trkpt lat="45.08854" lon="5.8869">
        <ele>1147</ele>
        <time>2015-06-20T07:35:57Z</time>
      </trkpt>
      <trkpt lat="45.08854" lon="5.88692">
        <ele>1147</ele>
        <time>2015-06-20T07:35:58Z</time>
      </trkpt>
      <trkpt lat="45.08855" lon="5.88695">
        <ele>1146</ele>
        <time>2015-06-20T07:36:00Z</time>
      </trkpt>
      <trkpt lat="45.08855" lon="5.88698">
        <ele>1144</ele>
        <time>2015-06-20T07:36:01Z</time>
      </trkpt>
      <trkpt lat="45.08855" lon="5.887">
        <ele>1144</ele>
        <time>2015-06-20T07:36:02Z</time>
      </trkpt>
      <trkpt lat="45.08856" lon="5.88703">
        <ele>1141</ele>
        <time>2015-06-20T07:36:04Z</time>
      </trkpt>
      <trkpt lat="45.08856" lon="5.88705">
        <ele>1141</ele>
        <time>2015-06-20T07:36:05Z</time>
      </trkpt>
      <trkpt lat="45.08856" lon="5.88709">
        <ele>1139</ele>
        <time>2015-06-20T07:36:06Z</time>
      </trkpt>
      <trkpt lat="45.08857" lon="5.88712">
        <ele>1139</ele>
        <time>2015-06-20T07:36:07Z</time>
      </trkpt>
      <trkpt lat="45.08858" lon="5.88715">
        <ele>1139</ele>
        <time>2015-06-20T07:36:08Z</time>
      </trkpt>
      <trkpt lat="45.08858" lon="5.88718">
        <ele>1139</ele>
        <time>2015-06-20T07:36:09Z</time>
      </trkpt>
      <trkpt lat="45.08859" lon="5.88722">
        <ele>1138</ele>
        <time>2015-06-20T07:36:10Z</time>
      </trkpt>
      <trkpt lat="45.08858" lon="5.88724">
        <ele>1138</ele>
        <time>2015-06-20T07:36:11Z</time>
      </trkpt>
      <trkpt lat="45.08856" lon="5.88728">
        <ele>1135</ele>
        <time>2015-06-20T07:36:13Z</time>
      </trkpt>
      <trkpt lat="45.08856" lon="5.88732">
        <ele>1132</ele>
        <time>2015-06-20T07:36:15Z</time>
      </trkpt>
      <trkpt lat="45.08858" lon="5.88736">
        <ele>1132</ele>
        <time>2015-06-20T07:36:17Z</time>
      </trkpt>
      <trkpt lat="45.08861" lon="5.88738">
        <ele>1130</ele>
        <time>2015-06-20T07:36:19Z</time>
      </trkpt>
      <trkpt lat="45.08864" lon="5.88743">
        <ele>1130</ele>
        <time>2015-06-20T07:36:21Z</time>
      </trkpt>
      <trkpt lat="45.08864" lon="5.88747">
        <ele>1127</ele>
        <time>2015-06-20T07:36:23Z</time>
      </trkpt>
      <trkpt lat="45.08866" lon="5.88749">
        <ele>1125</ele>
        <time>2015-06-20T07:36:26Z</time>
      </trkpt>
      <trkpt lat="45.08867" lon="5.8875">
        <ele>1124</ele>
        <time>2015-06-20T07:36:27Z</time>
      </trkpt>
      <trkpt lat="45.08869" lon="5.88751">
        <ele>1124</ele>
        <time>2015-06-20T07:36:28Z</time>
      </trkpt>
      <trkpt lat="45.08872" lon="5.88752">
        <ele>1124</ele>
        <time>2015-06-20T07:36:30Z</time>
      </trkpt>
      <trkpt lat="45.08874" lon="5.88753">
        <ele>1121</ele>
        <time>2015-06-20T07:36:33Z</time>
      </trkpt>
      <trkpt lat="45.08876" lon="5.88754">
        <ele>1120</ele>
        <time>2015-06-20T07:36:34Z</time>
      </trkpt>
      <trkpt lat="45.08878" lon="5.88756">
        <ele>1117</ele>
        <time>2015-06-20T07:36:35Z</time>
      </trkpt>
      <trkpt lat="45.08878" lon="5.8876">
        <ele>1117</ele>
        <time>2015-06-20T07:36:37Z</time>
      </trkpt>
      <trkpt lat="45.08879" lon="5.88762">
        <ele>1117</ele>
        <time>2015-06-20T07:36:39Z</time>
      </trkpt>
      <trkpt lat="45.08881" lon="5.88765">
        <ele>1117</ele>
        <time>2015-06-20T07:36:41Z</time>
      </trkpt>
      <trkpt lat="45.08884" lon="5.88765">
        <ele>1115</ele>
        <time>2015-06-20T07:36:42Z</time>
      </trkpt>
      <trkpt lat="45.08884" lon="5.88769">
        <ele>1113</ele>
        <time>2015-06-20T07:36:44Z</time>
      </trkpt>
      <trkpt lat="45.08885" lon="5.88771">
        <ele>1112</ele>
        <time>2015-06-20T07:36:47Z</time>
      </trkpt>
      <trkpt lat="45.08887" lon="5.88774">
        <ele>1112</ele>
        <time>2015-06-20T07:36:49Z</time>
      </trkpt>
      <trkpt lat="45.08889" lon="5.88778">
        <ele>1112</ele>
        <time>2015-06-20T07:36:51Z</time>
      </trkpt>
      <trkpt lat="45.08887" lon="5.8878">
        <ele>1112</ele>
        <time>2015-06-20T07:36:53Z</time>
      </trkpt>
      <trkpt lat="45.08885" lon="5.88781">
        <ele>1106</ele>
        <time>2015-06-20T07:36:54Z</time>
      </trkpt>
      <trkpt lat="45.08881" lon="5.88781">
        <ele>1106</ele>
        <time>2015-06-20T07:36:56Z</time>
      </trkpt>
      <trkpt lat="45.0888" lon="5.88781">
        <ele>1105</ele>
        <time>2015-06-20T07:36:57Z</time>
      </trkpt>
      <trkpt lat="45.08877" lon="5.88782">
        <ele>1105</ele>
        <time>2015-06-20T07:36:58Z</time>
      </trkpt>
      <trkpt lat="45.08874" lon="5.8878">
        <ele>1105</ele>
        <time>2015-06-20T07:37:00Z</time>
      </trkpt>
      <trkpt lat="45.08872" lon="5.8878">
        <ele>1104</ele>
        <time>2015-06-20T07:37:01Z</time>
      </trkpt>
      <trkpt lat="45.08869" lon="5.88781">
        <ele>1102</ele>
        <time>2015-06-20T07:37:02Z</time>
      </trkpt>
      <trkpt lat="45.08867" lon="5.88782">
        <ele>1102</ele>
        <time>2015-06-20T07:37:03Z</time>
      </trkpt>
      <trkpt lat="45.08864" lon="5.88783">
        <ele>1101</ele>
        <time>2015-06-20T07:37:05Z</time>
      </trkpt>
      <trkpt lat="45.08862" lon="5.88786">
        <ele>1100</ele>
        <time>2015-06-20T07:37:07Z</time>
      </trkpt>
      <trkpt lat="45.0886" lon="5.88789">
        <ele>1100</ele>
        <time>2015-06-20T07:37:08Z</time>
      </trkpt>
      <trkpt lat="45.08858" lon="5.8879">
        <ele>1100</ele>
        <time>2015-06-20T07:37:09Z</time>
      </trkpt>
      <trkpt lat="45.08856" lon="5.88792">
        <ele>1100</ele>
        <time>2015-06-20T07:37:11Z</time>
      </trkpt>
      <trkpt lat="45.08854" lon="5.88792">
        <ele>1100</ele>
        <time>2015-06-20T07:37:12Z</time>
      </trkpt>
      <trkpt lat="45.08851" lon="5.88793">
        <ele>1098</ele>
        <time>2015-06-20T07:37:13Z</time>
      </trkpt>
      <trkpt lat="45.0885" lon="5.88795">
        <ele>1098</ele>
        <time>2015-06-20T07:37:15Z</time>
      </trkpt>
      <trkpt lat="45.08849" lon="5.88798">
        <ele>1098</ele>
        <time>2015-06-20T07:37:17Z</time>
      </trkpt>
      <trkpt lat="45.08851" lon="5.88801">
        <ele>1098</ele>
        <time>2015-06-20T07:37:20Z</time>
      </trkpt>
      <trkpt lat="45.08853" lon="5.88802">
        <ele>1090</ele>
        <time>2015-06-20T07:37:22Z</time>
      </trkpt>
      <trkpt lat="45.08856" lon="5.88803">
        <ele>1087</ele>
        <time>2015-06-20T07:37:25Z</time>
      </trkpt>
      <trkpt lat="45.08857" lon="5.88808">
        <ele>1087</ele>
        <time>2015-06-20T07:37:26Z</time>
      </trkpt>
      <trkpt lat="45.08856" lon="5.88811">
        <ele>1086</ele>
        <time>2015-06-20T07:37:27Z</time>
      </trkpt>
      <trkpt lat="45.08855" lon="5.88814">
        <ele>1084</ele>
        <time>2015-06-20T07:37:28Z</time>
      </trkpt>
      <trkpt lat="45.08853" lon="5.88815">
        <ele>1084</ele>
        <time>2015-06-20T07:37:29Z</time>
      </trkpt>
      <trkpt lat="45.08851" lon="5.88819">
        <ele>1084</ele>
        <time>2015-06-20T07:37:31Z</time>
      </trkpt>
      <trkpt lat="45.08849" lon="5.88821">
        <ele>1082</ele>
        <time>2015-06-20T07:37:32Z</time>
      </trkpt>
      <trkpt lat="45.08846" lon="5.88824">
        <ele>1082</ele>
        <time>2015-06-20T07:37:34Z</time>
      </trkpt>
      <trkpt lat="45.08842" lon="5.88825">
        <ele>1082</ele>
        <time>2015-06-20T07:37:36Z</time>
      </trkpt>
      <trkpt lat="45.08839" lon="5.88825">
        <ele>1081</ele>
        <time>2015-06-20T07:37:37Z</time>
      </trkpt>
      <trkpt lat="45.08837" lon="5.88823">
        <ele>1079</ele>
        <time>2015-06-20T07:37:38Z</time>
      </trkpt>
      <trkpt lat="45.08835" lon="5.88822">
        <ele>1079</ele>
        <time>2015-06-20T07:37:39Z</time>
      </trkpt>
      <trkpt lat="45.08832" lon="5.88821">
        <ele>1078</ele>
        <time>2015-06-20T07:37:40Z</time>
      </trkpt>
      <trkpt lat="45.08828" lon="5.88819">
        <ele>1078</ele>
        <time>2015-06-20T07:37:41Z</time>
      </trkpt>
      <trkpt lat="45.08825" lon="5.88816">
        <ele>1077</ele>
        <time>2015-06-20T07:37:42Z</time>
      </trkpt>
      <trkpt lat="45.08823" lon="5.88815">
        <ele>1077</ele>
        <time>2015-06-20T07:37:43Z</time>
      </trkpt>
      <trkpt lat="45.08821" lon="5.88812">
        <ele>1076</ele>
        <time>2015-06-20T07:37:44Z</time>
      </trkpt>
      <trkpt lat="45.08818" lon="5.88809">
        <ele>1076</ele>
        <time>2015-06-20T07:37:45Z</time>
      </trkpt>
      <trkpt lat="45.08816" lon="5.88806">
        <ele>1075</ele>
        <time>2015-06-20T07:37:46Z</time>
      </trkpt>
      <trkpt lat="45.08816" lon="5.8881">
        <ele>1072</ele>
        <time>2015-06-20T07:37:50Z</time>
      </trkpt>
      <trkpt lat="45.08816" lon="5.88812">
        <ele>1072</ele>
        <time>2015-06-20T07:37:51Z</time>
      </trkpt>
      <trkpt lat="45.08817" lon="5.88815">
        <ele>1070</ele>
        <time>2015-06-20T07:37:52Z</time>
      </trkpt>
      <trkpt lat="45.08817" lon="5.88818">
        <ele>1070</ele>
        <time>2015-06-20T07:37:53Z</time>
      </trkpt>
      <trkpt lat="45.08817" lon="5.88822">
        <ele>1070</ele>
        <time>2015-06-20T07:37:54Z</time>
      </trkpt>
      <trkpt lat="45.08816" lon="5.88825">
        <ele>1070</ele>
        <time>2015-06-20T07:37:55Z</time>
      </trkpt>
      <trkpt lat="45.08815" lon="5.88828">
        <ele>1068</ele>
        <time>2015-06-20T07:37:56Z</time>
      </trkpt>
      <trkpt lat="45.08815" lon="5.88832">
        <ele>1066</ele>
        <time>2015-06-20T07:37:58Z</time>
      </trkpt>
      <trkpt lat="45.08815" lon="5.88835">
        <ele>1064</ele>
        <time>2015-06-20T07:37:59Z</time>
      </trkpt>
      <trkpt lat="45.08815" lon="5.88839">
        <ele>1064</ele>
        <time>2015-06-20T07:38:00Z</time>
      </trkpt>
      <trkpt lat="45.08815" lon="5.88843">
        <ele>1064</ele>
        <time>2015-06-20T07:38:01Z</time>
      </trkpt>
      <trkpt lat="45.08815" lon="5.88846">
        <ele>1062</ele>
        <time>2015-06-20T07:38:02Z</time>
      </trkpt>
      <trkpt lat="45.08814" lon="5.88849">
        <ele>1062</ele>
        <time>2015-06-20T07:38:03Z</time>
      </trkpt>
      <trkpt lat="45.08812" lon="5.88852">
        <ele>1060</ele>
        <time>2015-06-20T07:38:04Z</time>
      </trkpt>
      <trkpt lat="45.08809" lon="5.88852">
        <ele>1060</ele>
        <time>2015-06-20T07:38:05Z</time>
      </trkpt>
      <trkpt lat="45.08806" lon="5.88853">
        <ele>1060</ele>
        <time>2015-06-20T07:38:06Z</time>
      </trkpt>
      <trkpt lat="45.08805" lon="5.88851">
        <ele>1058</ele>
        <time>2015-06-20T07:38:07Z</time>
      </trkpt>
      <trkpt lat="45.08802" lon="5.8885">
        <ele>1058</ele>
        <time>2015-06-20T07:38:08Z</time>
      </trkpt>
      <trkpt lat="45.08801" lon="5.88847">
        <ele>1056</ele>
        <time>2015-06-20T07:38:09Z</time>
      </trkpt>
      <trkpt lat="45.08799" lon="5.88845">
        <ele>1055</ele>
        <time>2015-06-20T07:38:10Z</time>
      </trkpt>
      <trkpt lat="45.08798" lon="5.88843">
        <ele>1055</ele>
        <time>2015-06-20T07:38:11Z</time>
      </trkpt>
      <trkpt lat="45.08796" lon="5.8884">
        <ele>1053</ele>
        <time>2015-06-20T07:38:12Z</time>
      </trkpt>
      <trkpt lat="45.08795" lon="5.88838">
        <ele>1052</ele>
        <time>2015-06-20T07:38:13Z</time>
      </trkpt>
      <trkpt lat="45.08793" lon="5.88836">
        <ele>1052</ele>
        <time>2015-06-20T07:38:14Z</time>
      </trkpt>
      <trkpt lat="45.08791" lon="5.88834">
        <ele>1051</ele>
        <time>2015-06-20T07:38:15Z</time>
      </trkpt>
      <trkpt lat="45.08789" lon="5.88832">
        <ele>1051</ele>
        <time>2015-06-20T07:38:16Z</time>
      </trkpt>
      <trkpt lat="45.08788" lon="5.8883">
        <ele>1050</ele>
        <time>2015-06-20T07:38:17Z</time>
      </trkpt>
      <trkpt lat="45.08787" lon="5.88828">
        <ele>1049</ele>
        <time>2015-06-20T07:38:18Z</time>
      </trkpt>
      <trkpt lat="45.08786" lon="5.88826">
        <ele>1048</ele>
        <time>2015-06-20T07:38:19Z</time>
      </trkpt>
      <trkpt lat="45.08785" lon="5.88824">
        <ele>1047</ele>
        <time>2015-06-20T07:38:20Z</time>
      </trkpt>
      <trkpt lat="45.08782" lon="5.88821">
        <ele>1045</ele>
        <time>2015-06-20T07:38:22Z</time>
      </trkpt>
      <trkpt lat="45.08783" lon="5.88826">
        <ele>1041</ele>
        <time>2015-06-20T07:38:26Z</time>
      </trkpt>
      <trkpt lat="45.08784" lon="5.88829">
        <ele>1041</ele>
        <time>2015-06-20T07:38:27Z</time>
      </trkpt>
      <trkpt lat="45.08785" lon="5.88831">
        <ele>1040</ele>
        <time>2015-06-20T07:38:28Z</time>
      </trkpt>
      <trkpt lat="45.08785" lon="5.88834">
        <ele>1039</ele>
        <time>2015-06-20T07:38:29Z</time>
      </trkpt>
      <trkpt lat="45.08783" lon="5.88835">
        <ele>1038</ele>
        <time>2015-06-20T07:38:31Z</time>
      </trkpt>
      <trkpt lat="45.08781" lon="5.88835">
        <ele>1037</ele>
        <time>2015-06-20T07:38:32Z</time>
      </trkpt>
      <trkpt lat="45.08779" lon="5.88834">
        <ele>1037</ele>
        <time>2015-06-20T07:38:33Z</time>
      </trkpt>
      <trkpt lat="45.08776" lon="5.88833">
        <ele>1036</ele>
        <time>2015-06-20T07:38:34Z</time>
      </trkpt>
      <trkpt lat="45.08773" lon="5.88832">
        <ele>1035</ele>
        <time>2015-06-20T07:38:35Z</time>
      </trkpt>
      <trkpt lat="45.08769" lon="5.88831">
        <ele>1035</ele>
        <time>2015-06-20T07:38:36Z</time>
      </trkpt>
      <trkpt lat="45.08766" lon="5.88829">
        <ele>1033</ele>
        <time>2015-06-20T07:38:37Z</time>
      </trkpt>
      <trkpt lat="45.08764" lon="5.88828">
        <ele>1032</ele>
        <time>2015-06-20T07:38:38Z</time>
      </trkpt>
      <trkpt lat="45.08763" lon="5.88827">
        <ele>1032</ele>
        <time>2015-06-20T07:38:39Z</time>
      </trkpt>
      <trkpt lat="45.0876" lon="5.88827">
        <ele>1032</ele>
        <time>2015-06-20T07:38:41Z</time>
      </trkpt>
      <trkpt lat="45.08762" lon="5.8883">
        <ele>1030</ele>
        <time>2015-06-20T07:38:44Z</time>
      </trkpt>
      <trkpt lat="45.08763" lon="5.88834">
        <ele>1030</ele>
        <time>2015-06-20T07:38:45Z</time>
      </trkpt>
      <trkpt lat="45.08763" lon="5.88838">
        <ele>1029</ele>
        <time>2015-06-20T07:38:46Z</time>
      </trkpt>
      <trkpt lat="45.08764" lon="5.88841">
        <ele>1028</ele>
        <time>2015-06-20T07:38:47Z</time>
      </trkpt>
      <trkpt lat="45.08765" lon="5.88844">
        <ele>1027</ele>
        <time>2015-06-20T07:38:48Z</time>
      </trkpt>
      <trkpt lat="45.08766" lon="5.88847">
        <ele>1027</ele>
        <time>2015-06-20T07:38:49Z</time>
      </trkpt>
      <trkpt lat="45.08767" lon="5.8885">
        <ele>1027</ele>
        <time>2015-06-20T07:38:50Z</time>
      </trkpt>
      <trkpt lat="45.08768" lon="5.88855">
        <ele>1027</ele>
        <time>2015-06-20T07:38:52Z</time>
      </trkpt>
      <trkpt lat="45.08768" lon="5.88857">
        <ele>1027</ele>
        <time>2015-06-20T07:38:53Z</time>
      </trkpt>
      <trkpt lat="45.08768" lon="5.8886">
        <ele>1024</ele>
        <time>2015-06-20T07:38:54Z</time>
      </trkpt>
      <trkpt lat="45.0877" lon="5.88864">
        <ele>1024</ele>
        <time>2015-06-20T07:38:56Z</time>
      </trkpt>
      <trkpt lat="45.08771" lon="5.88867">
        <ele>1024</ele>
        <time>2015-06-20T07:38:58Z</time>
      </trkpt>
      <trkpt lat="45.08773" lon="5.88872">
        <ele>1021</ele>
        <time>2015-06-20T07:39:00Z</time>
      </trkpt>
      <trkpt lat="45.08773" lon="5.88876">
        <ele>1021</ele>
        <time>2015-06-20T07:39:01Z</time>
      </trkpt>
      <trkpt lat="45.08773" lon="5.88879">
        <ele>1020</ele>
        <time>2015-06-20T07:39:02Z</time>
      </trkpt>
      <trkpt lat="45.08774" lon="5.88883">
        <ele>1020</ele>
        <time>2015-06-20T07:39:03Z</time>
      </trkpt>
      <trkpt lat="45.08775" lon="5.88887">
        <ele>1019</ele>
        <time>2015-06-20T07:39:04Z</time>
      </trkpt>
      <trkpt lat="45.08774" lon="5.88892">
        <ele>1018</ele>
        <time>2015-06-20T07:39:05Z</time>
      </trkpt>
      <trkpt lat="45.08775" lon="5.88896">
        <ele>1017</ele>
        <time>2015-06-20T07:39:06Z</time>
      </trkpt>
      <trkpt lat="45.08775" lon="5.889">
        <ele>1016</ele>
        <time>2015-06-20T07:39:07Z</time>
      </trkpt>
      <trkpt lat="45.08776" lon="5.88903">
        <ele>1016</ele>
        <time>2015-06-20T07:39:08Z</time>
      </trkpt>
      <trkpt lat="45.08778" lon="5.88906">
        <ele>1016</ele>
        <time>2015-06-20T07:39:09Z</time>
      </trkpt>
      <trkpt lat="45.08779" lon="5.88909">
        <ele>1016</ele>
        <time>2015-06-20T07:39:10Z</time>
      </trkpt>
      <trkpt lat="45.08782" lon="5.88912">
        <ele>1015</ele>
        <time>2015-06-20T07:39:11Z</time>
      </trkpt>
      <trkpt lat="45.08783" lon="5.88913">
        <ele>1015</ele>
        <time>2015-06-20T07:39:12Z</time>
      </trkpt>
      <trkpt lat="45.08784" lon="5.88915">
        <ele>1014</ele>
        <time>2015-06-20T07:39:13Z</time>
      </trkpt>
      <trkpt lat="45.08787" lon="5.88919">
        <ele>1012</ele>
        <time>2015-06-20T07:39:15Z</time>
      </trkpt>
      <trkpt lat="45.08789" lon="5.88921">
        <ele>1012</ele>
        <time>2015-06-20T07:39:16Z</time>
      </trkpt>
      <trkpt lat="45.0879" lon="5.88925">
        <ele>1011</ele>
        <time>2015-06-20T07:39:17Z</time>
      </trkpt>
      <trkpt lat="45.08791" lon="5.88926">
        <ele>1010</ele>
        <time>2015-06-20T07:39:18Z</time>
      </trkpt>
      <trkpt lat="45.08792" lon="5.88929">
        <ele>1009</ele>
        <time>2015-06-20T07:39:19Z</time>
      </trkpt>
      <trkpt lat="45.08791" lon="5.88934">
        <ele>1008</ele>
        <time>2015-06-20T07:39:21Z</time>
      </trkpt>
      <trkpt lat="45.08789" lon="5.88936">
        <ele>1008</ele>
        <time>2015-06-20T07:39:22Z</time>
      </trkpt>
      <trkpt lat="45.08787" lon="5.88937">
        <ele>1007</ele>
        <time>2015-06-20T07:39:23Z</time>
      </trkpt>
      <trkpt lat="45.08786" lon="5.88941">
        <ele>1005</ele>
        <time>2015-06-20T07:39:25Z</time>
      </trkpt>
      <trkpt lat="45.08789" lon="5.88944">
        <ele>1004</ele>
        <time>2015-06-20T07:39:28Z</time>
      </trkpt>
      <trkpt lat="45.08791" lon="5.88945">
        <ele>1003</ele>
        <time>2015-06-20T07:39:29Z</time>
      </trkpt>
      <trkpt lat="45.08793" lon="5.88945">
        <ele>1002</ele>
        <time>2015-06-20T07:39:30Z</time>
      </trkpt>
      <trkpt lat="45.08796" lon="5.88947">
        <ele>1002</ele>
        <time>2015-06-20T07:39:32Z</time>
      </trkpt>
      <trkpt lat="45.08799" lon="5.88949">
        <ele>1000</ele>
        <time>2015-06-20T07:39:34Z</time>
      </trkpt>
      <trkpt lat="45.08798" lon="5.88952">
        <ele>999</ele>
        <time>2015-06-20T07:39:36Z</time>
      </trkpt>
      <trkpt lat="45.08796" lon="5.88954">
        <ele>998</ele>
        <time>2015-06-20T07:39:37Z</time>
      </trkpt>
      <trkpt lat="45.08795" lon="5.88956">
        <ele>997</ele>
        <time>2015-06-20T07:39:38Z</time>
      </trkpt>
      <trkpt lat="45.08792" lon="5.88958">
        <ele>997</ele>
        <time>2015-06-20T07:39:39Z</time>
      </trkpt>
      <trkpt lat="45.0879" lon="5.88959">
        <ele>996</ele>
        <time>2015-06-20T07:39:40Z</time>
      </trkpt>
      <trkpt lat="45.08788" lon="5.8896">
        <ele>995</ele>
        <time>2015-06-20T07:39:41Z</time>
      </trkpt>
      <trkpt lat="45.08785" lon="5.88962">
        <ele>993</ele>
        <time>2015-06-20T07:39:43Z</time>
      </trkpt>
      <trkpt lat="45.08784" lon="5.88964">
        <ele>993</ele>
        <time>2015-06-20T07:39:45Z</time>
      </trkpt>
      <trkpt lat="45.08786" lon="5.88966">
        <ele>992</ele>
        <time>2015-06-20T07:39:47Z</time>
      </trkpt>
      <trkpt lat="45.08789" lon="5.88968">
        <ele>990</ele>
        <time>2015-06-20T07:39:49Z</time>
      </trkpt>
      <trkpt lat="45.08792" lon="5.8897">
        <ele>989</ele>
        <time>2015-06-20T07:39:51Z</time>
      </trkpt>
      <trkpt lat="45.08794" lon="5.88973">
        <ele>988</ele>
        <time>2015-06-20T07:39:53Z</time>
      </trkpt>
      <trkpt lat="45.08796" lon="5.88973">
        <ele>987</ele>
        <time>2015-06-20T07:39:55Z</time>
      </trkpt>
      <trkpt lat="45.088" lon="5.88971">
        <ele>986</ele>
        <time>2015-06-20T07:39:57Z</time>
      </trkpt>
      <trkpt lat="45.08802" lon="5.8897">
        <ele>984</ele>
        <time>2015-06-20T07:39:59Z</time>
      </trkpt>
      <trkpt lat="45.08805" lon="5.88972">
        <ele>982</ele>
        <time>2015-06-20T07:40:00Z</time>
      </trkpt>
      <trkpt lat="45.08806" lon="5.88973">
        <ele>982</ele>
        <time>2015-06-20T07:40:01Z</time>
      </trkpt>
      <trkpt lat="45.08808" lon="5.88976">
        <ele>980</ele>
        <time>2015-06-20T07:40:03Z</time>
      </trkpt>
      <trkpt lat="45.0881" lon="5.88978">
        <ele>980</ele>
        <time>2015-06-20T07:40:04Z</time>
      </trkpt>
      <trkpt lat="45.08812" lon="5.8898">
        <ele>980</ele>
        <time>2015-06-20T07:40:05Z</time>
      </trkpt>
      <trkpt lat="45.08814" lon="5.88982">
        <ele>979</ele>
        <time>2015-06-20T07:40:06Z</time>
      </trkpt>
      <trkpt lat="45.08816" lon="5.88983">
        <ele>979</ele>
        <time>2015-06-20T07:40:07Z</time>
      </trkpt>
      <trkpt lat="45.08818" lon="5.88983">
        <ele>977</ele>
        <time>2015-06-20T07:40:08Z</time>
      </trkpt>
      <trkpt lat="45.0882" lon="5.88985">
        <ele>977</ele>
        <time>2015-06-20T07:40:09Z</time>
      </trkpt>
      <trkpt lat="45.08822" lon="5.88986">
        <ele>976</ele>
        <time>2015-06-20T07:40:10Z</time>
      </trkpt>
      <trkpt lat="45.08825" lon="5.88988">
        <ele>974</ele>
        <time>2015-06-20T07:40:12Z</time>
      </trkpt>
      <trkpt lat="45.08827" lon="5.88989">
        <ele>973</ele>
        <time>2015-06-20T07:40:13Z</time>
      </trkpt>
      <trkpt lat="45.08829" lon="5.8899">
        <ele>972</ele>
        <time>2015-06-20T07:40:14Z</time>
      </trkpt>
      <trkpt lat="45.08832" lon="5.88991">
        <ele>972</ele>
        <time>2015-06-20T07:40:15Z</time>
      </trkpt>
      <trkpt lat="45.08834" lon="5.88992">
        <ele>972</ele>
        <time>2015-06-20T07:40:16Z</time>
      </trkpt>
      <trkpt lat="45.08836" lon="5.88995">
        <ele>971</ele>
        <time>2015-06-20T07:40:17Z</time>
      </trkpt>
      <trkpt lat="45.08835" lon="5.89">
        <ele>969</ele>
        <time>2015-06-20T07:40:19Z</time>
      </trkpt>
      <trkpt lat="45.08832" lon="5.89003">
        <ele>968</ele>
        <time>2015-06-20T07:40:20Z</time>
      </trkpt>
      <trkpt lat="45.08829" lon="5.89006">
        <ele>967</ele>
        <time>2015-06-20T07:40:21Z</time>
      </trkpt>
      <trkpt lat="45.08826" lon="5.89009">
        <ele>966</ele>
        <time>2015-06-20T07:40:22Z</time>
      </trkpt>
      <trkpt lat="45.08825" lon="5.89011">
        <ele>966</ele>
        <time>2015-06-20T07:40:23Z</time>
      </trkpt>
      <trkpt lat="45.08822" lon="5.89012">
        <ele>966</ele>
        <time>2015-06-20T07:40:24Z</time>
      </trkpt>
      <trkpt lat="45.0882" lon="5.89014">
        <ele>964</ele>
        <time>2015-06-20T07:40:25Z</time>
      </trkpt>
      <trkpt lat="45.08818" lon="5.89015">
        <ele>963</ele>
        <time>2015-06-20T07:40:26Z</time>
      </trkpt>
      <trkpt lat="45.08816" lon="5.89017">
        <ele>963</ele>
        <time>2015-06-20T07:40:27Z</time>
      </trkpt>
      <trkpt lat="45.08813" lon="5.8902">
        <ele>963</ele>
        <time>2015-06-20T07:40:29Z</time>
      </trkpt>
      <trkpt lat="45.08811" lon="5.89021">
        <ele>962</ele>
        <time>2015-06-20T07:40:30Z</time>
      </trkpt>
      <trkpt lat="45.08808" lon="5.89021">
        <ele>961</ele>
        <time>2015-06-20T07:40:31Z</time>
      </trkpt>
      <trkpt lat="45.08806" lon="5.89022">
        <ele>962</ele>
        <time>2015-06-20T07:40:32Z</time>
      </trkpt>
      <trkpt lat="45.08803" lon="5.89022">
        <ele>961</ele>
        <time>2015-06-20T07:40:33Z</time>
      </trkpt>
      <trkpt lat="45.088" lon="5.89023">
        <ele>960</ele>
        <time>2015-06-20T07:40:35Z</time>
      </trkpt>
      <trkpt lat="45.08798" lon="5.89027">
        <ele>959</ele>
        <time>2015-06-20T07:40:37Z</time>
      </trkpt>
      <trkpt lat="45.08796" lon="5.89027">
        <ele>958</ele>
        <time>2015-06-20T07:40:39Z</time>
      </trkpt>
      <trkpt lat="45.088" lon="5.89024">
        <ele>957</ele>
        <time>2015-06-20T07:40:42Z</time>
      </trkpt>
      <trkpt lat="45.08802" lon="5.89023">
        <ele>957</ele>
        <time>2015-06-20T07:40:43Z</time>
      </trkpt>
      <trkpt lat="45.08804" lon="5.89023">
        <ele>957</ele>
        <time>2015-06-20T07:40:44Z</time>
      </trkpt>
      <trkpt lat="45.08806" lon="5.89023">
        <ele>954</ele>
        <time>2015-06-20T07:40:45Z</time>
      </trkpt>
      <trkpt lat="45.08809" lon="5.89022">
        <ele>954</ele>
        <time>2015-06-20T07:40:46Z</time>
      </trkpt>
      <trkpt lat="45.08811" lon="5.89021">
        <ele>954</ele>
        <time>2015-06-20T07:40:47Z</time>
      </trkpt>
      <trkpt lat="45.08815" lon="5.89022">
        <ele>954</ele>
        <time>2015-06-20T07:40:49Z</time>
      </trkpt>
      <trkpt lat="45.08816" lon="5.89024">
        <ele>950</ele>
        <time>2015-06-20T07:40:50Z</time>
      </trkpt>
      <trkpt lat="45.08818" lon="5.89026">
        <ele>948</ele>
        <time>2015-06-20T07:40:51Z</time>
      </trkpt>
      <trkpt lat="45.08821" lon="5.89027">
        <ele>946</ele>
        <time>2015-06-20T07:40:52Z</time>
      </trkpt>
      <trkpt lat="45.08823" lon="5.89029">
        <ele>945</ele>
        <time>2015-06-20T07:40:54Z</time>
      </trkpt>
      <trkpt lat="45.08826" lon="5.89031">
        <ele>945</ele>
        <time>2015-06-20T07:40:56Z</time>
      </trkpt>
      <trkpt lat="45.08828" lon="5.89033">
        <ele>943</ele>
        <time>2015-06-20T07:40:57Z</time>
      </trkpt>
      <trkpt lat="45.0883" lon="5.89036">
        <ele>943</ele>
        <time>2015-06-20T07:40:58Z</time>
      </trkpt>
      <trkpt lat="45.08832" lon="5.89037">
        <ele>941</ele>
        <time>2015-06-20T07:40:59Z</time>
      </trkpt>
      <trkpt lat="45.08833" lon="5.89039">
        <ele>940</ele>
        <time>2015-06-20T07:41:00Z</time>
      </trkpt>
      <trkpt lat="45.08835" lon="5.89041">
        <ele>940</ele>
        <time>2015-06-20T07:41:01Z</time>
      </trkpt>
      <trkpt lat="45.08838" lon="5.89042">
        <ele>940</ele>
        <time>2015-06-20T07:41:02Z</time>
      </trkpt>
      <trkpt lat="45.08841" lon="5.89042">
        <ele>938</ele>
        <time>2015-06-20T07:41:03Z</time>
      </trkpt>
      <trkpt lat="45.08844" lon="5.89045">
        <ele>937</ele>
        <time>2015-06-20T07:41:05Z</time>
      </trkpt>
      <trkpt lat="45.08846" lon="5.89046">
        <ele>936</ele>
        <time>2015-06-20T07:41:06Z</time>
      </trkpt>
      <trkpt lat="45.08848" lon="5.89049">
        <ele>934</ele>
        <time>2015-06-20T07:41:08Z</time>
      </trkpt>
      <trkpt lat="45.08851" lon="5.8905">
        <ele>933</ele>
        <time>2015-06-20T07:41:09Z</time>
      </trkpt>
      <trkpt lat="45.08853" lon="5.89051">
        <ele>932</ele>
        <time>2015-06-20T07:41:10Z</time>
      </trkpt>
      <trkpt lat="45.08855" lon="5.89052">
        <ele>932</ele>
        <time>2015-06-20T07:41:11Z</time>
      </trkpt>
      <trkpt lat="45.08857" lon="5.89054">
        <ele>929</ele>
        <time>2015-06-20T07:41:13Z</time>
      </trkpt>
      <trkpt lat="45.08859" lon="5.89056">
        <ele>928</ele>
        <time>2015-06-20T07:41:14Z</time>
      </trkpt>
      <trkpt lat="45.08861" lon="5.89059">
        <ele>927</ele>
        <time>2015-06-20T07:41:16Z</time>
      </trkpt>
      <trkpt lat="45.08859" lon="5.89064">
        <ele>926</ele>
        <time>2015-06-20T07:41:18Z</time>
      </trkpt>
      <trkpt lat="45.08863" lon="5.89068">
        <ele>926</ele>
        <time>2015-06-20T07:41:20Z</time>
      </trkpt>
      <trkpt lat="45.08866" lon="5.89068">
        <ele>924</ele>
        <time>2015-06-20T07:41:22Z</time>
      </trkpt>
      <trkpt lat="45.08867" lon="5.8907">
        <ele>924</ele>
        <time>2015-06-20T07:41:23Z</time>
      </trkpt>
      <trkpt lat="45.08868" lon="5.89072">
        <ele>923</ele>
        <time>2015-06-20T07:41:24Z</time>
      </trkpt>
      <trkpt lat="45.0887" lon="5.89075">
        <ele>921</ele>
        <time>2015-06-20T07:41:26Z</time>
      </trkpt>
      <trkpt lat="45.08873" lon="5.89076">
        <ele>920</ele>
        <time>2015-06-20T07:41:27Z</time>
      </trkpt>
      <trkpt lat="45.08877" lon="5.89076">
        <ele>918</ele>
        <time>2015-06-20T07:41:29Z</time>
      </trkpt>
      <trkpt lat="45.0888" lon="5.89076">
        <ele>918</ele>
        <time>2015-06-20T07:41:30Z</time>
      </trkpt>
      <trkpt lat="45.08882" lon="5.89077">
        <ele>917</ele>
        <time>2015-06-20T07:41:31Z</time>
      </trkpt>
      <trkpt lat="45.08885" lon="5.89079">
        <ele>917</ele>
        <time>2015-06-20T07:41:32Z</time>
      </trkpt>
      <trkpt lat="45.08887" lon="5.8908">
        <ele>915</ele>
        <time>2015-06-20T07:41:33Z</time>
      </trkpt>
      <trkpt lat="45.08888" lon="5.89082">
        <ele>914</ele>
        <time>2015-06-20T07:41:34Z</time>
      </trkpt>
      <trkpt lat="45.08889" lon="5.89087">
        <ele>913</ele>
        <time>2015-06-20T07:41:35Z</time>
      </trkpt>
      <trkpt lat="45.0889" lon="5.8909">
        <ele>913</ele>
        <time>2015-06-20T07:41:36Z</time>
      </trkpt>
      <trkpt lat="45.08891" lon="5.89092">
        <ele>912</ele>
        <time>2015-06-20T07:41:37Z</time>
      </trkpt>
      <trkpt lat="45.08892" lon="5.89094">
        <ele>912</ele>
        <time>2015-06-20T07:41:38Z</time>
      </trkpt>
      <trkpt lat="45.08893" lon="5.89097">
        <ele>912</ele>
        <time>2015-06-20T07:41:39Z</time>
      </trkpt>
      <trkpt lat="45.08894" lon="5.89101">
        <ele>912</ele>
        <time>2015-06-20T07:41:41Z</time>
      </trkpt>
      <trkpt lat="45.08894" lon="5.89104">
        <ele>912</ele>
        <time>2015-06-20T07:41:42Z</time>
      </trkpt>
      <trkpt lat="45.08893" lon="5.89108">
        <ele>909</ele>
        <time>2015-06-20T07:41:44Z</time>
      </trkpt>
      <trkpt lat="45.08894" lon="5.89111">
        <ele>909</ele>
        <time>2015-06-20T07:41:46Z</time>
      </trkpt>
      <trkpt lat="45.08895" lon="5.89115">
        <ele>909</ele>
        <time>2015-06-20T07:41:48Z</time>
      </trkpt>
      <trkpt lat="45.08896" lon="5.89119">
        <ele>906</ele>
        <time>2015-06-20T07:41:50Z</time>
      </trkpt>
      <trkpt lat="45.08895" lon="5.89123">
        <ele>906</ele>
        <time>2015-06-20T07:41:51Z</time>
      </trkpt>
      <trkpt lat="45.08895" lon="5.89126">
        <ele>904</ele>
        <time>2015-06-20T07:41:52Z</time>
      </trkpt>
      <trkpt lat="45.08895" lon="5.89129">
        <ele>903</ele>
        <time>2015-06-20T07:41:53Z</time>
      </trkpt>
      <trkpt lat="45.08895" lon="5.89133">
        <ele>903</ele>
        <time>2015-06-20T07:41:54Z</time>
      </trkpt>
      <trkpt lat="45.08896" lon="5.89137">
        <ele>902</ele>
        <time>2015-06-20T07:41:55Z</time>
      </trkpt>
      <trkpt lat="45.08896" lon="5.89142">
        <ele>901</ele>
        <time>2015-06-20T07:41:56Z</time>
      </trkpt>
      <trkpt lat="45.08895" lon="5.89146">
        <ele>900</ele>
        <time>2015-06-20T07:41:57Z</time>
      </trkpt>
      <trkpt lat="45.08895" lon="5.8915">
        <ele>900</ele>
        <time>2015-06-20T07:41:58Z</time>
      </trkpt>
      <trkpt lat="45.08895" lon="5.89155">
        <ele>900</ele>
        <time>2015-06-20T07:41:59Z</time>
      </trkpt>
      <trkpt lat="45.08894" lon="5.89159">
        <ele>898</ele>
        <time>2015-06-20T07:42:00Z</time>
      </trkpt>
      <trkpt lat="45.08895" lon="5.89163">
        <ele>895</ele>
        <time>2015-06-20T07:42:02Z</time>
      </trkpt>
      <trkpt lat="45.08896" lon="5.89166">
        <ele>894</ele>
        <time>2015-06-20T07:42:03Z</time>
      </trkpt>
      <trkpt lat="45.08897" lon="5.89169">
        <ele>894</ele>
        <time>2015-06-20T07:42:04Z</time>
      </trkpt>
      <trkpt lat="45.08897" lon="5.89172">
        <ele>893</ele>
        <time>2015-06-20T07:42:05Z</time>
      </trkpt>
      <trkpt lat="45.08898" lon="5.89174">
        <ele>893</ele>
        <time>2015-06-20T07:42:06Z</time>
      </trkpt>
      <trkpt lat="45.08898" lon="5.89178">
        <ele>891</ele>
        <time>2015-06-20T07:42:07Z</time>
      </trkpt>
      <trkpt lat="45.08898" lon="5.89184">
        <ele>889</ele>
        <time>2015-06-20T07:42:09Z</time>
      </trkpt>
      <trkpt lat="45.08897" lon="5.89187">
        <ele>888</ele>
        <time>2015-06-20T07:42:10Z</time>
      </trkpt>
      <trkpt lat="45.08895" lon="5.89189">
        <ele>887</ele>
        <time>2015-06-20T07:42:11Z</time>
      </trkpt>
      <trkpt lat="45.08894" lon="5.89191">
        <ele>887</ele>
        <time>2015-06-20T07:42:12Z</time>
      </trkpt>
      <trkpt lat="45.08895" lon="5.89194">
        <ele>886</ele>
        <time>2015-06-20T07:42:15Z</time>
      </trkpt>
      <trkpt lat="45.08897" lon="5.89197">
        <ele>886</ele>
        <time>2015-06-20T07:42:18Z</time>
      </trkpt>
      <trkpt lat="45.08899" lon="5.89197">
        <ele>882</ele>
        <time>2015-06-20T07:42:20Z</time>
      </trkpt>
      <trkpt lat="45.08902" lon="5.89196">
        <ele>881</ele>
        <time>2015-06-20T07:42:22Z</time>
      </trkpt>
      <trkpt lat="45.08906" lon="5.89197">
        <ele>879</ele>
        <time>2015-06-20T07:42:24Z</time>
      </trkpt>
      <trkpt lat="45.08908" lon="5.89196">
        <ele>878</ele>
        <time>2015-06-20T07:42:25Z</time>
      </trkpt>
      <trkpt lat="45.0891" lon="5.89196">
        <ele>877</ele>
        <time>2015-06-20T07:42:26Z</time>
      </trkpt>
      <trkpt lat="45.08912" lon="5.89197">
        <ele>876</ele>
        <time>2015-06-20T07:42:27Z</time>
      </trkpt>
      <trkpt lat="45.08914" lon="5.89199">
        <ele>876</ele>
        <time>2015-06-20T07:42:28Z</time>
      </trkpt>
      <trkpt lat="45.08916" lon="5.89201">
        <ele>875</ele>
        <time>2015-06-20T07:42:29Z</time>
      </trkpt>
      <trkpt lat="45.08919" lon="5.89203">
        <ele>873</ele>
        <time>2015-06-20T07:42:30Z</time>
      </trkpt>
      <trkpt lat="45.08921" lon="5.89206">
        <ele>873</ele>
        <time>2015-06-20T07:42:31Z</time>
      </trkpt>
      <trkpt lat="45.08923" lon="5.89208">
        <ele>873</ele>
        <time>2015-06-20T07:42:32Z</time>
      </trkpt>
      <trkpt lat="45.08926" lon="5.89211">
        <ele>873</ele>
        <time>2015-06-20T07:42:33Z</time>
      </trkpt>
      <trkpt lat="45.08928" lon="5.89213">
        <ele>873</ele>
        <time>2015-06-20T07:42:34Z</time>
      </trkpt>
      <trkpt lat="45.0893" lon="5.89217">
        <ele>872</ele>
        <time>2015-06-20T07:42:35Z</time>
      </trkpt>
      <trkpt lat="45.08932" lon="5.89215">
        <ele>872</ele>
        <time>2015-06-20T07:42:36Z</time>
      </trkpt>
      <trkpt lat="45.08936" lon="5.89214">
        <ele>872</ele>
        <time>2015-06-20T07:42:37Z</time>
      </trkpt>
      <trkpt lat="45.0894" lon="5.89214">
        <ele>869</ele>
        <time>2015-06-20T07:42:39Z</time>
      </trkpt>
      <trkpt lat="45.08942" lon="5.89213">
        <ele>869</ele>
        <time>2015-06-20T07:42:40Z</time>
      </trkpt>
      <trkpt lat="45.08944" lon="5.89213">
        <ele>868</ele>
        <time>2015-06-20T07:42:41Z</time>
      </trkpt>
      <trkpt lat="45.08946" lon="5.89215">
        <ele>868</ele>
        <time>2015-06-20T07:42:42Z</time>
      </trkpt>
      <trkpt lat="45.08947" lon="5.8922">
        <ele>868</ele>
        <time>2015-06-20T07:42:43Z</time>
      </trkpt>
      <trkpt lat="45.08946" lon="5.89223">
        <ele>866</ele>
        <time>2015-06-20T07:42:44Z</time>
      </trkpt>
      <trkpt lat="45.08945" lon="5.89226">
        <ele>866</ele>
        <time>2015-06-20T07:42:45Z</time>
      </trkpt>
      <trkpt lat="45.08945" lon="5.89229">
        <ele>864</ele>
        <time>2015-06-20T07:42:46Z</time>
      </trkpt>
      <trkpt lat="45.08943" lon="5.89235">
        <ele>863</ele>
        <time>2015-06-20T07:42:48Z</time>
      </trkpt>
      <trkpt lat="45.08941" lon="5.89238">
        <ele>863</ele>
        <time>2015-06-20T07:42:49Z</time>
      </trkpt>
      <trkpt lat="45.08939" lon="5.89243">
        <ele>859</ele>
        <time>2015-06-20T07:42:51Z</time>
      </trkpt>
      <trkpt lat="45.08937" lon="5.89245">
        <ele>859</ele>
        <time>2015-06-20T07:42:52Z</time>
      </trkpt>
      <trkpt lat="45.08936" lon="5.89247">
        <ele>859</ele>
        <time>2015-06-20T07:42:54Z</time>
      </trkpt>
      <trkpt lat="45.08934" lon="5.89248">
        <ele>857</ele>
        <time>2015-06-20T07:42:56Z</time>
      </trkpt>
      <trkpt lat="45.08932" lon="5.89248">
        <ele>857</ele>
        <time>2015-06-20T07:42:57Z</time>
      </trkpt>
      <trkpt lat="45.08929" lon="5.89249">
        <ele>855</ele>
        <time>2015-06-20T07:42:58Z</time>
      </trkpt>
      <trkpt lat="45.08927" lon="5.89251">
        <ele>855</ele>
        <time>2015-06-20T07:42:59Z</time>
      </trkpt>
      <trkpt lat="45.08924" lon="5.89255">
        <ele>854</ele>
        <time>2015-06-20T07:43:01Z</time>
      </trkpt>
      <trkpt lat="45.08921" lon="5.89256">
        <ele>854</ele>
        <time>2015-06-20T07:43:03Z</time>
      </trkpt>
      <trkpt lat="45.08919" lon="5.89258">
        <ele>854</ele>
        <time>2015-06-20T07:43:04Z</time>
      </trkpt>
      <trkpt lat="45.08917" lon="5.89262">
        <ele>852</ele>
        <time>2015-06-20T07:43:05Z</time>
      </trkpt>
      <trkpt lat="45.08916" lon="5.89264">
        <ele>850</ele>
        <time>2015-06-20T07:43:06Z</time>
      </trkpt>
      <trkpt lat="45.08914" lon="5.89267">
        <ele>850</ele>
        <time>2015-06-20T07:43:07Z</time>
      </trkpt>
      <trkpt lat="45.08913" lon="5.89269">
        <ele>850</ele>
        <time>2015-06-20T07:43:08Z</time>
      </trkpt>
      <trkpt lat="45.08908" lon="5.89272">
        <ele>850</ele>
        <time>2015-06-20T07:43:10Z</time>
      </trkpt>
      <trkpt lat="45.08905" lon="5.89275">
        <ele>848</ele>
        <time>2015-06-20T07:43:12Z</time>
      </trkpt>
      <trkpt lat="45.08904" lon="5.89277">
        <ele>846</ele>
        <time>2015-06-20T07:43:13Z</time>
      </trkpt>
      <trkpt lat="45.08901" lon="5.89281">
        <ele>845</ele>
        <time>2015-06-20T07:43:15Z</time>
      </trkpt>
      <trkpt lat="45.08899" lon="5.89281">
        <ele>844</ele>
        <time>2015-06-20T07:43:16Z</time>
      </trkpt>
      <trkpt lat="45.08897" lon="5.89282">
        <ele>844</ele>
        <time>2015-06-20T07:43:17Z</time>
      </trkpt>
      <trkpt lat="45.08894" lon="5.89283">
        <ele>844</ele>
        <time>2015-06-20T07:43:19Z</time>
      </trkpt>
      <trkpt lat="45.08892" lon="5.89284">
        <ele>840</ele>
        <time>2015-06-20T07:43:21Z</time>
      </trkpt>
      <trkpt lat="45.08887" lon="5.89285">
        <ele>837</ele>
        <time>2015-06-20T07:43:23Z</time>
      </trkpt>
      <trkpt lat="45.08887" lon="5.89288">
        <ele>836</ele>
        <time>2015-06-20T07:43:27Z</time>
      </trkpt>
      <trkpt lat="45.0889" lon="5.89288">
        <ele>836</ele>
        <time>2015-06-20T07:43:29Z</time>
      </trkpt>
      <trkpt lat="45.08893" lon="5.89289">
        <ele>834</ele>
        <time>2015-06-20T07:43:31Z</time>
      </trkpt>
      <trkpt lat="45.08896" lon="5.89289">
        <ele>834</ele>
        <time>2015-06-20T07:43:33Z</time>
      </trkpt>
      <trkpt lat="45.08899" lon="5.89288">
        <ele>831</ele>
        <time>2015-06-20T07:43:35Z</time>
      </trkpt>
      <trkpt lat="45.08902" lon="5.8929">
        <ele>831</ele>
        <time>2015-06-20T07:43:37Z</time>
      </trkpt>
      <trkpt lat="45.08903" lon="5.89293">
        <ele>828</ele>
        <time>2015-06-20T07:43:38Z</time>
      </trkpt>
      <trkpt lat="45.08902" lon="5.89296">
        <ele>828</ele>
        <time>2015-06-20T07:43:39Z</time>
      </trkpt>
      <trkpt lat="45.08901" lon="5.89299">
        <ele>828</ele>
        <time>2015-06-20T07:43:40Z</time>
      </trkpt>
      <trkpt lat="45.089" lon="5.89301">
        <ele>828</ele>
        <time>2015-06-20T07:43:41Z</time>
      </trkpt>
      <trkpt lat="45.08897" lon="5.89304">
        <ele>828</ele>
        <time>2015-06-20T07:43:42Z</time>
      </trkpt>
      <trkpt lat="45.08896" lon="5.89308">
        <ele>828</ele>
        <time>2015-06-20T07:43:43Z</time>
      </trkpt>
      <trkpt lat="45.08894" lon="5.89309">
        <ele>828</ele>
        <time>2015-06-20T07:43:44Z</time>
      </trkpt>
      <trkpt lat="45.08892" lon="5.8931">
        <ele>828</ele>
        <time>2015-06-20T07:43:45Z</time>
      </trkpt>
      <trkpt lat="45.08889" lon="5.89311">
        <ele>828</ele>
        <time>2015-06-20T07:43:47Z</time>
      </trkpt>
      <trkpt lat="45.08888" lon="5.89312">
        <ele>825</ele>
        <time>2015-06-20T07:43:48Z</time>
      </trkpt>
      <trkpt lat="45.08885" lon="5.89313">
        <ele>825</ele>
        <time>2015-06-20T07:43:49Z</time>
      </trkpt>
      <trkpt lat="45.08881" lon="5.89314">
        <ele>825</ele>
        <time>2015-06-20T07:43:50Z</time>
      </trkpt>
      <trkpt lat="45.08878" lon="5.89316">
        <ele>825</ele>
        <time>2015-06-20T07:43:51Z</time>
      </trkpt>
      <trkpt lat="45.08875" lon="5.89316">
        <ele>825</ele>
        <time>2015-06-20T07:43:52Z</time>
      </trkpt>
      <trkpt lat="45.08873" lon="5.89315">
        <ele>825</ele>
        <time>2015-06-20T07:43:53Z</time>
      </trkpt>
      <trkpt lat="45.08872" lon="5.89313">
        <ele>822</ele>
        <time>2015-06-20T07:43:54Z</time>
      </trkpt>
      <trkpt lat="45.08869" lon="5.89314">
        <ele>819</ele>
        <time>2015-06-20T07:43:56Z</time>
      </trkpt>
      <trkpt lat="45.08871" lon="5.89315">
        <ele>818</ele>
        <time>2015-06-20T07:43:58Z</time>
      </trkpt>
      <trkpt lat="45.08875" lon="5.89318">
        <ele>818</ele>
        <time>2015-06-20T07:44:00Z</time>
      </trkpt>
      <trkpt lat="45.08878" lon="5.8932">
        <ele>817</ele>
        <time>2015-06-20T07:44:02Z</time>
      </trkpt>
      <trkpt lat="45.0888" lon="5.89322">
        <ele>817</ele>
        <time>2015-06-20T07:44:03Z</time>
      </trkpt>
      <trkpt lat="45.08883" lon="5.89323">
        <ele>816</ele>
        <time>2015-06-20T07:44:04Z</time>
      </trkpt>
      <trkpt lat="45.08884" lon="5.89324">
        <ele>816</ele>
        <time>2015-06-20T07:44:05Z</time>
      </trkpt>
      <trkpt lat="45.08887" lon="5.89327">
        <ele>816</ele>
        <time>2015-06-20T07:44:07Z</time>
      </trkpt>
      <trkpt lat="45.0889" lon="5.89327">
        <ele>812</ele>
        <time>2015-06-20T07:44:09Z</time>
      </trkpt>
      <trkpt lat="45.08893" lon="5.89329">
        <ele>811</ele>
        <time>2015-06-20T07:44:11Z</time>
      </trkpt>
      <trkpt lat="45.08896" lon="5.8933">
        <ele>810</ele>
        <time>2015-06-20T07:44:13Z</time>
      </trkpt>
      <trkpt lat="45.08898" lon="5.8933">
        <ele>810</ele>
        <time>2015-06-20T07:44:14Z</time>
      </trkpt>
      <trkpt lat="45.089" lon="5.89331">
        <ele>806</ele>
        <time>2015-06-20T07:44:16Z</time>
      </trkpt>
      <trkpt lat="45.08903" lon="5.89331">
        <ele>804</ele>
        <time>2015-06-20T07:44:18Z</time>
      </trkpt>
      <trkpt lat="45.08906" lon="5.89333">
        <ele>803</ele>
        <time>2015-06-20T07:44:20Z</time>
      </trkpt>
      <trkpt lat="45.08909" lon="5.89337">
        <ele>801</ele>
        <time>2015-06-20T07:44:21Z</time>
      </trkpt>
      <trkpt lat="45.08912" lon="5.89339">
        <ele>801</ele>
        <time>2015-06-20T07:44:22Z</time>
      </trkpt>
      <trkpt lat="45.08914" lon="5.89341">
        <ele>801</ele>
        <time>2015-06-20T07:44:23Z</time>
      </trkpt>
      <trkpt lat="45.08916" lon="5.89344">
        <ele>801</ele>
        <time>2015-06-20T07:44:24Z</time>
      </trkpt>
      <trkpt lat="45.08918" lon="5.89344">
        <ele>801</ele>
        <time>2015-06-20T07:44:25Z</time>
      </trkpt>
      <trkpt lat="45.0892" lon="5.89347">
        <ele>798</ele>
        <time>2015-06-20T07:44:28Z</time>
      </trkpt>
      <trkpt lat="45.08922" lon="5.8935">
        <ele>798</ele>
        <time>2015-06-20T07:44:30Z</time>
      </trkpt>
      <trkpt lat="45.08924" lon="5.89352">
        <ele>796</ele>
        <time>2015-06-20T07:44:31Z</time>
      </trkpt>
      <trkpt lat="45.08927" lon="5.89355">
        <ele>796</ele>
        <time>2015-06-20T07:44:32Z</time>
      </trkpt>
      <trkpt lat="45.08929" lon="5.89355">
        <ele>794</ele>
        <time>2015-06-20T07:44:33Z</time>
      </trkpt>
      <trkpt lat="45.08932" lon="5.89358">
        <ele>792</ele>
        <time>2015-06-20T07:44:34Z</time>
      </trkpt>
      <trkpt lat="45.08934" lon="5.8936">
        <ele>792</ele>
        <time>2015-06-20T07:44:35Z</time>
      </trkpt>
      <trkpt lat="45.08935" lon="5.89363">
        <ele>792</ele>
        <time>2015-06-20T07:44:36Z</time>
      </trkpt>
      <trkpt lat="45.08936" lon="5.89366">
        <ele>791</ele>
        <time>2015-06-20T07:44:37Z</time>
      </trkpt>
      <trkpt lat="45.08936" lon="5.8937">
        <ele>791</ele>
        <time>2015-06-20T07:44:39Z</time>
      </trkpt>
      <trkpt lat="45.08933" lon="5.89372">
        <ele>790</ele>
        <time>2015-06-20T07:44:40Z</time>
      </trkpt>
      <trkpt lat="45.0893" lon="5.89373">
        <ele>789</ele>
        <time>2015-06-20T07:44:41Z</time>
      </trkpt>
      <trkpt lat="45.08928" lon="5.89375">
        <ele>789</ele>
        <time>2015-06-20T07:44:42Z</time>
      </trkpt>
      <trkpt lat="45.08926" lon="5.89378">
        <ele>787</ele>
        <time>2015-06-20T07:44:43Z</time>
      </trkpt>
      <trkpt lat="45.08925" lon="5.89381">
        <ele>786</ele>
        <time>2015-06-20T07:44:44Z</time>
      </trkpt>
      <trkpt lat="45.08924" lon="5.89383">
        <ele>786</ele>
        <time>2015-06-20T07:44:45Z</time>
      </trkpt>
      <trkpt lat="45.08925" lon="5.89378">
        <ele>786</ele>
        <time>2015-06-20T07:44:48Z</time>
      </trkpt>
      <trkpt lat="45.08926" lon="5.89376">
        <ele>786</ele>
        <time>2015-06-20T07:44:49Z</time>
      </trkpt>
      <trkpt lat="45.0893" lon="5.89375">
        <ele>786</ele>
        <time>2015-06-20T07:44:51Z</time>
      </trkpt>
      <trkpt lat="45.08933" lon="5.89375">
        <ele>786</ele>
        <time>2015-06-20T07:44:53Z</time>
      </trkpt>
      <trkpt lat="45.08936" lon="5.89376">
        <ele>783</ele>
        <time>2015-06-20T07:44:54Z</time>
      </trkpt>
      <trkpt lat="45.08938" lon="5.89378">
        <ele>783</ele>
        <time>2015-06-20T07:44:55Z</time>
      </trkpt>
      <trkpt lat="45.0894" lon="5.89379">
        <ele>783</ele>
        <time>2015-06-20T07:44:56Z</time>
      </trkpt>
      <trkpt lat="45.08942" lon="5.8938">
        <ele>780</ele>
        <time>2015-06-20T07:44:57Z</time>
      </trkpt>
      <trkpt lat="45.08945" lon="5.89382">
        <ele>780</ele>
        <time>2015-06-20T07:44:58Z</time>
      </trkpt>
      <trkpt lat="45.08947" lon="5.89383">
        <ele>778</ele>
        <time>2015-06-20T07:44:59Z</time>
      </trkpt>
      <trkpt lat="45.08949" lon="5.89384">
        <ele>778</ele>
        <time>2015-06-20T07:45:00Z</time>
      </trkpt>
      <trkpt lat="45.08952" lon="5.89384">
        <ele>778</ele>
        <time>2015-06-20T07:45:01Z</time>
      </trkpt>
      <trkpt lat="45.08955" lon="5.89384">
        <ele>776</ele>
        <time>2015-06-20T07:45:02Z</time>
      </trkpt>
      <trkpt lat="45.08958" lon="5.89385">
        <ele>776</ele>
        <time>2015-06-20T07:45:03Z</time>
      </trkpt>
      <trkpt lat="45.0896" lon="5.89385">
        <ele>774</ele>
        <time>2015-06-20T07:45:04Z</time>
      </trkpt>
      <trkpt lat="45.08963" lon="5.89385">
        <ele>773</ele>
        <time>2015-06-20T07:45:05Z</time>
      </trkpt>
      <trkpt lat="45.08966" lon="5.89384">
        <ele>773</ele>
        <time>2015-06-20T07:45:07Z</time>
      </trkpt>
      <trkpt lat="45.08968" lon="5.89383">
        <ele>770</ele>
        <time>2015-06-20T07:45:08Z</time>
      </trkpt>
      <trkpt lat="45.0897" lon="5.89383">
        <ele>770</ele>
        <time>2015-06-20T07:45:09Z</time>
      </trkpt>
      <trkpt lat="45.08972" lon="5.89389">
        <ele>769</ele>
        <time>2015-06-20T07:45:10Z</time>
      </trkpt>
      <trkpt lat="45.08971" lon="5.89394">
        <ele>769</ele>
        <time>2015-06-20T07:45:11Z</time>
      </trkpt>
      <trkpt lat="45.08971" lon="5.89398">
        <ele>769</ele>
        <time>2015-06-20T07:45:12Z</time>
      </trkpt>
      <trkpt lat="45.08971" lon="5.89401">
        <ele>769</ele>
        <time>2015-06-20T07:45:13Z</time>
      </trkpt>
      <trkpt lat="45.08972" lon="5.89403">
        <ele>767</ele>
        <time>2015-06-20T07:45:15Z</time>
      </trkpt>
      <trkpt lat="45.08975" lon="5.89401">
        <ele>766</ele>
        <time>2015-06-20T07:45:16Z</time>
      </trkpt>
      <trkpt lat="45.08979" lon="5.89398">
        <ele>766</ele>
        <time>2015-06-20T07:45:17Z</time>
      </trkpt>
      <trkpt lat="45.08983" lon="5.89395">
        <ele>765</ele>
        <time>2015-06-20T07:45:18Z</time>
      </trkpt>
      <trkpt lat="45.08985" lon="5.89395">
        <ele>765</ele>
        <time>2015-06-20T07:45:19Z</time>
      </trkpt>
      <trkpt lat="45.08988" lon="5.89395">
        <ele>766</ele>
        <time>2015-06-20T07:45:20Z</time>
      </trkpt>
      <trkpt lat="45.08991" lon="5.89395">
        <ele>766</ele>
        <time>2015-06-20T07:45:21Z</time>
      </trkpt>
      <trkpt lat="45.08992" lon="5.89398">
        <ele>766</ele>
        <time>2015-06-20T07:45:24Z</time>
      </trkpt>
      <trkpt lat="45.08993" lon="5.89401">
        <ele>766</ele>
        <time>2015-06-20T07:45:26Z</time>
      </trkpt>
      <trkpt lat="45.08993" lon="5.89404">
        <ele>767</ele>
        <time>2015-06-20T07:45:29Z</time>
      </trkpt>
      <trkpt lat="45.08993" lon="5.89406">
        <ele>767</ele>
        <time>2015-06-20T07:45:32Z</time>
      </trkpt>
      <trkpt lat="45.08992" lon="5.89412">
        <ele>767</ele>
        <time>2015-06-20T07:45:35Z</time>
      </trkpt>
      <trkpt lat="45.0899" lon="5.89416">
        <ele>767</ele>
        <time>2015-06-20T07:45:36Z</time>
      </trkpt>
      <trkpt lat="45.08989" lon="5.89419">
        <ele>767</ele>
        <time>2015-06-20T07:45:37Z</time>
      </trkpt>
      <trkpt lat="45.08988" lon="5.89422">
        <ele>767</ele>
        <time>2015-06-20T07:45:38Z</time>
      </trkpt>
      <trkpt lat="45.08985" lon="5.89428">
        <ele>765</ele>
        <time>2015-06-20T07:45:40Z</time>
      </trkpt>
      <trkpt lat="45.08983" lon="5.89432">
        <ele>765</ele>
        <time>2015-06-20T07:45:41Z</time>
      </trkpt>
      <trkpt lat="45.0898" lon="5.89434">
        <ele>765</ele>
        <time>2015-06-20T07:45:42Z</time>
      </trkpt>
      <trkpt lat="45.08979" lon="5.89438">
        <ele>765</ele>
        <time>2015-06-20T07:45:43Z</time>
      </trkpt>
      <trkpt lat="45.08979" lon="5.89442">
        <ele>765</ele>
        <time>2015-06-20T07:45:44Z</time>
      </trkpt>
      <trkpt lat="45.08979" lon="5.89445">
        <ele>765</ele>
        <time>2015-06-20T07:45:45Z</time>
      </trkpt>
      <trkpt lat="45.08979" lon="5.89451">
        <ele>765</ele>
        <time>2015-06-20T07:45:47Z</time>
      </trkpt>
      <trkpt lat="45.0898" lon="5.89455">
        <ele>765</ele>
        <time>2015-06-20T07:45:48Z</time>
      </trkpt>
      <trkpt lat="45.08981" lon="5.89458">
        <ele>761</ele>
        <time>2015-06-20T07:45:49Z</time>
      </trkpt>
      <trkpt lat="45.0898" lon="5.89461">
        <ele>761</ele>
        <time>2015-06-20T07:45:50Z</time>
      </trkpt>
      <trkpt lat="45.08981" lon="5.89464">
        <ele>761</ele>
        <time>2015-06-20T07:45:51Z</time>
      </trkpt>
      <trkpt lat="45.08981" lon="5.89468">
        <ele>756</ele>
        <time>2015-06-20T07:45:52Z</time>
      </trkpt>
      <trkpt lat="45.08982" lon="5.89474">
        <ele>756</ele>
        <time>2015-06-20T07:45:54Z</time>
      </trkpt>
      <trkpt lat="45.08982" lon="5.89479">
        <ele>756</ele>
        <time>2015-06-20T07:45:56Z</time>
      </trkpt>
      <trkpt lat="45.08983" lon="5.89482">
        <ele>754</ele>
        <time>2015-06-20T07:45:58Z</time>
      </trkpt>
      <trkpt lat="45.08984" lon="5.89483">
        <ele>750</ele>
        <time>2015-06-20T07:46:00Z</time>
      </trkpt>
      <trkpt lat="45.08986" lon="5.89487">
        <ele>749</ele>
        <time>2015-06-20T07:46:02Z</time>
      </trkpt>
      <trkpt lat="45.08986" lon="5.8949">
        <ele>749</ele>
        <time>2015-06-20T07:46:04Z</time>
      </trkpt>
      <trkpt lat="45.08984" lon="5.89493">
        <ele>747</ele>
        <time>2015-06-20T07:46:07Z</time>
      </trkpt>
      <trkpt lat="45.08982" lon="5.89494">
        <ele>747</ele>
        <time>2015-06-20T07:46:08Z</time>
      </trkpt>
      <trkpt lat="45.0898" lon="5.89498">
        <ele>747</ele>
        <time>2015-06-20T07:46:10Z</time>
      </trkpt>
      <trkpt lat="45.08979" lon="5.89501">
        <ele>747</ele>
        <time>2015-06-20T07:46:11Z</time>
      </trkpt>
      <trkpt lat="45.0898" lon="5.89504">
        <ele>745</ele>
        <time>2015-06-20T07:46:12Z</time>
      </trkpt>
      <trkpt lat="45.08981" lon="5.89507">
        <ele>745</ele>
        <time>2015-06-20T07:46:13Z</time>
      </trkpt>
      <trkpt lat="45.08981" lon="5.8951">
        <ele>745</ele>
        <time>2015-06-20T07:46:14Z</time>
      </trkpt>
      <trkpt lat="45.08981" lon="5.89515">
        <ele>745</ele>
        <time>2015-06-20T07:46:16Z</time>
      </trkpt>
      <trkpt lat="45.08981" lon="5.89519">
        <ele>740</ele>
        <time>2015-06-20T07:46:17Z</time>
      </trkpt>
      <trkpt lat="45.08981" lon="5.89522">
        <ele>740</ele>
        <time>2015-06-20T07:46:18Z</time>
      </trkpt>
      <trkpt lat="45.0898" lon="5.89525">
        <ele>740</ele>
        <time>2015-06-20T07:46:19Z</time>
      </trkpt>
      <trkpt lat="45.0898" lon="5.8953">
        <ele>738</ele>
        <time>2015-06-20T07:46:21Z</time>
      </trkpt>
      <trkpt lat="45.0898" lon="5.89533">
        <ele>738</ele>
        <time>2015-06-20T07:46:22Z</time>
      </trkpt>
      <trkpt lat="45.08981" lon="5.89537">
        <ele>734</ele>
        <time>2015-06-20T07:46:24Z</time>
      </trkpt>
      <trkpt lat="45.08982" lon="5.89539">
        <ele>734</ele>
        <time>2015-06-20T07:46:25Z</time>
      </trkpt>
      <trkpt lat="45.08984" lon="5.89544">
        <ele>733</ele>
        <time>2015-06-20T07:46:27Z</time>
      </trkpt>
      <trkpt lat="45.08985" lon="5.89546">
        <ele>732</ele>
        <time>2015-06-20T07:46:28Z</time>
      </trkpt>
      <trkpt lat="45.08984" lon="5.89549">
        <ele>731</ele>
        <time>2015-06-20T07:46:30Z</time>
      </trkpt>
      <trkpt lat="45.08985" lon="5.89552">
        <ele>731</ele>
        <time>2015-06-20T07:46:32Z</time>
      </trkpt>
      <trkpt lat="45.08985" lon="5.89555">
        <ele>729</ele>
        <time>2015-06-20T07:46:33Z</time>
      </trkpt>
      <trkpt lat="45.08985" lon="5.89558">
        <ele>729</ele>
        <time>2015-06-20T07:46:34Z</time>
      </trkpt>
      <trkpt lat="45.08984" lon="5.89561">
        <ele>728</ele>
        <time>2015-06-20T07:46:35Z</time>
      </trkpt>
      <trkpt lat="45.08984" lon="5.89566">
        <ele>726</ele>
        <time>2015-06-20T07:46:37Z</time>
      </trkpt>
      <trkpt lat="45.08985" lon="5.8957">
        <ele>726</ele>
        <time>2015-06-20T07:46:39Z</time>
      </trkpt>
      <trkpt lat="45.08985" lon="5.89573">
        <ele>724</ele>
        <time>2015-06-20T07:46:40Z</time>
      </trkpt>
      <trkpt lat="45.08985" lon="5.89576">
        <ele>724</ele>
        <time>2015-06-20T07:46:41Z</time>
      </trkpt>
      <trkpt lat="45.08986" lon="5.89579">
        <ele>723</ele>
        <time>2015-06-20T07:46:42Z</time>
      </trkpt>
      <trkpt lat="45.08986" lon="5.89582">
        <ele>723</ele>
        <time>2015-06-20T07:46:43Z</time>
      </trkpt>
      <trkpt lat="45.08988" lon="5.89587">
        <ele>721</ele>
        <time>2015-06-20T07:46:45Z</time>
      </trkpt>
      <trkpt lat="45.08989" lon="5.8959">
        <ele>720</ele>
        <time>2015-06-20T07:46:46Z</time>
      </trkpt>
      <trkpt lat="45.08991" lon="5.89592">
        <ele>720</ele>
        <time>2015-06-20T07:46:47Z</time>
      </trkpt>
      <trkpt lat="45.08992" lon="5.89594">
        <ele>719</ele>
        <time>2015-06-20T07:46:48Z</time>
      </trkpt>
      <trkpt lat="45.08995" lon="5.89597">
        <ele>717</ele>
        <time>2015-06-20T07:46:50Z</time>
      </trkpt>
      <trkpt lat="45.08996" lon="5.896">
        <ele>716</ele>
        <time>2015-06-20T07:46:52Z</time>
      </trkpt>
      <trkpt lat="45.08994" lon="5.89602">
        <ele>714</ele>
        <time>2015-06-20T07:46:54Z</time>
      </trkpt>
      <trkpt lat="45.08993" lon="5.89605">
        <ele>713</ele>
        <time>2015-06-20T07:46:56Z</time>
      </trkpt>
      <trkpt lat="45.08989" lon="5.89603">
        <ele>711</ele>
        <time>2015-06-20T07:46:58Z</time>
      </trkpt>
      <trkpt lat="45.08987" lon="5.89602">
        <ele>711</ele>
        <time>2015-06-20T07:46:59Z</time>
      </trkpt>
      <trkpt lat="45.08985" lon="5.89601">
        <ele>708</ele>
        <time>2015-06-20T07:47:01Z</time>
      </trkpt>
      <trkpt lat="45.08981" lon="5.89601">
        <ele>708</ele>
        <time>2015-06-20T07:47:03Z</time>
      </trkpt>
      <trkpt lat="45.08979" lon="5.89601">
        <ele>706</ele>
        <time>2015-06-20T07:47:04Z</time>
      </trkpt>
      <trkpt lat="45.08978" lon="5.89605">
        <ele>705</ele>
        <time>2015-06-20T07:47:07Z</time>
      </trkpt>
      <trkpt lat="45.08977" lon="5.89608">
        <ele>703</ele>
        <time>2015-06-20T07:47:08Z</time>
      </trkpt>
      <trkpt lat="45.08977" lon="5.89611">
        <ele>703</ele>
        <time>2015-06-20T07:47:09Z</time>
      </trkpt>
      <trkpt lat="45.08977" lon="5.89615">
        <ele>702</ele>
        <time>2015-06-20T07:47:10Z</time>
      </trkpt>
      <trkpt lat="45.08978" lon="5.89619">
        <ele>700</ele>
        <time>2015-06-20T07:47:12Z</time>
      </trkpt>
      <trkpt lat="45.08979" lon="5.89621">
        <ele>700</ele>
        <time>2015-06-20T07:47:13Z</time>
      </trkpt>
      <trkpt lat="45.0898" lon="5.89626">
        <ele>698</ele>
        <time>2015-06-20T07:47:15Z</time>
      </trkpt>
      <trkpt lat="45.08982" lon="5.89628">
        <ele>695</ele>
        <time>2015-06-20T07:47:16Z</time>
      </trkpt>
      <trkpt lat="45.08983" lon="5.89632">
        <ele>694</ele>
        <time>2015-06-20T07:47:18Z</time>
      </trkpt>
      <trkpt lat="45.08985" lon="5.89634">
        <ele>694</ele>
        <time>2015-06-20T07:47:19Z</time>
      </trkpt>
      <trkpt lat="45.08986" lon="5.89635">
        <ele>693</ele>
        <time>2015-06-20T07:47:20Z</time>
      </trkpt>
      <trkpt lat="45.08989" lon="5.89641">
        <ele>691</ele>
        <time>2015-06-20T07:47:22Z</time>
      </trkpt>
      <trkpt lat="45.0899" lon="5.89645">
        <ele>691</ele>
        <time>2015-06-20T07:47:23Z</time>
      </trkpt>
      <trkpt lat="45.08991" lon="5.89648">
        <ele>689</ele>
        <time>2015-06-20T07:47:24Z</time>
      </trkpt>
      <trkpt lat="45.08989" lon="5.89649">
        <ele>688</ele>
        <time>2015-06-20T07:47:26Z</time>
      </trkpt>
      <trkpt lat="45.0899" lon="5.89652">
        <ele>688</ele>
        <time>2015-06-20T07:47:29Z</time>
      </trkpt>
      <trkpt lat="45.0899" lon="5.89654">
        <ele>686</ele>
        <time>2015-06-20T07:47:30Z</time>
      </trkpt>
      <trkpt lat="45.08991" lon="5.89657">
        <ele>686</ele>
        <time>2015-06-20T07:47:31Z</time>
      </trkpt>
      <trkpt lat="45.08992" lon="5.8966">
        <ele>686</ele>
        <time>2015-06-20T07:47:32Z</time>
      </trkpt>
      <trkpt lat="45.08993" lon="5.89664">
        <ele>684</ele>
        <time>2015-06-20T07:47:34Z</time>
      </trkpt>
      <trkpt lat="45.08993" lon="5.89669">
        <ele>681</ele>
        <time>2015-06-20T07:47:36Z</time>
      </trkpt>
      <trkpt lat="45.08995" lon="5.89671">
        <ele>681</ele>
        <time>2015-06-20T07:47:37Z</time>
      </trkpt>
      <trkpt lat="45.08998" lon="5.89674">
        <ele>678</ele>
        <time>2015-06-20T07:47:38Z</time>
      </trkpt>
      <trkpt lat="45.08999" lon="5.89676">
        <ele>678</ele>
        <time>2015-06-20T07:47:39Z</time>
      </trkpt>
      <trkpt lat="45.09001" lon="5.89679">
        <ele>677</ele>
        <time>2015-06-20T07:47:40Z</time>
      </trkpt>
      <trkpt lat="45.09002" lon="5.89681">
        <ele>677</ele>
        <time>2015-06-20T07:47:41Z</time>
      </trkpt>
      <trkpt lat="45.09003" lon="5.89685">
        <ele>675</ele>
        <time>2015-06-20T07:47:43Z</time>
      </trkpt>
      <trkpt lat="45.09004" lon="5.89689">
        <ele>675</ele>
        <time>2015-06-20T07:47:45Z</time>
      </trkpt>
      <trkpt lat="45.09005" lon="5.89692">
        <ele>675</ele>
        <time>2015-06-20T07:47:46Z</time>
      </trkpt>
      <trkpt lat="45.09006" lon="5.89693">
        <ele>673</ele>
        <time>2015-06-20T07:47:47Z</time>
      </trkpt>
      <trkpt lat="45.09006" lon="5.89697">
        <ele>670</ele>
        <time>2015-06-20T07:47:50Z</time>
      </trkpt>
      <trkpt lat="45.09006" lon="5.897">
        <ele>670</ele>
        <time>2015-06-20T07:47:52Z</time>
      </trkpt>
      <trkpt lat="45.09008" lon="5.89702">
        <ele>670</ele>
        <time>2015-06-20T07:47:53Z</time>
      </trkpt>
      <trkpt lat="45.09009" lon="5.89706">
        <ele>667</ele>
        <time>2015-06-20T07:47:55Z</time>
      </trkpt>
      <trkpt lat="45.0901" lon="5.89708">
        <ele>667</ele>
        <time>2015-06-20T07:47:57Z</time>
      </trkpt>
      <trkpt lat="45.0901" lon="5.89712">
        <ele>666</ele>
        <time>2015-06-20T07:48:00Z</time>
      </trkpt>
      <trkpt lat="45.09012" lon="5.89712">
        <ele>664</ele>
        <time>2015-06-20T07:48:01Z</time>
      </trkpt>
      <trkpt lat="45.09015" lon="5.89715">
        <ele>664</ele>
        <time>2015-06-20T07:48:03Z</time>
      </trkpt>
      <trkpt lat="45.09016" lon="5.89718">
        <ele>663</ele>
        <time>2015-06-20T07:48:05Z</time>
      </trkpt>
      <trkpt lat="45.09018" lon="5.89722">
        <ele>663</ele>
        <time>2015-06-20T07:48:06Z</time>
      </trkpt>
      <trkpt lat="45.09019" lon="5.89724">
        <ele>661</ele>
        <time>2015-06-20T07:48:07Z</time>
      </trkpt>
      <trkpt lat="45.09019" lon="5.89728">
        <ele>661</ele>
        <time>2015-06-20T07:48:08Z</time>
      </trkpt>
      <trkpt lat="45.0902" lon="5.89731">
        <ele>657</ele>
        <time>2015-06-20T07:48:10Z</time>
      </trkpt>
      <trkpt lat="45.09022" lon="5.89733">
        <ele>657</ele>
        <time>2015-06-20T07:48:12Z</time>
      </trkpt>
      <trkpt lat="45.09023" lon="5.89736">
        <ele>657</ele>
        <time>2015-06-20T07:48:14Z</time>
      </trkpt>
      <trkpt lat="45.09024" lon="5.89741">
        <ele>654</ele>
        <time>2015-06-20T07:48:16Z</time>
      </trkpt>
      <trkpt lat="45.09024" lon="5.89744">
        <ele>654</ele>
        <time>2015-06-20T07:48:17Z</time>
      </trkpt>
      <trkpt lat="45.09026" lon="5.89747">
        <ele>652</ele>
        <time>2015-06-20T07:48:18Z</time>
      </trkpt>
      <trkpt lat="45.09025" lon="5.8975">
        <ele>652</ele>
        <time>2015-06-20T07:48:19Z</time>
      </trkpt>
      <trkpt lat="45.09026" lon="5.89755">
        <ele>651</ele>
        <time>2015-06-20T07:48:20Z</time>
      </trkpt>
      <trkpt lat="45.09026" lon="5.89759">
        <ele>651</ele>
        <time>2015-06-20T07:48:21Z</time>
      </trkpt>
      <trkpt lat="45.09027" lon="5.89762">
        <ele>651</ele>
        <time>2015-06-20T07:48:22Z</time>
      </trkpt>
      <trkpt lat="45.09027" lon="5.89765">
        <ele>651</ele>
        <time>2015-06-20T07:48:23Z</time>
      </trkpt>
      <trkpt lat="45.09028" lon="5.89768">
        <ele>650</ele>
        <time>2015-06-20T07:48:24Z</time>
      </trkpt>
      <trkpt lat="45.09029" lon="5.89771">
        <ele>648</ele>
        <time>2015-06-20T07:48:26Z</time>
      </trkpt>
      <trkpt lat="45.0903" lon="5.89776">
        <ele>648</ele>
        <time>2015-06-20T07:48:28Z</time>
      </trkpt>
      <trkpt lat="45.0903" lon="5.89778">
        <ele>648</ele>
        <time>2015-06-20T07:48:29Z</time>
      </trkpt>
      <trkpt lat="45.09032" lon="5.89781">
        <ele>647</ele>
        <time>2015-06-20T07:48:30Z</time>
      </trkpt>
      <trkpt lat="45.09034" lon="5.89784">
        <ele>647</ele>
        <time>2015-06-20T07:48:31Z</time>
      </trkpt>
      <trkpt lat="45.09035" lon="5.89788">
        <ele>646</ele>
        <time>2015-06-20T07:48:32Z</time>
      </trkpt>
      <trkpt lat="45.09036" lon="5.8979">
        <ele>646</ele>
        <time>2015-06-20T07:48:33Z</time>
      </trkpt>
      <trkpt lat="45.09038" lon="5.89793">
        <ele>645</ele>
        <time>2015-06-20T07:48:34Z</time>
      </trkpt>
      <trkpt lat="45.09039" lon="5.89796">
        <ele>645</ele>
        <time>2015-06-20T07:48:35Z</time>
      </trkpt>
      <trkpt lat="45.0904" lon="5.89799">
        <ele>644</ele>
        <time>2015-06-20T07:48:36Z</time>
      </trkpt>
      <trkpt lat="45.09041" lon="5.89801">
        <ele>644</ele>
        <time>2015-06-20T07:48:37Z</time>
      </trkpt>
      <trkpt lat="45.09042" lon="5.89805">
        <ele>643</ele>
        <time>2015-06-20T07:48:38Z</time>
      </trkpt>
      <trkpt lat="45.09043" lon="5.89808">
        <ele>643</ele>
        <time>2015-06-20T07:48:39Z</time>
      </trkpt>
      <trkpt lat="45.09044" lon="5.89811">
        <ele>642</ele>
        <time>2015-06-20T07:48:40Z</time>
      </trkpt>
      <trkpt lat="45.09044" lon="5.89814">
        <ele>642</ele>
        <time>2015-06-20T07:48:41Z</time>
      </trkpt>
      <trkpt lat="45.09046" lon="5.89818">
        <ele>640</ele>
        <time>2015-06-20T07:48:42Z</time>
      </trkpt>
      <trkpt lat="45.09047" lon="5.89821">
        <ele>640</ele>
        <time>2015-06-20T07:48:43Z</time>
      </trkpt>
      <trkpt lat="45.09049" lon="5.89826">
        <ele>639</ele>
        <time>2015-06-20T07:48:44Z</time>
      </trkpt>
      <trkpt lat="45.09051" lon="5.89828">
        <ele>639</ele>
        <time>2015-06-20T07:48:45Z</time>
      </trkpt>
      <trkpt lat="45.09052" lon="5.8983">
        <ele>639</ele>
        <time>2015-06-20T07:48:46Z</time>
      </trkpt>
      <trkpt lat="45.09055" lon="5.89832">
        <ele>639</ele>
        <time>2015-06-20T07:48:47Z</time>
      </trkpt>
      <trkpt lat="45.09055" lon="5.89835">
        <ele>638</ele>
        <time>2015-06-20T07:48:48Z</time>
      </trkpt>
      <trkpt lat="45.09057" lon="5.89837">
        <ele>638</ele>
        <time>2015-06-20T07:48:49Z</time>
      </trkpt>
      <trkpt lat="45.09057" lon="5.89841">
        <ele>637</ele>
        <time>2015-06-20T07:48:51Z</time>
      </trkpt>
      <trkpt lat="45.0906" lon="5.89842">
        <ele>635</ele>
        <time>2015-06-20T07:48:52Z</time>
      </trkpt>
      <trkpt lat="45.09062" lon="5.89842">
        <ele>634</ele>
        <time>2015-06-20T07:48:53Z</time>
      </trkpt>
      <trkpt lat="45.09065" lon="5.89844">
        <ele>633</ele>
        <time>2015-06-20T07:48:55Z</time>
      </trkpt>
      <trkpt lat="45.09062" lon="5.89844">
        <ele>633</ele>
        <time>2015-06-20T07:48:57Z</time>
      </trkpt>
      <trkpt lat="45.0906" lon="5.89843">
        <ele>631</ele>
        <time>2015-06-20T07:48:58Z</time>
      </trkpt>
      <trkpt lat="45.09057" lon="5.89842">
        <ele>630</ele>
        <time>2015-06-20T07:49:00Z</time>
      </trkpt>
      <trkpt lat="45.09054" lon="5.89842">
        <ele>629</ele>
        <time>2015-06-20T07:49:02Z</time>
      </trkpt>
      <trkpt lat="45.09051" lon="5.89841">
        <ele>629</ele>
        <time>2015-06-20T07:49:03Z</time>
      </trkpt>
      <trkpt lat="45.09048" lon="5.89838">
        <ele>628</ele>
        <time>2015-06-20T07:49:04Z</time>
      </trkpt>
      <trkpt lat="45.09045" lon="5.89836">
        <ele>628</ele>
        <time>2015-06-20T07:49:05Z</time>
      </trkpt>
      <trkpt lat="45.09042" lon="5.89836">
        <ele>627</ele>
        <time>2015-06-20T07:49:06Z</time>
      </trkpt>
      <trkpt lat="45.0904" lon="5.89834">
        <ele>627</ele>
        <time>2015-06-20T07:49:07Z</time>
      </trkpt>
      <trkpt lat="45.09037" lon="5.89831">
        <ele>626</ele>
        <time>2015-06-20T07:49:08Z</time>
      </trkpt>
      <trkpt lat="45.09035" lon="5.89828">
        <ele>626</ele>
        <time>2015-06-20T07:49:09Z</time>
      </trkpt>
      <trkpt lat="45.09033" lon="5.89825">
        <ele>625</ele>
        <time>2015-06-20T07:49:10Z</time>
      </trkpt>
      <trkpt lat="45.09032" lon="5.89822">
        <ele>625</ele>
        <time>2015-06-20T07:49:11Z</time>
      </trkpt>
      <trkpt lat="45.0903" lon="5.89819">
        <ele>624</ele>
        <time>2015-06-20T07:49:12Z</time>
      </trkpt>
      <trkpt lat="45.09027" lon="5.89818">
        <ele>623</ele>
        <time>2015-06-20T07:49:14Z</time>
      </trkpt>
      <trkpt lat="45.09024" lon="5.89818">
        <ele>623</ele>
        <time>2015-06-20T07:49:17Z</time>
      </trkpt>
      <trkpt lat="45.09021" lon="5.89817">
        <ele>623</ele>
        <time>2015-06-20T07:49:19Z</time>
      </trkpt>
      <trkpt lat="45.09019" lon="5.89817">
        <ele>619</ele>
        <time>2015-06-20T07:49:20Z</time>
      </trkpt>
      <trkpt lat="45.09017" lon="5.89815">
        <ele>619</ele>
        <time>2015-06-20T07:49:21Z</time>
      </trkpt>
      <trkpt lat="45.09015" lon="5.89814">
        <ele>619</ele>
        <time>2015-06-20T07:49:22Z</time>
      </trkpt>
      <trkpt lat="45.09012" lon="5.89813">
        <ele>619</ele>
        <time>2015-06-20T07:49:23Z</time>
      </trkpt>
      <trkpt lat="45.09009" lon="5.8981">
        <ele>619</ele>
        <time>2015-06-20T07:49:24Z</time>
      </trkpt>
      <trkpt lat="45.09005" lon="5.89807">
        <ele>616</ele>
        <time>2015-06-20T07:49:25Z</time>
      </trkpt>
      <trkpt lat="45.09002" lon="5.89804">
        <ele>616</ele>
        <time>2015-06-20T07:49:26Z</time>
      </trkpt>
      <trkpt lat="45.09002" lon="5.89801">
        <ele>614</ele>
        <time>2015-06-20T07:49:27Z</time>
      </trkpt>
      <trkpt lat="45.09001" lon="5.89798">
        <ele>614</ele>
        <time>2015-06-20T07:49:28Z</time>
      </trkpt>
      <trkpt lat="45.08998" lon="5.89795">
        <ele>613</ele>
        <time>2015-06-20T07:49:30Z</time>
      </trkpt>
      <trkpt lat="45.08996" lon="5.89794">
        <ele>612</ele>
        <time>2015-06-20T07:49:31Z</time>
      </trkpt>
      <trkpt lat="45.08992" lon="5.89792">
        <ele>612</ele>
        <time>2015-06-20T07:49:33Z</time>
      </trkpt>
      <trkpt lat="45.08989" lon="5.89793">
        <ele>611</ele>
        <time>2015-06-20T07:49:35Z</time>
      </trkpt>
      <trkpt lat="45.08986" lon="5.89798">
        <ele>605</ele>
        <time>2015-06-20T07:49:40Z</time>
      </trkpt>
      <trkpt lat="45.08983" lon="5.89804">
        <ele>603</ele>
        <time>2015-06-20T07:49:42Z</time>
      </trkpt>
      <trkpt lat="45.08981" lon="5.89807">
        <ele>603</ele>
        <time>2015-06-20T07:49:44Z</time>
      </trkpt>
      <trkpt lat="45.0898" lon="5.8981">
        <ele>603</ele>
        <time>2015-06-20T07:49:45Z</time>
      </trkpt>
      <trkpt lat="45.08979" lon="5.89813">
        <ele>603</ele>
        <time>2015-06-20T07:49:46Z</time>
      </trkpt>
      <trkpt lat="45.08979" lon="5.89816">
        <ele>601</ele>
        <time>2015-06-20T07:49:48Z</time>
      </trkpt>
      <trkpt lat="45.08978" lon="5.89821">
        <ele>599</ele>
        <time>2015-06-20T07:49:50Z</time>
      </trkpt>
      <trkpt lat="45.08977" lon="5.89824">
        <ele>597</ele>
        <time>2015-06-20T07:49:52Z</time>
      </trkpt>
      <trkpt lat="45.08975" lon="5.89828">
        <ele>597</ele>
        <time>2015-06-20T07:49:54Z</time>
      </trkpt>
      <trkpt lat="45.08973" lon="5.89831">
        <ele>596</ele>
        <time>2015-06-20T07:49:56Z</time>
      </trkpt>
      <trkpt lat="45.08972" lon="5.89834">
        <ele>595</ele>
        <time>2015-06-20T07:49:58Z</time>
      </trkpt>
      <trkpt lat="45.08973" lon="5.89838">
        <ele>594</ele>
        <time>2015-06-20T07:50:00Z</time>
      </trkpt>
      <trkpt lat="45.08973" lon="5.89841">
        <ele>592</ele>
        <time>2015-06-20T07:50:01Z</time>
      </trkpt>
      <trkpt lat="45.08973" lon="5.89844">
        <ele>589</ele>
        <time>2015-06-20T07:50:05Z</time>
      </trkpt>
      <trkpt lat="45.08973" lon="5.89848">
        <ele>587</ele>
        <time>2015-06-20T07:50:07Z</time>
      </trkpt>
      <trkpt lat="45.08975" lon="5.8985">
        <ele>587</ele>
        <time>2015-06-20T07:50:08Z</time>
      </trkpt>
      <trkpt lat="45.08975" lon="5.89855">
        <ele>586</ele>
        <time>2015-06-20T07:50:10Z</time>
      </trkpt>
      <trkpt lat="45.08972" lon="5.89852">
        <ele>585</ele>
        <time>2015-06-20T07:50:12Z</time>
      </trkpt>
      <trkpt lat="45.0897" lon="5.89851">
        <ele>585</ele>
        <time>2015-06-20T07:50:13Z</time>
      </trkpt>
      <trkpt lat="45.08968" lon="5.89849">
        <ele>585</ele>
        <time>2015-06-20T07:50:14Z</time>
      </trkpt>
      <trkpt lat="45.08966" lon="5.89849">
        <ele>584</ele>
        <time>2015-06-20T07:50:15Z</time>
      </trkpt>
      <trkpt lat="45.08963" lon="5.89851">
        <ele>582</ele>
        <time>2015-06-20T07:50:17Z</time>
      </trkpt>
      <trkpt lat="45.08963" lon="5.89857">
        <ele>580</ele>
        <time>2015-06-20T07:50:19Z</time>
      </trkpt>
      <trkpt lat="45.08965" lon="5.8986">
        <ele>580</ele>
        <time>2015-06-20T07:50:20Z</time>
      </trkpt>
      <trkpt lat="45.08966" lon="5.89863">
        <ele>579</ele>
        <time>2015-06-20T07:50:21Z</time>
      </trkpt>
      <trkpt lat="45.08967" lon="5.89866">
        <ele>579</ele>
        <time>2015-06-20T07:50:22Z</time>
      </trkpt>
      <trkpt lat="45.08968" lon="5.89869">
        <ele>577</ele>
        <time>2015-06-20T07:50:23Z</time>
      </trkpt>
      <trkpt lat="45.08967" lon="5.89871">
        <ele>577</ele>
        <time>2015-06-20T07:50:24Z</time>
      </trkpt>
      <trkpt lat="45.08966" lon="5.89874">
        <ele>575</ele>
        <time>2015-06-20T07:50:26Z</time>
      </trkpt>
      <trkpt lat="45.08964" lon="5.89872">
        <ele>575</ele>
        <time>2015-06-20T07:50:27Z</time>
      </trkpt>
      <trkpt lat="45.08962" lon="5.89871">
        <ele>573</ele>
        <time>2015-06-20T07:50:28Z</time>
      </trkpt>
      <trkpt lat="45.08959" lon="5.89871">
        <ele>572</ele>
        <time>2015-06-20T07:50:30Z</time>
      </trkpt>
      <trkpt lat="45.08957" lon="5.89873">
        <ele>572</ele>
        <time>2015-06-20T07:50:31Z</time>
      </trkpt>
      <trkpt lat="45.08952" lon="5.89872">
        <ele>571</ele>
        <time>2015-06-20T07:50:33Z</time>
      </trkpt>
      <trkpt lat="45.08949" lon="5.89869">
        <ele>571</ele>
        <time>2015-06-20T07:50:34Z</time>
      </trkpt>
      <trkpt lat="45.08946" lon="5.89866">
        <ele>570</ele>
        <time>2015-06-20T07:50:35Z</time>
      </trkpt>
      <trkpt lat="45.08943" lon="5.89862">
        <ele>570</ele>
        <time>2015-06-20T07:50:36Z</time>
      </trkpt>
      <trkpt lat="45.08941" lon="5.89859">
        <ele>568</ele>
        <time>2015-06-20T07:50:37Z</time>
      </trkpt>
      <trkpt lat="45.0894" lon="5.89856">
        <ele>567</ele>
        <time>2015-06-20T07:50:38Z</time>
      </trkpt>
      <trkpt lat="45.08938" lon="5.89854">
        <ele>567</ele>
        <time>2015-06-20T07:50:39Z</time>
      </trkpt>
      <trkpt lat="45.08936" lon="5.89853">
        <ele>566</ele>
        <time>2015-06-20T07:50:40Z</time>
      </trkpt>
      <trkpt lat="45.08934" lon="5.89851">
        <ele>566</ele>
        <time>2015-06-20T07:50:41Z</time>
      </trkpt>
      <trkpt lat="45.08933" lon="5.89852">
        <ele>565</ele>
        <time>2015-06-20T07:50:42Z</time>
      </trkpt>
      <trkpt lat="45.08931" lon="5.89852">
        <ele>565</ele>
        <time>2015-06-20T07:50:43Z</time>
      </trkpt>
      <trkpt lat="45.08929" lon="5.89852">
        <ele>563</ele>
        <time>2015-06-20T07:50:45Z</time>
      </trkpt>
      <trkpt lat="45.08925" lon="5.89851">
        <ele>562</ele>
        <time>2015-06-20T07:50:47Z</time>
      </trkpt>
      <trkpt lat="45.08923" lon="5.89848">
        <ele>561</ele>
        <time>2015-06-20T07:50:48Z</time>
      </trkpt>
      <trkpt lat="45.0892" lon="5.89847">
        <ele>561</ele>
        <time>2015-06-20T07:50:49Z</time>
      </trkpt>
      <trkpt lat="45.08918" lon="5.89846">
        <ele>560</ele>
        <time>2015-06-20T07:50:50Z</time>
      </trkpt>
      <trkpt lat="45.08917" lon="5.89844">
        <ele>560</ele>
        <time>2015-06-20T07:50:51Z</time>
      </trkpt>
      <trkpt lat="45.08916" lon="5.89842">
        <ele>560</ele>
        <time>2015-06-20T07:50:52Z</time>
      </trkpt>
      <trkpt lat="45.08914" lon="5.89839">
        <ele>560</ele>
        <time>2015-06-20T07:50:54Z</time>
      </trkpt>
      <trkpt lat="45.08913" lon="5.89836">
        <ele>561</ele>
        <time>2015-06-20T07:50:56Z</time>
      </trkpt>
      <trkpt lat="45.08911" lon="5.89835">
        <ele>561</ele>
        <time>2015-06-20T07:50:58Z</time>
      </trkpt>
      <trkpt lat="45.08908" lon="5.89835">
        <ele>561</ele>
        <time>2015-06-20T07:51:00Z</time>
      </trkpt>
      <trkpt lat="45.08906" lon="5.89834">
        <ele>561</ele>
        <time>2015-06-20T07:51:01Z</time>
      </trkpt>
      <trkpt lat="45.08904" lon="5.89834">
        <ele>561</ele>
        <time>2015-06-20T07:51:02Z</time>
      </trkpt>
      <trkpt lat="45.089" lon="5.89834">
        <ele>561</ele>
        <time>2015-06-20T07:51:04Z</time>
      </trkpt>
      <trkpt lat="45.08897" lon="5.89835">
        <ele>561</ele>
        <time>2015-06-20T07:51:06Z</time>
      </trkpt>
      <trkpt lat="45.08894" lon="5.89836">
        <ele>561</ele>
        <time>2015-06-20T07:51:07Z</time>
      </trkpt>
      <trkpt lat="45.08892" lon="5.89837">
        <ele>561</ele>
        <time>2015-06-20T07:51:08Z</time>
      </trkpt>
      <trkpt lat="45.0889" lon="5.89837">
        <ele>561</ele>
        <time>2015-06-20T07:51:09Z</time>
      </trkpt>
      <trkpt lat="45.08887" lon="5.89837">
        <ele>561</ele>
        <time>2015-06-20T07:51:10Z</time>
      </trkpt>
      <trkpt lat="45.08885" lon="5.89836">
        <ele>561</ele>
        <time>2015-06-20T07:51:11Z</time>
      </trkpt>
      <trkpt lat="45.08882" lon="5.89836">
        <ele>561</ele>
        <time>2015-06-20T07:51:12Z</time>
      </trkpt>
      <trkpt lat="45.0888" lon="5.89836">
        <ele>560</ele>
        <time>2015-06-20T07:51:13Z</time>
      </trkpt>
      <trkpt lat="45.08878" lon="5.89838">
        <ele>560</ele>
        <time>2015-06-20T07:51:14Z</time>
      </trkpt>
      <trkpt lat="45.08876" lon="5.89838">
        <ele>560</ele>
        <time>2015-06-20T07:51:15Z</time>
      </trkpt>
      <trkpt lat="45.08874" lon="5.89839">
        <ele>560</ele>
        <time>2015-06-20T07:51:16Z</time>
      </trkpt>
      <trkpt lat="45.08871" lon="5.89839">
        <ele>560</ele>
        <time>2015-06-20T07:51:17Z</time>
      </trkpt>
      <trkpt lat="45.08869" lon="5.89841">
        <ele>560</ele>
        <time>2015-06-20T07:51:19Z</time>
      </trkpt>
      <trkpt lat="45.08868" lon="5.89844">
        <ele>560</ele>
        <time>2015-06-20T07:51:20Z</time>
      </trkpt>
      <trkpt lat="45.08867" lon="5.89847">
        <ele>560</ele>
        <time>2015-06-20T07:51:21Z</time>
      </trkpt>
      <trkpt lat="45.08865" lon="5.89849">
        <ele>560</ele>
        <time>2015-06-20T07:51:22Z</time>
      </trkpt>
      <trkpt lat="45.08863" lon="5.8985">
        <ele>556</ele>
        <time>2015-06-20T07:51:24Z</time>
      </trkpt>
      <trkpt lat="45.0886" lon="5.89851">
        <ele>556</ele>
        <time>2015-06-20T07:51:26Z</time>
      </trkpt>
      <trkpt lat="45.08856" lon="5.89851">
        <ele>551</ele>
        <time>2015-06-20T07:51:28Z</time>
      </trkpt>
      <trkpt lat="45.08854" lon="5.8985">
        <ele>551</ele>
        <time>2015-06-20T07:51:30Z</time>
      </trkpt>
      <trkpt lat="45.08852" lon="5.89849">
        <ele>551</ele>
        <time>2015-06-20T07:51:32Z</time>
      </trkpt>
      <trkpt lat="45.08849" lon="5.8985">
        <ele>548</ele>
        <time>2015-06-20T07:51:34Z</time>
      </trkpt>
      <trkpt lat="45.08846" lon="5.89851">
        <ele>545</ele>
        <time>2015-06-20T07:51:36Z</time>
      </trkpt>
      <trkpt lat="45.0885" lon="5.89853">
        <ele>545</ele>
        <time>2015-06-20T07:51:59Z</time>
      </trkpt>
      <trkpt lat="45.08848" lon="5.89855">
        <ele>545</ele>
        <time>2015-06-20T07:52:03Z</time>
      </trkpt>
      <trkpt lat="45.08846" lon="5.89853">
        <ele>545</ele>
        <time>2015-06-20T07:52:04Z</time>
      </trkpt>
      <trkpt lat="45.08844" lon="5.8985">
        <ele>545</ele>
        <time>2015-06-20T07:52:05Z</time>
      </trkpt>
      <trkpt lat="45.08841" lon="5.89848">
        <ele>545</ele>
        <time>2015-06-20T07:52:06Z</time>
      </trkpt>
      <trkpt lat="45.08839" lon="5.89846">
        <ele>545</ele>
        <time>2015-06-20T07:52:07Z</time>
      </trkpt>
      <trkpt lat="45.08837" lon="5.89844">
        <ele>545</ele>
        <time>2015-06-20T07:52:08Z</time>
      </trkpt>
      <trkpt lat="45.08835" lon="5.89841">
        <ele>545</ele>
        <time>2015-06-20T07:52:09Z</time>
      </trkpt>
      <trkpt lat="45.08832" lon="5.89839">
        <ele>545</ele>
        <time>2015-06-20T07:52:10Z</time>
      </trkpt>
      <trkpt lat="45.0883" lon="5.89836">
        <ele>545</ele>
        <time>2015-06-20T07:52:11Z</time>
      </trkpt>
      <trkpt lat="45.08828" lon="5.89835">
        <ele>545</ele>
        <time>2015-06-20T07:52:12Z</time>
      </trkpt>
      <trkpt lat="45.08826" lon="5.89833">
        <ele>546</ele>
        <time>2015-06-20T07:52:13Z</time>
      </trkpt>
      <trkpt lat="45.08823" lon="5.89829">
        <ele>546</ele>
        <time>2015-06-20T07:52:14Z</time>
      </trkpt>
      <trkpt lat="45.08819" lon="5.89826">
        <ele>546</ele>
        <time>2015-06-20T07:52:15Z</time>
      </trkpt>
      <trkpt lat="45.08817" lon="5.89821">
        <ele>546</ele>
        <time>2015-06-20T07:52:16Z</time>
      </trkpt>
      <trkpt lat="45.08813" lon="5.89818">
        <ele>546</ele>
        <time>2015-06-20T07:52:17Z</time>
      </trkpt>
      <trkpt lat="45.0881" lon="5.89815">
        <ele>546</ele>
        <time>2015-06-20T07:52:18Z</time>
      </trkpt>
      <trkpt lat="45.08807" lon="5.89812">
        <ele>546</ele>
        <time>2015-06-20T07:52:19Z</time>
      </trkpt>
      <trkpt lat="45.08805" lon="5.89809">
        <ele>546</ele>
        <time>2015-06-20T07:52:20Z</time>
      </trkpt>
      <trkpt lat="45.08804" lon="5.89806">
        <ele>546</ele>
        <time>2015-06-20T07:52:21Z</time>
      </trkpt>
      <trkpt lat="45.08802" lon="5.89803">
        <ele>548</ele>
        <time>2015-06-20T07:52:22Z</time>
      </trkpt>
      <trkpt lat="45.088" lon="5.89801">
        <ele>548</ele>
        <time>2015-06-20T07:52:23Z</time>
      </trkpt>
      <trkpt lat="45.08799" lon="5.89799">
        <ele>548</ele>
        <time>2015-06-20T07:52:24Z</time>
      </trkpt>
      <trkpt lat="45.08797" lon="5.89796">
        <ele>548</ele>
        <time>2015-06-20T07:52:25Z</time>
      </trkpt>
      <trkpt lat="45.08794" lon="5.89795">
        <ele>548</ele>
        <time>2015-06-20T07:52:26Z</time>
      </trkpt>
      <trkpt lat="45.08791" lon="5.89794">
        <ele>548</ele>
        <time>2015-06-20T07:52:27Z</time>
      </trkpt>
      <trkpt lat="45.08789" lon="5.89792">
        <ele>548</ele>
        <time>2015-06-20T07:52:28Z</time>
      </trkpt>
      <trkpt lat="45.08787" lon="5.8979">
        <ele>548</ele>
        <time>2015-06-20T07:52:29Z</time>
      </trkpt>
      <trkpt lat="45.08785" lon="5.89788">
        <ele>548</ele>
        <time>2015-06-20T07:52:30Z</time>
      </trkpt>
      <trkpt lat="45.08783" lon="5.89786">
        <ele>548</ele>
        <time>2015-06-20T07:52:31Z</time>
      </trkpt>
      <trkpt lat="45.08781" lon="5.89785">
        <ele>549</ele>
        <time>2015-06-20T07:52:32Z</time>
      </trkpt>
      <trkpt lat="45.08779" lon="5.89783">
        <ele>549</ele>
        <time>2015-06-20T07:52:33Z</time>
      </trkpt>
      <trkpt lat="45.08777" lon="5.8978">
        <ele>549</ele>
        <time>2015-06-20T07:52:34Z</time>
      </trkpt>
      <trkpt lat="45.08775" lon="5.89778">
        <ele>549</ele>
        <time>2015-06-20T07:52:35Z</time>
      </trkpt>
      <trkpt lat="45.08774" lon="5.89775">
        <ele>549</ele>
        <time>2015-06-20T07:52:36Z</time>
      </trkpt>
      <trkpt lat="45.08773" lon="5.89773">
        <ele>549</ele>
        <time>2015-06-20T07:52:37Z</time>
      </trkpt>
      <trkpt lat="45.08771" lon="5.89771">
        <ele>549</ele>
        <time>2015-06-20T07:52:38Z</time>
      </trkpt>
      <trkpt lat="45.0877" lon="5.89769">
        <ele>549</ele>
        <time>2015-06-20T07:52:39Z</time>
      </trkpt>
      <trkpt lat="45.08769" lon="5.89765">
        <ele>549</ele>
        <time>2015-06-20T07:52:41Z</time>
      </trkpt>
      <trkpt lat="45.08768" lon="5.89763">
        <ele>551</ele>
        <time>2015-06-20T07:52:43Z</time>
      </trkpt>
      <trkpt lat="45.08768" lon="5.89759">
        <ele>551</ele>
        <time>2015-06-20T07:52:44Z</time>
      </trkpt>
      <trkpt lat="45.08768" lon="5.89756">
        <ele>551</ele>
        <time>2015-06-20T07:52:46Z</time>
      </trkpt>
    </trkseg>
  </trk>
</gpx>